<?xml version="1.0" encoding="UTF-8" standalone="no" ?>
<gpx xmlns="http://www.topografix.com/GPX/1/1" xmlns:xsi="http://www.w3.org/2001/XMLSchema-instance" xsi:schemaLocation="http://www.topografix.com/GPX/1/1 http://www.topografix.com/GPX/1/1/gpx.xsd" version="1.1" creator="VisuGPX - https://www.visugpx.com">
  <metadata>
    <name>CONNAC</name>
  </metadata>
  <trk>
    <name><![CDATA[CONNAC_1]]></name>
    <trkseg>
      <trkpt lat="44.01588" lon="2.57669">
        <ele>538</ele>
        <time>2021-10-31T07:04:37.000Z</time>
      </trkpt>
      <trkpt lat="44.01587" lon="2.57667">
        <ele>540</ele>
        <time>2021-10-31T07:04:38.000Z</time>
      </trkpt>
      <trkpt lat="44.01585" lon="2.57666">
        <ele>543</ele>
        <time>2021-10-31T07:04:39.000Z</time>
      </trkpt>
      <trkpt lat="44.01584" lon="2.57665">
        <ele>546</ele>
        <time>2021-10-31T07:04:40.000Z</time>
      </trkpt>
      <trkpt lat="44.01583" lon="2.57663">
        <ele>549</ele>
        <time>2021-10-31T07:04:41.000Z</time>
      </trkpt>
      <trkpt lat="44.01581" lon="2.57662">
        <ele>551</ele>
        <time>2021-10-31T07:04:42.000Z</time>
      </trkpt>
      <trkpt lat="44.0158" lon="2.57661">
        <ele>554</ele>
        <time>2021-10-31T07:04:43.000Z</time>
      </trkpt>
      <trkpt lat="44.01579" lon="2.5766">
        <ele>556</ele>
        <time>2021-10-31T07:04:44.000Z</time>
      </trkpt>
      <trkpt lat="44.01578" lon="2.57659">
        <ele>558</ele>
        <time>2021-10-31T07:04:45.000Z</time>
      </trkpt>
      <trkpt lat="44.01577" lon="2.57658">
        <ele>560</ele>
        <time>2021-10-31T07:04:46.000Z</time>
      </trkpt>
      <trkpt lat="44.01576" lon="2.57657">
        <ele>562</ele>
        <time>2021-10-31T07:04:47.000Z</time>
      </trkpt>
      <trkpt lat="44.01573" lon="2.57655">
        <ele>568</ele>
        <time>2021-10-31T07:04:48.000Z</time>
      </trkpt>
      <trkpt lat="44.01573" lon="2.57654">
        <ele>569</ele>
        <time>2021-10-31T07:04:49.000Z</time>
      </trkpt>
      <trkpt lat="44.01572" lon="2.57653">
        <ele>571</ele>
        <time>2021-10-31T07:04:50.000Z</time>
      </trkpt>
      <trkpt lat="44.01571" lon="2.57653">
        <ele>573</ele>
        <time>2021-10-31T07:04:51.000Z</time>
      </trkpt>
      <trkpt lat="44.0157" lon="2.57652">
        <ele>574</ele>
        <time>2021-10-31T07:04:52.000Z</time>
      </trkpt>
      <trkpt lat="44.01569" lon="2.57651">
        <ele>576</ele>
        <time>2021-10-31T07:04:53.000Z</time>
      </trkpt>
      <trkpt lat="44.01569" lon="2.57651">
        <ele>577</ele>
        <time>2021-10-31T07:04:54.000Z</time>
      </trkpt>
      <trkpt lat="44.01568" lon="2.5765">
        <ele>579</ele>
        <time>2021-10-31T07:04:55.000Z</time>
      </trkpt>
      <trkpt lat="44.01568" lon="2.5765">
        <ele>580</ele>
        <time>2021-10-31T07:04:56.000Z</time>
      </trkpt>
      <trkpt lat="44.01567" lon="2.57649">
        <ele>581</ele>
        <time>2021-10-31T07:04:57.000Z</time>
      </trkpt>
      <trkpt lat="44.01565" lon="2.57648">
        <ele>586</ele>
        <time>2021-10-31T07:04:58.000Z</time>
      </trkpt>
      <trkpt lat="44.01564" lon="2.57647">
        <ele>587</ele>
        <time>2021-10-31T07:04:59.000Z</time>
      </trkpt>
      <trkpt lat="44.01554" lon="2.57643">
        <ele>568</ele>
        <time>2021-10-31T07:05:00.000Z</time>
      </trkpt>
      <trkpt lat="44.01554" lon="2.57643">
        <ele>566</ele>
        <time>2021-10-31T07:05:01.000Z</time>
      </trkpt>
      <trkpt lat="44.01554" lon="2.57643">
        <ele>564</ele>
        <time>2021-10-31T07:05:02.000Z</time>
      </trkpt>
      <trkpt lat="44.01555" lon="2.57643">
        <ele>562</ele>
        <time>2021-10-31T07:05:03.000Z</time>
      </trkpt>
      <trkpt lat="44.01556" lon="2.57644">
        <ele>561</ele>
        <time>2021-10-31T07:05:04.000Z</time>
      </trkpt>
      <trkpt lat="44.01556" lon="2.57645">
        <ele>559</ele>
        <time>2021-10-31T07:05:05.000Z</time>
      </trkpt>
      <trkpt lat="44.01556" lon="2.57645">
        <ele>557</ele>
        <time>2021-10-31T07:05:06.000Z</time>
      </trkpt>
      <trkpt lat="44.01556" lon="2.57645">
        <ele>556</ele>
        <time>2021-10-31T07:05:07.000Z</time>
      </trkpt>
      <trkpt lat="44.01556" lon="2.57646">
        <ele>555</ele>
        <time>2021-10-31T07:05:08.000Z</time>
      </trkpt>
      <trkpt lat="44.01556" lon="2.57646">
        <ele>553</ele>
        <time>2021-10-31T07:05:09.000Z</time>
      </trkpt>
      <trkpt lat="44.01556" lon="2.57647">
        <ele>548</ele>
        <time>2021-10-31T07:05:10.000Z</time>
      </trkpt>
      <trkpt lat="44.01556" lon="2.57648">
        <ele>547</ele>
        <time>2021-10-31T07:05:11.000Z</time>
      </trkpt>
      <trkpt lat="44.01557" lon="2.57649">
        <ele>546</ele>
        <time>2021-10-31T07:05:12.000Z</time>
      </trkpt>
      <trkpt lat="44.01557" lon="2.5765">
        <ele>545</ele>
        <time>2021-10-31T07:05:13.000Z</time>
      </trkpt>
      <trkpt lat="44.01558" lon="2.57651">
        <ele>544</ele>
        <time>2021-10-31T07:05:14.000Z</time>
      </trkpt>
      <trkpt lat="44.01558" lon="2.57651">
        <ele>544</ele>
        <time>2021-10-31T07:05:15.000Z</time>
      </trkpt>
      <trkpt lat="44.01559" lon="2.57652">
        <ele>543</ele>
        <time>2021-10-31T07:05:16.000Z</time>
      </trkpt>
      <trkpt lat="44.01559" lon="2.57652">
        <ele>542</ele>
        <time>2021-10-31T07:05:17.000Z</time>
      </trkpt>
      <trkpt lat="44.0156" lon="2.57653">
        <ele>542</ele>
        <time>2021-10-31T07:05:18.000Z</time>
      </trkpt>
      <trkpt lat="44.01561" lon="2.57653">
        <ele>541</ele>
        <time>2021-10-31T07:05:19.000Z</time>
      </trkpt>
      <trkpt lat="44.01561" lon="2.57653">
        <ele>540</ele>
        <time>2021-10-31T07:05:20.000Z</time>
      </trkpt>
      <trkpt lat="44.01562" lon="2.57653">
        <ele>540</ele>
        <time>2021-10-31T07:05:21.000Z</time>
      </trkpt>
      <trkpt lat="44.01563" lon="2.57654">
        <ele>539</ele>
        <time>2021-10-31T07:05:22.000Z</time>
      </trkpt>
      <trkpt lat="44.01563" lon="2.57654">
        <ele>539</ele>
        <time>2021-10-31T07:05:23.000Z</time>
      </trkpt>
      <trkpt lat="44.01563" lon="2.57654">
        <ele>538</ele>
        <time>2021-10-31T07:05:24.000Z</time>
      </trkpt>
      <trkpt lat="44.01563" lon="2.57654">
        <ele>538</ele>
        <time>2021-10-31T07:05:25.000Z</time>
      </trkpt>
      <trkpt lat="44.01563" lon="2.57655">
        <ele>537</ele>
        <time>2021-10-31T07:05:26.000Z</time>
      </trkpt>
      <trkpt lat="44.01562" lon="2.57655">
        <ele>537</ele>
        <time>2021-10-31T07:05:27.000Z</time>
      </trkpt>
      <trkpt lat="44.01561" lon="2.57655">
        <ele>537</ele>
        <time>2021-10-31T07:05:28.000Z</time>
      </trkpt>
      <trkpt lat="44.0156" lon="2.57655">
        <ele>536</ele>
        <time>2021-10-31T07:05:29.000Z</time>
      </trkpt>
      <trkpt lat="44.01559" lon="2.57655">
        <ele>536</ele>
        <time>2021-10-31T07:05:30.000Z</time>
      </trkpt>
      <trkpt lat="44.01558" lon="2.57655">
        <ele>536</ele>
        <time>2021-10-31T07:05:31.000Z</time>
      </trkpt>
      <trkpt lat="44.01557" lon="2.57655">
        <ele>536</ele>
        <time>2021-10-31T07:05:32.000Z</time>
      </trkpt>
      <trkpt lat="44.01556" lon="2.57656">
        <ele>536</ele>
        <time>2021-10-31T07:05:33.000Z</time>
      </trkpt>
      <trkpt lat="44.01555" lon="2.57656">
        <ele>536</ele>
        <time>2021-10-31T07:05:34.000Z</time>
      </trkpt>
      <trkpt lat="44.01554" lon="2.57657">
        <ele>535</ele>
        <time>2021-10-31T07:05:35.000Z</time>
      </trkpt>
      <trkpt lat="44.01553" lon="2.57657">
        <ele>535</ele>
        <time>2021-10-31T07:05:36.000Z</time>
      </trkpt>
      <trkpt lat="44.01552" lon="2.57657">
        <ele>535</ele>
        <time>2021-10-31T07:05:37.000Z</time>
      </trkpt>
      <trkpt lat="44.01551" lon="2.57657">
        <ele>535</ele>
        <time>2021-10-31T07:05:38.000Z</time>
      </trkpt>
      <trkpt lat="44.0155" lon="2.57657">
        <ele>535</ele>
        <time>2021-10-31T07:05:39.000Z</time>
      </trkpt>
      <trkpt lat="44.01549" lon="2.57657">
        <ele>535</ele>
        <time>2021-10-31T07:05:40.000Z</time>
      </trkpt>
      <trkpt lat="44.01548" lon="2.57658">
        <ele>535</ele>
        <time>2021-10-31T07:05:41.000Z</time>
      </trkpt>
      <trkpt lat="44.01547" lon="2.57658">
        <ele>535</ele>
        <time>2021-10-31T07:05:42.000Z</time>
      </trkpt>
      <trkpt lat="44.01546" lon="2.57657">
        <ele>535</ele>
        <time>2021-10-31T07:05:43.000Z</time>
      </trkpt>
      <trkpt lat="44.01545" lon="2.57657">
        <ele>535</ele>
        <time>2021-10-31T07:05:44.000Z</time>
      </trkpt>
      <trkpt lat="44.01544" lon="2.57658">
        <ele>535</ele>
        <time>2021-10-31T07:05:45.000Z</time>
      </trkpt>
      <trkpt lat="44.01543" lon="2.57658">
        <ele>535</ele>
        <time>2021-10-31T07:05:46.000Z</time>
      </trkpt>
      <trkpt lat="44.01542" lon="2.57658">
        <ele>535</ele>
        <time>2021-10-31T07:05:47.000Z</time>
      </trkpt>
      <trkpt lat="44.01541" lon="2.57658">
        <ele>535</ele>
        <time>2021-10-31T07:05:48.000Z</time>
      </trkpt>
      <trkpt lat="44.0154" lon="2.57658">
        <ele>535</ele>
        <time>2021-10-31T07:05:49.000Z</time>
      </trkpt>
      <trkpt lat="44.01539" lon="2.57658">
        <ele>534</ele>
        <time>2021-10-31T07:05:50.000Z</time>
      </trkpt>
      <trkpt lat="44.01538" lon="2.57658">
        <ele>534</ele>
        <time>2021-10-31T07:05:51.000Z</time>
      </trkpt>
      <trkpt lat="44.01537" lon="2.57658">
        <ele>534</ele>
        <time>2021-10-31T07:05:52.000Z</time>
      </trkpt>
      <trkpt lat="44.01536" lon="2.57658">
        <ele>534</ele>
        <time>2021-10-31T07:05:53.000Z</time>
      </trkpt>
      <trkpt lat="44.01535" lon="2.57658">
        <ele>534</ele>
        <time>2021-10-31T07:05:54.000Z</time>
      </trkpt>
      <trkpt lat="44.01534" lon="2.57658">
        <ele>534</ele>
        <time>2021-10-31T07:05:55.000Z</time>
      </trkpt>
      <trkpt lat="44.01533" lon="2.57658">
        <ele>534</ele>
        <time>2021-10-31T07:05:56.000Z</time>
      </trkpt>
      <trkpt lat="44.01532" lon="2.57657">
        <ele>534</ele>
        <time>2021-10-31T07:05:57.000Z</time>
      </trkpt>
      <trkpt lat="44.01531" lon="2.57657">
        <ele>534</ele>
        <time>2021-10-31T07:05:58.000Z</time>
      </trkpt>
      <trkpt lat="44.01529" lon="2.57657">
        <ele>533</ele>
        <time>2021-10-31T07:05:59.000Z</time>
      </trkpt>
      <trkpt lat="44.01528" lon="2.57656">
        <ele>533</ele>
        <time>2021-10-31T07:06:00.000Z</time>
      </trkpt>
      <trkpt lat="44.01527" lon="2.57656">
        <ele>533</ele>
        <time>2021-10-31T07:06:01.000Z</time>
      </trkpt>
      <trkpt lat="44.01526" lon="2.57656">
        <ele>533</ele>
        <time>2021-10-31T07:06:02.000Z</time>
      </trkpt>
      <trkpt lat="44.01525" lon="2.57655">
        <ele>533</ele>
        <time>2021-10-31T07:06:03.000Z</time>
      </trkpt>
      <trkpt lat="44.01525" lon="2.57655">
        <ele>533</ele>
        <time>2021-10-31T07:06:04.000Z</time>
      </trkpt>
      <trkpt lat="44.01524" lon="2.57655">
        <ele>533</ele>
        <time>2021-10-31T07:06:05.000Z</time>
      </trkpt>
      <trkpt lat="44.01523" lon="2.57654">
        <ele>533</ele>
        <time>2021-10-31T07:06:06.000Z</time>
      </trkpt>
      <trkpt lat="44.01522" lon="2.57654">
        <ele>532</ele>
        <time>2021-10-31T07:06:07.000Z</time>
      </trkpt>
      <trkpt lat="44.01521" lon="2.57654">
        <ele>532</ele>
        <time>2021-10-31T07:06:08.000Z</time>
      </trkpt>
      <trkpt lat="44.0152" lon="2.57653">
        <ele>532</ele>
        <time>2021-10-31T07:06:09.000Z</time>
      </trkpt>
      <trkpt lat="44.01519" lon="2.57653">
        <ele>532</ele>
        <time>2021-10-31T07:06:10.000Z</time>
      </trkpt>
      <trkpt lat="44.01518" lon="2.57652">
        <ele>532</ele>
        <time>2021-10-31T07:06:11.000Z</time>
      </trkpt>
      <trkpt lat="44.01517" lon="2.57652">
        <ele>532</ele>
        <time>2021-10-31T07:06:12.000Z</time>
      </trkpt>
      <trkpt lat="44.01516" lon="2.57651">
        <ele>532</ele>
        <time>2021-10-31T07:06:13.000Z</time>
      </trkpt>
      <trkpt lat="44.01515" lon="2.57651">
        <ele>532</ele>
        <time>2021-10-31T07:06:14.000Z</time>
      </trkpt>
      <trkpt lat="44.01514" lon="2.5765">
        <ele>532</ele>
        <time>2021-10-31T07:06:15.000Z</time>
      </trkpt>
      <trkpt lat="44.01513" lon="2.5765">
        <ele>532</ele>
        <time>2021-10-31T07:06:16.000Z</time>
      </trkpt>
      <trkpt lat="44.01512" lon="2.5765">
        <ele>532</ele>
        <time>2021-10-31T07:06:17.000Z</time>
      </trkpt>
      <trkpt lat="44.01511" lon="2.57649">
        <ele>532</ele>
        <time>2021-10-31T07:06:18.000Z</time>
      </trkpt>
      <trkpt lat="44.0151" lon="2.57649">
        <ele>532</ele>
        <time>2021-10-31T07:06:19.000Z</time>
      </trkpt>
      <trkpt lat="44.01509" lon="2.57649">
        <ele>532</ele>
        <time>2021-10-31T07:06:20.000Z</time>
      </trkpt>
      <trkpt lat="44.01508" lon="2.57649">
        <ele>531</ele>
        <time>2021-10-31T07:06:21.000Z</time>
      </trkpt>
      <trkpt lat="44.01507" lon="2.57648">
        <ele>531</ele>
        <time>2021-10-31T07:06:22.000Z</time>
      </trkpt>
      <trkpt lat="44.01506" lon="2.57648">
        <ele>531</ele>
        <time>2021-10-31T07:06:23.000Z</time>
      </trkpt>
      <trkpt lat="44.01505" lon="2.57648">
        <ele>531</ele>
        <time>2021-10-31T07:06:24.000Z</time>
      </trkpt>
      <trkpt lat="44.01504" lon="2.57647">
        <ele>531</ele>
        <time>2021-10-31T07:06:25.000Z</time>
      </trkpt>
      <trkpt lat="44.01503" lon="2.57647">
        <ele>531</ele>
        <time>2021-10-31T07:06:26.000Z</time>
      </trkpt>
      <trkpt lat="44.01502" lon="2.57647">
        <ele>531</ele>
        <time>2021-10-31T07:06:27.000Z</time>
      </trkpt>
      <trkpt lat="44.01501" lon="2.57647">
        <ele>531</ele>
        <time>2021-10-31T07:06:28.000Z</time>
      </trkpt>
      <trkpt lat="44.015" lon="2.57646">
        <ele>531</ele>
        <time>2021-10-31T07:06:29.000Z</time>
      </trkpt>
      <trkpt lat="44.01499" lon="2.57646">
        <ele>531</ele>
        <time>2021-10-31T07:06:30.000Z</time>
      </trkpt>
      <trkpt lat="44.01498" lon="2.57646">
        <ele>531</ele>
        <time>2021-10-31T07:06:31.000Z</time>
      </trkpt>
      <trkpt lat="44.01496" lon="2.57646">
        <ele>531</ele>
        <time>2021-10-31T07:06:32.000Z</time>
      </trkpt>
      <trkpt lat="44.01495" lon="2.57646">
        <ele>531</ele>
        <time>2021-10-31T07:06:33.000Z</time>
      </trkpt>
      <trkpt lat="44.01494" lon="2.57646">
        <ele>530</ele>
        <time>2021-10-31T07:06:34.000Z</time>
      </trkpt>
      <trkpt lat="44.01493" lon="2.57645">
        <ele>530</ele>
        <time>2021-10-31T07:06:35.000Z</time>
      </trkpt>
      <trkpt lat="44.01492" lon="2.57645">
        <ele>530</ele>
        <time>2021-10-31T07:06:36.000Z</time>
      </trkpt>
      <trkpt lat="44.01491" lon="2.57645">
        <ele>530</ele>
        <time>2021-10-31T07:06:37.000Z</time>
      </trkpt>
      <trkpt lat="44.0149" lon="2.57645">
        <ele>530</ele>
        <time>2021-10-31T07:06:38.000Z</time>
      </trkpt>
      <trkpt lat="44.01488" lon="2.57645">
        <ele>530</ele>
        <time>2021-10-31T07:06:39.000Z</time>
      </trkpt>
      <trkpt lat="44.01487" lon="2.57645">
        <ele>530</ele>
        <time>2021-10-31T07:06:40.000Z</time>
      </trkpt>
      <trkpt lat="44.01486" lon="2.57645">
        <ele>530</ele>
        <time>2021-10-31T07:06:41.000Z</time>
      </trkpt>
      <trkpt lat="44.01485" lon="2.57645">
        <ele>530</ele>
        <time>2021-10-31T07:06:42.000Z</time>
      </trkpt>
      <trkpt lat="44.01484" lon="2.57646">
        <ele>530</ele>
        <time>2021-10-31T07:06:43.000Z</time>
      </trkpt>
      <trkpt lat="44.01483" lon="2.57647">
        <ele>530</ele>
        <time>2021-10-31T07:06:44.000Z</time>
      </trkpt>
      <trkpt lat="44.01483" lon="2.57648">
        <ele>530</ele>
        <time>2021-10-31T07:06:45.000Z</time>
      </trkpt>
      <trkpt lat="44.01482" lon="2.57649">
        <ele>530</ele>
        <time>2021-10-31T07:06:46.000Z</time>
      </trkpt>
      <trkpt lat="44.01481" lon="2.5765">
        <ele>530</ele>
        <time>2021-10-31T07:06:47.000Z</time>
      </trkpt>
      <trkpt lat="44.01481" lon="2.57651">
        <ele>530</ele>
        <time>2021-10-31T07:06:48.000Z</time>
      </trkpt>
      <trkpt lat="44.0148" lon="2.57652">
        <ele>530</ele>
        <time>2021-10-31T07:06:49.000Z</time>
      </trkpt>
      <trkpt lat="44.0148" lon="2.57654">
        <ele>530</ele>
        <time>2021-10-31T07:06:50.000Z</time>
      </trkpt>
      <trkpt lat="44.0148" lon="2.57655">
        <ele>530</ele>
        <time>2021-10-31T07:06:51.000Z</time>
      </trkpt>
      <trkpt lat="44.0148" lon="2.57657">
        <ele>530</ele>
        <time>2021-10-31T07:06:52.000Z</time>
      </trkpt>
      <trkpt lat="44.0148" lon="2.57659">
        <ele>530</ele>
        <time>2021-10-31T07:06:53.000Z</time>
      </trkpt>
      <trkpt lat="44.01479" lon="2.5766">
        <ele>530</ele>
        <time>2021-10-31T07:06:54.000Z</time>
      </trkpt>
      <trkpt lat="44.01479" lon="2.57661">
        <ele>530</ele>
        <time>2021-10-31T07:06:55.000Z</time>
      </trkpt>
      <trkpt lat="44.01479" lon="2.57663">
        <ele>530</ele>
        <time>2021-10-31T07:06:56.000Z</time>
      </trkpt>
      <trkpt lat="44.01479" lon="2.57664">
        <ele>530</ele>
        <time>2021-10-31T07:06:57.000Z</time>
      </trkpt>
      <trkpt lat="44.01479" lon="2.57666">
        <ele>530</ele>
        <time>2021-10-31T07:06:58.000Z</time>
      </trkpt>
      <trkpt lat="44.01479" lon="2.57667">
        <ele>530</ele>
        <time>2021-10-31T07:06:59.000Z</time>
      </trkpt>
      <trkpt lat="44.01478" lon="2.57669">
        <ele>530</ele>
        <time>2021-10-31T07:07:00.000Z</time>
      </trkpt>
      <trkpt lat="44.01478" lon="2.5767">
        <ele>530</ele>
        <time>2021-10-31T07:07:01.000Z</time>
      </trkpt>
      <trkpt lat="44.01478" lon="2.57672">
        <ele>530</ele>
        <time>2021-10-31T07:07:02.000Z</time>
      </trkpt>
      <trkpt lat="44.01478" lon="2.57673">
        <ele>530</ele>
        <time>2021-10-31T07:07:03.000Z</time>
      </trkpt>
      <trkpt lat="44.01478" lon="2.57675">
        <ele>530</ele>
        <time>2021-10-31T07:07:04.000Z</time>
      </trkpt>
      <trkpt lat="44.01478" lon="2.57676">
        <ele>530</ele>
        <time>2021-10-31T07:07:05.000Z</time>
      </trkpt>
      <trkpt lat="44.01478" lon="2.57678">
        <ele>530</ele>
        <time>2021-10-31T07:07:06.000Z</time>
      </trkpt>
      <trkpt lat="44.01477" lon="2.57679">
        <ele>530</ele>
        <time>2021-10-31T07:07:07.000Z</time>
      </trkpt>
      <trkpt lat="44.01477" lon="2.57681">
        <ele>530</ele>
        <time>2021-10-31T07:07:08.000Z</time>
      </trkpt>
      <trkpt lat="44.01477" lon="2.57683">
        <ele>530</ele>
        <time>2021-10-31T07:07:09.000Z</time>
      </trkpt>
      <trkpt lat="44.01477" lon="2.57684">
        <ele>530</ele>
        <time>2021-10-31T07:07:10.000Z</time>
      </trkpt>
      <trkpt lat="44.01477" lon="2.57686">
        <ele>530</ele>
        <time>2021-10-31T07:07:11.000Z</time>
      </trkpt>
      <trkpt lat="44.01477" lon="2.57688">
        <ele>530</ele>
        <time>2021-10-31T07:07:12.000Z</time>
      </trkpt>
      <trkpt lat="44.01477" lon="2.57689">
        <ele>530</ele>
        <time>2021-10-31T07:07:13.000Z</time>
      </trkpt>
      <trkpt lat="44.01477" lon="2.57691">
        <ele>530</ele>
        <time>2021-10-31T07:07:14.000Z</time>
      </trkpt>
      <trkpt lat="44.01477" lon="2.57692">
        <ele>530</ele>
        <time>2021-10-31T07:07:15.000Z</time>
      </trkpt>
      <trkpt lat="44.01477" lon="2.57694">
        <ele>531</ele>
        <time>2021-10-31T07:07:16.000Z</time>
      </trkpt>
      <trkpt lat="44.01477" lon="2.57696">
        <ele>531</ele>
        <time>2021-10-31T07:07:17.000Z</time>
      </trkpt>
      <trkpt lat="44.01477" lon="2.57697">
        <ele>531</ele>
        <time>2021-10-31T07:07:18.000Z</time>
      </trkpt>
      <trkpt lat="44.01477" lon="2.57699">
        <ele>531</ele>
        <time>2021-10-31T07:07:19.000Z</time>
      </trkpt>
      <trkpt lat="44.01477" lon="2.577">
        <ele>531</ele>
        <time>2021-10-31T07:07:20.000Z</time>
      </trkpt>
      <trkpt lat="44.01477" lon="2.57702">
        <ele>531</ele>
        <time>2021-10-31T07:07:21.000Z</time>
      </trkpt>
      <trkpt lat="44.01477" lon="2.57703">
        <ele>531</ele>
        <time>2021-10-31T07:07:22.000Z</time>
      </trkpt>
      <trkpt lat="44.01477" lon="2.57705">
        <ele>531</ele>
        <time>2021-10-31T07:07:23.000Z</time>
      </trkpt>
      <trkpt lat="44.01477" lon="2.57706">
        <ele>531</ele>
        <time>2021-10-31T07:07:24.000Z</time>
      </trkpt>
      <trkpt lat="44.01477" lon="2.57708">
        <ele>531</ele>
        <time>2021-10-31T07:07:25.000Z</time>
      </trkpt>
      <trkpt lat="44.01476" lon="2.57709">
        <ele>531</ele>
        <time>2021-10-31T07:07:26.000Z</time>
      </trkpt>
      <trkpt lat="44.01476" lon="2.57711">
        <ele>531</ele>
        <time>2021-10-31T07:07:27.000Z</time>
      </trkpt>
      <trkpt lat="44.01476" lon="2.57712">
        <ele>531</ele>
        <time>2021-10-31T07:07:28.000Z</time>
      </trkpt>
      <trkpt lat="44.01476" lon="2.57714">
        <ele>531</ele>
        <time>2021-10-31T07:07:29.000Z</time>
      </trkpt>
      <trkpt lat="44.01476" lon="2.57715">
        <ele>531</ele>
        <time>2021-10-31T07:07:30.000Z</time>
      </trkpt>
      <trkpt lat="44.01476" lon="2.57717">
        <ele>531</ele>
        <time>2021-10-31T07:07:31.000Z</time>
      </trkpt>
      <trkpt lat="44.01475" lon="2.57718">
        <ele>531</ele>
        <time>2021-10-31T07:07:32.000Z</time>
      </trkpt>
      <trkpt lat="44.01475" lon="2.5772">
        <ele>531</ele>
        <time>2021-10-31T07:07:33.000Z</time>
      </trkpt>
      <trkpt lat="44.01475" lon="2.57721">
        <ele>531</ele>
        <time>2021-10-31T07:07:34.000Z</time>
      </trkpt>
      <trkpt lat="44.01475" lon="2.57723">
        <ele>531</ele>
        <time>2021-10-31T07:07:35.000Z</time>
      </trkpt>
      <trkpt lat="44.01475" lon="2.57725">
        <ele>531</ele>
        <time>2021-10-31T07:07:36.000Z</time>
      </trkpt>
      <trkpt lat="44.01475" lon="2.57726">
        <ele>531</ele>
        <time>2021-10-31T07:07:37.000Z</time>
      </trkpt>
      <trkpt lat="44.01475" lon="2.57728">
        <ele>531</ele>
        <time>2021-10-31T07:07:38.000Z</time>
      </trkpt>
      <trkpt lat="44.01475" lon="2.5773">
        <ele>532</ele>
        <time>2021-10-31T07:07:39.000Z</time>
      </trkpt>
      <trkpt lat="44.01475" lon="2.57731">
        <ele>532</ele>
        <time>2021-10-31T07:07:40.000Z</time>
      </trkpt>
      <trkpt lat="44.01475" lon="2.57733">
        <ele>532</ele>
        <time>2021-10-31T07:07:41.000Z</time>
      </trkpt>
      <trkpt lat="44.01475" lon="2.57734">
        <ele>532</ele>
        <time>2021-10-31T07:07:42.000Z</time>
      </trkpt>
      <trkpt lat="44.01475" lon="2.57735">
        <ele>532</ele>
        <time>2021-10-31T07:07:43.000Z</time>
      </trkpt>
      <trkpt lat="44.01475" lon="2.57737">
        <ele>532</ele>
        <time>2021-10-31T07:07:44.000Z</time>
      </trkpt>
      <trkpt lat="44.01474" lon="2.57738">
        <ele>532</ele>
        <time>2021-10-31T07:07:45.000Z</time>
      </trkpt>
      <trkpt lat="44.01474" lon="2.5774">
        <ele>532</ele>
        <time>2021-10-31T07:07:46.000Z</time>
      </trkpt>
      <trkpt lat="44.01474" lon="2.57741">
        <ele>532</ele>
        <time>2021-10-31T07:07:47.000Z</time>
      </trkpt>
      <trkpt lat="44.01474" lon="2.57743">
        <ele>532</ele>
        <time>2021-10-31T07:07:48.000Z</time>
      </trkpt>
      <trkpt lat="44.01474" lon="2.57745">
        <ele>532</ele>
        <time>2021-10-31T07:07:49.000Z</time>
      </trkpt>
      <trkpt lat="44.01474" lon="2.57746">
        <ele>532</ele>
        <time>2021-10-31T07:07:50.000Z</time>
      </trkpt>
      <trkpt lat="44.01474" lon="2.57748">
        <ele>532</ele>
        <time>2021-10-31T07:07:51.000Z</time>
      </trkpt>
      <trkpt lat="44.01474" lon="2.57749">
        <ele>532</ele>
        <time>2021-10-31T07:07:52.000Z</time>
      </trkpt>
      <trkpt lat="44.01474" lon="2.57751">
        <ele>532</ele>
        <time>2021-10-31T07:07:53.000Z</time>
      </trkpt>
      <trkpt lat="44.01474" lon="2.57752">
        <ele>532</ele>
        <time>2021-10-31T07:07:54.000Z</time>
      </trkpt>
      <trkpt lat="44.01473" lon="2.57754">
        <ele>532</ele>
        <time>2021-10-31T07:07:55.000Z</time>
      </trkpt>
      <trkpt lat="44.01473" lon="2.57755">
        <ele>532</ele>
        <time>2021-10-31T07:07:56.000Z</time>
      </trkpt>
      <trkpt lat="44.01473" lon="2.57757">
        <ele>532</ele>
        <time>2021-10-31T07:07:57.000Z</time>
      </trkpt>
      <trkpt lat="44.01473" lon="2.57759">
        <ele>532</ele>
        <time>2021-10-31T07:07:58.000Z</time>
      </trkpt>
      <trkpt lat="44.01473" lon="2.5776">
        <ele>532</ele>
        <time>2021-10-31T07:07:59.000Z</time>
      </trkpt>
      <trkpt lat="44.01473" lon="2.57762">
        <ele>532</ele>
        <time>2021-10-31T07:08:00.000Z</time>
      </trkpt>
      <trkpt lat="44.01473" lon="2.57764">
        <ele>532</ele>
        <time>2021-10-31T07:08:01.000Z</time>
      </trkpt>
      <trkpt lat="44.01473" lon="2.57765">
        <ele>532</ele>
        <time>2021-10-31T07:08:02.000Z</time>
      </trkpt>
      <trkpt lat="44.01473" lon="2.57767">
        <ele>532</ele>
        <time>2021-10-31T07:08:03.000Z</time>
      </trkpt>
      <trkpt lat="44.01473" lon="2.57768">
        <ele>532</ele>
        <time>2021-10-31T07:08:04.000Z</time>
      </trkpt>
      <trkpt lat="44.01472" lon="2.5777">
        <ele>532</ele>
        <time>2021-10-31T07:08:05.000Z</time>
      </trkpt>
      <trkpt lat="44.01472" lon="2.57772">
        <ele>532</ele>
        <time>2021-10-31T07:08:06.000Z</time>
      </trkpt>
      <trkpt lat="44.01472" lon="2.57773">
        <ele>533</ele>
        <time>2021-10-31T07:08:07.000Z</time>
      </trkpt>
      <trkpt lat="44.01472" lon="2.57774">
        <ele>532</ele>
        <time>2021-10-31T07:08:08.000Z</time>
      </trkpt>
      <trkpt lat="44.01472" lon="2.57776">
        <ele>532</ele>
        <time>2021-10-31T07:08:09.000Z</time>
      </trkpt>
      <trkpt lat="44.01472" lon="2.57778">
        <ele>532</ele>
        <time>2021-10-31T07:08:10.000Z</time>
      </trkpt>
      <trkpt lat="44.01472" lon="2.57779">
        <ele>532</ele>
        <time>2021-10-31T07:08:11.000Z</time>
      </trkpt>
      <trkpt lat="44.01473" lon="2.57781">
        <ele>532</ele>
        <time>2021-10-31T07:08:12.000Z</time>
      </trkpt>
      <trkpt lat="44.01473" lon="2.57782">
        <ele>532</ele>
        <time>2021-10-31T07:08:13.000Z</time>
      </trkpt>
      <trkpt lat="44.01473" lon="2.57784">
        <ele>531</ele>
        <time>2021-10-31T07:08:14.000Z</time>
      </trkpt>
      <trkpt lat="44.01473" lon="2.57785">
        <ele>531</ele>
        <time>2021-10-31T07:08:15.000Z</time>
      </trkpt>
      <trkpt lat="44.01473" lon="2.57787">
        <ele>531</ele>
        <time>2021-10-31T07:08:16.000Z</time>
      </trkpt>
      <trkpt lat="44.01472" lon="2.57788">
        <ele>531</ele>
        <time>2021-10-31T07:08:17.000Z</time>
      </trkpt>
      <trkpt lat="44.01472" lon="2.5779">
        <ele>530</ele>
        <time>2021-10-31T07:08:18.000Z</time>
      </trkpt>
      <trkpt lat="44.01472" lon="2.57791">
        <ele>530</ele>
        <time>2021-10-31T07:08:19.000Z</time>
      </trkpt>
      <trkpt lat="44.01472" lon="2.57793">
        <ele>530</ele>
        <time>2021-10-31T07:08:20.000Z</time>
      </trkpt>
      <trkpt lat="44.01472" lon="2.57795">
        <ele>529</ele>
        <time>2021-10-31T07:08:21.000Z</time>
      </trkpt>
      <trkpt lat="44.01472" lon="2.57797">
        <ele>529</ele>
        <time>2021-10-31T07:08:22.000Z</time>
      </trkpt>
      <trkpt lat="44.01472" lon="2.57798">
        <ele>529</ele>
        <time>2021-10-31T07:08:23.000Z</time>
      </trkpt>
      <trkpt lat="44.01472" lon="2.578">
        <ele>529</ele>
        <time>2021-10-31T07:08:24.000Z</time>
      </trkpt>
      <trkpt lat="44.01472" lon="2.57801">
        <ele>529</ele>
        <time>2021-10-31T07:08:25.000Z</time>
      </trkpt>
      <trkpt lat="44.01472" lon="2.57803">
        <ele>529</ele>
        <time>2021-10-31T07:08:26.000Z</time>
      </trkpt>
      <trkpt lat="44.01472" lon="2.57805">
        <ele>529</ele>
        <time>2021-10-31T07:08:27.000Z</time>
      </trkpt>
      <trkpt lat="44.01472" lon="2.57806">
        <ele>529</ele>
        <time>2021-10-31T07:08:28.000Z</time>
      </trkpt>
      <trkpt lat="44.01472" lon="2.57808">
        <ele>529</ele>
        <time>2021-10-31T07:08:29.000Z</time>
      </trkpt>
      <trkpt lat="44.01472" lon="2.5781">
        <ele>529</ele>
        <time>2021-10-31T07:08:30.000Z</time>
      </trkpt>
      <trkpt lat="44.01472" lon="2.57811">
        <ele>529</ele>
        <time>2021-10-31T07:08:31.000Z</time>
      </trkpt>
      <trkpt lat="44.01472" lon="2.57813">
        <ele>529</ele>
        <time>2021-10-31T07:08:32.000Z</time>
      </trkpt>
      <trkpt lat="44.01472" lon="2.57815">
        <ele>529</ele>
        <time>2021-10-31T07:08:33.000Z</time>
      </trkpt>
      <trkpt lat="44.01472" lon="2.57817">
        <ele>529</ele>
        <time>2021-10-31T07:08:34.000Z</time>
      </trkpt>
      <trkpt lat="44.01472" lon="2.57819">
        <ele>529</ele>
        <time>2021-10-31T07:08:35.000Z</time>
      </trkpt>
      <trkpt lat="44.01472" lon="2.5782">
        <ele>528</ele>
        <time>2021-10-31T07:08:36.000Z</time>
      </trkpt>
      <trkpt lat="44.01472" lon="2.57822">
        <ele>528</ele>
        <time>2021-10-31T07:08:37.000Z</time>
      </trkpt>
      <trkpt lat="44.01472" lon="2.57824">
        <ele>528</ele>
        <time>2021-10-31T07:08:38.000Z</time>
      </trkpt>
      <trkpt lat="44.01472" lon="2.57826">
        <ele>528</ele>
        <time>2021-10-31T07:08:39.000Z</time>
      </trkpt>
      <trkpt lat="44.01472" lon="2.57828">
        <ele>528</ele>
        <time>2021-10-31T07:08:40.000Z</time>
      </trkpt>
      <trkpt lat="44.01472" lon="2.57829">
        <ele>528</ele>
        <time>2021-10-31T07:08:41.000Z</time>
      </trkpt>
      <trkpt lat="44.01472" lon="2.57831">
        <ele>528</ele>
        <time>2021-10-31T07:08:42.000Z</time>
      </trkpt>
      <trkpt lat="44.01472" lon="2.57833">
        <ele>528</ele>
        <time>2021-10-31T07:08:43.000Z</time>
      </trkpt>
      <trkpt lat="44.01472" lon="2.57834">
        <ele>528</ele>
        <time>2021-10-31T07:08:44.000Z</time>
      </trkpt>
      <trkpt lat="44.01472" lon="2.57836">
        <ele>528</ele>
        <time>2021-10-31T07:08:45.000Z</time>
      </trkpt>
      <trkpt lat="44.01472" lon="2.57837">
        <ele>528</ele>
        <time>2021-10-31T07:08:46.000Z</time>
      </trkpt>
      <trkpt lat="44.01472" lon="2.57839">
        <ele>528</ele>
        <time>2021-10-31T07:08:47.000Z</time>
      </trkpt>
      <trkpt lat="44.01472" lon="2.5784">
        <ele>528</ele>
        <time>2021-10-31T07:08:48.000Z</time>
      </trkpt>
      <trkpt lat="44.01472" lon="2.57842">
        <ele>528</ele>
        <time>2021-10-31T07:08:49.000Z</time>
      </trkpt>
      <trkpt lat="44.01472" lon="2.57844">
        <ele>528</ele>
        <time>2021-10-31T07:08:50.000Z</time>
      </trkpt>
      <trkpt lat="44.01472" lon="2.57845">
        <ele>528</ele>
        <time>2021-10-31T07:08:51.000Z</time>
      </trkpt>
      <trkpt lat="44.01472" lon="2.57845">
        <ele>528</ele>
        <time>2021-10-31T07:08:52.000Z</time>
      </trkpt>
      <trkpt lat="44.01472" lon="2.57847">
        <ele>528</ele>
        <time>2021-10-31T07:08:53.000Z</time>
      </trkpt>
      <trkpt lat="44.01472" lon="2.57848">
        <ele>528</ele>
        <time>2021-10-31T07:08:54.000Z</time>
      </trkpt>
      <trkpt lat="44.01472" lon="2.57848">
        <ele>528</ele>
        <time>2021-10-31T07:08:55.000Z</time>
      </trkpt>
      <trkpt lat="44.01472" lon="2.57849">
        <ele>528</ele>
        <time>2021-10-31T07:08:56.000Z</time>
      </trkpt>
      <trkpt lat="44.01472" lon="2.5785">
        <ele>528</ele>
        <time>2021-10-31T07:08:57.000Z</time>
      </trkpt>
      <trkpt lat="44.01472" lon="2.5785">
        <ele>528</ele>
        <time>2021-10-31T07:08:58.000Z</time>
      </trkpt>
      <trkpt lat="44.01472" lon="2.57853">
        <ele>528</ele>
        <time>2021-10-31T07:08:59.000Z</time>
      </trkpt>
      <trkpt lat="44.01472" lon="2.57854">
        <ele>528</ele>
        <time>2021-10-31T07:09:00.000Z</time>
      </trkpt>
      <trkpt lat="44.01472" lon="2.57856">
        <ele>528</ele>
        <time>2021-10-31T07:09:01.000Z</time>
      </trkpt>
      <trkpt lat="44.01472" lon="2.57857">
        <ele>528</ele>
        <time>2021-10-31T07:09:02.000Z</time>
      </trkpt>
      <trkpt lat="44.01472" lon="2.57858">
        <ele>528</ele>
        <time>2021-10-31T07:09:03.000Z</time>
      </trkpt>
      <trkpt lat="44.01472" lon="2.5786">
        <ele>528</ele>
        <time>2021-10-31T07:09:04.000Z</time>
      </trkpt>
      <trkpt lat="44.01472" lon="2.57861">
        <ele>528</ele>
        <time>2021-10-31T07:09:05.000Z</time>
      </trkpt>
      <trkpt lat="44.01472" lon="2.57862">
        <ele>528</ele>
        <time>2021-10-31T07:09:06.000Z</time>
      </trkpt>
      <trkpt lat="44.01471" lon="2.57864">
        <ele>528</ele>
        <time>2021-10-31T07:09:07.000Z</time>
      </trkpt>
      <trkpt lat="44.01471" lon="2.57865">
        <ele>528</ele>
        <time>2021-10-31T07:09:08.000Z</time>
      </trkpt>
      <trkpt lat="44.01471" lon="2.57866">
        <ele>528</ele>
        <time>2021-10-31T07:09:09.000Z</time>
      </trkpt>
      <trkpt lat="44.01471" lon="2.57868">
        <ele>528</ele>
        <time>2021-10-31T07:09:10.000Z</time>
      </trkpt>
      <trkpt lat="44.01471" lon="2.5787">
        <ele>528</ele>
        <time>2021-10-31T07:09:11.000Z</time>
      </trkpt>
      <trkpt lat="44.01471" lon="2.57872">
        <ele>528</ele>
        <time>2021-10-31T07:09:12.000Z</time>
      </trkpt>
      <trkpt lat="44.01471" lon="2.57873">
        <ele>528</ele>
        <time>2021-10-31T07:09:13.000Z</time>
      </trkpt>
      <trkpt lat="44.01471" lon="2.57875">
        <ele>528</ele>
        <time>2021-10-31T07:09:14.000Z</time>
      </trkpt>
      <trkpt lat="44.01471" lon="2.57876">
        <ele>528</ele>
        <time>2021-10-31T07:09:15.000Z</time>
      </trkpt>
      <trkpt lat="44.01471" lon="2.57878">
        <ele>528</ele>
        <time>2021-10-31T07:09:16.000Z</time>
      </trkpt>
      <trkpt lat="44.01471" lon="2.57879">
        <ele>528</ele>
        <time>2021-10-31T07:09:17.000Z</time>
      </trkpt>
      <trkpt lat="44.01471" lon="2.57881">
        <ele>528</ele>
        <time>2021-10-31T07:09:18.000Z</time>
      </trkpt>
      <trkpt lat="44.01471" lon="2.57882">
        <ele>528</ele>
        <time>2021-10-31T07:09:19.000Z</time>
      </trkpt>
      <trkpt lat="44.01471" lon="2.57884">
        <ele>528</ele>
        <time>2021-10-31T07:09:20.000Z</time>
      </trkpt>
      <trkpt lat="44.01471" lon="2.57885">
        <ele>528</ele>
        <time>2021-10-31T07:09:21.000Z</time>
      </trkpt>
      <trkpt lat="44.01471" lon="2.57886">
        <ele>528</ele>
        <time>2021-10-31T07:09:22.000Z</time>
      </trkpt>
      <trkpt lat="44.01471" lon="2.57887">
        <ele>528</ele>
        <time>2021-10-31T07:09:23.000Z</time>
      </trkpt>
      <trkpt lat="44.0147" lon="2.57888">
        <ele>528</ele>
        <time>2021-10-31T07:09:24.000Z</time>
      </trkpt>
      <trkpt lat="44.0147" lon="2.5789">
        <ele>528</ele>
        <time>2021-10-31T07:09:25.000Z</time>
      </trkpt>
      <trkpt lat="44.0147" lon="2.57891">
        <ele>528</ele>
        <time>2021-10-31T07:09:26.000Z</time>
      </trkpt>
      <trkpt lat="44.0147" lon="2.57892">
        <ele>528</ele>
        <time>2021-10-31T07:09:27.000Z</time>
      </trkpt>
      <trkpt lat="44.0147" lon="2.57894">
        <ele>528</ele>
        <time>2021-10-31T07:09:28.000Z</time>
      </trkpt>
      <trkpt lat="44.0147" lon="2.57896">
        <ele>528</ele>
        <time>2021-10-31T07:09:29.000Z</time>
      </trkpt>
      <trkpt lat="44.0147" lon="2.57897">
        <ele>528</ele>
        <time>2021-10-31T07:09:30.000Z</time>
      </trkpt>
      <trkpt lat="44.0147" lon="2.57899">
        <ele>528</ele>
        <time>2021-10-31T07:09:31.000Z</time>
      </trkpt>
      <trkpt lat="44.0147" lon="2.579">
        <ele>528</ele>
        <time>2021-10-31T07:09:32.000Z</time>
      </trkpt>
      <trkpt lat="44.0147" lon="2.57902">
        <ele>528</ele>
        <time>2021-10-31T07:09:33.000Z</time>
      </trkpt>
      <trkpt lat="44.0147" lon="2.57903">
        <ele>528</ele>
        <time>2021-10-31T07:09:34.000Z</time>
      </trkpt>
      <trkpt lat="44.0147" lon="2.57905">
        <ele>528</ele>
        <time>2021-10-31T07:09:35.000Z</time>
      </trkpt>
      <trkpt lat="44.0147" lon="2.57906">
        <ele>528</ele>
        <time>2021-10-31T07:09:36.000Z</time>
      </trkpt>
      <trkpt lat="44.01471" lon="2.57908">
        <ele>528</ele>
        <time>2021-10-31T07:09:37.000Z</time>
      </trkpt>
      <trkpt lat="44.01471" lon="2.5791">
        <ele>528</ele>
        <time>2021-10-31T07:09:38.000Z</time>
      </trkpt>
      <trkpt lat="44.01471" lon="2.57911">
        <ele>528</ele>
        <time>2021-10-31T07:09:39.000Z</time>
      </trkpt>
      <trkpt lat="44.01471" lon="2.57913">
        <ele>528</ele>
        <time>2021-10-31T07:09:40.000Z</time>
      </trkpt>
      <trkpt lat="44.01471" lon="2.57914">
        <ele>528</ele>
        <time>2021-10-31T07:09:41.000Z</time>
      </trkpt>
      <trkpt lat="44.01471" lon="2.57916">
        <ele>528</ele>
        <time>2021-10-31T07:09:42.000Z</time>
      </trkpt>
      <trkpt lat="44.01471" lon="2.57917">
        <ele>528</ele>
        <time>2021-10-31T07:09:43.000Z</time>
      </trkpt>
      <trkpt lat="44.01471" lon="2.57919">
        <ele>528</ele>
        <time>2021-10-31T07:09:44.000Z</time>
      </trkpt>
      <trkpt lat="44.01471" lon="2.57921">
        <ele>528</ele>
        <time>2021-10-31T07:09:45.000Z</time>
      </trkpt>
      <trkpt lat="44.01471" lon="2.57922">
        <ele>528</ele>
        <time>2021-10-31T07:09:46.000Z</time>
      </trkpt>
      <trkpt lat="44.01471" lon="2.57924">
        <ele>528</ele>
        <time>2021-10-31T07:09:47.000Z</time>
      </trkpt>
      <trkpt lat="44.01471" lon="2.57925">
        <ele>527</ele>
        <time>2021-10-31T07:09:48.000Z</time>
      </trkpt>
      <trkpt lat="44.01471" lon="2.57927">
        <ele>527</ele>
        <time>2021-10-31T07:09:49.000Z</time>
      </trkpt>
      <trkpt lat="44.01472" lon="2.57928">
        <ele>527</ele>
        <time>2021-10-31T07:09:50.000Z</time>
      </trkpt>
      <trkpt lat="44.01471" lon="2.5793">
        <ele>527</ele>
        <time>2021-10-31T07:09:51.000Z</time>
      </trkpt>
      <trkpt lat="44.01471" lon="2.57931">
        <ele>527</ele>
        <time>2021-10-31T07:09:52.000Z</time>
      </trkpt>
      <trkpt lat="44.01471" lon="2.57933">
        <ele>527</ele>
        <time>2021-10-31T07:09:53.000Z</time>
      </trkpt>
      <trkpt lat="44.01471" lon="2.57934">
        <ele>527</ele>
        <time>2021-10-31T07:09:54.000Z</time>
      </trkpt>
      <trkpt lat="44.01471" lon="2.57936">
        <ele>527</ele>
        <time>2021-10-31T07:09:55.000Z</time>
      </trkpt>
      <trkpt lat="44.01471" lon="2.57938">
        <ele>528</ele>
        <time>2021-10-31T07:09:56.000Z</time>
      </trkpt>
      <trkpt lat="44.01472" lon="2.57939">
        <ele>528</ele>
        <time>2021-10-31T07:09:57.000Z</time>
      </trkpt>
      <trkpt lat="44.01471" lon="2.57941">
        <ele>528</ele>
        <time>2021-10-31T07:09:58.000Z</time>
      </trkpt>
      <trkpt lat="44.01471" lon="2.57942">
        <ele>528</ele>
        <time>2021-10-31T07:09:59.000Z</time>
      </trkpt>
      <trkpt lat="44.01472" lon="2.57944">
        <ele>528</ele>
        <time>2021-10-31T07:10:00.000Z</time>
      </trkpt>
      <trkpt lat="44.01472" lon="2.57945">
        <ele>528</ele>
        <time>2021-10-31T07:10:01.000Z</time>
      </trkpt>
      <trkpt lat="44.01472" lon="2.57947">
        <ele>528</ele>
        <time>2021-10-31T07:10:02.000Z</time>
      </trkpt>
      <trkpt lat="44.01472" lon="2.57948">
        <ele>528</ele>
        <time>2021-10-31T07:10:03.000Z</time>
      </trkpt>
      <trkpt lat="44.01472" lon="2.57949">
        <ele>528</ele>
        <time>2021-10-31T07:10:04.000Z</time>
      </trkpt>
      <trkpt lat="44.01472" lon="2.57951">
        <ele>528</ele>
        <time>2021-10-31T07:10:05.000Z</time>
      </trkpt>
      <trkpt lat="44.01472" lon="2.57952">
        <ele>528</ele>
        <time>2021-10-31T07:10:06.000Z</time>
      </trkpt>
      <trkpt lat="44.01473" lon="2.57954">
        <ele>528</ele>
        <time>2021-10-31T07:10:07.000Z</time>
      </trkpt>
      <trkpt lat="44.01473" lon="2.57955">
        <ele>528</ele>
        <time>2021-10-31T07:10:08.000Z</time>
      </trkpt>
      <trkpt lat="44.01473" lon="2.57956">
        <ele>528</ele>
        <time>2021-10-31T07:10:09.000Z</time>
      </trkpt>
      <trkpt lat="44.01473" lon="2.57958">
        <ele>528</ele>
        <time>2021-10-31T07:10:10.000Z</time>
      </trkpt>
      <trkpt lat="44.01473" lon="2.57959">
        <ele>528</ele>
        <time>2021-10-31T07:10:11.000Z</time>
      </trkpt>
      <trkpt lat="44.01473" lon="2.57961">
        <ele>529</ele>
        <time>2021-10-31T07:10:12.000Z</time>
      </trkpt>
      <trkpt lat="44.01474" lon="2.57962">
        <ele>529</ele>
        <time>2021-10-31T07:10:13.000Z</time>
      </trkpt>
      <trkpt lat="44.01474" lon="2.57964">
        <ele>529</ele>
        <time>2021-10-31T07:10:14.000Z</time>
      </trkpt>
      <trkpt lat="44.01474" lon="2.57965">
        <ele>529</ele>
        <time>2021-10-31T07:10:15.000Z</time>
      </trkpt>
      <trkpt lat="44.01474" lon="2.57967">
        <ele>529</ele>
        <time>2021-10-31T07:10:16.000Z</time>
      </trkpt>
      <trkpt lat="44.01474" lon="2.57968">
        <ele>529</ele>
        <time>2021-10-31T07:10:17.000Z</time>
      </trkpt>
      <trkpt lat="44.01475" lon="2.5797">
        <ele>529</ele>
        <time>2021-10-31T07:10:18.000Z</time>
      </trkpt>
      <trkpt lat="44.01475" lon="2.57971">
        <ele>529</ele>
        <time>2021-10-31T07:10:19.000Z</time>
      </trkpt>
      <trkpt lat="44.01476" lon="2.57973">
        <ele>529</ele>
        <time>2021-10-31T07:10:20.000Z</time>
      </trkpt>
      <trkpt lat="44.01476" lon="2.57974">
        <ele>529</ele>
        <time>2021-10-31T07:10:21.000Z</time>
      </trkpt>
      <trkpt lat="44.01476" lon="2.57976">
        <ele>529</ele>
        <time>2021-10-31T07:10:22.000Z</time>
      </trkpt>
      <trkpt lat="44.01476" lon="2.57977">
        <ele>529</ele>
        <time>2021-10-31T07:10:23.000Z</time>
      </trkpt>
      <trkpt lat="44.01477" lon="2.57979">
        <ele>529</ele>
        <time>2021-10-31T07:10:24.000Z</time>
      </trkpt>
      <trkpt lat="44.01477" lon="2.5798">
        <ele>529</ele>
        <time>2021-10-31T07:10:25.000Z</time>
      </trkpt>
      <trkpt lat="44.01477" lon="2.57981">
        <ele>529</ele>
        <time>2021-10-31T07:10:26.000Z</time>
      </trkpt>
      <trkpt lat="44.01477" lon="2.57982">
        <ele>529</ele>
        <time>2021-10-31T07:10:27.000Z</time>
      </trkpt>
      <trkpt lat="44.01477" lon="2.57983">
        <ele>529</ele>
        <time>2021-10-31T07:10:28.000Z</time>
      </trkpt>
      <trkpt lat="44.01477" lon="2.57985">
        <ele>529</ele>
        <time>2021-10-31T07:10:29.000Z</time>
      </trkpt>
      <trkpt lat="44.01477" lon="2.57986">
        <ele>528</ele>
        <time>2021-10-31T07:10:30.000Z</time>
      </trkpt>
      <trkpt lat="44.01477" lon="2.57987">
        <ele>528</ele>
        <time>2021-10-31T07:10:31.000Z</time>
      </trkpt>
      <trkpt lat="44.01477" lon="2.57989">
        <ele>529</ele>
        <time>2021-10-31T07:10:32.000Z</time>
      </trkpt>
      <trkpt lat="44.01477" lon="2.5799">
        <ele>529</ele>
        <time>2021-10-31T07:10:33.000Z</time>
      </trkpt>
      <trkpt lat="44.01477" lon="2.57992">
        <ele>529</ele>
        <time>2021-10-31T07:10:34.000Z</time>
      </trkpt>
      <trkpt lat="44.01477" lon="2.57993">
        <ele>529</ele>
        <time>2021-10-31T07:10:35.000Z</time>
      </trkpt>
      <trkpt lat="44.01478" lon="2.57994">
        <ele>529</ele>
        <time>2021-10-31T07:10:36.000Z</time>
      </trkpt>
      <trkpt lat="44.01478" lon="2.57996">
        <ele>529</ele>
        <time>2021-10-31T07:10:37.000Z</time>
      </trkpt>
      <trkpt lat="44.01478" lon="2.57997">
        <ele>529</ele>
        <time>2021-10-31T07:10:38.000Z</time>
      </trkpt>
      <trkpt lat="44.01478" lon="2.57998">
        <ele>529</ele>
        <time>2021-10-31T07:10:39.000Z</time>
      </trkpt>
      <trkpt lat="44.01478" lon="2.58">
        <ele>529</ele>
        <time>2021-10-31T07:10:40.000Z</time>
      </trkpt>
      <trkpt lat="44.01478" lon="2.58001">
        <ele>529</ele>
        <time>2021-10-31T07:10:41.000Z</time>
      </trkpt>
      <trkpt lat="44.01478" lon="2.58003">
        <ele>529</ele>
        <time>2021-10-31T07:10:42.000Z</time>
      </trkpt>
      <trkpt lat="44.01478" lon="2.58004">
        <ele>529</ele>
        <time>2021-10-31T07:10:43.000Z</time>
      </trkpt>
      <trkpt lat="44.01478" lon="2.58006">
        <ele>529</ele>
        <time>2021-10-31T07:10:44.000Z</time>
      </trkpt>
      <trkpt lat="44.01478" lon="2.58007">
        <ele>529</ele>
        <time>2021-10-31T07:10:45.000Z</time>
      </trkpt>
      <trkpt lat="44.01478" lon="2.58009">
        <ele>529</ele>
        <time>2021-10-31T07:10:46.000Z</time>
      </trkpt>
      <trkpt lat="44.01478" lon="2.5801">
        <ele>529</ele>
        <time>2021-10-31T07:10:47.000Z</time>
      </trkpt>
      <trkpt lat="44.01478" lon="2.58012">
        <ele>529</ele>
        <time>2021-10-31T07:10:48.000Z</time>
      </trkpt>
      <trkpt lat="44.01479" lon="2.58013">
        <ele>529</ele>
        <time>2021-10-31T07:10:49.000Z</time>
      </trkpt>
      <trkpt lat="44.01479" lon="2.58015">
        <ele>529</ele>
        <time>2021-10-31T07:10:50.000Z</time>
      </trkpt>
      <trkpt lat="44.01479" lon="2.58016">
        <ele>529</ele>
        <time>2021-10-31T07:10:51.000Z</time>
      </trkpt>
      <trkpt lat="44.01479" lon="2.58018">
        <ele>529</ele>
        <time>2021-10-31T07:10:52.000Z</time>
      </trkpt>
      <trkpt lat="44.01479" lon="2.58019">
        <ele>529</ele>
        <time>2021-10-31T07:10:53.000Z</time>
      </trkpt>
      <trkpt lat="44.0148" lon="2.5802">
        <ele>529</ele>
        <time>2021-10-31T07:10:54.000Z</time>
      </trkpt>
      <trkpt lat="44.01479" lon="2.58022">
        <ele>529</ele>
        <time>2021-10-31T07:10:55.000Z</time>
      </trkpt>
      <trkpt lat="44.01479" lon="2.58023">
        <ele>529</ele>
        <time>2021-10-31T07:10:56.000Z</time>
      </trkpt>
      <trkpt lat="44.01479" lon="2.58024">
        <ele>529</ele>
        <time>2021-10-31T07:10:57.000Z</time>
      </trkpt>
      <trkpt lat="44.01479" lon="2.58026">
        <ele>529</ele>
        <time>2021-10-31T07:10:58.000Z</time>
      </trkpt>
      <trkpt lat="44.0148" lon="2.58027">
        <ele>529</ele>
        <time>2021-10-31T07:10:59.000Z</time>
      </trkpt>
      <trkpt lat="44.0148" lon="2.58028">
        <ele>529</ele>
        <time>2021-10-31T07:11:00.000Z</time>
      </trkpt>
      <trkpt lat="44.0148" lon="2.5803">
        <ele>529</ele>
        <time>2021-10-31T07:11:01.000Z</time>
      </trkpt>
      <trkpt lat="44.0148" lon="2.58031">
        <ele>529</ele>
        <time>2021-10-31T07:11:02.000Z</time>
      </trkpt>
      <trkpt lat="44.0148" lon="2.58032">
        <ele>529</ele>
        <time>2021-10-31T07:11:03.000Z</time>
      </trkpt>
      <trkpt lat="44.01481" lon="2.58034">
        <ele>528</ele>
        <time>2021-10-31T07:11:04.000Z</time>
      </trkpt>
      <trkpt lat="44.01481" lon="2.58035">
        <ele>528</ele>
        <time>2021-10-31T07:11:05.000Z</time>
      </trkpt>
      <trkpt lat="44.01481" lon="2.58036">
        <ele>528</ele>
        <time>2021-10-31T07:11:06.000Z</time>
      </trkpt>
      <trkpt lat="44.01481" lon="2.58037">
        <ele>528</ele>
        <time>2021-10-31T07:11:07.000Z</time>
      </trkpt>
      <trkpt lat="44.01481" lon="2.58039">
        <ele>528</ele>
        <time>2021-10-31T07:11:08.000Z</time>
      </trkpt>
      <trkpt lat="44.01481" lon="2.5804">
        <ele>528</ele>
        <time>2021-10-31T07:11:09.000Z</time>
      </trkpt>
      <trkpt lat="44.01481" lon="2.58041">
        <ele>528</ele>
        <time>2021-10-31T07:11:10.000Z</time>
      </trkpt>
      <trkpt lat="44.01481" lon="2.58042">
        <ele>528</ele>
        <time>2021-10-31T07:11:11.000Z</time>
      </trkpt>
      <trkpt lat="44.01481" lon="2.58044">
        <ele>528</ele>
        <time>2021-10-31T07:11:12.000Z</time>
      </trkpt>
      <trkpt lat="44.01481" lon="2.58045">
        <ele>528</ele>
        <time>2021-10-31T07:11:13.000Z</time>
      </trkpt>
      <trkpt lat="44.01481" lon="2.58047">
        <ele>528</ele>
        <time>2021-10-31T07:11:14.000Z</time>
      </trkpt>
      <trkpt lat="44.01481" lon="2.58048">
        <ele>528</ele>
        <time>2021-10-31T07:11:15.000Z</time>
      </trkpt>
      <trkpt lat="44.01481" lon="2.5805">
        <ele>528</ele>
        <time>2021-10-31T07:11:16.000Z</time>
      </trkpt>
      <trkpt lat="44.01481" lon="2.58051">
        <ele>528</ele>
        <time>2021-10-31T07:11:17.000Z</time>
      </trkpt>
      <trkpt lat="44.01481" lon="2.58052">
        <ele>528</ele>
        <time>2021-10-31T07:11:18.000Z</time>
      </trkpt>
      <trkpt lat="44.01481" lon="2.58053">
        <ele>528</ele>
        <time>2021-10-31T07:11:19.000Z</time>
      </trkpt>
      <trkpt lat="44.01481" lon="2.58054">
        <ele>528</ele>
        <time>2021-10-31T07:11:20.000Z</time>
      </trkpt>
      <trkpt lat="44.01481" lon="2.58056">
        <ele>528</ele>
        <time>2021-10-31T07:11:21.000Z</time>
      </trkpt>
      <trkpt lat="44.01481" lon="2.58056">
        <ele>528</ele>
        <time>2021-10-31T07:11:22.000Z</time>
      </trkpt>
      <trkpt lat="44.01481" lon="2.58057">
        <ele>528</ele>
        <time>2021-10-31T07:11:23.000Z</time>
      </trkpt>
      <trkpt lat="44.01481" lon="2.58058">
        <ele>528</ele>
        <time>2021-10-31T07:11:24.000Z</time>
      </trkpt>
      <trkpt lat="44.01481" lon="2.58059">
        <ele>528</ele>
        <time>2021-10-31T07:11:25.000Z</time>
      </trkpt>
      <trkpt lat="44.0148" lon="2.58059">
        <ele>528</ele>
        <time>2021-10-31T07:11:26.000Z</time>
      </trkpt>
      <trkpt lat="44.0148" lon="2.5806">
        <ele>528</ele>
        <time>2021-10-31T07:11:27.000Z</time>
      </trkpt>
      <trkpt lat="44.01479" lon="2.58061">
        <ele>528</ele>
        <time>2021-10-31T07:11:28.000Z</time>
      </trkpt>
      <trkpt lat="44.01479" lon="2.58062">
        <ele>528</ele>
        <time>2021-10-31T07:11:29.000Z</time>
      </trkpt>
      <trkpt lat="44.01479" lon="2.58062">
        <ele>528</ele>
        <time>2021-10-31T07:11:30.000Z</time>
      </trkpt>
      <trkpt lat="44.01478" lon="2.58063">
        <ele>527</ele>
        <time>2021-10-31T07:11:31.000Z</time>
      </trkpt>
      <trkpt lat="44.01477" lon="2.58064">
        <ele>527</ele>
        <time>2021-10-31T07:11:32.000Z</time>
      </trkpt>
      <trkpt lat="44.01477" lon="2.58065">
        <ele>527</ele>
        <time>2021-10-31T07:11:33.000Z</time>
      </trkpt>
      <trkpt lat="44.01476" lon="2.58066">
        <ele>527</ele>
        <time>2021-10-31T07:11:34.000Z</time>
      </trkpt>
      <trkpt lat="44.01476" lon="2.58066">
        <ele>527</ele>
        <time>2021-10-31T07:11:35.000Z</time>
      </trkpt>
      <trkpt lat="44.01475" lon="2.58067">
        <ele>527</ele>
        <time>2021-10-31T07:11:36.000Z</time>
      </trkpt>
      <trkpt lat="44.01474" lon="2.58068">
        <ele>527</ele>
        <time>2021-10-31T07:11:37.000Z</time>
      </trkpt>
      <trkpt lat="44.01473" lon="2.58069">
        <ele>527</ele>
        <time>2021-10-31T07:11:38.000Z</time>
      </trkpt>
      <trkpt lat="44.01473" lon="2.58069">
        <ele>527</ele>
        <time>2021-10-31T07:11:39.000Z</time>
      </trkpt>
      <trkpt lat="44.01472" lon="2.5807">
        <ele>527</ele>
        <time>2021-10-31T07:11:40.000Z</time>
      </trkpt>
      <trkpt lat="44.01471" lon="2.58071">
        <ele>527</ele>
        <time>2021-10-31T07:11:41.000Z</time>
      </trkpt>
      <trkpt lat="44.01471" lon="2.58071">
        <ele>527</ele>
        <time>2021-10-31T07:11:42.000Z</time>
      </trkpt>
      <trkpt lat="44.0147" lon="2.58072">
        <ele>527</ele>
        <time>2021-10-31T07:11:43.000Z</time>
      </trkpt>
      <trkpt lat="44.01469" lon="2.58073">
        <ele>527</ele>
        <time>2021-10-31T07:11:44.000Z</time>
      </trkpt>
      <trkpt lat="44.01468" lon="2.58073">
        <ele>527</ele>
        <time>2021-10-31T07:11:45.000Z</time>
      </trkpt>
      <trkpt lat="44.01467" lon="2.58074">
        <ele>527</ele>
        <time>2021-10-31T07:11:46.000Z</time>
      </trkpt>
      <trkpt lat="44.01467" lon="2.58075">
        <ele>527</ele>
        <time>2021-10-31T07:11:47.000Z</time>
      </trkpt>
      <trkpt lat="44.01466" lon="2.58075">
        <ele>527</ele>
        <time>2021-10-31T07:11:48.000Z</time>
      </trkpt>
      <trkpt lat="44.01465" lon="2.58076">
        <ele>526</ele>
        <time>2021-10-31T07:11:49.000Z</time>
      </trkpt>
      <trkpt lat="44.01464" lon="2.58077">
        <ele>526</ele>
        <time>2021-10-31T07:11:50.000Z</time>
      </trkpt>
      <trkpt lat="44.01463" lon="2.58078">
        <ele>526</ele>
        <time>2021-10-31T07:11:51.000Z</time>
      </trkpt>
      <trkpt lat="44.01462" lon="2.58079">
        <ele>526</ele>
        <time>2021-10-31T07:11:52.000Z</time>
      </trkpt>
      <trkpt lat="44.01461" lon="2.58079">
        <ele>526</ele>
        <time>2021-10-31T07:11:53.000Z</time>
      </trkpt>
      <trkpt lat="44.01461" lon="2.5808">
        <ele>526</ele>
        <time>2021-10-31T07:11:54.000Z</time>
      </trkpt>
      <trkpt lat="44.0146" lon="2.58081">
        <ele>526</ele>
        <time>2021-10-31T07:11:55.000Z</time>
      </trkpt>
      <trkpt lat="44.01458" lon="2.58082">
        <ele>526</ele>
        <time>2021-10-31T07:11:56.000Z</time>
      </trkpt>
      <trkpt lat="44.01457" lon="2.58082">
        <ele>526</ele>
        <time>2021-10-31T07:11:57.000Z</time>
      </trkpt>
      <trkpt lat="44.01457" lon="2.58083">
        <ele>526</ele>
        <time>2021-10-31T07:11:58.000Z</time>
      </trkpt>
      <trkpt lat="44.01456" lon="2.58083">
        <ele>526</ele>
        <time>2021-10-31T07:11:59.000Z</time>
      </trkpt>
      <trkpt lat="44.01455" lon="2.58083">
        <ele>526</ele>
        <time>2021-10-31T07:12:00.000Z</time>
      </trkpt>
      <trkpt lat="44.01454" lon="2.58084">
        <ele>526</ele>
        <time>2021-10-31T07:12:01.000Z</time>
      </trkpt>
      <trkpt lat="44.01453" lon="2.58084">
        <ele>526</ele>
        <time>2021-10-31T07:12:02.000Z</time>
      </trkpt>
      <trkpt lat="44.01453" lon="2.58085">
        <ele>526</ele>
        <time>2021-10-31T07:12:03.000Z</time>
      </trkpt>
      <trkpt lat="44.01452" lon="2.58086">
        <ele>526</ele>
        <time>2021-10-31T07:12:04.000Z</time>
      </trkpt>
      <trkpt lat="44.01451" lon="2.58087">
        <ele>526</ele>
        <time>2021-10-31T07:12:05.000Z</time>
      </trkpt>
      <trkpt lat="44.0145" lon="2.58087">
        <ele>526</ele>
        <time>2021-10-31T07:12:06.000Z</time>
      </trkpt>
      <trkpt lat="44.01449" lon="2.58088">
        <ele>526</ele>
        <time>2021-10-31T07:12:07.000Z</time>
      </trkpt>
      <trkpt lat="44.01448" lon="2.58089">
        <ele>526</ele>
        <time>2021-10-31T07:12:08.000Z</time>
      </trkpt>
      <trkpt lat="44.01447" lon="2.5809">
        <ele>526</ele>
        <time>2021-10-31T07:12:09.000Z</time>
      </trkpt>
      <trkpt lat="44.01446" lon="2.58091">
        <ele>526</ele>
        <time>2021-10-31T07:12:10.000Z</time>
      </trkpt>
      <trkpt lat="44.01445" lon="2.58092">
        <ele>526</ele>
        <time>2021-10-31T07:12:11.000Z</time>
      </trkpt>
      <trkpt lat="44.01445" lon="2.58092">
        <ele>526</ele>
        <time>2021-10-31T07:12:12.000Z</time>
      </trkpt>
      <trkpt lat="44.01444" lon="2.58093">
        <ele>526</ele>
        <time>2021-10-31T07:12:13.000Z</time>
      </trkpt>
      <trkpt lat="44.01443" lon="2.58094">
        <ele>525</ele>
        <time>2021-10-31T07:12:14.000Z</time>
      </trkpt>
      <trkpt lat="44.01442" lon="2.58094">
        <ele>525</ele>
        <time>2021-10-31T07:12:15.000Z</time>
      </trkpt>
      <trkpt lat="44.01441" lon="2.58095">
        <ele>525</ele>
        <time>2021-10-31T07:12:16.000Z</time>
      </trkpt>
      <trkpt lat="44.01441" lon="2.58096">
        <ele>525</ele>
        <time>2021-10-31T07:12:17.000Z</time>
      </trkpt>
      <trkpt lat="44.01439" lon="2.58097">
        <ele>525</ele>
        <time>2021-10-31T07:12:18.000Z</time>
      </trkpt>
      <trkpt lat="44.01438" lon="2.58097">
        <ele>525</ele>
        <time>2021-10-31T07:12:19.000Z</time>
      </trkpt>
      <trkpt lat="44.01437" lon="2.58097">
        <ele>525</ele>
        <time>2021-10-31T07:12:20.000Z</time>
      </trkpt>
      <trkpt lat="44.01437" lon="2.58098">
        <ele>525</ele>
        <time>2021-10-31T07:12:21.000Z</time>
      </trkpt>
      <trkpt lat="44.01435" lon="2.581">
        <ele>525</ele>
        <time>2021-10-31T07:12:22.000Z</time>
      </trkpt>
      <trkpt lat="44.01434" lon="2.58101">
        <ele>525</ele>
        <time>2021-10-31T07:12:23.000Z</time>
      </trkpt>
      <trkpt lat="44.01433" lon="2.58102">
        <ele>525</ele>
        <time>2021-10-31T07:12:24.000Z</time>
      </trkpt>
      <trkpt lat="44.01432" lon="2.58103">
        <ele>525</ele>
        <time>2021-10-31T07:12:25.000Z</time>
      </trkpt>
      <trkpt lat="44.01431" lon="2.58104">
        <ele>525</ele>
        <time>2021-10-31T07:12:26.000Z</time>
      </trkpt>
      <trkpt lat="44.0143" lon="2.58105">
        <ele>524</ele>
        <time>2021-10-31T07:12:27.000Z</time>
      </trkpt>
      <trkpt lat="44.01429" lon="2.58106">
        <ele>524</ele>
        <time>2021-10-31T07:12:28.000Z</time>
      </trkpt>
      <trkpt lat="44.01429" lon="2.58107">
        <ele>524</ele>
        <time>2021-10-31T07:12:29.000Z</time>
      </trkpt>
      <trkpt lat="44.01428" lon="2.58108">
        <ele>524</ele>
        <time>2021-10-31T07:12:30.000Z</time>
      </trkpt>
      <trkpt lat="44.01427" lon="2.58109">
        <ele>524</ele>
        <time>2021-10-31T07:12:31.000Z</time>
      </trkpt>
      <trkpt lat="44.01426" lon="2.5811">
        <ele>524</ele>
        <time>2021-10-31T07:12:32.000Z</time>
      </trkpt>
      <trkpt lat="44.01425" lon="2.58111">
        <ele>524</ele>
        <time>2021-10-31T07:12:33.000Z</time>
      </trkpt>
      <trkpt lat="44.01424" lon="2.58112">
        <ele>524</ele>
        <time>2021-10-31T07:12:34.000Z</time>
      </trkpt>
      <trkpt lat="44.01423" lon="2.58114">
        <ele>524</ele>
        <time>2021-10-31T07:12:35.000Z</time>
      </trkpt>
      <trkpt lat="44.01422" lon="2.58115">
        <ele>524</ele>
        <time>2021-10-31T07:12:36.000Z</time>
      </trkpt>
      <trkpt lat="44.01421" lon="2.58116">
        <ele>524</ele>
        <time>2021-10-31T07:12:37.000Z</time>
      </trkpt>
      <trkpt lat="44.0142" lon="2.58117">
        <ele>524</ele>
        <time>2021-10-31T07:12:38.000Z</time>
      </trkpt>
      <trkpt lat="44.01419" lon="2.58118">
        <ele>524</ele>
        <time>2021-10-31T07:12:39.000Z</time>
      </trkpt>
      <trkpt lat="44.01418" lon="2.58119">
        <ele>523</ele>
        <time>2021-10-31T07:12:40.000Z</time>
      </trkpt>
      <trkpt lat="44.01417" lon="2.5812">
        <ele>523</ele>
        <time>2021-10-31T07:12:41.000Z</time>
      </trkpt>
      <trkpt lat="44.01417" lon="2.58121">
        <ele>523</ele>
        <time>2021-10-31T07:12:42.000Z</time>
      </trkpt>
      <trkpt lat="44.01416" lon="2.58123">
        <ele>523</ele>
        <time>2021-10-31T07:12:43.000Z</time>
      </trkpt>
      <trkpt lat="44.01415" lon="2.58124">
        <ele>523</ele>
        <time>2021-10-31T07:12:44.000Z</time>
      </trkpt>
      <trkpt lat="44.01414" lon="2.58125">
        <ele>523</ele>
        <time>2021-10-31T07:12:45.000Z</time>
      </trkpt>
      <trkpt lat="44.01413" lon="2.58126">
        <ele>523</ele>
        <time>2021-10-31T07:12:46.000Z</time>
      </trkpt>
      <trkpt lat="44.01413" lon="2.58127">
        <ele>523</ele>
        <time>2021-10-31T07:12:47.000Z</time>
      </trkpt>
      <trkpt lat="44.01412" lon="2.58129">
        <ele>523</ele>
        <time>2021-10-31T07:12:48.000Z</time>
      </trkpt>
      <trkpt lat="44.01411" lon="2.5813">
        <ele>523</ele>
        <time>2021-10-31T07:12:49.000Z</time>
      </trkpt>
      <trkpt lat="44.01411" lon="2.5813">
        <ele>523</ele>
        <time>2021-10-31T07:12:50.000Z</time>
      </trkpt>
      <trkpt lat="44.0141" lon="2.58131">
        <ele>523</ele>
        <time>2021-10-31T07:12:51.000Z</time>
      </trkpt>
      <trkpt lat="44.01409" lon="2.58132">
        <ele>523</ele>
        <time>2021-10-31T07:12:52.000Z</time>
      </trkpt>
      <trkpt lat="44.01409" lon="2.58133">
        <ele>523</ele>
        <time>2021-10-31T07:12:53.000Z</time>
      </trkpt>
      <trkpt lat="44.01409" lon="2.58133">
        <ele>523</ele>
        <time>2021-10-31T07:12:54.000Z</time>
      </trkpt>
      <trkpt lat="44.01409" lon="2.58133">
        <ele>523</ele>
        <time>2021-10-31T07:12:55.000Z</time>
      </trkpt>
      <trkpt lat="44.01408" lon="2.58134">
        <ele>523</ele>
        <time>2021-10-31T07:12:56.000Z</time>
      </trkpt>
      <trkpt lat="44.01408" lon="2.58135">
        <ele>523</ele>
        <time>2021-10-31T07:12:57.000Z</time>
      </trkpt>
      <trkpt lat="44.01407" lon="2.58136">
        <ele>523</ele>
        <time>2021-10-31T07:12:58.000Z</time>
      </trkpt>
      <trkpt lat="44.01407" lon="2.58137">
        <ele>523</ele>
        <time>2021-10-31T07:12:59.000Z</time>
      </trkpt>
      <trkpt lat="44.01406" lon="2.58138">
        <ele>522</ele>
        <time>2021-10-31T07:13:00.000Z</time>
      </trkpt>
      <trkpt lat="44.01406" lon="2.58139">
        <ele>522</ele>
        <time>2021-10-31T07:13:01.000Z</time>
      </trkpt>
      <trkpt lat="44.01405" lon="2.5814">
        <ele>522</ele>
        <time>2021-10-31T07:13:02.000Z</time>
      </trkpt>
      <trkpt lat="44.01404" lon="2.58141">
        <ele>522</ele>
        <time>2021-10-31T07:13:03.000Z</time>
      </trkpt>
      <trkpt lat="44.01403" lon="2.58142">
        <ele>522</ele>
        <time>2021-10-31T07:13:04.000Z</time>
      </trkpt>
      <trkpt lat="44.01403" lon="2.58144">
        <ele>522</ele>
        <time>2021-10-31T07:13:05.000Z</time>
      </trkpt>
      <trkpt lat="44.01402" lon="2.58145">
        <ele>522</ele>
        <time>2021-10-31T07:13:06.000Z</time>
      </trkpt>
      <trkpt lat="44.01402" lon="2.58146">
        <ele>522</ele>
        <time>2021-10-31T07:13:07.000Z</time>
      </trkpt>
      <trkpt lat="44.01401" lon="2.58147">
        <ele>522</ele>
        <time>2021-10-31T07:13:08.000Z</time>
      </trkpt>
      <trkpt lat="44.014" lon="2.58148">
        <ele>521</ele>
        <time>2021-10-31T07:13:09.000Z</time>
      </trkpt>
      <trkpt lat="44.014" lon="2.58149">
        <ele>521</ele>
        <time>2021-10-31T07:13:10.000Z</time>
      </trkpt>
      <trkpt lat="44.01399" lon="2.5815">
        <ele>521</ele>
        <time>2021-10-31T07:13:11.000Z</time>
      </trkpt>
      <trkpt lat="44.01398" lon="2.58151">
        <ele>521</ele>
        <time>2021-10-31T07:13:12.000Z</time>
      </trkpt>
      <trkpt lat="44.01397" lon="2.58152">
        <ele>521</ele>
        <time>2021-10-31T07:13:13.000Z</time>
      </trkpt>
      <trkpt lat="44.01397" lon="2.58154">
        <ele>521</ele>
        <time>2021-10-31T07:13:14.000Z</time>
      </trkpt>
      <trkpt lat="44.01396" lon="2.58155">
        <ele>520</ele>
        <time>2021-10-31T07:13:15.000Z</time>
      </trkpt>
      <trkpt lat="44.01395" lon="2.58156">
        <ele>520</ele>
        <time>2021-10-31T07:13:16.000Z</time>
      </trkpt>
      <trkpt lat="44.01394" lon="2.58158">
        <ele>520</ele>
        <time>2021-10-31T07:13:17.000Z</time>
      </trkpt>
      <trkpt lat="44.01393" lon="2.58159">
        <ele>520</ele>
        <time>2021-10-31T07:13:18.000Z</time>
      </trkpt>
      <trkpt lat="44.01392" lon="2.58161">
        <ele>520</ele>
        <time>2021-10-31T07:13:19.000Z</time>
      </trkpt>
      <trkpt lat="44.01391" lon="2.58162">
        <ele>520</ele>
        <time>2021-10-31T07:13:20.000Z</time>
      </trkpt>
      <trkpt lat="44.0139" lon="2.58163">
        <ele>520</ele>
        <time>2021-10-31T07:13:21.000Z</time>
      </trkpt>
      <trkpt lat="44.01389" lon="2.58164">
        <ele>520</ele>
        <time>2021-10-31T07:13:22.000Z</time>
      </trkpt>
      <trkpt lat="44.01388" lon="2.58166">
        <ele>519</ele>
        <time>2021-10-31T07:13:23.000Z</time>
      </trkpt>
      <trkpt lat="44.01387" lon="2.58167">
        <ele>519</ele>
        <time>2021-10-31T07:13:24.000Z</time>
      </trkpt>
      <trkpt lat="44.01387" lon="2.58169">
        <ele>519</ele>
        <time>2021-10-31T07:13:25.000Z</time>
      </trkpt>
      <trkpt lat="44.01386" lon="2.5817">
        <ele>519</ele>
        <time>2021-10-31T07:13:26.000Z</time>
      </trkpt>
      <trkpt lat="44.01385" lon="2.58172">
        <ele>519</ele>
        <time>2021-10-31T07:13:27.000Z</time>
      </trkpt>
      <trkpt lat="44.01384" lon="2.58173">
        <ele>519</ele>
        <time>2021-10-31T07:13:28.000Z</time>
      </trkpt>
      <trkpt lat="44.01384" lon="2.58175">
        <ele>519</ele>
        <time>2021-10-31T07:13:29.000Z</time>
      </trkpt>
      <trkpt lat="44.01383" lon="2.58176">
        <ele>519</ele>
        <time>2021-10-31T07:13:30.000Z</time>
      </trkpt>
      <trkpt lat="44.01383" lon="2.58177">
        <ele>519</ele>
        <time>2021-10-31T07:13:31.000Z</time>
      </trkpt>
      <trkpt lat="44.01383" lon="2.58179">
        <ele>519</ele>
        <time>2021-10-31T07:13:32.000Z</time>
      </trkpt>
      <trkpt lat="44.01382" lon="2.5818">
        <ele>519</ele>
        <time>2021-10-31T07:13:33.000Z</time>
      </trkpt>
      <trkpt lat="44.01382" lon="2.58181">
        <ele>519</ele>
        <time>2021-10-31T07:13:34.000Z</time>
      </trkpt>
      <trkpt lat="44.01382" lon="2.58182">
        <ele>518</ele>
        <time>2021-10-31T07:13:35.000Z</time>
      </trkpt>
      <trkpt lat="44.01381" lon="2.58183">
        <ele>518</ele>
        <time>2021-10-31T07:13:36.000Z</time>
      </trkpt>
      <trkpt lat="44.01381" lon="2.58185">
        <ele>518</ele>
        <time>2021-10-31T07:13:37.000Z</time>
      </trkpt>
      <trkpt lat="44.01381" lon="2.58186">
        <ele>518</ele>
        <time>2021-10-31T07:13:38.000Z</time>
      </trkpt>
      <trkpt lat="44.0138" lon="2.58187">
        <ele>518</ele>
        <time>2021-10-31T07:13:39.000Z</time>
      </trkpt>
      <trkpt lat="44.0138" lon="2.58188">
        <ele>517</ele>
        <time>2021-10-31T07:13:40.000Z</time>
      </trkpt>
      <trkpt lat="44.0138" lon="2.5819">
        <ele>517</ele>
        <time>2021-10-31T07:13:41.000Z</time>
      </trkpt>
      <trkpt lat="44.01379" lon="2.58191">
        <ele>517</ele>
        <time>2021-10-31T07:13:42.000Z</time>
      </trkpt>
      <trkpt lat="44.01379" lon="2.58193">
        <ele>517</ele>
        <time>2021-10-31T07:13:43.000Z</time>
      </trkpt>
      <trkpt lat="44.01379" lon="2.58194">
        <ele>517</ele>
        <time>2021-10-31T07:13:44.000Z</time>
      </trkpt>
      <trkpt lat="44.01378" lon="2.58195">
        <ele>517</ele>
        <time>2021-10-31T07:13:45.000Z</time>
      </trkpt>
      <trkpt lat="44.01378" lon="2.58197">
        <ele>517</ele>
        <time>2021-10-31T07:13:46.000Z</time>
      </trkpt>
      <trkpt lat="44.01378" lon="2.58198">
        <ele>517</ele>
        <time>2021-10-31T07:13:47.000Z</time>
      </trkpt>
      <trkpt lat="44.01377" lon="2.58199">
        <ele>516</ele>
        <time>2021-10-31T07:13:48.000Z</time>
      </trkpt>
      <trkpt lat="44.01377" lon="2.582">
        <ele>516</ele>
        <time>2021-10-31T07:13:49.000Z</time>
      </trkpt>
      <trkpt lat="44.01377" lon="2.58202">
        <ele>516</ele>
        <time>2021-10-31T07:13:50.000Z</time>
      </trkpt>
      <trkpt lat="44.01376" lon="2.58203">
        <ele>516</ele>
        <time>2021-10-31T07:13:51.000Z</time>
      </trkpt>
      <trkpt lat="44.01376" lon="2.58205">
        <ele>516</ele>
        <time>2021-10-31T07:13:52.000Z</time>
      </trkpt>
      <trkpt lat="44.01376" lon="2.58206">
        <ele>516</ele>
        <time>2021-10-31T07:13:53.000Z</time>
      </trkpt>
      <trkpt lat="44.01375" lon="2.58207">
        <ele>516</ele>
        <time>2021-10-31T07:13:54.000Z</time>
      </trkpt>
      <trkpt lat="44.01374" lon="2.58208">
        <ele>516</ele>
        <time>2021-10-31T07:13:55.000Z</time>
      </trkpt>
      <trkpt lat="44.01374" lon="2.58209">
        <ele>516</ele>
        <time>2021-10-31T07:13:56.000Z</time>
      </trkpt>
      <trkpt lat="44.01373" lon="2.58211">
        <ele>516</ele>
        <time>2021-10-31T07:13:57.000Z</time>
      </trkpt>
      <trkpt lat="44.01373" lon="2.58212">
        <ele>516</ele>
        <time>2021-10-31T07:13:58.000Z</time>
      </trkpt>
      <trkpt lat="44.01373" lon="2.58213">
        <ele>516</ele>
        <time>2021-10-31T07:13:59.000Z</time>
      </trkpt>
      <trkpt lat="44.01372" lon="2.58215">
        <ele>516</ele>
        <time>2021-10-31T07:14:00.000Z</time>
      </trkpt>
      <trkpt lat="44.01372" lon="2.58216">
        <ele>516</ele>
        <time>2021-10-31T07:14:01.000Z</time>
      </trkpt>
      <trkpt lat="44.01371" lon="2.58218">
        <ele>516</ele>
        <time>2021-10-31T07:14:02.000Z</time>
      </trkpt>
      <trkpt lat="44.01371" lon="2.58219">
        <ele>516</ele>
        <time>2021-10-31T07:14:03.000Z</time>
      </trkpt>
      <trkpt lat="44.01371" lon="2.5822">
        <ele>516</ele>
        <time>2021-10-31T07:14:04.000Z</time>
      </trkpt>
      <trkpt lat="44.0137" lon="2.58222">
        <ele>516</ele>
        <time>2021-10-31T07:14:05.000Z</time>
      </trkpt>
      <trkpt lat="44.0137" lon="2.58223">
        <ele>516</ele>
        <time>2021-10-31T07:14:06.000Z</time>
      </trkpt>
      <trkpt lat="44.01369" lon="2.58225">
        <ele>515</ele>
        <time>2021-10-31T07:14:07.000Z</time>
      </trkpt>
      <trkpt lat="44.01369" lon="2.58226">
        <ele>515</ele>
        <time>2021-10-31T07:14:08.000Z</time>
      </trkpt>
      <trkpt lat="44.01368" lon="2.58227">
        <ele>515</ele>
        <time>2021-10-31T07:14:09.000Z</time>
      </trkpt>
      <trkpt lat="44.01368" lon="2.58228">
        <ele>515</ele>
        <time>2021-10-31T07:14:10.000Z</time>
      </trkpt>
      <trkpt lat="44.01367" lon="2.58229">
        <ele>515</ele>
        <time>2021-10-31T07:14:11.000Z</time>
      </trkpt>
      <trkpt lat="44.01367" lon="2.5823">
        <ele>515</ele>
        <time>2021-10-31T07:14:12.000Z</time>
      </trkpt>
      <trkpt lat="44.01366" lon="2.58232">
        <ele>515</ele>
        <time>2021-10-31T07:14:13.000Z</time>
      </trkpt>
      <trkpt lat="44.01366" lon="2.58233">
        <ele>515</ele>
        <time>2021-10-31T07:14:14.000Z</time>
      </trkpt>
      <trkpt lat="44.01366" lon="2.58234">
        <ele>515</ele>
        <time>2021-10-31T07:14:15.000Z</time>
      </trkpt>
      <trkpt lat="44.01365" lon="2.58235">
        <ele>515</ele>
        <time>2021-10-31T07:14:16.000Z</time>
      </trkpt>
      <trkpt lat="44.01364" lon="2.58237">
        <ele>515</ele>
        <time>2021-10-31T07:14:17.000Z</time>
      </trkpt>
      <trkpt lat="44.01364" lon="2.58238">
        <ele>515</ele>
        <time>2021-10-31T07:14:18.000Z</time>
      </trkpt>
      <trkpt lat="44.01363" lon="2.58239">
        <ele>515</ele>
        <time>2021-10-31T07:14:19.000Z</time>
      </trkpt>
      <trkpt lat="44.01362" lon="2.58239">
        <ele>515</ele>
        <time>2021-10-31T07:14:20.000Z</time>
      </trkpt>
      <trkpt lat="44.01362" lon="2.5824">
        <ele>515</ele>
        <time>2021-10-31T07:14:21.000Z</time>
      </trkpt>
      <trkpt lat="44.01361" lon="2.58241">
        <ele>515</ele>
        <time>2021-10-31T07:14:22.000Z</time>
      </trkpt>
      <trkpt lat="44.0136" lon="2.58242">
        <ele>515</ele>
        <time>2021-10-31T07:14:23.000Z</time>
      </trkpt>
      <trkpt lat="44.0136" lon="2.58244">
        <ele>515</ele>
        <time>2021-10-31T07:14:24.000Z</time>
      </trkpt>
      <trkpt lat="44.0136" lon="2.58245">
        <ele>515</ele>
        <time>2021-10-31T07:14:25.000Z</time>
      </trkpt>
      <trkpt lat="44.01359" lon="2.58246">
        <ele>515</ele>
        <time>2021-10-31T07:14:26.000Z</time>
      </trkpt>
      <trkpt lat="44.01359" lon="2.58247">
        <ele>515</ele>
        <time>2021-10-31T07:14:27.000Z</time>
      </trkpt>
      <trkpt lat="44.01358" lon="2.58249">
        <ele>515</ele>
        <time>2021-10-31T07:14:28.000Z</time>
      </trkpt>
      <trkpt lat="44.01358" lon="2.5825">
        <ele>515</ele>
        <time>2021-10-31T07:14:29.000Z</time>
      </trkpt>
      <trkpt lat="44.01357" lon="2.58252">
        <ele>515</ele>
        <time>2021-10-31T07:14:30.000Z</time>
      </trkpt>
      <trkpt lat="44.01357" lon="2.58253">
        <ele>515</ele>
        <time>2021-10-31T07:14:31.000Z</time>
      </trkpt>
      <trkpt lat="44.01356" lon="2.58254">
        <ele>515</ele>
        <time>2021-10-31T07:14:32.000Z</time>
      </trkpt>
      <trkpt lat="44.01355" lon="2.58255">
        <ele>515</ele>
        <time>2021-10-31T07:14:33.000Z</time>
      </trkpt>
      <trkpt lat="44.01355" lon="2.58256">
        <ele>515</ele>
        <time>2021-10-31T07:14:34.000Z</time>
      </trkpt>
      <trkpt lat="44.01354" lon="2.58257">
        <ele>515</ele>
        <time>2021-10-31T07:14:35.000Z</time>
      </trkpt>
      <trkpt lat="44.01354" lon="2.58259">
        <ele>515</ele>
        <time>2021-10-31T07:14:36.000Z</time>
      </trkpt>
      <trkpt lat="44.01353" lon="2.5826">
        <ele>515</ele>
        <time>2021-10-31T07:14:37.000Z</time>
      </trkpt>
      <trkpt lat="44.01352" lon="2.58261">
        <ele>514</ele>
        <time>2021-10-31T07:14:38.000Z</time>
      </trkpt>
      <trkpt lat="44.01352" lon="2.58262">
        <ele>514</ele>
        <time>2021-10-31T07:14:39.000Z</time>
      </trkpt>
      <trkpt lat="44.01351" lon="2.58263">
        <ele>514</ele>
        <time>2021-10-31T07:14:40.000Z</time>
      </trkpt>
      <trkpt lat="44.01351" lon="2.58265">
        <ele>514</ele>
        <time>2021-10-31T07:14:41.000Z</time>
      </trkpt>
      <trkpt lat="44.0135" lon="2.58266">
        <ele>514</ele>
        <time>2021-10-31T07:14:42.000Z</time>
      </trkpt>
      <trkpt lat="44.01349" lon="2.58267">
        <ele>514</ele>
        <time>2021-10-31T07:14:43.000Z</time>
      </trkpt>
      <trkpt lat="44.01349" lon="2.58269">
        <ele>514</ele>
        <time>2021-10-31T07:14:44.000Z</time>
      </trkpt>
      <trkpt lat="44.01348" lon="2.5827">
        <ele>514</ele>
        <time>2021-10-31T07:14:45.000Z</time>
      </trkpt>
      <trkpt lat="44.01348" lon="2.58271">
        <ele>513</ele>
        <time>2021-10-31T07:14:46.000Z</time>
      </trkpt>
      <trkpt lat="44.01347" lon="2.58273">
        <ele>513</ele>
        <time>2021-10-31T07:14:47.000Z</time>
      </trkpt>
      <trkpt lat="44.01346" lon="2.58274">
        <ele>513</ele>
        <time>2021-10-31T07:14:48.000Z</time>
      </trkpt>
      <trkpt lat="44.01346" lon="2.58275">
        <ele>513</ele>
        <time>2021-10-31T07:14:49.000Z</time>
      </trkpt>
      <trkpt lat="44.01345" lon="2.58276">
        <ele>513</ele>
        <time>2021-10-31T07:14:50.000Z</time>
      </trkpt>
      <trkpt lat="44.01345" lon="2.58277">
        <ele>513</ele>
        <time>2021-10-31T07:14:51.000Z</time>
      </trkpt>
      <trkpt lat="44.01344" lon="2.58278">
        <ele>513</ele>
        <time>2021-10-31T07:14:52.000Z</time>
      </trkpt>
      <trkpt lat="44.01344" lon="2.58279">
        <ele>512</ele>
        <time>2021-10-31T07:14:53.000Z</time>
      </trkpt>
      <trkpt lat="44.01343" lon="2.5828">
        <ele>512</ele>
        <time>2021-10-31T07:14:54.000Z</time>
      </trkpt>
      <trkpt lat="44.01343" lon="2.58282">
        <ele>512</ele>
        <time>2021-10-31T07:14:55.000Z</time>
      </trkpt>
      <trkpt lat="44.01342" lon="2.58283">
        <ele>512</ele>
        <time>2021-10-31T07:14:56.000Z</time>
      </trkpt>
      <trkpt lat="44.01342" lon="2.58284">
        <ele>512</ele>
        <time>2021-10-31T07:14:57.000Z</time>
      </trkpt>
      <trkpt lat="44.01342" lon="2.58286">
        <ele>512</ele>
        <time>2021-10-31T07:14:58.000Z</time>
      </trkpt>
      <trkpt lat="44.01341" lon="2.58287">
        <ele>511</ele>
        <time>2021-10-31T07:14:59.000Z</time>
      </trkpt>
      <trkpt lat="44.01341" lon="2.58289">
        <ele>511</ele>
        <time>2021-10-31T07:15:00.000Z</time>
      </trkpt>
      <trkpt lat="44.0134" lon="2.5829">
        <ele>511</ele>
        <time>2021-10-31T07:15:01.000Z</time>
      </trkpt>
      <trkpt lat="44.0134" lon="2.58291">
        <ele>511</ele>
        <time>2021-10-31T07:15:02.000Z</time>
      </trkpt>
      <trkpt lat="44.01339" lon="2.58293">
        <ele>511</ele>
        <time>2021-10-31T07:15:03.000Z</time>
      </trkpt>
      <trkpt lat="44.01338" lon="2.58294">
        <ele>511</ele>
        <time>2021-10-31T07:15:04.000Z</time>
      </trkpt>
      <trkpt lat="44.01338" lon="2.58295">
        <ele>511</ele>
        <time>2021-10-31T07:15:05.000Z</time>
      </trkpt>
      <trkpt lat="44.01337" lon="2.58297">
        <ele>510</ele>
        <time>2021-10-31T07:15:06.000Z</time>
      </trkpt>
      <trkpt lat="44.01337" lon="2.58298">
        <ele>510</ele>
        <time>2021-10-31T07:15:07.000Z</time>
      </trkpt>
      <trkpt lat="44.01336" lon="2.583">
        <ele>510</ele>
        <time>2021-10-31T07:15:08.000Z</time>
      </trkpt>
      <trkpt lat="44.01335" lon="2.58301">
        <ele>510</ele>
        <time>2021-10-31T07:15:09.000Z</time>
      </trkpt>
      <trkpt lat="44.01335" lon="2.58302">
        <ele>510</ele>
        <time>2021-10-31T07:15:10.000Z</time>
      </trkpt>
      <trkpt lat="44.01334" lon="2.58303">
        <ele>510</ele>
        <time>2021-10-31T07:15:11.000Z</time>
      </trkpt>
      <trkpt lat="44.01333" lon="2.58305">
        <ele>510</ele>
        <time>2021-10-31T07:15:12.000Z</time>
      </trkpt>
      <trkpt lat="44.01333" lon="2.58306">
        <ele>509</ele>
        <time>2021-10-31T07:15:13.000Z</time>
      </trkpt>
      <trkpt lat="44.01332" lon="2.58307">
        <ele>509</ele>
        <time>2021-10-31T07:15:14.000Z</time>
      </trkpt>
      <trkpt lat="44.01331" lon="2.58309">
        <ele>509</ele>
        <time>2021-10-31T07:15:15.000Z</time>
      </trkpt>
      <trkpt lat="44.01331" lon="2.5831">
        <ele>509</ele>
        <time>2021-10-31T07:15:16.000Z</time>
      </trkpt>
      <trkpt lat="44.0133" lon="2.58311">
        <ele>509</ele>
        <time>2021-10-31T07:15:17.000Z</time>
      </trkpt>
      <trkpt lat="44.0133" lon="2.58313">
        <ele>509</ele>
        <time>2021-10-31T07:15:18.000Z</time>
      </trkpt>
      <trkpt lat="44.01329" lon="2.58314">
        <ele>509</ele>
        <time>2021-10-31T07:15:19.000Z</time>
      </trkpt>
      <trkpt lat="44.01328" lon="2.58315">
        <ele>509</ele>
        <time>2021-10-31T07:15:20.000Z</time>
      </trkpt>
      <trkpt lat="44.01328" lon="2.58317">
        <ele>509</ele>
        <time>2021-10-31T07:15:21.000Z</time>
      </trkpt>
      <trkpt lat="44.01327" lon="2.58318">
        <ele>509</ele>
        <time>2021-10-31T07:15:22.000Z</time>
      </trkpt>
      <trkpt lat="44.01326" lon="2.58319">
        <ele>508</ele>
        <time>2021-10-31T07:15:23.000Z</time>
      </trkpt>
      <trkpt lat="44.01325" lon="2.5832">
        <ele>508</ele>
        <time>2021-10-31T07:15:24.000Z</time>
      </trkpt>
      <trkpt lat="44.01325" lon="2.58321">
        <ele>508</ele>
        <time>2021-10-31T07:15:25.000Z</time>
      </trkpt>
      <trkpt lat="44.01324" lon="2.58322">
        <ele>508</ele>
        <time>2021-10-31T07:15:26.000Z</time>
      </trkpt>
      <trkpt lat="44.01323" lon="2.58324">
        <ele>508</ele>
        <time>2021-10-31T07:15:27.000Z</time>
      </trkpt>
      <trkpt lat="44.01322" lon="2.58325">
        <ele>508</ele>
        <time>2021-10-31T07:15:28.000Z</time>
      </trkpt>
      <trkpt lat="44.01321" lon="2.58326">
        <ele>508</ele>
        <time>2021-10-31T07:15:29.000Z</time>
      </trkpt>
      <trkpt lat="44.0132" lon="2.58328">
        <ele>508</ele>
        <time>2021-10-31T07:15:30.000Z</time>
      </trkpt>
      <trkpt lat="44.01319" lon="2.58329">
        <ele>508</ele>
        <time>2021-10-31T07:15:31.000Z</time>
      </trkpt>
      <trkpt lat="44.01319" lon="2.5833">
        <ele>508</ele>
        <time>2021-10-31T07:15:32.000Z</time>
      </trkpt>
      <trkpt lat="44.01318" lon="2.58332">
        <ele>507</ele>
        <time>2021-10-31T07:15:33.000Z</time>
      </trkpt>
      <trkpt lat="44.01317" lon="2.58333">
        <ele>507</ele>
        <time>2021-10-31T07:15:34.000Z</time>
      </trkpt>
      <trkpt lat="44.01316" lon="2.58334">
        <ele>507</ele>
        <time>2021-10-31T07:15:35.000Z</time>
      </trkpt>
      <trkpt lat="44.01315" lon="2.58335">
        <ele>507</ele>
        <time>2021-10-31T07:15:36.000Z</time>
      </trkpt>
      <trkpt lat="44.01314" lon="2.58336">
        <ele>507</ele>
        <time>2021-10-31T07:15:37.000Z</time>
      </trkpt>
      <trkpt lat="44.01313" lon="2.58337">
        <ele>506</ele>
        <time>2021-10-31T07:15:38.000Z</time>
      </trkpt>
      <trkpt lat="44.01312" lon="2.58339">
        <ele>506</ele>
        <time>2021-10-31T07:15:39.000Z</time>
      </trkpt>
      <trkpt lat="44.01311" lon="2.5834">
        <ele>506</ele>
        <time>2021-10-31T07:15:40.000Z</time>
      </trkpt>
      <trkpt lat="44.01311" lon="2.5834">
        <ele>506</ele>
        <time>2021-10-31T07:15:41.000Z</time>
      </trkpt>
      <trkpt lat="44.0131" lon="2.5834">
        <ele>506</ele>
        <time>2021-10-31T07:15:42.000Z</time>
      </trkpt>
      <trkpt lat="44.0131" lon="2.58341">
        <ele>506</ele>
        <time>2021-10-31T07:15:43.000Z</time>
      </trkpt>
      <trkpt lat="44.0131" lon="2.58342">
        <ele>506</ele>
        <time>2021-10-31T07:15:44.000Z</time>
      </trkpt>
      <trkpt lat="44.01309" lon="2.58344">
        <ele>506</ele>
        <time>2021-10-31T07:15:45.000Z</time>
      </trkpt>
      <trkpt lat="44.01308" lon="2.58345">
        <ele>506</ele>
        <time>2021-10-31T07:15:46.000Z</time>
      </trkpt>
      <trkpt lat="44.01307" lon="2.58346">
        <ele>506</ele>
        <time>2021-10-31T07:15:47.000Z</time>
      </trkpt>
      <trkpt lat="44.01307" lon="2.58348">
        <ele>506</ele>
        <time>2021-10-31T07:15:48.000Z</time>
      </trkpt>
      <trkpt lat="44.01306" lon="2.58349">
        <ele>506</ele>
        <time>2021-10-31T07:15:49.000Z</time>
      </trkpt>
      <trkpt lat="44.01305" lon="2.58351">
        <ele>506</ele>
        <time>2021-10-31T07:15:50.000Z</time>
      </trkpt>
      <trkpt lat="44.01304" lon="2.58352">
        <ele>506</ele>
        <time>2021-10-31T07:15:51.000Z</time>
      </trkpt>
      <trkpt lat="44.01303" lon="2.58354">
        <ele>506</ele>
        <time>2021-10-31T07:15:52.000Z</time>
      </trkpt>
      <trkpt lat="44.01302" lon="2.58355">
        <ele>505</ele>
        <time>2021-10-31T07:15:53.000Z</time>
      </trkpt>
      <trkpt lat="44.01301" lon="2.58356">
        <ele>505</ele>
        <time>2021-10-31T07:15:54.000Z</time>
      </trkpt>
      <trkpt lat="44.013" lon="2.58357">
        <ele>505</ele>
        <time>2021-10-31T07:15:55.000Z</time>
      </trkpt>
      <trkpt lat="44.01299" lon="2.58359">
        <ele>505</ele>
        <time>2021-10-31T07:15:56.000Z</time>
      </trkpt>
      <trkpt lat="44.01298" lon="2.5836">
        <ele>505</ele>
        <time>2021-10-31T07:15:57.000Z</time>
      </trkpt>
      <trkpt lat="44.01297" lon="2.58361">
        <ele>505</ele>
        <time>2021-10-31T07:15:58.000Z</time>
      </trkpt>
      <trkpt lat="44.01296" lon="2.58362">
        <ele>505</ele>
        <time>2021-10-31T07:15:59.000Z</time>
      </trkpt>
      <trkpt lat="44.01295" lon="2.58363">
        <ele>505</ele>
        <time>2021-10-31T07:16:00.000Z</time>
      </trkpt>
      <trkpt lat="44.01294" lon="2.58365">
        <ele>505</ele>
        <time>2021-10-31T07:16:01.000Z</time>
      </trkpt>
      <trkpt lat="44.01293" lon="2.58366">
        <ele>505</ele>
        <time>2021-10-31T07:16:02.000Z</time>
      </trkpt>
      <trkpt lat="44.01292" lon="2.58367">
        <ele>505</ele>
        <time>2021-10-31T07:16:03.000Z</time>
      </trkpt>
      <trkpt lat="44.01292" lon="2.58368">
        <ele>505</ele>
        <time>2021-10-31T07:16:04.000Z</time>
      </trkpt>
      <trkpt lat="44.01291" lon="2.5837">
        <ele>505</ele>
        <time>2021-10-31T07:16:05.000Z</time>
      </trkpt>
      <trkpt lat="44.0129" lon="2.58371">
        <ele>505</ele>
        <time>2021-10-31T07:16:06.000Z</time>
      </trkpt>
      <trkpt lat="44.01289" lon="2.58372">
        <ele>505</ele>
        <time>2021-10-31T07:16:07.000Z</time>
      </trkpt>
      <trkpt lat="44.01289" lon="2.58373">
        <ele>505</ele>
        <time>2021-10-31T07:16:08.000Z</time>
      </trkpt>
      <trkpt lat="44.01288" lon="2.58374">
        <ele>505</ele>
        <time>2021-10-31T07:16:09.000Z</time>
      </trkpt>
      <trkpt lat="44.01287" lon="2.58376">
        <ele>505</ele>
        <time>2021-10-31T07:16:10.000Z</time>
      </trkpt>
      <trkpt lat="44.01286" lon="2.58377">
        <ele>505</ele>
        <time>2021-10-31T07:16:11.000Z</time>
      </trkpt>
      <trkpt lat="44.01286" lon="2.58379">
        <ele>505</ele>
        <time>2021-10-31T07:16:12.000Z</time>
      </trkpt>
      <trkpt lat="44.01285" lon="2.5838">
        <ele>505</ele>
        <time>2021-10-31T07:16:13.000Z</time>
      </trkpt>
      <trkpt lat="44.01284" lon="2.58381">
        <ele>505</ele>
        <time>2021-10-31T07:16:14.000Z</time>
      </trkpt>
      <trkpt lat="44.01283" lon="2.58382">
        <ele>505</ele>
        <time>2021-10-31T07:16:15.000Z</time>
      </trkpt>
      <trkpt lat="44.01282" lon="2.58383">
        <ele>505</ele>
        <time>2021-10-31T07:16:16.000Z</time>
      </trkpt>
      <trkpt lat="44.01281" lon="2.58384">
        <ele>505</ele>
        <time>2021-10-31T07:16:17.000Z</time>
      </trkpt>
      <trkpt lat="44.0128" lon="2.58385">
        <ele>505</ele>
        <time>2021-10-31T07:16:18.000Z</time>
      </trkpt>
      <trkpt lat="44.01279" lon="2.58386">
        <ele>505</ele>
        <time>2021-10-31T07:16:19.000Z</time>
      </trkpt>
      <trkpt lat="44.01278" lon="2.58387">
        <ele>505</ele>
        <time>2021-10-31T07:16:20.000Z</time>
      </trkpt>
      <trkpt lat="44.01277" lon="2.58388">
        <ele>505</ele>
        <time>2021-10-31T07:16:21.000Z</time>
      </trkpt>
      <trkpt lat="44.01276" lon="2.58388">
        <ele>505</ele>
        <time>2021-10-31T07:16:22.000Z</time>
      </trkpt>
      <trkpt lat="44.01275" lon="2.58389">
        <ele>505</ele>
        <time>2021-10-31T07:16:23.000Z</time>
      </trkpt>
      <trkpt lat="44.01274" lon="2.5839">
        <ele>505</ele>
        <time>2021-10-31T07:16:24.000Z</time>
      </trkpt>
      <trkpt lat="44.01273" lon="2.58391">
        <ele>505</ele>
        <time>2021-10-31T07:16:25.000Z</time>
      </trkpt>
      <trkpt lat="44.01271" lon="2.58391">
        <ele>505</ele>
        <time>2021-10-31T07:16:26.000Z</time>
      </trkpt>
      <trkpt lat="44.0127" lon="2.58392">
        <ele>505</ele>
        <time>2021-10-31T07:16:27.000Z</time>
      </trkpt>
      <trkpt lat="44.01269" lon="2.58392">
        <ele>505</ele>
        <time>2021-10-31T07:16:28.000Z</time>
      </trkpt>
      <trkpt lat="44.01268" lon="2.58393">
        <ele>505</ele>
        <time>2021-10-31T07:16:29.000Z</time>
      </trkpt>
      <trkpt lat="44.01267" lon="2.58393">
        <ele>505</ele>
        <time>2021-10-31T07:16:30.000Z</time>
      </trkpt>
      <trkpt lat="44.01266" lon="2.58393">
        <ele>505</ele>
        <time>2021-10-31T07:16:31.000Z</time>
      </trkpt>
      <trkpt lat="44.01265" lon="2.58393">
        <ele>505</ele>
        <time>2021-10-31T07:16:32.000Z</time>
      </trkpt>
      <trkpt lat="44.01263" lon="2.58393">
        <ele>505</ele>
        <time>2021-10-31T07:16:33.000Z</time>
      </trkpt>
      <trkpt lat="44.01262" lon="2.58393">
        <ele>505</ele>
        <time>2021-10-31T07:16:34.000Z</time>
      </trkpt>
      <trkpt lat="44.01261" lon="2.58393">
        <ele>506</ele>
        <time>2021-10-31T07:16:35.000Z</time>
      </trkpt>
      <trkpt lat="44.0126" lon="2.58392">
        <ele>506</ele>
        <time>2021-10-31T07:16:36.000Z</time>
      </trkpt>
      <trkpt lat="44.01259" lon="2.58393">
        <ele>506</ele>
        <time>2021-10-31T07:16:37.000Z</time>
      </trkpt>
      <trkpt lat="44.01258" lon="2.58392">
        <ele>505</ele>
        <time>2021-10-31T07:16:38.000Z</time>
      </trkpt>
      <trkpt lat="44.01257" lon="2.58392">
        <ele>505</ele>
        <time>2021-10-31T07:16:39.000Z</time>
      </trkpt>
      <trkpt lat="44.01256" lon="2.58393">
        <ele>505</ele>
        <time>2021-10-31T07:16:40.000Z</time>
      </trkpt>
      <trkpt lat="44.01255" lon="2.58393">
        <ele>505</ele>
        <time>2021-10-31T07:16:41.000Z</time>
      </trkpt>
      <trkpt lat="44.01255" lon="2.58394">
        <ele>505</ele>
        <time>2021-10-31T07:16:42.000Z</time>
      </trkpt>
      <trkpt lat="44.01254" lon="2.58394">
        <ele>505</ele>
        <time>2021-10-31T07:16:43.000Z</time>
      </trkpt>
      <trkpt lat="44.01253" lon="2.58395">
        <ele>505</ele>
        <time>2021-10-31T07:16:44.000Z</time>
      </trkpt>
      <trkpt lat="44.01252" lon="2.58395">
        <ele>505</ele>
        <time>2021-10-31T07:16:45.000Z</time>
      </trkpt>
      <trkpt lat="44.01252" lon="2.58396">
        <ele>504</ele>
        <time>2021-10-31T07:16:46.000Z</time>
      </trkpt>
      <trkpt lat="44.01251" lon="2.58397">
        <ele>504</ele>
        <time>2021-10-31T07:16:47.000Z</time>
      </trkpt>
      <trkpt lat="44.0125" lon="2.58397">
        <ele>504</ele>
        <time>2021-10-31T07:16:48.000Z</time>
      </trkpt>
      <trkpt lat="44.01249" lon="2.58398">
        <ele>504</ele>
        <time>2021-10-31T07:16:49.000Z</time>
      </trkpt>
      <trkpt lat="44.01248" lon="2.58398">
        <ele>504</ele>
        <time>2021-10-31T07:16:50.000Z</time>
      </trkpt>
      <trkpt lat="44.01248" lon="2.58399">
        <ele>504</ele>
        <time>2021-10-31T07:16:51.000Z</time>
      </trkpt>
      <trkpt lat="44.01247" lon="2.58399">
        <ele>504</ele>
        <time>2021-10-31T07:16:52.000Z</time>
      </trkpt>
      <trkpt lat="44.01246" lon="2.584">
        <ele>503</ele>
        <time>2021-10-31T07:16:53.000Z</time>
      </trkpt>
      <trkpt lat="44.01245" lon="2.58401">
        <ele>503</ele>
        <time>2021-10-31T07:16:54.000Z</time>
      </trkpt>
      <trkpt lat="44.01245" lon="2.58401">
        <ele>503</ele>
        <time>2021-10-31T07:16:55.000Z</time>
      </trkpt>
      <trkpt lat="44.01244" lon="2.58402">
        <ele>503</ele>
        <time>2021-10-31T07:16:56.000Z</time>
      </trkpt>
      <trkpt lat="44.01243" lon="2.58403">
        <ele>503</ele>
        <time>2021-10-31T07:16:57.000Z</time>
      </trkpt>
      <trkpt lat="44.01242" lon="2.58403">
        <ele>503</ele>
        <time>2021-10-31T07:16:58.000Z</time>
      </trkpt>
      <trkpt lat="44.01241" lon="2.58403">
        <ele>503</ele>
        <time>2021-10-31T07:16:59.000Z</time>
      </trkpt>
      <trkpt lat="44.0124" lon="2.58404">
        <ele>503</ele>
        <time>2021-10-31T07:17:00.000Z</time>
      </trkpt>
      <trkpt lat="44.0124" lon="2.58404">
        <ele>503</ele>
        <time>2021-10-31T07:17:01.000Z</time>
      </trkpt>
      <trkpt lat="44.01239" lon="2.58405">
        <ele>503</ele>
        <time>2021-10-31T07:17:02.000Z</time>
      </trkpt>
      <trkpt lat="44.01238" lon="2.58405">
        <ele>503</ele>
        <time>2021-10-31T07:17:03.000Z</time>
      </trkpt>
      <trkpt lat="44.01237" lon="2.58406">
        <ele>503</ele>
        <time>2021-10-31T07:17:04.000Z</time>
      </trkpt>
      <trkpt lat="44.01236" lon="2.58407">
        <ele>503</ele>
        <time>2021-10-31T07:17:05.000Z</time>
      </trkpt>
      <trkpt lat="44.01236" lon="2.58408">
        <ele>503</ele>
        <time>2021-10-31T07:17:06.000Z</time>
      </trkpt>
      <trkpt lat="44.01235" lon="2.58409">
        <ele>502</ele>
        <time>2021-10-31T07:17:07.000Z</time>
      </trkpt>
      <trkpt lat="44.01234" lon="2.5841">
        <ele>502</ele>
        <time>2021-10-31T07:17:08.000Z</time>
      </trkpt>
      <trkpt lat="44.01233" lon="2.58411">
        <ele>502</ele>
        <time>2021-10-31T07:17:09.000Z</time>
      </trkpt>
      <trkpt lat="44.01232" lon="2.58411">
        <ele>502</ele>
        <time>2021-10-31T07:17:10.000Z</time>
      </trkpt>
      <trkpt lat="44.01231" lon="2.58412">
        <ele>502</ele>
        <time>2021-10-31T07:17:11.000Z</time>
      </trkpt>
      <trkpt lat="44.0123" lon="2.58413">
        <ele>502</ele>
        <time>2021-10-31T07:17:12.000Z</time>
      </trkpt>
      <trkpt lat="44.0123" lon="2.58414">
        <ele>502</ele>
        <time>2021-10-31T07:17:13.000Z</time>
      </trkpt>
      <trkpt lat="44.01229" lon="2.58415">
        <ele>502</ele>
        <time>2021-10-31T07:17:14.000Z</time>
      </trkpt>
      <trkpt lat="44.01228" lon="2.58417">
        <ele>502</ele>
        <time>2021-10-31T07:17:15.000Z</time>
      </trkpt>
      <trkpt lat="44.01227" lon="2.58418">
        <ele>502</ele>
        <time>2021-10-31T07:17:16.000Z</time>
      </trkpt>
      <trkpt lat="44.01226" lon="2.58419">
        <ele>501</ele>
        <time>2021-10-31T07:17:17.000Z</time>
      </trkpt>
      <trkpt lat="44.01226" lon="2.5842">
        <ele>501</ele>
        <time>2021-10-31T07:17:18.000Z</time>
      </trkpt>
      <trkpt lat="44.01225" lon="2.58421">
        <ele>501</ele>
        <time>2021-10-31T07:17:19.000Z</time>
      </trkpt>
      <trkpt lat="44.01224" lon="2.58422">
        <ele>501</ele>
        <time>2021-10-31T07:17:20.000Z</time>
      </trkpt>
      <trkpt lat="44.01223" lon="2.58424">
        <ele>501</ele>
        <time>2021-10-31T07:17:21.000Z</time>
      </trkpt>
      <trkpt lat="44.01223" lon="2.58425">
        <ele>501</ele>
        <time>2021-10-31T07:17:22.000Z</time>
      </trkpt>
      <trkpt lat="44.01222" lon="2.58426">
        <ele>500</ele>
        <time>2021-10-31T07:17:23.000Z</time>
      </trkpt>
      <trkpt lat="44.01221" lon="2.58427">
        <ele>500</ele>
        <time>2021-10-31T07:17:24.000Z</time>
      </trkpt>
      <trkpt lat="44.01221" lon="2.58428">
        <ele>500</ele>
        <time>2021-10-31T07:17:25.000Z</time>
      </trkpt>
      <trkpt lat="44.0122" lon="2.58429">
        <ele>500</ele>
        <time>2021-10-31T07:17:26.000Z</time>
      </trkpt>
      <trkpt lat="44.01219" lon="2.5843">
        <ele>500</ele>
        <time>2021-10-31T07:17:27.000Z</time>
      </trkpt>
      <trkpt lat="44.01219" lon="2.5843">
        <ele>500</ele>
        <time>2021-10-31T07:17:28.000Z</time>
      </trkpt>
      <trkpt lat="44.01218" lon="2.58431">
        <ele>500</ele>
        <time>2021-10-31T07:17:29.000Z</time>
      </trkpt>
      <trkpt lat="44.01217" lon="2.58432">
        <ele>500</ele>
        <time>2021-10-31T07:17:30.000Z</time>
      </trkpt>
      <trkpt lat="44.01216" lon="2.58433">
        <ele>500</ele>
        <time>2021-10-31T07:17:31.000Z</time>
      </trkpt>
      <trkpt lat="44.01216" lon="2.58433">
        <ele>500</ele>
        <time>2021-10-31T07:17:32.000Z</time>
      </trkpt>
      <trkpt lat="44.01215" lon="2.58434">
        <ele>500</ele>
        <time>2021-10-31T07:17:33.000Z</time>
      </trkpt>
      <trkpt lat="44.01214" lon="2.58435">
        <ele>500</ele>
        <time>2021-10-31T07:17:34.000Z</time>
      </trkpt>
      <trkpt lat="44.01213" lon="2.58436">
        <ele>500</ele>
        <time>2021-10-31T07:17:35.000Z</time>
      </trkpt>
      <trkpt lat="44.01213" lon="2.58436">
        <ele>500</ele>
        <time>2021-10-31T07:17:36.000Z</time>
      </trkpt>
      <trkpt lat="44.01212" lon="2.58437">
        <ele>500</ele>
        <time>2021-10-31T07:17:37.000Z</time>
      </trkpt>
      <trkpt lat="44.01211" lon="2.58438">
        <ele>500</ele>
        <time>2021-10-31T07:17:38.000Z</time>
      </trkpt>
      <trkpt lat="44.0121" lon="2.58438">
        <ele>500</ele>
        <time>2021-10-31T07:17:39.000Z</time>
      </trkpt>
      <trkpt lat="44.0121" lon="2.58439">
        <ele>500</ele>
        <time>2021-10-31T07:17:40.000Z</time>
      </trkpt>
      <trkpt lat="44.01209" lon="2.58439">
        <ele>500</ele>
        <time>2021-10-31T07:17:41.000Z</time>
      </trkpt>
      <trkpt lat="44.01208" lon="2.5844">
        <ele>500</ele>
        <time>2021-10-31T07:17:42.000Z</time>
      </trkpt>
      <trkpt lat="44.01208" lon="2.58441">
        <ele>500</ele>
        <time>2021-10-31T07:17:43.000Z</time>
      </trkpt>
      <trkpt lat="44.01207" lon="2.58441">
        <ele>500</ele>
        <time>2021-10-31T07:17:44.000Z</time>
      </trkpt>
      <trkpt lat="44.01206" lon="2.58442">
        <ele>500</ele>
        <time>2021-10-31T07:17:45.000Z</time>
      </trkpt>
      <trkpt lat="44.01205" lon="2.58442">
        <ele>500</ele>
        <time>2021-10-31T07:17:46.000Z</time>
      </trkpt>
      <trkpt lat="44.01204" lon="2.58443">
        <ele>500</ele>
        <time>2021-10-31T07:17:47.000Z</time>
      </trkpt>
      <trkpt lat="44.01204" lon="2.58443">
        <ele>500</ele>
        <time>2021-10-31T07:17:48.000Z</time>
      </trkpt>
      <trkpt lat="44.01203" lon="2.58444">
        <ele>499</ele>
        <time>2021-10-31T07:17:49.000Z</time>
      </trkpt>
      <trkpt lat="44.01202" lon="2.58445">
        <ele>499</ele>
        <time>2021-10-31T07:17:50.000Z</time>
      </trkpt>
      <trkpt lat="44.01202" lon="2.58446">
        <ele>499</ele>
        <time>2021-10-31T07:17:51.000Z</time>
      </trkpt>
      <trkpt lat="44.01201" lon="2.58446">
        <ele>499</ele>
        <time>2021-10-31T07:17:52.000Z</time>
      </trkpt>
      <trkpt lat="44.012" lon="2.58447">
        <ele>499</ele>
        <time>2021-10-31T07:17:53.000Z</time>
      </trkpt>
      <trkpt lat="44.012" lon="2.58448">
        <ele>499</ele>
        <time>2021-10-31T07:17:54.000Z</time>
      </trkpt>
      <trkpt lat="44.01199" lon="2.58449">
        <ele>499</ele>
        <time>2021-10-31T07:17:55.000Z</time>
      </trkpt>
      <trkpt lat="44.01199" lon="2.5845">
        <ele>499</ele>
        <time>2021-10-31T07:17:56.000Z</time>
      </trkpt>
      <trkpt lat="44.01199" lon="2.5845">
        <ele>499</ele>
        <time>2021-10-31T07:17:57.000Z</time>
      </trkpt>
      <trkpt lat="44.01198" lon="2.58451">
        <ele>499</ele>
        <time>2021-10-31T07:17:58.000Z</time>
      </trkpt>
      <trkpt lat="44.01198" lon="2.58451">
        <ele>499</ele>
        <time>2021-10-31T07:17:59.000Z</time>
      </trkpt>
      <trkpt lat="44.01198" lon="2.58452">
        <ele>499</ele>
        <time>2021-10-31T07:18:00.000Z</time>
      </trkpt>
      <trkpt lat="44.01198" lon="2.58452">
        <ele>499</ele>
        <time>2021-10-31T07:18:01.000Z</time>
      </trkpt>
      <trkpt lat="44.01197" lon="2.58453">
        <ele>499</ele>
        <time>2021-10-31T07:18:02.000Z</time>
      </trkpt>
      <trkpt lat="44.01197" lon="2.58454">
        <ele>499</ele>
        <time>2021-10-31T07:18:03.000Z</time>
      </trkpt>
      <trkpt lat="44.01196" lon="2.58454">
        <ele>499</ele>
        <time>2021-10-31T07:18:04.000Z</time>
      </trkpt>
      <trkpt lat="44.01196" lon="2.58455">
        <ele>499</ele>
        <time>2021-10-31T07:18:05.000Z</time>
      </trkpt>
      <trkpt lat="44.01195" lon="2.58456">
        <ele>498</ele>
        <time>2021-10-31T07:18:06.000Z</time>
      </trkpt>
      <trkpt lat="44.01195" lon="2.58457">
        <ele>498</ele>
        <time>2021-10-31T07:18:07.000Z</time>
      </trkpt>
      <trkpt lat="44.01194" lon="2.58457">
        <ele>498</ele>
        <time>2021-10-31T07:18:08.000Z</time>
      </trkpt>
      <trkpt lat="44.01194" lon="2.58458">
        <ele>498</ele>
        <time>2021-10-31T07:18:09.000Z</time>
      </trkpt>
      <trkpt lat="44.01193" lon="2.58459">
        <ele>498</ele>
        <time>2021-10-31T07:18:10.000Z</time>
      </trkpt>
      <trkpt lat="44.01192" lon="2.58459">
        <ele>498</ele>
        <time>2021-10-31T07:18:11.000Z</time>
      </trkpt>
      <trkpt lat="44.01192" lon="2.5846">
        <ele>498</ele>
        <time>2021-10-31T07:18:12.000Z</time>
      </trkpt>
      <trkpt lat="44.01191" lon="2.58461">
        <ele>498</ele>
        <time>2021-10-31T07:18:13.000Z</time>
      </trkpt>
      <trkpt lat="44.01191" lon="2.58461">
        <ele>498</ele>
        <time>2021-10-31T07:18:14.000Z</time>
      </trkpt>
      <trkpt lat="44.0119" lon="2.58462">
        <ele>498</ele>
        <time>2021-10-31T07:18:15.000Z</time>
      </trkpt>
      <trkpt lat="44.01189" lon="2.58462">
        <ele>497</ele>
        <time>2021-10-31T07:18:16.000Z</time>
      </trkpt>
      <trkpt lat="44.01188" lon="2.58462">
        <ele>497</ele>
        <time>2021-10-31T07:18:17.000Z</time>
      </trkpt>
      <trkpt lat="44.01187" lon="2.58462">
        <ele>497</ele>
        <time>2021-10-31T07:18:18.000Z</time>
      </trkpt>
      <trkpt lat="44.01186" lon="2.58462">
        <ele>497</ele>
        <time>2021-10-31T07:18:19.000Z</time>
      </trkpt>
      <trkpt lat="44.01186" lon="2.58462">
        <ele>497</ele>
        <time>2021-10-31T07:18:20.000Z</time>
      </trkpt>
      <trkpt lat="44.01185" lon="2.58461">
        <ele>497</ele>
        <time>2021-10-31T07:18:21.000Z</time>
      </trkpt>
      <trkpt lat="44.01184" lon="2.58461">
        <ele>497</ele>
        <time>2021-10-31T07:18:22.000Z</time>
      </trkpt>
      <trkpt lat="44.01183" lon="2.58461">
        <ele>497</ele>
        <time>2021-10-31T07:18:23.000Z</time>
      </trkpt>
      <trkpt lat="44.01183" lon="2.5846">
        <ele>496</ele>
        <time>2021-10-31T07:18:24.000Z</time>
      </trkpt>
      <trkpt lat="44.01182" lon="2.5846">
        <ele>496</ele>
        <time>2021-10-31T07:18:25.000Z</time>
      </trkpt>
      <trkpt lat="44.01181" lon="2.58459">
        <ele>496</ele>
        <time>2021-10-31T07:18:26.000Z</time>
      </trkpt>
      <trkpt lat="44.0118" lon="2.58459">
        <ele>495</ele>
        <time>2021-10-31T07:18:27.000Z</time>
      </trkpt>
      <trkpt lat="44.0118" lon="2.58459">
        <ele>495</ele>
        <time>2021-10-31T07:18:28.000Z</time>
      </trkpt>
      <trkpt lat="44.01179" lon="2.58458">
        <ele>495</ele>
        <time>2021-10-31T07:18:29.000Z</time>
      </trkpt>
      <trkpt lat="44.01178" lon="2.58458">
        <ele>494</ele>
        <time>2021-10-31T07:18:30.000Z</time>
      </trkpt>
      <trkpt lat="44.01177" lon="2.58458">
        <ele>494</ele>
        <time>2021-10-31T07:18:31.000Z</time>
      </trkpt>
      <trkpt lat="44.01176" lon="2.58458">
        <ele>494</ele>
        <time>2021-10-31T07:18:32.000Z</time>
      </trkpt>
      <trkpt lat="44.01175" lon="2.58458">
        <ele>493</ele>
        <time>2021-10-31T07:18:33.000Z</time>
      </trkpt>
      <trkpt lat="44.01174" lon="2.58458">
        <ele>493</ele>
        <time>2021-10-31T07:18:34.000Z</time>
      </trkpt>
      <trkpt lat="44.01173" lon="2.58459">
        <ele>493</ele>
        <time>2021-10-31T07:18:35.000Z</time>
      </trkpt>
      <trkpt lat="44.01172" lon="2.58459">
        <ele>493</ele>
        <time>2021-10-31T07:18:36.000Z</time>
      </trkpt>
      <trkpt lat="44.01171" lon="2.58459">
        <ele>492</ele>
        <time>2021-10-31T07:18:37.000Z</time>
      </trkpt>
      <trkpt lat="44.0117" lon="2.5846">
        <ele>492</ele>
        <time>2021-10-31T07:18:38.000Z</time>
      </trkpt>
      <trkpt lat="44.0117" lon="2.58461">
        <ele>492</ele>
        <time>2021-10-31T07:18:39.000Z</time>
      </trkpt>
      <trkpt lat="44.01169" lon="2.58461">
        <ele>492</ele>
        <time>2021-10-31T07:18:40.000Z</time>
      </trkpt>
      <trkpt lat="44.01168" lon="2.58462">
        <ele>492</ele>
        <time>2021-10-31T07:18:41.000Z</time>
      </trkpt>
      <trkpt lat="44.01168" lon="2.58463">
        <ele>492</ele>
        <time>2021-10-31T07:18:42.000Z</time>
      </trkpt>
      <trkpt lat="44.01167" lon="2.58464">
        <ele>492</ele>
        <time>2021-10-31T07:18:43.000Z</time>
      </trkpt>
      <trkpt lat="44.01166" lon="2.58466">
        <ele>492</ele>
        <time>2021-10-31T07:18:44.000Z</time>
      </trkpt>
      <trkpt lat="44.01166" lon="2.58467">
        <ele>491</ele>
        <time>2021-10-31T07:18:45.000Z</time>
      </trkpt>
      <trkpt lat="44.01165" lon="2.58468">
        <ele>491</ele>
        <time>2021-10-31T07:18:46.000Z</time>
      </trkpt>
      <trkpt lat="44.01164" lon="2.58469">
        <ele>491</ele>
        <time>2021-10-31T07:18:47.000Z</time>
      </trkpt>
      <trkpt lat="44.01164" lon="2.5847">
        <ele>491</ele>
        <time>2021-10-31T07:18:48.000Z</time>
      </trkpt>
      <trkpt lat="44.01163" lon="2.58472">
        <ele>491</ele>
        <time>2021-10-31T07:18:49.000Z</time>
      </trkpt>
      <trkpt lat="44.01163" lon="2.58473">
        <ele>491</ele>
        <time>2021-10-31T07:18:50.000Z</time>
      </trkpt>
      <trkpt lat="44.01162" lon="2.58474">
        <ele>491</ele>
        <time>2021-10-31T07:18:51.000Z</time>
      </trkpt>
      <trkpt lat="44.01162" lon="2.58475">
        <ele>491</ele>
        <time>2021-10-31T07:18:52.000Z</time>
      </trkpt>
      <trkpt lat="44.01161" lon="2.58476">
        <ele>491</ele>
        <time>2021-10-31T07:18:53.000Z</time>
      </trkpt>
      <trkpt lat="44.01161" lon="2.58477">
        <ele>491</ele>
        <time>2021-10-31T07:18:54.000Z</time>
      </trkpt>
      <trkpt lat="44.01161" lon="2.58477">
        <ele>490</ele>
        <time>2021-10-31T07:18:55.000Z</time>
      </trkpt>
      <trkpt lat="44.0116" lon="2.58478">
        <ele>490</ele>
        <time>2021-10-31T07:18:56.000Z</time>
      </trkpt>
      <trkpt lat="44.0116" lon="2.58479">
        <ele>490</ele>
        <time>2021-10-31T07:18:57.000Z</time>
      </trkpt>
      <trkpt lat="44.01159" lon="2.58479">
        <ele>490</ele>
        <time>2021-10-31T07:18:58.000Z</time>
      </trkpt>
      <trkpt lat="44.01159" lon="2.5848">
        <ele>490</ele>
        <time>2021-10-31T07:18:59.000Z</time>
      </trkpt>
      <trkpt lat="44.01158" lon="2.58481">
        <ele>490</ele>
        <time>2021-10-31T07:19:00.000Z</time>
      </trkpt>
      <trkpt lat="44.01158" lon="2.58482">
        <ele>490</ele>
        <time>2021-10-31T07:19:01.000Z</time>
      </trkpt>
      <trkpt lat="44.01157" lon="2.58483">
        <ele>490</ele>
        <time>2021-10-31T07:19:02.000Z</time>
      </trkpt>
      <trkpt lat="44.01157" lon="2.58484">
        <ele>490</ele>
        <time>2021-10-31T07:19:03.000Z</time>
      </trkpt>
      <trkpt lat="44.01156" lon="2.58485">
        <ele>490</ele>
        <time>2021-10-31T07:19:04.000Z</time>
      </trkpt>
      <trkpt lat="44.01156" lon="2.58486">
        <ele>490</ele>
        <time>2021-10-31T07:19:05.000Z</time>
      </trkpt>
      <trkpt lat="44.01156" lon="2.58487">
        <ele>489</ele>
        <time>2021-10-31T07:19:06.000Z</time>
      </trkpt>
      <trkpt lat="44.01155" lon="2.58489">
        <ele>489</ele>
        <time>2021-10-31T07:19:07.000Z</time>
      </trkpt>
      <trkpt lat="44.01155" lon="2.5849">
        <ele>489</ele>
        <time>2021-10-31T07:19:08.000Z</time>
      </trkpt>
      <trkpt lat="44.01155" lon="2.58491">
        <ele>489</ele>
        <time>2021-10-31T07:19:09.000Z</time>
      </trkpt>
      <trkpt lat="44.01155" lon="2.58492">
        <ele>489</ele>
        <time>2021-10-31T07:19:10.000Z</time>
      </trkpt>
      <trkpt lat="44.01155" lon="2.58493">
        <ele>489</ele>
        <time>2021-10-31T07:19:11.000Z</time>
      </trkpt>
      <trkpt lat="44.01155" lon="2.58494">
        <ele>489</ele>
        <time>2021-10-31T07:19:12.000Z</time>
      </trkpt>
      <trkpt lat="44.01155" lon="2.58495">
        <ele>489</ele>
        <time>2021-10-31T07:19:13.000Z</time>
      </trkpt>
      <trkpt lat="44.01155" lon="2.58495">
        <ele>489</ele>
        <time>2021-10-31T07:19:14.000Z</time>
      </trkpt>
      <trkpt lat="44.01154" lon="2.58496">
        <ele>488</ele>
        <time>2021-10-31T07:19:15.000Z</time>
      </trkpt>
      <trkpt lat="44.01153" lon="2.58496">
        <ele>488</ele>
        <time>2021-10-31T07:19:16.000Z</time>
      </trkpt>
      <trkpt lat="44.01153" lon="2.58497">
        <ele>488</ele>
        <time>2021-10-31T07:19:17.000Z</time>
      </trkpt>
      <trkpt lat="44.01152" lon="2.58497">
        <ele>488</ele>
        <time>2021-10-31T07:19:18.000Z</time>
      </trkpt>
      <trkpt lat="44.01152" lon="2.58497">
        <ele>488</ele>
        <time>2021-10-31T07:19:19.000Z</time>
      </trkpt>
      <trkpt lat="44.01152" lon="2.58498">
        <ele>487</ele>
        <time>2021-10-31T07:19:20.000Z</time>
      </trkpt>
      <trkpt lat="44.01151" lon="2.58498">
        <ele>487</ele>
        <time>2021-10-31T07:19:21.000Z</time>
      </trkpt>
      <trkpt lat="44.0115" lon="2.58498">
        <ele>487</ele>
        <time>2021-10-31T07:19:22.000Z</time>
      </trkpt>
      <trkpt lat="44.01149" lon="2.58499">
        <ele>487</ele>
        <time>2021-10-31T07:19:23.000Z</time>
      </trkpt>
      <trkpt lat="44.01149" lon="2.58499">
        <ele>487</ele>
        <time>2021-10-31T07:19:24.000Z</time>
      </trkpt>
      <trkpt lat="44.01148" lon="2.58499">
        <ele>487</ele>
        <time>2021-10-31T07:19:25.000Z</time>
      </trkpt>
      <trkpt lat="44.01147" lon="2.58499">
        <ele>487</ele>
        <time>2021-10-31T07:19:26.000Z</time>
      </trkpt>
      <trkpt lat="44.01147" lon="2.58498">
        <ele>487</ele>
        <time>2021-10-31T07:19:27.000Z</time>
      </trkpt>
      <trkpt lat="44.01146" lon="2.58498">
        <ele>487</ele>
        <time>2021-10-31T07:19:28.000Z</time>
      </trkpt>
      <trkpt lat="44.01145" lon="2.58498">
        <ele>487</ele>
        <time>2021-10-31T07:19:29.000Z</time>
      </trkpt>
      <trkpt lat="44.01144" lon="2.58498">
        <ele>486</ele>
        <time>2021-10-31T07:19:30.000Z</time>
      </trkpt>
      <trkpt lat="44.01143" lon="2.58498">
        <ele>486</ele>
        <time>2021-10-31T07:19:31.000Z</time>
      </trkpt>
      <trkpt lat="44.01142" lon="2.58497">
        <ele>486</ele>
        <time>2021-10-31T07:19:32.000Z</time>
      </trkpt>
      <trkpt lat="44.01141" lon="2.58497">
        <ele>485</ele>
        <time>2021-10-31T07:19:33.000Z</time>
      </trkpt>
      <trkpt lat="44.0114" lon="2.58497">
        <ele>485</ele>
        <time>2021-10-31T07:19:34.000Z</time>
      </trkpt>
      <trkpt lat="44.01139" lon="2.58496">
        <ele>485</ele>
        <time>2021-10-31T07:19:35.000Z</time>
      </trkpt>
      <trkpt lat="44.01138" lon="2.58496">
        <ele>484</ele>
        <time>2021-10-31T07:19:36.000Z</time>
      </trkpt>
      <trkpt lat="44.01137" lon="2.58496">
        <ele>484</ele>
        <time>2021-10-31T07:19:37.000Z</time>
      </trkpt>
      <trkpt lat="44.01136" lon="2.58496">
        <ele>483</ele>
        <time>2021-10-31T07:19:38.000Z</time>
      </trkpt>
      <trkpt lat="44.01136" lon="2.58495">
        <ele>483</ele>
        <time>2021-10-31T07:19:39.000Z</time>
      </trkpt>
      <trkpt lat="44.01134" lon="2.58494">
        <ele>483</ele>
        <time>2021-10-31T07:19:40.000Z</time>
      </trkpt>
      <trkpt lat="44.01134" lon="2.58494">
        <ele>482</ele>
        <time>2021-10-31T07:19:41.000Z</time>
      </trkpt>
      <trkpt lat="44.01133" lon="2.58493">
        <ele>482</ele>
        <time>2021-10-31T07:19:42.000Z</time>
      </trkpt>
      <trkpt lat="44.01132" lon="2.58492">
        <ele>482</ele>
        <time>2021-10-31T07:19:43.000Z</time>
      </trkpt>
      <trkpt lat="44.01131" lon="2.58492">
        <ele>481</ele>
        <time>2021-10-31T07:19:44.000Z</time>
      </trkpt>
      <trkpt lat="44.01131" lon="2.58491">
        <ele>481</ele>
        <time>2021-10-31T07:19:45.000Z</time>
      </trkpt>
      <trkpt lat="44.0113" lon="2.5849">
        <ele>481</ele>
        <time>2021-10-31T07:19:46.000Z</time>
      </trkpt>
      <trkpt lat="44.01129" lon="2.58489">
        <ele>480</ele>
        <time>2021-10-31T07:19:47.000Z</time>
      </trkpt>
      <trkpt lat="44.01128" lon="2.58488">
        <ele>480</ele>
        <time>2021-10-31T07:19:48.000Z</time>
      </trkpt>
      <trkpt lat="44.01127" lon="2.58488">
        <ele>480</ele>
        <time>2021-10-31T07:19:49.000Z</time>
      </trkpt>
      <trkpt lat="44.01126" lon="2.58487">
        <ele>479</ele>
        <time>2021-10-31T07:19:50.000Z</time>
      </trkpt>
      <trkpt lat="44.01125" lon="2.58487">
        <ele>479</ele>
        <time>2021-10-31T07:19:51.000Z</time>
      </trkpt>
      <trkpt lat="44.01124" lon="2.58486">
        <ele>479</ele>
        <time>2021-10-31T07:19:52.000Z</time>
      </trkpt>
      <trkpt lat="44.01123" lon="2.58486">
        <ele>479</ele>
        <time>2021-10-31T07:19:53.000Z</time>
      </trkpt>
      <trkpt lat="44.01122" lon="2.58486">
        <ele>478</ele>
        <time>2021-10-31T07:19:54.000Z</time>
      </trkpt>
      <trkpt lat="44.01121" lon="2.58486">
        <ele>478</ele>
        <time>2021-10-31T07:19:55.000Z</time>
      </trkpt>
      <trkpt lat="44.0112" lon="2.58487">
        <ele>478</ele>
        <time>2021-10-31T07:19:56.000Z</time>
      </trkpt>
      <trkpt lat="44.01119" lon="2.58487">
        <ele>478</ele>
        <time>2021-10-31T07:19:57.000Z</time>
      </trkpt>
      <trkpt lat="44.01118" lon="2.58488">
        <ele>478</ele>
        <time>2021-10-31T07:19:58.000Z</time>
      </trkpt>
      <trkpt lat="44.01117" lon="2.58489">
        <ele>478</ele>
        <time>2021-10-31T07:19:59.000Z</time>
      </trkpt>
      <trkpt lat="44.01116" lon="2.5849">
        <ele>477</ele>
        <time>2021-10-31T07:20:00.000Z</time>
      </trkpt>
      <trkpt lat="44.01115" lon="2.58491">
        <ele>477</ele>
        <time>2021-10-31T07:20:01.000Z</time>
      </trkpt>
      <trkpt lat="44.01114" lon="2.58491">
        <ele>477</ele>
        <time>2021-10-31T07:20:02.000Z</time>
      </trkpt>
      <trkpt lat="44.01113" lon="2.58492">
        <ele>477</ele>
        <time>2021-10-31T07:20:03.000Z</time>
      </trkpt>
      <trkpt lat="44.01112" lon="2.58492">
        <ele>477</ele>
        <time>2021-10-31T07:20:04.000Z</time>
      </trkpt>
      <trkpt lat="44.01111" lon="2.58493">
        <ele>477</ele>
        <time>2021-10-31T07:20:05.000Z</time>
      </trkpt>
      <trkpt lat="44.0111" lon="2.58494">
        <ele>477</ele>
        <time>2021-10-31T07:20:06.000Z</time>
      </trkpt>
      <trkpt lat="44.01109" lon="2.58495">
        <ele>477</ele>
        <time>2021-10-31T07:20:07.000Z</time>
      </trkpt>
      <trkpt lat="44.01109" lon="2.58496">
        <ele>477</ele>
        <time>2021-10-31T07:20:08.000Z</time>
      </trkpt>
      <trkpt lat="44.01108" lon="2.58497">
        <ele>476</ele>
        <time>2021-10-31T07:20:09.000Z</time>
      </trkpt>
      <trkpt lat="44.01107" lon="2.58498">
        <ele>476</ele>
        <time>2021-10-31T07:20:10.000Z</time>
      </trkpt>
      <trkpt lat="44.01106" lon="2.58498">
        <ele>476</ele>
        <time>2021-10-31T07:20:11.000Z</time>
      </trkpt>
      <trkpt lat="44.01106" lon="2.58499">
        <ele>476</ele>
        <time>2021-10-31T07:20:12.000Z</time>
      </trkpt>
      <trkpt lat="44.01105" lon="2.585">
        <ele>476</ele>
        <time>2021-10-31T07:20:13.000Z</time>
      </trkpt>
      <trkpt lat="44.01104" lon="2.58501">
        <ele>476</ele>
        <time>2021-10-31T07:20:14.000Z</time>
      </trkpt>
      <trkpt lat="44.01104" lon="2.58502">
        <ele>476</ele>
        <time>2021-10-31T07:20:15.000Z</time>
      </trkpt>
      <trkpt lat="44.01103" lon="2.58503">
        <ele>476</ele>
        <time>2021-10-31T07:20:16.000Z</time>
      </trkpt>
      <trkpt lat="44.01103" lon="2.58504">
        <ele>476</ele>
        <time>2021-10-31T07:20:17.000Z</time>
      </trkpt>
      <trkpt lat="44.01102" lon="2.58505">
        <ele>476</ele>
        <time>2021-10-31T07:20:18.000Z</time>
      </trkpt>
      <trkpt lat="44.01101" lon="2.58506">
        <ele>476</ele>
        <time>2021-10-31T07:20:19.000Z</time>
      </trkpt>
      <trkpt lat="44.01099" lon="2.58507">
        <ele>476</ele>
        <time>2021-10-31T07:20:20.000Z</time>
      </trkpt>
      <trkpt lat="44.01098" lon="2.58508">
        <ele>476</ele>
        <time>2021-10-31T07:20:21.000Z</time>
      </trkpt>
      <trkpt lat="44.01098" lon="2.58509">
        <ele>476</ele>
        <time>2021-10-31T07:20:22.000Z</time>
      </trkpt>
      <trkpt lat="44.01097" lon="2.5851">
        <ele>476</ele>
        <time>2021-10-31T07:20:23.000Z</time>
      </trkpt>
      <trkpt lat="44.01096" lon="2.58511">
        <ele>475</ele>
        <time>2021-10-31T07:20:24.000Z</time>
      </trkpt>
      <trkpt lat="44.01095" lon="2.58512">
        <ele>475</ele>
        <time>2021-10-31T07:20:25.000Z</time>
      </trkpt>
      <trkpt lat="44.01094" lon="2.58513">
        <ele>475</ele>
        <time>2021-10-31T07:20:26.000Z</time>
      </trkpt>
      <trkpt lat="44.01093" lon="2.58514">
        <ele>475</ele>
        <time>2021-10-31T07:20:27.000Z</time>
      </trkpt>
      <trkpt lat="44.01092" lon="2.58515">
        <ele>475</ele>
        <time>2021-10-31T07:20:28.000Z</time>
      </trkpt>
      <trkpt lat="44.01091" lon="2.58516">
        <ele>475</ele>
        <time>2021-10-31T07:20:29.000Z</time>
      </trkpt>
      <trkpt lat="44.01091" lon="2.58517">
        <ele>475</ele>
        <time>2021-10-31T07:20:30.000Z</time>
      </trkpt>
      <trkpt lat="44.0109" lon="2.58518">
        <ele>475</ele>
        <time>2021-10-31T07:20:31.000Z</time>
      </trkpt>
      <trkpt lat="44.01089" lon="2.58519">
        <ele>475</ele>
        <time>2021-10-31T07:20:32.000Z</time>
      </trkpt>
      <trkpt lat="44.01088" lon="2.58519">
        <ele>475</ele>
        <time>2021-10-31T07:20:33.000Z</time>
      </trkpt>
      <trkpt lat="44.01087" lon="2.5852">
        <ele>475</ele>
        <time>2021-10-31T07:20:34.000Z</time>
      </trkpt>
      <trkpt lat="44.01086" lon="2.58521">
        <ele>475</ele>
        <time>2021-10-31T07:20:35.000Z</time>
      </trkpt>
      <trkpt lat="44.01085" lon="2.58521">
        <ele>474</ele>
        <time>2021-10-31T07:20:36.000Z</time>
      </trkpt>
      <trkpt lat="44.01085" lon="2.58522">
        <ele>474</ele>
        <time>2021-10-31T07:20:37.000Z</time>
      </trkpt>
      <trkpt lat="44.01084" lon="2.58523">
        <ele>474</ele>
        <time>2021-10-31T07:20:38.000Z</time>
      </trkpt>
      <trkpt lat="44.01084" lon="2.58524">
        <ele>474</ele>
        <time>2021-10-31T07:20:39.000Z</time>
      </trkpt>
      <trkpt lat="44.01083" lon="2.58525">
        <ele>474</ele>
        <time>2021-10-31T07:20:40.000Z</time>
      </trkpt>
      <trkpt lat="44.01083" lon="2.58526">
        <ele>474</ele>
        <time>2021-10-31T07:20:41.000Z</time>
      </trkpt>
      <trkpt lat="44.01082" lon="2.58527">
        <ele>474</ele>
        <time>2021-10-31T07:20:42.000Z</time>
      </trkpt>
      <trkpt lat="44.01081" lon="2.58528">
        <ele>474</ele>
        <time>2021-10-31T07:20:43.000Z</time>
      </trkpt>
      <trkpt lat="44.01081" lon="2.58529">
        <ele>473</ele>
        <time>2021-10-31T07:20:44.000Z</time>
      </trkpt>
      <trkpt lat="44.0108" lon="2.5853">
        <ele>473</ele>
        <time>2021-10-31T07:20:45.000Z</time>
      </trkpt>
      <trkpt lat="44.01079" lon="2.58531">
        <ele>473</ele>
        <time>2021-10-31T07:20:46.000Z</time>
      </trkpt>
      <trkpt lat="44.01078" lon="2.58531">
        <ele>472</ele>
        <time>2021-10-31T07:20:47.000Z</time>
      </trkpt>
      <trkpt lat="44.01078" lon="2.58532">
        <ele>472</ele>
        <time>2021-10-31T07:20:48.000Z</time>
      </trkpt>
      <trkpt lat="44.01078" lon="2.58533">
        <ele>472</ele>
        <time>2021-10-31T07:20:49.000Z</time>
      </trkpt>
      <trkpt lat="44.01077" lon="2.58535">
        <ele>472</ele>
        <time>2021-10-31T07:20:50.000Z</time>
      </trkpt>
      <trkpt lat="44.01077" lon="2.58536">
        <ele>472</ele>
        <time>2021-10-31T07:20:51.000Z</time>
      </trkpt>
      <trkpt lat="44.01077" lon="2.58537">
        <ele>472</ele>
        <time>2021-10-31T07:20:52.000Z</time>
      </trkpt>
      <trkpt lat="44.01076" lon="2.58539">
        <ele>472</ele>
        <time>2021-10-31T07:20:53.000Z</time>
      </trkpt>
      <trkpt lat="44.01075" lon="2.5854">
        <ele>472</ele>
        <time>2021-10-31T07:20:54.000Z</time>
      </trkpt>
      <trkpt lat="44.01075" lon="2.58541">
        <ele>472</ele>
        <time>2021-10-31T07:20:55.000Z</time>
      </trkpt>
      <trkpt lat="44.01075" lon="2.58542">
        <ele>472</ele>
        <time>2021-10-31T07:20:56.000Z</time>
      </trkpt>
      <trkpt lat="44.01075" lon="2.58543">
        <ele>472</ele>
        <time>2021-10-31T07:20:57.000Z</time>
      </trkpt>
      <trkpt lat="44.01075" lon="2.58544">
        <ele>472</ele>
        <time>2021-10-31T07:20:58.000Z</time>
      </trkpt>
      <trkpt lat="44.01075" lon="2.58545">
        <ele>472</ele>
        <time>2021-10-31T07:20:59.000Z</time>
      </trkpt>
      <trkpt lat="44.01076" lon="2.58545">
        <ele>472</ele>
        <time>2021-10-31T07:21:00.000Z</time>
      </trkpt>
      <trkpt lat="44.01076" lon="2.58545">
        <ele>471</ele>
        <time>2021-10-31T07:21:01.000Z</time>
      </trkpt>
      <trkpt lat="44.01077" lon="2.58546">
        <ele>471</ele>
        <time>2021-10-31T07:21:02.000Z</time>
      </trkpt>
      <trkpt lat="44.01078" lon="2.58547">
        <ele>471</ele>
        <time>2021-10-31T07:21:03.000Z</time>
      </trkpt>
      <trkpt lat="44.01078" lon="2.58547">
        <ele>471</ele>
        <time>2021-10-31T07:21:04.000Z</time>
      </trkpt>
      <trkpt lat="44.01079" lon="2.58547">
        <ele>471</ele>
        <time>2021-10-31T07:21:05.000Z</time>
      </trkpt>
      <trkpt lat="44.01079" lon="2.58547">
        <ele>471</ele>
        <time>2021-10-31T07:21:06.000Z</time>
      </trkpt>
      <trkpt lat="44.0108" lon="2.58547">
        <ele>471</ele>
        <time>2021-10-31T07:21:07.000Z</time>
      </trkpt>
      <trkpt lat="44.01081" lon="2.58547">
        <ele>471</ele>
        <time>2021-10-31T07:21:08.000Z</time>
      </trkpt>
      <trkpt lat="44.01082" lon="2.58548">
        <ele>470</ele>
        <time>2021-10-31T07:21:09.000Z</time>
      </trkpt>
      <trkpt lat="44.01082" lon="2.58548">
        <ele>470</ele>
        <time>2021-10-31T07:21:10.000Z</time>
      </trkpt>
      <trkpt lat="44.01083" lon="2.58548">
        <ele>470</ele>
        <time>2021-10-31T07:21:11.000Z</time>
      </trkpt>
      <trkpt lat="44.01084" lon="2.58548">
        <ele>470</ele>
        <time>2021-10-31T07:21:12.000Z</time>
      </trkpt>
      <trkpt lat="44.01084" lon="2.58548">
        <ele>470</ele>
        <time>2021-10-31T07:21:13.000Z</time>
      </trkpt>
      <trkpt lat="44.01085" lon="2.58548">
        <ele>470</ele>
        <time>2021-10-31T07:21:14.000Z</time>
      </trkpt>
      <trkpt lat="44.01086" lon="2.58547">
        <ele>470</ele>
        <time>2021-10-31T07:21:15.000Z</time>
      </trkpt>
      <trkpt lat="44.01086" lon="2.58547">
        <ele>470</ele>
        <time>2021-10-31T07:21:16.000Z</time>
      </trkpt>
      <trkpt lat="44.01087" lon="2.58547">
        <ele>470</ele>
        <time>2021-10-31T07:21:17.000Z</time>
      </trkpt>
      <trkpt lat="44.01087" lon="2.58547">
        <ele>470</ele>
        <time>2021-10-31T07:21:18.000Z</time>
      </trkpt>
      <trkpt lat="44.01088" lon="2.58547">
        <ele>469</ele>
        <time>2021-10-31T07:21:19.000Z</time>
      </trkpt>
      <trkpt lat="44.01089" lon="2.58547">
        <ele>469</ele>
        <time>2021-10-31T07:21:20.000Z</time>
      </trkpt>
      <trkpt lat="44.0109" lon="2.58546">
        <ele>469</ele>
        <time>2021-10-31T07:21:21.000Z</time>
      </trkpt>
      <trkpt lat="44.01091" lon="2.58546">
        <ele>469</ele>
        <time>2021-10-31T07:21:22.000Z</time>
      </trkpt>
      <trkpt lat="44.01091" lon="2.58546">
        <ele>469</ele>
        <time>2021-10-31T07:21:23.000Z</time>
      </trkpt>
      <trkpt lat="44.01092" lon="2.58545">
        <ele>469</ele>
        <time>2021-10-31T07:21:24.000Z</time>
      </trkpt>
      <trkpt lat="44.01093" lon="2.58545">
        <ele>469</ele>
        <time>2021-10-31T07:21:25.000Z</time>
      </trkpt>
      <trkpt lat="44.01094" lon="2.58545">
        <ele>469</ele>
        <time>2021-10-31T07:21:26.000Z</time>
      </trkpt>
      <trkpt lat="44.01095" lon="2.58545">
        <ele>469</ele>
        <time>2021-10-31T07:21:27.000Z</time>
      </trkpt>
      <trkpt lat="44.01096" lon="2.58545">
        <ele>469</ele>
        <time>2021-10-31T07:21:28.000Z</time>
      </trkpt>
      <trkpt lat="44.01097" lon="2.58545">
        <ele>469</ele>
        <time>2021-10-31T07:21:29.000Z</time>
      </trkpt>
      <trkpt lat="44.01098" lon="2.58545">
        <ele>469</ele>
        <time>2021-10-31T07:21:30.000Z</time>
      </trkpt>
      <trkpt lat="44.01099" lon="2.58545">
        <ele>469</ele>
        <time>2021-10-31T07:21:31.000Z</time>
      </trkpt>
      <trkpt lat="44.01099" lon="2.58544">
        <ele>469</ele>
        <time>2021-10-31T07:21:32.000Z</time>
      </trkpt>
      <trkpt lat="44.011" lon="2.58544">
        <ele>469</ele>
        <time>2021-10-31T07:21:33.000Z</time>
      </trkpt>
      <trkpt lat="44.011" lon="2.58544">
        <ele>469</ele>
        <time>2021-10-31T07:21:34.000Z</time>
      </trkpt>
      <trkpt lat="44.011" lon="2.58544">
        <ele>469</ele>
        <time>2021-10-31T07:21:35.000Z</time>
      </trkpt>
      <trkpt lat="44.01102" lon="2.58544">
        <ele>468</ele>
        <time>2021-10-31T07:21:36.000Z</time>
      </trkpt>
      <trkpt lat="44.01103" lon="2.58544">
        <ele>468</ele>
        <time>2021-10-31T07:21:37.000Z</time>
      </trkpt>
      <trkpt lat="44.01104" lon="2.58544">
        <ele>468</ele>
        <time>2021-10-31T07:21:38.000Z</time>
      </trkpt>
      <trkpt lat="44.01104" lon="2.58544">
        <ele>468</ele>
        <time>2021-10-31T07:21:39.000Z</time>
      </trkpt>
      <trkpt lat="44.01104" lon="2.58544">
        <ele>468</ele>
        <time>2021-10-31T07:21:40.000Z</time>
      </trkpt>
      <trkpt lat="44.01104" lon="2.58544">
        <ele>468</ele>
        <time>2021-10-31T07:21:41.000Z</time>
      </trkpt>
      <trkpt lat="44.01106" lon="2.58545">
        <ele>467</ele>
        <time>2021-10-31T07:21:42.000Z</time>
      </trkpt>
      <trkpt lat="44.01107" lon="2.58545">
        <ele>467</ele>
        <time>2021-10-31T07:21:43.000Z</time>
      </trkpt>
      <trkpt lat="44.01108" lon="2.58545">
        <ele>467</ele>
        <time>2021-10-31T07:21:44.000Z</time>
      </trkpt>
      <trkpt lat="44.01109" lon="2.58545">
        <ele>467</ele>
        <time>2021-10-31T07:21:45.000Z</time>
      </trkpt>
      <trkpt lat="44.0111" lon="2.58545">
        <ele>467</ele>
        <time>2021-10-31T07:21:46.000Z</time>
      </trkpt>
      <trkpt lat="44.01111" lon="2.58545">
        <ele>467</ele>
        <time>2021-10-31T07:21:47.000Z</time>
      </trkpt>
      <trkpt lat="44.01112" lon="2.58545">
        <ele>467</ele>
        <time>2021-10-31T07:21:48.000Z</time>
      </trkpt>
      <trkpt lat="44.01113" lon="2.58545">
        <ele>467</ele>
        <time>2021-10-31T07:21:49.000Z</time>
      </trkpt>
      <trkpt lat="44.01114" lon="2.58545">
        <ele>467</ele>
        <time>2021-10-31T07:21:50.000Z</time>
      </trkpt>
      <trkpt lat="44.01116" lon="2.58545">
        <ele>467</ele>
        <time>2021-10-31T07:21:51.000Z</time>
      </trkpt>
      <trkpt lat="44.01117" lon="2.58544">
        <ele>467</ele>
        <time>2021-10-31T07:21:52.000Z</time>
      </trkpt>
      <trkpt lat="44.01118" lon="2.58544">
        <ele>467</ele>
        <time>2021-10-31T07:21:53.000Z</time>
      </trkpt>
      <trkpt lat="44.01119" lon="2.58544">
        <ele>467</ele>
        <time>2021-10-31T07:21:54.000Z</time>
      </trkpt>
      <trkpt lat="44.01121" lon="2.58544">
        <ele>467</ele>
        <time>2021-10-31T07:21:55.000Z</time>
      </trkpt>
      <trkpt lat="44.01122" lon="2.58544">
        <ele>467</ele>
        <time>2021-10-31T07:21:56.000Z</time>
      </trkpt>
      <trkpt lat="44.01123" lon="2.58544">
        <ele>467</ele>
        <time>2021-10-31T07:21:57.000Z</time>
      </trkpt>
      <trkpt lat="44.01124" lon="2.58545">
        <ele>467</ele>
        <time>2021-10-31T07:21:58.000Z</time>
      </trkpt>
      <trkpt lat="44.01125" lon="2.58545">
        <ele>467</ele>
        <time>2021-10-31T07:21:59.000Z</time>
      </trkpt>
      <trkpt lat="44.01126" lon="2.58546">
        <ele>467</ele>
        <time>2021-10-31T07:22:00.000Z</time>
      </trkpt>
      <trkpt lat="44.01127" lon="2.58547">
        <ele>466</ele>
        <time>2021-10-31T07:22:01.000Z</time>
      </trkpt>
      <trkpt lat="44.01127" lon="2.58549">
        <ele>466</ele>
        <time>2021-10-31T07:22:02.000Z</time>
      </trkpt>
      <trkpt lat="44.01127" lon="2.5855">
        <ele>465</ele>
        <time>2021-10-31T07:22:03.000Z</time>
      </trkpt>
      <trkpt lat="44.01127" lon="2.58552">
        <ele>465</ele>
        <time>2021-10-31T07:22:04.000Z</time>
      </trkpt>
      <trkpt lat="44.01127" lon="2.58554">
        <ele>464</ele>
        <time>2021-10-31T07:22:05.000Z</time>
      </trkpt>
      <trkpt lat="44.01127" lon="2.58555">
        <ele>464</ele>
        <time>2021-10-31T07:22:06.000Z</time>
      </trkpt>
      <trkpt lat="44.01126" lon="2.58556">
        <ele>463</ele>
        <time>2021-10-31T07:22:07.000Z</time>
      </trkpt>
      <trkpt lat="44.01125" lon="2.58557">
        <ele>463</ele>
        <time>2021-10-31T07:22:08.000Z</time>
      </trkpt>
      <trkpt lat="44.01125" lon="2.58558">
        <ele>462</ele>
        <time>2021-10-31T07:22:09.000Z</time>
      </trkpt>
      <trkpt lat="44.01124" lon="2.58558">
        <ele>462</ele>
        <time>2021-10-31T07:22:10.000Z</time>
      </trkpt>
      <trkpt lat="44.01123" lon="2.5856">
        <ele>461</ele>
        <time>2021-10-31T07:22:11.000Z</time>
      </trkpt>
      <trkpt lat="44.01123" lon="2.58561">
        <ele>461</ele>
        <time>2021-10-31T07:22:12.000Z</time>
      </trkpt>
      <trkpt lat="44.01122" lon="2.58562">
        <ele>460</ele>
        <time>2021-10-31T07:22:13.000Z</time>
      </trkpt>
      <trkpt lat="44.01121" lon="2.58564">
        <ele>460</ele>
        <time>2021-10-31T07:22:14.000Z</time>
      </trkpt>
      <trkpt lat="44.0112" lon="2.58565">
        <ele>459</ele>
        <time>2021-10-31T07:22:15.000Z</time>
      </trkpt>
      <trkpt lat="44.01119" lon="2.58566">
        <ele>459</ele>
        <time>2021-10-31T07:22:16.000Z</time>
      </trkpt>
      <trkpt lat="44.01119" lon="2.58568">
        <ele>459</ele>
        <time>2021-10-31T07:22:17.000Z</time>
      </trkpt>
      <trkpt lat="44.01118" lon="2.58569">
        <ele>458</ele>
        <time>2021-10-31T07:22:18.000Z</time>
      </trkpt>
      <trkpt lat="44.01117" lon="2.5857">
        <ele>458</ele>
        <time>2021-10-31T07:22:19.000Z</time>
      </trkpt>
      <trkpt lat="44.01117" lon="2.58571">
        <ele>457</ele>
        <time>2021-10-31T07:22:20.000Z</time>
      </trkpt>
      <trkpt lat="44.01116" lon="2.58572">
        <ele>457</ele>
        <time>2021-10-31T07:22:21.000Z</time>
      </trkpt>
      <trkpt lat="44.01115" lon="2.58574">
        <ele>457</ele>
        <time>2021-10-31T07:22:22.000Z</time>
      </trkpt>
      <trkpt lat="44.01115" lon="2.58575">
        <ele>456</ele>
        <time>2021-10-31T07:22:23.000Z</time>
      </trkpt>
      <trkpt lat="44.01114" lon="2.58576">
        <ele>456</ele>
        <time>2021-10-31T07:22:24.000Z</time>
      </trkpt>
      <trkpt lat="44.01113" lon="2.58577">
        <ele>456</ele>
        <time>2021-10-31T07:22:25.000Z</time>
      </trkpt>
      <trkpt lat="44.01113" lon="2.58578">
        <ele>455</ele>
        <time>2021-10-31T07:22:26.000Z</time>
      </trkpt>
      <trkpt lat="44.01112" lon="2.58579">
        <ele>455</ele>
        <time>2021-10-31T07:22:27.000Z</time>
      </trkpt>
      <trkpt lat="44.01112" lon="2.5858">
        <ele>455</ele>
        <time>2021-10-31T07:22:28.000Z</time>
      </trkpt>
      <trkpt lat="44.01111" lon="2.58582">
        <ele>455</ele>
        <time>2021-10-31T07:22:29.000Z</time>
      </trkpt>
      <trkpt lat="44.01111" lon="2.58583">
        <ele>455</ele>
        <time>2021-10-31T07:22:30.000Z</time>
      </trkpt>
      <trkpt lat="44.0111" lon="2.58584">
        <ele>454</ele>
        <time>2021-10-31T07:22:31.000Z</time>
      </trkpt>
      <trkpt lat="44.0111" lon="2.58585">
        <ele>454</ele>
        <time>2021-10-31T07:22:32.000Z</time>
      </trkpt>
      <trkpt lat="44.0111" lon="2.58585">
        <ele>454</ele>
        <time>2021-10-31T07:22:33.000Z</time>
      </trkpt>
      <trkpt lat="44.01109" lon="2.58586">
        <ele>454</ele>
        <time>2021-10-31T07:22:34.000Z</time>
      </trkpt>
      <trkpt lat="44.01108" lon="2.58588">
        <ele>452</ele>
        <time>2021-10-31T07:22:35.000Z</time>
      </trkpt>
      <trkpt lat="44.01107" lon="2.58589">
        <ele>452</ele>
        <time>2021-10-31T07:22:36.000Z</time>
      </trkpt>
      <trkpt lat="44.01107" lon="2.58589">
        <ele>451</ele>
        <time>2021-10-31T07:22:37.000Z</time>
      </trkpt>
      <trkpt lat="44.01107" lon="2.5859">
        <ele>451</ele>
        <time>2021-10-31T07:22:38.000Z</time>
      </trkpt>
      <trkpt lat="44.01106" lon="2.5859">
        <ele>451</ele>
        <time>2021-10-31T07:22:39.000Z</time>
      </trkpt>
      <trkpt lat="44.01105" lon="2.58591">
        <ele>451</ele>
        <time>2021-10-31T07:22:40.000Z</time>
      </trkpt>
      <trkpt lat="44.01105" lon="2.58591">
        <ele>451</ele>
        <time>2021-10-31T07:22:41.000Z</time>
      </trkpt>
      <trkpt lat="44.01104" lon="2.58592">
        <ele>451</ele>
        <time>2021-10-31T07:22:42.000Z</time>
      </trkpt>
      <trkpt lat="44.01104" lon="2.58592">
        <ele>450</ele>
        <time>2021-10-31T07:22:43.000Z</time>
      </trkpt>
      <trkpt lat="44.01103" lon="2.58593">
        <ele>450</ele>
        <time>2021-10-31T07:22:44.000Z</time>
      </trkpt>
      <trkpt lat="44.01102" lon="2.58593">
        <ele>450</ele>
        <time>2021-10-31T07:22:45.000Z</time>
      </trkpt>
      <trkpt lat="44.01102" lon="2.58593">
        <ele>450</ele>
        <time>2021-10-31T07:22:46.000Z</time>
      </trkpt>
      <trkpt lat="44.01101" lon="2.58594">
        <ele>450</ele>
        <time>2021-10-31T07:22:47.000Z</time>
      </trkpt>
      <trkpt lat="44.01101" lon="2.58594">
        <ele>450</ele>
        <time>2021-10-31T07:22:48.000Z</time>
      </trkpt>
      <trkpt lat="44.011" lon="2.58595">
        <ele>449</ele>
        <time>2021-10-31T07:22:49.000Z</time>
      </trkpt>
      <trkpt lat="44.011" lon="2.58595">
        <ele>449</ele>
        <time>2021-10-31T07:22:50.000Z</time>
      </trkpt>
      <trkpt lat="44.01099" lon="2.58596">
        <ele>449</ele>
        <time>2021-10-31T07:22:51.000Z</time>
      </trkpt>
      <trkpt lat="44.01098" lon="2.58596">
        <ele>449</ele>
        <time>2021-10-31T07:22:52.000Z</time>
      </trkpt>
      <trkpt lat="44.01097" lon="2.58597">
        <ele>449</ele>
        <time>2021-10-31T07:22:53.000Z</time>
      </trkpt>
      <trkpt lat="44.01097" lon="2.58598">
        <ele>449</ele>
        <time>2021-10-31T07:22:54.000Z</time>
      </trkpt>
      <trkpt lat="44.01096" lon="2.58599">
        <ele>448</ele>
        <time>2021-10-31T07:22:55.000Z</time>
      </trkpt>
      <trkpt lat="44.01095" lon="2.586">
        <ele>448</ele>
        <time>2021-10-31T07:22:56.000Z</time>
      </trkpt>
      <trkpt lat="44.01095" lon="2.58601">
        <ele>448</ele>
        <time>2021-10-31T07:22:57.000Z</time>
      </trkpt>
      <trkpt lat="44.01094" lon="2.58601">
        <ele>448</ele>
        <time>2021-10-31T07:22:58.000Z</time>
      </trkpt>
      <trkpt lat="44.01094" lon="2.58602">
        <ele>448</ele>
        <time>2021-10-31T07:22:59.000Z</time>
      </trkpt>
      <trkpt lat="44.01093" lon="2.58603">
        <ele>448</ele>
        <time>2021-10-31T07:23:00.000Z</time>
      </trkpt>
      <trkpt lat="44.01093" lon="2.58603">
        <ele>448</ele>
        <time>2021-10-31T07:23:01.000Z</time>
      </trkpt>
      <trkpt lat="44.01093" lon="2.58604">
        <ele>448</ele>
        <time>2021-10-31T07:23:02.000Z</time>
      </trkpt>
      <trkpt lat="44.01092" lon="2.58605">
        <ele>448</ele>
        <time>2021-10-31T07:23:03.000Z</time>
      </trkpt>
      <trkpt lat="44.01092" lon="2.58605">
        <ele>448</ele>
        <time>2021-10-31T07:23:04.000Z</time>
      </trkpt>
      <trkpt lat="44.01092" lon="2.58606">
        <ele>448</ele>
        <time>2021-10-31T07:23:05.000Z</time>
      </trkpt>
      <trkpt lat="44.01091" lon="2.58607">
        <ele>447</ele>
        <time>2021-10-31T07:23:06.000Z</time>
      </trkpt>
      <trkpt lat="44.01091" lon="2.58608">
        <ele>447</ele>
        <time>2021-10-31T07:23:07.000Z</time>
      </trkpt>
      <trkpt lat="44.0109" lon="2.58608">
        <ele>447</ele>
        <time>2021-10-31T07:23:08.000Z</time>
      </trkpt>
      <trkpt lat="44.0109" lon="2.58609">
        <ele>447</ele>
        <time>2021-10-31T07:23:09.000Z</time>
      </trkpt>
      <trkpt lat="44.01089" lon="2.5861">
        <ele>447</ele>
        <time>2021-10-31T07:23:10.000Z</time>
      </trkpt>
      <trkpt lat="44.01089" lon="2.58611">
        <ele>447</ele>
        <time>2021-10-31T07:23:11.000Z</time>
      </trkpt>
      <trkpt lat="44.01088" lon="2.58612">
        <ele>447</ele>
        <time>2021-10-31T07:23:12.000Z</time>
      </trkpt>
      <trkpt lat="44.01088" lon="2.58613">
        <ele>447</ele>
        <time>2021-10-31T07:23:13.000Z</time>
      </trkpt>
      <trkpt lat="44.01088" lon="2.58614">
        <ele>447</ele>
        <time>2021-10-31T07:23:14.000Z</time>
      </trkpt>
      <trkpt lat="44.01088" lon="2.58615">
        <ele>447</ele>
        <time>2021-10-31T07:23:15.000Z</time>
      </trkpt>
      <trkpt lat="44.01088" lon="2.58616">
        <ele>447</ele>
        <time>2021-10-31T07:23:16.000Z</time>
      </trkpt>
      <trkpt lat="44.01087" lon="2.58616">
        <ele>446</ele>
        <time>2021-10-31T07:23:17.000Z</time>
      </trkpt>
      <trkpt lat="44.01087" lon="2.58617">
        <ele>446</ele>
        <time>2021-10-31T07:23:18.000Z</time>
      </trkpt>
      <trkpt lat="44.01087" lon="2.58618">
        <ele>446</ele>
        <time>2021-10-31T07:23:19.000Z</time>
      </trkpt>
      <trkpt lat="44.01087" lon="2.58619">
        <ele>446</ele>
        <time>2021-10-31T07:23:20.000Z</time>
      </trkpt>
      <trkpt lat="44.01086" lon="2.5862">
        <ele>446</ele>
        <time>2021-10-31T07:23:21.000Z</time>
      </trkpt>
      <trkpt lat="44.01086" lon="2.5862">
        <ele>445</ele>
        <time>2021-10-31T07:23:22.000Z</time>
      </trkpt>
      <trkpt lat="44.01085" lon="2.58621">
        <ele>445</ele>
        <time>2021-10-31T07:23:23.000Z</time>
      </trkpt>
      <trkpt lat="44.01085" lon="2.58621">
        <ele>445</ele>
        <time>2021-10-31T07:23:24.000Z</time>
      </trkpt>
      <trkpt lat="44.01085" lon="2.58622">
        <ele>445</ele>
        <time>2021-10-31T07:23:25.000Z</time>
      </trkpt>
      <trkpt lat="44.01084" lon="2.58622">
        <ele>445</ele>
        <time>2021-10-31T07:23:26.000Z</time>
      </trkpt>
      <trkpt lat="44.01084" lon="2.58623">
        <ele>444</ele>
        <time>2021-10-31T07:23:27.000Z</time>
      </trkpt>
      <trkpt lat="44.01084" lon="2.58624">
        <ele>444</ele>
        <time>2021-10-31T07:23:28.000Z</time>
      </trkpt>
      <trkpt lat="44.01084" lon="2.58625">
        <ele>444</ele>
        <time>2021-10-31T07:23:29.000Z</time>
      </trkpt>
      <trkpt lat="44.01083" lon="2.58626">
        <ele>444</ele>
        <time>2021-10-31T07:23:30.000Z</time>
      </trkpt>
      <trkpt lat="44.01083" lon="2.58627">
        <ele>444</ele>
        <time>2021-10-31T07:23:31.000Z</time>
      </trkpt>
      <trkpt lat="44.01082" lon="2.58628">
        <ele>444</ele>
        <time>2021-10-31T07:23:32.000Z</time>
      </trkpt>
      <trkpt lat="44.01082" lon="2.58628">
        <ele>443</ele>
        <time>2021-10-31T07:23:33.000Z</time>
      </trkpt>
      <trkpt lat="44.01081" lon="2.58629">
        <ele>443</ele>
        <time>2021-10-31T07:23:34.000Z</time>
      </trkpt>
      <trkpt lat="44.01081" lon="2.5863">
        <ele>443</ele>
        <time>2021-10-31T07:23:35.000Z</time>
      </trkpt>
      <trkpt lat="44.01081" lon="2.58631">
        <ele>443</ele>
        <time>2021-10-31T07:23:36.000Z</time>
      </trkpt>
      <trkpt lat="44.0108" lon="2.58632">
        <ele>443</ele>
        <time>2021-10-31T07:23:37.000Z</time>
      </trkpt>
      <trkpt lat="44.0108" lon="2.58633">
        <ele>443</ele>
        <time>2021-10-31T07:23:38.000Z</time>
      </trkpt>
      <trkpt lat="44.0108" lon="2.58634">
        <ele>443</ele>
        <time>2021-10-31T07:23:39.000Z</time>
      </trkpt>
      <trkpt lat="44.01079" lon="2.58636">
        <ele>442</ele>
        <time>2021-10-31T07:23:40.000Z</time>
      </trkpt>
      <trkpt lat="44.01078" lon="2.58637">
        <ele>442</ele>
        <time>2021-10-31T07:23:41.000Z</time>
      </trkpt>
      <trkpt lat="44.01078" lon="2.58637">
        <ele>442</ele>
        <time>2021-10-31T07:23:42.000Z</time>
      </trkpt>
      <trkpt lat="44.01078" lon="2.58638">
        <ele>442</ele>
        <time>2021-10-31T07:23:43.000Z</time>
      </trkpt>
      <trkpt lat="44.01077" lon="2.58639">
        <ele>441</ele>
        <time>2021-10-31T07:23:44.000Z</time>
      </trkpt>
      <trkpt lat="44.01077" lon="2.5864">
        <ele>441</ele>
        <time>2021-10-31T07:23:45.000Z</time>
      </trkpt>
      <trkpt lat="44.01077" lon="2.58641">
        <ele>441</ele>
        <time>2021-10-31T07:23:46.000Z</time>
      </trkpt>
      <trkpt lat="44.01076" lon="2.58642">
        <ele>440</ele>
        <time>2021-10-31T07:23:47.000Z</time>
      </trkpt>
      <trkpt lat="44.01076" lon="2.58643">
        <ele>440</ele>
        <time>2021-10-31T07:23:48.000Z</time>
      </trkpt>
      <trkpt lat="44.01076" lon="2.58644">
        <ele>440</ele>
        <time>2021-10-31T07:23:49.000Z</time>
      </trkpt>
      <trkpt lat="44.01075" lon="2.58646">
        <ele>439</ele>
        <time>2021-10-31T07:23:50.000Z</time>
      </trkpt>
      <trkpt lat="44.01075" lon="2.58647">
        <ele>439</ele>
        <time>2021-10-31T07:23:51.000Z</time>
      </trkpt>
      <trkpt lat="44.01075" lon="2.58648">
        <ele>439</ele>
        <time>2021-10-31T07:23:52.000Z</time>
      </trkpt>
      <trkpt lat="44.01074" lon="2.58649">
        <ele>439</ele>
        <time>2021-10-31T07:23:53.000Z</time>
      </trkpt>
      <trkpt lat="44.01074" lon="2.5865">
        <ele>439</ele>
        <time>2021-10-31T07:23:54.000Z</time>
      </trkpt>
      <trkpt lat="44.01073" lon="2.58651">
        <ele>438</ele>
        <time>2021-10-31T07:23:55.000Z</time>
      </trkpt>
      <trkpt lat="44.01073" lon="2.58652">
        <ele>438</ele>
        <time>2021-10-31T07:23:56.000Z</time>
      </trkpt>
      <trkpt lat="44.01073" lon="2.58653">
        <ele>438</ele>
        <time>2021-10-31T07:23:57.000Z</time>
      </trkpt>
      <trkpt lat="44.01073" lon="2.58654">
        <ele>438</ele>
        <time>2021-10-31T07:23:58.000Z</time>
      </trkpt>
      <trkpt lat="44.01072" lon="2.58655">
        <ele>438</ele>
        <time>2021-10-31T07:23:59.000Z</time>
      </trkpt>
      <trkpt lat="44.01072" lon="2.58656">
        <ele>438</ele>
        <time>2021-10-31T07:24:00.000Z</time>
      </trkpt>
      <trkpt lat="44.01072" lon="2.58656">
        <ele>438</ele>
        <time>2021-10-31T07:24:01.000Z</time>
      </trkpt>
      <trkpt lat="44.01071" lon="2.58657">
        <ele>437</ele>
        <time>2021-10-31T07:24:02.000Z</time>
      </trkpt>
      <trkpt lat="44.01071" lon="2.58658">
        <ele>437</ele>
        <time>2021-10-31T07:24:03.000Z</time>
      </trkpt>
      <trkpt lat="44.01071" lon="2.58659">
        <ele>437</ele>
        <time>2021-10-31T07:24:04.000Z</time>
      </trkpt>
      <trkpt lat="44.01071" lon="2.58659">
        <ele>436</ele>
        <time>2021-10-31T07:24:05.000Z</time>
      </trkpt>
      <trkpt lat="44.0107" lon="2.5866">
        <ele>436</ele>
        <time>2021-10-31T07:24:06.000Z</time>
      </trkpt>
      <trkpt lat="44.0107" lon="2.58661">
        <ele>436</ele>
        <time>2021-10-31T07:24:07.000Z</time>
      </trkpt>
      <trkpt lat="44.0107" lon="2.58662">
        <ele>436</ele>
        <time>2021-10-31T07:24:08.000Z</time>
      </trkpt>
      <trkpt lat="44.01069" lon="2.58663">
        <ele>435</ele>
        <time>2021-10-31T07:24:09.000Z</time>
      </trkpt>
      <trkpt lat="44.01069" lon="2.58664">
        <ele>435</ele>
        <time>2021-10-31T07:24:10.000Z</time>
      </trkpt>
      <trkpt lat="44.01069" lon="2.58665">
        <ele>435</ele>
        <time>2021-10-31T07:24:11.000Z</time>
      </trkpt>
      <trkpt lat="44.01068" lon="2.58667">
        <ele>435</ele>
        <time>2021-10-31T07:24:12.000Z</time>
      </trkpt>
      <trkpt lat="44.01068" lon="2.58668">
        <ele>435</ele>
        <time>2021-10-31T07:24:13.000Z</time>
      </trkpt>
      <trkpt lat="44.01067" lon="2.58669">
        <ele>435</ele>
        <time>2021-10-31T07:24:14.000Z</time>
      </trkpt>
      <trkpt lat="44.01067" lon="2.5867">
        <ele>434</ele>
        <time>2021-10-31T07:24:15.000Z</time>
      </trkpt>
      <trkpt lat="44.01067" lon="2.58671">
        <ele>434</ele>
        <time>2021-10-31T07:24:16.000Z</time>
      </trkpt>
      <trkpt lat="44.01067" lon="2.58671">
        <ele>434</ele>
        <time>2021-10-31T07:24:17.000Z</time>
      </trkpt>
      <trkpt lat="44.01066" lon="2.58672">
        <ele>433</ele>
        <time>2021-10-31T07:24:18.000Z</time>
      </trkpt>
      <trkpt lat="44.01066" lon="2.58673">
        <ele>433</ele>
        <time>2021-10-31T07:24:19.000Z</time>
      </trkpt>
      <trkpt lat="44.01065" lon="2.58674">
        <ele>433</ele>
        <time>2021-10-31T07:24:20.000Z</time>
      </trkpt>
      <trkpt lat="44.01065" lon="2.58675">
        <ele>433</ele>
        <time>2021-10-31T07:24:21.000Z</time>
      </trkpt>
      <trkpt lat="44.01065" lon="2.58676">
        <ele>433</ele>
        <time>2021-10-31T07:24:22.000Z</time>
      </trkpt>
      <trkpt lat="44.01065" lon="2.58677">
        <ele>432</ele>
        <time>2021-10-31T07:24:23.000Z</time>
      </trkpt>
      <trkpt lat="44.01064" lon="2.58679">
        <ele>432</ele>
        <time>2021-10-31T07:24:24.000Z</time>
      </trkpt>
      <trkpt lat="44.01064" lon="2.58679">
        <ele>432</ele>
        <time>2021-10-31T07:24:25.000Z</time>
      </trkpt>
      <trkpt lat="44.01063" lon="2.5868">
        <ele>432</ele>
        <time>2021-10-31T07:24:26.000Z</time>
      </trkpt>
      <trkpt lat="44.01063" lon="2.58681">
        <ele>431</ele>
        <time>2021-10-31T07:24:27.000Z</time>
      </trkpt>
      <trkpt lat="44.01063" lon="2.58682">
        <ele>431</ele>
        <time>2021-10-31T07:24:28.000Z</time>
      </trkpt>
      <trkpt lat="44.01062" lon="2.58683">
        <ele>431</ele>
        <time>2021-10-31T07:24:29.000Z</time>
      </trkpt>
      <trkpt lat="44.01062" lon="2.58684">
        <ele>431</ele>
        <time>2021-10-31T07:24:30.000Z</time>
      </trkpt>
      <trkpt lat="44.01062" lon="2.58686">
        <ele>430</ele>
        <time>2021-10-31T07:24:31.000Z</time>
      </trkpt>
      <trkpt lat="44.01061" lon="2.58687">
        <ele>430</ele>
        <time>2021-10-31T07:24:32.000Z</time>
      </trkpt>
      <trkpt lat="44.01061" lon="2.58688">
        <ele>430</ele>
        <time>2021-10-31T07:24:33.000Z</time>
      </trkpt>
      <trkpt lat="44.0106" lon="2.58689">
        <ele>430</ele>
        <time>2021-10-31T07:24:34.000Z</time>
      </trkpt>
      <trkpt lat="44.0106" lon="2.5869">
        <ele>429</ele>
        <time>2021-10-31T07:24:35.000Z</time>
      </trkpt>
      <trkpt lat="44.01059" lon="2.58691">
        <ele>429</ele>
        <time>2021-10-31T07:24:36.000Z</time>
      </trkpt>
      <trkpt lat="44.01059" lon="2.58693">
        <ele>429</ele>
        <time>2021-10-31T07:24:37.000Z</time>
      </trkpt>
      <trkpt lat="44.01058" lon="2.58694">
        <ele>429</ele>
        <time>2021-10-31T07:24:38.000Z</time>
      </trkpt>
      <trkpt lat="44.01057" lon="2.58695">
        <ele>428</ele>
        <time>2021-10-31T07:24:39.000Z</time>
      </trkpt>
      <trkpt lat="44.01057" lon="2.58696">
        <ele>428</ele>
        <time>2021-10-31T07:24:40.000Z</time>
      </trkpt>
      <trkpt lat="44.01056" lon="2.58697">
        <ele>428</ele>
        <time>2021-10-31T07:24:41.000Z</time>
      </trkpt>
      <trkpt lat="44.01056" lon="2.58698">
        <ele>427</ele>
        <time>2021-10-31T07:24:42.000Z</time>
      </trkpt>
      <trkpt lat="44.01055" lon="2.58699">
        <ele>427</ele>
        <time>2021-10-31T07:24:43.000Z</time>
      </trkpt>
      <trkpt lat="44.01054" lon="2.587">
        <ele>427</ele>
        <time>2021-10-31T07:24:44.000Z</time>
      </trkpt>
      <trkpt lat="44.01054" lon="2.58701">
        <ele>427</ele>
        <time>2021-10-31T07:24:45.000Z</time>
      </trkpt>
      <trkpt lat="44.01053" lon="2.58702">
        <ele>426</ele>
        <time>2021-10-31T07:24:46.000Z</time>
      </trkpt>
      <trkpt lat="44.01052" lon="2.58703">
        <ele>426</ele>
        <time>2021-10-31T07:24:47.000Z</time>
      </trkpt>
      <trkpt lat="44.01052" lon="2.58705">
        <ele>426</ele>
        <time>2021-10-31T07:24:48.000Z</time>
      </trkpt>
      <trkpt lat="44.01051" lon="2.58706">
        <ele>426</ele>
        <time>2021-10-31T07:24:49.000Z</time>
      </trkpt>
      <trkpt lat="44.0105" lon="2.58707">
        <ele>426</ele>
        <time>2021-10-31T07:24:50.000Z</time>
      </trkpt>
      <trkpt lat="44.0105" lon="2.58708">
        <ele>426</ele>
        <time>2021-10-31T07:24:51.000Z</time>
      </trkpt>
      <trkpt lat="44.01049" lon="2.58708">
        <ele>425</ele>
        <time>2021-10-31T07:24:52.000Z</time>
      </trkpt>
      <trkpt lat="44.01048" lon="2.58709">
        <ele>425</ele>
        <time>2021-10-31T07:24:53.000Z</time>
      </trkpt>
      <trkpt lat="44.01047" lon="2.5871">
        <ele>425</ele>
        <time>2021-10-31T07:24:54.000Z</time>
      </trkpt>
      <trkpt lat="44.01047" lon="2.58711">
        <ele>425</ele>
        <time>2021-10-31T07:24:55.000Z</time>
      </trkpt>
      <trkpt lat="44.01046" lon="2.58712">
        <ele>425</ele>
        <time>2021-10-31T07:24:56.000Z</time>
      </trkpt>
      <trkpt lat="44.01045" lon="2.58713">
        <ele>425</ele>
        <time>2021-10-31T07:24:57.000Z</time>
      </trkpt>
      <trkpt lat="44.01044" lon="2.58714">
        <ele>424</ele>
        <time>2021-10-31T07:24:58.000Z</time>
      </trkpt>
      <trkpt lat="44.01043" lon="2.58715">
        <ele>424</ele>
        <time>2021-10-31T07:24:59.000Z</time>
      </trkpt>
      <trkpt lat="44.01042" lon="2.58715">
        <ele>424</ele>
        <time>2021-10-31T07:25:00.000Z</time>
      </trkpt>
      <trkpt lat="44.01042" lon="2.58716">
        <ele>424</ele>
        <time>2021-10-31T07:25:01.000Z</time>
      </trkpt>
      <trkpt lat="44.01041" lon="2.58717">
        <ele>424</ele>
        <time>2021-10-31T07:25:02.000Z</time>
      </trkpt>
      <trkpt lat="44.0104" lon="2.58719">
        <ele>423</ele>
        <time>2021-10-31T07:25:03.000Z</time>
      </trkpt>
      <trkpt lat="44.0104" lon="2.5872">
        <ele>423</ele>
        <time>2021-10-31T07:25:04.000Z</time>
      </trkpt>
      <trkpt lat="44.01039" lon="2.58722">
        <ele>423</ele>
        <time>2021-10-31T07:25:05.000Z</time>
      </trkpt>
      <trkpt lat="44.01038" lon="2.58723">
        <ele>423</ele>
        <time>2021-10-31T07:25:06.000Z</time>
      </trkpt>
      <trkpt lat="44.01038" lon="2.58724">
        <ele>423</ele>
        <time>2021-10-31T07:25:07.000Z</time>
      </trkpt>
      <trkpt lat="44.01038" lon="2.58725">
        <ele>422</ele>
        <time>2021-10-31T07:25:08.000Z</time>
      </trkpt>
      <trkpt lat="44.01038" lon="2.58727">
        <ele>422</ele>
        <time>2021-10-31T07:25:09.000Z</time>
      </trkpt>
      <trkpt lat="44.01039" lon="2.58728">
        <ele>422</ele>
        <time>2021-10-31T07:25:10.000Z</time>
      </trkpt>
      <trkpt lat="44.01039" lon="2.58729">
        <ele>421</ele>
        <time>2021-10-31T07:25:11.000Z</time>
      </trkpt>
      <trkpt lat="44.0104" lon="2.58729">
        <ele>421</ele>
        <time>2021-10-31T07:25:12.000Z</time>
      </trkpt>
      <trkpt lat="44.0104" lon="2.58729">
        <ele>421</ele>
        <time>2021-10-31T07:25:13.000Z</time>
      </trkpt>
      <trkpt lat="44.01041" lon="2.5873">
        <ele>421</ele>
        <time>2021-10-31T07:25:14.000Z</time>
      </trkpt>
      <trkpt lat="44.01042" lon="2.5873">
        <ele>420</ele>
        <time>2021-10-31T07:25:15.000Z</time>
      </trkpt>
      <trkpt lat="44.01043" lon="2.5873">
        <ele>420</ele>
        <time>2021-10-31T07:25:16.000Z</time>
      </trkpt>
      <trkpt lat="44.01044" lon="2.5873">
        <ele>420</ele>
        <time>2021-10-31T07:25:17.000Z</time>
      </trkpt>
      <trkpt lat="44.01045" lon="2.5873">
        <ele>420</ele>
        <time>2021-10-31T07:25:18.000Z</time>
      </trkpt>
      <trkpt lat="44.01045" lon="2.58729">
        <ele>420</ele>
        <time>2021-10-31T07:25:19.000Z</time>
      </trkpt>
      <trkpt lat="44.01046" lon="2.58729">
        <ele>420</ele>
        <time>2021-10-31T07:25:20.000Z</time>
      </trkpt>
      <trkpt lat="44.01047" lon="2.58728">
        <ele>420</ele>
        <time>2021-10-31T07:25:21.000Z</time>
      </trkpt>
      <trkpt lat="44.01048" lon="2.58727">
        <ele>420</ele>
        <time>2021-10-31T07:25:22.000Z</time>
      </trkpt>
      <trkpt lat="44.01049" lon="2.58727">
        <ele>420</ele>
        <time>2021-10-31T07:25:23.000Z</time>
      </trkpt>
      <trkpt lat="44.0105" lon="2.58726">
        <ele>419</ele>
        <time>2021-10-31T07:25:24.000Z</time>
      </trkpt>
      <trkpt lat="44.01051" lon="2.58726">
        <ele>419</ele>
        <time>2021-10-31T07:25:25.000Z</time>
      </trkpt>
      <trkpt lat="44.01052" lon="2.58725">
        <ele>419</ele>
        <time>2021-10-31T07:25:26.000Z</time>
      </trkpt>
      <trkpt lat="44.01052" lon="2.58725">
        <ele>419</ele>
        <time>2021-10-31T07:25:27.000Z</time>
      </trkpt>
      <trkpt lat="44.01053" lon="2.58724">
        <ele>419</ele>
        <time>2021-10-31T07:25:28.000Z</time>
      </trkpt>
      <trkpt lat="44.01054" lon="2.58724">
        <ele>419</ele>
        <time>2021-10-31T07:25:29.000Z</time>
      </trkpt>
      <trkpt lat="44.01055" lon="2.58724">
        <ele>419</ele>
        <time>2021-10-31T07:25:30.000Z</time>
      </trkpt>
      <trkpt lat="44.01055" lon="2.58723">
        <ele>419</ele>
        <time>2021-10-31T07:25:31.000Z</time>
      </trkpt>
      <trkpt lat="44.01056" lon="2.58722">
        <ele>419</ele>
        <time>2021-10-31T07:25:32.000Z</time>
      </trkpt>
      <trkpt lat="44.01057" lon="2.58722">
        <ele>419</ele>
        <time>2021-10-31T07:25:33.000Z</time>
      </trkpt>
      <trkpt lat="44.01057" lon="2.58721">
        <ele>419</ele>
        <time>2021-10-31T07:25:34.000Z</time>
      </trkpt>
      <trkpt lat="44.01058" lon="2.58721">
        <ele>419</ele>
        <time>2021-10-31T07:25:35.000Z</time>
      </trkpt>
      <trkpt lat="44.01059" lon="2.5872">
        <ele>419</ele>
        <time>2021-10-31T07:25:36.000Z</time>
      </trkpt>
      <trkpt lat="44.0106" lon="2.5872">
        <ele>419</ele>
        <time>2021-10-31T07:25:37.000Z</time>
      </trkpt>
      <trkpt lat="44.01061" lon="2.58719">
        <ele>419</ele>
        <time>2021-10-31T07:25:38.000Z</time>
      </trkpt>
      <trkpt lat="44.01061" lon="2.58719">
        <ele>419</ele>
        <time>2021-10-31T07:25:39.000Z</time>
      </trkpt>
      <trkpt lat="44.01062" lon="2.58719">
        <ele>419</ele>
        <time>2021-10-31T07:25:40.000Z</time>
      </trkpt>
      <trkpt lat="44.01062" lon="2.58718">
        <ele>419</ele>
        <time>2021-10-31T07:25:41.000Z</time>
      </trkpt>
      <trkpt lat="44.01063" lon="2.58717">
        <ele>419</ele>
        <time>2021-10-31T07:25:42.000Z</time>
      </trkpt>
      <trkpt lat="44.01064" lon="2.58717">
        <ele>419</ele>
        <time>2021-10-31T07:25:43.000Z</time>
      </trkpt>
      <trkpt lat="44.01065" lon="2.58717">
        <ele>419</ele>
        <time>2021-10-31T07:25:44.000Z</time>
      </trkpt>
      <trkpt lat="44.01065" lon="2.58716">
        <ele>418</ele>
        <time>2021-10-31T07:25:45.000Z</time>
      </trkpt>
      <trkpt lat="44.01066" lon="2.58716">
        <ele>418</ele>
        <time>2021-10-31T07:25:46.000Z</time>
      </trkpt>
      <trkpt lat="44.01067" lon="2.58716">
        <ele>418</ele>
        <time>2021-10-31T07:25:47.000Z</time>
      </trkpt>
      <trkpt lat="44.01068" lon="2.58716">
        <ele>418</ele>
        <time>2021-10-31T07:25:48.000Z</time>
      </trkpt>
      <trkpt lat="44.01069" lon="2.58715">
        <ele>418</ele>
        <time>2021-10-31T07:25:49.000Z</time>
      </trkpt>
      <trkpt lat="44.01069" lon="2.58715">
        <ele>418</ele>
        <time>2021-10-31T07:25:50.000Z</time>
      </trkpt>
      <trkpt lat="44.0107" lon="2.58714">
        <ele>418</ele>
        <time>2021-10-31T07:25:51.000Z</time>
      </trkpt>
      <trkpt lat="44.01071" lon="2.58714">
        <ele>418</ele>
        <time>2021-10-31T07:25:52.000Z</time>
      </trkpt>
      <trkpt lat="44.01071" lon="2.58713">
        <ele>418</ele>
        <time>2021-10-31T07:25:53.000Z</time>
      </trkpt>
      <trkpt lat="44.01072" lon="2.58713">
        <ele>418</ele>
        <time>2021-10-31T07:25:54.000Z</time>
      </trkpt>
      <trkpt lat="44.01073" lon="2.58712">
        <ele>418</ele>
        <time>2021-10-31T07:25:55.000Z</time>
      </trkpt>
      <trkpt lat="44.01074" lon="2.58712">
        <ele>418</ele>
        <time>2021-10-31T07:25:56.000Z</time>
      </trkpt>
      <trkpt lat="44.01075" lon="2.58711">
        <ele>419</ele>
        <time>2021-10-31T07:25:57.000Z</time>
      </trkpt>
      <trkpt lat="44.01076" lon="2.58711">
        <ele>419</ele>
        <time>2021-10-31T07:25:58.000Z</time>
      </trkpt>
      <trkpt lat="44.01077" lon="2.58711">
        <ele>419</ele>
        <time>2021-10-31T07:25:59.000Z</time>
      </trkpt>
      <trkpt lat="44.01077" lon="2.5871">
        <ele>419</ele>
        <time>2021-10-31T07:26:00.000Z</time>
      </trkpt>
      <trkpt lat="44.01078" lon="2.5871">
        <ele>419</ele>
        <time>2021-10-31T07:26:01.000Z</time>
      </trkpt>
      <trkpt lat="44.0108" lon="2.5871">
        <ele>419</ele>
        <time>2021-10-31T07:26:02.000Z</time>
      </trkpt>
      <trkpt lat="44.01081" lon="2.58709">
        <ele>419</ele>
        <time>2021-10-31T07:26:03.000Z</time>
      </trkpt>
      <trkpt lat="44.01082" lon="2.58709">
        <ele>419</ele>
        <time>2021-10-31T07:26:04.000Z</time>
      </trkpt>
      <trkpt lat="44.01082" lon="2.58709">
        <ele>419</ele>
        <time>2021-10-31T07:26:05.000Z</time>
      </trkpt>
      <trkpt lat="44.01083" lon="2.58708">
        <ele>419</ele>
        <time>2021-10-31T07:26:06.000Z</time>
      </trkpt>
      <trkpt lat="44.01083" lon="2.58708">
        <ele>419</ele>
        <time>2021-10-31T07:26:07.000Z</time>
      </trkpt>
      <trkpt lat="44.01084" lon="2.58708">
        <ele>419</ele>
        <time>2021-10-31T07:26:08.000Z</time>
      </trkpt>
      <trkpt lat="44.01085" lon="2.58708">
        <ele>419</ele>
        <time>2021-10-31T07:26:09.000Z</time>
      </trkpt>
      <trkpt lat="44.01086" lon="2.58708">
        <ele>419</ele>
        <time>2021-10-31T07:26:10.000Z</time>
      </trkpt>
      <trkpt lat="44.01086" lon="2.58707">
        <ele>419</ele>
        <time>2021-10-31T07:26:11.000Z</time>
      </trkpt>
      <trkpt lat="44.01087" lon="2.58707">
        <ele>419</ele>
        <time>2021-10-31T07:26:12.000Z</time>
      </trkpt>
      <trkpt lat="44.01088" lon="2.58707">
        <ele>420</ele>
        <time>2021-10-31T07:26:13.000Z</time>
      </trkpt>
      <trkpt lat="44.01089" lon="2.58706">
        <ele>420</ele>
        <time>2021-10-31T07:26:14.000Z</time>
      </trkpt>
      <trkpt lat="44.0109" lon="2.58706">
        <ele>420</ele>
        <time>2021-10-31T07:26:15.000Z</time>
      </trkpt>
      <trkpt lat="44.01091" lon="2.58706">
        <ele>420</ele>
        <time>2021-10-31T07:26:16.000Z</time>
      </trkpt>
      <trkpt lat="44.01092" lon="2.58706">
        <ele>420</ele>
        <time>2021-10-31T07:26:17.000Z</time>
      </trkpt>
      <trkpt lat="44.01093" lon="2.58706">
        <ele>420</ele>
        <time>2021-10-31T07:26:18.000Z</time>
      </trkpt>
      <trkpt lat="44.01093" lon="2.58705">
        <ele>420</ele>
        <time>2021-10-31T07:26:19.000Z</time>
      </trkpt>
      <trkpt lat="44.01094" lon="2.58705">
        <ele>420</ele>
        <time>2021-10-31T07:26:20.000Z</time>
      </trkpt>
      <trkpt lat="44.01095" lon="2.58704">
        <ele>420</ele>
        <time>2021-10-31T07:26:21.000Z</time>
      </trkpt>
      <trkpt lat="44.01096" lon="2.58704">
        <ele>420</ele>
        <time>2021-10-31T07:26:22.000Z</time>
      </trkpt>
      <trkpt lat="44.01097" lon="2.58704">
        <ele>420</ele>
        <time>2021-10-31T07:26:23.000Z</time>
      </trkpt>
      <trkpt lat="44.01098" lon="2.58703">
        <ele>420</ele>
        <time>2021-10-31T07:26:24.000Z</time>
      </trkpt>
      <trkpt lat="44.01099" lon="2.58703">
        <ele>420</ele>
        <time>2021-10-31T07:26:25.000Z</time>
      </trkpt>
      <trkpt lat="44.011" lon="2.58702">
        <ele>420</ele>
        <time>2021-10-31T07:26:26.000Z</time>
      </trkpt>
      <trkpt lat="44.01101" lon="2.58701">
        <ele>420</ele>
        <time>2021-10-31T07:26:27.000Z</time>
      </trkpt>
      <trkpt lat="44.01103" lon="2.58701">
        <ele>420</ele>
        <time>2021-10-31T07:26:28.000Z</time>
      </trkpt>
      <trkpt lat="44.01104" lon="2.587">
        <ele>420</ele>
        <time>2021-10-31T07:26:29.000Z</time>
      </trkpt>
      <trkpt lat="44.01105" lon="2.587">
        <ele>420</ele>
        <time>2021-10-31T07:26:30.000Z</time>
      </trkpt>
      <trkpt lat="44.01106" lon="2.587">
        <ele>420</ele>
        <time>2021-10-31T07:26:31.000Z</time>
      </trkpt>
      <trkpt lat="44.01106" lon="2.587">
        <ele>420</ele>
        <time>2021-10-31T07:26:32.000Z</time>
      </trkpt>
      <trkpt lat="44.01107" lon="2.58699">
        <ele>420</ele>
        <time>2021-10-31T07:26:33.000Z</time>
      </trkpt>
      <trkpt lat="44.01108" lon="2.58699">
        <ele>420</ele>
        <time>2021-10-31T07:26:34.000Z</time>
      </trkpt>
      <trkpt lat="44.01109" lon="2.587">
        <ele>420</ele>
        <time>2021-10-31T07:26:35.000Z</time>
      </trkpt>
      <trkpt lat="44.0111" lon="2.587">
        <ele>420</ele>
        <time>2021-10-31T07:26:36.000Z</time>
      </trkpt>
      <trkpt lat="44.01111" lon="2.587">
        <ele>419</ele>
        <time>2021-10-31T07:26:37.000Z</time>
      </trkpt>
      <trkpt lat="44.01112" lon="2.587">
        <ele>419</ele>
        <time>2021-10-31T07:26:38.000Z</time>
      </trkpt>
      <trkpt lat="44.01113" lon="2.587">
        <ele>419</ele>
        <time>2021-10-31T07:26:39.000Z</time>
      </trkpt>
      <trkpt lat="44.01115" lon="2.587">
        <ele>419</ele>
        <time>2021-10-31T07:26:40.000Z</time>
      </trkpt>
      <trkpt lat="44.01116" lon="2.587">
        <ele>419</ele>
        <time>2021-10-31T07:26:41.000Z</time>
      </trkpt>
      <trkpt lat="44.01117" lon="2.58701">
        <ele>419</ele>
        <time>2021-10-31T07:26:42.000Z</time>
      </trkpt>
      <trkpt lat="44.01117" lon="2.58701">
        <ele>418</ele>
        <time>2021-10-31T07:26:43.000Z</time>
      </trkpt>
      <trkpt lat="44.01118" lon="2.58702">
        <ele>418</ele>
        <time>2021-10-31T07:26:44.000Z</time>
      </trkpt>
      <trkpt lat="44.01119" lon="2.58702">
        <ele>418</ele>
        <time>2021-10-31T07:26:45.000Z</time>
      </trkpt>
      <trkpt lat="44.01121" lon="2.58702">
        <ele>418</ele>
        <time>2021-10-31T07:26:46.000Z</time>
      </trkpt>
      <trkpt lat="44.01122" lon="2.58702">
        <ele>418</ele>
        <time>2021-10-31T07:26:47.000Z</time>
      </trkpt>
      <trkpt lat="44.01122" lon="2.58702">
        <ele>418</ele>
        <time>2021-10-31T07:26:48.000Z</time>
      </trkpt>
      <trkpt lat="44.01123" lon="2.58702">
        <ele>418</ele>
        <time>2021-10-31T07:26:49.000Z</time>
      </trkpt>
      <trkpt lat="44.01124" lon="2.58702">
        <ele>418</ele>
        <time>2021-10-31T07:26:50.000Z</time>
      </trkpt>
      <trkpt lat="44.01125" lon="2.58702">
        <ele>418</ele>
        <time>2021-10-31T07:26:51.000Z</time>
      </trkpt>
      <trkpt lat="44.01126" lon="2.58703">
        <ele>418</ele>
        <time>2021-10-31T07:26:52.000Z</time>
      </trkpt>
      <trkpt lat="44.01127" lon="2.58703">
        <ele>418</ele>
        <time>2021-10-31T07:26:53.000Z</time>
      </trkpt>
      <trkpt lat="44.01128" lon="2.58704">
        <ele>418</ele>
        <time>2021-10-31T07:26:54.000Z</time>
      </trkpt>
      <trkpt lat="44.01128" lon="2.58704">
        <ele>418</ele>
        <time>2021-10-31T07:26:55.000Z</time>
      </trkpt>
      <trkpt lat="44.01129" lon="2.58705">
        <ele>418</ele>
        <time>2021-10-31T07:26:56.000Z</time>
      </trkpt>
      <trkpt lat="44.0113" lon="2.58706">
        <ele>418</ele>
        <time>2021-10-31T07:26:57.000Z</time>
      </trkpt>
      <trkpt lat="44.0113" lon="2.58707">
        <ele>418</ele>
        <time>2021-10-31T07:26:58.000Z</time>
      </trkpt>
      <trkpt lat="44.01131" lon="2.58708">
        <ele>418</ele>
        <time>2021-10-31T07:26:59.000Z</time>
      </trkpt>
      <trkpt lat="44.01132" lon="2.58708">
        <ele>418</ele>
        <time>2021-10-31T07:27:00.000Z</time>
      </trkpt>
      <trkpt lat="44.01132" lon="2.58709">
        <ele>417</ele>
        <time>2021-10-31T07:27:01.000Z</time>
      </trkpt>
      <trkpt lat="44.01133" lon="2.5871">
        <ele>417</ele>
        <time>2021-10-31T07:27:02.000Z</time>
      </trkpt>
      <trkpt lat="44.01134" lon="2.58711">
        <ele>417</ele>
        <time>2021-10-31T07:27:03.000Z</time>
      </trkpt>
      <trkpt lat="44.01135" lon="2.58712">
        <ele>416</ele>
        <time>2021-10-31T07:27:04.000Z</time>
      </trkpt>
      <trkpt lat="44.01136" lon="2.58713">
        <ele>416</ele>
        <time>2021-10-31T07:27:05.000Z</time>
      </trkpt>
      <trkpt lat="44.01137" lon="2.58714">
        <ele>416</ele>
        <time>2021-10-31T07:27:06.000Z</time>
      </trkpt>
      <trkpt lat="44.01137" lon="2.58716">
        <ele>415</ele>
        <time>2021-10-31T07:27:07.000Z</time>
      </trkpt>
      <trkpt lat="44.01138" lon="2.58717">
        <ele>415</ele>
        <time>2021-10-31T07:27:08.000Z</time>
      </trkpt>
      <trkpt lat="44.01139" lon="2.58718">
        <ele>414</ele>
        <time>2021-10-31T07:27:09.000Z</time>
      </trkpt>
      <trkpt lat="44.01139" lon="2.58719">
        <ele>414</ele>
        <time>2021-10-31T07:27:10.000Z</time>
      </trkpt>
      <trkpt lat="44.0114" lon="2.58719">
        <ele>414</ele>
        <time>2021-10-31T07:27:11.000Z</time>
      </trkpt>
      <trkpt lat="44.01141" lon="2.5872">
        <ele>414</ele>
        <time>2021-10-31T07:27:12.000Z</time>
      </trkpt>
      <trkpt lat="44.01141" lon="2.58722">
        <ele>413</ele>
        <time>2021-10-31T07:27:13.000Z</time>
      </trkpt>
      <trkpt lat="44.01142" lon="2.58723">
        <ele>413</ele>
        <time>2021-10-31T07:27:14.000Z</time>
      </trkpt>
      <trkpt lat="44.01143" lon="2.58724">
        <ele>413</ele>
        <time>2021-10-31T07:27:15.000Z</time>
      </trkpt>
      <trkpt lat="44.01144" lon="2.58726">
        <ele>412</ele>
        <time>2021-10-31T07:27:16.000Z</time>
      </trkpt>
      <trkpt lat="44.01145" lon="2.58727">
        <ele>412</ele>
        <time>2021-10-31T07:27:17.000Z</time>
      </trkpt>
      <trkpt lat="44.01145" lon="2.58728">
        <ele>412</ele>
        <time>2021-10-31T07:27:18.000Z</time>
      </trkpt>
      <trkpt lat="44.01146" lon="2.58729">
        <ele>412</ele>
        <time>2021-10-31T07:27:19.000Z</time>
      </trkpt>
      <trkpt lat="44.01147" lon="2.5873">
        <ele>411</ele>
        <time>2021-10-31T07:27:20.000Z</time>
      </trkpt>
      <trkpt lat="44.01148" lon="2.58731">
        <ele>411</ele>
        <time>2021-10-31T07:27:21.000Z</time>
      </trkpt>
      <trkpt lat="44.01149" lon="2.58732">
        <ele>411</ele>
        <time>2021-10-31T07:27:22.000Z</time>
      </trkpt>
      <trkpt lat="44.01149" lon="2.58733">
        <ele>411</ele>
        <time>2021-10-31T07:27:23.000Z</time>
      </trkpt>
      <trkpt lat="44.0115" lon="2.58734">
        <ele>410</ele>
        <time>2021-10-31T07:27:24.000Z</time>
      </trkpt>
      <trkpt lat="44.01151" lon="2.58735">
        <ele>410</ele>
        <time>2021-10-31T07:27:25.000Z</time>
      </trkpt>
      <trkpt lat="44.01151" lon="2.58736">
        <ele>410</ele>
        <time>2021-10-31T07:27:26.000Z</time>
      </trkpt>
      <trkpt lat="44.01152" lon="2.58737">
        <ele>410</ele>
        <time>2021-10-31T07:27:27.000Z</time>
      </trkpt>
      <trkpt lat="44.01153" lon="2.58737">
        <ele>409</ele>
        <time>2021-10-31T07:27:28.000Z</time>
      </trkpt>
      <trkpt lat="44.01154" lon="2.58738">
        <ele>409</ele>
        <time>2021-10-31T07:27:29.000Z</time>
      </trkpt>
      <trkpt lat="44.01154" lon="2.58739">
        <ele>409</ele>
        <time>2021-10-31T07:27:30.000Z</time>
      </trkpt>
      <trkpt lat="44.01155" lon="2.5874">
        <ele>409</ele>
        <time>2021-10-31T07:27:31.000Z</time>
      </trkpt>
      <trkpt lat="44.01156" lon="2.58741">
        <ele>408</ele>
        <time>2021-10-31T07:27:32.000Z</time>
      </trkpt>
      <trkpt lat="44.01157" lon="2.58741">
        <ele>408</ele>
        <time>2021-10-31T07:27:33.000Z</time>
      </trkpt>
      <trkpt lat="44.01157" lon="2.58742">
        <ele>408</ele>
        <time>2021-10-31T07:27:34.000Z</time>
      </trkpt>
      <trkpt lat="44.01158" lon="2.58743">
        <ele>408</ele>
        <time>2021-10-31T07:27:35.000Z</time>
      </trkpt>
      <trkpt lat="44.01159" lon="2.58743">
        <ele>408</ele>
        <time>2021-10-31T07:27:36.000Z</time>
      </trkpt>
      <trkpt lat="44.01159" lon="2.58744">
        <ele>408</ele>
        <time>2021-10-31T07:27:37.000Z</time>
      </trkpt>
      <trkpt lat="44.0116" lon="2.58745">
        <ele>408</ele>
        <time>2021-10-31T07:27:38.000Z</time>
      </trkpt>
      <trkpt lat="44.01161" lon="2.58745">
        <ele>408</ele>
        <time>2021-10-31T07:27:39.000Z</time>
      </trkpt>
      <trkpt lat="44.01161" lon="2.58746">
        <ele>408</ele>
        <time>2021-10-31T07:27:40.000Z</time>
      </trkpt>
      <trkpt lat="44.01162" lon="2.58747">
        <ele>408</ele>
        <time>2021-10-31T07:27:41.000Z</time>
      </trkpt>
      <trkpt lat="44.01163" lon="2.58747">
        <ele>408</ele>
        <time>2021-10-31T07:27:42.000Z</time>
      </trkpt>
      <trkpt lat="44.01164" lon="2.58748">
        <ele>407</ele>
        <time>2021-10-31T07:27:43.000Z</time>
      </trkpt>
      <trkpt lat="44.01164" lon="2.58748">
        <ele>407</ele>
        <time>2021-10-31T07:27:44.000Z</time>
      </trkpt>
      <trkpt lat="44.01165" lon="2.58749">
        <ele>407</ele>
        <time>2021-10-31T07:27:45.000Z</time>
      </trkpt>
      <trkpt lat="44.01167" lon="2.58749">
        <ele>407</ele>
        <time>2021-10-31T07:27:46.000Z</time>
      </trkpt>
      <trkpt lat="44.01168" lon="2.5875">
        <ele>407</ele>
        <time>2021-10-31T07:27:47.000Z</time>
      </trkpt>
      <trkpt lat="44.01169" lon="2.5875">
        <ele>407</ele>
        <time>2021-10-31T07:27:48.000Z</time>
      </trkpt>
      <trkpt lat="44.01169" lon="2.5875">
        <ele>407</ele>
        <time>2021-10-31T07:27:49.000Z</time>
      </trkpt>
      <trkpt lat="44.0117" lon="2.5875">
        <ele>407</ele>
        <time>2021-10-31T07:27:50.000Z</time>
      </trkpt>
      <trkpt lat="44.01171" lon="2.58751">
        <ele>407</ele>
        <time>2021-10-31T07:27:51.000Z</time>
      </trkpt>
      <trkpt lat="44.01172" lon="2.58751">
        <ele>407</ele>
        <time>2021-10-31T07:27:52.000Z</time>
      </trkpt>
      <trkpt lat="44.01173" lon="2.58751">
        <ele>407</ele>
        <time>2021-10-31T07:27:53.000Z</time>
      </trkpt>
      <trkpt lat="44.01174" lon="2.58752">
        <ele>407</ele>
        <time>2021-10-31T07:27:54.000Z</time>
      </trkpt>
      <trkpt lat="44.01175" lon="2.58752">
        <ele>407</ele>
        <time>2021-10-31T07:27:55.000Z</time>
      </trkpt>
      <trkpt lat="44.01176" lon="2.58753">
        <ele>406</ele>
        <time>2021-10-31T07:27:56.000Z</time>
      </trkpt>
      <trkpt lat="44.01177" lon="2.58753">
        <ele>406</ele>
        <time>2021-10-31T07:27:57.000Z</time>
      </trkpt>
      <trkpt lat="44.01178" lon="2.58753">
        <ele>406</ele>
        <time>2021-10-31T07:27:58.000Z</time>
      </trkpt>
      <trkpt lat="44.01179" lon="2.58754">
        <ele>406</ele>
        <time>2021-10-31T07:27:59.000Z</time>
      </trkpt>
      <trkpt lat="44.0118" lon="2.58754">
        <ele>406</ele>
        <time>2021-10-31T07:28:00.000Z</time>
      </trkpt>
      <trkpt lat="44.01181" lon="2.58754">
        <ele>406</ele>
        <time>2021-10-31T07:28:01.000Z</time>
      </trkpt>
      <trkpt lat="44.01182" lon="2.58754">
        <ele>406</ele>
        <time>2021-10-31T07:28:02.000Z</time>
      </trkpt>
      <trkpt lat="44.01183" lon="2.58755">
        <ele>406</ele>
        <time>2021-10-31T07:28:03.000Z</time>
      </trkpt>
      <trkpt lat="44.01184" lon="2.58755">
        <ele>405</ele>
        <time>2021-10-31T07:28:04.000Z</time>
      </trkpt>
      <trkpt lat="44.01185" lon="2.58755">
        <ele>405</ele>
        <time>2021-10-31T07:28:05.000Z</time>
      </trkpt>
      <trkpt lat="44.01186" lon="2.58755">
        <ele>405</ele>
        <time>2021-10-31T07:28:06.000Z</time>
      </trkpt>
      <trkpt lat="44.01187" lon="2.58755">
        <ele>405</ele>
        <time>2021-10-31T07:28:07.000Z</time>
      </trkpt>
      <trkpt lat="44.01188" lon="2.58755">
        <ele>405</ele>
        <time>2021-10-31T07:28:08.000Z</time>
      </trkpt>
      <trkpt lat="44.01189" lon="2.58755">
        <ele>405</ele>
        <time>2021-10-31T07:28:09.000Z</time>
      </trkpt>
      <trkpt lat="44.0119" lon="2.58755">
        <ele>405</ele>
        <time>2021-10-31T07:28:10.000Z</time>
      </trkpt>
      <trkpt lat="44.01191" lon="2.58755">
        <ele>405</ele>
        <time>2021-10-31T07:28:11.000Z</time>
      </trkpt>
      <trkpt lat="44.01192" lon="2.58755">
        <ele>405</ele>
        <time>2021-10-31T07:28:12.000Z</time>
      </trkpt>
      <trkpt lat="44.01193" lon="2.58755">
        <ele>405</ele>
        <time>2021-10-31T07:28:13.000Z</time>
      </trkpt>
      <trkpt lat="44.01194" lon="2.58754">
        <ele>404</ele>
        <time>2021-10-31T07:28:14.000Z</time>
      </trkpt>
      <trkpt lat="44.01195" lon="2.58754">
        <ele>404</ele>
        <time>2021-10-31T07:28:15.000Z</time>
      </trkpt>
      <trkpt lat="44.01195" lon="2.58754">
        <ele>404</ele>
        <time>2021-10-31T07:28:16.000Z</time>
      </trkpt>
      <trkpt lat="44.01196" lon="2.58753">
        <ele>404</ele>
        <time>2021-10-31T07:28:17.000Z</time>
      </trkpt>
      <trkpt lat="44.01197" lon="2.58753">
        <ele>404</ele>
        <time>2021-10-31T07:28:18.000Z</time>
      </trkpt>
      <trkpt lat="44.01198" lon="2.58752">
        <ele>404</ele>
        <time>2021-10-31T07:28:19.000Z</time>
      </trkpt>
      <trkpt lat="44.01199" lon="2.58752">
        <ele>404</ele>
        <time>2021-10-31T07:28:20.000Z</time>
      </trkpt>
      <trkpt lat="44.012" lon="2.58751">
        <ele>404</ele>
        <time>2021-10-31T07:28:21.000Z</time>
      </trkpt>
      <trkpt lat="44.012" lon="2.5875">
        <ele>403</ele>
        <time>2021-10-31T07:28:22.000Z</time>
      </trkpt>
      <trkpt lat="44.01201" lon="2.58749">
        <ele>403</ele>
        <time>2021-10-31T07:28:23.000Z</time>
      </trkpt>
      <trkpt lat="44.01202" lon="2.58748">
        <ele>403</ele>
        <time>2021-10-31T07:28:24.000Z</time>
      </trkpt>
      <trkpt lat="44.01202" lon="2.58747">
        <ele>403</ele>
        <time>2021-10-31T07:28:25.000Z</time>
      </trkpt>
      <trkpt lat="44.01203" lon="2.58746">
        <ele>403</ele>
        <time>2021-10-31T07:28:26.000Z</time>
      </trkpt>
      <trkpt lat="44.01203" lon="2.58745">
        <ele>403</ele>
        <time>2021-10-31T07:28:27.000Z</time>
      </trkpt>
      <trkpt lat="44.01204" lon="2.58744">
        <ele>402</ele>
        <time>2021-10-31T07:28:28.000Z</time>
      </trkpt>
      <trkpt lat="44.01204" lon="2.58743">
        <ele>402</ele>
        <time>2021-10-31T07:28:29.000Z</time>
      </trkpt>
      <trkpt lat="44.01205" lon="2.58742">
        <ele>402</ele>
        <time>2021-10-31T07:28:30.000Z</time>
      </trkpt>
      <trkpt lat="44.01205" lon="2.5874">
        <ele>402</ele>
        <time>2021-10-31T07:28:31.000Z</time>
      </trkpt>
      <trkpt lat="44.01206" lon="2.58739">
        <ele>402</ele>
        <time>2021-10-31T07:28:32.000Z</time>
      </trkpt>
      <trkpt lat="44.01207" lon="2.58738">
        <ele>401</ele>
        <time>2021-10-31T07:28:33.000Z</time>
      </trkpt>
      <trkpt lat="44.01207" lon="2.58737">
        <ele>401</ele>
        <time>2021-10-31T07:28:34.000Z</time>
      </trkpt>
      <trkpt lat="44.01208" lon="2.58736">
        <ele>401</ele>
        <time>2021-10-31T07:28:35.000Z</time>
      </trkpt>
      <trkpt lat="44.01209" lon="2.58735">
        <ele>401</ele>
        <time>2021-10-31T07:28:36.000Z</time>
      </trkpt>
      <trkpt lat="44.0121" lon="2.58734">
        <ele>401</ele>
        <time>2021-10-31T07:28:37.000Z</time>
      </trkpt>
      <trkpt lat="44.0121" lon="2.58733">
        <ele>400</ele>
        <time>2021-10-31T07:28:38.000Z</time>
      </trkpt>
      <trkpt lat="44.01211" lon="2.58732">
        <ele>400</ele>
        <time>2021-10-31T07:28:39.000Z</time>
      </trkpt>
      <trkpt lat="44.01212" lon="2.58731">
        <ele>400</ele>
        <time>2021-10-31T07:28:40.000Z</time>
      </trkpt>
      <trkpt lat="44.01213" lon="2.5873">
        <ele>400</ele>
        <time>2021-10-31T07:28:41.000Z</time>
      </trkpt>
      <trkpt lat="44.01213" lon="2.58729">
        <ele>400</ele>
        <time>2021-10-31T07:28:42.000Z</time>
      </trkpt>
      <trkpt lat="44.01214" lon="2.58729">
        <ele>400</ele>
        <time>2021-10-31T07:28:43.000Z</time>
      </trkpt>
      <trkpt lat="44.01215" lon="2.58728">
        <ele>400</ele>
        <time>2021-10-31T07:28:44.000Z</time>
      </trkpt>
      <trkpt lat="44.01216" lon="2.58728">
        <ele>400</ele>
        <time>2021-10-31T07:28:45.000Z</time>
      </trkpt>
      <trkpt lat="44.01217" lon="2.58727">
        <ele>400</ele>
        <time>2021-10-31T07:28:46.000Z</time>
      </trkpt>
      <trkpt lat="44.01218" lon="2.58727">
        <ele>400</ele>
        <time>2021-10-31T07:28:47.000Z</time>
      </trkpt>
      <trkpt lat="44.01219" lon="2.58726">
        <ele>400</ele>
        <time>2021-10-31T07:28:48.000Z</time>
      </trkpt>
      <trkpt lat="44.01219" lon="2.58726">
        <ele>400</ele>
        <time>2021-10-31T07:28:49.000Z</time>
      </trkpt>
      <trkpt lat="44.0122" lon="2.58725">
        <ele>399</ele>
        <time>2021-10-31T07:28:50.000Z</time>
      </trkpt>
      <trkpt lat="44.01221" lon="2.58725">
        <ele>399</ele>
        <time>2021-10-31T07:28:51.000Z</time>
      </trkpt>
      <trkpt lat="44.01221" lon="2.58725">
        <ele>399</ele>
        <time>2021-10-31T07:28:52.000Z</time>
      </trkpt>
      <trkpt lat="44.01221" lon="2.58725">
        <ele>399</ele>
        <time>2021-10-31T07:28:53.000Z</time>
      </trkpt>
      <trkpt lat="44.01222" lon="2.58724">
        <ele>398</ele>
        <time>2021-10-31T07:28:54.000Z</time>
      </trkpt>
      <trkpt lat="44.01222" lon="2.58724">
        <ele>398</ele>
        <time>2021-10-31T07:28:55.000Z</time>
      </trkpt>
      <trkpt lat="44.01229" lon="2.58731">
        <ele>387</ele>
        <time>2021-10-31T07:28:56.000Z</time>
      </trkpt>
      <trkpt lat="44.01229" lon="2.58732">
        <ele>386</ele>
        <time>2021-10-31T07:28:57.000Z</time>
      </trkpt>
      <trkpt lat="44.01229" lon="2.58733">
        <ele>386</ele>
        <time>2021-10-31T07:28:58.000Z</time>
      </trkpt>
      <trkpt lat="44.01229" lon="2.58735">
        <ele>386</ele>
        <time>2021-10-31T07:28:59.000Z</time>
      </trkpt>
      <trkpt lat="44.0123" lon="2.58736">
        <ele>385</ele>
        <time>2021-10-31T07:29:00.000Z</time>
      </trkpt>
      <trkpt lat="44.0123" lon="2.58737">
        <ele>385</ele>
        <time>2021-10-31T07:29:01.000Z</time>
      </trkpt>
      <trkpt lat="44.0123" lon="2.58739">
        <ele>385</ele>
        <time>2021-10-31T07:29:02.000Z</time>
      </trkpt>
      <trkpt lat="44.01231" lon="2.5874">
        <ele>384</ele>
        <time>2021-10-31T07:29:03.000Z</time>
      </trkpt>
      <trkpt lat="44.01231" lon="2.58742">
        <ele>384</ele>
        <time>2021-10-31T07:29:04.000Z</time>
      </trkpt>
      <trkpt lat="44.01231" lon="2.58743">
        <ele>384</ele>
        <time>2021-10-31T07:29:05.000Z</time>
      </trkpt>
      <trkpt lat="44.01231" lon="2.58745">
        <ele>383</ele>
        <time>2021-10-31T07:29:06.000Z</time>
      </trkpt>
      <trkpt lat="44.01231" lon="2.58746">
        <ele>383</ele>
        <time>2021-10-31T07:29:07.000Z</time>
      </trkpt>
      <trkpt lat="44.01231" lon="2.58747">
        <ele>383</ele>
        <time>2021-10-31T07:29:08.000Z</time>
      </trkpt>
      <trkpt lat="44.01231" lon="2.58749">
        <ele>383</ele>
        <time>2021-10-31T07:29:09.000Z</time>
      </trkpt>
      <trkpt lat="44.01231" lon="2.5875">
        <ele>383</ele>
        <time>2021-10-31T07:29:10.000Z</time>
      </trkpt>
      <trkpt lat="44.01231" lon="2.58752">
        <ele>383</ele>
        <time>2021-10-31T07:29:11.000Z</time>
      </trkpt>
      <trkpt lat="44.01231" lon="2.58754">
        <ele>383</ele>
        <time>2021-10-31T07:29:12.000Z</time>
      </trkpt>
      <trkpt lat="44.01231" lon="2.58755">
        <ele>383</ele>
        <time>2021-10-31T07:29:13.000Z</time>
      </trkpt>
      <trkpt lat="44.0123" lon="2.58756">
        <ele>383</ele>
        <time>2021-10-31T07:29:14.000Z</time>
      </trkpt>
      <trkpt lat="44.0123" lon="2.58758">
        <ele>382</ele>
        <time>2021-10-31T07:29:15.000Z</time>
      </trkpt>
      <trkpt lat="44.01229" lon="2.58759">
        <ele>382</ele>
        <time>2021-10-31T07:29:16.000Z</time>
      </trkpt>
      <trkpt lat="44.01229" lon="2.5876">
        <ele>382</ele>
        <time>2021-10-31T07:29:17.000Z</time>
      </trkpt>
      <trkpt lat="44.01228" lon="2.58762">
        <ele>382</ele>
        <time>2021-10-31T07:29:18.000Z</time>
      </trkpt>
      <trkpt lat="44.01227" lon="2.58763">
        <ele>382</ele>
        <time>2021-10-31T07:29:19.000Z</time>
      </trkpt>
      <trkpt lat="44.01227" lon="2.58764">
        <ele>382</ele>
        <time>2021-10-31T07:29:20.000Z</time>
      </trkpt>
      <trkpt lat="44.01226" lon="2.58765">
        <ele>382</ele>
        <time>2021-10-31T07:29:21.000Z</time>
      </trkpt>
      <trkpt lat="44.01226" lon="2.58767">
        <ele>382</ele>
        <time>2021-10-31T07:29:22.000Z</time>
      </trkpt>
      <trkpt lat="44.01226" lon="2.58768">
        <ele>382</ele>
        <time>2021-10-31T07:29:23.000Z</time>
      </trkpt>
      <trkpt lat="44.01225" lon="2.5877">
        <ele>382</ele>
        <time>2021-10-31T07:29:24.000Z</time>
      </trkpt>
      <trkpt lat="44.01225" lon="2.58772">
        <ele>382</ele>
        <time>2021-10-31T07:29:25.000Z</time>
      </trkpt>
      <trkpt lat="44.01224" lon="2.58773">
        <ele>382</ele>
        <time>2021-10-31T07:29:26.000Z</time>
      </trkpt>
      <trkpt lat="44.01224" lon="2.58775">
        <ele>382</ele>
        <time>2021-10-31T07:29:27.000Z</time>
      </trkpt>
      <trkpt lat="44.01223" lon="2.58776">
        <ele>382</ele>
        <time>2021-10-31T07:29:28.000Z</time>
      </trkpt>
      <trkpt lat="44.01223" lon="2.58778">
        <ele>381</ele>
        <time>2021-10-31T07:29:29.000Z</time>
      </trkpt>
      <trkpt lat="44.01222" lon="2.58779">
        <ele>381</ele>
        <time>2021-10-31T07:29:30.000Z</time>
      </trkpt>
      <trkpt lat="44.01222" lon="2.58781">
        <ele>381</ele>
        <time>2021-10-31T07:29:31.000Z</time>
      </trkpt>
      <trkpt lat="44.01221" lon="2.58782">
        <ele>381</ele>
        <time>2021-10-31T07:29:32.000Z</time>
      </trkpt>
      <trkpt lat="44.0122" lon="2.58784">
        <ele>380</ele>
        <time>2021-10-31T07:29:33.000Z</time>
      </trkpt>
      <trkpt lat="44.0122" lon="2.58785">
        <ele>380</ele>
        <time>2021-10-31T07:29:34.000Z</time>
      </trkpt>
      <trkpt lat="44.01219" lon="2.58786">
        <ele>380</ele>
        <time>2021-10-31T07:29:35.000Z</time>
      </trkpt>
      <trkpt lat="44.01218" lon="2.58787">
        <ele>380</ele>
        <time>2021-10-31T07:29:36.000Z</time>
      </trkpt>
      <trkpt lat="44.01218" lon="2.58788">
        <ele>380</ele>
        <time>2021-10-31T07:29:37.000Z</time>
      </trkpt>
      <trkpt lat="44.01217" lon="2.58789">
        <ele>380</ele>
        <time>2021-10-31T07:29:38.000Z</time>
      </trkpt>
      <trkpt lat="44.01217" lon="2.5879">
        <ele>380</ele>
        <time>2021-10-31T07:29:39.000Z</time>
      </trkpt>
      <trkpt lat="44.01217" lon="2.58791">
        <ele>380</ele>
        <time>2021-10-31T07:29:40.000Z</time>
      </trkpt>
      <trkpt lat="44.01216" lon="2.58793">
        <ele>380</ele>
        <time>2021-10-31T07:29:41.000Z</time>
      </trkpt>
      <trkpt lat="44.01216" lon="2.58794">
        <ele>380</ele>
        <time>2021-10-31T07:29:42.000Z</time>
      </trkpt>
      <trkpt lat="44.01215" lon="2.58795">
        <ele>380</ele>
        <time>2021-10-31T07:29:43.000Z</time>
      </trkpt>
      <trkpt lat="44.01214" lon="2.58796">
        <ele>380</ele>
        <time>2021-10-31T07:29:44.000Z</time>
      </trkpt>
      <trkpt lat="44.01213" lon="2.58797">
        <ele>380</ele>
        <time>2021-10-31T07:29:45.000Z</time>
      </trkpt>
      <trkpt lat="44.01212" lon="2.58798">
        <ele>380</ele>
        <time>2021-10-31T07:29:46.000Z</time>
      </trkpt>
      <trkpt lat="44.01211" lon="2.588">
        <ele>379</ele>
        <time>2021-10-31T07:29:47.000Z</time>
      </trkpt>
      <trkpt lat="44.0121" lon="2.588">
        <ele>379</ele>
        <time>2021-10-31T07:29:48.000Z</time>
      </trkpt>
      <trkpt lat="44.01209" lon="2.58801">
        <ele>379</ele>
        <time>2021-10-31T07:29:49.000Z</time>
      </trkpt>
      <trkpt lat="44.01208" lon="2.58802">
        <ele>379</ele>
        <time>2021-10-31T07:29:50.000Z</time>
      </trkpt>
      <trkpt lat="44.01207" lon="2.58803">
        <ele>379</ele>
        <time>2021-10-31T07:29:51.000Z</time>
      </trkpt>
      <trkpt lat="44.01206" lon="2.58804">
        <ele>379</ele>
        <time>2021-10-31T07:29:52.000Z</time>
      </trkpt>
      <trkpt lat="44.01205" lon="2.58804">
        <ele>379</ele>
        <time>2021-10-31T07:29:53.000Z</time>
      </trkpt>
      <trkpt lat="44.01204" lon="2.58805">
        <ele>379</ele>
        <time>2021-10-31T07:29:54.000Z</time>
      </trkpt>
      <trkpt lat="44.01203" lon="2.58805">
        <ele>379</ele>
        <time>2021-10-31T07:29:55.000Z</time>
      </trkpt>
      <trkpt lat="44.01202" lon="2.58805">
        <ele>379</ele>
        <time>2021-10-31T07:29:56.000Z</time>
      </trkpt>
      <trkpt lat="44.01201" lon="2.58806">
        <ele>379</ele>
        <time>2021-10-31T07:29:57.000Z</time>
      </trkpt>
      <trkpt lat="44.012" lon="2.58806">
        <ele>379</ele>
        <time>2021-10-31T07:29:58.000Z</time>
      </trkpt>
      <trkpt lat="44.01199" lon="2.58807">
        <ele>379</ele>
        <time>2021-10-31T07:29:59.000Z</time>
      </trkpt>
      <trkpt lat="44.01198" lon="2.58807">
        <ele>379</ele>
        <time>2021-10-31T07:30:00.000Z</time>
      </trkpt>
      <trkpt lat="44.01197" lon="2.58808">
        <ele>379</ele>
        <time>2021-10-31T07:30:01.000Z</time>
      </trkpt>
      <trkpt lat="44.01196" lon="2.58808">
        <ele>379</ele>
        <time>2021-10-31T07:30:02.000Z</time>
      </trkpt>
      <trkpt lat="44.01195" lon="2.58809">
        <ele>379</ele>
        <time>2021-10-31T07:30:03.000Z</time>
      </trkpt>
      <trkpt lat="44.01194" lon="2.58809">
        <ele>379</ele>
        <time>2021-10-31T07:30:04.000Z</time>
      </trkpt>
      <trkpt lat="44.01192" lon="2.5881">
        <ele>379</ele>
        <time>2021-10-31T07:30:05.000Z</time>
      </trkpt>
      <trkpt lat="44.01191" lon="2.5881">
        <ele>379</ele>
        <time>2021-10-31T07:30:06.000Z</time>
      </trkpt>
      <trkpt lat="44.0119" lon="2.58811">
        <ele>379</ele>
        <time>2021-10-31T07:30:07.000Z</time>
      </trkpt>
      <trkpt lat="44.01189" lon="2.58811">
        <ele>379</ele>
        <time>2021-10-31T07:30:08.000Z</time>
      </trkpt>
      <trkpt lat="44.01187" lon="2.58812">
        <ele>379</ele>
        <time>2021-10-31T07:30:09.000Z</time>
      </trkpt>
      <trkpt lat="44.01186" lon="2.58813">
        <ele>379</ele>
        <time>2021-10-31T07:30:10.000Z</time>
      </trkpt>
      <trkpt lat="44.01185" lon="2.58813">
        <ele>379</ele>
        <time>2021-10-31T07:30:11.000Z</time>
      </trkpt>
      <trkpt lat="44.01183" lon="2.58814">
        <ele>379</ele>
        <time>2021-10-31T07:30:12.000Z</time>
      </trkpt>
      <trkpt lat="44.01182" lon="2.58814">
        <ele>379</ele>
        <time>2021-10-31T07:30:13.000Z</time>
      </trkpt>
      <trkpt lat="44.01181" lon="2.58815">
        <ele>379</ele>
        <time>2021-10-31T07:30:14.000Z</time>
      </trkpt>
      <trkpt lat="44.0118" lon="2.58815">
        <ele>379</ele>
        <time>2021-10-31T07:30:15.000Z</time>
      </trkpt>
      <trkpt lat="44.01179" lon="2.58816">
        <ele>379</ele>
        <time>2021-10-31T07:30:16.000Z</time>
      </trkpt>
      <trkpt lat="44.01177" lon="2.58816">
        <ele>379</ele>
        <time>2021-10-31T07:30:17.000Z</time>
      </trkpt>
      <trkpt lat="44.01176" lon="2.58816">
        <ele>379</ele>
        <time>2021-10-31T07:30:18.000Z</time>
      </trkpt>
      <trkpt lat="44.01175" lon="2.58816">
        <ele>379</ele>
        <time>2021-10-31T07:30:19.000Z</time>
      </trkpt>
      <trkpt lat="44.01173" lon="2.58816">
        <ele>379</ele>
        <time>2021-10-31T07:30:20.000Z</time>
      </trkpt>
      <trkpt lat="44.01172" lon="2.58816">
        <ele>379</ele>
        <time>2021-10-31T07:30:21.000Z</time>
      </trkpt>
      <trkpt lat="44.01171" lon="2.58816">
        <ele>379</ele>
        <time>2021-10-31T07:30:22.000Z</time>
      </trkpt>
      <trkpt lat="44.0117" lon="2.58816">
        <ele>379</ele>
        <time>2021-10-31T07:30:23.000Z</time>
      </trkpt>
      <trkpt lat="44.01168" lon="2.58816">
        <ele>379</ele>
        <time>2021-10-31T07:30:24.000Z</time>
      </trkpt>
      <trkpt lat="44.01167" lon="2.58816">
        <ele>379</ele>
        <time>2021-10-31T07:30:25.000Z</time>
      </trkpt>
      <trkpt lat="44.01165" lon="2.58817">
        <ele>379</ele>
        <time>2021-10-31T07:30:26.000Z</time>
      </trkpt>
      <trkpt lat="44.01164" lon="2.58817">
        <ele>379</ele>
        <time>2021-10-31T07:30:27.000Z</time>
      </trkpt>
      <trkpt lat="44.01163" lon="2.58817">
        <ele>379</ele>
        <time>2021-10-31T07:30:28.000Z</time>
      </trkpt>
      <trkpt lat="44.01161" lon="2.58817">
        <ele>379</ele>
        <time>2021-10-31T07:30:29.000Z</time>
      </trkpt>
      <trkpt lat="44.01161" lon="2.58817">
        <ele>378</ele>
        <time>2021-10-31T07:30:30.000Z</time>
      </trkpt>
      <trkpt lat="44.0116" lon="2.58817">
        <ele>378</ele>
        <time>2021-10-31T07:30:31.000Z</time>
      </trkpt>
      <trkpt lat="44.01159" lon="2.58817">
        <ele>378</ele>
        <time>2021-10-31T07:30:32.000Z</time>
      </trkpt>
      <trkpt lat="44.01158" lon="2.58817">
        <ele>378</ele>
        <time>2021-10-31T07:30:33.000Z</time>
      </trkpt>
      <trkpt lat="44.01157" lon="2.58817">
        <ele>378</ele>
        <time>2021-10-31T07:30:34.000Z</time>
      </trkpt>
      <trkpt lat="44.01156" lon="2.58817">
        <ele>378</ele>
        <time>2021-10-31T07:30:35.000Z</time>
      </trkpt>
      <trkpt lat="44.01155" lon="2.58818">
        <ele>378</ele>
        <time>2021-10-31T07:30:36.000Z</time>
      </trkpt>
      <trkpt lat="44.01154" lon="2.58818">
        <ele>378</ele>
        <time>2021-10-31T07:30:37.000Z</time>
      </trkpt>
      <trkpt lat="44.01152" lon="2.58818">
        <ele>378</ele>
        <time>2021-10-31T07:30:38.000Z</time>
      </trkpt>
      <trkpt lat="44.0115" lon="2.58818">
        <ele>378</ele>
        <time>2021-10-31T07:30:39.000Z</time>
      </trkpt>
      <trkpt lat="44.01149" lon="2.58819">
        <ele>378</ele>
        <time>2021-10-31T07:30:40.000Z</time>
      </trkpt>
      <trkpt lat="44.01148" lon="2.58819">
        <ele>378</ele>
        <time>2021-10-31T07:30:41.000Z</time>
      </trkpt>
      <trkpt lat="44.01146" lon="2.58819">
        <ele>378</ele>
        <time>2021-10-31T07:30:42.000Z</time>
      </trkpt>
      <trkpt lat="44.01145" lon="2.5882">
        <ele>378</ele>
        <time>2021-10-31T07:30:43.000Z</time>
      </trkpt>
      <trkpt lat="44.01144" lon="2.5882">
        <ele>378</ele>
        <time>2021-10-31T07:30:44.000Z</time>
      </trkpt>
      <trkpt lat="44.01143" lon="2.5882">
        <ele>378</ele>
        <time>2021-10-31T07:30:45.000Z</time>
      </trkpt>
      <trkpt lat="44.01141" lon="2.5882">
        <ele>378</ele>
        <time>2021-10-31T07:30:46.000Z</time>
      </trkpt>
      <trkpt lat="44.0114" lon="2.58819">
        <ele>378</ele>
        <time>2021-10-31T07:30:47.000Z</time>
      </trkpt>
      <trkpt lat="44.01139" lon="2.58819">
        <ele>378</ele>
        <time>2021-10-31T07:30:48.000Z</time>
      </trkpt>
      <trkpt lat="44.01138" lon="2.58819">
        <ele>378</ele>
        <time>2021-10-31T07:30:49.000Z</time>
      </trkpt>
      <trkpt lat="44.01137" lon="2.5882">
        <ele>378</ele>
        <time>2021-10-31T07:30:50.000Z</time>
      </trkpt>
      <trkpt lat="44.01136" lon="2.5882">
        <ele>378</ele>
        <time>2021-10-31T07:30:51.000Z</time>
      </trkpt>
      <trkpt lat="44.01135" lon="2.5882">
        <ele>378</ele>
        <time>2021-10-31T07:30:52.000Z</time>
      </trkpt>
      <trkpt lat="44.01134" lon="2.5882">
        <ele>378</ele>
        <time>2021-10-31T07:30:53.000Z</time>
      </trkpt>
      <trkpt lat="44.01133" lon="2.5882">
        <ele>378</ele>
        <time>2021-10-31T07:30:54.000Z</time>
      </trkpt>
      <trkpt lat="44.01132" lon="2.5882">
        <ele>378</ele>
        <time>2021-10-31T07:30:55.000Z</time>
      </trkpt>
      <trkpt lat="44.01131" lon="2.5882">
        <ele>379</ele>
        <time>2021-10-31T07:30:56.000Z</time>
      </trkpt>
      <trkpt lat="44.01131" lon="2.5882">
        <ele>379</ele>
        <time>2021-10-31T07:30:57.000Z</time>
      </trkpt>
      <trkpt lat="44.0113" lon="2.5882">
        <ele>379</ele>
        <time>2021-10-31T07:30:58.000Z</time>
      </trkpt>
      <trkpt lat="44.01129" lon="2.5882">
        <ele>379</ele>
        <time>2021-10-31T07:30:59.000Z</time>
      </trkpt>
      <trkpt lat="44.01128" lon="2.5882">
        <ele>379</ele>
        <time>2021-10-31T07:31:00.000Z</time>
      </trkpt>
      <trkpt lat="44.01127" lon="2.5882">
        <ele>379</ele>
        <time>2021-10-31T07:31:01.000Z</time>
      </trkpt>
      <trkpt lat="44.01126" lon="2.5882">
        <ele>379</ele>
        <time>2021-10-31T07:31:02.000Z</time>
      </trkpt>
      <trkpt lat="44.01124" lon="2.5882">
        <ele>379</ele>
        <time>2021-10-31T07:31:03.000Z</time>
      </trkpt>
      <trkpt lat="44.01123" lon="2.5882">
        <ele>379</ele>
        <time>2021-10-31T07:31:04.000Z</time>
      </trkpt>
      <trkpt lat="44.01122" lon="2.5882">
        <ele>379</ele>
        <time>2021-10-31T07:31:05.000Z</time>
      </trkpt>
      <trkpt lat="44.01121" lon="2.5882">
        <ele>379</ele>
        <time>2021-10-31T07:31:06.000Z</time>
      </trkpt>
      <trkpt lat="44.01119" lon="2.58821">
        <ele>379</ele>
        <time>2021-10-31T07:31:07.000Z</time>
      </trkpt>
      <trkpt lat="44.01118" lon="2.58821">
        <ele>379</ele>
        <time>2021-10-31T07:31:08.000Z</time>
      </trkpt>
      <trkpt lat="44.01117" lon="2.58821">
        <ele>379</ele>
        <time>2021-10-31T07:31:09.000Z</time>
      </trkpt>
      <trkpt lat="44.01116" lon="2.58821">
        <ele>379</ele>
        <time>2021-10-31T07:31:10.000Z</time>
      </trkpt>
      <trkpt lat="44.01115" lon="2.58821">
        <ele>379</ele>
        <time>2021-10-31T07:31:11.000Z</time>
      </trkpt>
      <trkpt lat="44.01113" lon="2.58821">
        <ele>379</ele>
        <time>2021-10-31T07:31:12.000Z</time>
      </trkpt>
      <trkpt lat="44.01112" lon="2.58822">
        <ele>379</ele>
        <time>2021-10-31T07:31:13.000Z</time>
      </trkpt>
      <trkpt lat="44.01111" lon="2.58822">
        <ele>379</ele>
        <time>2021-10-31T07:31:14.000Z</time>
      </trkpt>
      <trkpt lat="44.01109" lon="2.58822">
        <ele>378</ele>
        <time>2021-10-31T07:31:15.000Z</time>
      </trkpt>
      <trkpt lat="44.01108" lon="2.58822">
        <ele>378</ele>
        <time>2021-10-31T07:31:16.000Z</time>
      </trkpt>
      <trkpt lat="44.01107" lon="2.58823">
        <ele>378</ele>
        <time>2021-10-31T07:31:17.000Z</time>
      </trkpt>
      <trkpt lat="44.01106" lon="2.58823">
        <ele>378</ele>
        <time>2021-10-31T07:31:18.000Z</time>
      </trkpt>
      <trkpt lat="44.01105" lon="2.58824">
        <ele>378</ele>
        <time>2021-10-31T07:31:19.000Z</time>
      </trkpt>
      <trkpt lat="44.01104" lon="2.58825">
        <ele>378</ele>
        <time>2021-10-31T07:31:20.000Z</time>
      </trkpt>
      <trkpt lat="44.01103" lon="2.58825">
        <ele>378</ele>
        <time>2021-10-31T07:31:21.000Z</time>
      </trkpt>
      <trkpt lat="44.01102" lon="2.58826">
        <ele>377</ele>
        <time>2021-10-31T07:31:22.000Z</time>
      </trkpt>
      <trkpt lat="44.01101" lon="2.58826">
        <ele>377</ele>
        <time>2021-10-31T07:31:23.000Z</time>
      </trkpt>
      <trkpt lat="44.01099" lon="2.58826">
        <ele>377</ele>
        <time>2021-10-31T07:31:24.000Z</time>
      </trkpt>
      <trkpt lat="44.01098" lon="2.58827">
        <ele>377</ele>
        <time>2021-10-31T07:31:25.000Z</time>
      </trkpt>
      <trkpt lat="44.01097" lon="2.58827">
        <ele>377</ele>
        <time>2021-10-31T07:31:26.000Z</time>
      </trkpt>
      <trkpt lat="44.01096" lon="2.58828">
        <ele>377</ele>
        <time>2021-10-31T07:31:27.000Z</time>
      </trkpt>
      <trkpt lat="44.01095" lon="2.58829">
        <ele>377</ele>
        <time>2021-10-31T07:31:28.000Z</time>
      </trkpt>
      <trkpt lat="44.01094" lon="2.58829">
        <ele>376</ele>
        <time>2021-10-31T07:31:29.000Z</time>
      </trkpt>
      <trkpt lat="44.01092" lon="2.5883">
        <ele>376</ele>
        <time>2021-10-31T07:31:30.000Z</time>
      </trkpt>
      <trkpt lat="44.01091" lon="2.5883">
        <ele>376</ele>
        <time>2021-10-31T07:31:31.000Z</time>
      </trkpt>
      <trkpt lat="44.0109" lon="2.58831">
        <ele>376</ele>
        <time>2021-10-31T07:31:32.000Z</time>
      </trkpt>
      <trkpt lat="44.01089" lon="2.58832">
        <ele>375</ele>
        <time>2021-10-31T07:31:33.000Z</time>
      </trkpt>
      <trkpt lat="44.01088" lon="2.58833">
        <ele>375</ele>
        <time>2021-10-31T07:31:34.000Z</time>
      </trkpt>
      <trkpt lat="44.01087" lon="2.58834">
        <ele>375</ele>
        <time>2021-10-31T07:31:35.000Z</time>
      </trkpt>
      <trkpt lat="44.01087" lon="2.58835">
        <ele>375</ele>
        <time>2021-10-31T07:31:36.000Z</time>
      </trkpt>
      <trkpt lat="44.01086" lon="2.58836">
        <ele>374</ele>
        <time>2021-10-31T07:31:37.000Z</time>
      </trkpt>
      <trkpt lat="44.01084" lon="2.58837">
        <ele>374</ele>
        <time>2021-10-31T07:31:38.000Z</time>
      </trkpt>
      <trkpt lat="44.01083" lon="2.58837">
        <ele>374</ele>
        <time>2021-10-31T07:31:39.000Z</time>
      </trkpt>
      <trkpt lat="44.01082" lon="2.58838">
        <ele>374</ele>
        <time>2021-10-31T07:31:40.000Z</time>
      </trkpt>
      <trkpt lat="44.01081" lon="2.58839">
        <ele>373</ele>
        <time>2021-10-31T07:31:41.000Z</time>
      </trkpt>
      <trkpt lat="44.0108" lon="2.5884">
        <ele>373</ele>
        <time>2021-10-31T07:31:42.000Z</time>
      </trkpt>
      <trkpt lat="44.01079" lon="2.58841">
        <ele>373</ele>
        <time>2021-10-31T07:31:43.000Z</time>
      </trkpt>
      <trkpt lat="44.01078" lon="2.58842">
        <ele>372</ele>
        <time>2021-10-31T07:31:44.000Z</time>
      </trkpt>
      <trkpt lat="44.01077" lon="2.58843">
        <ele>372</ele>
        <time>2021-10-31T07:31:45.000Z</time>
      </trkpt>
      <trkpt lat="44.01076" lon="2.58844">
        <ele>372</ele>
        <time>2021-10-31T07:31:46.000Z</time>
      </trkpt>
      <trkpt lat="44.01075" lon="2.58844">
        <ele>372</ele>
        <time>2021-10-31T07:31:47.000Z</time>
      </trkpt>
      <trkpt lat="44.01074" lon="2.58845">
        <ele>371</ele>
        <time>2021-10-31T07:31:48.000Z</time>
      </trkpt>
      <trkpt lat="44.01073" lon="2.58846">
        <ele>371</ele>
        <time>2021-10-31T07:31:49.000Z</time>
      </trkpt>
      <trkpt lat="44.01072" lon="2.58847">
        <ele>371</ele>
        <time>2021-10-31T07:31:50.000Z</time>
      </trkpt>
      <trkpt lat="44.01072" lon="2.58848">
        <ele>371</ele>
        <time>2021-10-31T07:31:51.000Z</time>
      </trkpt>
      <trkpt lat="44.01071" lon="2.58849">
        <ele>370</ele>
        <time>2021-10-31T07:31:52.000Z</time>
      </trkpt>
      <trkpt lat="44.01071" lon="2.5885">
        <ele>370</ele>
        <time>2021-10-31T07:31:53.000Z</time>
      </trkpt>
      <trkpt lat="44.0107" lon="2.58851">
        <ele>369</ele>
        <time>2021-10-31T07:31:54.000Z</time>
      </trkpt>
      <trkpt lat="44.0107" lon="2.58852">
        <ele>369</ele>
        <time>2021-10-31T07:31:55.000Z</time>
      </trkpt>
      <trkpt lat="44.0107" lon="2.58853">
        <ele>369</ele>
        <time>2021-10-31T07:31:56.000Z</time>
      </trkpt>
      <trkpt lat="44.0107" lon="2.58854">
        <ele>368</ele>
        <time>2021-10-31T07:31:57.000Z</time>
      </trkpt>
      <trkpt lat="44.0107" lon="2.58855">
        <ele>368</ele>
        <time>2021-10-31T07:31:58.000Z</time>
      </trkpt>
      <trkpt lat="44.01071" lon="2.58856">
        <ele>367</ele>
        <time>2021-10-31T07:31:59.000Z</time>
      </trkpt>
      <trkpt lat="44.01071" lon="2.58857">
        <ele>366</ele>
        <time>2021-10-31T07:32:00.000Z</time>
      </trkpt>
      <trkpt lat="44.01072" lon="2.58857">
        <ele>366</ele>
        <time>2021-10-31T07:32:01.000Z</time>
      </trkpt>
      <trkpt lat="44.01073" lon="2.58858">
        <ele>365</ele>
        <time>2021-10-31T07:32:02.000Z</time>
      </trkpt>
      <trkpt lat="44.01074" lon="2.58858">
        <ele>365</ele>
        <time>2021-10-31T07:32:03.000Z</time>
      </trkpt>
      <trkpt lat="44.01075" lon="2.58858">
        <ele>364</ele>
        <time>2021-10-31T07:32:04.000Z</time>
      </trkpt>
      <trkpt lat="44.01077" lon="2.58857">
        <ele>364</ele>
        <time>2021-10-31T07:32:05.000Z</time>
      </trkpt>
      <trkpt lat="44.01078" lon="2.58857">
        <ele>364</ele>
        <time>2021-10-31T07:32:06.000Z</time>
      </trkpt>
      <trkpt lat="44.01079" lon="2.58856">
        <ele>363</ele>
        <time>2021-10-31T07:32:07.000Z</time>
      </trkpt>
      <trkpt lat="44.0108" lon="2.58855">
        <ele>363</ele>
        <time>2021-10-31T07:32:08.000Z</time>
      </trkpt>
      <trkpt lat="44.01081" lon="2.58855">
        <ele>363</ele>
        <time>2021-10-31T07:32:09.000Z</time>
      </trkpt>
      <trkpt lat="44.01082" lon="2.58854">
        <ele>362</ele>
        <time>2021-10-31T07:32:10.000Z</time>
      </trkpt>
      <trkpt lat="44.01083" lon="2.58854">
        <ele>362</ele>
        <time>2021-10-31T07:32:11.000Z</time>
      </trkpt>
      <trkpt lat="44.01084" lon="2.58853">
        <ele>362</ele>
        <time>2021-10-31T07:32:12.000Z</time>
      </trkpt>
      <trkpt lat="44.01086" lon="2.58852">
        <ele>362</ele>
        <time>2021-10-31T07:32:13.000Z</time>
      </trkpt>
      <trkpt lat="44.01087" lon="2.58851">
        <ele>362</ele>
        <time>2021-10-31T07:32:14.000Z</time>
      </trkpt>
      <trkpt lat="44.01088" lon="2.5885">
        <ele>362</ele>
        <time>2021-10-31T07:32:15.000Z</time>
      </trkpt>
      <trkpt lat="44.01089" lon="2.5885">
        <ele>361</ele>
        <time>2021-10-31T07:32:16.000Z</time>
      </trkpt>
      <trkpt lat="44.0109" lon="2.58849">
        <ele>361</ele>
        <time>2021-10-31T07:32:17.000Z</time>
      </trkpt>
      <trkpt lat="44.01091" lon="2.58848">
        <ele>361</ele>
        <time>2021-10-31T07:32:18.000Z</time>
      </trkpt>
      <trkpt lat="44.01092" lon="2.58847">
        <ele>361</ele>
        <time>2021-10-31T07:32:19.000Z</time>
      </trkpt>
      <trkpt lat="44.01093" lon="2.58847">
        <ele>361</ele>
        <time>2021-10-31T07:32:20.000Z</time>
      </trkpt>
      <trkpt lat="44.01095" lon="2.58846">
        <ele>361</ele>
        <time>2021-10-31T07:32:21.000Z</time>
      </trkpt>
      <trkpt lat="44.01096" lon="2.58845">
        <ele>361</ele>
        <time>2021-10-31T07:32:22.000Z</time>
      </trkpt>
      <trkpt lat="44.01097" lon="2.58845">
        <ele>361</ele>
        <time>2021-10-31T07:32:23.000Z</time>
      </trkpt>
      <trkpt lat="44.01098" lon="2.58844">
        <ele>361</ele>
        <time>2021-10-31T07:32:24.000Z</time>
      </trkpt>
      <trkpt lat="44.01098" lon="2.58843">
        <ele>361</ele>
        <time>2021-10-31T07:32:25.000Z</time>
      </trkpt>
      <trkpt lat="44.01099" lon="2.58843">
        <ele>361</ele>
        <time>2021-10-31T07:32:26.000Z</time>
      </trkpt>
      <trkpt lat="44.011" lon="2.58842">
        <ele>361</ele>
        <time>2021-10-31T07:32:27.000Z</time>
      </trkpt>
      <trkpt lat="44.01101" lon="2.58841">
        <ele>361</ele>
        <time>2021-10-31T07:32:28.000Z</time>
      </trkpt>
      <trkpt lat="44.01103" lon="2.58841">
        <ele>361</ele>
        <time>2021-10-31T07:32:29.000Z</time>
      </trkpt>
      <trkpt lat="44.01104" lon="2.5884">
        <ele>361</ele>
        <time>2021-10-31T07:32:30.000Z</time>
      </trkpt>
      <trkpt lat="44.01105" lon="2.5884">
        <ele>361</ele>
        <time>2021-10-31T07:32:31.000Z</time>
      </trkpt>
      <trkpt lat="44.01106" lon="2.5884">
        <ele>361</ele>
        <time>2021-10-31T07:32:32.000Z</time>
      </trkpt>
      <trkpt lat="44.01107" lon="2.58839">
        <ele>361</ele>
        <time>2021-10-31T07:32:33.000Z</time>
      </trkpt>
      <trkpt lat="44.01107" lon="2.58839">
        <ele>361</ele>
        <time>2021-10-31T07:32:34.000Z</time>
      </trkpt>
      <trkpt lat="44.01108" lon="2.58838">
        <ele>361</ele>
        <time>2021-10-31T07:32:35.000Z</time>
      </trkpt>
      <trkpt lat="44.01109" lon="2.58838">
        <ele>361</ele>
        <time>2021-10-31T07:32:36.000Z</time>
      </trkpt>
      <trkpt lat="44.0111" lon="2.58837">
        <ele>361</ele>
        <time>2021-10-31T07:32:37.000Z</time>
      </trkpt>
      <trkpt lat="44.01111" lon="2.58837">
        <ele>361</ele>
        <time>2021-10-31T07:32:38.000Z</time>
      </trkpt>
      <trkpt lat="44.01111" lon="2.58837">
        <ele>362</ele>
        <time>2021-10-31T07:32:39.000Z</time>
      </trkpt>
      <trkpt lat="44.01112" lon="2.58836">
        <ele>362</ele>
        <time>2021-10-31T07:32:40.000Z</time>
      </trkpt>
      <trkpt lat="44.01112" lon="2.58836">
        <ele>362</ele>
        <time>2021-10-31T07:32:41.000Z</time>
      </trkpt>
      <trkpt lat="44.01112" lon="2.58836">
        <ele>362</ele>
        <time>2021-10-31T07:32:42.000Z</time>
      </trkpt>
      <trkpt lat="44.01112" lon="2.58836">
        <ele>362</ele>
        <time>2021-10-31T07:32:43.000Z</time>
      </trkpt>
      <trkpt lat="44.01113" lon="2.58836">
        <ele>362</ele>
        <time>2021-10-31T07:32:44.000Z</time>
      </trkpt>
      <trkpt lat="44.01114" lon="2.58836">
        <ele>362</ele>
        <time>2021-10-31T07:32:45.000Z</time>
      </trkpt>
      <trkpt lat="44.01115" lon="2.58836">
        <ele>362</ele>
        <time>2021-10-31T07:32:46.000Z</time>
      </trkpt>
      <trkpt lat="44.01116" lon="2.58836">
        <ele>362</ele>
        <time>2021-10-31T07:32:47.000Z</time>
      </trkpt>
      <trkpt lat="44.01116" lon="2.58836">
        <ele>363</ele>
        <time>2021-10-31T07:32:48.000Z</time>
      </trkpt>
      <trkpt lat="44.01117" lon="2.58836">
        <ele>363</ele>
        <time>2021-10-31T07:32:49.000Z</time>
      </trkpt>
      <trkpt lat="44.01117" lon="2.58837">
        <ele>363</ele>
        <time>2021-10-31T07:32:50.000Z</time>
      </trkpt>
      <trkpt lat="44.01118" lon="2.58837">
        <ele>363</ele>
        <time>2021-10-31T07:32:51.000Z</time>
      </trkpt>
      <trkpt lat="44.01118" lon="2.58837">
        <ele>363</ele>
        <time>2021-10-31T07:32:52.000Z</time>
      </trkpt>
      <trkpt lat="44.01118" lon="2.58837">
        <ele>363</ele>
        <time>2021-10-31T07:32:53.000Z</time>
      </trkpt>
      <trkpt lat="44.01119" lon="2.58837">
        <ele>364</ele>
        <time>2021-10-31T07:32:54.000Z</time>
      </trkpt>
      <trkpt lat="44.01119" lon="2.58838">
        <ele>364</ele>
        <time>2021-10-31T07:32:55.000Z</time>
      </trkpt>
      <trkpt lat="44.0112" lon="2.58838">
        <ele>364</ele>
        <time>2021-10-31T07:32:56.000Z</time>
      </trkpt>
      <trkpt lat="44.01121" lon="2.58839">
        <ele>364</ele>
        <time>2021-10-31T07:32:57.000Z</time>
      </trkpt>
      <trkpt lat="44.01122" lon="2.5884">
        <ele>364</ele>
        <time>2021-10-31T07:32:58.000Z</time>
      </trkpt>
      <trkpt lat="44.01122" lon="2.58841">
        <ele>364</ele>
        <time>2021-10-31T07:32:59.000Z</time>
      </trkpt>
      <trkpt lat="44.01123" lon="2.58842">
        <ele>364</ele>
        <time>2021-10-31T07:33:00.000Z</time>
      </trkpt>
      <trkpt lat="44.01124" lon="2.58843">
        <ele>364</ele>
        <time>2021-10-31T07:33:01.000Z</time>
      </trkpt>
      <trkpt lat="44.01126" lon="2.58844">
        <ele>364</ele>
        <time>2021-10-31T07:33:02.000Z</time>
      </trkpt>
      <trkpt lat="44.01126" lon="2.58845">
        <ele>364</ele>
        <time>2021-10-31T07:33:03.000Z</time>
      </trkpt>
      <trkpt lat="44.01128" lon="2.58846">
        <ele>364</ele>
        <time>2021-10-31T07:33:04.000Z</time>
      </trkpt>
      <trkpt lat="44.01129" lon="2.58847">
        <ele>364</ele>
        <time>2021-10-31T07:33:05.000Z</time>
      </trkpt>
      <trkpt lat="44.0113" lon="2.58848">
        <ele>364</ele>
        <time>2021-10-31T07:33:06.000Z</time>
      </trkpt>
      <trkpt lat="44.01131" lon="2.58849">
        <ele>363</ele>
        <time>2021-10-31T07:33:07.000Z</time>
      </trkpt>
      <trkpt lat="44.01132" lon="2.5885">
        <ele>363</ele>
        <time>2021-10-31T07:33:08.000Z</time>
      </trkpt>
      <trkpt lat="44.01133" lon="2.58851">
        <ele>363</ele>
        <time>2021-10-31T07:33:09.000Z</time>
      </trkpt>
      <trkpt lat="44.01135" lon="2.58853">
        <ele>363</ele>
        <time>2021-10-31T07:33:10.000Z</time>
      </trkpt>
      <trkpt lat="44.01136" lon="2.58854">
        <ele>362</ele>
        <time>2021-10-31T07:33:11.000Z</time>
      </trkpt>
      <trkpt lat="44.01137" lon="2.58855">
        <ele>362</ele>
        <time>2021-10-31T07:33:12.000Z</time>
      </trkpt>
      <trkpt lat="44.01138" lon="2.58856">
        <ele>361</ele>
        <time>2021-10-31T07:33:13.000Z</time>
      </trkpt>
      <trkpt lat="44.0114" lon="2.58857">
        <ele>361</ele>
        <time>2021-10-31T07:33:14.000Z</time>
      </trkpt>
      <trkpt lat="44.01141" lon="2.58858">
        <ele>361</ele>
        <time>2021-10-31T07:33:15.000Z</time>
      </trkpt>
      <trkpt lat="44.01142" lon="2.58859">
        <ele>361</ele>
        <time>2021-10-31T07:33:16.000Z</time>
      </trkpt>
      <trkpt lat="44.01143" lon="2.58859">
        <ele>360</ele>
        <time>2021-10-31T07:33:17.000Z</time>
      </trkpt>
      <trkpt lat="44.01144" lon="2.5886">
        <ele>360</ele>
        <time>2021-10-31T07:33:18.000Z</time>
      </trkpt>
      <trkpt lat="44.01145" lon="2.58861">
        <ele>360</ele>
        <time>2021-10-31T07:33:19.000Z</time>
      </trkpt>
      <trkpt lat="44.01146" lon="2.58861">
        <ele>360</ele>
        <time>2021-10-31T07:33:20.000Z</time>
      </trkpt>
      <trkpt lat="44.01147" lon="2.58862">
        <ele>359</ele>
        <time>2021-10-31T07:33:21.000Z</time>
      </trkpt>
      <trkpt lat="44.01148" lon="2.58862">
        <ele>359</ele>
        <time>2021-10-31T07:33:22.000Z</time>
      </trkpt>
      <trkpt lat="44.01149" lon="2.58863">
        <ele>359</ele>
        <time>2021-10-31T07:33:23.000Z</time>
      </trkpt>
      <trkpt lat="44.0115" lon="2.58863">
        <ele>359</ele>
        <time>2021-10-31T07:33:24.000Z</time>
      </trkpt>
      <trkpt lat="44.01152" lon="2.58864">
        <ele>359</ele>
        <time>2021-10-31T07:33:25.000Z</time>
      </trkpt>
      <trkpt lat="44.01153" lon="2.58864">
        <ele>358</ele>
        <time>2021-10-31T07:33:26.000Z</time>
      </trkpt>
      <trkpt lat="44.01154" lon="2.58865">
        <ele>358</ele>
        <time>2021-10-31T07:33:27.000Z</time>
      </trkpt>
      <trkpt lat="44.01156" lon="2.58865">
        <ele>358</ele>
        <time>2021-10-31T07:33:28.000Z</time>
      </trkpt>
      <trkpt lat="44.01157" lon="2.58865">
        <ele>358</ele>
        <time>2021-10-31T07:33:29.000Z</time>
      </trkpt>
      <trkpt lat="44.01159" lon="2.58866">
        <ele>358</ele>
        <time>2021-10-31T07:33:30.000Z</time>
      </trkpt>
      <trkpt lat="44.0116" lon="2.58866">
        <ele>358</ele>
        <time>2021-10-31T07:33:31.000Z</time>
      </trkpt>
      <trkpt lat="44.01161" lon="2.58866">
        <ele>357</ele>
        <time>2021-10-31T07:33:32.000Z</time>
      </trkpt>
      <trkpt lat="44.01162" lon="2.58866">
        <ele>357</ele>
        <time>2021-10-31T07:33:33.000Z</time>
      </trkpt>
      <trkpt lat="44.01163" lon="2.58866">
        <ele>357</ele>
        <time>2021-10-31T07:33:34.000Z</time>
      </trkpt>
      <trkpt lat="44.01164" lon="2.58866">
        <ele>357</ele>
        <time>2021-10-31T07:33:35.000Z</time>
      </trkpt>
      <trkpt lat="44.01166" lon="2.58866">
        <ele>357</ele>
        <time>2021-10-31T07:33:36.000Z</time>
      </trkpt>
      <trkpt lat="44.01167" lon="2.58866">
        <ele>357</ele>
        <time>2021-10-31T07:33:37.000Z</time>
      </trkpt>
      <trkpt lat="44.01168" lon="2.58866">
        <ele>357</ele>
        <time>2021-10-31T07:33:38.000Z</time>
      </trkpt>
      <trkpt lat="44.01169" lon="2.58866">
        <ele>357</ele>
        <time>2021-10-31T07:33:39.000Z</time>
      </trkpt>
      <trkpt lat="44.0117" lon="2.58866">
        <ele>356</ele>
        <time>2021-10-31T07:33:40.000Z</time>
      </trkpt>
      <trkpt lat="44.01171" lon="2.58866">
        <ele>356</ele>
        <time>2021-10-31T07:33:41.000Z</time>
      </trkpt>
      <trkpt lat="44.01173" lon="2.58866">
        <ele>356</ele>
        <time>2021-10-31T07:33:42.000Z</time>
      </trkpt>
      <trkpt lat="44.01174" lon="2.58866">
        <ele>357</ele>
        <time>2021-10-31T07:33:43.000Z</time>
      </trkpt>
      <trkpt lat="44.01175" lon="2.58866">
        <ele>357</ele>
        <time>2021-10-31T07:33:44.000Z</time>
      </trkpt>
      <trkpt lat="44.01176" lon="2.58865">
        <ele>357</ele>
        <time>2021-10-31T07:33:45.000Z</time>
      </trkpt>
      <trkpt lat="44.01178" lon="2.58865">
        <ele>357</ele>
        <time>2021-10-31T07:33:46.000Z</time>
      </trkpt>
      <trkpt lat="44.01179" lon="2.58864">
        <ele>357</ele>
        <time>2021-10-31T07:33:47.000Z</time>
      </trkpt>
      <trkpt lat="44.0118" lon="2.58864">
        <ele>357</ele>
        <time>2021-10-31T07:33:48.000Z</time>
      </trkpt>
      <trkpt lat="44.01181" lon="2.58865">
        <ele>357</ele>
        <time>2021-10-31T07:33:49.000Z</time>
      </trkpt>
      <trkpt lat="44.01182" lon="2.58865">
        <ele>356</ele>
        <time>2021-10-31T07:33:50.000Z</time>
      </trkpt>
      <trkpt lat="44.01183" lon="2.58864">
        <ele>356</ele>
        <time>2021-10-31T07:33:51.000Z</time>
      </trkpt>
      <trkpt lat="44.01184" lon="2.58864">
        <ele>356</ele>
        <time>2021-10-31T07:33:52.000Z</time>
      </trkpt>
      <trkpt lat="44.01185" lon="2.58864">
        <ele>356</ele>
        <time>2021-10-31T07:33:53.000Z</time>
      </trkpt>
      <trkpt lat="44.01186" lon="2.58864">
        <ele>356</ele>
        <time>2021-10-31T07:33:54.000Z</time>
      </trkpt>
      <trkpt lat="44.01187" lon="2.58864">
        <ele>355</ele>
        <time>2021-10-31T07:33:55.000Z</time>
      </trkpt>
      <trkpt lat="44.01188" lon="2.58864">
        <ele>355</ele>
        <time>2021-10-31T07:33:56.000Z</time>
      </trkpt>
      <trkpt lat="44.01189" lon="2.58864">
        <ele>355</ele>
        <time>2021-10-31T07:33:57.000Z</time>
      </trkpt>
      <trkpt lat="44.01191" lon="2.58864">
        <ele>355</ele>
        <time>2021-10-31T07:33:58.000Z</time>
      </trkpt>
      <trkpt lat="44.01192" lon="2.58865">
        <ele>355</ele>
        <time>2021-10-31T07:33:59.000Z</time>
      </trkpt>
      <trkpt lat="44.01193" lon="2.58865">
        <ele>354</ele>
        <time>2021-10-31T07:34:00.000Z</time>
      </trkpt>
      <trkpt lat="44.01195" lon="2.58865">
        <ele>354</ele>
        <time>2021-10-31T07:34:01.000Z</time>
      </trkpt>
      <trkpt lat="44.01196" lon="2.58865">
        <ele>354</ele>
        <time>2021-10-31T07:34:02.000Z</time>
      </trkpt>
      <trkpt lat="44.01197" lon="2.58865">
        <ele>354</ele>
        <time>2021-10-31T07:34:03.000Z</time>
      </trkpt>
      <trkpt lat="44.01197" lon="2.58865">
        <ele>354</ele>
        <time>2021-10-31T07:34:04.000Z</time>
      </trkpt>
      <trkpt lat="44.01198" lon="2.58865">
        <ele>354</ele>
        <time>2021-10-31T07:34:05.000Z</time>
      </trkpt>
      <trkpt lat="44.01199" lon="2.58865">
        <ele>354</ele>
        <time>2021-10-31T07:34:06.000Z</time>
      </trkpt>
      <trkpt lat="44.01199" lon="2.58865">
        <ele>353</ele>
        <time>2021-10-31T07:34:07.000Z</time>
      </trkpt>
      <trkpt lat="44.012" lon="2.58865">
        <ele>353</ele>
        <time>2021-10-31T07:34:08.000Z</time>
      </trkpt>
      <trkpt lat="44.01201" lon="2.58866">
        <ele>353</ele>
        <time>2021-10-31T07:34:09.000Z</time>
      </trkpt>
      <trkpt lat="44.01202" lon="2.58866">
        <ele>353</ele>
        <time>2021-10-31T07:34:10.000Z</time>
      </trkpt>
      <trkpt lat="44.01203" lon="2.58866">
        <ele>353</ele>
        <time>2021-10-31T07:34:11.000Z</time>
      </trkpt>
      <trkpt lat="44.01204" lon="2.58866">
        <ele>353</ele>
        <time>2021-10-31T07:34:12.000Z</time>
      </trkpt>
      <trkpt lat="44.01205" lon="2.58866">
        <ele>353</ele>
        <time>2021-10-31T07:34:13.000Z</time>
      </trkpt>
      <trkpt lat="44.01207" lon="2.58866">
        <ele>352</ele>
        <time>2021-10-31T07:34:14.000Z</time>
      </trkpt>
      <trkpt lat="44.01208" lon="2.58866">
        <ele>352</ele>
        <time>2021-10-31T07:34:15.000Z</time>
      </trkpt>
      <trkpt lat="44.01209" lon="2.58867">
        <ele>352</ele>
        <time>2021-10-31T07:34:16.000Z</time>
      </trkpt>
      <trkpt lat="44.0121" lon="2.58867">
        <ele>352</ele>
        <time>2021-10-31T07:34:17.000Z</time>
      </trkpt>
      <trkpt lat="44.01211" lon="2.58867">
        <ele>352</ele>
        <time>2021-10-31T07:34:18.000Z</time>
      </trkpt>
      <trkpt lat="44.01212" lon="2.58867">
        <ele>352</ele>
        <time>2021-10-31T07:34:19.000Z</time>
      </trkpt>
      <trkpt lat="44.01213" lon="2.58868">
        <ele>352</ele>
        <time>2021-10-31T07:34:20.000Z</time>
      </trkpt>
      <trkpt lat="44.01214" lon="2.58868">
        <ele>352</ele>
        <time>2021-10-31T07:34:21.000Z</time>
      </trkpt>
      <trkpt lat="44.01215" lon="2.58867">
        <ele>352</ele>
        <time>2021-10-31T07:34:22.000Z</time>
      </trkpt>
      <trkpt lat="44.01217" lon="2.58867">
        <ele>352</ele>
        <time>2021-10-31T07:34:23.000Z</time>
      </trkpt>
      <trkpt lat="44.01218" lon="2.58867">
        <ele>351</ele>
        <time>2021-10-31T07:34:24.000Z</time>
      </trkpt>
      <trkpt lat="44.01219" lon="2.58867">
        <ele>351</ele>
        <time>2021-10-31T07:34:25.000Z</time>
      </trkpt>
      <trkpt lat="44.0122" lon="2.58868">
        <ele>351</ele>
        <time>2021-10-31T07:34:26.000Z</time>
      </trkpt>
      <trkpt lat="44.01222" lon="2.58868">
        <ele>351</ele>
        <time>2021-10-31T07:34:27.000Z</time>
      </trkpt>
      <trkpt lat="44.01223" lon="2.58868">
        <ele>351</ele>
        <time>2021-10-31T07:34:28.000Z</time>
      </trkpt>
      <trkpt lat="44.01224" lon="2.58868">
        <ele>351</ele>
        <time>2021-10-31T07:34:29.000Z</time>
      </trkpt>
      <trkpt lat="44.01225" lon="2.58868">
        <ele>351</ele>
        <time>2021-10-31T07:34:30.000Z</time>
      </trkpt>
      <trkpt lat="44.01226" lon="2.58867">
        <ele>351</ele>
        <time>2021-10-31T07:34:31.000Z</time>
      </trkpt>
      <trkpt lat="44.01227" lon="2.58867">
        <ele>351</ele>
        <time>2021-10-31T07:34:32.000Z</time>
      </trkpt>
      <trkpt lat="44.01229" lon="2.58867">
        <ele>351</ele>
        <time>2021-10-31T07:34:33.000Z</time>
      </trkpt>
      <trkpt lat="44.0123" lon="2.58867">
        <ele>351</ele>
        <time>2021-10-31T07:34:34.000Z</time>
      </trkpt>
      <trkpt lat="44.01231" lon="2.58867">
        <ele>351</ele>
        <time>2021-10-31T07:34:35.000Z</time>
      </trkpt>
      <trkpt lat="44.01233" lon="2.58867">
        <ele>351</ele>
        <time>2021-10-31T07:34:36.000Z</time>
      </trkpt>
      <trkpt lat="44.01234" lon="2.58867">
        <ele>351</ele>
        <time>2021-10-31T07:34:37.000Z</time>
      </trkpt>
      <trkpt lat="44.01235" lon="2.58867">
        <ele>351</ele>
        <time>2021-10-31T07:34:38.000Z</time>
      </trkpt>
      <trkpt lat="44.01236" lon="2.58867">
        <ele>351</ele>
        <time>2021-10-31T07:34:39.000Z</time>
      </trkpt>
      <trkpt lat="44.01238" lon="2.58867">
        <ele>351</ele>
        <time>2021-10-31T07:34:40.000Z</time>
      </trkpt>
      <trkpt lat="44.01239" lon="2.58867">
        <ele>350</ele>
        <time>2021-10-31T07:34:41.000Z</time>
      </trkpt>
      <trkpt lat="44.0124" lon="2.58867">
        <ele>350</ele>
        <time>2021-10-31T07:34:42.000Z</time>
      </trkpt>
      <trkpt lat="44.01242" lon="2.58866">
        <ele>350</ele>
        <time>2021-10-31T07:34:43.000Z</time>
      </trkpt>
      <trkpt lat="44.01243" lon="2.58866">
        <ele>350</ele>
        <time>2021-10-31T07:34:44.000Z</time>
      </trkpt>
      <trkpt lat="44.01244" lon="2.58866">
        <ele>350</ele>
        <time>2021-10-31T07:34:45.000Z</time>
      </trkpt>
      <trkpt lat="44.01246" lon="2.58866">
        <ele>350</ele>
        <time>2021-10-31T07:34:46.000Z</time>
      </trkpt>
      <trkpt lat="44.01247" lon="2.58865">
        <ele>350</ele>
        <time>2021-10-31T07:34:47.000Z</time>
      </trkpt>
      <trkpt lat="44.01248" lon="2.58865">
        <ele>350</ele>
        <time>2021-10-31T07:34:48.000Z</time>
      </trkpt>
      <trkpt lat="44.01249" lon="2.58864">
        <ele>349</ele>
        <time>2021-10-31T07:34:49.000Z</time>
      </trkpt>
      <trkpt lat="44.0125" lon="2.58864">
        <ele>349</ele>
        <time>2021-10-31T07:34:50.000Z</time>
      </trkpt>
      <trkpt lat="44.01252" lon="2.58863">
        <ele>349</ele>
        <time>2021-10-31T07:34:51.000Z</time>
      </trkpt>
      <trkpt lat="44.01253" lon="2.58863">
        <ele>349</ele>
        <time>2021-10-31T07:34:52.000Z</time>
      </trkpt>
      <trkpt lat="44.01254" lon="2.58862">
        <ele>349</ele>
        <time>2021-10-31T07:34:53.000Z</time>
      </trkpt>
      <trkpt lat="44.01255" lon="2.58862">
        <ele>349</ele>
        <time>2021-10-31T07:34:54.000Z</time>
      </trkpt>
      <trkpt lat="44.01255" lon="2.58862">
        <ele>349</ele>
        <time>2021-10-31T07:34:55.000Z</time>
      </trkpt>
      <trkpt lat="44.01256" lon="2.58861">
        <ele>349</ele>
        <time>2021-10-31T07:34:56.000Z</time>
      </trkpt>
      <trkpt lat="44.01257" lon="2.58861">
        <ele>349</ele>
        <time>2021-10-31T07:34:57.000Z</time>
      </trkpt>
      <trkpt lat="44.01258" lon="2.5886">
        <ele>349</ele>
        <time>2021-10-31T07:34:58.000Z</time>
      </trkpt>
      <trkpt lat="44.01259" lon="2.5886">
        <ele>349</ele>
        <time>2021-10-31T07:34:59.000Z</time>
      </trkpt>
      <trkpt lat="44.0126" lon="2.58859">
        <ele>349</ele>
        <time>2021-10-31T07:35:00.000Z</time>
      </trkpt>
      <trkpt lat="44.01261" lon="2.58858">
        <ele>349</ele>
        <time>2021-10-31T07:35:01.000Z</time>
      </trkpt>
      <trkpt lat="44.01262" lon="2.58857">
        <ele>348</ele>
        <time>2021-10-31T07:35:02.000Z</time>
      </trkpt>
      <trkpt lat="44.01263" lon="2.58856">
        <ele>348</ele>
        <time>2021-10-31T07:35:03.000Z</time>
      </trkpt>
      <trkpt lat="44.01264" lon="2.58855">
        <ele>348</ele>
        <time>2021-10-31T07:35:04.000Z</time>
      </trkpt>
      <trkpt lat="44.01264" lon="2.58854">
        <ele>348</ele>
        <time>2021-10-31T07:35:05.000Z</time>
      </trkpt>
      <trkpt lat="44.01265" lon="2.58853">
        <ele>348</ele>
        <time>2021-10-31T07:35:06.000Z</time>
      </trkpt>
      <trkpt lat="44.01266" lon="2.58852">
        <ele>348</ele>
        <time>2021-10-31T07:35:07.000Z</time>
      </trkpt>
      <trkpt lat="44.01267" lon="2.58851">
        <ele>348</ele>
        <time>2021-10-31T07:35:08.000Z</time>
      </trkpt>
      <trkpt lat="44.01267" lon="2.5885">
        <ele>348</ele>
        <time>2021-10-31T07:35:09.000Z</time>
      </trkpt>
      <trkpt lat="44.01268" lon="2.58849">
        <ele>348</ele>
        <time>2021-10-31T07:35:10.000Z</time>
      </trkpt>
      <trkpt lat="44.01269" lon="2.58848">
        <ele>348</ele>
        <time>2021-10-31T07:35:11.000Z</time>
      </trkpt>
      <trkpt lat="44.01269" lon="2.58847">
        <ele>348</ele>
        <time>2021-10-31T07:35:12.000Z</time>
      </trkpt>
      <trkpt lat="44.0127" lon="2.58847">
        <ele>348</ele>
        <time>2021-10-31T07:35:13.000Z</time>
      </trkpt>
      <trkpt lat="44.01271" lon="2.58846">
        <ele>348</ele>
        <time>2021-10-31T07:35:14.000Z</time>
      </trkpt>
      <trkpt lat="44.01271" lon="2.58845">
        <ele>348</ele>
        <time>2021-10-31T07:35:15.000Z</time>
      </trkpt>
      <trkpt lat="44.01272" lon="2.58844">
        <ele>348</ele>
        <time>2021-10-31T07:35:16.000Z</time>
      </trkpt>
      <trkpt lat="44.01272" lon="2.58843">
        <ele>348</ele>
        <time>2021-10-31T07:35:17.000Z</time>
      </trkpt>
      <trkpt lat="44.01273" lon="2.58842">
        <ele>348</ele>
        <time>2021-10-31T07:35:18.000Z</time>
      </trkpt>
      <trkpt lat="44.01273" lon="2.58841">
        <ele>348</ele>
        <time>2021-10-31T07:35:19.000Z</time>
      </trkpt>
      <trkpt lat="44.01274" lon="2.5884">
        <ele>348</ele>
        <time>2021-10-31T07:35:20.000Z</time>
      </trkpt>
      <trkpt lat="44.01275" lon="2.5884">
        <ele>348</ele>
        <time>2021-10-31T07:35:21.000Z</time>
      </trkpt>
      <trkpt lat="44.01275" lon="2.58839">
        <ele>348</ele>
        <time>2021-10-31T07:35:22.000Z</time>
      </trkpt>
      <trkpt lat="44.01276" lon="2.58838">
        <ele>348</ele>
        <time>2021-10-31T07:35:23.000Z</time>
      </trkpt>
      <trkpt lat="44.01277" lon="2.58837">
        <ele>348</ele>
        <time>2021-10-31T07:35:24.000Z</time>
      </trkpt>
      <trkpt lat="44.01277" lon="2.58837">
        <ele>348</ele>
        <time>2021-10-31T07:35:25.000Z</time>
      </trkpt>
      <trkpt lat="44.01278" lon="2.58836">
        <ele>348</ele>
        <time>2021-10-31T07:35:26.000Z</time>
      </trkpt>
      <trkpt lat="44.01279" lon="2.58836">
        <ele>348</ele>
        <time>2021-10-31T07:35:27.000Z</time>
      </trkpt>
      <trkpt lat="44.0128" lon="2.58836">
        <ele>348</ele>
        <time>2021-10-31T07:35:28.000Z</time>
      </trkpt>
      <trkpt lat="44.01281" lon="2.58836">
        <ele>348</ele>
        <time>2021-10-31T07:35:29.000Z</time>
      </trkpt>
      <trkpt lat="44.01282" lon="2.58836">
        <ele>348</ele>
        <time>2021-10-31T07:35:30.000Z</time>
      </trkpt>
      <trkpt lat="44.01284" lon="2.58836">
        <ele>348</ele>
        <time>2021-10-31T07:35:31.000Z</time>
      </trkpt>
      <trkpt lat="44.01285" lon="2.58836">
        <ele>348</ele>
        <time>2021-10-31T07:35:32.000Z</time>
      </trkpt>
      <trkpt lat="44.01286" lon="2.58837">
        <ele>348</ele>
        <time>2021-10-31T07:35:33.000Z</time>
      </trkpt>
      <trkpt lat="44.01288" lon="2.58837">
        <ele>348</ele>
        <time>2021-10-31T07:35:34.000Z</time>
      </trkpt>
      <trkpt lat="44.01289" lon="2.58838">
        <ele>349</ele>
        <time>2021-10-31T07:35:35.000Z</time>
      </trkpt>
      <trkpt lat="44.0129" lon="2.58838">
        <ele>349</ele>
        <time>2021-10-31T07:35:36.000Z</time>
      </trkpt>
      <trkpt lat="44.01291" lon="2.58839">
        <ele>349</ele>
        <time>2021-10-31T07:35:37.000Z</time>
      </trkpt>
      <trkpt lat="44.01292" lon="2.5884">
        <ele>349</ele>
        <time>2021-10-31T07:35:38.000Z</time>
      </trkpt>
      <trkpt lat="44.01293" lon="2.58842">
        <ele>349</ele>
        <time>2021-10-31T07:35:39.000Z</time>
      </trkpt>
      <trkpt lat="44.01293" lon="2.58843">
        <ele>349</ele>
        <time>2021-10-31T07:35:40.000Z</time>
      </trkpt>
      <trkpt lat="44.01294" lon="2.58844">
        <ele>349</ele>
        <time>2021-10-31T07:35:41.000Z</time>
      </trkpt>
      <trkpt lat="44.01294" lon="2.58846">
        <ele>349</ele>
        <time>2021-10-31T07:35:42.000Z</time>
      </trkpt>
      <trkpt lat="44.01293" lon="2.58847">
        <ele>349</ele>
        <time>2021-10-31T07:35:43.000Z</time>
      </trkpt>
      <trkpt lat="44.01293" lon="2.58849">
        <ele>349</ele>
        <time>2021-10-31T07:35:44.000Z</time>
      </trkpt>
      <trkpt lat="44.01292" lon="2.5885">
        <ele>349</ele>
        <time>2021-10-31T07:35:45.000Z</time>
      </trkpt>
      <trkpt lat="44.01291" lon="2.58851">
        <ele>349</ele>
        <time>2021-10-31T07:35:46.000Z</time>
      </trkpt>
      <trkpt lat="44.01291" lon="2.58853">
        <ele>349</ele>
        <time>2021-10-31T07:35:47.000Z</time>
      </trkpt>
      <trkpt lat="44.0129" lon="2.58854">
        <ele>348</ele>
        <time>2021-10-31T07:35:48.000Z</time>
      </trkpt>
      <trkpt lat="44.01289" lon="2.58855">
        <ele>348</ele>
        <time>2021-10-31T07:35:49.000Z</time>
      </trkpt>
      <trkpt lat="44.01288" lon="2.58856">
        <ele>348</ele>
        <time>2021-10-31T07:35:50.000Z</time>
      </trkpt>
      <trkpt lat="44.01287" lon="2.58857">
        <ele>348</ele>
        <time>2021-10-31T07:35:51.000Z</time>
      </trkpt>
      <trkpt lat="44.01286" lon="2.58858">
        <ele>347</ele>
        <time>2021-10-31T07:35:52.000Z</time>
      </trkpt>
      <trkpt lat="44.01285" lon="2.58859">
        <ele>347</ele>
        <time>2021-10-31T07:35:53.000Z</time>
      </trkpt>
      <trkpt lat="44.01284" lon="2.5886">
        <ele>347</ele>
        <time>2021-10-31T07:35:54.000Z</time>
      </trkpt>
      <trkpt lat="44.01284" lon="2.58861">
        <ele>347</ele>
        <time>2021-10-31T07:35:55.000Z</time>
      </trkpt>
      <trkpt lat="44.01283" lon="2.58861">
        <ele>346</ele>
        <time>2021-10-31T07:35:56.000Z</time>
      </trkpt>
      <trkpt lat="44.01282" lon="2.58862">
        <ele>346</ele>
        <time>2021-10-31T07:35:57.000Z</time>
      </trkpt>
      <trkpt lat="44.01281" lon="2.58863">
        <ele>346</ele>
        <time>2021-10-31T07:35:58.000Z</time>
      </trkpt>
      <trkpt lat="44.0128" lon="2.58864">
        <ele>346</ele>
        <time>2021-10-31T07:35:59.000Z</time>
      </trkpt>
      <trkpt lat="44.01279" lon="2.58865">
        <ele>345</ele>
        <time>2021-10-31T07:36:00.000Z</time>
      </trkpt>
      <trkpt lat="44.01278" lon="2.58866">
        <ele>345</ele>
        <time>2021-10-31T07:36:01.000Z</time>
      </trkpt>
      <trkpt lat="44.01278" lon="2.58866">
        <ele>345</ele>
        <time>2021-10-31T07:36:02.000Z</time>
      </trkpt>
      <trkpt lat="44.01277" lon="2.58867">
        <ele>345</ele>
        <time>2021-10-31T07:36:03.000Z</time>
      </trkpt>
      <trkpt lat="44.01276" lon="2.58868">
        <ele>345</ele>
        <time>2021-10-31T07:36:04.000Z</time>
      </trkpt>
      <trkpt lat="44.01274" lon="2.5887">
        <ele>345</ele>
        <time>2021-10-31T07:36:05.000Z</time>
      </trkpt>
      <trkpt lat="44.01274" lon="2.58871">
        <ele>344</ele>
        <time>2021-10-31T07:36:06.000Z</time>
      </trkpt>
      <trkpt lat="44.01273" lon="2.58872">
        <ele>344</ele>
        <time>2021-10-31T07:36:07.000Z</time>
      </trkpt>
      <trkpt lat="44.01272" lon="2.58873">
        <ele>344</ele>
        <time>2021-10-31T07:36:08.000Z</time>
      </trkpt>
      <trkpt lat="44.01271" lon="2.58873">
        <ele>344</ele>
        <time>2021-10-31T07:36:09.000Z</time>
      </trkpt>
      <trkpt lat="44.0127" lon="2.58874">
        <ele>344</ele>
        <time>2021-10-31T07:36:10.000Z</time>
      </trkpt>
      <trkpt lat="44.01269" lon="2.58875">
        <ele>343</ele>
        <time>2021-10-31T07:36:11.000Z</time>
      </trkpt>
      <trkpt lat="44.01268" lon="2.58876">
        <ele>343</ele>
        <time>2021-10-31T07:36:12.000Z</time>
      </trkpt>
      <trkpt lat="44.01267" lon="2.58877">
        <ele>343</ele>
        <time>2021-10-31T07:36:13.000Z</time>
      </trkpt>
      <trkpt lat="44.01267" lon="2.58878">
        <ele>343</ele>
        <time>2021-10-31T07:36:14.000Z</time>
      </trkpt>
      <trkpt lat="44.01266" lon="2.58878">
        <ele>343</ele>
        <time>2021-10-31T07:36:15.000Z</time>
      </trkpt>
      <trkpt lat="44.01265" lon="2.58879">
        <ele>342</ele>
        <time>2021-10-31T07:36:16.000Z</time>
      </trkpt>
      <trkpt lat="44.01264" lon="2.5888">
        <ele>342</ele>
        <time>2021-10-31T07:36:17.000Z</time>
      </trkpt>
      <trkpt lat="44.01264" lon="2.58881">
        <ele>342</ele>
        <time>2021-10-31T07:36:18.000Z</time>
      </trkpt>
      <trkpt lat="44.01263" lon="2.58883">
        <ele>342</ele>
        <time>2021-10-31T07:36:19.000Z</time>
      </trkpt>
      <trkpt lat="44.01262" lon="2.58883">
        <ele>341</ele>
        <time>2021-10-31T07:36:20.000Z</time>
      </trkpt>
      <trkpt lat="44.01262" lon="2.58884">
        <ele>341</ele>
        <time>2021-10-31T07:36:21.000Z</time>
      </trkpt>
      <trkpt lat="44.01261" lon="2.58885">
        <ele>341</ele>
        <time>2021-10-31T07:36:22.000Z</time>
      </trkpt>
      <trkpt lat="44.0126" lon="2.58886">
        <ele>340</ele>
        <time>2021-10-31T07:36:23.000Z</time>
      </trkpt>
      <trkpt lat="44.0126" lon="2.58887">
        <ele>340</ele>
        <time>2021-10-31T07:36:24.000Z</time>
      </trkpt>
      <trkpt lat="44.01259" lon="2.58888">
        <ele>340</ele>
        <time>2021-10-31T07:36:25.000Z</time>
      </trkpt>
      <trkpt lat="44.01258" lon="2.58889">
        <ele>340</ele>
        <time>2021-10-31T07:36:26.000Z</time>
      </trkpt>
      <trkpt lat="44.01258" lon="2.5889">
        <ele>339</ele>
        <time>2021-10-31T07:36:27.000Z</time>
      </trkpt>
      <trkpt lat="44.01257" lon="2.58891">
        <ele>339</ele>
        <time>2021-10-31T07:36:28.000Z</time>
      </trkpt>
      <trkpt lat="44.01256" lon="2.58893">
        <ele>339</ele>
        <time>2021-10-31T07:36:29.000Z</time>
      </trkpt>
      <trkpt lat="44.01256" lon="2.58894">
        <ele>339</ele>
        <time>2021-10-31T07:36:30.000Z</time>
      </trkpt>
      <trkpt lat="44.01255" lon="2.58895">
        <ele>339</ele>
        <time>2021-10-31T07:36:31.000Z</time>
      </trkpt>
      <trkpt lat="44.01254" lon="2.58896">
        <ele>338</ele>
        <time>2021-10-31T07:36:32.000Z</time>
      </trkpt>
      <trkpt lat="44.01253" lon="2.58897">
        <ele>338</ele>
        <time>2021-10-31T07:36:33.000Z</time>
      </trkpt>
      <trkpt lat="44.01253" lon="2.58897">
        <ele>338</ele>
        <time>2021-10-31T07:36:34.000Z</time>
      </trkpt>
      <trkpt lat="44.01252" lon="2.58898">
        <ele>338</ele>
        <time>2021-10-31T07:36:35.000Z</time>
      </trkpt>
      <trkpt lat="44.01251" lon="2.58899">
        <ele>338</ele>
        <time>2021-10-31T07:36:36.000Z</time>
      </trkpt>
      <trkpt lat="44.0125" lon="2.589">
        <ele>337</ele>
        <time>2021-10-31T07:36:37.000Z</time>
      </trkpt>
      <trkpt lat="44.01249" lon="2.58901">
        <ele>337</ele>
        <time>2021-10-31T07:36:38.000Z</time>
      </trkpt>
      <trkpt lat="44.01248" lon="2.58901">
        <ele>337</ele>
        <time>2021-10-31T07:36:39.000Z</time>
      </trkpt>
      <trkpt lat="44.01247" lon="2.58902">
        <ele>337</ele>
        <time>2021-10-31T07:36:40.000Z</time>
      </trkpt>
      <trkpt lat="44.01246" lon="2.58902">
        <ele>337</ele>
        <time>2021-10-31T07:36:41.000Z</time>
      </trkpt>
      <trkpt lat="44.01245" lon="2.58903">
        <ele>337</ele>
        <time>2021-10-31T07:36:42.000Z</time>
      </trkpt>
      <trkpt lat="44.01244" lon="2.58903">
        <ele>336</ele>
        <time>2021-10-31T07:36:43.000Z</time>
      </trkpt>
      <trkpt lat="44.01243" lon="2.58904">
        <ele>336</ele>
        <time>2021-10-31T07:36:44.000Z</time>
      </trkpt>
      <trkpt lat="44.01242" lon="2.58905">
        <ele>336</ele>
        <time>2021-10-31T07:36:45.000Z</time>
      </trkpt>
      <trkpt lat="44.01241" lon="2.58905">
        <ele>336</ele>
        <time>2021-10-31T07:36:46.000Z</time>
      </trkpt>
      <trkpt lat="44.0124" lon="2.58905">
        <ele>336</ele>
        <time>2021-10-31T07:36:47.000Z</time>
      </trkpt>
      <trkpt lat="44.01239" lon="2.58906">
        <ele>336</ele>
        <time>2021-10-31T07:36:48.000Z</time>
      </trkpt>
      <trkpt lat="44.01238" lon="2.58906">
        <ele>336</ele>
        <time>2021-10-31T07:36:49.000Z</time>
      </trkpt>
      <trkpt lat="44.01237" lon="2.58906">
        <ele>336</ele>
        <time>2021-10-31T07:36:50.000Z</time>
      </trkpt>
      <trkpt lat="44.01236" lon="2.58906">
        <ele>335</ele>
        <time>2021-10-31T07:36:51.000Z</time>
      </trkpt>
      <trkpt lat="44.01235" lon="2.58906">
        <ele>335</ele>
        <time>2021-10-31T07:36:52.000Z</time>
      </trkpt>
      <trkpt lat="44.01234" lon="2.58907">
        <ele>335</ele>
        <time>2021-10-31T07:36:53.000Z</time>
      </trkpt>
      <trkpt lat="44.01233" lon="2.58907">
        <ele>335</ele>
        <time>2021-10-31T07:36:54.000Z</time>
      </trkpt>
      <trkpt lat="44.01232" lon="2.58908">
        <ele>335</ele>
        <time>2021-10-31T07:36:55.000Z</time>
      </trkpt>
      <trkpt lat="44.01231" lon="2.58909">
        <ele>335</ele>
        <time>2021-10-31T07:36:56.000Z</time>
      </trkpt>
      <trkpt lat="44.0123" lon="2.58909">
        <ele>335</ele>
        <time>2021-10-31T07:36:57.000Z</time>
      </trkpt>
      <trkpt lat="44.01229" lon="2.5891">
        <ele>335</ele>
        <time>2021-10-31T07:36:58.000Z</time>
      </trkpt>
      <trkpt lat="44.01228" lon="2.5891">
        <ele>335</ele>
        <time>2021-10-31T07:36:59.000Z</time>
      </trkpt>
      <trkpt lat="44.01227" lon="2.58911">
        <ele>335</ele>
        <time>2021-10-31T07:37:00.000Z</time>
      </trkpt>
      <trkpt lat="44.01226" lon="2.58911">
        <ele>335</ele>
        <time>2021-10-31T07:37:01.000Z</time>
      </trkpt>
      <trkpt lat="44.01225" lon="2.58912">
        <ele>335</ele>
        <time>2021-10-31T07:37:02.000Z</time>
      </trkpt>
      <trkpt lat="44.01224" lon="2.58912">
        <ele>335</ele>
        <time>2021-10-31T07:37:03.000Z</time>
      </trkpt>
      <trkpt lat="44.01223" lon="2.58913">
        <ele>335</ele>
        <time>2021-10-31T07:37:04.000Z</time>
      </trkpt>
      <trkpt lat="44.01222" lon="2.58914">
        <ele>335</ele>
        <time>2021-10-31T07:37:05.000Z</time>
      </trkpt>
      <trkpt lat="44.01221" lon="2.58914">
        <ele>335</ele>
        <time>2021-10-31T07:37:06.000Z</time>
      </trkpt>
      <trkpt lat="44.0122" lon="2.58915">
        <ele>335</ele>
        <time>2021-10-31T07:37:07.000Z</time>
      </trkpt>
      <trkpt lat="44.01219" lon="2.58915">
        <ele>335</ele>
        <time>2021-10-31T07:37:08.000Z</time>
      </trkpt>
      <trkpt lat="44.01218" lon="2.58915">
        <ele>335</ele>
        <time>2021-10-31T07:37:09.000Z</time>
      </trkpt>
      <trkpt lat="44.01217" lon="2.58916">
        <ele>335</ele>
        <time>2021-10-31T07:37:10.000Z</time>
      </trkpt>
      <trkpt lat="44.01216" lon="2.58916">
        <ele>335</ele>
        <time>2021-10-31T07:37:11.000Z</time>
      </trkpt>
      <trkpt lat="44.01214" lon="2.58917">
        <ele>334</ele>
        <time>2021-10-31T07:37:12.000Z</time>
      </trkpt>
      <trkpt lat="44.01213" lon="2.58917">
        <ele>334</ele>
        <time>2021-10-31T07:37:13.000Z</time>
      </trkpt>
      <trkpt lat="44.01212" lon="2.58917">
        <ele>334</ele>
        <time>2021-10-31T07:37:14.000Z</time>
      </trkpt>
      <trkpt lat="44.01211" lon="2.58917">
        <ele>334</ele>
        <time>2021-10-31T07:37:15.000Z</time>
      </trkpt>
      <trkpt lat="44.0121" lon="2.58918">
        <ele>334</ele>
        <time>2021-10-31T07:37:16.000Z</time>
      </trkpt>
      <trkpt lat="44.01209" lon="2.58918">
        <ele>334</ele>
        <time>2021-10-31T07:37:17.000Z</time>
      </trkpt>
      <trkpt lat="44.01208" lon="2.58918">
        <ele>333</ele>
        <time>2021-10-31T07:37:18.000Z</time>
      </trkpt>
      <trkpt lat="44.01207" lon="2.58918">
        <ele>333</ele>
        <time>2021-10-31T07:37:19.000Z</time>
      </trkpt>
      <trkpt lat="44.01206" lon="2.58917">
        <ele>333</ele>
        <time>2021-10-31T07:37:20.000Z</time>
      </trkpt>
      <trkpt lat="44.01205" lon="2.58918">
        <ele>333</ele>
        <time>2021-10-31T07:37:21.000Z</time>
      </trkpt>
      <trkpt lat="44.01205" lon="2.58918">
        <ele>333</ele>
        <time>2021-10-31T07:37:22.000Z</time>
      </trkpt>
      <trkpt lat="44.01204" lon="2.58918">
        <ele>333</ele>
        <time>2021-10-31T07:37:23.000Z</time>
      </trkpt>
      <trkpt lat="44.01203" lon="2.58918">
        <ele>333</ele>
        <time>2021-10-31T07:37:24.000Z</time>
      </trkpt>
      <trkpt lat="44.01202" lon="2.58918">
        <ele>332</ele>
        <time>2021-10-31T07:37:25.000Z</time>
      </trkpt>
      <trkpt lat="44.01201" lon="2.58919">
        <ele>332</ele>
        <time>2021-10-31T07:37:26.000Z</time>
      </trkpt>
      <trkpt lat="44.012" lon="2.58919">
        <ele>332</ele>
        <time>2021-10-31T07:37:27.000Z</time>
      </trkpt>
      <trkpt lat="44.01199" lon="2.58919">
        <ele>332</ele>
        <time>2021-10-31T07:37:28.000Z</time>
      </trkpt>
      <trkpt lat="44.01198" lon="2.5892">
        <ele>332</ele>
        <time>2021-10-31T07:37:29.000Z</time>
      </trkpt>
      <trkpt lat="44.01197" lon="2.5892">
        <ele>332</ele>
        <time>2021-10-31T07:37:30.000Z</time>
      </trkpt>
      <trkpt lat="44.01196" lon="2.5892">
        <ele>332</ele>
        <time>2021-10-31T07:37:31.000Z</time>
      </trkpt>
      <trkpt lat="44.01195" lon="2.5892">
        <ele>332</ele>
        <time>2021-10-31T07:37:32.000Z</time>
      </trkpt>
      <trkpt lat="44.01194" lon="2.58921">
        <ele>332</ele>
        <time>2021-10-31T07:37:33.000Z</time>
      </trkpt>
      <trkpt lat="44.01193" lon="2.58921">
        <ele>331</ele>
        <time>2021-10-31T07:37:34.000Z</time>
      </trkpt>
      <trkpt lat="44.01192" lon="2.58922">
        <ele>331</ele>
        <time>2021-10-31T07:37:35.000Z</time>
      </trkpt>
      <trkpt lat="44.0119" lon="2.58922">
        <ele>331</ele>
        <time>2021-10-31T07:37:36.000Z</time>
      </trkpt>
      <trkpt lat="44.01189" lon="2.58923">
        <ele>331</ele>
        <time>2021-10-31T07:37:37.000Z</time>
      </trkpt>
      <trkpt lat="44.01188" lon="2.58923">
        <ele>331</ele>
        <time>2021-10-31T07:37:38.000Z</time>
      </trkpt>
      <trkpt lat="44.01187" lon="2.58924">
        <ele>331</ele>
        <time>2021-10-31T07:37:39.000Z</time>
      </trkpt>
      <trkpt lat="44.01186" lon="2.58925">
        <ele>331</ele>
        <time>2021-10-31T07:37:40.000Z</time>
      </trkpt>
      <trkpt lat="44.01184" lon="2.58926">
        <ele>331</ele>
        <time>2021-10-31T07:37:41.000Z</time>
      </trkpt>
      <trkpt lat="44.01183" lon="2.58926">
        <ele>331</ele>
        <time>2021-10-31T07:37:42.000Z</time>
      </trkpt>
      <trkpt lat="44.01182" lon="2.58927">
        <ele>331</ele>
        <time>2021-10-31T07:37:43.000Z</time>
      </trkpt>
      <trkpt lat="44.01181" lon="2.58927">
        <ele>331</ele>
        <time>2021-10-31T07:37:44.000Z</time>
      </trkpt>
      <trkpt lat="44.0118" lon="2.58927">
        <ele>331</ele>
        <time>2021-10-31T07:37:45.000Z</time>
      </trkpt>
      <trkpt lat="44.0118" lon="2.58927">
        <ele>330</ele>
        <time>2021-10-31T07:37:46.000Z</time>
      </trkpt>
      <trkpt lat="44.01178" lon="2.58928">
        <ele>330</ele>
        <time>2021-10-31T07:37:47.000Z</time>
      </trkpt>
      <trkpt lat="44.01177" lon="2.58929">
        <ele>330</ele>
        <time>2021-10-31T07:37:48.000Z</time>
      </trkpt>
      <trkpt lat="44.01176" lon="2.58929">
        <ele>330</ele>
        <time>2021-10-31T07:37:49.000Z</time>
      </trkpt>
      <trkpt lat="44.01175" lon="2.5893">
        <ele>330</ele>
        <time>2021-10-31T07:37:50.000Z</time>
      </trkpt>
      <trkpt lat="44.01174" lon="2.5893">
        <ele>330</ele>
        <time>2021-10-31T07:37:51.000Z</time>
      </trkpt>
      <trkpt lat="44.01173" lon="2.5893">
        <ele>330</ele>
        <time>2021-10-31T07:37:52.000Z</time>
      </trkpt>
      <trkpt lat="44.01172" lon="2.58931">
        <ele>330</ele>
        <time>2021-10-31T07:37:53.000Z</time>
      </trkpt>
      <trkpt lat="44.01171" lon="2.58931">
        <ele>329</ele>
        <time>2021-10-31T07:37:54.000Z</time>
      </trkpt>
      <trkpt lat="44.0117" lon="2.58931">
        <ele>329</ele>
        <time>2021-10-31T07:37:55.000Z</time>
      </trkpt>
      <trkpt lat="44.01169" lon="2.58932">
        <ele>329</ele>
        <time>2021-10-31T07:37:56.000Z</time>
      </trkpt>
      <trkpt lat="44.01168" lon="2.58932">
        <ele>329</ele>
        <time>2021-10-31T07:37:57.000Z</time>
      </trkpt>
      <trkpt lat="44.01167" lon="2.58933">
        <ele>328</ele>
        <time>2021-10-31T07:37:58.000Z</time>
      </trkpt>
      <trkpt lat="44.01166" lon="2.58933">
        <ele>328</ele>
        <time>2021-10-31T07:37:59.000Z</time>
      </trkpt>
      <trkpt lat="44.01165" lon="2.58933">
        <ele>328</ele>
        <time>2021-10-31T07:38:00.000Z</time>
      </trkpt>
      <trkpt lat="44.01164" lon="2.58934">
        <ele>327</ele>
        <time>2021-10-31T07:38:01.000Z</time>
      </trkpt>
      <trkpt lat="44.01163" lon="2.58934">
        <ele>327</ele>
        <time>2021-10-31T07:38:02.000Z</time>
      </trkpt>
      <trkpt lat="44.01161" lon="2.58935">
        <ele>327</ele>
        <time>2021-10-31T07:38:03.000Z</time>
      </trkpt>
      <trkpt lat="44.0116" lon="2.58936">
        <ele>327</ele>
        <time>2021-10-31T07:38:04.000Z</time>
      </trkpt>
      <trkpt lat="44.01158" lon="2.58937">
        <ele>326</ele>
        <time>2021-10-31T07:38:05.000Z</time>
      </trkpt>
      <trkpt lat="44.01157" lon="2.58938">
        <ele>326</ele>
        <time>2021-10-31T07:38:06.000Z</time>
      </trkpt>
      <trkpt lat="44.01156" lon="2.58939">
        <ele>326</ele>
        <time>2021-10-31T07:38:07.000Z</time>
      </trkpt>
      <trkpt lat="44.01155" lon="2.58939">
        <ele>326</ele>
        <time>2021-10-31T07:38:08.000Z</time>
      </trkpt>
      <trkpt lat="44.01153" lon="2.5894">
        <ele>326</ele>
        <time>2021-10-31T07:38:09.000Z</time>
      </trkpt>
      <trkpt lat="44.01152" lon="2.5894">
        <ele>326</ele>
        <time>2021-10-31T07:38:10.000Z</time>
      </trkpt>
      <trkpt lat="44.01151" lon="2.58941">
        <ele>326</ele>
        <time>2021-10-31T07:38:11.000Z</time>
      </trkpt>
      <trkpt lat="44.0115" lon="2.58941">
        <ele>326</ele>
        <time>2021-10-31T07:38:12.000Z</time>
      </trkpt>
      <trkpt lat="44.01148" lon="2.58941">
        <ele>326</ele>
        <time>2021-10-31T07:38:13.000Z</time>
      </trkpt>
      <trkpt lat="44.01147" lon="2.58941">
        <ele>325</ele>
        <time>2021-10-31T07:38:14.000Z</time>
      </trkpt>
      <trkpt lat="44.01146" lon="2.58941">
        <ele>325</ele>
        <time>2021-10-31T07:38:15.000Z</time>
      </trkpt>
      <trkpt lat="44.01145" lon="2.58941">
        <ele>325</ele>
        <time>2021-10-31T07:38:16.000Z</time>
      </trkpt>
      <trkpt lat="44.01143" lon="2.58942">
        <ele>325</ele>
        <time>2021-10-31T07:38:17.000Z</time>
      </trkpt>
      <trkpt lat="44.01142" lon="2.58942">
        <ele>325</ele>
        <time>2021-10-31T07:38:18.000Z</time>
      </trkpt>
      <trkpt lat="44.01141" lon="2.58942">
        <ele>325</ele>
        <time>2021-10-31T07:38:19.000Z</time>
      </trkpt>
      <trkpt lat="44.01139" lon="2.58942">
        <ele>325</ele>
        <time>2021-10-31T07:38:20.000Z</time>
      </trkpt>
      <trkpt lat="44.01138" lon="2.58942">
        <ele>325</ele>
        <time>2021-10-31T07:38:21.000Z</time>
      </trkpt>
      <trkpt lat="44.01137" lon="2.58943">
        <ele>325</ele>
        <time>2021-10-31T07:38:22.000Z</time>
      </trkpt>
      <trkpt lat="44.01136" lon="2.58943">
        <ele>324</ele>
        <time>2021-10-31T07:38:23.000Z</time>
      </trkpt>
      <trkpt lat="44.01135" lon="2.58943">
        <ele>324</ele>
        <time>2021-10-31T07:38:24.000Z</time>
      </trkpt>
      <trkpt lat="44.01134" lon="2.58943">
        <ele>324</ele>
        <time>2021-10-31T07:38:25.000Z</time>
      </trkpt>
      <trkpt lat="44.01133" lon="2.58943">
        <ele>324</ele>
        <time>2021-10-31T07:38:26.000Z</time>
      </trkpt>
      <trkpt lat="44.01132" lon="2.58943">
        <ele>324</ele>
        <time>2021-10-31T07:38:27.000Z</time>
      </trkpt>
      <trkpt lat="44.01131" lon="2.58943">
        <ele>324</ele>
        <time>2021-10-31T07:38:28.000Z</time>
      </trkpt>
      <trkpt lat="44.0113" lon="2.58944">
        <ele>324</ele>
        <time>2021-10-31T07:38:29.000Z</time>
      </trkpt>
      <trkpt lat="44.01128" lon="2.58944">
        <ele>324</ele>
        <time>2021-10-31T07:38:30.000Z</time>
      </trkpt>
      <trkpt lat="44.01127" lon="2.58944">
        <ele>324</ele>
        <time>2021-10-31T07:38:31.000Z</time>
      </trkpt>
      <trkpt lat="44.01125" lon="2.58945">
        <ele>324</ele>
        <time>2021-10-31T07:38:32.000Z</time>
      </trkpt>
      <trkpt lat="44.01124" lon="2.58945">
        <ele>324</ele>
        <time>2021-10-31T07:38:33.000Z</time>
      </trkpt>
      <trkpt lat="44.01123" lon="2.58945">
        <ele>324</ele>
        <time>2021-10-31T07:38:34.000Z</time>
      </trkpt>
      <trkpt lat="44.01121" lon="2.58946">
        <ele>324</ele>
        <time>2021-10-31T07:38:35.000Z</time>
      </trkpt>
      <trkpt lat="44.0112" lon="2.58946">
        <ele>324</ele>
        <time>2021-10-31T07:38:36.000Z</time>
      </trkpt>
      <trkpt lat="44.01118" lon="2.58945">
        <ele>324</ele>
        <time>2021-10-31T07:38:37.000Z</time>
      </trkpt>
      <trkpt lat="44.01117" lon="2.58945">
        <ele>324</ele>
        <time>2021-10-31T07:38:38.000Z</time>
      </trkpt>
      <trkpt lat="44.01116" lon="2.58945">
        <ele>324</ele>
        <time>2021-10-31T07:38:39.000Z</time>
      </trkpt>
      <trkpt lat="44.01115" lon="2.58945">
        <ele>324</ele>
        <time>2021-10-31T07:38:40.000Z</time>
      </trkpt>
      <trkpt lat="44.01113" lon="2.58945">
        <ele>324</ele>
        <time>2021-10-31T07:38:41.000Z</time>
      </trkpt>
      <trkpt lat="44.01112" lon="2.58945">
        <ele>324</ele>
        <time>2021-10-31T07:38:42.000Z</time>
      </trkpt>
      <trkpt lat="44.01111" lon="2.58944">
        <ele>324</ele>
        <time>2021-10-31T07:38:43.000Z</time>
      </trkpt>
      <trkpt lat="44.01109" lon="2.58944">
        <ele>324</ele>
        <time>2021-10-31T07:38:44.000Z</time>
      </trkpt>
      <trkpt lat="44.01108" lon="2.58944">
        <ele>324</ele>
        <time>2021-10-31T07:38:45.000Z</time>
      </trkpt>
      <trkpt lat="44.01107" lon="2.58945">
        <ele>324</ele>
        <time>2021-10-31T07:38:46.000Z</time>
      </trkpt>
      <trkpt lat="44.01106" lon="2.58945">
        <ele>324</ele>
        <time>2021-10-31T07:38:47.000Z</time>
      </trkpt>
      <trkpt lat="44.01104" lon="2.58945">
        <ele>324</ele>
        <time>2021-10-31T07:38:48.000Z</time>
      </trkpt>
      <trkpt lat="44.01103" lon="2.58945">
        <ele>324</ele>
        <time>2021-10-31T07:38:49.000Z</time>
      </trkpt>
      <trkpt lat="44.01102" lon="2.58946">
        <ele>324</ele>
        <time>2021-10-31T07:38:50.000Z</time>
      </trkpt>
      <trkpt lat="44.011" lon="2.58947">
        <ele>324</ele>
        <time>2021-10-31T07:38:51.000Z</time>
      </trkpt>
      <trkpt lat="44.01099" lon="2.58947">
        <ele>324</ele>
        <time>2021-10-31T07:38:52.000Z</time>
      </trkpt>
      <trkpt lat="44.01098" lon="2.58948">
        <ele>324</ele>
        <time>2021-10-31T07:38:53.000Z</time>
      </trkpt>
      <trkpt lat="44.01097" lon="2.58948">
        <ele>324</ele>
        <time>2021-10-31T07:38:54.000Z</time>
      </trkpt>
      <trkpt lat="44.01096" lon="2.58949">
        <ele>324</ele>
        <time>2021-10-31T07:38:55.000Z</time>
      </trkpt>
      <trkpt lat="44.01094" lon="2.58949">
        <ele>324</ele>
        <time>2021-10-31T07:38:56.000Z</time>
      </trkpt>
      <trkpt lat="44.01093" lon="2.5895">
        <ele>324</ele>
        <time>2021-10-31T07:38:57.000Z</time>
      </trkpt>
      <trkpt lat="44.01092" lon="2.58951">
        <ele>324</ele>
        <time>2021-10-31T07:38:58.000Z</time>
      </trkpt>
      <trkpt lat="44.01091" lon="2.58951">
        <ele>323</ele>
        <time>2021-10-31T07:38:59.000Z</time>
      </trkpt>
      <trkpt lat="44.0109" lon="2.58952">
        <ele>323</ele>
        <time>2021-10-31T07:39:00.000Z</time>
      </trkpt>
      <trkpt lat="44.01089" lon="2.58952">
        <ele>323</ele>
        <time>2021-10-31T07:39:01.000Z</time>
      </trkpt>
      <trkpt lat="44.01088" lon="2.58952">
        <ele>323</ele>
        <time>2021-10-31T07:39:02.000Z</time>
      </trkpt>
      <trkpt lat="44.01088" lon="2.58952">
        <ele>323</ele>
        <time>2021-10-31T07:39:03.000Z</time>
      </trkpt>
      <trkpt lat="44.01087" lon="2.58952">
        <ele>323</ele>
        <time>2021-10-31T07:39:04.000Z</time>
      </trkpt>
      <trkpt lat="44.01086" lon="2.58953">
        <ele>323</ele>
        <time>2021-10-31T07:39:05.000Z</time>
      </trkpt>
      <trkpt lat="44.01084" lon="2.58953">
        <ele>323</ele>
        <time>2021-10-31T07:39:06.000Z</time>
      </trkpt>
      <trkpt lat="44.01083" lon="2.58954">
        <ele>323</ele>
        <time>2021-10-31T07:39:07.000Z</time>
      </trkpt>
      <trkpt lat="44.01083" lon="2.58954">
        <ele>322</ele>
        <time>2021-10-31T07:39:08.000Z</time>
      </trkpt>
      <trkpt lat="44.01082" lon="2.58955">
        <ele>322</ele>
        <time>2021-10-31T07:39:09.000Z</time>
      </trkpt>
      <trkpt lat="44.01081" lon="2.58956">
        <ele>322</ele>
        <time>2021-10-31T07:39:10.000Z</time>
      </trkpt>
      <trkpt lat="44.0108" lon="2.58955">
        <ele>322</ele>
        <time>2021-10-31T07:39:11.000Z</time>
      </trkpt>
      <trkpt lat="44.0108" lon="2.58956">
        <ele>322</ele>
        <time>2021-10-31T07:39:12.000Z</time>
      </trkpt>
      <trkpt lat="44.01079" lon="2.58956">
        <ele>322</ele>
        <time>2021-10-31T07:39:13.000Z</time>
      </trkpt>
      <trkpt lat="44.01079" lon="2.58956">
        <ele>322</ele>
        <time>2021-10-31T07:39:14.000Z</time>
      </trkpt>
      <trkpt lat="44.01079" lon="2.58956">
        <ele>322</ele>
        <time>2021-10-31T07:39:15.000Z</time>
      </trkpt>
      <trkpt lat="44.01078" lon="2.58956">
        <ele>321</ele>
        <time>2021-10-31T07:39:16.000Z</time>
      </trkpt>
      <trkpt lat="44.01077" lon="2.58956">
        <ele>321</ele>
        <time>2021-10-31T07:39:17.000Z</time>
      </trkpt>
      <trkpt lat="44.01077" lon="2.58956">
        <ele>321</ele>
        <time>2021-10-31T07:39:18.000Z</time>
      </trkpt>
      <trkpt lat="44.01077" lon="2.58956">
        <ele>320</ele>
        <time>2021-10-31T07:39:19.000Z</time>
      </trkpt>
      <trkpt lat="44.01077" lon="2.58957">
        <ele>320</ele>
        <time>2021-10-31T07:39:20.000Z</time>
      </trkpt>
      <trkpt lat="44.01077" lon="2.58957">
        <ele>320</ele>
        <time>2021-10-31T07:39:21.000Z</time>
      </trkpt>
      <trkpt lat="44.01077" lon="2.58957">
        <ele>319</ele>
        <time>2021-10-31T07:39:22.000Z</time>
      </trkpt>
      <trkpt lat="44.01076" lon="2.58959">
        <ele>317</ele>
        <time>2021-10-31T07:39:23.000Z</time>
      </trkpt>
      <trkpt lat="44.01075" lon="2.58959">
        <ele>316</ele>
        <time>2021-10-31T07:39:24.000Z</time>
      </trkpt>
      <trkpt lat="44.01075" lon="2.5896">
        <ele>316</ele>
        <time>2021-10-31T07:39:25.000Z</time>
      </trkpt>
      <trkpt lat="44.01074" lon="2.5896">
        <ele>316</ele>
        <time>2021-10-31T07:39:26.000Z</time>
      </trkpt>
      <trkpt lat="44.01073" lon="2.58961">
        <ele>316</ele>
        <time>2021-10-31T07:39:27.000Z</time>
      </trkpt>
      <trkpt lat="44.01073" lon="2.58961">
        <ele>316</ele>
        <time>2021-10-31T07:39:28.000Z</time>
      </trkpt>
      <trkpt lat="44.01073" lon="2.58961">
        <ele>315</ele>
        <time>2021-10-31T07:39:29.000Z</time>
      </trkpt>
      <trkpt lat="44.01073" lon="2.58961">
        <ele>315</ele>
        <time>2021-10-31T07:39:30.000Z</time>
      </trkpt>
      <trkpt lat="44.01076" lon="2.5896">
        <ele>311</ele>
        <time>2021-10-31T07:39:31.000Z</time>
      </trkpt>
      <trkpt lat="44.01077" lon="2.5896">
        <ele>311</ele>
        <time>2021-10-31T07:39:32.000Z</time>
      </trkpt>
      <trkpt lat="44.01077" lon="2.5896">
        <ele>310</ele>
        <time>2021-10-31T07:39:33.000Z</time>
      </trkpt>
      <trkpt lat="44.01078" lon="2.5896">
        <ele>310</ele>
        <time>2021-10-31T07:39:34.000Z</time>
      </trkpt>
      <trkpt lat="44.01078" lon="2.5896">
        <ele>310</ele>
        <time>2021-10-31T07:39:35.000Z</time>
      </trkpt>
      <trkpt lat="44.01079" lon="2.5896">
        <ele>310</ele>
        <time>2021-10-31T07:39:36.000Z</time>
      </trkpt>
      <trkpt lat="44.01079" lon="2.58959">
        <ele>310</ele>
        <time>2021-10-31T07:39:37.000Z</time>
      </trkpt>
      <trkpt lat="44.01079" lon="2.58959">
        <ele>309</ele>
        <time>2021-10-31T07:39:38.000Z</time>
      </trkpt>
      <trkpt lat="44.01083" lon="2.58948">
        <ele>308</ele>
        <time>2021-10-31T07:39:39.000Z</time>
      </trkpt>
      <trkpt lat="44.01083" lon="2.58948">
        <ele>308</ele>
        <time>2021-10-31T07:39:40.000Z</time>
      </trkpt>
      <trkpt lat="44.01084" lon="2.58948">
        <ele>308</ele>
        <time>2021-10-31T07:39:41.000Z</time>
      </trkpt>
      <trkpt lat="44.01084" lon="2.58948">
        <ele>308</ele>
        <time>2021-10-31T07:39:42.000Z</time>
      </trkpt>
      <trkpt lat="44.01084" lon="2.58948">
        <ele>308</ele>
        <time>2021-10-31T07:39:43.000Z</time>
      </trkpt>
      <trkpt lat="44.01085" lon="2.58948">
        <ele>309</ele>
        <time>2021-10-31T07:39:44.000Z</time>
      </trkpt>
      <trkpt lat="44.01086" lon="2.58948">
        <ele>309</ele>
        <time>2021-10-31T07:39:45.000Z</time>
      </trkpt>
      <trkpt lat="44.01086" lon="2.58948">
        <ele>309</ele>
        <time>2021-10-31T07:39:46.000Z</time>
      </trkpt>
      <trkpt lat="44.01087" lon="2.58948">
        <ele>309</ele>
        <time>2021-10-31T07:39:47.000Z</time>
      </trkpt>
      <trkpt lat="44.01088" lon="2.58949">
        <ele>309</ele>
        <time>2021-10-31T07:39:48.000Z</time>
      </trkpt>
      <trkpt lat="44.01089" lon="2.58949">
        <ele>309</ele>
        <time>2021-10-31T07:39:49.000Z</time>
      </trkpt>
      <trkpt lat="44.0109" lon="2.58949">
        <ele>309</ele>
        <time>2021-10-31T07:39:50.000Z</time>
      </trkpt>
      <trkpt lat="44.01091" lon="2.58948">
        <ele>309</ele>
        <time>2021-10-31T07:39:51.000Z</time>
      </trkpt>
      <trkpt lat="44.01093" lon="2.58948">
        <ele>310</ele>
        <time>2021-10-31T07:39:52.000Z</time>
      </trkpt>
      <trkpt lat="44.01094" lon="2.58948">
        <ele>310</ele>
        <time>2021-10-31T07:39:53.000Z</time>
      </trkpt>
      <trkpt lat="44.01095" lon="2.58947">
        <ele>310</ele>
        <time>2021-10-31T07:39:54.000Z</time>
      </trkpt>
      <trkpt lat="44.01096" lon="2.58947">
        <ele>310</ele>
        <time>2021-10-31T07:39:55.000Z</time>
      </trkpt>
      <trkpt lat="44.01097" lon="2.58946">
        <ele>310</ele>
        <time>2021-10-31T07:39:56.000Z</time>
      </trkpt>
      <trkpt lat="44.01098" lon="2.58946">
        <ele>310</ele>
        <time>2021-10-31T07:39:57.000Z</time>
      </trkpt>
      <trkpt lat="44.01099" lon="2.58945">
        <ele>310</ele>
        <time>2021-10-31T07:39:58.000Z</time>
      </trkpt>
      <trkpt lat="44.01101" lon="2.58945">
        <ele>310</ele>
        <time>2021-10-31T07:39:59.000Z</time>
      </trkpt>
      <trkpt lat="44.01102" lon="2.58945">
        <ele>311</ele>
        <time>2021-10-31T07:40:00.000Z</time>
      </trkpt>
      <trkpt lat="44.01103" lon="2.58944">
        <ele>311</ele>
        <time>2021-10-31T07:40:01.000Z</time>
      </trkpt>
      <trkpt lat="44.01104" lon="2.58944">
        <ele>311</ele>
        <time>2021-10-31T07:40:02.000Z</time>
      </trkpt>
      <trkpt lat="44.01106" lon="2.58944">
        <ele>311</ele>
        <time>2021-10-31T07:40:03.000Z</time>
      </trkpt>
      <trkpt lat="44.01107" lon="2.58945">
        <ele>312</ele>
        <time>2021-10-31T07:40:04.000Z</time>
      </trkpt>
      <trkpt lat="44.01109" lon="2.58945">
        <ele>312</ele>
        <time>2021-10-31T07:40:05.000Z</time>
      </trkpt>
      <trkpt lat="44.0111" lon="2.58944">
        <ele>312</ele>
        <time>2021-10-31T07:40:06.000Z</time>
      </trkpt>
      <trkpt lat="44.01111" lon="2.58944">
        <ele>312</ele>
        <time>2021-10-31T07:40:07.000Z</time>
      </trkpt>
      <trkpt lat="44.01112" lon="2.58944">
        <ele>312</ele>
        <time>2021-10-31T07:40:08.000Z</time>
      </trkpt>
      <trkpt lat="44.01113" lon="2.58945">
        <ele>313</ele>
        <time>2021-10-31T07:40:09.000Z</time>
      </trkpt>
      <trkpt lat="44.01114" lon="2.58945">
        <ele>313</ele>
        <time>2021-10-31T07:40:10.000Z</time>
      </trkpt>
      <trkpt lat="44.01115" lon="2.58945">
        <ele>313</ele>
        <time>2021-10-31T07:40:11.000Z</time>
      </trkpt>
      <trkpt lat="44.01116" lon="2.58946">
        <ele>313</ele>
        <time>2021-10-31T07:40:12.000Z</time>
      </trkpt>
      <trkpt lat="44.01117" lon="2.58946">
        <ele>313</ele>
        <time>2021-10-31T07:40:13.000Z</time>
      </trkpt>
      <trkpt lat="44.01118" lon="2.58946">
        <ele>313</ele>
        <time>2021-10-31T07:40:14.000Z</time>
      </trkpt>
      <trkpt lat="44.01119" lon="2.58946">
        <ele>313</ele>
        <time>2021-10-31T07:40:15.000Z</time>
      </trkpt>
      <trkpt lat="44.0112" lon="2.58947">
        <ele>313</ele>
        <time>2021-10-31T07:40:16.000Z</time>
      </trkpt>
      <trkpt lat="44.01121" lon="2.58947">
        <ele>313</ele>
        <time>2021-10-31T07:40:17.000Z</time>
      </trkpt>
      <trkpt lat="44.01123" lon="2.58948">
        <ele>313</ele>
        <time>2021-10-31T07:40:18.000Z</time>
      </trkpt>
      <trkpt lat="44.01123" lon="2.58948">
        <ele>313</ele>
        <time>2021-10-31T07:40:19.000Z</time>
      </trkpt>
      <trkpt lat="44.01125" lon="2.58949">
        <ele>314</ele>
        <time>2021-10-31T07:40:20.000Z</time>
      </trkpt>
      <trkpt lat="44.01126" lon="2.5895">
        <ele>314</ele>
        <time>2021-10-31T07:40:21.000Z</time>
      </trkpt>
      <trkpt lat="44.01126" lon="2.58951">
        <ele>314</ele>
        <time>2021-10-31T07:40:22.000Z</time>
      </trkpt>
      <trkpt lat="44.01127" lon="2.58951">
        <ele>314</ele>
        <time>2021-10-31T07:40:23.000Z</time>
      </trkpt>
      <trkpt lat="44.01128" lon="2.58952">
        <ele>314</ele>
        <time>2021-10-31T07:40:24.000Z</time>
      </trkpt>
      <trkpt lat="44.01129" lon="2.58953">
        <ele>314</ele>
        <time>2021-10-31T07:40:25.000Z</time>
      </trkpt>
      <trkpt lat="44.0113" lon="2.58954">
        <ele>314</ele>
        <time>2021-10-31T07:40:26.000Z</time>
      </trkpt>
      <trkpt lat="44.01131" lon="2.58954">
        <ele>314</ele>
        <time>2021-10-31T07:40:27.000Z</time>
      </trkpt>
      <trkpt lat="44.01132" lon="2.58955">
        <ele>314</ele>
        <time>2021-10-31T07:40:28.000Z</time>
      </trkpt>
      <trkpt lat="44.01133" lon="2.58956">
        <ele>314</ele>
        <time>2021-10-31T07:40:29.000Z</time>
      </trkpt>
      <trkpt lat="44.01134" lon="2.58956">
        <ele>314</ele>
        <time>2021-10-31T07:40:30.000Z</time>
      </trkpt>
      <trkpt lat="44.01135" lon="2.58957">
        <ele>314</ele>
        <time>2021-10-31T07:40:31.000Z</time>
      </trkpt>
      <trkpt lat="44.01136" lon="2.58958">
        <ele>314</ele>
        <time>2021-10-31T07:40:32.000Z</time>
      </trkpt>
      <trkpt lat="44.01137" lon="2.58958">
        <ele>314</ele>
        <time>2021-10-31T07:40:33.000Z</time>
      </trkpt>
      <trkpt lat="44.01138" lon="2.58958">
        <ele>314</ele>
        <time>2021-10-31T07:40:34.000Z</time>
      </trkpt>
      <trkpt lat="44.01139" lon="2.58958">
        <ele>314</ele>
        <time>2021-10-31T07:40:35.000Z</time>
      </trkpt>
      <trkpt lat="44.0114" lon="2.58958">
        <ele>314</ele>
        <time>2021-10-31T07:40:36.000Z</time>
      </trkpt>
      <trkpt lat="44.01142" lon="2.58958">
        <ele>314</ele>
        <time>2021-10-31T07:40:37.000Z</time>
      </trkpt>
      <trkpt lat="44.01143" lon="2.58958">
        <ele>314</ele>
        <time>2021-10-31T07:40:38.000Z</time>
      </trkpt>
      <trkpt lat="44.01144" lon="2.58957">
        <ele>314</ele>
        <time>2021-10-31T07:40:39.000Z</time>
      </trkpt>
      <trkpt lat="44.01145" lon="2.58957">
        <ele>314</ele>
        <time>2021-10-31T07:40:40.000Z</time>
      </trkpt>
      <trkpt lat="44.01146" lon="2.58957">
        <ele>313</ele>
        <time>2021-10-31T07:40:41.000Z</time>
      </trkpt>
      <trkpt lat="44.01147" lon="2.58957">
        <ele>313</ele>
        <time>2021-10-31T07:40:42.000Z</time>
      </trkpt>
      <trkpt lat="44.01148" lon="2.58957">
        <ele>313</ele>
        <time>2021-10-31T07:40:43.000Z</time>
      </trkpt>
      <trkpt lat="44.01149" lon="2.58957">
        <ele>313</ele>
        <time>2021-10-31T07:40:44.000Z</time>
      </trkpt>
      <trkpt lat="44.0115" lon="2.58957">
        <ele>313</ele>
        <time>2021-10-31T07:40:45.000Z</time>
      </trkpt>
      <trkpt lat="44.01151" lon="2.58958">
        <ele>313</ele>
        <time>2021-10-31T07:40:46.000Z</time>
      </trkpt>
      <trkpt lat="44.01152" lon="2.58958">
        <ele>313</ele>
        <time>2021-10-31T07:40:47.000Z</time>
      </trkpt>
      <trkpt lat="44.01153" lon="2.58958">
        <ele>313</ele>
        <time>2021-10-31T07:40:48.000Z</time>
      </trkpt>
      <trkpt lat="44.01154" lon="2.58958">
        <ele>313</ele>
        <time>2021-10-31T07:40:49.000Z</time>
      </trkpt>
      <trkpt lat="44.01155" lon="2.58958">
        <ele>313</ele>
        <time>2021-10-31T07:40:50.000Z</time>
      </trkpt>
      <trkpt lat="44.01156" lon="2.58958">
        <ele>313</ele>
        <time>2021-10-31T07:40:51.000Z</time>
      </trkpt>
      <trkpt lat="44.01157" lon="2.58957">
        <ele>313</ele>
        <time>2021-10-31T07:40:52.000Z</time>
      </trkpt>
      <trkpt lat="44.01157" lon="2.58957">
        <ele>314</ele>
        <time>2021-10-31T07:40:53.000Z</time>
      </trkpt>
      <trkpt lat="44.01158" lon="2.58956">
        <ele>314</ele>
        <time>2021-10-31T07:40:54.000Z</time>
      </trkpt>
      <trkpt lat="44.01159" lon="2.58956">
        <ele>314</ele>
        <time>2021-10-31T07:40:55.000Z</time>
      </trkpt>
      <trkpt lat="44.0116" lon="2.58956">
        <ele>314</ele>
        <time>2021-10-31T07:40:56.000Z</time>
      </trkpt>
      <trkpt lat="44.01161" lon="2.58956">
        <ele>314</ele>
        <time>2021-10-31T07:40:57.000Z</time>
      </trkpt>
      <trkpt lat="44.01161" lon="2.58955">
        <ele>314</ele>
        <time>2021-10-31T07:40:58.000Z</time>
      </trkpt>
      <trkpt lat="44.01162" lon="2.58955">
        <ele>315</ele>
        <time>2021-10-31T07:40:59.000Z</time>
      </trkpt>
      <trkpt lat="44.01163" lon="2.58955">
        <ele>315</ele>
        <time>2021-10-31T07:41:00.000Z</time>
      </trkpt>
      <trkpt lat="44.01163" lon="2.58954">
        <ele>315</ele>
        <time>2021-10-31T07:41:01.000Z</time>
      </trkpt>
      <trkpt lat="44.01164" lon="2.58954">
        <ele>315</ele>
        <time>2021-10-31T07:41:02.000Z</time>
      </trkpt>
      <trkpt lat="44.01164" lon="2.58954">
        <ele>315</ele>
        <time>2021-10-31T07:41:03.000Z</time>
      </trkpt>
      <trkpt lat="44.01165" lon="2.58954">
        <ele>315</ele>
        <time>2021-10-31T07:41:04.000Z</time>
      </trkpt>
      <trkpt lat="44.01166" lon="2.58954">
        <ele>315</ele>
        <time>2021-10-31T07:41:05.000Z</time>
      </trkpt>
      <trkpt lat="44.01166" lon="2.58954">
        <ele>316</ele>
        <time>2021-10-31T07:41:06.000Z</time>
      </trkpt>
      <trkpt lat="44.01167" lon="2.58954">
        <ele>316</ele>
        <time>2021-10-31T07:41:07.000Z</time>
      </trkpt>
      <trkpt lat="44.01168" lon="2.58954">
        <ele>316</ele>
        <time>2021-10-31T07:41:08.000Z</time>
      </trkpt>
      <trkpt lat="44.01169" lon="2.58954">
        <ele>316</ele>
        <time>2021-10-31T07:41:09.000Z</time>
      </trkpt>
      <trkpt lat="44.0117" lon="2.58953">
        <ele>316</ele>
        <time>2021-10-31T07:41:10.000Z</time>
      </trkpt>
      <trkpt lat="44.01172" lon="2.58953">
        <ele>317</ele>
        <time>2021-10-31T07:41:11.000Z</time>
      </trkpt>
      <trkpt lat="44.01173" lon="2.58953">
        <ele>317</ele>
        <time>2021-10-31T07:41:12.000Z</time>
      </trkpt>
      <trkpt lat="44.01174" lon="2.58953">
        <ele>317</ele>
        <time>2021-10-31T07:41:13.000Z</time>
      </trkpt>
      <trkpt lat="44.01175" lon="2.58953">
        <ele>317</ele>
        <time>2021-10-31T07:41:14.000Z</time>
      </trkpt>
      <trkpt lat="44.01177" lon="2.58952">
        <ele>317</ele>
        <time>2021-10-31T07:41:15.000Z</time>
      </trkpt>
      <trkpt lat="44.01178" lon="2.58952">
        <ele>317</ele>
        <time>2021-10-31T07:41:16.000Z</time>
      </trkpt>
      <trkpt lat="44.01179" lon="2.58952">
        <ele>318</ele>
        <time>2021-10-31T07:41:17.000Z</time>
      </trkpt>
      <trkpt lat="44.0118" lon="2.58952">
        <ele>318</ele>
        <time>2021-10-31T07:41:18.000Z</time>
      </trkpt>
      <trkpt lat="44.01181" lon="2.58951">
        <ele>318</ele>
        <time>2021-10-31T07:41:19.000Z</time>
      </trkpt>
      <trkpt lat="44.01183" lon="2.58951">
        <ele>318</ele>
        <time>2021-10-31T07:41:20.000Z</time>
      </trkpt>
      <trkpt lat="44.01184" lon="2.5895">
        <ele>319</ele>
        <time>2021-10-31T07:41:21.000Z</time>
      </trkpt>
      <trkpt lat="44.01186" lon="2.5895">
        <ele>319</ele>
        <time>2021-10-31T07:41:22.000Z</time>
      </trkpt>
      <trkpt lat="44.01187" lon="2.5895">
        <ele>319</ele>
        <time>2021-10-31T07:41:23.000Z</time>
      </trkpt>
      <trkpt lat="44.01189" lon="2.5895">
        <ele>319</ele>
        <time>2021-10-31T07:41:24.000Z</time>
      </trkpt>
      <trkpt lat="44.0119" lon="2.5895">
        <ele>320</ele>
        <time>2021-10-31T07:41:25.000Z</time>
      </trkpt>
      <trkpt lat="44.01192" lon="2.58949">
        <ele>320</ele>
        <time>2021-10-31T07:41:26.000Z</time>
      </trkpt>
      <trkpt lat="44.01193" lon="2.58949">
        <ele>320</ele>
        <time>2021-10-31T07:41:27.000Z</time>
      </trkpt>
      <trkpt lat="44.01194" lon="2.58949">
        <ele>321</ele>
        <time>2021-10-31T07:41:28.000Z</time>
      </trkpt>
      <trkpt lat="44.01195" lon="2.58949">
        <ele>321</ele>
        <time>2021-10-31T07:41:29.000Z</time>
      </trkpt>
      <trkpt lat="44.01197" lon="2.58949">
        <ele>321</ele>
        <time>2021-10-31T07:41:30.000Z</time>
      </trkpt>
      <trkpt lat="44.01198" lon="2.58949">
        <ele>321</ele>
        <time>2021-10-31T07:41:31.000Z</time>
      </trkpt>
      <trkpt lat="44.01199" lon="2.58948">
        <ele>322</ele>
        <time>2021-10-31T07:41:32.000Z</time>
      </trkpt>
      <trkpt lat="44.01201" lon="2.58949">
        <ele>322</ele>
        <time>2021-10-31T07:41:33.000Z</time>
      </trkpt>
      <trkpt lat="44.01202" lon="2.58949">
        <ele>322</ele>
        <time>2021-10-31T07:41:34.000Z</time>
      </trkpt>
      <trkpt lat="44.01204" lon="2.58949">
        <ele>323</ele>
        <time>2021-10-31T07:41:35.000Z</time>
      </trkpt>
      <trkpt lat="44.01205" lon="2.58949">
        <ele>323</ele>
        <time>2021-10-31T07:41:36.000Z</time>
      </trkpt>
      <trkpt lat="44.01207" lon="2.58949">
        <ele>323</ele>
        <time>2021-10-31T07:41:37.000Z</time>
      </trkpt>
      <trkpt lat="44.01208" lon="2.58949">
        <ele>323</ele>
        <time>2021-10-31T07:41:38.000Z</time>
      </trkpt>
      <trkpt lat="44.01209" lon="2.58949">
        <ele>324</ele>
        <time>2021-10-31T07:41:39.000Z</time>
      </trkpt>
      <trkpt lat="44.0121" lon="2.58949">
        <ele>324</ele>
        <time>2021-10-31T07:41:40.000Z</time>
      </trkpt>
      <trkpt lat="44.01211" lon="2.58949">
        <ele>324</ele>
        <time>2021-10-31T07:41:41.000Z</time>
      </trkpt>
      <trkpt lat="44.01212" lon="2.58949">
        <ele>325</ele>
        <time>2021-10-31T07:41:42.000Z</time>
      </trkpt>
      <trkpt lat="44.01213" lon="2.58949">
        <ele>325</ele>
        <time>2021-10-31T07:41:43.000Z</time>
      </trkpt>
      <trkpt lat="44.01214" lon="2.58949">
        <ele>325</ele>
        <time>2021-10-31T07:41:44.000Z</time>
      </trkpt>
      <trkpt lat="44.01215" lon="2.58949">
        <ele>325</ele>
        <time>2021-10-31T07:41:45.000Z</time>
      </trkpt>
      <trkpt lat="44.01216" lon="2.58949">
        <ele>326</ele>
        <time>2021-10-31T07:41:46.000Z</time>
      </trkpt>
      <trkpt lat="44.01218" lon="2.58949">
        <ele>326</ele>
        <time>2021-10-31T07:41:47.000Z</time>
      </trkpt>
      <trkpt lat="44.01219" lon="2.58948">
        <ele>326</ele>
        <time>2021-10-31T07:41:48.000Z</time>
      </trkpt>
      <trkpt lat="44.0122" lon="2.58948">
        <ele>327</ele>
        <time>2021-10-31T07:41:49.000Z</time>
      </trkpt>
      <trkpt lat="44.01221" lon="2.58948">
        <ele>327</ele>
        <time>2021-10-31T07:41:50.000Z</time>
      </trkpt>
      <trkpt lat="44.01223" lon="2.58948">
        <ele>327</ele>
        <time>2021-10-31T07:41:51.000Z</time>
      </trkpt>
      <trkpt lat="44.01224" lon="2.58948">
        <ele>327</ele>
        <time>2021-10-31T07:41:52.000Z</time>
      </trkpt>
      <trkpt lat="44.01225" lon="2.58948">
        <ele>328</ele>
        <time>2021-10-31T07:41:53.000Z</time>
      </trkpt>
      <trkpt lat="44.01227" lon="2.58947">
        <ele>328</ele>
        <time>2021-10-31T07:41:54.000Z</time>
      </trkpt>
      <trkpt lat="44.01228" lon="2.58947">
        <ele>328</ele>
        <time>2021-10-31T07:41:55.000Z</time>
      </trkpt>
      <trkpt lat="44.01229" lon="2.58947">
        <ele>328</ele>
        <time>2021-10-31T07:41:56.000Z</time>
      </trkpt>
      <trkpt lat="44.0123" lon="2.58947">
        <ele>328</ele>
        <time>2021-10-31T07:41:57.000Z</time>
      </trkpt>
      <trkpt lat="44.01231" lon="2.58947">
        <ele>329</ele>
        <time>2021-10-31T07:41:58.000Z</time>
      </trkpt>
      <trkpt lat="44.01232" lon="2.58947">
        <ele>329</ele>
        <time>2021-10-31T07:41:59.000Z</time>
      </trkpt>
      <trkpt lat="44.01233" lon="2.58947">
        <ele>329</ele>
        <time>2021-10-31T07:42:00.000Z</time>
      </trkpt>
      <trkpt lat="44.01235" lon="2.58946">
        <ele>329</ele>
        <time>2021-10-31T07:42:01.000Z</time>
      </trkpt>
      <trkpt lat="44.01236" lon="2.58946">
        <ele>329</ele>
        <time>2021-10-31T07:42:02.000Z</time>
      </trkpt>
      <trkpt lat="44.01237" lon="2.58946">
        <ele>329</ele>
        <time>2021-10-31T07:42:03.000Z</time>
      </trkpt>
      <trkpt lat="44.01238" lon="2.58946">
        <ele>329</ele>
        <time>2021-10-31T07:42:04.000Z</time>
      </trkpt>
      <trkpt lat="44.01239" lon="2.58947">
        <ele>329</ele>
        <time>2021-10-31T07:42:05.000Z</time>
      </trkpt>
      <trkpt lat="44.0124" lon="2.58947">
        <ele>329</ele>
        <time>2021-10-31T07:42:06.000Z</time>
      </trkpt>
      <trkpt lat="44.01241" lon="2.58946">
        <ele>329</ele>
        <time>2021-10-31T07:42:07.000Z</time>
      </trkpt>
      <trkpt lat="44.01242" lon="2.58946">
        <ele>329</ele>
        <time>2021-10-31T07:42:08.000Z</time>
      </trkpt>
      <trkpt lat="44.01243" lon="2.58946">
        <ele>330</ele>
        <time>2021-10-31T07:42:09.000Z</time>
      </trkpt>
      <trkpt lat="44.01245" lon="2.58946">
        <ele>330</ele>
        <time>2021-10-31T07:42:10.000Z</time>
      </trkpt>
      <trkpt lat="44.01246" lon="2.58946">
        <ele>330</ele>
        <time>2021-10-31T07:42:11.000Z</time>
      </trkpt>
      <trkpt lat="44.01247" lon="2.58945">
        <ele>330</ele>
        <time>2021-10-31T07:42:12.000Z</time>
      </trkpt>
      <trkpt lat="44.01248" lon="2.58945">
        <ele>330</ele>
        <time>2021-10-31T07:42:13.000Z</time>
      </trkpt>
      <trkpt lat="44.01249" lon="2.58945">
        <ele>330</ele>
        <time>2021-10-31T07:42:14.000Z</time>
      </trkpt>
      <trkpt lat="44.0125" lon="2.58945">
        <ele>330</ele>
        <time>2021-10-31T07:42:15.000Z</time>
      </trkpt>
      <trkpt lat="44.01252" lon="2.58946">
        <ele>330</ele>
        <time>2021-10-31T07:42:16.000Z</time>
      </trkpt>
      <trkpt lat="44.01253" lon="2.58946">
        <ele>330</ele>
        <time>2021-10-31T07:42:17.000Z</time>
      </trkpt>
      <trkpt lat="44.01254" lon="2.58946">
        <ele>330</ele>
        <time>2021-10-31T07:42:18.000Z</time>
      </trkpt>
      <trkpt lat="44.01256" lon="2.58947">
        <ele>330</ele>
        <time>2021-10-31T07:42:19.000Z</time>
      </trkpt>
      <trkpt lat="44.01257" lon="2.58947">
        <ele>330</ele>
        <time>2021-10-31T07:42:20.000Z</time>
      </trkpt>
      <trkpt lat="44.01258" lon="2.58948">
        <ele>330</ele>
        <time>2021-10-31T07:42:21.000Z</time>
      </trkpt>
      <trkpt lat="44.01259" lon="2.58948">
        <ele>330</ele>
        <time>2021-10-31T07:42:22.000Z</time>
      </trkpt>
      <trkpt lat="44.0126" lon="2.58949">
        <ele>330</ele>
        <time>2021-10-31T07:42:23.000Z</time>
      </trkpt>
      <trkpt lat="44.01261" lon="2.5895">
        <ele>331</ele>
        <time>2021-10-31T07:42:24.000Z</time>
      </trkpt>
      <trkpt lat="44.01263" lon="2.58951">
        <ele>331</ele>
        <time>2021-10-31T07:42:25.000Z</time>
      </trkpt>
      <trkpt lat="44.01264" lon="2.58952">
        <ele>331</ele>
        <time>2021-10-31T07:42:26.000Z</time>
      </trkpt>
      <trkpt lat="44.01265" lon="2.58953">
        <ele>330</ele>
        <time>2021-10-31T07:42:27.000Z</time>
      </trkpt>
      <trkpt lat="44.01266" lon="2.58954">
        <ele>330</ele>
        <time>2021-10-31T07:42:28.000Z</time>
      </trkpt>
      <trkpt lat="44.01267" lon="2.58955">
        <ele>330</ele>
        <time>2021-10-31T07:42:29.000Z</time>
      </trkpt>
      <trkpt lat="44.01268" lon="2.58956">
        <ele>330</ele>
        <time>2021-10-31T07:42:30.000Z</time>
      </trkpt>
      <trkpt lat="44.01268" lon="2.58956">
        <ele>329</ele>
        <time>2021-10-31T07:42:31.000Z</time>
      </trkpt>
      <trkpt lat="44.0127" lon="2.58957">
        <ele>329</ele>
        <time>2021-10-31T07:42:32.000Z</time>
      </trkpt>
      <trkpt lat="44.01271" lon="2.58958">
        <ele>329</ele>
        <time>2021-10-31T07:42:33.000Z</time>
      </trkpt>
      <trkpt lat="44.01272" lon="2.58959">
        <ele>329</ele>
        <time>2021-10-31T07:42:34.000Z</time>
      </trkpt>
      <trkpt lat="44.01273" lon="2.5896">
        <ele>329</ele>
        <time>2021-10-31T07:42:35.000Z</time>
      </trkpt>
      <trkpt lat="44.01274" lon="2.58961">
        <ele>328</ele>
        <time>2021-10-31T07:42:36.000Z</time>
      </trkpt>
      <trkpt lat="44.01275" lon="2.58961">
        <ele>328</ele>
        <time>2021-10-31T07:42:37.000Z</time>
      </trkpt>
      <trkpt lat="44.01276" lon="2.58961">
        <ele>328</ele>
        <time>2021-10-31T07:42:38.000Z</time>
      </trkpt>
      <trkpt lat="44.01276" lon="2.58962">
        <ele>328</ele>
        <time>2021-10-31T07:42:39.000Z</time>
      </trkpt>
      <trkpt lat="44.01277" lon="2.58962">
        <ele>328</ele>
        <time>2021-10-31T07:42:40.000Z</time>
      </trkpt>
      <trkpt lat="44.01277" lon="2.58963">
        <ele>328</ele>
        <time>2021-10-31T07:42:41.000Z</time>
      </trkpt>
      <trkpt lat="44.01278" lon="2.58963">
        <ele>328</ele>
        <time>2021-10-31T07:42:42.000Z</time>
      </trkpt>
      <trkpt lat="44.01279" lon="2.58963">
        <ele>328</ele>
        <time>2021-10-31T07:42:43.000Z</time>
      </trkpt>
      <trkpt lat="44.0128" lon="2.58963">
        <ele>327</ele>
        <time>2021-10-31T07:42:44.000Z</time>
      </trkpt>
      <trkpt lat="44.01281" lon="2.58963">
        <ele>327</ele>
        <time>2021-10-31T07:42:45.000Z</time>
      </trkpt>
      <trkpt lat="44.01282" lon="2.58963">
        <ele>327</ele>
        <time>2021-10-31T07:42:46.000Z</time>
      </trkpt>
      <trkpt lat="44.01283" lon="2.58963">
        <ele>327</ele>
        <time>2021-10-31T07:42:47.000Z</time>
      </trkpt>
      <trkpt lat="44.01283" lon="2.58964">
        <ele>327</ele>
        <time>2021-10-31T07:42:48.000Z</time>
      </trkpt>
      <trkpt lat="44.01283" lon="2.58964">
        <ele>326</ele>
        <time>2021-10-31T07:42:49.000Z</time>
      </trkpt>
      <trkpt lat="44.01284" lon="2.58964">
        <ele>326</ele>
        <time>2021-10-31T07:42:50.000Z</time>
      </trkpt>
      <trkpt lat="44.01287" lon="2.5897">
        <ele>323</ele>
        <time>2021-10-31T07:42:51.000Z</time>
      </trkpt>
      <trkpt lat="44.01288" lon="2.58969">
        <ele>323</ele>
        <time>2021-10-31T07:42:52.000Z</time>
      </trkpt>
      <trkpt lat="44.01289" lon="2.58969">
        <ele>323</ele>
        <time>2021-10-31T07:42:53.000Z</time>
      </trkpt>
      <trkpt lat="44.0129" lon="2.58969">
        <ele>323</ele>
        <time>2021-10-31T07:42:54.000Z</time>
      </trkpt>
      <trkpt lat="44.01291" lon="2.58969">
        <ele>323</ele>
        <time>2021-10-31T07:42:55.000Z</time>
      </trkpt>
      <trkpt lat="44.01292" lon="2.58969">
        <ele>323</ele>
        <time>2021-10-31T07:42:56.000Z</time>
      </trkpt>
      <trkpt lat="44.01293" lon="2.58969">
        <ele>322</ele>
        <time>2021-10-31T07:42:57.000Z</time>
      </trkpt>
      <trkpt lat="44.01294" lon="2.58969">
        <ele>322</ele>
        <time>2021-10-31T07:42:58.000Z</time>
      </trkpt>
      <trkpt lat="44.01295" lon="2.58968">
        <ele>322</ele>
        <time>2021-10-31T07:42:59.000Z</time>
      </trkpt>
      <trkpt lat="44.01297" lon="2.58968">
        <ele>322</ele>
        <time>2021-10-31T07:43:00.000Z</time>
      </trkpt>
      <trkpt lat="44.01298" lon="2.58968">
        <ele>322</ele>
        <time>2021-10-31T07:43:01.000Z</time>
      </trkpt>
      <trkpt lat="44.01299" lon="2.58968">
        <ele>322</ele>
        <time>2021-10-31T07:43:02.000Z</time>
      </trkpt>
      <trkpt lat="44.013" lon="2.58968">
        <ele>322</ele>
        <time>2021-10-31T07:43:03.000Z</time>
      </trkpt>
      <trkpt lat="44.01302" lon="2.58968">
        <ele>322</ele>
        <time>2021-10-31T07:43:04.000Z</time>
      </trkpt>
      <trkpt lat="44.01303" lon="2.58968">
        <ele>322</ele>
        <time>2021-10-31T07:43:05.000Z</time>
      </trkpt>
      <trkpt lat="44.01304" lon="2.58968">
        <ele>322</ele>
        <time>2021-10-31T07:43:06.000Z</time>
      </trkpt>
      <trkpt lat="44.01306" lon="2.58968">
        <ele>322</ele>
        <time>2021-10-31T07:43:07.000Z</time>
      </trkpt>
      <trkpt lat="44.01307" lon="2.58968">
        <ele>321</ele>
        <time>2021-10-31T07:43:08.000Z</time>
      </trkpt>
      <trkpt lat="44.01308" lon="2.58967">
        <ele>321</ele>
        <time>2021-10-31T07:43:09.000Z</time>
      </trkpt>
      <trkpt lat="44.01309" lon="2.58967">
        <ele>321</ele>
        <time>2021-10-31T07:43:10.000Z</time>
      </trkpt>
      <trkpt lat="44.0131" lon="2.58966">
        <ele>321</ele>
        <time>2021-10-31T07:43:11.000Z</time>
      </trkpt>
      <trkpt lat="44.01311" lon="2.58965">
        <ele>321</ele>
        <time>2021-10-31T07:43:12.000Z</time>
      </trkpt>
      <trkpt lat="44.01313" lon="2.58965">
        <ele>321</ele>
        <time>2021-10-31T07:43:13.000Z</time>
      </trkpt>
      <trkpt lat="44.01314" lon="2.58964">
        <ele>321</ele>
        <time>2021-10-31T07:43:14.000Z</time>
      </trkpt>
      <trkpt lat="44.01315" lon="2.58964">
        <ele>321</ele>
        <time>2021-10-31T07:43:15.000Z</time>
      </trkpt>
      <trkpt lat="44.01316" lon="2.58964">
        <ele>321</ele>
        <time>2021-10-31T07:43:16.000Z</time>
      </trkpt>
      <trkpt lat="44.01317" lon="2.58964">
        <ele>321</ele>
        <time>2021-10-31T07:43:17.000Z</time>
      </trkpt>
      <trkpt lat="44.01318" lon="2.58964">
        <ele>321</ele>
        <time>2021-10-31T07:43:18.000Z</time>
      </trkpt>
      <trkpt lat="44.01319" lon="2.58963">
        <ele>321</ele>
        <time>2021-10-31T07:43:19.000Z</time>
      </trkpt>
      <trkpt lat="44.01321" lon="2.58963">
        <ele>321</ele>
        <time>2021-10-31T07:43:20.000Z</time>
      </trkpt>
      <trkpt lat="44.01322" lon="2.58964">
        <ele>321</ele>
        <time>2021-10-31T07:43:21.000Z</time>
      </trkpt>
      <trkpt lat="44.01322" lon="2.58964">
        <ele>321</ele>
        <time>2021-10-31T07:43:22.000Z</time>
      </trkpt>
      <trkpt lat="44.01323" lon="2.58964">
        <ele>320</ele>
        <time>2021-10-31T07:43:23.000Z</time>
      </trkpt>
      <trkpt lat="44.01324" lon="2.58964">
        <ele>320</ele>
        <time>2021-10-31T07:43:24.000Z</time>
      </trkpt>
      <trkpt lat="44.01325" lon="2.58965">
        <ele>320</ele>
        <time>2021-10-31T07:43:25.000Z</time>
      </trkpt>
      <trkpt lat="44.01326" lon="2.58965">
        <ele>320</ele>
        <time>2021-10-31T07:43:26.000Z</time>
      </trkpt>
      <trkpt lat="44.01328" lon="2.58965">
        <ele>320</ele>
        <time>2021-10-31T07:43:27.000Z</time>
      </trkpt>
      <trkpt lat="44.01329" lon="2.58966">
        <ele>320</ele>
        <time>2021-10-31T07:43:28.000Z</time>
      </trkpt>
      <trkpt lat="44.0133" lon="2.58966">
        <ele>320</ele>
        <time>2021-10-31T07:43:29.000Z</time>
      </trkpt>
      <trkpt lat="44.01331" lon="2.58966">
        <ele>320</ele>
        <time>2021-10-31T07:43:30.000Z</time>
      </trkpt>
      <trkpt lat="44.01332" lon="2.58966">
        <ele>320</ele>
        <time>2021-10-31T07:43:31.000Z</time>
      </trkpt>
      <trkpt lat="44.01333" lon="2.58966">
        <ele>320</ele>
        <time>2021-10-31T07:43:32.000Z</time>
      </trkpt>
      <trkpt lat="44.01334" lon="2.58967">
        <ele>320</ele>
        <time>2021-10-31T07:43:33.000Z</time>
      </trkpt>
      <trkpt lat="44.01335" lon="2.58967">
        <ele>320</ele>
        <time>2021-10-31T07:43:34.000Z</time>
      </trkpt>
      <trkpt lat="44.01336" lon="2.58967">
        <ele>320</ele>
        <time>2021-10-31T07:43:35.000Z</time>
      </trkpt>
      <trkpt lat="44.01337" lon="2.58967">
        <ele>320</ele>
        <time>2021-10-31T07:43:36.000Z</time>
      </trkpt>
      <trkpt lat="44.01338" lon="2.58967">
        <ele>320</ele>
        <time>2021-10-31T07:43:37.000Z</time>
      </trkpt>
      <trkpt lat="44.0134" lon="2.58967">
        <ele>320</ele>
        <time>2021-10-31T07:43:38.000Z</time>
      </trkpt>
      <trkpt lat="44.01341" lon="2.58967">
        <ele>320</ele>
        <time>2021-10-31T07:43:39.000Z</time>
      </trkpt>
      <trkpt lat="44.01342" lon="2.58967">
        <ele>320</ele>
        <time>2021-10-31T07:43:40.000Z</time>
      </trkpt>
      <trkpt lat="44.01343" lon="2.58967">
        <ele>320</ele>
        <time>2021-10-31T07:43:41.000Z</time>
      </trkpt>
      <trkpt lat="44.01345" lon="2.58968">
        <ele>320</ele>
        <time>2021-10-31T07:43:42.000Z</time>
      </trkpt>
      <trkpt lat="44.01346" lon="2.58968">
        <ele>320</ele>
        <time>2021-10-31T07:43:43.000Z</time>
      </trkpt>
      <trkpt lat="44.01347" lon="2.58969">
        <ele>320</ele>
        <time>2021-10-31T07:43:44.000Z</time>
      </trkpt>
      <trkpt lat="44.01348" lon="2.58969">
        <ele>320</ele>
        <time>2021-10-31T07:43:45.000Z</time>
      </trkpt>
      <trkpt lat="44.01349" lon="2.5897">
        <ele>320</ele>
        <time>2021-10-31T07:43:46.000Z</time>
      </trkpt>
      <trkpt lat="44.0135" lon="2.5897">
        <ele>320</ele>
        <time>2021-10-31T07:43:47.000Z</time>
      </trkpt>
      <trkpt lat="44.01351" lon="2.58971">
        <ele>320</ele>
        <time>2021-10-31T07:43:48.000Z</time>
      </trkpt>
      <trkpt lat="44.01351" lon="2.58972">
        <ele>320</ele>
        <time>2021-10-31T07:43:49.000Z</time>
      </trkpt>
      <trkpt lat="44.01352" lon="2.58973">
        <ele>320</ele>
        <time>2021-10-31T07:43:50.000Z</time>
      </trkpt>
      <trkpt lat="44.01353" lon="2.58974">
        <ele>320</ele>
        <time>2021-10-31T07:43:51.000Z</time>
      </trkpt>
      <trkpt lat="44.01354" lon="2.58974">
        <ele>320</ele>
        <time>2021-10-31T07:43:52.000Z</time>
      </trkpt>
      <trkpt lat="44.01355" lon="2.58975">
        <ele>320</ele>
        <time>2021-10-31T07:43:53.000Z</time>
      </trkpt>
      <trkpt lat="44.01355" lon="2.58975">
        <ele>320</ele>
        <time>2021-10-31T07:43:54.000Z</time>
      </trkpt>
      <trkpt lat="44.01356" lon="2.58976">
        <ele>320</ele>
        <time>2021-10-31T07:43:55.000Z</time>
      </trkpt>
      <trkpt lat="44.01357" lon="2.58976">
        <ele>320</ele>
        <time>2021-10-31T07:43:56.000Z</time>
      </trkpt>
      <trkpt lat="44.01358" lon="2.58977">
        <ele>320</ele>
        <time>2021-10-31T07:43:57.000Z</time>
      </trkpt>
      <trkpt lat="44.01358" lon="2.58978">
        <ele>320</ele>
        <time>2021-10-31T07:43:58.000Z</time>
      </trkpt>
      <trkpt lat="44.01359" lon="2.58979">
        <ele>320</ele>
        <time>2021-10-31T07:43:59.000Z</time>
      </trkpt>
      <trkpt lat="44.01359" lon="2.58979">
        <ele>320</ele>
        <time>2021-10-31T07:44:00.000Z</time>
      </trkpt>
      <trkpt lat="44.0136" lon="2.5898">
        <ele>320</ele>
        <time>2021-10-31T07:44:01.000Z</time>
      </trkpt>
      <trkpt lat="44.01361" lon="2.5898">
        <ele>320</ele>
        <time>2021-10-31T07:44:02.000Z</time>
      </trkpt>
      <trkpt lat="44.01361" lon="2.58981">
        <ele>320</ele>
        <time>2021-10-31T07:44:03.000Z</time>
      </trkpt>
      <trkpt lat="44.01361" lon="2.58982">
        <ele>320</ele>
        <time>2021-10-31T07:44:04.000Z</time>
      </trkpt>
      <trkpt lat="44.01362" lon="2.58983">
        <ele>320</ele>
        <time>2021-10-31T07:44:05.000Z</time>
      </trkpt>
      <trkpt lat="44.01363" lon="2.58983">
        <ele>320</ele>
        <time>2021-10-31T07:44:06.000Z</time>
      </trkpt>
      <trkpt lat="44.01364" lon="2.58984">
        <ele>320</ele>
        <time>2021-10-31T07:44:07.000Z</time>
      </trkpt>
      <trkpt lat="44.01365" lon="2.58984">
        <ele>320</ele>
        <time>2021-10-31T07:44:08.000Z</time>
      </trkpt>
      <trkpt lat="44.01366" lon="2.58985">
        <ele>320</ele>
        <time>2021-10-31T07:44:09.000Z</time>
      </trkpt>
      <trkpt lat="44.01367" lon="2.58986">
        <ele>320</ele>
        <time>2021-10-31T07:44:10.000Z</time>
      </trkpt>
      <trkpt lat="44.01368" lon="2.58986">
        <ele>320</ele>
        <time>2021-10-31T07:44:11.000Z</time>
      </trkpt>
      <trkpt lat="44.01369" lon="2.58987">
        <ele>320</ele>
        <time>2021-10-31T07:44:12.000Z</time>
      </trkpt>
      <trkpt lat="44.0137" lon="2.58987">
        <ele>321</ele>
        <time>2021-10-31T07:44:13.000Z</time>
      </trkpt>
      <trkpt lat="44.01371" lon="2.58987">
        <ele>321</ele>
        <time>2021-10-31T07:44:14.000Z</time>
      </trkpt>
      <trkpt lat="44.01372" lon="2.58987">
        <ele>321</ele>
        <time>2021-10-31T07:44:15.000Z</time>
      </trkpt>
      <trkpt lat="44.01373" lon="2.58987">
        <ele>321</ele>
        <time>2021-10-31T07:44:16.000Z</time>
      </trkpt>
      <trkpt lat="44.01374" lon="2.58986">
        <ele>321</ele>
        <time>2021-10-31T07:44:17.000Z</time>
      </trkpt>
      <trkpt lat="44.01376" lon="2.58986">
        <ele>321</ele>
        <time>2021-10-31T07:44:18.000Z</time>
      </trkpt>
      <trkpt lat="44.01377" lon="2.58986">
        <ele>321</ele>
        <time>2021-10-31T07:44:19.000Z</time>
      </trkpt>
      <trkpt lat="44.01378" lon="2.58986">
        <ele>321</ele>
        <time>2021-10-31T07:44:20.000Z</time>
      </trkpt>
      <trkpt lat="44.01379" lon="2.58986">
        <ele>321</ele>
        <time>2021-10-31T07:44:21.000Z</time>
      </trkpt>
      <trkpt lat="44.0138" lon="2.58986">
        <ele>321</ele>
        <time>2021-10-31T07:44:22.000Z</time>
      </trkpt>
      <trkpt lat="44.01381" lon="2.58986">
        <ele>321</ele>
        <time>2021-10-31T07:44:23.000Z</time>
      </trkpt>
      <trkpt lat="44.01383" lon="2.58986">
        <ele>321</ele>
        <time>2021-10-31T07:44:24.000Z</time>
      </trkpt>
      <trkpt lat="44.01384" lon="2.58987">
        <ele>321</ele>
        <time>2021-10-31T07:44:25.000Z</time>
      </trkpt>
      <trkpt lat="44.01385" lon="2.58987">
        <ele>321</ele>
        <time>2021-10-31T07:44:26.000Z</time>
      </trkpt>
      <trkpt lat="44.01385" lon="2.58987">
        <ele>321</ele>
        <time>2021-10-31T07:44:27.000Z</time>
      </trkpt>
      <trkpt lat="44.01386" lon="2.58986">
        <ele>321</ele>
        <time>2021-10-31T07:44:28.000Z</time>
      </trkpt>
      <trkpt lat="44.01387" lon="2.58986">
        <ele>321</ele>
        <time>2021-10-31T07:44:29.000Z</time>
      </trkpt>
      <trkpt lat="44.01388" lon="2.58985">
        <ele>321</ele>
        <time>2021-10-31T07:44:30.000Z</time>
      </trkpt>
      <trkpt lat="44.01389" lon="2.58985">
        <ele>322</ele>
        <time>2021-10-31T07:44:31.000Z</time>
      </trkpt>
      <trkpt lat="44.01389" lon="2.58985">
        <ele>322</ele>
        <time>2021-10-31T07:44:32.000Z</time>
      </trkpt>
      <trkpt lat="44.0139" lon="2.58985">
        <ele>322</ele>
        <time>2021-10-31T07:44:33.000Z</time>
      </trkpt>
      <trkpt lat="44.01403" lon="2.58985">
        <ele>324</ele>
        <time>2021-10-31T07:44:34.000Z</time>
      </trkpt>
      <trkpt lat="44.01403" lon="2.58985">
        <ele>324</ele>
        <time>2021-10-31T07:44:35.000Z</time>
      </trkpt>
      <trkpt lat="44.01404" lon="2.58985">
        <ele>324</ele>
        <time>2021-10-31T07:44:36.000Z</time>
      </trkpt>
      <trkpt lat="44.01405" lon="2.58985">
        <ele>324</ele>
        <time>2021-10-31T07:44:37.000Z</time>
      </trkpt>
      <trkpt lat="44.01406" lon="2.58986">
        <ele>324</ele>
        <time>2021-10-31T07:44:38.000Z</time>
      </trkpt>
      <trkpt lat="44.01406" lon="2.58986">
        <ele>324</ele>
        <time>2021-10-31T07:44:39.000Z</time>
      </trkpt>
      <trkpt lat="44.01406" lon="2.58986">
        <ele>324</ele>
        <time>2021-10-31T07:44:40.000Z</time>
      </trkpt>
      <trkpt lat="44.01408" lon="2.58986">
        <ele>325</ele>
        <time>2021-10-31T07:44:41.000Z</time>
      </trkpt>
      <trkpt lat="44.01409" lon="2.58986">
        <ele>325</ele>
        <time>2021-10-31T07:44:42.000Z</time>
      </trkpt>
      <trkpt lat="44.01409" lon="2.58987">
        <ele>325</ele>
        <time>2021-10-31T07:44:43.000Z</time>
      </trkpt>
      <trkpt lat="44.0141" lon="2.58987">
        <ele>325</ele>
        <time>2021-10-31T07:44:44.000Z</time>
      </trkpt>
      <trkpt lat="44.01409" lon="2.58988">
        <ele>325</ele>
        <time>2021-10-31T07:44:45.000Z</time>
      </trkpt>
      <trkpt lat="44.01409" lon="2.58989">
        <ele>325</ele>
        <time>2021-10-31T07:44:46.000Z</time>
      </trkpt>
      <trkpt lat="44.01409" lon="2.5899">
        <ele>325</ele>
        <time>2021-10-31T07:44:47.000Z</time>
      </trkpt>
      <trkpt lat="44.01409" lon="2.58991">
        <ele>325</ele>
        <time>2021-10-31T07:44:48.000Z</time>
      </trkpt>
      <trkpt lat="44.01409" lon="2.58992">
        <ele>325</ele>
        <time>2021-10-31T07:44:49.000Z</time>
      </trkpt>
      <trkpt lat="44.01409" lon="2.58993">
        <ele>324</ele>
        <time>2021-10-31T07:44:50.000Z</time>
      </trkpt>
      <trkpt lat="44.01408" lon="2.58993">
        <ele>324</ele>
        <time>2021-10-31T07:44:51.000Z</time>
      </trkpt>
      <trkpt lat="44.01408" lon="2.58994">
        <ele>324</ele>
        <time>2021-10-31T07:44:52.000Z</time>
      </trkpt>
      <trkpt lat="44.01407" lon="2.58995">
        <ele>324</ele>
        <time>2021-10-31T07:44:53.000Z</time>
      </trkpt>
      <trkpt lat="44.01407" lon="2.58995">
        <ele>324</ele>
        <time>2021-10-31T07:44:54.000Z</time>
      </trkpt>
      <trkpt lat="44.01406" lon="2.58996">
        <ele>324</ele>
        <time>2021-10-31T07:44:55.000Z</time>
      </trkpt>
      <trkpt lat="44.01405" lon="2.58996">
        <ele>323</ele>
        <time>2021-10-31T07:44:56.000Z</time>
      </trkpt>
      <trkpt lat="44.01405" lon="2.58997">
        <ele>323</ele>
        <time>2021-10-31T07:44:57.000Z</time>
      </trkpt>
      <trkpt lat="44.01404" lon="2.58997">
        <ele>323</ele>
        <time>2021-10-31T07:44:58.000Z</time>
      </trkpt>
      <trkpt lat="44.01403" lon="2.58998">
        <ele>322</ele>
        <time>2021-10-31T07:44:59.000Z</time>
      </trkpt>
      <trkpt lat="44.01402" lon="2.58998">
        <ele>322</ele>
        <time>2021-10-31T07:45:00.000Z</time>
      </trkpt>
      <trkpt lat="44.01401" lon="2.58998">
        <ele>322</ele>
        <time>2021-10-31T07:45:01.000Z</time>
      </trkpt>
      <trkpt lat="44.01401" lon="2.58998">
        <ele>321</ele>
        <time>2021-10-31T07:45:02.000Z</time>
      </trkpt>
      <trkpt lat="44.014" lon="2.58999">
        <ele>321</ele>
        <time>2021-10-31T07:45:03.000Z</time>
      </trkpt>
      <trkpt lat="44.01399" lon="2.58999">
        <ele>321</ele>
        <time>2021-10-31T07:45:04.000Z</time>
      </trkpt>
      <trkpt lat="44.01398" lon="2.58998">
        <ele>320</ele>
        <time>2021-10-31T07:45:05.000Z</time>
      </trkpt>
      <trkpt lat="44.01397" lon="2.58998">
        <ele>320</ele>
        <time>2021-10-31T07:45:06.000Z</time>
      </trkpt>
      <trkpt lat="44.01396" lon="2.58998">
        <ele>320</ele>
        <time>2021-10-31T07:45:07.000Z</time>
      </trkpt>
      <trkpt lat="44.01396" lon="2.58999">
        <ele>319</ele>
        <time>2021-10-31T07:45:08.000Z</time>
      </trkpt>
      <trkpt lat="44.01395" lon="2.58999">
        <ele>319</ele>
        <time>2021-10-31T07:45:09.000Z</time>
      </trkpt>
      <trkpt lat="44.01394" lon="2.58999">
        <ele>319</ele>
        <time>2021-10-31T07:45:10.000Z</time>
      </trkpt>
      <trkpt lat="44.01393" lon="2.58999">
        <ele>319</ele>
        <time>2021-10-31T07:45:11.000Z</time>
      </trkpt>
      <trkpt lat="44.01392" lon="2.58999">
        <ele>318</ele>
        <time>2021-10-31T07:45:12.000Z</time>
      </trkpt>
      <trkpt lat="44.01391" lon="2.58999">
        <ele>318</ele>
        <time>2021-10-31T07:45:13.000Z</time>
      </trkpt>
      <trkpt lat="44.0139" lon="2.59">
        <ele>318</ele>
        <time>2021-10-31T07:45:14.000Z</time>
      </trkpt>
      <trkpt lat="44.01389" lon="2.59">
        <ele>317</ele>
        <time>2021-10-31T07:45:15.000Z</time>
      </trkpt>
      <trkpt lat="44.01388" lon="2.59001">
        <ele>317</ele>
        <time>2021-10-31T07:45:16.000Z</time>
      </trkpt>
      <trkpt lat="44.01388" lon="2.59001">
        <ele>317</ele>
        <time>2021-10-31T07:45:17.000Z</time>
      </trkpt>
      <trkpt lat="44.01387" lon="2.59001">
        <ele>317</ele>
        <time>2021-10-31T07:45:18.000Z</time>
      </trkpt>
      <trkpt lat="44.01386" lon="2.59002">
        <ele>316</ele>
        <time>2021-10-31T07:45:19.000Z</time>
      </trkpt>
      <trkpt lat="44.01385" lon="2.59002">
        <ele>316</ele>
        <time>2021-10-31T07:45:20.000Z</time>
      </trkpt>
      <trkpt lat="44.01384" lon="2.59003">
        <ele>316</ele>
        <time>2021-10-31T07:45:21.000Z</time>
      </trkpt>
      <trkpt lat="44.01384" lon="2.59003">
        <ele>315</ele>
        <time>2021-10-31T07:45:22.000Z</time>
      </trkpt>
      <trkpt lat="44.01383" lon="2.59004">
        <ele>315</ele>
        <time>2021-10-31T07:45:23.000Z</time>
      </trkpt>
      <trkpt lat="44.01382" lon="2.59004">
        <ele>315</ele>
        <time>2021-10-31T07:45:24.000Z</time>
      </trkpt>
      <trkpt lat="44.01381" lon="2.59005">
        <ele>315</ele>
        <time>2021-10-31T07:45:25.000Z</time>
      </trkpt>
      <trkpt lat="44.0138" lon="2.59005">
        <ele>314</ele>
        <time>2021-10-31T07:45:26.000Z</time>
      </trkpt>
      <trkpt lat="44.01379" lon="2.59006">
        <ele>314</ele>
        <time>2021-10-31T07:45:27.000Z</time>
      </trkpt>
      <trkpt lat="44.01378" lon="2.59006">
        <ele>314</ele>
        <time>2021-10-31T07:45:28.000Z</time>
      </trkpt>
      <trkpt lat="44.01377" lon="2.59007">
        <ele>313</ele>
        <time>2021-10-31T07:45:29.000Z</time>
      </trkpt>
      <trkpt lat="44.01376" lon="2.59007">
        <ele>313</ele>
        <time>2021-10-31T07:45:30.000Z</time>
      </trkpt>
      <trkpt lat="44.01375" lon="2.59008">
        <ele>313</ele>
        <time>2021-10-31T07:45:31.000Z</time>
      </trkpt>
      <trkpt lat="44.01374" lon="2.59009">
        <ele>313</ele>
        <time>2021-10-31T07:45:32.000Z</time>
      </trkpt>
      <trkpt lat="44.01373" lon="2.59009">
        <ele>313</ele>
        <time>2021-10-31T07:45:33.000Z</time>
      </trkpt>
      <trkpt lat="44.01373" lon="2.5901">
        <ele>313</ele>
        <time>2021-10-31T07:45:34.000Z</time>
      </trkpt>
      <trkpt lat="44.01372" lon="2.5901">
        <ele>312</ele>
        <time>2021-10-31T07:45:35.000Z</time>
      </trkpt>
      <trkpt lat="44.01371" lon="2.59011">
        <ele>312</ele>
        <time>2021-10-31T07:45:36.000Z</time>
      </trkpt>
      <trkpt lat="44.0137" lon="2.59011">
        <ele>312</ele>
        <time>2021-10-31T07:45:37.000Z</time>
      </trkpt>
      <trkpt lat="44.0137" lon="2.59012">
        <ele>312</ele>
        <time>2021-10-31T07:45:38.000Z</time>
      </trkpt>
      <trkpt lat="44.01369" lon="2.59012">
        <ele>312</ele>
        <time>2021-10-31T07:45:39.000Z</time>
      </trkpt>
      <trkpt lat="44.01368" lon="2.59013">
        <ele>312</ele>
        <time>2021-10-31T07:45:40.000Z</time>
      </trkpt>
      <trkpt lat="44.01368" lon="2.59013">
        <ele>311</ele>
        <time>2021-10-31T07:45:41.000Z</time>
      </trkpt>
      <trkpt lat="44.01367" lon="2.59014">
        <ele>311</ele>
        <time>2021-10-31T07:45:42.000Z</time>
      </trkpt>
      <trkpt lat="44.01366" lon="2.59015">
        <ele>311</ele>
        <time>2021-10-31T07:45:43.000Z</time>
      </trkpt>
      <trkpt lat="44.01365" lon="2.59015">
        <ele>311</ele>
        <time>2021-10-31T07:45:44.000Z</time>
      </trkpt>
      <trkpt lat="44.01364" lon="2.59015">
        <ele>311</ele>
        <time>2021-10-31T07:45:45.000Z</time>
      </trkpt>
      <trkpt lat="44.01364" lon="2.59016">
        <ele>311</ele>
        <time>2021-10-31T07:45:46.000Z</time>
      </trkpt>
      <trkpt lat="44.01363" lon="2.59016">
        <ele>311</ele>
        <time>2021-10-31T07:45:47.000Z</time>
      </trkpt>
      <trkpt lat="44.01363" lon="2.59017">
        <ele>311</ele>
        <time>2021-10-31T07:45:48.000Z</time>
      </trkpt>
      <trkpt lat="44.01362" lon="2.59017">
        <ele>311</ele>
        <time>2021-10-31T07:45:49.000Z</time>
      </trkpt>
      <trkpt lat="44.01361" lon="2.59018">
        <ele>311</ele>
        <time>2021-10-31T07:45:50.000Z</time>
      </trkpt>
      <trkpt lat="44.01361" lon="2.59018">
        <ele>311</ele>
        <time>2021-10-31T07:45:51.000Z</time>
      </trkpt>
      <trkpt lat="44.0136" lon="2.59019">
        <ele>311</ele>
        <time>2021-10-31T07:45:52.000Z</time>
      </trkpt>
      <trkpt lat="44.01359" lon="2.59019">
        <ele>311</ele>
        <time>2021-10-31T07:45:53.000Z</time>
      </trkpt>
      <trkpt lat="44.01358" lon="2.5902">
        <ele>311</ele>
        <time>2021-10-31T07:45:54.000Z</time>
      </trkpt>
      <trkpt lat="44.01358" lon="2.5902">
        <ele>311</ele>
        <time>2021-10-31T07:45:55.000Z</time>
      </trkpt>
      <trkpt lat="44.01357" lon="2.59021">
        <ele>311</ele>
        <time>2021-10-31T07:45:56.000Z</time>
      </trkpt>
      <trkpt lat="44.01356" lon="2.59021">
        <ele>311</ele>
        <time>2021-10-31T07:45:57.000Z</time>
      </trkpt>
      <trkpt lat="44.01355" lon="2.59022">
        <ele>311</ele>
        <time>2021-10-31T07:45:58.000Z</time>
      </trkpt>
      <trkpt lat="44.01355" lon="2.59022">
        <ele>311</ele>
        <time>2021-10-31T07:45:59.000Z</time>
      </trkpt>
      <trkpt lat="44.01354" lon="2.59023">
        <ele>311</ele>
        <time>2021-10-31T07:46:00.000Z</time>
      </trkpt>
      <trkpt lat="44.01353" lon="2.59024">
        <ele>311</ele>
        <time>2021-10-31T07:46:01.000Z</time>
      </trkpt>
      <trkpt lat="44.01352" lon="2.59024">
        <ele>311</ele>
        <time>2021-10-31T07:46:02.000Z</time>
      </trkpt>
      <trkpt lat="44.01351" lon="2.59024">
        <ele>311</ele>
        <time>2021-10-31T07:46:03.000Z</time>
      </trkpt>
      <trkpt lat="44.0135" lon="2.59025">
        <ele>311</ele>
        <time>2021-10-31T07:46:04.000Z</time>
      </trkpt>
      <trkpt lat="44.0135" lon="2.59025">
        <ele>311</ele>
        <time>2021-10-31T07:46:05.000Z</time>
      </trkpt>
      <trkpt lat="44.01349" lon="2.59025">
        <ele>311</ele>
        <time>2021-10-31T07:46:06.000Z</time>
      </trkpt>
      <trkpt lat="44.01349" lon="2.59026">
        <ele>312</ele>
        <time>2021-10-31T07:46:07.000Z</time>
      </trkpt>
      <trkpt lat="44.01348" lon="2.59027">
        <ele>312</ele>
        <time>2021-10-31T07:46:08.000Z</time>
      </trkpt>
      <trkpt lat="44.01347" lon="2.59027">
        <ele>312</ele>
        <time>2021-10-31T07:46:09.000Z</time>
      </trkpt>
      <trkpt lat="44.01347" lon="2.59027">
        <ele>312</ele>
        <time>2021-10-31T07:46:10.000Z</time>
      </trkpt>
      <trkpt lat="44.01346" lon="2.59028">
        <ele>312</ele>
        <time>2021-10-31T07:46:11.000Z</time>
      </trkpt>
      <trkpt lat="44.01346" lon="2.59029">
        <ele>312</ele>
        <time>2021-10-31T07:46:12.000Z</time>
      </trkpt>
      <trkpt lat="44.01345" lon="2.59029">
        <ele>311</ele>
        <time>2021-10-31T07:46:13.000Z</time>
      </trkpt>
      <trkpt lat="44.01345" lon="2.5903">
        <ele>311</ele>
        <time>2021-10-31T07:46:14.000Z</time>
      </trkpt>
      <trkpt lat="44.01344" lon="2.59031">
        <ele>311</ele>
        <time>2021-10-31T07:46:15.000Z</time>
      </trkpt>
      <trkpt lat="44.01343" lon="2.59031">
        <ele>311</ele>
        <time>2021-10-31T07:46:16.000Z</time>
      </trkpt>
      <trkpt lat="44.01342" lon="2.59032">
        <ele>311</ele>
        <time>2021-10-31T07:46:17.000Z</time>
      </trkpt>
      <trkpt lat="44.01342" lon="2.59032">
        <ele>311</ele>
        <time>2021-10-31T07:46:18.000Z</time>
      </trkpt>
      <trkpt lat="44.01341" lon="2.59033">
        <ele>311</ele>
        <time>2021-10-31T07:46:19.000Z</time>
      </trkpt>
      <trkpt lat="44.0134" lon="2.59033">
        <ele>312</ele>
        <time>2021-10-31T07:46:20.000Z</time>
      </trkpt>
      <trkpt lat="44.01339" lon="2.59034">
        <ele>312</ele>
        <time>2021-10-31T07:46:21.000Z</time>
      </trkpt>
      <trkpt lat="44.01338" lon="2.59034">
        <ele>312</ele>
        <time>2021-10-31T07:46:22.000Z</time>
      </trkpt>
      <trkpt lat="44.01338" lon="2.59035">
        <ele>312</ele>
        <time>2021-10-31T07:46:23.000Z</time>
      </trkpt>
      <trkpt lat="44.01337" lon="2.59035">
        <ele>312</ele>
        <time>2021-10-31T07:46:24.000Z</time>
      </trkpt>
      <trkpt lat="44.01336" lon="2.59035">
        <ele>312</ele>
        <time>2021-10-31T07:46:25.000Z</time>
      </trkpt>
      <trkpt lat="44.01335" lon="2.59036">
        <ele>312</ele>
        <time>2021-10-31T07:46:26.000Z</time>
      </trkpt>
      <trkpt lat="44.01334" lon="2.59036">
        <ele>312</ele>
        <time>2021-10-31T07:46:27.000Z</time>
      </trkpt>
      <trkpt lat="44.01334" lon="2.59037">
        <ele>312</ele>
        <time>2021-10-31T07:46:28.000Z</time>
      </trkpt>
      <trkpt lat="44.01333" lon="2.59037">
        <ele>312</ele>
        <time>2021-10-31T07:46:29.000Z</time>
      </trkpt>
      <trkpt lat="44.01332" lon="2.59038">
        <ele>312</ele>
        <time>2021-10-31T07:46:30.000Z</time>
      </trkpt>
      <trkpt lat="44.01332" lon="2.59038">
        <ele>312</ele>
        <time>2021-10-31T07:46:31.000Z</time>
      </trkpt>
      <trkpt lat="44.01331" lon="2.59039">
        <ele>312</ele>
        <time>2021-10-31T07:46:32.000Z</time>
      </trkpt>
      <trkpt lat="44.01331" lon="2.5904">
        <ele>312</ele>
        <time>2021-10-31T07:46:33.000Z</time>
      </trkpt>
      <trkpt lat="44.0133" lon="2.59041">
        <ele>312</ele>
        <time>2021-10-31T07:46:34.000Z</time>
      </trkpt>
      <trkpt lat="44.0133" lon="2.59042">
        <ele>312</ele>
        <time>2021-10-31T07:46:35.000Z</time>
      </trkpt>
      <trkpt lat="44.01329" lon="2.59043">
        <ele>312</ele>
        <time>2021-10-31T07:46:36.000Z</time>
      </trkpt>
      <trkpt lat="44.01328" lon="2.59044">
        <ele>312</ele>
        <time>2021-10-31T07:46:37.000Z</time>
      </trkpt>
      <trkpt lat="44.01327" lon="2.59044">
        <ele>312</ele>
        <time>2021-10-31T07:46:38.000Z</time>
      </trkpt>
      <trkpt lat="44.01327" lon="2.59045">
        <ele>312</ele>
        <time>2021-10-31T07:46:39.000Z</time>
      </trkpt>
      <trkpt lat="44.01326" lon="2.59046">
        <ele>312</ele>
        <time>2021-10-31T07:46:40.000Z</time>
      </trkpt>
      <trkpt lat="44.01325" lon="2.59046">
        <ele>312</ele>
        <time>2021-10-31T07:46:41.000Z</time>
      </trkpt>
      <trkpt lat="44.01324" lon="2.59047">
        <ele>312</ele>
        <time>2021-10-31T07:46:42.000Z</time>
      </trkpt>
      <trkpt lat="44.01324" lon="2.59047">
        <ele>312</ele>
        <time>2021-10-31T07:46:43.000Z</time>
      </trkpt>
      <trkpt lat="44.01323" lon="2.59048">
        <ele>313</ele>
        <time>2021-10-31T07:46:44.000Z</time>
      </trkpt>
      <trkpt lat="44.01322" lon="2.59048">
        <ele>313</ele>
        <time>2021-10-31T07:46:45.000Z</time>
      </trkpt>
      <trkpt lat="44.01321" lon="2.59048">
        <ele>313</ele>
        <time>2021-10-31T07:46:46.000Z</time>
      </trkpt>
      <trkpt lat="44.0132" lon="2.59049">
        <ele>313</ele>
        <time>2021-10-31T07:46:47.000Z</time>
      </trkpt>
      <trkpt lat="44.0132" lon="2.59049">
        <ele>313</ele>
        <time>2021-10-31T07:46:48.000Z</time>
      </trkpt>
      <trkpt lat="44.01319" lon="2.5905">
        <ele>313</ele>
        <time>2021-10-31T07:46:49.000Z</time>
      </trkpt>
      <trkpt lat="44.01319" lon="2.5905">
        <ele>313</ele>
        <time>2021-10-31T07:46:50.000Z</time>
      </trkpt>
      <trkpt lat="44.01318" lon="2.5905">
        <ele>313</ele>
        <time>2021-10-31T07:46:51.000Z</time>
      </trkpt>
      <trkpt lat="44.01317" lon="2.59051">
        <ele>313</ele>
        <time>2021-10-31T07:46:52.000Z</time>
      </trkpt>
      <trkpt lat="44.01316" lon="2.59051">
        <ele>313</ele>
        <time>2021-10-31T07:46:53.000Z</time>
      </trkpt>
      <trkpt lat="44.01315" lon="2.59052">
        <ele>313</ele>
        <time>2021-10-31T07:46:54.000Z</time>
      </trkpt>
      <trkpt lat="44.01314" lon="2.59052">
        <ele>313</ele>
        <time>2021-10-31T07:46:55.000Z</time>
      </trkpt>
      <trkpt lat="44.01313" lon="2.59052">
        <ele>313</ele>
        <time>2021-10-31T07:46:56.000Z</time>
      </trkpt>
      <trkpt lat="44.01312" lon="2.59052">
        <ele>313</ele>
        <time>2021-10-31T07:46:57.000Z</time>
      </trkpt>
      <trkpt lat="44.01311" lon="2.59052">
        <ele>313</ele>
        <time>2021-10-31T07:46:58.000Z</time>
      </trkpt>
      <trkpt lat="44.0131" lon="2.59053">
        <ele>313</ele>
        <time>2021-10-31T07:46:59.000Z</time>
      </trkpt>
      <trkpt lat="44.0131" lon="2.59054">
        <ele>314</ele>
        <time>2021-10-31T07:47:00.000Z</time>
      </trkpt>
      <trkpt lat="44.01309" lon="2.59054">
        <ele>314</ele>
        <time>2021-10-31T07:47:01.000Z</time>
      </trkpt>
      <trkpt lat="44.01309" lon="2.59055">
        <ele>314</ele>
        <time>2021-10-31T07:47:02.000Z</time>
      </trkpt>
      <trkpt lat="44.01308" lon="2.59056">
        <ele>314</ele>
        <time>2021-10-31T07:47:03.000Z</time>
      </trkpt>
      <trkpt lat="44.01308" lon="2.59056">
        <ele>314</ele>
        <time>2021-10-31T07:47:04.000Z</time>
      </trkpt>
      <trkpt lat="44.01307" lon="2.59057">
        <ele>314</ele>
        <time>2021-10-31T07:47:05.000Z</time>
      </trkpt>
      <trkpt lat="44.01306" lon="2.59057">
        <ele>314</ele>
        <time>2021-10-31T07:47:06.000Z</time>
      </trkpt>
      <trkpt lat="44.01306" lon="2.59057">
        <ele>314</ele>
        <time>2021-10-31T07:47:07.000Z</time>
      </trkpt>
      <trkpt lat="44.01305" lon="2.59058">
        <ele>314</ele>
        <time>2021-10-31T07:47:08.000Z</time>
      </trkpt>
      <trkpt lat="44.01304" lon="2.59058">
        <ele>314</ele>
        <time>2021-10-31T07:47:09.000Z</time>
      </trkpt>
      <trkpt lat="44.01304" lon="2.59059">
        <ele>314</ele>
        <time>2021-10-31T07:47:10.000Z</time>
      </trkpt>
      <trkpt lat="44.01303" lon="2.5906">
        <ele>314</ele>
        <time>2021-10-31T07:47:11.000Z</time>
      </trkpt>
      <trkpt lat="44.01303" lon="2.59061">
        <ele>314</ele>
        <time>2021-10-31T07:47:12.000Z</time>
      </trkpt>
      <trkpt lat="44.01303" lon="2.59061">
        <ele>315</ele>
        <time>2021-10-31T07:47:13.000Z</time>
      </trkpt>
      <trkpt lat="44.01302" lon="2.59062">
        <ele>315</ele>
        <time>2021-10-31T07:47:14.000Z</time>
      </trkpt>
      <trkpt lat="44.01301" lon="2.59063">
        <ele>315</ele>
        <time>2021-10-31T07:47:15.000Z</time>
      </trkpt>
      <trkpt lat="44.01301" lon="2.59063">
        <ele>315</ele>
        <time>2021-10-31T07:47:16.000Z</time>
      </trkpt>
      <trkpt lat="44.013" lon="2.59063">
        <ele>315</ele>
        <time>2021-10-31T07:47:17.000Z</time>
      </trkpt>
      <trkpt lat="44.01299" lon="2.59064">
        <ele>315</ele>
        <time>2021-10-31T07:47:18.000Z</time>
      </trkpt>
      <trkpt lat="44.01298" lon="2.59064">
        <ele>315</ele>
        <time>2021-10-31T07:47:19.000Z</time>
      </trkpt>
      <trkpt lat="44.01297" lon="2.59065">
        <ele>315</ele>
        <time>2021-10-31T07:47:20.000Z</time>
      </trkpt>
      <trkpt lat="44.01297" lon="2.59065">
        <ele>315</ele>
        <time>2021-10-31T07:47:21.000Z</time>
      </trkpt>
      <trkpt lat="44.01296" lon="2.59066">
        <ele>315</ele>
        <time>2021-10-31T07:47:22.000Z</time>
      </trkpt>
      <trkpt lat="44.01295" lon="2.59067">
        <ele>315</ele>
        <time>2021-10-31T07:47:23.000Z</time>
      </trkpt>
      <trkpt lat="44.01295" lon="2.59067">
        <ele>315</ele>
        <time>2021-10-31T07:47:24.000Z</time>
      </trkpt>
      <trkpt lat="44.01294" lon="2.59068">
        <ele>315</ele>
        <time>2021-10-31T07:47:25.000Z</time>
      </trkpt>
      <trkpt lat="44.01294" lon="2.59069">
        <ele>316</ele>
        <time>2021-10-31T07:47:26.000Z</time>
      </trkpt>
      <trkpt lat="44.01293" lon="2.5907">
        <ele>316</ele>
        <time>2021-10-31T07:47:27.000Z</time>
      </trkpt>
      <trkpt lat="44.01292" lon="2.59071">
        <ele>316</ele>
        <time>2021-10-31T07:47:28.000Z</time>
      </trkpt>
      <trkpt lat="44.01292" lon="2.59071">
        <ele>316</ele>
        <time>2021-10-31T07:47:29.000Z</time>
      </trkpt>
      <trkpt lat="44.01291" lon="2.59072">
        <ele>316</ele>
        <time>2021-10-31T07:47:30.000Z</time>
      </trkpt>
      <trkpt lat="44.01291" lon="2.59073">
        <ele>316</ele>
        <time>2021-10-31T07:47:31.000Z</time>
      </trkpt>
      <trkpt lat="44.0129" lon="2.59074">
        <ele>316</ele>
        <time>2021-10-31T07:47:32.000Z</time>
      </trkpt>
      <trkpt lat="44.0129" lon="2.59075">
        <ele>316</ele>
        <time>2021-10-31T07:47:33.000Z</time>
      </trkpt>
      <trkpt lat="44.01289" lon="2.59077">
        <ele>316</ele>
        <time>2021-10-31T07:47:34.000Z</time>
      </trkpt>
      <trkpt lat="44.01289" lon="2.59078">
        <ele>316</ele>
        <time>2021-10-31T07:47:35.000Z</time>
      </trkpt>
      <trkpt lat="44.01288" lon="2.59079">
        <ele>316</ele>
        <time>2021-10-31T07:47:36.000Z</time>
      </trkpt>
      <trkpt lat="44.01287" lon="2.5908">
        <ele>316</ele>
        <time>2021-10-31T07:47:37.000Z</time>
      </trkpt>
      <trkpt lat="44.01286" lon="2.59081">
        <ele>316</ele>
        <time>2021-10-31T07:47:38.000Z</time>
      </trkpt>
      <trkpt lat="44.01285" lon="2.59082">
        <ele>316</ele>
        <time>2021-10-31T07:47:39.000Z</time>
      </trkpt>
      <trkpt lat="44.01285" lon="2.59083">
        <ele>316</ele>
        <time>2021-10-31T07:47:40.000Z</time>
      </trkpt>
      <trkpt lat="44.01284" lon="2.59084">
        <ele>317</ele>
        <time>2021-10-31T07:47:41.000Z</time>
      </trkpt>
      <trkpt lat="44.01284" lon="2.59085">
        <ele>317</ele>
        <time>2021-10-31T07:47:42.000Z</time>
      </trkpt>
      <trkpt lat="44.01283" lon="2.59085">
        <ele>317</ele>
        <time>2021-10-31T07:47:43.000Z</time>
      </trkpt>
      <trkpt lat="44.01283" lon="2.59086">
        <ele>317</ele>
        <time>2021-10-31T07:47:44.000Z</time>
      </trkpt>
      <trkpt lat="44.01282" lon="2.59087">
        <ele>317</ele>
        <time>2021-10-31T07:47:45.000Z</time>
      </trkpt>
      <trkpt lat="44.01282" lon="2.59088">
        <ele>317</ele>
        <time>2021-10-31T07:47:46.000Z</time>
      </trkpt>
      <trkpt lat="44.01281" lon="2.59089">
        <ele>317</ele>
        <time>2021-10-31T07:47:47.000Z</time>
      </trkpt>
      <trkpt lat="44.01281" lon="2.5909">
        <ele>317</ele>
        <time>2021-10-31T07:47:48.000Z</time>
      </trkpt>
      <trkpt lat="44.0128" lon="2.59091">
        <ele>317</ele>
        <time>2021-10-31T07:47:49.000Z</time>
      </trkpt>
      <trkpt lat="44.0128" lon="2.59092">
        <ele>317</ele>
        <time>2021-10-31T07:47:50.000Z</time>
      </trkpt>
      <trkpt lat="44.01279" lon="2.59093">
        <ele>317</ele>
        <time>2021-10-31T07:47:51.000Z</time>
      </trkpt>
      <trkpt lat="44.01279" lon="2.59094">
        <ele>317</ele>
        <time>2021-10-31T07:47:52.000Z</time>
      </trkpt>
      <trkpt lat="44.01279" lon="2.59095">
        <ele>317</ele>
        <time>2021-10-31T07:47:53.000Z</time>
      </trkpt>
      <trkpt lat="44.01278" lon="2.59096">
        <ele>317</ele>
        <time>2021-10-31T07:47:54.000Z</time>
      </trkpt>
      <trkpt lat="44.01278" lon="2.59097">
        <ele>317</ele>
        <time>2021-10-31T07:47:55.000Z</time>
      </trkpt>
      <trkpt lat="44.01278" lon="2.59098">
        <ele>317</ele>
        <time>2021-10-31T07:47:56.000Z</time>
      </trkpt>
      <trkpt lat="44.01277" lon="2.59099">
        <ele>317</ele>
        <time>2021-10-31T07:47:57.000Z</time>
      </trkpt>
      <trkpt lat="44.01277" lon="2.591">
        <ele>317</ele>
        <time>2021-10-31T07:47:58.000Z</time>
      </trkpt>
      <trkpt lat="44.01276" lon="2.59102">
        <ele>316</ele>
        <time>2021-10-31T07:47:59.000Z</time>
      </trkpt>
      <trkpt lat="44.01276" lon="2.59103">
        <ele>316</ele>
        <time>2021-10-31T07:48:00.000Z</time>
      </trkpt>
      <trkpt lat="44.01276" lon="2.59104">
        <ele>316</ele>
        <time>2021-10-31T07:48:01.000Z</time>
      </trkpt>
      <trkpt lat="44.01276" lon="2.59105">
        <ele>315</ele>
        <time>2021-10-31T07:48:02.000Z</time>
      </trkpt>
      <trkpt lat="44.01276" lon="2.59106">
        <ele>315</ele>
        <time>2021-10-31T07:48:03.000Z</time>
      </trkpt>
      <trkpt lat="44.01275" lon="2.59108">
        <ele>315</ele>
        <time>2021-10-31T07:48:04.000Z</time>
      </trkpt>
      <trkpt lat="44.01275" lon="2.59109">
        <ele>315</ele>
        <time>2021-10-31T07:48:05.000Z</time>
      </trkpt>
      <trkpt lat="44.01274" lon="2.5911">
        <ele>314</ele>
        <time>2021-10-31T07:48:06.000Z</time>
      </trkpt>
      <trkpt lat="44.01274" lon="2.59111">
        <ele>314</ele>
        <time>2021-10-31T07:48:07.000Z</time>
      </trkpt>
      <trkpt lat="44.01273" lon="2.59112">
        <ele>314</ele>
        <time>2021-10-31T07:48:08.000Z</time>
      </trkpt>
      <trkpt lat="44.01273" lon="2.59113">
        <ele>314</ele>
        <time>2021-10-31T07:48:09.000Z</time>
      </trkpt>
      <trkpt lat="44.01272" lon="2.59114">
        <ele>314</ele>
        <time>2021-10-31T07:48:10.000Z</time>
      </trkpt>
      <trkpt lat="44.01271" lon="2.59115">
        <ele>314</ele>
        <time>2021-10-31T07:48:11.000Z</time>
      </trkpt>
      <trkpt lat="44.01271" lon="2.59116">
        <ele>314</ele>
        <time>2021-10-31T07:48:12.000Z</time>
      </trkpt>
      <trkpt lat="44.01271" lon="2.59117">
        <ele>314</ele>
        <time>2021-10-31T07:48:13.000Z</time>
      </trkpt>
      <trkpt lat="44.0127" lon="2.59118">
        <ele>313</ele>
        <time>2021-10-31T07:48:14.000Z</time>
      </trkpt>
      <trkpt lat="44.0127" lon="2.5912">
        <ele>313</ele>
        <time>2021-10-31T07:48:15.000Z</time>
      </trkpt>
      <trkpt lat="44.0127" lon="2.59121">
        <ele>313</ele>
        <time>2021-10-31T07:48:16.000Z</time>
      </trkpt>
      <trkpt lat="44.0127" lon="2.59122">
        <ele>313</ele>
        <time>2021-10-31T07:48:17.000Z</time>
      </trkpt>
      <trkpt lat="44.01269" lon="2.59123">
        <ele>313</ele>
        <time>2021-10-31T07:48:18.000Z</time>
      </trkpt>
      <trkpt lat="44.01269" lon="2.59124">
        <ele>313</ele>
        <time>2021-10-31T07:48:19.000Z</time>
      </trkpt>
      <trkpt lat="44.01269" lon="2.59125">
        <ele>313</ele>
        <time>2021-10-31T07:48:20.000Z</time>
      </trkpt>
      <trkpt lat="44.01269" lon="2.59126">
        <ele>313</ele>
        <time>2021-10-31T07:48:21.000Z</time>
      </trkpt>
      <trkpt lat="44.01268" lon="2.59127">
        <ele>313</ele>
        <time>2021-10-31T07:48:22.000Z</time>
      </trkpt>
      <trkpt lat="44.01268" lon="2.59128">
        <ele>313</ele>
        <time>2021-10-31T07:48:23.000Z</time>
      </trkpt>
      <trkpt lat="44.01268" lon="2.59129">
        <ele>313</ele>
        <time>2021-10-31T07:48:24.000Z</time>
      </trkpt>
      <trkpt lat="44.01268" lon="2.5913">
        <ele>313</ele>
        <time>2021-10-31T07:48:25.000Z</time>
      </trkpt>
      <trkpt lat="44.01267" lon="2.59131">
        <ele>313</ele>
        <time>2021-10-31T07:48:26.000Z</time>
      </trkpt>
      <trkpt lat="44.01267" lon="2.59132">
        <ele>313</ele>
        <time>2021-10-31T07:48:27.000Z</time>
      </trkpt>
      <trkpt lat="44.01266" lon="2.59133">
        <ele>313</ele>
        <time>2021-10-31T07:48:28.000Z</time>
      </trkpt>
      <trkpt lat="44.01266" lon="2.59134">
        <ele>313</ele>
        <time>2021-10-31T07:48:29.000Z</time>
      </trkpt>
      <trkpt lat="44.01265" lon="2.59135">
        <ele>313</ele>
        <time>2021-10-31T07:48:30.000Z</time>
      </trkpt>
      <trkpt lat="44.01265" lon="2.59135">
        <ele>313</ele>
        <time>2021-10-31T07:48:31.000Z</time>
      </trkpt>
      <trkpt lat="44.01264" lon="2.59136">
        <ele>313</ele>
        <time>2021-10-31T07:48:32.000Z</time>
      </trkpt>
      <trkpt lat="44.01263" lon="2.59136">
        <ele>314</ele>
        <time>2021-10-31T07:48:33.000Z</time>
      </trkpt>
      <trkpt lat="44.01263" lon="2.59137">
        <ele>314</ele>
        <time>2021-10-31T07:48:34.000Z</time>
      </trkpt>
      <trkpt lat="44.01263" lon="2.59137">
        <ele>314</ele>
        <time>2021-10-31T07:48:35.000Z</time>
      </trkpt>
      <trkpt lat="44.01262" lon="2.59138">
        <ele>314</ele>
        <time>2021-10-31T07:48:36.000Z</time>
      </trkpt>
      <trkpt lat="44.01262" lon="2.59139">
        <ele>314</ele>
        <time>2021-10-31T07:48:37.000Z</time>
      </trkpt>
      <trkpt lat="44.01261" lon="2.59139">
        <ele>314</ele>
        <time>2021-10-31T07:48:38.000Z</time>
      </trkpt>
      <trkpt lat="44.01261" lon="2.59139">
        <ele>314</ele>
        <time>2021-10-31T07:48:39.000Z</time>
      </trkpt>
      <trkpt lat="44.0126" lon="2.5914">
        <ele>314</ele>
        <time>2021-10-31T07:48:40.000Z</time>
      </trkpt>
      <trkpt lat="44.0126" lon="2.59141">
        <ele>314</ele>
        <time>2021-10-31T07:48:41.000Z</time>
      </trkpt>
      <trkpt lat="44.01259" lon="2.59141">
        <ele>315</ele>
        <time>2021-10-31T07:48:42.000Z</time>
      </trkpt>
      <trkpt lat="44.01259" lon="2.59142">
        <ele>315</ele>
        <time>2021-10-31T07:48:43.000Z</time>
      </trkpt>
      <trkpt lat="44.01258" lon="2.59143">
        <ele>315</ele>
        <time>2021-10-31T07:48:44.000Z</time>
      </trkpt>
      <trkpt lat="44.01258" lon="2.59144">
        <ele>315</ele>
        <time>2021-10-31T07:48:45.000Z</time>
      </trkpt>
      <trkpt lat="44.01258" lon="2.59145">
        <ele>316</ele>
        <time>2021-10-31T07:48:46.000Z</time>
      </trkpt>
      <trkpt lat="44.01257" lon="2.59146">
        <ele>316</ele>
        <time>2021-10-31T07:48:47.000Z</time>
      </trkpt>
      <trkpt lat="44.01257" lon="2.59147">
        <ele>316</ele>
        <time>2021-10-31T07:48:48.000Z</time>
      </trkpt>
      <trkpt lat="44.01257" lon="2.59148">
        <ele>316</ele>
        <time>2021-10-31T07:48:49.000Z</time>
      </trkpt>
      <trkpt lat="44.01256" lon="2.59149">
        <ele>317</ele>
        <time>2021-10-31T07:48:50.000Z</time>
      </trkpt>
      <trkpt lat="44.01256" lon="2.5915">
        <ele>317</ele>
        <time>2021-10-31T07:48:51.000Z</time>
      </trkpt>
      <trkpt lat="44.01255" lon="2.59151">
        <ele>317</ele>
        <time>2021-10-31T07:48:52.000Z</time>
      </trkpt>
      <trkpt lat="44.01255" lon="2.59152">
        <ele>318</ele>
        <time>2021-10-31T07:48:53.000Z</time>
      </trkpt>
      <trkpt lat="44.01254" lon="2.59153">
        <ele>318</ele>
        <time>2021-10-31T07:48:54.000Z</time>
      </trkpt>
      <trkpt lat="44.01253" lon="2.59153">
        <ele>318</ele>
        <time>2021-10-31T07:48:55.000Z</time>
      </trkpt>
      <trkpt lat="44.01252" lon="2.59154">
        <ele>318</ele>
        <time>2021-10-31T07:48:56.000Z</time>
      </trkpt>
      <trkpt lat="44.0125" lon="2.59154">
        <ele>319</ele>
        <time>2021-10-31T07:48:57.000Z</time>
      </trkpt>
      <trkpt lat="44.01249" lon="2.59155">
        <ele>319</ele>
        <time>2021-10-31T07:48:58.000Z</time>
      </trkpt>
      <trkpt lat="44.01248" lon="2.59155">
        <ele>319</ele>
        <time>2021-10-31T07:48:59.000Z</time>
      </trkpt>
      <trkpt lat="44.01248" lon="2.59156">
        <ele>320</ele>
        <time>2021-10-31T07:49:00.000Z</time>
      </trkpt>
      <trkpt lat="44.01247" lon="2.59157">
        <ele>320</ele>
        <time>2021-10-31T07:49:01.000Z</time>
      </trkpt>
      <trkpt lat="44.01246" lon="2.59157">
        <ele>320</ele>
        <time>2021-10-31T07:49:02.000Z</time>
      </trkpt>
      <trkpt lat="44.01245" lon="2.59158">
        <ele>320</ele>
        <time>2021-10-31T07:49:03.000Z</time>
      </trkpt>
      <trkpt lat="44.01245" lon="2.59158">
        <ele>321</ele>
        <time>2021-10-31T07:49:04.000Z</time>
      </trkpt>
      <trkpt lat="44.01244" lon="2.59159">
        <ele>321</ele>
        <time>2021-10-31T07:49:05.000Z</time>
      </trkpt>
      <trkpt lat="44.01243" lon="2.59159">
        <ele>321</ele>
        <time>2021-10-31T07:49:06.000Z</time>
      </trkpt>
      <trkpt lat="44.01243" lon="2.5916">
        <ele>321</ele>
        <time>2021-10-31T07:49:07.000Z</time>
      </trkpt>
      <trkpt lat="44.01242" lon="2.59161">
        <ele>322</ele>
        <time>2021-10-31T07:49:08.000Z</time>
      </trkpt>
      <trkpt lat="44.01242" lon="2.59161">
        <ele>322</ele>
        <time>2021-10-31T07:49:09.000Z</time>
      </trkpt>
      <trkpt lat="44.01241" lon="2.59162">
        <ele>322</ele>
        <time>2021-10-31T07:49:10.000Z</time>
      </trkpt>
      <trkpt lat="44.0124" lon="2.59163">
        <ele>322</ele>
        <time>2021-10-31T07:49:11.000Z</time>
      </trkpt>
      <trkpt lat="44.0124" lon="2.59164">
        <ele>322</ele>
        <time>2021-10-31T07:49:12.000Z</time>
      </trkpt>
      <trkpt lat="44.0124" lon="2.59164">
        <ele>323</ele>
        <time>2021-10-31T07:49:13.000Z</time>
      </trkpt>
      <trkpt lat="44.01239" lon="2.59165">
        <ele>323</ele>
        <time>2021-10-31T07:49:14.000Z</time>
      </trkpt>
      <trkpt lat="44.01238" lon="2.59165">
        <ele>323</ele>
        <time>2021-10-31T07:49:15.000Z</time>
      </trkpt>
      <trkpt lat="44.01238" lon="2.59166">
        <ele>323</ele>
        <time>2021-10-31T07:49:16.000Z</time>
      </trkpt>
      <trkpt lat="44.01237" lon="2.59167">
        <ele>323</ele>
        <time>2021-10-31T07:49:17.000Z</time>
      </trkpt>
      <trkpt lat="44.01236" lon="2.59168">
        <ele>323</ele>
        <time>2021-10-31T07:49:18.000Z</time>
      </trkpt>
      <trkpt lat="44.01236" lon="2.59168">
        <ele>323</ele>
        <time>2021-10-31T07:49:19.000Z</time>
      </trkpt>
      <trkpt lat="44.01235" lon="2.59169">
        <ele>323</ele>
        <time>2021-10-31T07:49:20.000Z</time>
      </trkpt>
      <trkpt lat="44.01234" lon="2.5917">
        <ele>323</ele>
        <time>2021-10-31T07:49:21.000Z</time>
      </trkpt>
      <trkpt lat="44.01234" lon="2.5917">
        <ele>323</ele>
        <time>2021-10-31T07:49:22.000Z</time>
      </trkpt>
      <trkpt lat="44.01233" lon="2.59171">
        <ele>323</ele>
        <time>2021-10-31T07:49:23.000Z</time>
      </trkpt>
      <trkpt lat="44.01233" lon="2.59172">
        <ele>323</ele>
        <time>2021-10-31T07:49:24.000Z</time>
      </trkpt>
      <trkpt lat="44.01232" lon="2.59172">
        <ele>323</ele>
        <time>2021-10-31T07:49:25.000Z</time>
      </trkpt>
      <trkpt lat="44.01232" lon="2.59173">
        <ele>323</ele>
        <time>2021-10-31T07:49:26.000Z</time>
      </trkpt>
      <trkpt lat="44.01231" lon="2.59173">
        <ele>323</ele>
        <time>2021-10-31T07:49:27.000Z</time>
      </trkpt>
      <trkpt lat="44.0123" lon="2.59174">
        <ele>324</ele>
        <time>2021-10-31T07:49:28.000Z</time>
      </trkpt>
      <trkpt lat="44.0123" lon="2.59175">
        <ele>324</ele>
        <time>2021-10-31T07:49:29.000Z</time>
      </trkpt>
      <trkpt lat="44.01229" lon="2.59175">
        <ele>324</ele>
        <time>2021-10-31T07:49:30.000Z</time>
      </trkpt>
      <trkpt lat="44.01228" lon="2.59176">
        <ele>324</ele>
        <time>2021-10-31T07:49:31.000Z</time>
      </trkpt>
      <trkpt lat="44.01228" lon="2.59177">
        <ele>324</ele>
        <time>2021-10-31T07:49:32.000Z</time>
      </trkpt>
      <trkpt lat="44.01227" lon="2.59177">
        <ele>324</ele>
        <time>2021-10-31T07:49:33.000Z</time>
      </trkpt>
      <trkpt lat="44.01227" lon="2.59178">
        <ele>324</ele>
        <time>2021-10-31T07:49:34.000Z</time>
      </trkpt>
      <trkpt lat="44.01225" lon="2.5918">
        <ele>324</ele>
        <time>2021-10-31T07:49:35.000Z</time>
      </trkpt>
      <trkpt lat="44.01224" lon="2.59181">
        <ele>324</ele>
        <time>2021-10-31T07:49:36.000Z</time>
      </trkpt>
      <trkpt lat="44.01224" lon="2.59181">
        <ele>324</ele>
        <time>2021-10-31T07:49:37.000Z</time>
      </trkpt>
      <trkpt lat="44.01223" lon="2.59182">
        <ele>324</ele>
        <time>2021-10-31T07:49:38.000Z</time>
      </trkpt>
      <trkpt lat="44.01223" lon="2.59183">
        <ele>324</ele>
        <time>2021-10-31T07:49:39.000Z</time>
      </trkpt>
      <trkpt lat="44.01222" lon="2.59183">
        <ele>324</ele>
        <time>2021-10-31T07:49:40.000Z</time>
      </trkpt>
      <trkpt lat="44.01221" lon="2.59184">
        <ele>324</ele>
        <time>2021-10-31T07:49:41.000Z</time>
      </trkpt>
      <trkpt lat="44.0122" lon="2.59184">
        <ele>324</ele>
        <time>2021-10-31T07:49:42.000Z</time>
      </trkpt>
      <trkpt lat="44.0122" lon="2.59185">
        <ele>324</ele>
        <time>2021-10-31T07:49:43.000Z</time>
      </trkpt>
      <trkpt lat="44.01219" lon="2.59186">
        <ele>324</ele>
        <time>2021-10-31T07:49:44.000Z</time>
      </trkpt>
      <trkpt lat="44.01218" lon="2.59187">
        <ele>324</ele>
        <time>2021-10-31T07:49:45.000Z</time>
      </trkpt>
      <trkpt lat="44.01218" lon="2.59188">
        <ele>324</ele>
        <time>2021-10-31T07:49:46.000Z</time>
      </trkpt>
      <trkpt lat="44.01217" lon="2.59189">
        <ele>324</ele>
        <time>2021-10-31T07:49:47.000Z</time>
      </trkpt>
      <trkpt lat="44.01216" lon="2.59189">
        <ele>324</ele>
        <time>2021-10-31T07:49:48.000Z</time>
      </trkpt>
      <trkpt lat="44.01215" lon="2.5919">
        <ele>324</ele>
        <time>2021-10-31T07:49:49.000Z</time>
      </trkpt>
      <trkpt lat="44.01214" lon="2.59191">
        <ele>324</ele>
        <time>2021-10-31T07:49:50.000Z</time>
      </trkpt>
      <trkpt lat="44.01214" lon="2.59191">
        <ele>324</ele>
        <time>2021-10-31T07:49:51.000Z</time>
      </trkpt>
      <trkpt lat="44.01213" lon="2.59192">
        <ele>324</ele>
        <time>2021-10-31T07:49:52.000Z</time>
      </trkpt>
      <trkpt lat="44.01212" lon="2.59193">
        <ele>324</ele>
        <time>2021-10-31T07:49:53.000Z</time>
      </trkpt>
      <trkpt lat="44.01212" lon="2.59194">
        <ele>324</ele>
        <time>2021-10-31T07:49:54.000Z</time>
      </trkpt>
      <trkpt lat="44.01211" lon="2.59195">
        <ele>324</ele>
        <time>2021-10-31T07:49:55.000Z</time>
      </trkpt>
      <trkpt lat="44.0121" lon="2.59196">
        <ele>324</ele>
        <time>2021-10-31T07:49:56.000Z</time>
      </trkpt>
      <trkpt lat="44.01209" lon="2.59197">
        <ele>324</ele>
        <time>2021-10-31T07:49:57.000Z</time>
      </trkpt>
      <trkpt lat="44.01208" lon="2.59198">
        <ele>324</ele>
        <time>2021-10-31T07:49:58.000Z</time>
      </trkpt>
      <trkpt lat="44.01207" lon="2.59199">
        <ele>324</ele>
        <time>2021-10-31T07:49:59.000Z</time>
      </trkpt>
      <trkpt lat="44.01207" lon="2.592">
        <ele>324</ele>
        <time>2021-10-31T07:50:00.000Z</time>
      </trkpt>
      <trkpt lat="44.01206" lon="2.59201">
        <ele>324</ele>
        <time>2021-10-31T07:50:01.000Z</time>
      </trkpt>
      <trkpt lat="44.01205" lon="2.59202">
        <ele>324</ele>
        <time>2021-10-31T07:50:02.000Z</time>
      </trkpt>
      <trkpt lat="44.01204" lon="2.59202">
        <ele>324</ele>
        <time>2021-10-31T07:50:03.000Z</time>
      </trkpt>
      <trkpt lat="44.01204" lon="2.59203">
        <ele>324</ele>
        <time>2021-10-31T07:50:04.000Z</time>
      </trkpt>
      <trkpt lat="44.01203" lon="2.59204">
        <ele>324</ele>
        <time>2021-10-31T07:50:05.000Z</time>
      </trkpt>
      <trkpt lat="44.01202" lon="2.59204">
        <ele>324</ele>
        <time>2021-10-31T07:50:06.000Z</time>
      </trkpt>
      <trkpt lat="44.01201" lon="2.59205">
        <ele>324</ele>
        <time>2021-10-31T07:50:07.000Z</time>
      </trkpt>
      <trkpt lat="44.012" lon="2.59206">
        <ele>324</ele>
        <time>2021-10-31T07:50:08.000Z</time>
      </trkpt>
      <trkpt lat="44.01199" lon="2.59207">
        <ele>324</ele>
        <time>2021-10-31T07:50:09.000Z</time>
      </trkpt>
      <trkpt lat="44.01198" lon="2.59208">
        <ele>324</ele>
        <time>2021-10-31T07:50:10.000Z</time>
      </trkpt>
      <trkpt lat="44.01197" lon="2.59208">
        <ele>324</ele>
        <time>2021-10-31T07:50:11.000Z</time>
      </trkpt>
      <trkpt lat="44.01196" lon="2.59209">
        <ele>324</ele>
        <time>2021-10-31T07:50:12.000Z</time>
      </trkpt>
      <trkpt lat="44.01196" lon="2.5921">
        <ele>325</ele>
        <time>2021-10-31T07:50:13.000Z</time>
      </trkpt>
      <trkpt lat="44.01195" lon="2.59211">
        <ele>325</ele>
        <time>2021-10-31T07:50:14.000Z</time>
      </trkpt>
      <trkpt lat="44.01194" lon="2.59212">
        <ele>325</ele>
        <time>2021-10-31T07:50:15.000Z</time>
      </trkpt>
      <trkpt lat="44.01193" lon="2.59213">
        <ele>325</ele>
        <time>2021-10-31T07:50:16.000Z</time>
      </trkpt>
      <trkpt lat="44.01193" lon="2.59214">
        <ele>325</ele>
        <time>2021-10-31T07:50:17.000Z</time>
      </trkpt>
      <trkpt lat="44.01192" lon="2.59215">
        <ele>325</ele>
        <time>2021-10-31T07:50:18.000Z</time>
      </trkpt>
      <trkpt lat="44.01191" lon="2.59215">
        <ele>325</ele>
        <time>2021-10-31T07:50:19.000Z</time>
      </trkpt>
      <trkpt lat="44.01191" lon="2.59216">
        <ele>325</ele>
        <time>2021-10-31T07:50:20.000Z</time>
      </trkpt>
      <trkpt lat="44.0119" lon="2.59217">
        <ele>326</ele>
        <time>2021-10-31T07:50:21.000Z</time>
      </trkpt>
      <trkpt lat="44.0119" lon="2.59218">
        <ele>326</ele>
        <time>2021-10-31T07:50:22.000Z</time>
      </trkpt>
      <trkpt lat="44.01189" lon="2.59219">
        <ele>326</ele>
        <time>2021-10-31T07:50:23.000Z</time>
      </trkpt>
      <trkpt lat="44.01188" lon="2.5922">
        <ele>326</ele>
        <time>2021-10-31T07:50:24.000Z</time>
      </trkpt>
      <trkpt lat="44.01188" lon="2.59221">
        <ele>327</ele>
        <time>2021-10-31T07:50:25.000Z</time>
      </trkpt>
      <trkpt lat="44.01187" lon="2.59222">
        <ele>327</ele>
        <time>2021-10-31T07:50:26.000Z</time>
      </trkpt>
      <trkpt lat="44.01187" lon="2.59223">
        <ele>327</ele>
        <time>2021-10-31T07:50:27.000Z</time>
      </trkpt>
      <trkpt lat="44.01186" lon="2.59224">
        <ele>327</ele>
        <time>2021-10-31T07:50:28.000Z</time>
      </trkpt>
      <trkpt lat="44.01186" lon="2.59225">
        <ele>327</ele>
        <time>2021-10-31T07:50:29.000Z</time>
      </trkpt>
      <trkpt lat="44.01185" lon="2.59225">
        <ele>327</ele>
        <time>2021-10-31T07:50:30.000Z</time>
      </trkpt>
      <trkpt lat="44.01184" lon="2.59226">
        <ele>327</ele>
        <time>2021-10-31T07:50:31.000Z</time>
      </trkpt>
      <trkpt lat="44.01184" lon="2.59227">
        <ele>327</ele>
        <time>2021-10-31T07:50:32.000Z</time>
      </trkpt>
      <trkpt lat="44.01184" lon="2.59228">
        <ele>327</ele>
        <time>2021-10-31T07:50:33.000Z</time>
      </trkpt>
      <trkpt lat="44.01183" lon="2.59229">
        <ele>327</ele>
        <time>2021-10-31T07:50:34.000Z</time>
      </trkpt>
      <trkpt lat="44.01183" lon="2.59229">
        <ele>327</ele>
        <time>2021-10-31T07:50:35.000Z</time>
      </trkpt>
      <trkpt lat="44.01182" lon="2.5923">
        <ele>327</ele>
        <time>2021-10-31T07:50:36.000Z</time>
      </trkpt>
      <trkpt lat="44.01181" lon="2.59231">
        <ele>327</ele>
        <time>2021-10-31T07:50:37.000Z</time>
      </trkpt>
      <trkpt lat="44.01181" lon="2.59232">
        <ele>327</ele>
        <time>2021-10-31T07:50:38.000Z</time>
      </trkpt>
      <trkpt lat="44.0118" lon="2.59232">
        <ele>327</ele>
        <time>2021-10-31T07:50:39.000Z</time>
      </trkpt>
      <trkpt lat="44.01179" lon="2.59233">
        <ele>328</ele>
        <time>2021-10-31T07:50:40.000Z</time>
      </trkpt>
      <trkpt lat="44.01179" lon="2.59234">
        <ele>328</ele>
        <time>2021-10-31T07:50:41.000Z</time>
      </trkpt>
      <trkpt lat="44.01178" lon="2.59234">
        <ele>328</ele>
        <time>2021-10-31T07:50:42.000Z</time>
      </trkpt>
      <trkpt lat="44.01178" lon="2.59234">
        <ele>328</ele>
        <time>2021-10-31T07:50:43.000Z</time>
      </trkpt>
      <trkpt lat="44.01177" lon="2.59235">
        <ele>328</ele>
        <time>2021-10-31T07:50:44.000Z</time>
      </trkpt>
      <trkpt lat="44.01176" lon="2.59235">
        <ele>328</ele>
        <time>2021-10-31T07:50:45.000Z</time>
      </trkpt>
      <trkpt lat="44.01175" lon="2.59236">
        <ele>328</ele>
        <time>2021-10-31T07:50:46.000Z</time>
      </trkpt>
      <trkpt lat="44.01175" lon="2.59237">
        <ele>328</ele>
        <time>2021-10-31T07:50:47.000Z</time>
      </trkpt>
      <trkpt lat="44.01174" lon="2.59237">
        <ele>328</ele>
        <time>2021-10-31T07:50:48.000Z</time>
      </trkpt>
      <trkpt lat="44.01174" lon="2.59238">
        <ele>328</ele>
        <time>2021-10-31T07:50:49.000Z</time>
      </trkpt>
      <trkpt lat="44.01173" lon="2.59239">
        <ele>328</ele>
        <time>2021-10-31T07:50:50.000Z</time>
      </trkpt>
      <trkpt lat="44.01172" lon="2.59239">
        <ele>329</ele>
        <time>2021-10-31T07:50:51.000Z</time>
      </trkpt>
      <trkpt lat="44.01172" lon="2.5924">
        <ele>329</ele>
        <time>2021-10-31T07:50:52.000Z</time>
      </trkpt>
      <trkpt lat="44.01171" lon="2.59241">
        <ele>329</ele>
        <time>2021-10-31T07:50:53.000Z</time>
      </trkpt>
      <trkpt lat="44.0117" lon="2.59242">
        <ele>329</ele>
        <time>2021-10-31T07:50:54.000Z</time>
      </trkpt>
      <trkpt lat="44.0117" lon="2.59242">
        <ele>329</ele>
        <time>2021-10-31T07:50:55.000Z</time>
      </trkpt>
      <trkpt lat="44.01169" lon="2.59243">
        <ele>330</ele>
        <time>2021-10-31T07:50:56.000Z</time>
      </trkpt>
      <trkpt lat="44.01168" lon="2.59244">
        <ele>330</ele>
        <time>2021-10-31T07:50:57.000Z</time>
      </trkpt>
      <trkpt lat="44.01168" lon="2.59245">
        <ele>330</ele>
        <time>2021-10-31T07:50:58.000Z</time>
      </trkpt>
      <trkpt lat="44.01167" lon="2.59246">
        <ele>330</ele>
        <time>2021-10-31T07:50:59.000Z</time>
      </trkpt>
      <trkpt lat="44.01166" lon="2.59247">
        <ele>331</ele>
        <time>2021-10-31T07:51:00.000Z</time>
      </trkpt>
      <trkpt lat="44.01165" lon="2.59247">
        <ele>331</ele>
        <time>2021-10-31T07:51:01.000Z</time>
      </trkpt>
      <trkpt lat="44.01165" lon="2.59248">
        <ele>331</ele>
        <time>2021-10-31T07:51:02.000Z</time>
      </trkpt>
      <trkpt lat="44.01164" lon="2.59249">
        <ele>331</ele>
        <time>2021-10-31T07:51:03.000Z</time>
      </trkpt>
      <trkpt lat="44.01163" lon="2.5925">
        <ele>331</ele>
        <time>2021-10-31T07:51:04.000Z</time>
      </trkpt>
      <trkpt lat="44.01162" lon="2.59251">
        <ele>332</ele>
        <time>2021-10-31T07:51:05.000Z</time>
      </trkpt>
      <trkpt lat="44.01161" lon="2.59252">
        <ele>332</ele>
        <time>2021-10-31T07:51:06.000Z</time>
      </trkpt>
      <trkpt lat="44.01161" lon="2.59253">
        <ele>332</ele>
        <time>2021-10-31T07:51:07.000Z</time>
      </trkpt>
      <trkpt lat="44.0116" lon="2.59254">
        <ele>332</ele>
        <time>2021-10-31T07:51:08.000Z</time>
      </trkpt>
      <trkpt lat="44.01159" lon="2.59255">
        <ele>332</ele>
        <time>2021-10-31T07:51:09.000Z</time>
      </trkpt>
      <trkpt lat="44.01159" lon="2.59256">
        <ele>333</ele>
        <time>2021-10-31T07:51:10.000Z</time>
      </trkpt>
      <trkpt lat="44.01158" lon="2.59256">
        <ele>333</ele>
        <time>2021-10-31T07:51:11.000Z</time>
      </trkpt>
      <trkpt lat="44.01157" lon="2.59257">
        <ele>333</ele>
        <time>2021-10-31T07:51:12.000Z</time>
      </trkpt>
      <trkpt lat="44.01157" lon="2.59258">
        <ele>333</ele>
        <time>2021-10-31T07:51:13.000Z</time>
      </trkpt>
      <trkpt lat="44.01156" lon="2.59259">
        <ele>333</ele>
        <time>2021-10-31T07:51:14.000Z</time>
      </trkpt>
      <trkpt lat="44.01155" lon="2.5926">
        <ele>334</ele>
        <time>2021-10-31T07:51:15.000Z</time>
      </trkpt>
      <trkpt lat="44.01155" lon="2.59261">
        <ele>334</ele>
        <time>2021-10-31T07:51:16.000Z</time>
      </trkpt>
      <trkpt lat="44.01154" lon="2.59262">
        <ele>334</ele>
        <time>2021-10-31T07:51:17.000Z</time>
      </trkpt>
      <trkpt lat="44.01154" lon="2.59263">
        <ele>334</ele>
        <time>2021-10-31T07:51:18.000Z</time>
      </trkpt>
      <trkpt lat="44.01153" lon="2.59264">
        <ele>334</ele>
        <time>2021-10-31T07:51:19.000Z</time>
      </trkpt>
      <trkpt lat="44.01153" lon="2.59264">
        <ele>334</ele>
        <time>2021-10-31T07:51:20.000Z</time>
      </trkpt>
      <trkpt lat="44.01152" lon="2.59265">
        <ele>334</ele>
        <time>2021-10-31T07:51:21.000Z</time>
      </trkpt>
      <trkpt lat="44.01151" lon="2.59266">
        <ele>334</ele>
        <time>2021-10-31T07:51:22.000Z</time>
      </trkpt>
      <trkpt lat="44.01151" lon="2.59267">
        <ele>334</ele>
        <time>2021-10-31T07:51:23.000Z</time>
      </trkpt>
      <trkpt lat="44.0115" lon="2.59268">
        <ele>334</ele>
        <time>2021-10-31T07:51:24.000Z</time>
      </trkpt>
      <trkpt lat="44.0115" lon="2.59269">
        <ele>335</ele>
        <time>2021-10-31T07:51:25.000Z</time>
      </trkpt>
      <trkpt lat="44.0115" lon="2.59269">
        <ele>335</ele>
        <time>2021-10-31T07:51:26.000Z</time>
      </trkpt>
      <trkpt lat="44.01149" lon="2.5927">
        <ele>335</ele>
        <time>2021-10-31T07:51:27.000Z</time>
      </trkpt>
      <trkpt lat="44.01149" lon="2.59272">
        <ele>335</ele>
        <time>2021-10-31T07:51:28.000Z</time>
      </trkpt>
      <trkpt lat="44.01149" lon="2.59273">
        <ele>335</ele>
        <time>2021-10-31T07:51:29.000Z</time>
      </trkpt>
      <trkpt lat="44.01148" lon="2.59273">
        <ele>335</ele>
        <time>2021-10-31T07:51:30.000Z</time>
      </trkpt>
      <trkpt lat="44.01147" lon="2.59274">
        <ele>335</ele>
        <time>2021-10-31T07:51:31.000Z</time>
      </trkpt>
      <trkpt lat="44.01147" lon="2.59275">
        <ele>335</ele>
        <time>2021-10-31T07:51:32.000Z</time>
      </trkpt>
      <trkpt lat="44.01146" lon="2.59276">
        <ele>336</ele>
        <time>2021-10-31T07:51:33.000Z</time>
      </trkpt>
      <trkpt lat="44.01146" lon="2.59277">
        <ele>336</ele>
        <time>2021-10-31T07:51:34.000Z</time>
      </trkpt>
      <trkpt lat="44.01145" lon="2.59278">
        <ele>336</ele>
        <time>2021-10-31T07:51:35.000Z</time>
      </trkpt>
      <trkpt lat="44.01145" lon="2.59279">
        <ele>336</ele>
        <time>2021-10-31T07:51:36.000Z</time>
      </trkpt>
      <trkpt lat="44.01144" lon="2.5928">
        <ele>336</ele>
        <time>2021-10-31T07:51:37.000Z</time>
      </trkpt>
      <trkpt lat="44.01144" lon="2.59281">
        <ele>337</ele>
        <time>2021-10-31T07:51:38.000Z</time>
      </trkpt>
      <trkpt lat="44.01144" lon="2.59283">
        <ele>337</ele>
        <time>2021-10-31T07:51:39.000Z</time>
      </trkpt>
      <trkpt lat="44.01143" lon="2.59284">
        <ele>337</ele>
        <time>2021-10-31T07:51:40.000Z</time>
      </trkpt>
      <trkpt lat="44.01143" lon="2.59285">
        <ele>337</ele>
        <time>2021-10-31T07:51:41.000Z</time>
      </trkpt>
      <trkpt lat="44.01143" lon="2.59286">
        <ele>337</ele>
        <time>2021-10-31T07:51:42.000Z</time>
      </trkpt>
      <trkpt lat="44.01142" lon="2.59286">
        <ele>337</ele>
        <time>2021-10-31T07:51:43.000Z</time>
      </trkpt>
      <trkpt lat="44.01142" lon="2.59287">
        <ele>338</ele>
        <time>2021-10-31T07:51:44.000Z</time>
      </trkpt>
      <trkpt lat="44.01141" lon="2.59289">
        <ele>338</ele>
        <time>2021-10-31T07:51:45.000Z</time>
      </trkpt>
      <trkpt lat="44.01141" lon="2.5929">
        <ele>338</ele>
        <time>2021-10-31T07:51:46.000Z</time>
      </trkpt>
      <trkpt lat="44.01141" lon="2.59291">
        <ele>338</ele>
        <time>2021-10-31T07:51:47.000Z</time>
      </trkpt>
      <trkpt lat="44.0114" lon="2.59292">
        <ele>338</ele>
        <time>2021-10-31T07:51:48.000Z</time>
      </trkpt>
      <trkpt lat="44.0114" lon="2.59292">
        <ele>338</ele>
        <time>2021-10-31T07:51:49.000Z</time>
      </trkpt>
      <trkpt lat="44.0114" lon="2.59293">
        <ele>338</ele>
        <time>2021-10-31T07:51:50.000Z</time>
      </trkpt>
      <trkpt lat="44.0114" lon="2.59294">
        <ele>338</ele>
        <time>2021-10-31T07:51:51.000Z</time>
      </trkpt>
      <trkpt lat="44.01139" lon="2.59295">
        <ele>338</ele>
        <time>2021-10-31T07:51:52.000Z</time>
      </trkpt>
      <trkpt lat="44.01139" lon="2.59295">
        <ele>338</ele>
        <time>2021-10-31T07:51:53.000Z</time>
      </trkpt>
      <trkpt lat="44.01139" lon="2.59296">
        <ele>338</ele>
        <time>2021-10-31T07:51:54.000Z</time>
      </trkpt>
      <trkpt lat="44.01138" lon="2.59297">
        <ele>339</ele>
        <time>2021-10-31T07:51:55.000Z</time>
      </trkpt>
      <trkpt lat="44.01138" lon="2.59298">
        <ele>338</ele>
        <time>2021-10-31T07:51:56.000Z</time>
      </trkpt>
      <trkpt lat="44.01137" lon="2.59298">
        <ele>338</ele>
        <time>2021-10-31T07:51:57.000Z</time>
      </trkpt>
      <trkpt lat="44.01137" lon="2.59299">
        <ele>339</ele>
        <time>2021-10-31T07:51:58.000Z</time>
      </trkpt>
      <trkpt lat="44.01136" lon="2.593">
        <ele>339</ele>
        <time>2021-10-31T07:51:59.000Z</time>
      </trkpt>
      <trkpt lat="44.01136" lon="2.59301">
        <ele>339</ele>
        <time>2021-10-31T07:52:00.000Z</time>
      </trkpt>
      <trkpt lat="44.01135" lon="2.59302">
        <ele>339</ele>
        <time>2021-10-31T07:52:01.000Z</time>
      </trkpt>
      <trkpt lat="44.01135" lon="2.59302">
        <ele>339</ele>
        <time>2021-10-31T07:52:02.000Z</time>
      </trkpt>
      <trkpt lat="44.01134" lon="2.59303">
        <ele>339</ele>
        <time>2021-10-31T07:52:03.000Z</time>
      </trkpt>
      <trkpt lat="44.01133" lon="2.59303">
        <ele>339</ele>
        <time>2021-10-31T07:52:04.000Z</time>
      </trkpt>
      <trkpt lat="44.01132" lon="2.59304">
        <ele>339</ele>
        <time>2021-10-31T07:52:05.000Z</time>
      </trkpt>
      <trkpt lat="44.01131" lon="2.59304">
        <ele>339</ele>
        <time>2021-10-31T07:52:06.000Z</time>
      </trkpt>
      <trkpt lat="44.01131" lon="2.59305">
        <ele>339</ele>
        <time>2021-10-31T07:52:07.000Z</time>
      </trkpt>
      <trkpt lat="44.0113" lon="2.59306">
        <ele>339</ele>
        <time>2021-10-31T07:52:08.000Z</time>
      </trkpt>
      <trkpt lat="44.0113" lon="2.59306">
        <ele>339</ele>
        <time>2021-10-31T07:52:09.000Z</time>
      </trkpt>
      <trkpt lat="44.01129" lon="2.59307">
        <ele>339</ele>
        <time>2021-10-31T07:52:10.000Z</time>
      </trkpt>
      <trkpt lat="44.01128" lon="2.59307">
        <ele>340</ele>
        <time>2021-10-31T07:52:11.000Z</time>
      </trkpt>
      <trkpt lat="44.01128" lon="2.59308">
        <ele>340</ele>
        <time>2021-10-31T07:52:12.000Z</time>
      </trkpt>
      <trkpt lat="44.01127" lon="2.59309">
        <ele>340</ele>
        <time>2021-10-31T07:52:13.000Z</time>
      </trkpt>
      <trkpt lat="44.01126" lon="2.59309">
        <ele>340</ele>
        <time>2021-10-31T07:52:14.000Z</time>
      </trkpt>
      <trkpt lat="44.01126" lon="2.5931">
        <ele>340</ele>
        <time>2021-10-31T07:52:15.000Z</time>
      </trkpt>
      <trkpt lat="44.01125" lon="2.59311">
        <ele>340</ele>
        <time>2021-10-31T07:52:16.000Z</time>
      </trkpt>
      <trkpt lat="44.01125" lon="2.59311">
        <ele>340</ele>
        <time>2021-10-31T07:52:17.000Z</time>
      </trkpt>
      <trkpt lat="44.01124" lon="2.59312">
        <ele>340</ele>
        <time>2021-10-31T07:52:18.000Z</time>
      </trkpt>
      <trkpt lat="44.01124" lon="2.59313">
        <ele>340</ele>
        <time>2021-10-31T07:52:19.000Z</time>
      </trkpt>
      <trkpt lat="44.01124" lon="2.59313">
        <ele>340</ele>
        <time>2021-10-31T07:52:20.000Z</time>
      </trkpt>
      <trkpt lat="44.01124" lon="2.59313">
        <ele>340</ele>
        <time>2021-10-31T07:52:21.000Z</time>
      </trkpt>
      <trkpt lat="44.01124" lon="2.59313">
        <ele>341</ele>
        <time>2021-10-31T07:52:22.000Z</time>
      </trkpt>
      <trkpt lat="44.01124" lon="2.59316">
        <ele>341</ele>
        <time>2021-10-31T07:52:23.000Z</time>
      </trkpt>
      <trkpt lat="44.01124" lon="2.59316">
        <ele>341</ele>
        <time>2021-10-31T07:52:24.000Z</time>
      </trkpt>
      <trkpt lat="44.01124" lon="2.59316">
        <ele>341</ele>
        <time>2021-10-31T07:52:25.000Z</time>
      </trkpt>
      <trkpt lat="44.01124" lon="2.59317">
        <ele>341</ele>
        <time>2021-10-31T07:52:26.000Z</time>
      </trkpt>
      <trkpt lat="44.01125" lon="2.59317">
        <ele>341</ele>
        <time>2021-10-31T07:52:27.000Z</time>
      </trkpt>
      <trkpt lat="44.01126" lon="2.59317">
        <ele>341</ele>
        <time>2021-10-31T07:52:28.000Z</time>
      </trkpt>
      <trkpt lat="44.01126" lon="2.59317">
        <ele>342</ele>
        <time>2021-10-31T07:52:29.000Z</time>
      </trkpt>
      <trkpt lat="44.01127" lon="2.59317">
        <ele>342</ele>
        <time>2021-10-31T07:52:30.000Z</time>
      </trkpt>
      <trkpt lat="44.01128" lon="2.59317">
        <ele>342</ele>
        <time>2021-10-31T07:52:31.000Z</time>
      </trkpt>
      <trkpt lat="44.01129" lon="2.59316">
        <ele>342</ele>
        <time>2021-10-31T07:52:32.000Z</time>
      </trkpt>
      <trkpt lat="44.01129" lon="2.59316">
        <ele>342</ele>
        <time>2021-10-31T07:52:33.000Z</time>
      </trkpt>
      <trkpt lat="44.0113" lon="2.59315">
        <ele>342</ele>
        <time>2021-10-31T07:52:34.000Z</time>
      </trkpt>
      <trkpt lat="44.01131" lon="2.59315">
        <ele>342</ele>
        <time>2021-10-31T07:52:35.000Z</time>
      </trkpt>
      <trkpt lat="44.01131" lon="2.59314">
        <ele>342</ele>
        <time>2021-10-31T07:52:36.000Z</time>
      </trkpt>
      <trkpt lat="44.01132" lon="2.59314">
        <ele>341</ele>
        <time>2021-10-31T07:52:37.000Z</time>
      </trkpt>
      <trkpt lat="44.01133" lon="2.59313">
        <ele>341</ele>
        <time>2021-10-31T07:52:38.000Z</time>
      </trkpt>
      <trkpt lat="44.01134" lon="2.59313">
        <ele>342</ele>
        <time>2021-10-31T07:52:39.000Z</time>
      </trkpt>
      <trkpt lat="44.01135" lon="2.59312">
        <ele>342</ele>
        <time>2021-10-31T07:52:40.000Z</time>
      </trkpt>
      <trkpt lat="44.01135" lon="2.59312">
        <ele>342</ele>
        <time>2021-10-31T07:52:41.000Z</time>
      </trkpt>
      <trkpt lat="44.01136" lon="2.59311">
        <ele>342</ele>
        <time>2021-10-31T07:52:42.000Z</time>
      </trkpt>
      <trkpt lat="44.01136" lon="2.59311">
        <ele>342</ele>
        <time>2021-10-31T07:52:43.000Z</time>
      </trkpt>
      <trkpt lat="44.01137" lon="2.5931">
        <ele>342</ele>
        <time>2021-10-31T07:52:44.000Z</time>
      </trkpt>
      <trkpt lat="44.01138" lon="2.5931">
        <ele>342</ele>
        <time>2021-10-31T07:52:45.000Z</time>
      </trkpt>
      <trkpt lat="44.01138" lon="2.59309">
        <ele>342</ele>
        <time>2021-10-31T07:52:46.000Z</time>
      </trkpt>
      <trkpt lat="44.01139" lon="2.59309">
        <ele>342</ele>
        <time>2021-10-31T07:52:47.000Z</time>
      </trkpt>
      <trkpt lat="44.01139" lon="2.59308">
        <ele>342</ele>
        <time>2021-10-31T07:52:48.000Z</time>
      </trkpt>
      <trkpt lat="44.0114" lon="2.59307">
        <ele>342</ele>
        <time>2021-10-31T07:52:49.000Z</time>
      </trkpt>
      <trkpt lat="44.01141" lon="2.59307">
        <ele>342</ele>
        <time>2021-10-31T07:52:50.000Z</time>
      </trkpt>
      <trkpt lat="44.01141" lon="2.59306">
        <ele>343</ele>
        <time>2021-10-31T07:52:51.000Z</time>
      </trkpt>
      <trkpt lat="44.01142" lon="2.59306">
        <ele>343</ele>
        <time>2021-10-31T07:52:52.000Z</time>
      </trkpt>
      <trkpt lat="44.01143" lon="2.59305">
        <ele>343</ele>
        <time>2021-10-31T07:52:53.000Z</time>
      </trkpt>
      <trkpt lat="44.01143" lon="2.59304">
        <ele>343</ele>
        <time>2021-10-31T07:52:54.000Z</time>
      </trkpt>
      <trkpt lat="44.01144" lon="2.59304">
        <ele>343</ele>
        <time>2021-10-31T07:52:55.000Z</time>
      </trkpt>
      <trkpt lat="44.01145" lon="2.59303">
        <ele>343</ele>
        <time>2021-10-31T07:52:56.000Z</time>
      </trkpt>
      <trkpt lat="44.01145" lon="2.59302">
        <ele>343</ele>
        <time>2021-10-31T07:52:57.000Z</time>
      </trkpt>
      <trkpt lat="44.01146" lon="2.59301">
        <ele>344</ele>
        <time>2021-10-31T07:52:58.000Z</time>
      </trkpt>
      <trkpt lat="44.01146" lon="2.59301">
        <ele>344</ele>
        <time>2021-10-31T07:52:59.000Z</time>
      </trkpt>
      <trkpt lat="44.01147" lon="2.593">
        <ele>344</ele>
        <time>2021-10-31T07:53:00.000Z</time>
      </trkpt>
      <trkpt lat="44.01148" lon="2.59299">
        <ele>344</ele>
        <time>2021-10-31T07:53:01.000Z</time>
      </trkpt>
      <trkpt lat="44.01148" lon="2.59298">
        <ele>344</ele>
        <time>2021-10-31T07:53:02.000Z</time>
      </trkpt>
      <trkpt lat="44.01149" lon="2.59298">
        <ele>344</ele>
        <time>2021-10-31T07:53:03.000Z</time>
      </trkpt>
      <trkpt lat="44.0115" lon="2.59297">
        <ele>344</ele>
        <time>2021-10-31T07:53:04.000Z</time>
      </trkpt>
      <trkpt lat="44.0115" lon="2.59296">
        <ele>344</ele>
        <time>2021-10-31T07:53:05.000Z</time>
      </trkpt>
      <trkpt lat="44.01151" lon="2.59295">
        <ele>344</ele>
        <time>2021-10-31T07:53:06.000Z</time>
      </trkpt>
      <trkpt lat="44.01151" lon="2.59294">
        <ele>344</ele>
        <time>2021-10-31T07:53:07.000Z</time>
      </trkpt>
      <trkpt lat="44.01152" lon="2.59293">
        <ele>344</ele>
        <time>2021-10-31T07:53:08.000Z</time>
      </trkpt>
      <trkpt lat="44.01153" lon="2.59292">
        <ele>344</ele>
        <time>2021-10-31T07:53:09.000Z</time>
      </trkpt>
      <trkpt lat="44.01154" lon="2.59291">
        <ele>344</ele>
        <time>2021-10-31T07:53:10.000Z</time>
      </trkpt>
      <trkpt lat="44.01154" lon="2.59291">
        <ele>344</ele>
        <time>2021-10-31T07:53:11.000Z</time>
      </trkpt>
      <trkpt lat="44.01155" lon="2.5929">
        <ele>344</ele>
        <time>2021-10-31T07:53:12.000Z</time>
      </trkpt>
      <trkpt lat="44.01155" lon="2.59289">
        <ele>344</ele>
        <time>2021-10-31T07:53:13.000Z</time>
      </trkpt>
      <trkpt lat="44.01156" lon="2.59288">
        <ele>344</ele>
        <time>2021-10-31T07:53:14.000Z</time>
      </trkpt>
      <trkpt lat="44.01157" lon="2.59288">
        <ele>344</ele>
        <time>2021-10-31T07:53:15.000Z</time>
      </trkpt>
      <trkpt lat="44.01157" lon="2.59287">
        <ele>343</ele>
        <time>2021-10-31T07:53:16.000Z</time>
      </trkpt>
      <trkpt lat="44.01158" lon="2.59286">
        <ele>343</ele>
        <time>2021-10-31T07:53:17.000Z</time>
      </trkpt>
      <trkpt lat="44.01158" lon="2.59285">
        <ele>343</ele>
        <time>2021-10-31T07:53:18.000Z</time>
      </trkpt>
      <trkpt lat="44.01159" lon="2.59284">
        <ele>343</ele>
        <time>2021-10-31T07:53:19.000Z</time>
      </trkpt>
      <trkpt lat="44.0116" lon="2.59283">
        <ele>343</ele>
        <time>2021-10-31T07:53:20.000Z</time>
      </trkpt>
      <trkpt lat="44.0116" lon="2.59283">
        <ele>343</ele>
        <time>2021-10-31T07:53:21.000Z</time>
      </trkpt>
      <trkpt lat="44.01161" lon="2.59282">
        <ele>343</ele>
        <time>2021-10-31T07:53:22.000Z</time>
      </trkpt>
      <trkpt lat="44.01162" lon="2.59281">
        <ele>343</ele>
        <time>2021-10-31T07:53:23.000Z</time>
      </trkpt>
      <trkpt lat="44.01163" lon="2.59281">
        <ele>343</ele>
        <time>2021-10-31T07:53:24.000Z</time>
      </trkpt>
      <trkpt lat="44.01163" lon="2.5928">
        <ele>343</ele>
        <time>2021-10-31T07:53:25.000Z</time>
      </trkpt>
      <trkpt lat="44.01164" lon="2.59279">
        <ele>343</ele>
        <time>2021-10-31T07:53:26.000Z</time>
      </trkpt>
      <trkpt lat="44.01165" lon="2.59278">
        <ele>343</ele>
        <time>2021-10-31T07:53:27.000Z</time>
      </trkpt>
      <trkpt lat="44.01165" lon="2.59278">
        <ele>343</ele>
        <time>2021-10-31T07:53:28.000Z</time>
      </trkpt>
      <trkpt lat="44.01166" lon="2.59277">
        <ele>343</ele>
        <time>2021-10-31T07:53:29.000Z</time>
      </trkpt>
      <trkpt lat="44.01166" lon="2.59277">
        <ele>342</ele>
        <time>2021-10-31T07:53:30.000Z</time>
      </trkpt>
      <trkpt lat="44.01167" lon="2.59276">
        <ele>343</ele>
        <time>2021-10-31T07:53:31.000Z</time>
      </trkpt>
      <trkpt lat="44.01168" lon="2.59276">
        <ele>343</ele>
        <time>2021-10-31T07:53:32.000Z</time>
      </trkpt>
      <trkpt lat="44.01168" lon="2.59275">
        <ele>343</ele>
        <time>2021-10-31T07:53:33.000Z</time>
      </trkpt>
      <trkpt lat="44.01169" lon="2.59274">
        <ele>343</ele>
        <time>2021-10-31T07:53:34.000Z</time>
      </trkpt>
      <trkpt lat="44.0117" lon="2.59274">
        <ele>343</ele>
        <time>2021-10-31T07:53:35.000Z</time>
      </trkpt>
      <trkpt lat="44.01171" lon="2.59273">
        <ele>343</ele>
        <time>2021-10-31T07:53:36.000Z</time>
      </trkpt>
      <trkpt lat="44.01172" lon="2.59272">
        <ele>343</ele>
        <time>2021-10-31T07:53:37.000Z</time>
      </trkpt>
      <trkpt lat="44.01173" lon="2.59272">
        <ele>343</ele>
        <time>2021-10-31T07:53:38.000Z</time>
      </trkpt>
      <trkpt lat="44.01173" lon="2.59271">
        <ele>343</ele>
        <time>2021-10-31T07:53:39.000Z</time>
      </trkpt>
      <trkpt lat="44.01174" lon="2.59271">
        <ele>343</ele>
        <time>2021-10-31T07:53:40.000Z</time>
      </trkpt>
      <trkpt lat="44.01175" lon="2.59271">
        <ele>343</ele>
        <time>2021-10-31T07:53:41.000Z</time>
      </trkpt>
      <trkpt lat="44.01176" lon="2.5927">
        <ele>343</ele>
        <time>2021-10-31T07:53:42.000Z</time>
      </trkpt>
      <trkpt lat="44.01177" lon="2.59269">
        <ele>343</ele>
        <time>2021-10-31T07:53:43.000Z</time>
      </trkpt>
      <trkpt lat="44.01178" lon="2.59269">
        <ele>343</ele>
        <time>2021-10-31T07:53:44.000Z</time>
      </trkpt>
      <trkpt lat="44.01179" lon="2.59268">
        <ele>343</ele>
        <time>2021-10-31T07:53:45.000Z</time>
      </trkpt>
      <trkpt lat="44.0118" lon="2.59268">
        <ele>343</ele>
        <time>2021-10-31T07:53:46.000Z</time>
      </trkpt>
      <trkpt lat="44.01181" lon="2.59268">
        <ele>343</ele>
        <time>2021-10-31T07:53:47.000Z</time>
      </trkpt>
      <trkpt lat="44.01182" lon="2.59267">
        <ele>343</ele>
        <time>2021-10-31T07:53:48.000Z</time>
      </trkpt>
      <trkpt lat="44.01183" lon="2.59266">
        <ele>343</ele>
        <time>2021-10-31T07:53:49.000Z</time>
      </trkpt>
      <trkpt lat="44.01184" lon="2.59266">
        <ele>343</ele>
        <time>2021-10-31T07:53:50.000Z</time>
      </trkpt>
      <trkpt lat="44.01185" lon="2.59265">
        <ele>343</ele>
        <time>2021-10-31T07:53:51.000Z</time>
      </trkpt>
      <trkpt lat="44.01186" lon="2.59265">
        <ele>343</ele>
        <time>2021-10-31T07:53:52.000Z</time>
      </trkpt>
      <trkpt lat="44.01187" lon="2.59264">
        <ele>343</ele>
        <time>2021-10-31T07:53:53.000Z</time>
      </trkpt>
      <trkpt lat="44.01188" lon="2.59264">
        <ele>343</ele>
        <time>2021-10-31T07:53:54.000Z</time>
      </trkpt>
      <trkpt lat="44.01189" lon="2.59263">
        <ele>343</ele>
        <time>2021-10-31T07:53:55.000Z</time>
      </trkpt>
      <trkpt lat="44.0119" lon="2.59263">
        <ele>343</ele>
        <time>2021-10-31T07:53:56.000Z</time>
      </trkpt>
      <trkpt lat="44.01191" lon="2.59262">
        <ele>343</ele>
        <time>2021-10-31T07:53:57.000Z</time>
      </trkpt>
      <trkpt lat="44.01192" lon="2.59262">
        <ele>343</ele>
        <time>2021-10-31T07:53:58.000Z</time>
      </trkpt>
      <trkpt lat="44.01193" lon="2.59262">
        <ele>343</ele>
        <time>2021-10-31T07:53:59.000Z</time>
      </trkpt>
      <trkpt lat="44.01194" lon="2.59261">
        <ele>343</ele>
        <time>2021-10-31T07:54:00.000Z</time>
      </trkpt>
      <trkpt lat="44.01195" lon="2.5926">
        <ele>343</ele>
        <time>2021-10-31T07:54:01.000Z</time>
      </trkpt>
      <trkpt lat="44.01196" lon="2.5926">
        <ele>344</ele>
        <time>2021-10-31T07:54:02.000Z</time>
      </trkpt>
      <trkpt lat="44.01197" lon="2.59259">
        <ele>344</ele>
        <time>2021-10-31T07:54:03.000Z</time>
      </trkpt>
      <trkpt lat="44.01198" lon="2.59259">
        <ele>344</ele>
        <time>2021-10-31T07:54:04.000Z</time>
      </trkpt>
      <trkpt lat="44.01199" lon="2.59258">
        <ele>344</ele>
        <time>2021-10-31T07:54:05.000Z</time>
      </trkpt>
      <trkpt lat="44.012" lon="2.59257">
        <ele>345</ele>
        <time>2021-10-31T07:54:06.000Z</time>
      </trkpt>
      <trkpt lat="44.012" lon="2.59257">
        <ele>345</ele>
        <time>2021-10-31T07:54:07.000Z</time>
      </trkpt>
      <trkpt lat="44.01201" lon="2.59256">
        <ele>345</ele>
        <time>2021-10-31T07:54:08.000Z</time>
      </trkpt>
      <trkpt lat="44.01202" lon="2.59256">
        <ele>345</ele>
        <time>2021-10-31T07:54:09.000Z</time>
      </trkpt>
      <trkpt lat="44.01203" lon="2.59255">
        <ele>345</ele>
        <time>2021-10-31T07:54:10.000Z</time>
      </trkpt>
      <trkpt lat="44.01204" lon="2.59254">
        <ele>346</ele>
        <time>2021-10-31T07:54:11.000Z</time>
      </trkpt>
      <trkpt lat="44.01205" lon="2.59254">
        <ele>346</ele>
        <time>2021-10-31T07:54:12.000Z</time>
      </trkpt>
      <trkpt lat="44.01206" lon="2.59254">
        <ele>346</ele>
        <time>2021-10-31T07:54:13.000Z</time>
      </trkpt>
      <trkpt lat="44.01207" lon="2.59253">
        <ele>346</ele>
        <time>2021-10-31T07:54:14.000Z</time>
      </trkpt>
      <trkpt lat="44.01207" lon="2.59253">
        <ele>346</ele>
        <time>2021-10-31T07:54:15.000Z</time>
      </trkpt>
      <trkpt lat="44.01208" lon="2.59252">
        <ele>347</ele>
        <time>2021-10-31T07:54:16.000Z</time>
      </trkpt>
      <trkpt lat="44.01209" lon="2.59252">
        <ele>347</ele>
        <time>2021-10-31T07:54:17.000Z</time>
      </trkpt>
      <trkpt lat="44.0121" lon="2.59252">
        <ele>347</ele>
        <time>2021-10-31T07:54:18.000Z</time>
      </trkpt>
      <trkpt lat="44.01211" lon="2.59251">
        <ele>347</ele>
        <time>2021-10-31T07:54:19.000Z</time>
      </trkpt>
      <trkpt lat="44.01212" lon="2.59251">
        <ele>347</ele>
        <time>2021-10-31T07:54:20.000Z</time>
      </trkpt>
      <trkpt lat="44.01213" lon="2.5925">
        <ele>347</ele>
        <time>2021-10-31T07:54:21.000Z</time>
      </trkpt>
      <trkpt lat="44.01214" lon="2.5925">
        <ele>347</ele>
        <time>2021-10-31T07:54:22.000Z</time>
      </trkpt>
      <trkpt lat="44.01215" lon="2.59249">
        <ele>348</ele>
        <time>2021-10-31T07:54:23.000Z</time>
      </trkpt>
      <trkpt lat="44.01216" lon="2.59249">
        <ele>348</ele>
        <time>2021-10-31T07:54:24.000Z</time>
      </trkpt>
      <trkpt lat="44.01217" lon="2.59249">
        <ele>348</ele>
        <time>2021-10-31T07:54:25.000Z</time>
      </trkpt>
      <trkpt lat="44.01218" lon="2.59248">
        <ele>349</ele>
        <time>2021-10-31T07:54:26.000Z</time>
      </trkpt>
      <trkpt lat="44.01218" lon="2.59248">
        <ele>349</ele>
        <time>2021-10-31T07:54:27.000Z</time>
      </trkpt>
      <trkpt lat="44.01219" lon="2.59248">
        <ele>349</ele>
        <time>2021-10-31T07:54:28.000Z</time>
      </trkpt>
      <trkpt lat="44.0122" lon="2.59247">
        <ele>349</ele>
        <time>2021-10-31T07:54:29.000Z</time>
      </trkpt>
      <trkpt lat="44.01221" lon="2.59247">
        <ele>350</ele>
        <time>2021-10-31T07:54:30.000Z</time>
      </trkpt>
      <trkpt lat="44.01222" lon="2.59246">
        <ele>350</ele>
        <time>2021-10-31T07:54:31.000Z</time>
      </trkpt>
      <trkpt lat="44.01223" lon="2.59246">
        <ele>350</ele>
        <time>2021-10-31T07:54:32.000Z</time>
      </trkpt>
      <trkpt lat="44.01224" lon="2.59245">
        <ele>350</ele>
        <time>2021-10-31T07:54:33.000Z</time>
      </trkpt>
      <trkpt lat="44.01225" lon="2.59245">
        <ele>351</ele>
        <time>2021-10-31T07:54:34.000Z</time>
      </trkpt>
      <trkpt lat="44.01225" lon="2.59244">
        <ele>351</ele>
        <time>2021-10-31T07:54:35.000Z</time>
      </trkpt>
      <trkpt lat="44.01226" lon="2.59244">
        <ele>351</ele>
        <time>2021-10-31T07:54:36.000Z</time>
      </trkpt>
      <trkpt lat="44.01227" lon="2.59243">
        <ele>351</ele>
        <time>2021-10-31T07:54:37.000Z</time>
      </trkpt>
      <trkpt lat="44.01228" lon="2.59243">
        <ele>352</ele>
        <time>2021-10-31T07:54:38.000Z</time>
      </trkpt>
      <trkpt lat="44.01229" lon="2.59243">
        <ele>352</ele>
        <time>2021-10-31T07:54:39.000Z</time>
      </trkpt>
      <trkpt lat="44.0123" lon="2.59242">
        <ele>352</ele>
        <time>2021-10-31T07:54:40.000Z</time>
      </trkpt>
      <trkpt lat="44.01231" lon="2.59242">
        <ele>352</ele>
        <time>2021-10-31T07:54:41.000Z</time>
      </trkpt>
      <trkpt lat="44.01232" lon="2.59242">
        <ele>352</ele>
        <time>2021-10-31T07:54:42.000Z</time>
      </trkpt>
      <trkpt lat="44.01233" lon="2.59241">
        <ele>352</ele>
        <time>2021-10-31T07:54:43.000Z</time>
      </trkpt>
      <trkpt lat="44.01234" lon="2.59241">
        <ele>353</ele>
        <time>2021-10-31T07:54:44.000Z</time>
      </trkpt>
      <trkpt lat="44.01235" lon="2.59241">
        <ele>353</ele>
        <time>2021-10-31T07:54:45.000Z</time>
      </trkpt>
      <trkpt lat="44.01235" lon="2.59241">
        <ele>353</ele>
        <time>2021-10-31T07:54:46.000Z</time>
      </trkpt>
      <trkpt lat="44.01236" lon="2.5924">
        <ele>353</ele>
        <time>2021-10-31T07:54:47.000Z</time>
      </trkpt>
      <trkpt lat="44.01237" lon="2.5924">
        <ele>353</ele>
        <time>2021-10-31T07:54:48.000Z</time>
      </trkpt>
      <trkpt lat="44.01237" lon="2.59239">
        <ele>353</ele>
        <time>2021-10-31T07:54:49.000Z</time>
      </trkpt>
      <trkpt lat="44.01238" lon="2.59239">
        <ele>353</ele>
        <time>2021-10-31T07:54:50.000Z</time>
      </trkpt>
      <trkpt lat="44.01239" lon="2.59238">
        <ele>353</ele>
        <time>2021-10-31T07:54:51.000Z</time>
      </trkpt>
      <trkpt lat="44.01239" lon="2.59238">
        <ele>354</ele>
        <time>2021-10-31T07:54:52.000Z</time>
      </trkpt>
      <trkpt lat="44.0124" lon="2.59238">
        <ele>354</ele>
        <time>2021-10-31T07:54:53.000Z</time>
      </trkpt>
      <trkpt lat="44.01241" lon="2.59237">
        <ele>354</ele>
        <time>2021-10-31T07:54:54.000Z</time>
      </trkpt>
      <trkpt lat="44.01242" lon="2.59237">
        <ele>354</ele>
        <time>2021-10-31T07:54:55.000Z</time>
      </trkpt>
      <trkpt lat="44.01243" lon="2.59236">
        <ele>354</ele>
        <time>2021-10-31T07:54:56.000Z</time>
      </trkpt>
      <trkpt lat="44.01243" lon="2.59236">
        <ele>354</ele>
        <time>2021-10-31T07:54:57.000Z</time>
      </trkpt>
      <trkpt lat="44.01244" lon="2.59235">
        <ele>354</ele>
        <time>2021-10-31T07:54:58.000Z</time>
      </trkpt>
      <trkpt lat="44.01245" lon="2.59235">
        <ele>355</ele>
        <time>2021-10-31T07:54:59.000Z</time>
      </trkpt>
      <trkpt lat="44.01245" lon="2.59234">
        <ele>355</ele>
        <time>2021-10-31T07:55:00.000Z</time>
      </trkpt>
      <trkpt lat="44.01246" lon="2.59234">
        <ele>355</ele>
        <time>2021-10-31T07:55:01.000Z</time>
      </trkpt>
      <trkpt lat="44.01247" lon="2.59234">
        <ele>355</ele>
        <time>2021-10-31T07:55:02.000Z</time>
      </trkpt>
      <trkpt lat="44.01248" lon="2.59233">
        <ele>355</ele>
        <time>2021-10-31T07:55:03.000Z</time>
      </trkpt>
      <trkpt lat="44.01249" lon="2.59233">
        <ele>355</ele>
        <time>2021-10-31T07:55:04.000Z</time>
      </trkpt>
      <trkpt lat="44.0125" lon="2.59233">
        <ele>356</ele>
        <time>2021-10-31T07:55:05.000Z</time>
      </trkpt>
      <trkpt lat="44.01251" lon="2.59232">
        <ele>356</ele>
        <time>2021-10-31T07:55:06.000Z</time>
      </trkpt>
      <trkpt lat="44.01251" lon="2.59232">
        <ele>356</ele>
        <time>2021-10-31T07:55:07.000Z</time>
      </trkpt>
      <trkpt lat="44.01252" lon="2.59231">
        <ele>356</ele>
        <time>2021-10-31T07:55:08.000Z</time>
      </trkpt>
      <trkpt lat="44.01252" lon="2.59231">
        <ele>357</ele>
        <time>2021-10-31T07:55:09.000Z</time>
      </trkpt>
      <trkpt lat="44.01253" lon="2.5923">
        <ele>357</ele>
        <time>2021-10-31T07:55:10.000Z</time>
      </trkpt>
      <trkpt lat="44.01254" lon="2.5923">
        <ele>357</ele>
        <time>2021-10-31T07:55:11.000Z</time>
      </trkpt>
      <trkpt lat="44.01255" lon="2.5923">
        <ele>357</ele>
        <time>2021-10-31T07:55:12.000Z</time>
      </trkpt>
      <trkpt lat="44.01256" lon="2.59229">
        <ele>357</ele>
        <time>2021-10-31T07:55:13.000Z</time>
      </trkpt>
      <trkpt lat="44.01256" lon="2.59229">
        <ele>358</ele>
        <time>2021-10-31T07:55:14.000Z</time>
      </trkpt>
      <trkpt lat="44.01257" lon="2.59229">
        <ele>358</ele>
        <time>2021-10-31T07:55:15.000Z</time>
      </trkpt>
      <trkpt lat="44.01258" lon="2.59229">
        <ele>358</ele>
        <time>2021-10-31T07:55:16.000Z</time>
      </trkpt>
      <trkpt lat="44.01259" lon="2.59229">
        <ele>358</ele>
        <time>2021-10-31T07:55:17.000Z</time>
      </trkpt>
      <trkpt lat="44.0126" lon="2.59228">
        <ele>358</ele>
        <time>2021-10-31T07:55:18.000Z</time>
      </trkpt>
      <trkpt lat="44.01261" lon="2.59228">
        <ele>358</ele>
        <time>2021-10-31T07:55:19.000Z</time>
      </trkpt>
      <trkpt lat="44.01262" lon="2.59228">
        <ele>359</ele>
        <time>2021-10-31T07:55:20.000Z</time>
      </trkpt>
      <trkpt lat="44.01262" lon="2.59227">
        <ele>359</ele>
        <time>2021-10-31T07:55:21.000Z</time>
      </trkpt>
      <trkpt lat="44.01263" lon="2.59226">
        <ele>359</ele>
        <time>2021-10-31T07:55:22.000Z</time>
      </trkpt>
      <trkpt lat="44.01264" lon="2.59226">
        <ele>359</ele>
        <time>2021-10-31T07:55:23.000Z</time>
      </trkpt>
      <trkpt lat="44.01264" lon="2.59225">
        <ele>359</ele>
        <time>2021-10-31T07:55:24.000Z</time>
      </trkpt>
      <trkpt lat="44.01265" lon="2.59224">
        <ele>359</ele>
        <time>2021-10-31T07:55:25.000Z</time>
      </trkpt>
      <trkpt lat="44.01266" lon="2.59224">
        <ele>360</ele>
        <time>2021-10-31T07:55:26.000Z</time>
      </trkpt>
      <trkpt lat="44.01267" lon="2.59223">
        <ele>360</ele>
        <time>2021-10-31T07:55:27.000Z</time>
      </trkpt>
      <trkpt lat="44.01267" lon="2.59223">
        <ele>360</ele>
        <time>2021-10-31T07:55:28.000Z</time>
      </trkpt>
      <trkpt lat="44.01268" lon="2.59223">
        <ele>360</ele>
        <time>2021-10-31T07:55:29.000Z</time>
      </trkpt>
      <trkpt lat="44.01269" lon="2.59223">
        <ele>360</ele>
        <time>2021-10-31T07:55:30.000Z</time>
      </trkpt>
      <trkpt lat="44.0127" lon="2.59222">
        <ele>360</ele>
        <time>2021-10-31T07:55:31.000Z</time>
      </trkpt>
      <trkpt lat="44.01271" lon="2.59222">
        <ele>360</ele>
        <time>2021-10-31T07:55:32.000Z</time>
      </trkpt>
      <trkpt lat="44.01272" lon="2.59221">
        <ele>361</ele>
        <time>2021-10-31T07:55:33.000Z</time>
      </trkpt>
      <trkpt lat="44.01273" lon="2.59221">
        <ele>361</ele>
        <time>2021-10-31T07:55:34.000Z</time>
      </trkpt>
      <trkpt lat="44.01274" lon="2.5922">
        <ele>361</ele>
        <time>2021-10-31T07:55:35.000Z</time>
      </trkpt>
      <trkpt lat="44.01275" lon="2.59219">
        <ele>361</ele>
        <time>2021-10-31T07:55:36.000Z</time>
      </trkpt>
      <trkpt lat="44.01276" lon="2.59219">
        <ele>361</ele>
        <time>2021-10-31T07:55:37.000Z</time>
      </trkpt>
      <trkpt lat="44.01277" lon="2.59219">
        <ele>361</ele>
        <time>2021-10-31T07:55:38.000Z</time>
      </trkpt>
      <trkpt lat="44.01277" lon="2.59218">
        <ele>362</ele>
        <time>2021-10-31T07:55:39.000Z</time>
      </trkpt>
      <trkpt lat="44.01278" lon="2.59218">
        <ele>362</ele>
        <time>2021-10-31T07:55:40.000Z</time>
      </trkpt>
      <trkpt lat="44.01279" lon="2.59217">
        <ele>362</ele>
        <time>2021-10-31T07:55:41.000Z</time>
      </trkpt>
      <trkpt lat="44.0128" lon="2.59217">
        <ele>362</ele>
        <time>2021-10-31T07:55:42.000Z</time>
      </trkpt>
      <trkpt lat="44.01281" lon="2.59216">
        <ele>362</ele>
        <time>2021-10-31T07:55:43.000Z</time>
      </trkpt>
      <trkpt lat="44.01281" lon="2.59216">
        <ele>362</ele>
        <time>2021-10-31T07:55:44.000Z</time>
      </trkpt>
      <trkpt lat="44.01282" lon="2.59215">
        <ele>362</ele>
        <time>2021-10-31T07:55:45.000Z</time>
      </trkpt>
      <trkpt lat="44.01283" lon="2.59215">
        <ele>363</ele>
        <time>2021-10-31T07:55:46.000Z</time>
      </trkpt>
      <trkpt lat="44.01284" lon="2.59214">
        <ele>363</ele>
        <time>2021-10-31T07:55:47.000Z</time>
      </trkpt>
      <trkpt lat="44.01285" lon="2.59214">
        <ele>363</ele>
        <time>2021-10-31T07:55:48.000Z</time>
      </trkpt>
      <trkpt lat="44.01286" lon="2.59213">
        <ele>363</ele>
        <time>2021-10-31T07:55:49.000Z</time>
      </trkpt>
      <trkpt lat="44.01287" lon="2.59213">
        <ele>364</ele>
        <time>2021-10-31T07:55:50.000Z</time>
      </trkpt>
      <trkpt lat="44.01288" lon="2.59212">
        <ele>364</ele>
        <time>2021-10-31T07:55:51.000Z</time>
      </trkpt>
      <trkpt lat="44.01289" lon="2.59212">
        <ele>364</ele>
        <time>2021-10-31T07:55:52.000Z</time>
      </trkpt>
      <trkpt lat="44.0129" lon="2.59212">
        <ele>364</ele>
        <time>2021-10-31T07:55:53.000Z</time>
      </trkpt>
      <trkpt lat="44.01291" lon="2.59211">
        <ele>364</ele>
        <time>2021-10-31T07:55:54.000Z</time>
      </trkpt>
      <trkpt lat="44.01292" lon="2.5921">
        <ele>364</ele>
        <time>2021-10-31T07:55:55.000Z</time>
      </trkpt>
      <trkpt lat="44.01293" lon="2.5921">
        <ele>365</ele>
        <time>2021-10-31T07:55:56.000Z</time>
      </trkpt>
      <trkpt lat="44.01294" lon="2.59209">
        <ele>365</ele>
        <time>2021-10-31T07:55:57.000Z</time>
      </trkpt>
      <trkpt lat="44.01295" lon="2.59209">
        <ele>365</ele>
        <time>2021-10-31T07:55:58.000Z</time>
      </trkpt>
      <trkpt lat="44.01296" lon="2.59208">
        <ele>365</ele>
        <time>2021-10-31T07:55:59.000Z</time>
      </trkpt>
      <trkpt lat="44.01296" lon="2.59208">
        <ele>365</ele>
        <time>2021-10-31T07:56:00.000Z</time>
      </trkpt>
      <trkpt lat="44.01297" lon="2.59207">
        <ele>365</ele>
        <time>2021-10-31T07:56:01.000Z</time>
      </trkpt>
      <trkpt lat="44.01299" lon="2.59207">
        <ele>365</ele>
        <time>2021-10-31T07:56:02.000Z</time>
      </trkpt>
      <trkpt lat="44.013" lon="2.59207">
        <ele>365</ele>
        <time>2021-10-31T07:56:03.000Z</time>
      </trkpt>
      <trkpt lat="44.013" lon="2.59206">
        <ele>365</ele>
        <time>2021-10-31T07:56:04.000Z</time>
      </trkpt>
      <trkpt lat="44.01301" lon="2.59206">
        <ele>365</ele>
        <time>2021-10-31T07:56:05.000Z</time>
      </trkpt>
      <trkpt lat="44.01302" lon="2.59205">
        <ele>366</ele>
        <time>2021-10-31T07:56:06.000Z</time>
      </trkpt>
      <trkpt lat="44.01303" lon="2.59204">
        <ele>366</ele>
        <time>2021-10-31T07:56:07.000Z</time>
      </trkpt>
      <trkpt lat="44.01304" lon="2.59204">
        <ele>366</ele>
        <time>2021-10-31T07:56:08.000Z</time>
      </trkpt>
      <trkpt lat="44.01305" lon="2.59203">
        <ele>366</ele>
        <time>2021-10-31T07:56:09.000Z</time>
      </trkpt>
      <trkpt lat="44.01305" lon="2.59202">
        <ele>366</ele>
        <time>2021-10-31T07:56:10.000Z</time>
      </trkpt>
      <trkpt lat="44.01306" lon="2.59202">
        <ele>366</ele>
        <time>2021-10-31T07:56:11.000Z</time>
      </trkpt>
      <trkpt lat="44.01307" lon="2.59201">
        <ele>366</ele>
        <time>2021-10-31T07:56:12.000Z</time>
      </trkpt>
      <trkpt lat="44.01308" lon="2.592">
        <ele>366</ele>
        <time>2021-10-31T07:56:13.000Z</time>
      </trkpt>
      <trkpt lat="44.01308" lon="2.59199">
        <ele>366</ele>
        <time>2021-10-31T07:56:14.000Z</time>
      </trkpt>
      <trkpt lat="44.01309" lon="2.59198">
        <ele>366</ele>
        <time>2021-10-31T07:56:15.000Z</time>
      </trkpt>
      <trkpt lat="44.01309" lon="2.59198">
        <ele>366</ele>
        <time>2021-10-31T07:56:16.000Z</time>
      </trkpt>
      <trkpt lat="44.0131" lon="2.59197">
        <ele>366</ele>
        <time>2021-10-31T07:56:17.000Z</time>
      </trkpt>
      <trkpt lat="44.01311" lon="2.59196">
        <ele>366</ele>
        <time>2021-10-31T07:56:18.000Z</time>
      </trkpt>
      <trkpt lat="44.01312" lon="2.59195">
        <ele>366</ele>
        <time>2021-10-31T07:56:19.000Z</time>
      </trkpt>
      <trkpt lat="44.01313" lon="2.59195">
        <ele>366</ele>
        <time>2021-10-31T07:56:20.000Z</time>
      </trkpt>
      <trkpt lat="44.01314" lon="2.59194">
        <ele>366</ele>
        <time>2021-10-31T07:56:21.000Z</time>
      </trkpt>
      <trkpt lat="44.01315" lon="2.59193">
        <ele>367</ele>
        <time>2021-10-31T07:56:22.000Z</time>
      </trkpt>
      <trkpt lat="44.01316" lon="2.59193">
        <ele>367</ele>
        <time>2021-10-31T07:56:23.000Z</time>
      </trkpt>
      <trkpt lat="44.01317" lon="2.59192">
        <ele>367</ele>
        <time>2021-10-31T07:56:24.000Z</time>
      </trkpt>
      <trkpt lat="44.01318" lon="2.59191">
        <ele>367</ele>
        <time>2021-10-31T07:56:25.000Z</time>
      </trkpt>
      <trkpt lat="44.01319" lon="2.5919">
        <ele>367</ele>
        <time>2021-10-31T07:56:26.000Z</time>
      </trkpt>
      <trkpt lat="44.0132" lon="2.5919">
        <ele>367</ele>
        <time>2021-10-31T07:56:27.000Z</time>
      </trkpt>
      <trkpt lat="44.01321" lon="2.59189">
        <ele>367</ele>
        <time>2021-10-31T07:56:28.000Z</time>
      </trkpt>
      <trkpt lat="44.01322" lon="2.59188">
        <ele>367</ele>
        <time>2021-10-31T07:56:29.000Z</time>
      </trkpt>
      <trkpt lat="44.01323" lon="2.59188">
        <ele>367</ele>
        <time>2021-10-31T07:56:30.000Z</time>
      </trkpt>
      <trkpt lat="44.01324" lon="2.59187">
        <ele>367</ele>
        <time>2021-10-31T07:56:31.000Z</time>
      </trkpt>
      <trkpt lat="44.01325" lon="2.59186">
        <ele>368</ele>
        <time>2021-10-31T07:56:32.000Z</time>
      </trkpt>
      <trkpt lat="44.01326" lon="2.59185">
        <ele>368</ele>
        <time>2021-10-31T07:56:33.000Z</time>
      </trkpt>
      <trkpt lat="44.01327" lon="2.59185">
        <ele>368</ele>
        <time>2021-10-31T07:56:34.000Z</time>
      </trkpt>
      <trkpt lat="44.01328" lon="2.59184">
        <ele>368</ele>
        <time>2021-10-31T07:56:35.000Z</time>
      </trkpt>
      <trkpt lat="44.01328" lon="2.59183">
        <ele>368</ele>
        <time>2021-10-31T07:56:36.000Z</time>
      </trkpt>
      <trkpt lat="44.01329" lon="2.59183">
        <ele>368</ele>
        <time>2021-10-31T07:56:37.000Z</time>
      </trkpt>
      <trkpt lat="44.0133" lon="2.59182">
        <ele>368</ele>
        <time>2021-10-31T07:56:38.000Z</time>
      </trkpt>
      <trkpt lat="44.01331" lon="2.59181">
        <ele>368</ele>
        <time>2021-10-31T07:56:39.000Z</time>
      </trkpt>
      <trkpt lat="44.01332" lon="2.5918">
        <ele>368</ele>
        <time>2021-10-31T07:56:40.000Z</time>
      </trkpt>
      <trkpt lat="44.01333" lon="2.5918">
        <ele>368</ele>
        <time>2021-10-31T07:56:41.000Z</time>
      </trkpt>
      <trkpt lat="44.01333" lon="2.59179">
        <ele>368</ele>
        <time>2021-10-31T07:56:42.000Z</time>
      </trkpt>
      <trkpt lat="44.01334" lon="2.59179">
        <ele>368</ele>
        <time>2021-10-31T07:56:43.000Z</time>
      </trkpt>
      <trkpt lat="44.01335" lon="2.59178">
        <ele>369</ele>
        <time>2021-10-31T07:56:44.000Z</time>
      </trkpt>
      <trkpt lat="44.01336" lon="2.59177">
        <ele>369</ele>
        <time>2021-10-31T07:56:45.000Z</time>
      </trkpt>
      <trkpt lat="44.01337" lon="2.59176">
        <ele>369</ele>
        <time>2021-10-31T07:56:46.000Z</time>
      </trkpt>
      <trkpt lat="44.01338" lon="2.59175">
        <ele>369</ele>
        <time>2021-10-31T07:56:47.000Z</time>
      </trkpt>
      <trkpt lat="44.01339" lon="2.59174">
        <ele>369</ele>
        <time>2021-10-31T07:56:48.000Z</time>
      </trkpt>
      <trkpt lat="44.0134" lon="2.59174">
        <ele>369</ele>
        <time>2021-10-31T07:56:49.000Z</time>
      </trkpt>
      <trkpt lat="44.01341" lon="2.59173">
        <ele>369</ele>
        <time>2021-10-31T07:56:50.000Z</time>
      </trkpt>
      <trkpt lat="44.01341" lon="2.59172">
        <ele>369</ele>
        <time>2021-10-31T07:56:51.000Z</time>
      </trkpt>
      <trkpt lat="44.01342" lon="2.59172">
        <ele>369</ele>
        <time>2021-10-31T07:56:52.000Z</time>
      </trkpt>
      <trkpt lat="44.01343" lon="2.59171">
        <ele>369</ele>
        <time>2021-10-31T07:56:53.000Z</time>
      </trkpt>
      <trkpt lat="44.01344" lon="2.59171">
        <ele>369</ele>
        <time>2021-10-31T07:56:54.000Z</time>
      </trkpt>
      <trkpt lat="44.01345" lon="2.5917">
        <ele>369</ele>
        <time>2021-10-31T07:56:55.000Z</time>
      </trkpt>
      <trkpt lat="44.01346" lon="2.59169">
        <ele>369</ele>
        <time>2021-10-31T07:56:56.000Z</time>
      </trkpt>
      <trkpt lat="44.01347" lon="2.59168">
        <ele>369</ele>
        <time>2021-10-31T07:56:57.000Z</time>
      </trkpt>
      <trkpt lat="44.01347" lon="2.59167">
        <ele>369</ele>
        <time>2021-10-31T07:56:58.000Z</time>
      </trkpt>
      <trkpt lat="44.01348" lon="2.59167">
        <ele>369</ele>
        <time>2021-10-31T07:56:59.000Z</time>
      </trkpt>
      <trkpt lat="44.01349" lon="2.59166">
        <ele>369</ele>
        <time>2021-10-31T07:57:00.000Z</time>
      </trkpt>
      <trkpt lat="44.0135" lon="2.59165">
        <ele>369</ele>
        <time>2021-10-31T07:57:01.000Z</time>
      </trkpt>
      <trkpt lat="44.01351" lon="2.59164">
        <ele>369</ele>
        <time>2021-10-31T07:57:02.000Z</time>
      </trkpt>
      <trkpt lat="44.01352" lon="2.59163">
        <ele>369</ele>
        <time>2021-10-31T07:57:03.000Z</time>
      </trkpt>
      <trkpt lat="44.01353" lon="2.59163">
        <ele>369</ele>
        <time>2021-10-31T07:57:04.000Z</time>
      </trkpt>
      <trkpt lat="44.01354" lon="2.59162">
        <ele>369</ele>
        <time>2021-10-31T07:57:05.000Z</time>
      </trkpt>
      <trkpt lat="44.01355" lon="2.59162">
        <ele>369</ele>
        <time>2021-10-31T07:57:06.000Z</time>
      </trkpt>
      <trkpt lat="44.01356" lon="2.59161">
        <ele>369</ele>
        <time>2021-10-31T07:57:07.000Z</time>
      </trkpt>
      <trkpt lat="44.01357" lon="2.59161">
        <ele>370</ele>
        <time>2021-10-31T07:57:08.000Z</time>
      </trkpt>
      <trkpt lat="44.01358" lon="2.5916">
        <ele>370</ele>
        <time>2021-10-31T07:57:09.000Z</time>
      </trkpt>
      <trkpt lat="44.01359" lon="2.5916">
        <ele>370</ele>
        <time>2021-10-31T07:57:10.000Z</time>
      </trkpt>
      <trkpt lat="44.0136" lon="2.5916">
        <ele>370</ele>
        <time>2021-10-31T07:57:11.000Z</time>
      </trkpt>
      <trkpt lat="44.01361" lon="2.5916">
        <ele>370</ele>
        <time>2021-10-31T07:57:12.000Z</time>
      </trkpt>
      <trkpt lat="44.01363" lon="2.59159">
        <ele>370</ele>
        <time>2021-10-31T07:57:13.000Z</time>
      </trkpt>
      <trkpt lat="44.01364" lon="2.59159">
        <ele>370</ele>
        <time>2021-10-31T07:57:14.000Z</time>
      </trkpt>
      <trkpt lat="44.01365" lon="2.59159">
        <ele>370</ele>
        <time>2021-10-31T07:57:15.000Z</time>
      </trkpt>
      <trkpt lat="44.01366" lon="2.59159">
        <ele>370</ele>
        <time>2021-10-31T07:57:16.000Z</time>
      </trkpt>
      <trkpt lat="44.01367" lon="2.59159">
        <ele>370</ele>
        <time>2021-10-31T07:57:17.000Z</time>
      </trkpt>
      <trkpt lat="44.01368" lon="2.59159">
        <ele>370</ele>
        <time>2021-10-31T07:57:18.000Z</time>
      </trkpt>
      <trkpt lat="44.01369" lon="2.59159">
        <ele>370</ele>
        <time>2021-10-31T07:57:19.000Z</time>
      </trkpt>
      <trkpt lat="44.0137" lon="2.59158">
        <ele>370</ele>
        <time>2021-10-31T07:57:20.000Z</time>
      </trkpt>
      <trkpt lat="44.0137" lon="2.59159">
        <ele>370</ele>
        <time>2021-10-31T07:57:21.000Z</time>
      </trkpt>
      <trkpt lat="44.01371" lon="2.59159">
        <ele>370</ele>
        <time>2021-10-31T07:57:22.000Z</time>
      </trkpt>
      <trkpt lat="44.01373" lon="2.59159">
        <ele>370</ele>
        <time>2021-10-31T07:57:23.000Z</time>
      </trkpt>
      <trkpt lat="44.01373" lon="2.59159">
        <ele>370</ele>
        <time>2021-10-31T07:57:24.000Z</time>
      </trkpt>
      <trkpt lat="44.01374" lon="2.59159">
        <ele>370</ele>
        <time>2021-10-31T07:57:25.000Z</time>
      </trkpt>
      <trkpt lat="44.01376" lon="2.59158">
        <ele>370</ele>
        <time>2021-10-31T07:57:26.000Z</time>
      </trkpt>
      <trkpt lat="44.01376" lon="2.59158">
        <ele>370</ele>
        <time>2021-10-31T07:57:27.000Z</time>
      </trkpt>
      <trkpt lat="44.01377" lon="2.59158">
        <ele>370</ele>
        <time>2021-10-31T07:57:28.000Z</time>
      </trkpt>
      <trkpt lat="44.01378" lon="2.59158">
        <ele>370</ele>
        <time>2021-10-31T07:57:29.000Z</time>
      </trkpt>
      <trkpt lat="44.01379" lon="2.59158">
        <ele>370</ele>
        <time>2021-10-31T07:57:30.000Z</time>
      </trkpt>
      <trkpt lat="44.0138" lon="2.59157">
        <ele>370</ele>
        <time>2021-10-31T07:57:31.000Z</time>
      </trkpt>
      <trkpt lat="44.01381" lon="2.59157">
        <ele>370</ele>
        <time>2021-10-31T07:57:32.000Z</time>
      </trkpt>
      <trkpt lat="44.01382" lon="2.59157">
        <ele>370</ele>
        <time>2021-10-31T07:57:33.000Z</time>
      </trkpt>
      <trkpt lat="44.01383" lon="2.59157">
        <ele>370</ele>
        <time>2021-10-31T07:57:34.000Z</time>
      </trkpt>
      <trkpt lat="44.01384" lon="2.59156">
        <ele>369</ele>
        <time>2021-10-31T07:57:35.000Z</time>
      </trkpt>
      <trkpt lat="44.01385" lon="2.59156">
        <ele>369</ele>
        <time>2021-10-31T07:57:36.000Z</time>
      </trkpt>
      <trkpt lat="44.01386" lon="2.59156">
        <ele>369</ele>
        <time>2021-10-31T07:57:37.000Z</time>
      </trkpt>
      <trkpt lat="44.01386" lon="2.59155">
        <ele>369</ele>
        <time>2021-10-31T07:57:38.000Z</time>
      </trkpt>
      <trkpt lat="44.01387" lon="2.59155">
        <ele>369</ele>
        <time>2021-10-31T07:57:39.000Z</time>
      </trkpt>
      <trkpt lat="44.01388" lon="2.59154">
        <ele>369</ele>
        <time>2021-10-31T07:57:40.000Z</time>
      </trkpt>
      <trkpt lat="44.01389" lon="2.59154">
        <ele>369</ele>
        <time>2021-10-31T07:57:41.000Z</time>
      </trkpt>
      <trkpt lat="44.0139" lon="2.59154">
        <ele>369</ele>
        <time>2021-10-31T07:57:42.000Z</time>
      </trkpt>
      <trkpt lat="44.01391" lon="2.59153">
        <ele>369</ele>
        <time>2021-10-31T07:57:43.000Z</time>
      </trkpt>
      <trkpt lat="44.01391" lon="2.59153">
        <ele>370</ele>
        <time>2021-10-31T07:57:44.000Z</time>
      </trkpt>
      <trkpt lat="44.01392" lon="2.59152">
        <ele>370</ele>
        <time>2021-10-31T07:57:45.000Z</time>
      </trkpt>
      <trkpt lat="44.01393" lon="2.59152">
        <ele>370</ele>
        <time>2021-10-31T07:57:46.000Z</time>
      </trkpt>
      <trkpt lat="44.01394" lon="2.59152">
        <ele>370</ele>
        <time>2021-10-31T07:57:47.000Z</time>
      </trkpt>
      <trkpt lat="44.01395" lon="2.59152">
        <ele>370</ele>
        <time>2021-10-31T07:57:48.000Z</time>
      </trkpt>
      <trkpt lat="44.01396" lon="2.59151">
        <ele>370</ele>
        <time>2021-10-31T07:57:49.000Z</time>
      </trkpt>
      <trkpt lat="44.01397" lon="2.59151">
        <ele>370</ele>
        <time>2021-10-31T07:57:50.000Z</time>
      </trkpt>
      <trkpt lat="44.01398" lon="2.5915">
        <ele>370</ele>
        <time>2021-10-31T07:57:51.000Z</time>
      </trkpt>
      <trkpt lat="44.01399" lon="2.5915">
        <ele>370</ele>
        <time>2021-10-31T07:57:52.000Z</time>
      </trkpt>
      <trkpt lat="44.014" lon="2.5915">
        <ele>370</ele>
        <time>2021-10-31T07:57:53.000Z</time>
      </trkpt>
      <trkpt lat="44.01401" lon="2.59149">
        <ele>370</ele>
        <time>2021-10-31T07:57:54.000Z</time>
      </trkpt>
      <trkpt lat="44.01402" lon="2.59149">
        <ele>370</ele>
        <time>2021-10-31T07:57:55.000Z</time>
      </trkpt>
      <trkpt lat="44.01403" lon="2.59149">
        <ele>370</ele>
        <time>2021-10-31T07:57:56.000Z</time>
      </trkpt>
      <trkpt lat="44.01404" lon="2.59149">
        <ele>370</ele>
        <time>2021-10-31T07:57:57.000Z</time>
      </trkpt>
      <trkpt lat="44.01405" lon="2.59148">
        <ele>370</ele>
        <time>2021-10-31T07:57:58.000Z</time>
      </trkpt>
      <trkpt lat="44.01405" lon="2.59148">
        <ele>370</ele>
        <time>2021-10-31T07:57:59.000Z</time>
      </trkpt>
      <trkpt lat="44.01406" lon="2.59147">
        <ele>371</ele>
        <time>2021-10-31T07:58:00.000Z</time>
      </trkpt>
      <trkpt lat="44.01407" lon="2.59147">
        <ele>371</ele>
        <time>2021-10-31T07:58:01.000Z</time>
      </trkpt>
      <trkpt lat="44.01408" lon="2.59146">
        <ele>371</ele>
        <time>2021-10-31T07:58:02.000Z</time>
      </trkpt>
      <trkpt lat="44.01409" lon="2.59146">
        <ele>371</ele>
        <time>2021-10-31T07:58:03.000Z</time>
      </trkpt>
      <trkpt lat="44.0141" lon="2.59145">
        <ele>371</ele>
        <time>2021-10-31T07:58:04.000Z</time>
      </trkpt>
      <trkpt lat="44.0141" lon="2.59144">
        <ele>371</ele>
        <time>2021-10-31T07:58:05.000Z</time>
      </trkpt>
      <trkpt lat="44.01411" lon="2.59144">
        <ele>371</ele>
        <time>2021-10-31T07:58:06.000Z</time>
      </trkpt>
      <trkpt lat="44.01412" lon="2.59143">
        <ele>371</ele>
        <time>2021-10-31T07:58:07.000Z</time>
      </trkpt>
      <trkpt lat="44.01413" lon="2.59143">
        <ele>371</ele>
        <time>2021-10-31T07:58:08.000Z</time>
      </trkpt>
      <trkpt lat="44.01414" lon="2.59142">
        <ele>371</ele>
        <time>2021-10-31T07:58:09.000Z</time>
      </trkpt>
      <trkpt lat="44.01415" lon="2.59143">
        <ele>371</ele>
        <time>2021-10-31T07:58:10.000Z</time>
      </trkpt>
      <trkpt lat="44.01416" lon="2.59144">
        <ele>371</ele>
        <time>2021-10-31T07:58:11.000Z</time>
      </trkpt>
      <trkpt lat="44.01417" lon="2.59144">
        <ele>371</ele>
        <time>2021-10-31T07:58:12.000Z</time>
      </trkpt>
      <trkpt lat="44.01417" lon="2.59145">
        <ele>371</ele>
        <time>2021-10-31T07:58:13.000Z</time>
      </trkpt>
      <trkpt lat="44.01417" lon="2.59146">
        <ele>371</ele>
        <time>2021-10-31T07:58:14.000Z</time>
      </trkpt>
      <trkpt lat="44.01418" lon="2.59147">
        <ele>371</ele>
        <time>2021-10-31T07:58:15.000Z</time>
      </trkpt>
      <trkpt lat="44.01418" lon="2.59148">
        <ele>371</ele>
        <time>2021-10-31T07:58:16.000Z</time>
      </trkpt>
      <trkpt lat="44.01417" lon="2.59149">
        <ele>371</ele>
        <time>2021-10-31T07:58:17.000Z</time>
      </trkpt>
      <trkpt lat="44.01417" lon="2.5915">
        <ele>371</ele>
        <time>2021-10-31T07:58:18.000Z</time>
      </trkpt>
      <trkpt lat="44.01417" lon="2.59151">
        <ele>371</ele>
        <time>2021-10-31T07:58:19.000Z</time>
      </trkpt>
      <trkpt lat="44.01417" lon="2.59151">
        <ele>371</ele>
        <time>2021-10-31T07:58:20.000Z</time>
      </trkpt>
      <trkpt lat="44.01416" lon="2.59152">
        <ele>371</ele>
        <time>2021-10-31T07:58:21.000Z</time>
      </trkpt>
      <trkpt lat="44.01416" lon="2.59152">
        <ele>371</ele>
        <time>2021-10-31T07:58:22.000Z</time>
      </trkpt>
      <trkpt lat="44.01415" lon="2.59153">
        <ele>371</ele>
        <time>2021-10-31T07:58:23.000Z</time>
      </trkpt>
      <trkpt lat="44.01414" lon="2.59154">
        <ele>370</ele>
        <time>2021-10-31T07:58:24.000Z</time>
      </trkpt>
      <trkpt lat="44.01414" lon="2.59154">
        <ele>370</ele>
        <time>2021-10-31T07:58:25.000Z</time>
      </trkpt>
      <trkpt lat="44.01413" lon="2.59155">
        <ele>370</ele>
        <time>2021-10-31T07:58:26.000Z</time>
      </trkpt>
      <trkpt lat="44.01413" lon="2.59155">
        <ele>370</ele>
        <time>2021-10-31T07:58:27.000Z</time>
      </trkpt>
      <trkpt lat="44.01412" lon="2.59155">
        <ele>370</ele>
        <time>2021-10-31T07:58:28.000Z</time>
      </trkpt>
      <trkpt lat="44.01412" lon="2.59156">
        <ele>370</ele>
        <time>2021-10-31T07:58:29.000Z</time>
      </trkpt>
      <trkpt lat="44.01411" lon="2.59156">
        <ele>370</ele>
        <time>2021-10-31T07:58:30.000Z</time>
      </trkpt>
      <trkpt lat="44.0141" lon="2.59157">
        <ele>370</ele>
        <time>2021-10-31T07:58:31.000Z</time>
      </trkpt>
      <trkpt lat="44.0141" lon="2.59157">
        <ele>370</ele>
        <time>2021-10-31T07:58:32.000Z</time>
      </trkpt>
      <trkpt lat="44.01409" lon="2.59158">
        <ele>370</ele>
        <time>2021-10-31T07:58:33.000Z</time>
      </trkpt>
      <trkpt lat="44.01408" lon="2.59159">
        <ele>370</ele>
        <time>2021-10-31T07:58:34.000Z</time>
      </trkpt>
      <trkpt lat="44.01407" lon="2.59159">
        <ele>370</ele>
        <time>2021-10-31T07:58:35.000Z</time>
      </trkpt>
      <trkpt lat="44.01407" lon="2.5916">
        <ele>370</ele>
        <time>2021-10-31T07:58:36.000Z</time>
      </trkpt>
      <trkpt lat="44.01406" lon="2.59161">
        <ele>370</ele>
        <time>2021-10-31T07:58:37.000Z</time>
      </trkpt>
      <trkpt lat="44.01405" lon="2.59162">
        <ele>370</ele>
        <time>2021-10-31T07:58:38.000Z</time>
      </trkpt>
      <trkpt lat="44.01404" lon="2.59162">
        <ele>370</ele>
        <time>2021-10-31T07:58:39.000Z</time>
      </trkpt>
      <trkpt lat="44.01403" lon="2.59163">
        <ele>370</ele>
        <time>2021-10-31T07:58:40.000Z</time>
      </trkpt>
      <trkpt lat="44.01403" lon="2.59164">
        <ele>370</ele>
        <time>2021-10-31T07:58:41.000Z</time>
      </trkpt>
      <trkpt lat="44.01402" lon="2.59164">
        <ele>370</ele>
        <time>2021-10-31T07:58:42.000Z</time>
      </trkpt>
      <trkpt lat="44.01401" lon="2.59165">
        <ele>370</ele>
        <time>2021-10-31T07:58:43.000Z</time>
      </trkpt>
      <trkpt lat="44.01401" lon="2.59165">
        <ele>371</ele>
        <time>2021-10-31T07:58:44.000Z</time>
      </trkpt>
      <trkpt lat="44.014" lon="2.59166">
        <ele>371</ele>
        <time>2021-10-31T07:58:45.000Z</time>
      </trkpt>
      <trkpt lat="44.01399" lon="2.59167">
        <ele>371</ele>
        <time>2021-10-31T07:58:46.000Z</time>
      </trkpt>
      <trkpt lat="44.01399" lon="2.59167">
        <ele>371</ele>
        <time>2021-10-31T07:58:47.000Z</time>
      </trkpt>
      <trkpt lat="44.01398" lon="2.59168">
        <ele>371</ele>
        <time>2021-10-31T07:58:48.000Z</time>
      </trkpt>
      <trkpt lat="44.01397" lon="2.59168">
        <ele>371</ele>
        <time>2021-10-31T07:58:49.000Z</time>
      </trkpt>
      <trkpt lat="44.01396" lon="2.59169">
        <ele>371</ele>
        <time>2021-10-31T07:58:50.000Z</time>
      </trkpt>
      <trkpt lat="44.01395" lon="2.59169">
        <ele>371</ele>
        <time>2021-10-31T07:58:51.000Z</time>
      </trkpt>
      <trkpt lat="44.01395" lon="2.5917">
        <ele>371</ele>
        <time>2021-10-31T07:58:52.000Z</time>
      </trkpt>
      <trkpt lat="44.01394" lon="2.5917">
        <ele>371</ele>
        <time>2021-10-31T07:58:53.000Z</time>
      </trkpt>
      <trkpt lat="44.01393" lon="2.59171">
        <ele>371</ele>
        <time>2021-10-31T07:58:54.000Z</time>
      </trkpt>
      <trkpt lat="44.01393" lon="2.59172">
        <ele>372</ele>
        <time>2021-10-31T07:58:55.000Z</time>
      </trkpt>
      <trkpt lat="44.01392" lon="2.59173">
        <ele>372</ele>
        <time>2021-10-31T07:58:56.000Z</time>
      </trkpt>
      <trkpt lat="44.01392" lon="2.59174">
        <ele>372</ele>
        <time>2021-10-31T07:58:57.000Z</time>
      </trkpt>
      <trkpt lat="44.01391" lon="2.59175">
        <ele>372</ele>
        <time>2021-10-31T07:58:58.000Z</time>
      </trkpt>
      <trkpt lat="44.0139" lon="2.59176">
        <ele>372</ele>
        <time>2021-10-31T07:58:59.000Z</time>
      </trkpt>
      <trkpt lat="44.01389" lon="2.59177">
        <ele>372</ele>
        <time>2021-10-31T07:59:00.000Z</time>
      </trkpt>
      <trkpt lat="44.01389" lon="2.59178">
        <ele>373</ele>
        <time>2021-10-31T07:59:01.000Z</time>
      </trkpt>
      <trkpt lat="44.01388" lon="2.59179">
        <ele>373</ele>
        <time>2021-10-31T07:59:02.000Z</time>
      </trkpt>
      <trkpt lat="44.01387" lon="2.59179">
        <ele>373</ele>
        <time>2021-10-31T07:59:03.000Z</time>
      </trkpt>
      <trkpt lat="44.01386" lon="2.5918">
        <ele>373</ele>
        <time>2021-10-31T07:59:04.000Z</time>
      </trkpt>
      <trkpt lat="44.01386" lon="2.59181">
        <ele>373</ele>
        <time>2021-10-31T07:59:05.000Z</time>
      </trkpt>
      <trkpt lat="44.01385" lon="2.59181">
        <ele>373</ele>
        <time>2021-10-31T07:59:06.000Z</time>
      </trkpt>
      <trkpt lat="44.01384" lon="2.59182">
        <ele>373</ele>
        <time>2021-10-31T07:59:07.000Z</time>
      </trkpt>
      <trkpt lat="44.01383" lon="2.59182">
        <ele>374</ele>
        <time>2021-10-31T07:59:08.000Z</time>
      </trkpt>
      <trkpt lat="44.01383" lon="2.59183">
        <ele>374</ele>
        <time>2021-10-31T07:59:09.000Z</time>
      </trkpt>
      <trkpt lat="44.01382" lon="2.59184">
        <ele>374</ele>
        <time>2021-10-31T07:59:10.000Z</time>
      </trkpt>
      <trkpt lat="44.01381" lon="2.59185">
        <ele>374</ele>
        <time>2021-10-31T07:59:11.000Z</time>
      </trkpt>
      <trkpt lat="44.0138" lon="2.59186">
        <ele>374</ele>
        <time>2021-10-31T07:59:12.000Z</time>
      </trkpt>
      <trkpt lat="44.01379" lon="2.59186">
        <ele>374</ele>
        <time>2021-10-31T07:59:13.000Z</time>
      </trkpt>
      <trkpt lat="44.01379" lon="2.59187">
        <ele>374</ele>
        <time>2021-10-31T07:59:14.000Z</time>
      </trkpt>
      <trkpt lat="44.01378" lon="2.59188">
        <ele>374</ele>
        <time>2021-10-31T07:59:15.000Z</time>
      </trkpt>
      <trkpt lat="44.01377" lon="2.59189">
        <ele>374</ele>
        <time>2021-10-31T07:59:16.000Z</time>
      </trkpt>
      <trkpt lat="44.01376" lon="2.5919">
        <ele>374</ele>
        <time>2021-10-31T07:59:17.000Z</time>
      </trkpt>
      <trkpt lat="44.01375" lon="2.59191">
        <ele>375</ele>
        <time>2021-10-31T07:59:18.000Z</time>
      </trkpt>
      <trkpt lat="44.01374" lon="2.59192">
        <ele>375</ele>
        <time>2021-10-31T07:59:19.000Z</time>
      </trkpt>
      <trkpt lat="44.01373" lon="2.59192">
        <ele>375</ele>
        <time>2021-10-31T07:59:20.000Z</time>
      </trkpt>
      <trkpt lat="44.01372" lon="2.59193">
        <ele>375</ele>
        <time>2021-10-31T07:59:21.000Z</time>
      </trkpt>
      <trkpt lat="44.01371" lon="2.59194">
        <ele>375</ele>
        <time>2021-10-31T07:59:22.000Z</time>
      </trkpt>
      <trkpt lat="44.0137" lon="2.59194">
        <ele>375</ele>
        <time>2021-10-31T07:59:23.000Z</time>
      </trkpt>
      <trkpt lat="44.01369" lon="2.59195">
        <ele>375</ele>
        <time>2021-10-31T07:59:24.000Z</time>
      </trkpt>
      <trkpt lat="44.01368" lon="2.59196">
        <ele>375</ele>
        <time>2021-10-31T07:59:25.000Z</time>
      </trkpt>
      <trkpt lat="44.01367" lon="2.59197">
        <ele>374</ele>
        <time>2021-10-31T07:59:26.000Z</time>
      </trkpt>
      <trkpt lat="44.01366" lon="2.59198">
        <ele>374</ele>
        <time>2021-10-31T07:59:27.000Z</time>
      </trkpt>
      <trkpt lat="44.01366" lon="2.59199">
        <ele>374</ele>
        <time>2021-10-31T07:59:28.000Z</time>
      </trkpt>
      <trkpt lat="44.01365" lon="2.592">
        <ele>374</ele>
        <time>2021-10-31T07:59:29.000Z</time>
      </trkpt>
      <trkpt lat="44.01364" lon="2.592">
        <ele>374</ele>
        <time>2021-10-31T07:59:30.000Z</time>
      </trkpt>
      <trkpt lat="44.01364" lon="2.59201">
        <ele>375</ele>
        <time>2021-10-31T07:59:31.000Z</time>
      </trkpt>
      <trkpt lat="44.01363" lon="2.59202">
        <ele>375</ele>
        <time>2021-10-31T07:59:32.000Z</time>
      </trkpt>
      <trkpt lat="44.01362" lon="2.59203">
        <ele>375</ele>
        <time>2021-10-31T07:59:33.000Z</time>
      </trkpt>
      <trkpt lat="44.01361" lon="2.59204">
        <ele>375</ele>
        <time>2021-10-31T07:59:34.000Z</time>
      </trkpt>
      <trkpt lat="44.0136" lon="2.59205">
        <ele>375</ele>
        <time>2021-10-31T07:59:35.000Z</time>
      </trkpt>
      <trkpt lat="44.0136" lon="2.59206">
        <ele>375</ele>
        <time>2021-10-31T07:59:36.000Z</time>
      </trkpt>
      <trkpt lat="44.01359" lon="2.59207">
        <ele>375</ele>
        <time>2021-10-31T07:59:37.000Z</time>
      </trkpt>
      <trkpt lat="44.01358" lon="2.59208">
        <ele>375</ele>
        <time>2021-10-31T07:59:38.000Z</time>
      </trkpt>
      <trkpt lat="44.01358" lon="2.59209">
        <ele>376</ele>
        <time>2021-10-31T07:59:39.000Z</time>
      </trkpt>
      <trkpt lat="44.01357" lon="2.5921">
        <ele>376</ele>
        <time>2021-10-31T07:59:40.000Z</time>
      </trkpt>
      <trkpt lat="44.01356" lon="2.59211">
        <ele>376</ele>
        <time>2021-10-31T07:59:41.000Z</time>
      </trkpt>
      <trkpt lat="44.01355" lon="2.59213">
        <ele>376</ele>
        <time>2021-10-31T07:59:42.000Z</time>
      </trkpt>
      <trkpt lat="44.01354" lon="2.59213">
        <ele>376</ele>
        <time>2021-10-31T07:59:43.000Z</time>
      </trkpt>
      <trkpt lat="44.01353" lon="2.59215">
        <ele>376</ele>
        <time>2021-10-31T07:59:44.000Z</time>
      </trkpt>
      <trkpt lat="44.01352" lon="2.59216">
        <ele>375</ele>
        <time>2021-10-31T07:59:45.000Z</time>
      </trkpt>
      <trkpt lat="44.01352" lon="2.59217">
        <ele>375</ele>
        <time>2021-10-31T07:59:46.000Z</time>
      </trkpt>
      <trkpt lat="44.01351" lon="2.59217">
        <ele>375</ele>
        <time>2021-10-31T07:59:47.000Z</time>
      </trkpt>
      <trkpt lat="44.01351" lon="2.59218">
        <ele>375</ele>
        <time>2021-10-31T07:59:48.000Z</time>
      </trkpt>
      <trkpt lat="44.0135" lon="2.59219">
        <ele>375</ele>
        <time>2021-10-31T07:59:49.000Z</time>
      </trkpt>
      <trkpt lat="44.01349" lon="2.5922">
        <ele>375</ele>
        <time>2021-10-31T07:59:50.000Z</time>
      </trkpt>
      <trkpt lat="44.01348" lon="2.59222">
        <ele>375</ele>
        <time>2021-10-31T07:59:51.000Z</time>
      </trkpt>
      <trkpt lat="44.01348" lon="2.59223">
        <ele>376</ele>
        <time>2021-10-31T07:59:52.000Z</time>
      </trkpt>
      <trkpt lat="44.01347" lon="2.59224">
        <ele>376</ele>
        <time>2021-10-31T07:59:53.000Z</time>
      </trkpt>
      <trkpt lat="44.01346" lon="2.59225">
        <ele>376</ele>
        <time>2021-10-31T07:59:54.000Z</time>
      </trkpt>
      <trkpt lat="44.01345" lon="2.59226">
        <ele>376</ele>
        <time>2021-10-31T07:59:55.000Z</time>
      </trkpt>
      <trkpt lat="44.01345" lon="2.59227">
        <ele>376</ele>
        <time>2021-10-31T07:59:56.000Z</time>
      </trkpt>
      <trkpt lat="44.01344" lon="2.59229">
        <ele>376</ele>
        <time>2021-10-31T07:59:57.000Z</time>
      </trkpt>
      <trkpt lat="44.01343" lon="2.59229">
        <ele>376</ele>
        <time>2021-10-31T07:59:58.000Z</time>
      </trkpt>
      <trkpt lat="44.01343" lon="2.5923">
        <ele>376</ele>
        <time>2021-10-31T07:59:59.000Z</time>
      </trkpt>
      <trkpt lat="44.01342" lon="2.59231">
        <ele>376</ele>
        <time>2021-10-31T08:00:00.000Z</time>
      </trkpt>
      <trkpt lat="44.01341" lon="2.59232">
        <ele>376</ele>
        <time>2021-10-31T08:00:01.000Z</time>
      </trkpt>
      <trkpt lat="44.01341" lon="2.59233">
        <ele>376</ele>
        <time>2021-10-31T08:00:02.000Z</time>
      </trkpt>
      <trkpt lat="44.0134" lon="2.59234">
        <ele>376</ele>
        <time>2021-10-31T08:00:03.000Z</time>
      </trkpt>
      <trkpt lat="44.0134" lon="2.59235">
        <ele>376</ele>
        <time>2021-10-31T08:00:04.000Z</time>
      </trkpt>
      <trkpt lat="44.01339" lon="2.59236">
        <ele>376</ele>
        <time>2021-10-31T08:00:05.000Z</time>
      </trkpt>
      <trkpt lat="44.01338" lon="2.59237">
        <ele>376</ele>
        <time>2021-10-31T08:00:06.000Z</time>
      </trkpt>
      <trkpt lat="44.01337" lon="2.59237">
        <ele>376</ele>
        <time>2021-10-31T08:00:07.000Z</time>
      </trkpt>
      <trkpt lat="44.01337" lon="2.59238">
        <ele>376</ele>
        <time>2021-10-31T08:00:08.000Z</time>
      </trkpt>
      <trkpt lat="44.01336" lon="2.59239">
        <ele>376</ele>
        <time>2021-10-31T08:00:09.000Z</time>
      </trkpt>
      <trkpt lat="44.01335" lon="2.5924">
        <ele>376</ele>
        <time>2021-10-31T08:00:10.000Z</time>
      </trkpt>
      <trkpt lat="44.01334" lon="2.59241">
        <ele>376</ele>
        <time>2021-10-31T08:00:11.000Z</time>
      </trkpt>
      <trkpt lat="44.01334" lon="2.59242">
        <ele>376</ele>
        <time>2021-10-31T08:00:12.000Z</time>
      </trkpt>
      <trkpt lat="44.01333" lon="2.59243">
        <ele>376</ele>
        <time>2021-10-31T08:00:13.000Z</time>
      </trkpt>
      <trkpt lat="44.01332" lon="2.59244">
        <ele>376</ele>
        <time>2021-10-31T08:00:14.000Z</time>
      </trkpt>
      <trkpt lat="44.01331" lon="2.59245">
        <ele>376</ele>
        <time>2021-10-31T08:00:15.000Z</time>
      </trkpt>
      <trkpt lat="44.01331" lon="2.59246">
        <ele>376</ele>
        <time>2021-10-31T08:00:16.000Z</time>
      </trkpt>
      <trkpt lat="44.0133" lon="2.59247">
        <ele>376</ele>
        <time>2021-10-31T08:00:17.000Z</time>
      </trkpt>
      <trkpt lat="44.0133" lon="2.59248">
        <ele>376</ele>
        <time>2021-10-31T08:00:18.000Z</time>
      </trkpt>
      <trkpt lat="44.01329" lon="2.59249">
        <ele>376</ele>
        <time>2021-10-31T08:00:19.000Z</time>
      </trkpt>
      <trkpt lat="44.01329" lon="2.5925">
        <ele>376</ele>
        <time>2021-10-31T08:00:20.000Z</time>
      </trkpt>
      <trkpt lat="44.01328" lon="2.59251">
        <ele>376</ele>
        <time>2021-10-31T08:00:21.000Z</time>
      </trkpt>
      <trkpt lat="44.01328" lon="2.59252">
        <ele>377</ele>
        <time>2021-10-31T08:00:22.000Z</time>
      </trkpt>
      <trkpt lat="44.01327" lon="2.59253">
        <ele>377</ele>
        <time>2021-10-31T08:00:23.000Z</time>
      </trkpt>
      <trkpt lat="44.01327" lon="2.59254">
        <ele>377</ele>
        <time>2021-10-31T08:00:24.000Z</time>
      </trkpt>
      <trkpt lat="44.01326" lon="2.59255">
        <ele>377</ele>
        <time>2021-10-31T08:00:25.000Z</time>
      </trkpt>
      <trkpt lat="44.01326" lon="2.59256">
        <ele>377</ele>
        <time>2021-10-31T08:00:26.000Z</time>
      </trkpt>
      <trkpt lat="44.01325" lon="2.59256">
        <ele>377</ele>
        <time>2021-10-31T08:00:27.000Z</time>
      </trkpt>
      <trkpt lat="44.01325" lon="2.59257">
        <ele>377</ele>
        <time>2021-10-31T08:00:28.000Z</time>
      </trkpt>
      <trkpt lat="44.01324" lon="2.59258">
        <ele>378</ele>
        <time>2021-10-31T08:00:29.000Z</time>
      </trkpt>
      <trkpt lat="44.01323" lon="2.59259">
        <ele>378</ele>
        <time>2021-10-31T08:00:30.000Z</time>
      </trkpt>
      <trkpt lat="44.01323" lon="2.5926">
        <ele>378</ele>
        <time>2021-10-31T08:00:31.000Z</time>
      </trkpt>
      <trkpt lat="44.01322" lon="2.59261">
        <ele>378</ele>
        <time>2021-10-31T08:00:32.000Z</time>
      </trkpt>
      <trkpt lat="44.01322" lon="2.59262">
        <ele>378</ele>
        <time>2021-10-31T08:00:33.000Z</time>
      </trkpt>
      <trkpt lat="44.01322" lon="2.59263">
        <ele>378</ele>
        <time>2021-10-31T08:00:34.000Z</time>
      </trkpt>
      <trkpt lat="44.01321" lon="2.59264">
        <ele>379</ele>
        <time>2021-10-31T08:00:35.000Z</time>
      </trkpt>
      <trkpt lat="44.01321" lon="2.59265">
        <ele>379</ele>
        <time>2021-10-31T08:00:36.000Z</time>
      </trkpt>
      <trkpt lat="44.0132" lon="2.59266">
        <ele>379</ele>
        <time>2021-10-31T08:00:37.000Z</time>
      </trkpt>
      <trkpt lat="44.0132" lon="2.59267">
        <ele>379</ele>
        <time>2021-10-31T08:00:38.000Z</time>
      </trkpt>
      <trkpt lat="44.01319" lon="2.59268">
        <ele>379</ele>
        <time>2021-10-31T08:00:39.000Z</time>
      </trkpt>
      <trkpt lat="44.01318" lon="2.59268">
        <ele>379</ele>
        <time>2021-10-31T08:00:40.000Z</time>
      </trkpt>
      <trkpt lat="44.01317" lon="2.59269">
        <ele>379</ele>
        <time>2021-10-31T08:00:41.000Z</time>
      </trkpt>
      <trkpt lat="44.01317" lon="2.5927">
        <ele>379</ele>
        <time>2021-10-31T08:00:42.000Z</time>
      </trkpt>
      <trkpt lat="44.01316" lon="2.59271">
        <ele>379</ele>
        <time>2021-10-31T08:00:43.000Z</time>
      </trkpt>
      <trkpt lat="44.01315" lon="2.59272">
        <ele>380</ele>
        <time>2021-10-31T08:00:44.000Z</time>
      </trkpt>
      <trkpt lat="44.01314" lon="2.59272">
        <ele>380</ele>
        <time>2021-10-31T08:00:45.000Z</time>
      </trkpt>
      <trkpt lat="44.01314" lon="2.59273">
        <ele>380</ele>
        <time>2021-10-31T08:00:46.000Z</time>
      </trkpt>
      <trkpt lat="44.01313" lon="2.59274">
        <ele>380</ele>
        <time>2021-10-31T08:00:47.000Z</time>
      </trkpt>
      <trkpt lat="44.01312" lon="2.59275">
        <ele>380</ele>
        <time>2021-10-31T08:00:48.000Z</time>
      </trkpt>
      <trkpt lat="44.01311" lon="2.59276">
        <ele>380</ele>
        <time>2021-10-31T08:00:49.000Z</time>
      </trkpt>
      <trkpt lat="44.0131" lon="2.59277">
        <ele>380</ele>
        <time>2021-10-31T08:00:50.000Z</time>
      </trkpt>
      <trkpt lat="44.01309" lon="2.59277">
        <ele>380</ele>
        <time>2021-10-31T08:00:51.000Z</time>
      </trkpt>
      <trkpt lat="44.01308" lon="2.59278">
        <ele>380</ele>
        <time>2021-10-31T08:00:52.000Z</time>
      </trkpt>
      <trkpt lat="44.01307" lon="2.59279">
        <ele>380</ele>
        <time>2021-10-31T08:00:53.000Z</time>
      </trkpt>
      <trkpt lat="44.01306" lon="2.5928">
        <ele>381</ele>
        <time>2021-10-31T08:00:54.000Z</time>
      </trkpt>
      <trkpt lat="44.01305" lon="2.59281">
        <ele>381</ele>
        <time>2021-10-31T08:00:55.000Z</time>
      </trkpt>
      <trkpt lat="44.01304" lon="2.59282">
        <ele>381</ele>
        <time>2021-10-31T08:00:56.000Z</time>
      </trkpt>
      <trkpt lat="44.01304" lon="2.59283">
        <ele>381</ele>
        <time>2021-10-31T08:00:57.000Z</time>
      </trkpt>
      <trkpt lat="44.01303" lon="2.59283">
        <ele>381</ele>
        <time>2021-10-31T08:00:58.000Z</time>
      </trkpt>
      <trkpt lat="44.01302" lon="2.59284">
        <ele>381</ele>
        <time>2021-10-31T08:00:59.000Z</time>
      </trkpt>
      <trkpt lat="44.01301" lon="2.59285">
        <ele>382</ele>
        <time>2021-10-31T08:01:00.000Z</time>
      </trkpt>
      <trkpt lat="44.013" lon="2.59286">
        <ele>382</ele>
        <time>2021-10-31T08:01:01.000Z</time>
      </trkpt>
      <trkpt lat="44.013" lon="2.59287">
        <ele>382</ele>
        <time>2021-10-31T08:01:02.000Z</time>
      </trkpt>
      <trkpt lat="44.01299" lon="2.59288">
        <ele>382</ele>
        <time>2021-10-31T08:01:03.000Z</time>
      </trkpt>
      <trkpt lat="44.01298" lon="2.59288">
        <ele>382</ele>
        <time>2021-10-31T08:01:04.000Z</time>
      </trkpt>
      <trkpt lat="44.01298" lon="2.59289">
        <ele>382</ele>
        <time>2021-10-31T08:01:05.000Z</time>
      </trkpt>
      <trkpt lat="44.01297" lon="2.5929">
        <ele>382</ele>
        <time>2021-10-31T08:01:06.000Z</time>
      </trkpt>
      <trkpt lat="44.01296" lon="2.5929">
        <ele>382</ele>
        <time>2021-10-31T08:01:07.000Z</time>
      </trkpt>
      <trkpt lat="44.01295" lon="2.59291">
        <ele>382</ele>
        <time>2021-10-31T08:01:08.000Z</time>
      </trkpt>
      <trkpt lat="44.01294" lon="2.59292">
        <ele>382</ele>
        <time>2021-10-31T08:01:09.000Z</time>
      </trkpt>
      <trkpt lat="44.01293" lon="2.59293">
        <ele>382</ele>
        <time>2021-10-31T08:01:10.000Z</time>
      </trkpt>
      <trkpt lat="44.01292" lon="2.59294">
        <ele>382</ele>
        <time>2021-10-31T08:01:11.000Z</time>
      </trkpt>
      <trkpt lat="44.01291" lon="2.59294">
        <ele>382</ele>
        <time>2021-10-31T08:01:12.000Z</time>
      </trkpt>
      <trkpt lat="44.0129" lon="2.59295">
        <ele>382</ele>
        <time>2021-10-31T08:01:13.000Z</time>
      </trkpt>
      <trkpt lat="44.01289" lon="2.59296">
        <ele>382</ele>
        <time>2021-10-31T08:01:14.000Z</time>
      </trkpt>
      <trkpt lat="44.01288" lon="2.59297">
        <ele>382</ele>
        <time>2021-10-31T08:01:15.000Z</time>
      </trkpt>
      <trkpt lat="44.01287" lon="2.59297">
        <ele>382</ele>
        <time>2021-10-31T08:01:16.000Z</time>
      </trkpt>
      <trkpt lat="44.01286" lon="2.59298">
        <ele>382</ele>
        <time>2021-10-31T08:01:17.000Z</time>
      </trkpt>
      <trkpt lat="44.01285" lon="2.59299">
        <ele>382</ele>
        <time>2021-10-31T08:01:18.000Z</time>
      </trkpt>
      <trkpt lat="44.01284" lon="2.59299">
        <ele>382</ele>
        <time>2021-10-31T08:01:19.000Z</time>
      </trkpt>
      <trkpt lat="44.01283" lon="2.593">
        <ele>382</ele>
        <time>2021-10-31T08:01:20.000Z</time>
      </trkpt>
      <trkpt lat="44.01282" lon="2.593">
        <ele>382</ele>
        <time>2021-10-31T08:01:21.000Z</time>
      </trkpt>
      <trkpt lat="44.01281" lon="2.59301">
        <ele>382</ele>
        <time>2021-10-31T08:01:22.000Z</time>
      </trkpt>
      <trkpt lat="44.0128" lon="2.59302">
        <ele>382</ele>
        <time>2021-10-31T08:01:23.000Z</time>
      </trkpt>
      <trkpt lat="44.01279" lon="2.59303">
        <ele>382</ele>
        <time>2021-10-31T08:01:24.000Z</time>
      </trkpt>
      <trkpt lat="44.01278" lon="2.59303">
        <ele>382</ele>
        <time>2021-10-31T08:01:25.000Z</time>
      </trkpt>
      <trkpt lat="44.01277" lon="2.59304">
        <ele>382</ele>
        <time>2021-10-31T08:01:26.000Z</time>
      </trkpt>
      <trkpt lat="44.01276" lon="2.59305">
        <ele>382</ele>
        <time>2021-10-31T08:01:27.000Z</time>
      </trkpt>
      <trkpt lat="44.01275" lon="2.59306">
        <ele>382</ele>
        <time>2021-10-31T08:01:28.000Z</time>
      </trkpt>
      <trkpt lat="44.01275" lon="2.59307">
        <ele>382</ele>
        <time>2021-10-31T08:01:29.000Z</time>
      </trkpt>
      <trkpt lat="44.01274" lon="2.59308">
        <ele>382</ele>
        <time>2021-10-31T08:01:30.000Z</time>
      </trkpt>
      <trkpt lat="44.01273" lon="2.59309">
        <ele>382</ele>
        <time>2021-10-31T08:01:31.000Z</time>
      </trkpt>
      <trkpt lat="44.01273" lon="2.5931">
        <ele>382</ele>
        <time>2021-10-31T08:01:32.000Z</time>
      </trkpt>
      <trkpt lat="44.01272" lon="2.59311">
        <ele>382</ele>
        <time>2021-10-31T08:01:33.000Z</time>
      </trkpt>
      <trkpt lat="44.01271" lon="2.59312">
        <ele>382</ele>
        <time>2021-10-31T08:01:34.000Z</time>
      </trkpt>
      <trkpt lat="44.0127" lon="2.59313">
        <ele>382</ele>
        <time>2021-10-31T08:01:35.000Z</time>
      </trkpt>
      <trkpt lat="44.01269" lon="2.59313">
        <ele>382</ele>
        <time>2021-10-31T08:01:36.000Z</time>
      </trkpt>
      <trkpt lat="44.01269" lon="2.59314">
        <ele>383</ele>
        <time>2021-10-31T08:01:37.000Z</time>
      </trkpt>
      <trkpt lat="44.01268" lon="2.59315">
        <ele>383</ele>
        <time>2021-10-31T08:01:38.000Z</time>
      </trkpt>
      <trkpt lat="44.01267" lon="2.59315">
        <ele>383</ele>
        <time>2021-10-31T08:01:39.000Z</time>
      </trkpt>
      <trkpt lat="44.01267" lon="2.59316">
        <ele>383</ele>
        <time>2021-10-31T08:01:40.000Z</time>
      </trkpt>
      <trkpt lat="44.01266" lon="2.59316">
        <ele>383</ele>
        <time>2021-10-31T08:01:41.000Z</time>
      </trkpt>
      <trkpt lat="44.01265" lon="2.59317">
        <ele>383</ele>
        <time>2021-10-31T08:01:42.000Z</time>
      </trkpt>
      <trkpt lat="44.01265" lon="2.59318">
        <ele>383</ele>
        <time>2021-10-31T08:01:43.000Z</time>
      </trkpt>
      <trkpt lat="44.01263" lon="2.59319">
        <ele>383</ele>
        <time>2021-10-31T08:01:44.000Z</time>
      </trkpt>
      <trkpt lat="44.01262" lon="2.59319">
        <ele>383</ele>
        <time>2021-10-31T08:01:45.000Z</time>
      </trkpt>
      <trkpt lat="44.01261" lon="2.5932">
        <ele>383</ele>
        <time>2021-10-31T08:01:46.000Z</time>
      </trkpt>
      <trkpt lat="44.0126" lon="2.59321">
        <ele>383</ele>
        <time>2021-10-31T08:01:47.000Z</time>
      </trkpt>
      <trkpt lat="44.01259" lon="2.59322">
        <ele>383</ele>
        <time>2021-10-31T08:01:48.000Z</time>
      </trkpt>
      <trkpt lat="44.01258" lon="2.59323">
        <ele>383</ele>
        <time>2021-10-31T08:01:49.000Z</time>
      </trkpt>
      <trkpt lat="44.01257" lon="2.59324">
        <ele>382</ele>
        <time>2021-10-31T08:01:50.000Z</time>
      </trkpt>
      <trkpt lat="44.01257" lon="2.59324">
        <ele>382</ele>
        <time>2021-10-31T08:01:51.000Z</time>
      </trkpt>
      <trkpt lat="44.01256" lon="2.59325">
        <ele>382</ele>
        <time>2021-10-31T08:01:52.000Z</time>
      </trkpt>
      <trkpt lat="44.01255" lon="2.59326">
        <ele>383</ele>
        <time>2021-10-31T08:01:53.000Z</time>
      </trkpt>
      <trkpt lat="44.01255" lon="2.59327">
        <ele>383</ele>
        <time>2021-10-31T08:01:54.000Z</time>
      </trkpt>
      <trkpt lat="44.01254" lon="2.59328">
        <ele>383</ele>
        <time>2021-10-31T08:01:55.000Z</time>
      </trkpt>
      <trkpt lat="44.01254" lon="2.59329">
        <ele>383</ele>
        <time>2021-10-31T08:01:56.000Z</time>
      </trkpt>
      <trkpt lat="44.01253" lon="2.5933">
        <ele>383</ele>
        <time>2021-10-31T08:01:57.000Z</time>
      </trkpt>
      <trkpt lat="44.01253" lon="2.59331">
        <ele>383</ele>
        <time>2021-10-31T08:01:58.000Z</time>
      </trkpt>
      <trkpt lat="44.01253" lon="2.59332">
        <ele>383</ele>
        <time>2021-10-31T08:01:59.000Z</time>
      </trkpt>
      <trkpt lat="44.01253" lon="2.59333">
        <ele>383</ele>
        <time>2021-10-31T08:02:00.000Z</time>
      </trkpt>
      <trkpt lat="44.01254" lon="2.59333">
        <ele>383</ele>
        <time>2021-10-31T08:02:01.000Z</time>
      </trkpt>
      <trkpt lat="44.01254" lon="2.59334">
        <ele>383</ele>
        <time>2021-10-31T08:02:02.000Z</time>
      </trkpt>
      <trkpt lat="44.01255" lon="2.59334">
        <ele>383</ele>
        <time>2021-10-31T08:02:03.000Z</time>
      </trkpt>
      <trkpt lat="44.01255" lon="2.59335">
        <ele>383</ele>
        <time>2021-10-31T08:02:04.000Z</time>
      </trkpt>
      <trkpt lat="44.01256" lon="2.59335">
        <ele>383</ele>
        <time>2021-10-31T08:02:05.000Z</time>
      </trkpt>
      <trkpt lat="44.01256" lon="2.59334">
        <ele>383</ele>
        <time>2021-10-31T08:02:06.000Z</time>
      </trkpt>
      <trkpt lat="44.01257" lon="2.59334">
        <ele>383</ele>
        <time>2021-10-31T08:02:07.000Z</time>
      </trkpt>
      <trkpt lat="44.01258" lon="2.59334">
        <ele>384</ele>
        <time>2021-10-31T08:02:08.000Z</time>
      </trkpt>
      <trkpt lat="44.01258" lon="2.59333">
        <ele>384</ele>
        <time>2021-10-31T08:02:09.000Z</time>
      </trkpt>
      <trkpt lat="44.01259" lon="2.59332">
        <ele>384</ele>
        <time>2021-10-31T08:02:10.000Z</time>
      </trkpt>
      <trkpt lat="44.0126" lon="2.59332">
        <ele>384</ele>
        <time>2021-10-31T08:02:11.000Z</time>
      </trkpt>
      <trkpt lat="44.0126" lon="2.59332">
        <ele>384</ele>
        <time>2021-10-31T08:02:12.000Z</time>
      </trkpt>
      <trkpt lat="44.01261" lon="2.59331">
        <ele>384</ele>
        <time>2021-10-31T08:02:13.000Z</time>
      </trkpt>
      <trkpt lat="44.01262" lon="2.5933">
        <ele>384</ele>
        <time>2021-10-31T08:02:14.000Z</time>
      </trkpt>
      <trkpt lat="44.01262" lon="2.59329">
        <ele>384</ele>
        <time>2021-10-31T08:02:15.000Z</time>
      </trkpt>
      <trkpt lat="44.01263" lon="2.59329">
        <ele>384</ele>
        <time>2021-10-31T08:02:16.000Z</time>
      </trkpt>
      <trkpt lat="44.01264" lon="2.59328">
        <ele>384</ele>
        <time>2021-10-31T08:02:17.000Z</time>
      </trkpt>
      <trkpt lat="44.01265" lon="2.59327">
        <ele>384</ele>
        <time>2021-10-31T08:02:18.000Z</time>
      </trkpt>
      <trkpt lat="44.01265" lon="2.59326">
        <ele>384</ele>
        <time>2021-10-31T08:02:19.000Z</time>
      </trkpt>
      <trkpt lat="44.01266" lon="2.59325">
        <ele>384</ele>
        <time>2021-10-31T08:02:20.000Z</time>
      </trkpt>
      <trkpt lat="44.01267" lon="2.59325">
        <ele>384</ele>
        <time>2021-10-31T08:02:21.000Z</time>
      </trkpt>
      <trkpt lat="44.01268" lon="2.59324">
        <ele>384</ele>
        <time>2021-10-31T08:02:22.000Z</time>
      </trkpt>
      <trkpt lat="44.01269" lon="2.59323">
        <ele>384</ele>
        <time>2021-10-31T08:02:23.000Z</time>
      </trkpt>
      <trkpt lat="44.0127" lon="2.59323">
        <ele>384</ele>
        <time>2021-10-31T08:02:24.000Z</time>
      </trkpt>
      <trkpt lat="44.01271" lon="2.59322">
        <ele>384</ele>
        <time>2021-10-31T08:02:25.000Z</time>
      </trkpt>
      <trkpt lat="44.01272" lon="2.59321">
        <ele>384</ele>
        <time>2021-10-31T08:02:26.000Z</time>
      </trkpt>
      <trkpt lat="44.01273" lon="2.59321">
        <ele>384</ele>
        <time>2021-10-31T08:02:27.000Z</time>
      </trkpt>
      <trkpt lat="44.01274" lon="2.5932">
        <ele>384</ele>
        <time>2021-10-31T08:02:28.000Z</time>
      </trkpt>
      <trkpt lat="44.01275" lon="2.5932">
        <ele>384</ele>
        <time>2021-10-31T08:02:29.000Z</time>
      </trkpt>
      <trkpt lat="44.01276" lon="2.59319">
        <ele>384</ele>
        <time>2021-10-31T08:02:30.000Z</time>
      </trkpt>
      <trkpt lat="44.01277" lon="2.59319">
        <ele>384</ele>
        <time>2021-10-31T08:02:31.000Z</time>
      </trkpt>
      <trkpt lat="44.01278" lon="2.59318">
        <ele>384</ele>
        <time>2021-10-31T08:02:32.000Z</time>
      </trkpt>
      <trkpt lat="44.01279" lon="2.59318">
        <ele>384</ele>
        <time>2021-10-31T08:02:33.000Z</time>
      </trkpt>
      <trkpt lat="44.0128" lon="2.59317">
        <ele>384</ele>
        <time>2021-10-31T08:02:34.000Z</time>
      </trkpt>
      <trkpt lat="44.01281" lon="2.59317">
        <ele>384</ele>
        <time>2021-10-31T08:02:35.000Z</time>
      </trkpt>
      <trkpt lat="44.01282" lon="2.59316">
        <ele>384</ele>
        <time>2021-10-31T08:02:36.000Z</time>
      </trkpt>
      <trkpt lat="44.01283" lon="2.59316">
        <ele>384</ele>
        <time>2021-10-31T08:02:37.000Z</time>
      </trkpt>
      <trkpt lat="44.01283" lon="2.59315">
        <ele>385</ele>
        <time>2021-10-31T08:02:38.000Z</time>
      </trkpt>
      <trkpt lat="44.01284" lon="2.59315">
        <ele>385</ele>
        <time>2021-10-31T08:02:39.000Z</time>
      </trkpt>
      <trkpt lat="44.01285" lon="2.59315">
        <ele>385</ele>
        <time>2021-10-31T08:02:40.000Z</time>
      </trkpt>
      <trkpt lat="44.01286" lon="2.59314">
        <ele>385</ele>
        <time>2021-10-31T08:02:41.000Z</time>
      </trkpt>
      <trkpt lat="44.01287" lon="2.59314">
        <ele>385</ele>
        <time>2021-10-31T08:02:42.000Z</time>
      </trkpt>
      <trkpt lat="44.01288" lon="2.59313">
        <ele>385</ele>
        <time>2021-10-31T08:02:43.000Z</time>
      </trkpt>
      <trkpt lat="44.01288" lon="2.59312">
        <ele>385</ele>
        <time>2021-10-31T08:02:44.000Z</time>
      </trkpt>
      <trkpt lat="44.01289" lon="2.59312">
        <ele>385</ele>
        <time>2021-10-31T08:02:45.000Z</time>
      </trkpt>
      <trkpt lat="44.01289" lon="2.59311">
        <ele>385</ele>
        <time>2021-10-31T08:02:46.000Z</time>
      </trkpt>
      <trkpt lat="44.0129" lon="2.59311">
        <ele>386</ele>
        <time>2021-10-31T08:02:47.000Z</time>
      </trkpt>
      <trkpt lat="44.01291" lon="2.5931">
        <ele>386</ele>
        <time>2021-10-31T08:02:48.000Z</time>
      </trkpt>
      <trkpt lat="44.01292" lon="2.5931">
        <ele>386</ele>
        <time>2021-10-31T08:02:49.000Z</time>
      </trkpt>
      <trkpt lat="44.01293" lon="2.59309">
        <ele>386</ele>
        <time>2021-10-31T08:02:50.000Z</time>
      </trkpt>
      <trkpt lat="44.01293" lon="2.59309">
        <ele>386</ele>
        <time>2021-10-31T08:02:51.000Z</time>
      </trkpt>
      <trkpt lat="44.01294" lon="2.59309">
        <ele>386</ele>
        <time>2021-10-31T08:02:52.000Z</time>
      </trkpt>
      <trkpt lat="44.01295" lon="2.59308">
        <ele>387</ele>
        <time>2021-10-31T08:02:53.000Z</time>
      </trkpt>
      <trkpt lat="44.01296" lon="2.59307">
        <ele>387</ele>
        <time>2021-10-31T08:02:54.000Z</time>
      </trkpt>
      <trkpt lat="44.01297" lon="2.59307">
        <ele>387</ele>
        <time>2021-10-31T08:02:55.000Z</time>
      </trkpt>
      <trkpt lat="44.01298" lon="2.59306">
        <ele>387</ele>
        <time>2021-10-31T08:02:56.000Z</time>
      </trkpt>
      <trkpt lat="44.01298" lon="2.59306">
        <ele>387</ele>
        <time>2021-10-31T08:02:57.000Z</time>
      </trkpt>
      <trkpt lat="44.01299" lon="2.59305">
        <ele>387</ele>
        <time>2021-10-31T08:02:58.000Z</time>
      </trkpt>
      <trkpt lat="44.013" lon="2.59304">
        <ele>388</ele>
        <time>2021-10-31T08:02:59.000Z</time>
      </trkpt>
      <trkpt lat="44.01301" lon="2.59303">
        <ele>388</ele>
        <time>2021-10-31T08:03:00.000Z</time>
      </trkpt>
      <trkpt lat="44.01302" lon="2.59303">
        <ele>388</ele>
        <time>2021-10-31T08:03:01.000Z</time>
      </trkpt>
      <trkpt lat="44.01303" lon="2.59302">
        <ele>388</ele>
        <time>2021-10-31T08:03:02.000Z</time>
      </trkpt>
      <trkpt lat="44.01304" lon="2.59302">
        <ele>388</ele>
        <time>2021-10-31T08:03:03.000Z</time>
      </trkpt>
      <trkpt lat="44.01304" lon="2.59301">
        <ele>389</ele>
        <time>2021-10-31T08:03:04.000Z</time>
      </trkpt>
      <trkpt lat="44.01305" lon="2.593">
        <ele>389</ele>
        <time>2021-10-31T08:03:05.000Z</time>
      </trkpt>
      <trkpt lat="44.01306" lon="2.593">
        <ele>389</ele>
        <time>2021-10-31T08:03:06.000Z</time>
      </trkpt>
      <trkpt lat="44.01307" lon="2.593">
        <ele>389</ele>
        <time>2021-10-31T08:03:07.000Z</time>
      </trkpt>
      <trkpt lat="44.01308" lon="2.59299">
        <ele>390</ele>
        <time>2021-10-31T08:03:08.000Z</time>
      </trkpt>
      <trkpt lat="44.01308" lon="2.59298">
        <ele>390</ele>
        <time>2021-10-31T08:03:09.000Z</time>
      </trkpt>
      <trkpt lat="44.01309" lon="2.59298">
        <ele>390</ele>
        <time>2021-10-31T08:03:10.000Z</time>
      </trkpt>
      <trkpt lat="44.0131" lon="2.59297">
        <ele>390</ele>
        <time>2021-10-31T08:03:11.000Z</time>
      </trkpt>
      <trkpt lat="44.0131" lon="2.59296">
        <ele>391</ele>
        <time>2021-10-31T08:03:12.000Z</time>
      </trkpt>
      <trkpt lat="44.01311" lon="2.59296">
        <ele>391</ele>
        <time>2021-10-31T08:03:13.000Z</time>
      </trkpt>
      <trkpt lat="44.01312" lon="2.59295">
        <ele>391</ele>
        <time>2021-10-31T08:03:14.000Z</time>
      </trkpt>
      <trkpt lat="44.01313" lon="2.59294">
        <ele>392</ele>
        <time>2021-10-31T08:03:15.000Z</time>
      </trkpt>
      <trkpt lat="44.01313" lon="2.59294">
        <ele>392</ele>
        <time>2021-10-31T08:03:16.000Z</time>
      </trkpt>
      <trkpt lat="44.01314" lon="2.59293">
        <ele>392</ele>
        <time>2021-10-31T08:03:17.000Z</time>
      </trkpt>
      <trkpt lat="44.01315" lon="2.59293">
        <ele>392</ele>
        <time>2021-10-31T08:03:18.000Z</time>
      </trkpt>
      <trkpt lat="44.01315" lon="2.59292">
        <ele>393</ele>
        <time>2021-10-31T08:03:19.000Z</time>
      </trkpt>
      <trkpt lat="44.01316" lon="2.59291">
        <ele>393</ele>
        <time>2021-10-31T08:03:20.000Z</time>
      </trkpt>
      <trkpt lat="44.01317" lon="2.5929">
        <ele>393</ele>
        <time>2021-10-31T08:03:21.000Z</time>
      </trkpt>
      <trkpt lat="44.01318" lon="2.5929">
        <ele>394</ele>
        <time>2021-10-31T08:03:22.000Z</time>
      </trkpt>
      <trkpt lat="44.01319" lon="2.59289">
        <ele>394</ele>
        <time>2021-10-31T08:03:23.000Z</time>
      </trkpt>
      <trkpt lat="44.0132" lon="2.59288">
        <ele>394</ele>
        <time>2021-10-31T08:03:24.000Z</time>
      </trkpt>
      <trkpt lat="44.01321" lon="2.59288">
        <ele>394</ele>
        <time>2021-10-31T08:03:25.000Z</time>
      </trkpt>
      <trkpt lat="44.01322" lon="2.59288">
        <ele>395</ele>
        <time>2021-10-31T08:03:26.000Z</time>
      </trkpt>
      <trkpt lat="44.01323" lon="2.59287">
        <ele>395</ele>
        <time>2021-10-31T08:03:27.000Z</time>
      </trkpt>
      <trkpt lat="44.01324" lon="2.59286">
        <ele>395</ele>
        <time>2021-10-31T08:03:28.000Z</time>
      </trkpt>
      <trkpt lat="44.01325" lon="2.59286">
        <ele>395</ele>
        <time>2021-10-31T08:03:29.000Z</time>
      </trkpt>
      <trkpt lat="44.01326" lon="2.59285">
        <ele>396</ele>
        <time>2021-10-31T08:03:30.000Z</time>
      </trkpt>
      <trkpt lat="44.01327" lon="2.59285">
        <ele>396</ele>
        <time>2021-10-31T08:03:31.000Z</time>
      </trkpt>
      <trkpt lat="44.01328" lon="2.59284">
        <ele>396</ele>
        <time>2021-10-31T08:03:32.000Z</time>
      </trkpt>
      <trkpt lat="44.01328" lon="2.59284">
        <ele>396</ele>
        <time>2021-10-31T08:03:33.000Z</time>
      </trkpt>
      <trkpt lat="44.01329" lon="2.59283">
        <ele>396</ele>
        <time>2021-10-31T08:03:34.000Z</time>
      </trkpt>
      <trkpt lat="44.0133" lon="2.59282">
        <ele>397</ele>
        <time>2021-10-31T08:03:35.000Z</time>
      </trkpt>
      <trkpt lat="44.01331" lon="2.59282">
        <ele>397</ele>
        <time>2021-10-31T08:03:36.000Z</time>
      </trkpt>
      <trkpt lat="44.01331" lon="2.59281">
        <ele>397</ele>
        <time>2021-10-31T08:03:37.000Z</time>
      </trkpt>
      <trkpt lat="44.01332" lon="2.59281">
        <ele>397</ele>
        <time>2021-10-31T08:03:38.000Z</time>
      </trkpt>
      <trkpt lat="44.01333" lon="2.5928">
        <ele>397</ele>
        <time>2021-10-31T08:03:39.000Z</time>
      </trkpt>
      <trkpt lat="44.01334" lon="2.5928">
        <ele>397</ele>
        <time>2021-10-31T08:03:40.000Z</time>
      </trkpt>
      <trkpt lat="44.01335" lon="2.5928">
        <ele>398</ele>
        <time>2021-10-31T08:03:41.000Z</time>
      </trkpt>
      <trkpt lat="44.01335" lon="2.59279">
        <ele>398</ele>
        <time>2021-10-31T08:03:42.000Z</time>
      </trkpt>
      <trkpt lat="44.01336" lon="2.59279">
        <ele>398</ele>
        <time>2021-10-31T08:03:43.000Z</time>
      </trkpt>
      <trkpt lat="44.01337" lon="2.59279">
        <ele>398</ele>
        <time>2021-10-31T08:03:44.000Z</time>
      </trkpt>
      <trkpt lat="44.01338" lon="2.59278">
        <ele>398</ele>
        <time>2021-10-31T08:03:45.000Z</time>
      </trkpt>
      <trkpt lat="44.01338" lon="2.59278">
        <ele>399</ele>
        <time>2021-10-31T08:03:46.000Z</time>
      </trkpt>
      <trkpt lat="44.01339" lon="2.59277">
        <ele>399</ele>
        <time>2021-10-31T08:03:47.000Z</time>
      </trkpt>
      <trkpt lat="44.0134" lon="2.59277">
        <ele>399</ele>
        <time>2021-10-31T08:03:48.000Z</time>
      </trkpt>
      <trkpt lat="44.01341" lon="2.59276">
        <ele>399</ele>
        <time>2021-10-31T08:03:49.000Z</time>
      </trkpt>
      <trkpt lat="44.01342" lon="2.59276">
        <ele>399</ele>
        <time>2021-10-31T08:03:50.000Z</time>
      </trkpt>
      <trkpt lat="44.01343" lon="2.59276">
        <ele>399</ele>
        <time>2021-10-31T08:03:51.000Z</time>
      </trkpt>
      <trkpt lat="44.01344" lon="2.59275">
        <ele>399</ele>
        <time>2021-10-31T08:03:52.000Z</time>
      </trkpt>
      <trkpt lat="44.01345" lon="2.59275">
        <ele>400</ele>
        <time>2021-10-31T08:03:53.000Z</time>
      </trkpt>
      <trkpt lat="44.01346" lon="2.59275">
        <ele>400</ele>
        <time>2021-10-31T08:03:54.000Z</time>
      </trkpt>
      <trkpt lat="44.01347" lon="2.59274">
        <ele>400</ele>
        <time>2021-10-31T08:03:55.000Z</time>
      </trkpt>
      <trkpt lat="44.01348" lon="2.59274">
        <ele>401</ele>
        <time>2021-10-31T08:03:56.000Z</time>
      </trkpt>
      <trkpt lat="44.01349" lon="2.59274">
        <ele>401</ele>
        <time>2021-10-31T08:03:57.000Z</time>
      </trkpt>
      <trkpt lat="44.0135" lon="2.59273">
        <ele>401</ele>
        <time>2021-10-31T08:03:58.000Z</time>
      </trkpt>
      <trkpt lat="44.01351" lon="2.59273">
        <ele>401</ele>
        <time>2021-10-31T08:03:59.000Z</time>
      </trkpt>
      <trkpt lat="44.01352" lon="2.59273">
        <ele>402</ele>
        <time>2021-10-31T08:04:00.000Z</time>
      </trkpt>
      <trkpt lat="44.01353" lon="2.59274">
        <ele>402</ele>
        <time>2021-10-31T08:04:01.000Z</time>
      </trkpt>
      <trkpt lat="44.01354" lon="2.59273">
        <ele>402</ele>
        <time>2021-10-31T08:04:02.000Z</time>
      </trkpt>
      <trkpt lat="44.01355" lon="2.59273">
        <ele>402</ele>
        <time>2021-10-31T08:04:03.000Z</time>
      </trkpt>
      <trkpt lat="44.01356" lon="2.59273">
        <ele>402</ele>
        <time>2021-10-31T08:04:04.000Z</time>
      </trkpt>
      <trkpt lat="44.01357" lon="2.59273">
        <ele>403</ele>
        <time>2021-10-31T08:04:05.000Z</time>
      </trkpt>
      <trkpt lat="44.01358" lon="2.59273">
        <ele>403</ele>
        <time>2021-10-31T08:04:06.000Z</time>
      </trkpt>
      <trkpt lat="44.01359" lon="2.59273">
        <ele>403</ele>
        <time>2021-10-31T08:04:07.000Z</time>
      </trkpt>
      <trkpt lat="44.0136" lon="2.59274">
        <ele>403</ele>
        <time>2021-10-31T08:04:08.000Z</time>
      </trkpt>
      <trkpt lat="44.01361" lon="2.59274">
        <ele>403</ele>
        <time>2021-10-31T08:04:09.000Z</time>
      </trkpt>
      <trkpt lat="44.01362" lon="2.59274">
        <ele>403</ele>
        <time>2021-10-31T08:04:10.000Z</time>
      </trkpt>
      <trkpt lat="44.01363" lon="2.59274">
        <ele>403</ele>
        <time>2021-10-31T08:04:11.000Z</time>
      </trkpt>
      <trkpt lat="44.01364" lon="2.59274">
        <ele>404</ele>
        <time>2021-10-31T08:04:12.000Z</time>
      </trkpt>
      <trkpt lat="44.01365" lon="2.59274">
        <ele>404</ele>
        <time>2021-10-31T08:04:13.000Z</time>
      </trkpt>
      <trkpt lat="44.01366" lon="2.59274">
        <ele>404</ele>
        <time>2021-10-31T08:04:14.000Z</time>
      </trkpt>
      <trkpt lat="44.01367" lon="2.59274">
        <ele>404</ele>
        <time>2021-10-31T08:04:15.000Z</time>
      </trkpt>
      <trkpt lat="44.01368" lon="2.59275">
        <ele>404</ele>
        <time>2021-10-31T08:04:16.000Z</time>
      </trkpt>
      <trkpt lat="44.01369" lon="2.59275">
        <ele>404</ele>
        <time>2021-10-31T08:04:17.000Z</time>
      </trkpt>
      <trkpt lat="44.0137" lon="2.59275">
        <ele>404</ele>
        <time>2021-10-31T08:04:18.000Z</time>
      </trkpt>
      <trkpt lat="44.01371" lon="2.59275">
        <ele>404</ele>
        <time>2021-10-31T08:04:19.000Z</time>
      </trkpt>
      <trkpt lat="44.01372" lon="2.59275">
        <ele>404</ele>
        <time>2021-10-31T08:04:20.000Z</time>
      </trkpt>
      <trkpt lat="44.01373" lon="2.59275">
        <ele>404</ele>
        <time>2021-10-31T08:04:21.000Z</time>
      </trkpt>
      <trkpt lat="44.01374" lon="2.59275">
        <ele>404</ele>
        <time>2021-10-31T08:04:22.000Z</time>
      </trkpt>
      <trkpt lat="44.01375" lon="2.59276">
        <ele>404</ele>
        <time>2021-10-31T08:04:23.000Z</time>
      </trkpt>
      <trkpt lat="44.01376" lon="2.59276">
        <ele>404</ele>
        <time>2021-10-31T08:04:24.000Z</time>
      </trkpt>
      <trkpt lat="44.01377" lon="2.59276">
        <ele>404</ele>
        <time>2021-10-31T08:04:25.000Z</time>
      </trkpt>
      <trkpt lat="44.01378" lon="2.59277">
        <ele>404</ele>
        <time>2021-10-31T08:04:26.000Z</time>
      </trkpt>
      <trkpt lat="44.0138" lon="2.59277">
        <ele>404</ele>
        <time>2021-10-31T08:04:27.000Z</time>
      </trkpt>
      <trkpt lat="44.0138" lon="2.59277">
        <ele>404</ele>
        <time>2021-10-31T08:04:28.000Z</time>
      </trkpt>
      <trkpt lat="44.01382" lon="2.59277">
        <ele>404</ele>
        <time>2021-10-31T08:04:29.000Z</time>
      </trkpt>
      <trkpt lat="44.01383" lon="2.59277">
        <ele>404</ele>
        <time>2021-10-31T08:04:30.000Z</time>
      </trkpt>
      <trkpt lat="44.01384" lon="2.59277">
        <ele>404</ele>
        <time>2021-10-31T08:04:31.000Z</time>
      </trkpt>
      <trkpt lat="44.01385" lon="2.59278">
        <ele>404</ele>
        <time>2021-10-31T08:04:32.000Z</time>
      </trkpt>
      <trkpt lat="44.01386" lon="2.59278">
        <ele>404</ele>
        <time>2021-10-31T08:04:33.000Z</time>
      </trkpt>
      <trkpt lat="44.01387" lon="2.59278">
        <ele>404</ele>
        <time>2021-10-31T08:04:34.000Z</time>
      </trkpt>
      <trkpt lat="44.01388" lon="2.59277">
        <ele>404</ele>
        <time>2021-10-31T08:04:35.000Z</time>
      </trkpt>
      <trkpt lat="44.01388" lon="2.59277">
        <ele>404</ele>
        <time>2021-10-31T08:04:36.000Z</time>
      </trkpt>
      <trkpt lat="44.01389" lon="2.59277">
        <ele>404</ele>
        <time>2021-10-31T08:04:37.000Z</time>
      </trkpt>
      <trkpt lat="44.0139" lon="2.59276">
        <ele>404</ele>
        <time>2021-10-31T08:04:38.000Z</time>
      </trkpt>
      <trkpt lat="44.01391" lon="2.59276">
        <ele>404</ele>
        <time>2021-10-31T08:04:39.000Z</time>
      </trkpt>
      <trkpt lat="44.01392" lon="2.59275">
        <ele>404</ele>
        <time>2021-10-31T08:04:40.000Z</time>
      </trkpt>
      <trkpt lat="44.01393" lon="2.59275">
        <ele>404</ele>
        <time>2021-10-31T08:04:41.000Z</time>
      </trkpt>
      <trkpt lat="44.01394" lon="2.59274">
        <ele>404</ele>
        <time>2021-10-31T08:04:42.000Z</time>
      </trkpt>
      <trkpt lat="44.01395" lon="2.59273">
        <ele>404</ele>
        <time>2021-10-31T08:04:43.000Z</time>
      </trkpt>
      <trkpt lat="44.01396" lon="2.59273">
        <ele>404</ele>
        <time>2021-10-31T08:04:44.000Z</time>
      </trkpt>
      <trkpt lat="44.01396" lon="2.59272">
        <ele>404</ele>
        <time>2021-10-31T08:04:45.000Z</time>
      </trkpt>
      <trkpt lat="44.01397" lon="2.59271">
        <ele>404</ele>
        <time>2021-10-31T08:04:46.000Z</time>
      </trkpt>
      <trkpt lat="44.01398" lon="2.5927">
        <ele>404</ele>
        <time>2021-10-31T08:04:47.000Z</time>
      </trkpt>
      <trkpt lat="44.01398" lon="2.59269">
        <ele>404</ele>
        <time>2021-10-31T08:04:48.000Z</time>
      </trkpt>
      <trkpt lat="44.01399" lon="2.59268">
        <ele>405</ele>
        <time>2021-10-31T08:04:49.000Z</time>
      </trkpt>
      <trkpt lat="44.014" lon="2.59267">
        <ele>405</ele>
        <time>2021-10-31T08:04:50.000Z</time>
      </trkpt>
      <trkpt lat="44.01401" lon="2.59267">
        <ele>405</ele>
        <time>2021-10-31T08:04:51.000Z</time>
      </trkpt>
      <trkpt lat="44.01401" lon="2.59266">
        <ele>405</ele>
        <time>2021-10-31T08:04:52.000Z</time>
      </trkpt>
      <trkpt lat="44.01402" lon="2.59265">
        <ele>405</ele>
        <time>2021-10-31T08:04:53.000Z</time>
      </trkpt>
      <trkpt lat="44.01403" lon="2.59264">
        <ele>405</ele>
        <time>2021-10-31T08:04:54.000Z</time>
      </trkpt>
      <trkpt lat="44.01404" lon="2.59263">
        <ele>405</ele>
        <time>2021-10-31T08:04:55.000Z</time>
      </trkpt>
      <trkpt lat="44.01404" lon="2.59262">
        <ele>405</ele>
        <time>2021-10-31T08:04:56.000Z</time>
      </trkpt>
      <trkpt lat="44.01405" lon="2.59261">
        <ele>405</ele>
        <time>2021-10-31T08:04:57.000Z</time>
      </trkpt>
      <trkpt lat="44.01406" lon="2.5926">
        <ele>405</ele>
        <time>2021-10-31T08:04:58.000Z</time>
      </trkpt>
      <trkpt lat="44.01407" lon="2.5926">
        <ele>405</ele>
        <time>2021-10-31T08:04:59.000Z</time>
      </trkpt>
      <trkpt lat="44.01408" lon="2.59259">
        <ele>405</ele>
        <time>2021-10-31T08:05:00.000Z</time>
      </trkpt>
      <trkpt lat="44.01408" lon="2.59258">
        <ele>406</ele>
        <time>2021-10-31T08:05:01.000Z</time>
      </trkpt>
      <trkpt lat="44.01409" lon="2.59258">
        <ele>406</ele>
        <time>2021-10-31T08:05:02.000Z</time>
      </trkpt>
      <trkpt lat="44.0141" lon="2.59257">
        <ele>406</ele>
        <time>2021-10-31T08:05:03.000Z</time>
      </trkpt>
      <trkpt lat="44.01411" lon="2.59257">
        <ele>406</ele>
        <time>2021-10-31T08:05:04.000Z</time>
      </trkpt>
      <trkpt lat="44.01412" lon="2.59256">
        <ele>406</ele>
        <time>2021-10-31T08:05:05.000Z</time>
      </trkpt>
      <trkpt lat="44.01412" lon="2.59256">
        <ele>406</ele>
        <time>2021-10-31T08:05:06.000Z</time>
      </trkpt>
      <trkpt lat="44.01413" lon="2.59255">
        <ele>406</ele>
        <time>2021-10-31T08:05:07.000Z</time>
      </trkpt>
      <trkpt lat="44.01414" lon="2.59255">
        <ele>406</ele>
        <time>2021-10-31T08:05:08.000Z</time>
      </trkpt>
      <trkpt lat="44.01414" lon="2.59255">
        <ele>406</ele>
        <time>2021-10-31T08:05:09.000Z</time>
      </trkpt>
      <trkpt lat="44.01415" lon="2.59254">
        <ele>406</ele>
        <time>2021-10-31T08:05:10.000Z</time>
      </trkpt>
      <trkpt lat="44.01416" lon="2.59254">
        <ele>406</ele>
        <time>2021-10-31T08:05:11.000Z</time>
      </trkpt>
      <trkpt lat="44.01416" lon="2.59253">
        <ele>406</ele>
        <time>2021-10-31T08:05:12.000Z</time>
      </trkpt>
      <trkpt lat="44.01417" lon="2.59252">
        <ele>406</ele>
        <time>2021-10-31T08:05:13.000Z</time>
      </trkpt>
      <trkpt lat="44.01418" lon="2.59252">
        <ele>406</ele>
        <time>2021-10-31T08:05:14.000Z</time>
      </trkpt>
      <trkpt lat="44.01419" lon="2.59251">
        <ele>406</ele>
        <time>2021-10-31T08:05:15.000Z</time>
      </trkpt>
      <trkpt lat="44.0142" lon="2.5925">
        <ele>406</ele>
        <time>2021-10-31T08:05:16.000Z</time>
      </trkpt>
      <trkpt lat="44.01421" lon="2.5925">
        <ele>407</ele>
        <time>2021-10-31T08:05:17.000Z</time>
      </trkpt>
      <trkpt lat="44.01421" lon="2.5925">
        <ele>407</ele>
        <time>2021-10-31T08:05:18.000Z</time>
      </trkpt>
      <trkpt lat="44.01422" lon="2.5925">
        <ele>407</ele>
        <time>2021-10-31T08:05:19.000Z</time>
      </trkpt>
      <trkpt lat="44.01423" lon="2.5925">
        <ele>407</ele>
        <time>2021-10-31T08:05:20.000Z</time>
      </trkpt>
      <trkpt lat="44.01424" lon="2.5925">
        <ele>407</ele>
        <time>2021-10-31T08:05:21.000Z</time>
      </trkpt>
      <trkpt lat="44.01425" lon="2.59249">
        <ele>407</ele>
        <time>2021-10-31T08:05:22.000Z</time>
      </trkpt>
      <trkpt lat="44.01426" lon="2.59249">
        <ele>407</ele>
        <time>2021-10-31T08:05:23.000Z</time>
      </trkpt>
      <trkpt lat="44.01427" lon="2.59248">
        <ele>407</ele>
        <time>2021-10-31T08:05:24.000Z</time>
      </trkpt>
      <trkpt lat="44.01428" lon="2.59248">
        <ele>407</ele>
        <time>2021-10-31T08:05:25.000Z</time>
      </trkpt>
      <trkpt lat="44.01429" lon="2.59247">
        <ele>407</ele>
        <time>2021-10-31T08:05:26.000Z</time>
      </trkpt>
      <trkpt lat="44.0143" lon="2.59247">
        <ele>407</ele>
        <time>2021-10-31T08:05:27.000Z</time>
      </trkpt>
      <trkpt lat="44.01431" lon="2.59246">
        <ele>407</ele>
        <time>2021-10-31T08:05:28.000Z</time>
      </trkpt>
      <trkpt lat="44.01432" lon="2.59246">
        <ele>407</ele>
        <time>2021-10-31T08:05:29.000Z</time>
      </trkpt>
      <trkpt lat="44.01432" lon="2.59246">
        <ele>407</ele>
        <time>2021-10-31T08:05:30.000Z</time>
      </trkpt>
      <trkpt lat="44.01433" lon="2.59245">
        <ele>407</ele>
        <time>2021-10-31T08:05:31.000Z</time>
      </trkpt>
      <trkpt lat="44.01434" lon="2.59245">
        <ele>408</ele>
        <time>2021-10-31T08:05:32.000Z</time>
      </trkpt>
      <trkpt lat="44.01435" lon="2.59245">
        <ele>408</ele>
        <time>2021-10-31T08:05:33.000Z</time>
      </trkpt>
      <trkpt lat="44.01436" lon="2.59244">
        <ele>408</ele>
        <time>2021-10-31T08:05:34.000Z</time>
      </trkpt>
      <trkpt lat="44.01437" lon="2.59244">
        <ele>408</ele>
        <time>2021-10-31T08:05:35.000Z</time>
      </trkpt>
      <trkpt lat="44.01437" lon="2.59244">
        <ele>408</ele>
        <time>2021-10-31T08:05:36.000Z</time>
      </trkpt>
      <trkpt lat="44.01439" lon="2.59244">
        <ele>408</ele>
        <time>2021-10-31T08:05:37.000Z</time>
      </trkpt>
      <trkpt lat="44.0144" lon="2.59244">
        <ele>408</ele>
        <time>2021-10-31T08:05:38.000Z</time>
      </trkpt>
      <trkpt lat="44.01441" lon="2.59244">
        <ele>408</ele>
        <time>2021-10-31T08:05:39.000Z</time>
      </trkpt>
      <trkpt lat="44.01442" lon="2.59243">
        <ele>408</ele>
        <time>2021-10-31T08:05:40.000Z</time>
      </trkpt>
      <trkpt lat="44.01444" lon="2.59243">
        <ele>408</ele>
        <time>2021-10-31T08:05:41.000Z</time>
      </trkpt>
      <trkpt lat="44.01445" lon="2.59243">
        <ele>408</ele>
        <time>2021-10-31T08:05:42.000Z</time>
      </trkpt>
      <trkpt lat="44.01446" lon="2.59242">
        <ele>408</ele>
        <time>2021-10-31T08:05:43.000Z</time>
      </trkpt>
      <trkpt lat="44.01448" lon="2.59242">
        <ele>408</ele>
        <time>2021-10-31T08:05:44.000Z</time>
      </trkpt>
      <trkpt lat="44.01449" lon="2.59241">
        <ele>408</ele>
        <time>2021-10-31T08:05:45.000Z</time>
      </trkpt>
      <trkpt lat="44.0145" lon="2.59241">
        <ele>408</ele>
        <time>2021-10-31T08:05:46.000Z</time>
      </trkpt>
      <trkpt lat="44.01451" lon="2.59241">
        <ele>408</ele>
        <time>2021-10-31T08:05:47.000Z</time>
      </trkpt>
      <trkpt lat="44.01452" lon="2.59241">
        <ele>408</ele>
        <time>2021-10-31T08:05:48.000Z</time>
      </trkpt>
      <trkpt lat="44.01454" lon="2.59241">
        <ele>408</ele>
        <time>2021-10-31T08:05:49.000Z</time>
      </trkpt>
      <trkpt lat="44.01455" lon="2.59241">
        <ele>408</ele>
        <time>2021-10-31T08:05:50.000Z</time>
      </trkpt>
      <trkpt lat="44.01456" lon="2.59241">
        <ele>409</ele>
        <time>2021-10-31T08:05:51.000Z</time>
      </trkpt>
      <trkpt lat="44.01457" lon="2.5924">
        <ele>409</ele>
        <time>2021-10-31T08:05:52.000Z</time>
      </trkpt>
      <trkpt lat="44.01458" lon="2.5924">
        <ele>409</ele>
        <time>2021-10-31T08:05:53.000Z</time>
      </trkpt>
      <trkpt lat="44.01459" lon="2.5924">
        <ele>409</ele>
        <time>2021-10-31T08:05:54.000Z</time>
      </trkpt>
      <trkpt lat="44.0146" lon="2.5924">
        <ele>409</ele>
        <time>2021-10-31T08:05:55.000Z</time>
      </trkpt>
      <trkpt lat="44.01461" lon="2.5924">
        <ele>409</ele>
        <time>2021-10-31T08:05:56.000Z</time>
      </trkpt>
      <trkpt lat="44.01462" lon="2.5924">
        <ele>409</ele>
        <time>2021-10-31T08:05:57.000Z</time>
      </trkpt>
      <trkpt lat="44.01463" lon="2.5924">
        <ele>409</ele>
        <time>2021-10-31T08:05:58.000Z</time>
      </trkpt>
      <trkpt lat="44.01464" lon="2.5924">
        <ele>409</ele>
        <time>2021-10-31T08:05:59.000Z</time>
      </trkpt>
      <trkpt lat="44.01465" lon="2.59241">
        <ele>409</ele>
        <time>2021-10-31T08:06:00.000Z</time>
      </trkpt>
      <trkpt lat="44.01467" lon="2.59241">
        <ele>409</ele>
        <time>2021-10-31T08:06:01.000Z</time>
      </trkpt>
      <trkpt lat="44.01468" lon="2.59241">
        <ele>409</ele>
        <time>2021-10-31T08:06:02.000Z</time>
      </trkpt>
      <trkpt lat="44.01469" lon="2.59242">
        <ele>409</ele>
        <time>2021-10-31T08:06:03.000Z</time>
      </trkpt>
      <trkpt lat="44.0147" lon="2.59242">
        <ele>409</ele>
        <time>2021-10-31T08:06:04.000Z</time>
      </trkpt>
      <trkpt lat="44.01471" lon="2.59242">
        <ele>409</ele>
        <time>2021-10-31T08:06:05.000Z</time>
      </trkpt>
      <trkpt lat="44.01472" lon="2.59242">
        <ele>409</ele>
        <time>2021-10-31T08:06:06.000Z</time>
      </trkpt>
      <trkpt lat="44.01474" lon="2.59242">
        <ele>410</ele>
        <time>2021-10-31T08:06:07.000Z</time>
      </trkpt>
      <trkpt lat="44.01475" lon="2.59242">
        <ele>410</ele>
        <time>2021-10-31T08:06:08.000Z</time>
      </trkpt>
      <trkpt lat="44.01476" lon="2.59242">
        <ele>410</ele>
        <time>2021-10-31T08:06:09.000Z</time>
      </trkpt>
      <trkpt lat="44.01477" lon="2.59243">
        <ele>410</ele>
        <time>2021-10-31T08:06:10.000Z</time>
      </trkpt>
      <trkpt lat="44.01478" lon="2.59243">
        <ele>410</ele>
        <time>2021-10-31T08:06:11.000Z</time>
      </trkpt>
      <trkpt lat="44.01479" lon="2.59243">
        <ele>410</ele>
        <time>2021-10-31T08:06:12.000Z</time>
      </trkpt>
      <trkpt lat="44.0148" lon="2.59243">
        <ele>410</ele>
        <time>2021-10-31T08:06:13.000Z</time>
      </trkpt>
      <trkpt lat="44.01481" lon="2.59244">
        <ele>410</ele>
        <time>2021-10-31T08:06:14.000Z</time>
      </trkpt>
      <trkpt lat="44.01482" lon="2.59244">
        <ele>410</ele>
        <time>2021-10-31T08:06:15.000Z</time>
      </trkpt>
      <trkpt lat="44.01483" lon="2.59245">
        <ele>411</ele>
        <time>2021-10-31T08:06:16.000Z</time>
      </trkpt>
      <trkpt lat="44.01484" lon="2.59245">
        <ele>411</ele>
        <time>2021-10-31T08:06:17.000Z</time>
      </trkpt>
      <trkpt lat="44.01485" lon="2.59246">
        <ele>411</ele>
        <time>2021-10-31T08:06:18.000Z</time>
      </trkpt>
      <trkpt lat="44.01486" lon="2.59246">
        <ele>411</ele>
        <time>2021-10-31T08:06:19.000Z</time>
      </trkpt>
      <trkpt lat="44.01487" lon="2.59247">
        <ele>411</ele>
        <time>2021-10-31T08:06:20.000Z</time>
      </trkpt>
      <trkpt lat="44.01488" lon="2.59248">
        <ele>411</ele>
        <time>2021-10-31T08:06:21.000Z</time>
      </trkpt>
      <trkpt lat="44.01489" lon="2.59248">
        <ele>411</ele>
        <time>2021-10-31T08:06:22.000Z</time>
      </trkpt>
      <trkpt lat="44.0149" lon="2.59249">
        <ele>411</ele>
        <time>2021-10-31T08:06:23.000Z</time>
      </trkpt>
      <trkpt lat="44.01491" lon="2.59249">
        <ele>411</ele>
        <time>2021-10-31T08:06:24.000Z</time>
      </trkpt>
      <trkpt lat="44.01492" lon="2.5925">
        <ele>411</ele>
        <time>2021-10-31T08:06:25.000Z</time>
      </trkpt>
      <trkpt lat="44.01492" lon="2.59251">
        <ele>411</ele>
        <time>2021-10-31T08:06:26.000Z</time>
      </trkpt>
      <trkpt lat="44.01494" lon="2.59251">
        <ele>411</ele>
        <time>2021-10-31T08:06:27.000Z</time>
      </trkpt>
      <trkpt lat="44.01494" lon="2.59252">
        <ele>411</ele>
        <time>2021-10-31T08:06:28.000Z</time>
      </trkpt>
      <trkpt lat="44.01495" lon="2.59252">
        <ele>411</ele>
        <time>2021-10-31T08:06:29.000Z</time>
      </trkpt>
      <trkpt lat="44.01496" lon="2.59253">
        <ele>411</ele>
        <time>2021-10-31T08:06:30.000Z</time>
      </trkpt>
      <trkpt lat="44.01497" lon="2.59253">
        <ele>412</ele>
        <time>2021-10-31T08:06:31.000Z</time>
      </trkpt>
      <trkpt lat="44.01498" lon="2.59254">
        <ele>412</ele>
        <time>2021-10-31T08:06:32.000Z</time>
      </trkpt>
      <trkpt lat="44.01499" lon="2.59254">
        <ele>412</ele>
        <time>2021-10-31T08:06:33.000Z</time>
      </trkpt>
      <trkpt lat="44.015" lon="2.59254">
        <ele>412</ele>
        <time>2021-10-31T08:06:34.000Z</time>
      </trkpt>
      <trkpt lat="44.01501" lon="2.59255">
        <ele>412</ele>
        <time>2021-10-31T08:06:35.000Z</time>
      </trkpt>
      <trkpt lat="44.01502" lon="2.59255">
        <ele>412</ele>
        <time>2021-10-31T08:06:36.000Z</time>
      </trkpt>
      <trkpt lat="44.01502" lon="2.59255">
        <ele>412</ele>
        <time>2021-10-31T08:06:37.000Z</time>
      </trkpt>
      <trkpt lat="44.01503" lon="2.59256">
        <ele>412</ele>
        <time>2021-10-31T08:06:38.000Z</time>
      </trkpt>
      <trkpt lat="44.01504" lon="2.59256">
        <ele>412</ele>
        <time>2021-10-31T08:06:39.000Z</time>
      </trkpt>
      <trkpt lat="44.01505" lon="2.59256">
        <ele>412</ele>
        <time>2021-10-31T08:06:40.000Z</time>
      </trkpt>
      <trkpt lat="44.01506" lon="2.59257">
        <ele>412</ele>
        <time>2021-10-31T08:06:41.000Z</time>
      </trkpt>
      <trkpt lat="44.01507" lon="2.59257">
        <ele>412</ele>
        <time>2021-10-31T08:06:42.000Z</time>
      </trkpt>
      <trkpt lat="44.01508" lon="2.59258">
        <ele>412</ele>
        <time>2021-10-31T08:06:43.000Z</time>
      </trkpt>
      <trkpt lat="44.01509" lon="2.59258">
        <ele>412</ele>
        <time>2021-10-31T08:06:44.000Z</time>
      </trkpt>
      <trkpt lat="44.0151" lon="2.59259">
        <ele>412</ele>
        <time>2021-10-31T08:06:45.000Z</time>
      </trkpt>
      <trkpt lat="44.01511" lon="2.59259">
        <ele>412</ele>
        <time>2021-10-31T08:06:46.000Z</time>
      </trkpt>
      <trkpt lat="44.01512" lon="2.59259">
        <ele>412</ele>
        <time>2021-10-31T08:06:47.000Z</time>
      </trkpt>
      <trkpt lat="44.01512" lon="2.59259">
        <ele>412</ele>
        <time>2021-10-31T08:06:48.000Z</time>
      </trkpt>
      <trkpt lat="44.01513" lon="2.59259">
        <ele>412</ele>
        <time>2021-10-31T08:06:49.000Z</time>
      </trkpt>
      <trkpt lat="44.01513" lon="2.59259">
        <ele>412</ele>
        <time>2021-10-31T08:06:50.000Z</time>
      </trkpt>
      <trkpt lat="44.01513" lon="2.5926">
        <ele>412</ele>
        <time>2021-10-31T08:06:51.000Z</time>
      </trkpt>
      <trkpt lat="44.01515" lon="2.59261">
        <ele>411</ele>
        <time>2021-10-31T08:06:52.000Z</time>
      </trkpt>
      <trkpt lat="44.01516" lon="2.59261">
        <ele>411</ele>
        <time>2021-10-31T08:06:53.000Z</time>
      </trkpt>
      <trkpt lat="44.01517" lon="2.59262">
        <ele>411</ele>
        <time>2021-10-31T08:06:54.000Z</time>
      </trkpt>
      <trkpt lat="44.01518" lon="2.59263">
        <ele>411</ele>
        <time>2021-10-31T08:06:55.000Z</time>
      </trkpt>
      <trkpt lat="44.01518" lon="2.59263">
        <ele>411</ele>
        <time>2021-10-31T08:06:56.000Z</time>
      </trkpt>
      <trkpt lat="44.01519" lon="2.59264">
        <ele>411</ele>
        <time>2021-10-31T08:06:57.000Z</time>
      </trkpt>
      <trkpt lat="44.0152" lon="2.59265">
        <ele>411</ele>
        <time>2021-10-31T08:06:58.000Z</time>
      </trkpt>
      <trkpt lat="44.01521" lon="2.59266">
        <ele>411</ele>
        <time>2021-10-31T08:06:59.000Z</time>
      </trkpt>
      <trkpt lat="44.01522" lon="2.59267">
        <ele>411</ele>
        <time>2021-10-31T08:07:00.000Z</time>
      </trkpt>
      <trkpt lat="44.01523" lon="2.59268">
        <ele>411</ele>
        <time>2021-10-31T08:07:01.000Z</time>
      </trkpt>
      <trkpt lat="44.01524" lon="2.59269">
        <ele>411</ele>
        <time>2021-10-31T08:07:02.000Z</time>
      </trkpt>
      <trkpt lat="44.01524" lon="2.5927">
        <ele>411</ele>
        <time>2021-10-31T08:07:03.000Z</time>
      </trkpt>
      <trkpt lat="44.01525" lon="2.5927">
        <ele>411</ele>
        <time>2021-10-31T08:07:04.000Z</time>
      </trkpt>
      <trkpt lat="44.01526" lon="2.59271">
        <ele>411</ele>
        <time>2021-10-31T08:07:05.000Z</time>
      </trkpt>
      <trkpt lat="44.01527" lon="2.59272">
        <ele>411</ele>
        <time>2021-10-31T08:07:06.000Z</time>
      </trkpt>
      <trkpt lat="44.01528" lon="2.59272">
        <ele>411</ele>
        <time>2021-10-31T08:07:07.000Z</time>
      </trkpt>
      <trkpt lat="44.01528" lon="2.59273">
        <ele>411</ele>
        <time>2021-10-31T08:07:08.000Z</time>
      </trkpt>
      <trkpt lat="44.01529" lon="2.59274">
        <ele>411</ele>
        <time>2021-10-31T08:07:09.000Z</time>
      </trkpt>
      <trkpt lat="44.0153" lon="2.59274">
        <ele>411</ele>
        <time>2021-10-31T08:07:10.000Z</time>
      </trkpt>
      <trkpt lat="44.01532" lon="2.59276">
        <ele>411</ele>
        <time>2021-10-31T08:07:11.000Z</time>
      </trkpt>
      <trkpt lat="44.01532" lon="2.59276">
        <ele>411</ele>
        <time>2021-10-31T08:07:12.000Z</time>
      </trkpt>
      <trkpt lat="44.01533" lon="2.59276">
        <ele>411</ele>
        <time>2021-10-31T08:07:13.000Z</time>
      </trkpt>
      <trkpt lat="44.01534" lon="2.59277">
        <ele>411</ele>
        <time>2021-10-31T08:07:14.000Z</time>
      </trkpt>
      <trkpt lat="44.01535" lon="2.59277">
        <ele>411</ele>
        <time>2021-10-31T08:07:15.000Z</time>
      </trkpt>
      <trkpt lat="44.01537" lon="2.59278">
        <ele>411</ele>
        <time>2021-10-31T08:07:16.000Z</time>
      </trkpt>
      <trkpt lat="44.01538" lon="2.59278">
        <ele>411</ele>
        <time>2021-10-31T08:07:17.000Z</time>
      </trkpt>
      <trkpt lat="44.01539" lon="2.59278">
        <ele>411</ele>
        <time>2021-10-31T08:07:18.000Z</time>
      </trkpt>
      <trkpt lat="44.0154" lon="2.59278">
        <ele>411</ele>
        <time>2021-10-31T08:07:19.000Z</time>
      </trkpt>
      <trkpt lat="44.01541" lon="2.59278">
        <ele>411</ele>
        <time>2021-10-31T08:07:20.000Z</time>
      </trkpt>
      <trkpt lat="44.01541" lon="2.59278">
        <ele>411</ele>
        <time>2021-10-31T08:07:21.000Z</time>
      </trkpt>
      <trkpt lat="44.01543" lon="2.59279">
        <ele>411</ele>
        <time>2021-10-31T08:07:22.000Z</time>
      </trkpt>
      <trkpt lat="44.01543" lon="2.59279">
        <ele>411</ele>
        <time>2021-10-31T08:07:23.000Z</time>
      </trkpt>
      <trkpt lat="44.01544" lon="2.59279">
        <ele>411</ele>
        <time>2021-10-31T08:07:24.000Z</time>
      </trkpt>
      <trkpt lat="44.01545" lon="2.59279">
        <ele>411</ele>
        <time>2021-10-31T08:07:25.000Z</time>
      </trkpt>
      <trkpt lat="44.01546" lon="2.5928">
        <ele>411</ele>
        <time>2021-10-31T08:07:26.000Z</time>
      </trkpt>
      <trkpt lat="44.01547" lon="2.5928">
        <ele>411</ele>
        <time>2021-10-31T08:07:27.000Z</time>
      </trkpt>
      <trkpt lat="44.01548" lon="2.5928">
        <ele>411</ele>
        <time>2021-10-31T08:07:28.000Z</time>
      </trkpt>
      <trkpt lat="44.01549" lon="2.5928">
        <ele>411</ele>
        <time>2021-10-31T08:07:29.000Z</time>
      </trkpt>
      <trkpt lat="44.0155" lon="2.59281">
        <ele>411</ele>
        <time>2021-10-31T08:07:30.000Z</time>
      </trkpt>
      <trkpt lat="44.01551" lon="2.59281">
        <ele>411</ele>
        <time>2021-10-31T08:07:31.000Z</time>
      </trkpt>
      <trkpt lat="44.01552" lon="2.59281">
        <ele>411</ele>
        <time>2021-10-31T08:07:32.000Z</time>
      </trkpt>
      <trkpt lat="44.01553" lon="2.59281">
        <ele>411</ele>
        <time>2021-10-31T08:07:33.000Z</time>
      </trkpt>
      <trkpt lat="44.01554" lon="2.59281">
        <ele>411</ele>
        <time>2021-10-31T08:07:34.000Z</time>
      </trkpt>
      <trkpt lat="44.01554" lon="2.59282">
        <ele>411</ele>
        <time>2021-10-31T08:07:35.000Z</time>
      </trkpt>
      <trkpt lat="44.01554" lon="2.59282">
        <ele>411</ele>
        <time>2021-10-31T08:07:36.000Z</time>
      </trkpt>
      <trkpt lat="44.01554" lon="2.59282">
        <ele>411</ele>
        <time>2021-10-31T08:07:37.000Z</time>
      </trkpt>
      <trkpt lat="44.01554" lon="2.59282">
        <ele>411</ele>
        <time>2021-10-31T08:07:38.000Z</time>
      </trkpt>
      <trkpt lat="44.01557" lon="2.59283">
        <ele>411</ele>
        <time>2021-10-31T08:07:39.000Z</time>
      </trkpt>
      <trkpt lat="44.01558" lon="2.59284">
        <ele>411</ele>
        <time>2021-10-31T08:07:40.000Z</time>
      </trkpt>
      <trkpt lat="44.01559" lon="2.59284">
        <ele>411</ele>
        <time>2021-10-31T08:07:41.000Z</time>
      </trkpt>
      <trkpt lat="44.0156" lon="2.59284">
        <ele>411</ele>
        <time>2021-10-31T08:07:42.000Z</time>
      </trkpt>
      <trkpt lat="44.01561" lon="2.59285">
        <ele>412</ele>
        <time>2021-10-31T08:07:43.000Z</time>
      </trkpt>
      <trkpt lat="44.01562" lon="2.59285">
        <ele>412</ele>
        <time>2021-10-31T08:07:44.000Z</time>
      </trkpt>
      <trkpt lat="44.01563" lon="2.59285">
        <ele>412</ele>
        <time>2021-10-31T08:07:45.000Z</time>
      </trkpt>
      <trkpt lat="44.01564" lon="2.59285">
        <ele>412</ele>
        <time>2021-10-31T08:07:46.000Z</time>
      </trkpt>
      <trkpt lat="44.01565" lon="2.59286">
        <ele>412</ele>
        <time>2021-10-31T08:07:47.000Z</time>
      </trkpt>
      <trkpt lat="44.01565" lon="2.59286">
        <ele>412</ele>
        <time>2021-10-31T08:07:48.000Z</time>
      </trkpt>
      <trkpt lat="44.01565" lon="2.59286">
        <ele>412</ele>
        <time>2021-10-31T08:07:49.000Z</time>
      </trkpt>
      <trkpt lat="44.01565" lon="2.59286">
        <ele>412</ele>
        <time>2021-10-31T08:07:50.000Z</time>
      </trkpt>
      <trkpt lat="44.01566" lon="2.59286">
        <ele>412</ele>
        <time>2021-10-31T08:07:51.000Z</time>
      </trkpt>
      <trkpt lat="44.01567" lon="2.59286">
        <ele>412</ele>
        <time>2021-10-31T08:07:52.000Z</time>
      </trkpt>
      <trkpt lat="44.01568" lon="2.59286">
        <ele>412</ele>
        <time>2021-10-31T08:07:53.000Z</time>
      </trkpt>
      <trkpt lat="44.01569" lon="2.59286">
        <ele>412</ele>
        <time>2021-10-31T08:07:54.000Z</time>
      </trkpt>
      <trkpt lat="44.0157" lon="2.59287">
        <ele>412</ele>
        <time>2021-10-31T08:07:55.000Z</time>
      </trkpt>
      <trkpt lat="44.01571" lon="2.59287">
        <ele>412</ele>
        <time>2021-10-31T08:07:56.000Z</time>
      </trkpt>
      <trkpt lat="44.01572" lon="2.59287">
        <ele>412</ele>
        <time>2021-10-31T08:07:57.000Z</time>
      </trkpt>
      <trkpt lat="44.01573" lon="2.59288">
        <ele>412</ele>
        <time>2021-10-31T08:07:58.000Z</time>
      </trkpt>
      <trkpt lat="44.01574" lon="2.59288">
        <ele>412</ele>
        <time>2021-10-31T08:07:59.000Z</time>
      </trkpt>
      <trkpt lat="44.01575" lon="2.59289">
        <ele>412</ele>
        <time>2021-10-31T08:08:00.000Z</time>
      </trkpt>
      <trkpt lat="44.01576" lon="2.59289">
        <ele>412</ele>
        <time>2021-10-31T08:08:01.000Z</time>
      </trkpt>
      <trkpt lat="44.01577" lon="2.59289">
        <ele>412</ele>
        <time>2021-10-31T08:08:02.000Z</time>
      </trkpt>
      <trkpt lat="44.01578" lon="2.5929">
        <ele>412</ele>
        <time>2021-10-31T08:08:03.000Z</time>
      </trkpt>
      <trkpt lat="44.01578" lon="2.5929">
        <ele>412</ele>
        <time>2021-10-31T08:08:04.000Z</time>
      </trkpt>
      <trkpt lat="44.01579" lon="2.59291">
        <ele>412</ele>
        <time>2021-10-31T08:08:05.000Z</time>
      </trkpt>
      <trkpt lat="44.0158" lon="2.59291">
        <ele>412</ele>
        <time>2021-10-31T08:08:06.000Z</time>
      </trkpt>
      <trkpt lat="44.01581" lon="2.59292">
        <ele>412</ele>
        <time>2021-10-31T08:08:07.000Z</time>
      </trkpt>
      <trkpt lat="44.01582" lon="2.59292">
        <ele>412</ele>
        <time>2021-10-31T08:08:08.000Z</time>
      </trkpt>
      <trkpt lat="44.01583" lon="2.59293">
        <ele>412</ele>
        <time>2021-10-31T08:08:09.000Z</time>
      </trkpt>
      <trkpt lat="44.01584" lon="2.59293">
        <ele>412</ele>
        <time>2021-10-31T08:08:10.000Z</time>
      </trkpt>
      <trkpt lat="44.01585" lon="2.59293">
        <ele>412</ele>
        <time>2021-10-31T08:08:11.000Z</time>
      </trkpt>
      <trkpt lat="44.01585" lon="2.59293">
        <ele>412</ele>
        <time>2021-10-31T08:08:12.000Z</time>
      </trkpt>
      <trkpt lat="44.01586" lon="2.59293">
        <ele>412</ele>
        <time>2021-10-31T08:08:13.000Z</time>
      </trkpt>
      <trkpt lat="44.01587" lon="2.59294">
        <ele>413</ele>
        <time>2021-10-31T08:08:14.000Z</time>
      </trkpt>
      <trkpt lat="44.01588" lon="2.59294">
        <ele>413</ele>
        <time>2021-10-31T08:08:15.000Z</time>
      </trkpt>
      <trkpt lat="44.01589" lon="2.59295">
        <ele>413</ele>
        <time>2021-10-31T08:08:16.000Z</time>
      </trkpt>
      <trkpt lat="44.0159" lon="2.59295">
        <ele>413</ele>
        <time>2021-10-31T08:08:17.000Z</time>
      </trkpt>
      <trkpt lat="44.01591" lon="2.59295">
        <ele>413</ele>
        <time>2021-10-31T08:08:18.000Z</time>
      </trkpt>
      <trkpt lat="44.01592" lon="2.59296">
        <ele>413</ele>
        <time>2021-10-31T08:08:19.000Z</time>
      </trkpt>
      <trkpt lat="44.01593" lon="2.59296">
        <ele>413</ele>
        <time>2021-10-31T08:08:20.000Z</time>
      </trkpt>
      <trkpt lat="44.01593" lon="2.59297">
        <ele>414</ele>
        <time>2021-10-31T08:08:21.000Z</time>
      </trkpt>
      <trkpt lat="44.01594" lon="2.59297">
        <ele>414</ele>
        <time>2021-10-31T08:08:22.000Z</time>
      </trkpt>
      <trkpt lat="44.01595" lon="2.59298">
        <ele>414</ele>
        <time>2021-10-31T08:08:23.000Z</time>
      </trkpt>
      <trkpt lat="44.01595" lon="2.59298">
        <ele>414</ele>
        <time>2021-10-31T08:08:24.000Z</time>
      </trkpt>
      <trkpt lat="44.01596" lon="2.59299">
        <ele>414</ele>
        <time>2021-10-31T08:08:25.000Z</time>
      </trkpt>
      <trkpt lat="44.01597" lon="2.593">
        <ele>414</ele>
        <time>2021-10-31T08:08:26.000Z</time>
      </trkpt>
      <trkpt lat="44.01597" lon="2.59301">
        <ele>415</ele>
        <time>2021-10-31T08:08:27.000Z</time>
      </trkpt>
      <trkpt lat="44.01598" lon="2.59302">
        <ele>415</ele>
        <time>2021-10-31T08:08:28.000Z</time>
      </trkpt>
      <trkpt lat="44.01598" lon="2.59303">
        <ele>415</ele>
        <time>2021-10-31T08:08:29.000Z</time>
      </trkpt>
      <trkpt lat="44.01599" lon="2.59304">
        <ele>415</ele>
        <time>2021-10-31T08:08:30.000Z</time>
      </trkpt>
      <trkpt lat="44.01599" lon="2.59305">
        <ele>415</ele>
        <time>2021-10-31T08:08:31.000Z</time>
      </trkpt>
      <trkpt lat="44.01599" lon="2.59307">
        <ele>415</ele>
        <time>2021-10-31T08:08:32.000Z</time>
      </trkpt>
      <trkpt lat="44.016" lon="2.59308">
        <ele>415</ele>
        <time>2021-10-31T08:08:33.000Z</time>
      </trkpt>
      <trkpt lat="44.016" lon="2.59309">
        <ele>415</ele>
        <time>2021-10-31T08:08:34.000Z</time>
      </trkpt>
      <trkpt lat="44.01601" lon="2.59311">
        <ele>415</ele>
        <time>2021-10-31T08:08:35.000Z</time>
      </trkpt>
      <trkpt lat="44.01601" lon="2.59312">
        <ele>415</ele>
        <time>2021-10-31T08:08:36.000Z</time>
      </trkpt>
      <trkpt lat="44.01601" lon="2.59314">
        <ele>415</ele>
        <time>2021-10-31T08:08:37.000Z</time>
      </trkpt>
      <trkpt lat="44.01601" lon="2.59315">
        <ele>415</ele>
        <time>2021-10-31T08:08:38.000Z</time>
      </trkpt>
      <trkpt lat="44.01602" lon="2.59317">
        <ele>415</ele>
        <time>2021-10-31T08:08:39.000Z</time>
      </trkpt>
      <trkpt lat="44.01602" lon="2.59318">
        <ele>415</ele>
        <time>2021-10-31T08:08:40.000Z</time>
      </trkpt>
      <trkpt lat="44.01602" lon="2.59319">
        <ele>415</ele>
        <time>2021-10-31T08:08:41.000Z</time>
      </trkpt>
      <trkpt lat="44.01602" lon="2.59321">
        <ele>415</ele>
        <time>2021-10-31T08:08:42.000Z</time>
      </trkpt>
      <trkpt lat="44.01603" lon="2.59322">
        <ele>415</ele>
        <time>2021-10-31T08:08:43.000Z</time>
      </trkpt>
      <trkpt lat="44.01603" lon="2.59323">
        <ele>415</ele>
        <time>2021-10-31T08:08:44.000Z</time>
      </trkpt>
      <trkpt lat="44.01603" lon="2.59325">
        <ele>415</ele>
        <time>2021-10-31T08:08:45.000Z</time>
      </trkpt>
      <trkpt lat="44.01604" lon="2.59326">
        <ele>415</ele>
        <time>2021-10-31T08:08:46.000Z</time>
      </trkpt>
      <trkpt lat="44.01604" lon="2.59327">
        <ele>415</ele>
        <time>2021-10-31T08:08:47.000Z</time>
      </trkpt>
      <trkpt lat="44.01604" lon="2.59329">
        <ele>415</ele>
        <time>2021-10-31T08:08:48.000Z</time>
      </trkpt>
      <trkpt lat="44.01604" lon="2.5933">
        <ele>415</ele>
        <time>2021-10-31T08:08:49.000Z</time>
      </trkpt>
      <trkpt lat="44.01605" lon="2.59331">
        <ele>415</ele>
        <time>2021-10-31T08:08:50.000Z</time>
      </trkpt>
      <trkpt lat="44.01605" lon="2.59332">
        <ele>415</ele>
        <time>2021-10-31T08:08:51.000Z</time>
      </trkpt>
      <trkpt lat="44.01605" lon="2.59334">
        <ele>416</ele>
        <time>2021-10-31T08:08:52.000Z</time>
      </trkpt>
      <trkpt lat="44.01605" lon="2.59335">
        <ele>416</ele>
        <time>2021-10-31T08:08:53.000Z</time>
      </trkpt>
      <trkpt lat="44.01605" lon="2.59336">
        <ele>416</ele>
        <time>2021-10-31T08:08:54.000Z</time>
      </trkpt>
      <trkpt lat="44.01605" lon="2.59338">
        <ele>416</ele>
        <time>2021-10-31T08:08:55.000Z</time>
      </trkpt>
      <trkpt lat="44.01605" lon="2.59339">
        <ele>416</ele>
        <time>2021-10-31T08:08:56.000Z</time>
      </trkpt>
      <trkpt lat="44.01606" lon="2.5934">
        <ele>416</ele>
        <time>2021-10-31T08:08:57.000Z</time>
      </trkpt>
      <trkpt lat="44.01606" lon="2.59342">
        <ele>416</ele>
        <time>2021-10-31T08:08:58.000Z</time>
      </trkpt>
      <trkpt lat="44.01606" lon="2.59343">
        <ele>416</ele>
        <time>2021-10-31T08:08:59.000Z</time>
      </trkpt>
      <trkpt lat="44.01606" lon="2.59344">
        <ele>416</ele>
        <time>2021-10-31T08:09:00.000Z</time>
      </trkpt>
      <trkpt lat="44.01607" lon="2.59346">
        <ele>417</ele>
        <time>2021-10-31T08:09:01.000Z</time>
      </trkpt>
      <trkpt lat="44.01607" lon="2.59347">
        <ele>417</ele>
        <time>2021-10-31T08:09:02.000Z</time>
      </trkpt>
      <trkpt lat="44.01608" lon="2.59348">
        <ele>417</ele>
        <time>2021-10-31T08:09:03.000Z</time>
      </trkpt>
      <trkpt lat="44.01608" lon="2.59349">
        <ele>417</ele>
        <time>2021-10-31T08:09:04.000Z</time>
      </trkpt>
      <trkpt lat="44.01609" lon="2.59351">
        <ele>417</ele>
        <time>2021-10-31T08:09:05.000Z</time>
      </trkpt>
      <trkpt lat="44.01609" lon="2.59352">
        <ele>417</ele>
        <time>2021-10-31T08:09:06.000Z</time>
      </trkpt>
      <trkpt lat="44.0161" lon="2.59353">
        <ele>417</ele>
        <time>2021-10-31T08:09:07.000Z</time>
      </trkpt>
      <trkpt lat="44.0161" lon="2.59354">
        <ele>417</ele>
        <time>2021-10-31T08:09:08.000Z</time>
      </trkpt>
      <trkpt lat="44.01611" lon="2.59354">
        <ele>417</ele>
        <time>2021-10-31T08:09:09.000Z</time>
      </trkpt>
      <trkpt lat="44.01611" lon="2.59355">
        <ele>418</ele>
        <time>2021-10-31T08:09:10.000Z</time>
      </trkpt>
      <trkpt lat="44.01612" lon="2.59355">
        <ele>418</ele>
        <time>2021-10-31T08:09:11.000Z</time>
      </trkpt>
      <trkpt lat="44.01613" lon="2.59356">
        <ele>418</ele>
        <time>2021-10-31T08:09:12.000Z</time>
      </trkpt>
      <trkpt lat="44.01614" lon="2.59356">
        <ele>418</ele>
        <time>2021-10-31T08:09:13.000Z</time>
      </trkpt>
      <trkpt lat="44.01615" lon="2.59356">
        <ele>418</ele>
        <time>2021-10-31T08:09:14.000Z</time>
      </trkpt>
      <trkpt lat="44.01616" lon="2.59357">
        <ele>418</ele>
        <time>2021-10-31T08:09:15.000Z</time>
      </trkpt>
      <trkpt lat="44.01617" lon="2.59357">
        <ele>419</ele>
        <time>2021-10-31T08:09:16.000Z</time>
      </trkpt>
      <trkpt lat="44.01618" lon="2.59357">
        <ele>419</ele>
        <time>2021-10-31T08:09:17.000Z</time>
      </trkpt>
      <trkpt lat="44.01619" lon="2.59357">
        <ele>419</ele>
        <time>2021-10-31T08:09:18.000Z</time>
      </trkpt>
      <trkpt lat="44.0162" lon="2.59357">
        <ele>419</ele>
        <time>2021-10-31T08:09:19.000Z</time>
      </trkpt>
      <trkpt lat="44.01621" lon="2.59357">
        <ele>420</ele>
        <time>2021-10-31T08:09:20.000Z</time>
      </trkpt>
      <trkpt lat="44.01622" lon="2.59357">
        <ele>420</ele>
        <time>2021-10-31T08:09:21.000Z</time>
      </trkpt>
      <trkpt lat="44.01623" lon="2.59357">
        <ele>420</ele>
        <time>2021-10-31T08:09:22.000Z</time>
      </trkpt>
      <trkpt lat="44.01624" lon="2.59358">
        <ele>420</ele>
        <time>2021-10-31T08:09:23.000Z</time>
      </trkpt>
      <trkpt lat="44.01625" lon="2.59358">
        <ele>420</ele>
        <time>2021-10-31T08:09:24.000Z</time>
      </trkpt>
      <trkpt lat="44.01626" lon="2.59358">
        <ele>421</ele>
        <time>2021-10-31T08:09:25.000Z</time>
      </trkpt>
      <trkpt lat="44.01627" lon="2.59358">
        <ele>421</ele>
        <time>2021-10-31T08:09:26.000Z</time>
      </trkpt>
      <trkpt lat="44.01628" lon="2.59358">
        <ele>421</ele>
        <time>2021-10-31T08:09:27.000Z</time>
      </trkpt>
      <trkpt lat="44.01629" lon="2.59357">
        <ele>422</ele>
        <time>2021-10-31T08:09:28.000Z</time>
      </trkpt>
      <trkpt lat="44.0163" lon="2.59357">
        <ele>422</ele>
        <time>2021-10-31T08:09:29.000Z</time>
      </trkpt>
      <trkpt lat="44.01631" lon="2.59357">
        <ele>422</ele>
        <time>2021-10-31T08:09:30.000Z</time>
      </trkpt>
      <trkpt lat="44.01632" lon="2.59357">
        <ele>422</ele>
        <time>2021-10-31T08:09:31.000Z</time>
      </trkpt>
      <trkpt lat="44.01633" lon="2.59357">
        <ele>423</ele>
        <time>2021-10-31T08:09:32.000Z</time>
      </trkpt>
      <trkpt lat="44.01634" lon="2.59357">
        <ele>423</ele>
        <time>2021-10-31T08:09:33.000Z</time>
      </trkpt>
      <trkpt lat="44.01635" lon="2.59357">
        <ele>423</ele>
        <time>2021-10-31T08:09:34.000Z</time>
      </trkpt>
      <trkpt lat="44.01636" lon="2.59358">
        <ele>423</ele>
        <time>2021-10-31T08:09:35.000Z</time>
      </trkpt>
      <trkpt lat="44.01637" lon="2.59358">
        <ele>424</ele>
        <time>2021-10-31T08:09:36.000Z</time>
      </trkpt>
      <trkpt lat="44.01637" lon="2.59358">
        <ele>424</ele>
        <time>2021-10-31T08:09:37.000Z</time>
      </trkpt>
      <trkpt lat="44.01638" lon="2.59358">
        <ele>424</ele>
        <time>2021-10-31T08:09:38.000Z</time>
      </trkpt>
      <trkpt lat="44.01639" lon="2.59358">
        <ele>424</ele>
        <time>2021-10-31T08:09:39.000Z</time>
      </trkpt>
      <trkpt lat="44.0164" lon="2.59358">
        <ele>425</ele>
        <time>2021-10-31T08:09:40.000Z</time>
      </trkpt>
      <trkpt lat="44.01641" lon="2.59358">
        <ele>425</ele>
        <time>2021-10-31T08:09:41.000Z</time>
      </trkpt>
      <trkpt lat="44.01642" lon="2.59358">
        <ele>425</ele>
        <time>2021-10-31T08:09:42.000Z</time>
      </trkpt>
      <trkpt lat="44.01642" lon="2.59358">
        <ele>425</ele>
        <time>2021-10-31T08:09:43.000Z</time>
      </trkpt>
      <trkpt lat="44.01643" lon="2.59358">
        <ele>426</ele>
        <time>2021-10-31T08:09:44.000Z</time>
      </trkpt>
      <trkpt lat="44.01644" lon="2.59358">
        <ele>426</ele>
        <time>2021-10-31T08:09:45.000Z</time>
      </trkpt>
      <trkpt lat="44.01645" lon="2.59358">
        <ele>426</ele>
        <time>2021-10-31T08:09:46.000Z</time>
      </trkpt>
      <trkpt lat="44.01646" lon="2.59358">
        <ele>426</ele>
        <time>2021-10-31T08:09:47.000Z</time>
      </trkpt>
      <trkpt lat="44.01646" lon="2.59358">
        <ele>426</ele>
        <time>2021-10-31T08:09:48.000Z</time>
      </trkpt>
      <trkpt lat="44.01647" lon="2.59357">
        <ele>427</ele>
        <time>2021-10-31T08:09:49.000Z</time>
      </trkpt>
      <trkpt lat="44.01649" lon="2.59357">
        <ele>427</ele>
        <time>2021-10-31T08:09:50.000Z</time>
      </trkpt>
      <trkpt lat="44.0165" lon="2.59357">
        <ele>427</ele>
        <time>2021-10-31T08:09:51.000Z</time>
      </trkpt>
      <trkpt lat="44.01651" lon="2.59357">
        <ele>427</ele>
        <time>2021-10-31T08:09:52.000Z</time>
      </trkpt>
      <trkpt lat="44.01652" lon="2.59357">
        <ele>427</ele>
        <time>2021-10-31T08:09:53.000Z</time>
      </trkpt>
      <trkpt lat="44.01653" lon="2.59357">
        <ele>428</ele>
        <time>2021-10-31T08:09:54.000Z</time>
      </trkpt>
      <trkpt lat="44.01654" lon="2.59357">
        <ele>428</ele>
        <time>2021-10-31T08:09:55.000Z</time>
      </trkpt>
      <trkpt lat="44.01654" lon="2.59357">
        <ele>428</ele>
        <time>2021-10-31T08:09:56.000Z</time>
      </trkpt>
      <trkpt lat="44.01655" lon="2.59357">
        <ele>428</ele>
        <time>2021-10-31T08:09:57.000Z</time>
      </trkpt>
      <trkpt lat="44.01656" lon="2.59357">
        <ele>428</ele>
        <time>2021-10-31T08:09:58.000Z</time>
      </trkpt>
      <trkpt lat="44.01657" lon="2.59357">
        <ele>428</ele>
        <time>2021-10-31T08:09:59.000Z</time>
      </trkpt>
      <trkpt lat="44.01657" lon="2.59357">
        <ele>429</ele>
        <time>2021-10-31T08:10:00.000Z</time>
      </trkpt>
      <trkpt lat="44.01657" lon="2.59357">
        <ele>429</ele>
        <time>2021-10-31T08:10:01.000Z</time>
      </trkpt>
      <trkpt lat="44.01658" lon="2.59357">
        <ele>429</ele>
        <time>2021-10-31T08:10:02.000Z</time>
      </trkpt>
      <trkpt lat="44.01659" lon="2.59357">
        <ele>429</ele>
        <time>2021-10-31T08:10:03.000Z</time>
      </trkpt>
      <trkpt lat="44.01661" lon="2.59357">
        <ele>429</ele>
        <time>2021-10-31T08:10:04.000Z</time>
      </trkpt>
      <trkpt lat="44.01662" lon="2.59357">
        <ele>429</ele>
        <time>2021-10-31T08:10:05.000Z</time>
      </trkpt>
      <trkpt lat="44.01663" lon="2.59357">
        <ele>430</ele>
        <time>2021-10-31T08:10:06.000Z</time>
      </trkpt>
      <trkpt lat="44.01664" lon="2.59357">
        <ele>430</ele>
        <time>2021-10-31T08:10:07.000Z</time>
      </trkpt>
      <trkpt lat="44.01665" lon="2.59357">
        <ele>430</ele>
        <time>2021-10-31T08:10:08.000Z</time>
      </trkpt>
      <trkpt lat="44.01666" lon="2.59357">
        <ele>430</ele>
        <time>2021-10-31T08:10:09.000Z</time>
      </trkpt>
      <trkpt lat="44.01668" lon="2.59357">
        <ele>430</ele>
        <time>2021-10-31T08:10:10.000Z</time>
      </trkpt>
      <trkpt lat="44.01669" lon="2.59357">
        <ele>430</ele>
        <time>2021-10-31T08:10:11.000Z</time>
      </trkpt>
      <trkpt lat="44.0167" lon="2.59357">
        <ele>431</ele>
        <time>2021-10-31T08:10:12.000Z</time>
      </trkpt>
      <trkpt lat="44.01671" lon="2.59357">
        <ele>431</ele>
        <time>2021-10-31T08:10:13.000Z</time>
      </trkpt>
      <trkpt lat="44.01672" lon="2.59357">
        <ele>431</ele>
        <time>2021-10-31T08:10:14.000Z</time>
      </trkpt>
      <trkpt lat="44.01673" lon="2.59357">
        <ele>431</ele>
        <time>2021-10-31T08:10:15.000Z</time>
      </trkpt>
      <trkpt lat="44.01674" lon="2.59357">
        <ele>431</ele>
        <time>2021-10-31T08:10:16.000Z</time>
      </trkpt>
      <trkpt lat="44.01675" lon="2.59357">
        <ele>431</ele>
        <time>2021-10-31T08:10:17.000Z</time>
      </trkpt>
      <trkpt lat="44.01676" lon="2.59357">
        <ele>432</ele>
        <time>2021-10-31T08:10:18.000Z</time>
      </trkpt>
      <trkpt lat="44.01676" lon="2.59357">
        <ele>432</ele>
        <time>2021-10-31T08:10:19.000Z</time>
      </trkpt>
      <trkpt lat="44.01677" lon="2.59357">
        <ele>432</ele>
        <time>2021-10-31T08:10:20.000Z</time>
      </trkpt>
      <trkpt lat="44.01678" lon="2.59357">
        <ele>432</ele>
        <time>2021-10-31T08:10:21.000Z</time>
      </trkpt>
      <trkpt lat="44.01679" lon="2.59357">
        <ele>432</ele>
        <time>2021-10-31T08:10:22.000Z</time>
      </trkpt>
      <trkpt lat="44.0168" lon="2.59357">
        <ele>432</ele>
        <time>2021-10-31T08:10:23.000Z</time>
      </trkpt>
      <trkpt lat="44.01681" lon="2.59357">
        <ele>432</ele>
        <time>2021-10-31T08:10:24.000Z</time>
      </trkpt>
      <trkpt lat="44.01682" lon="2.59357">
        <ele>432</ele>
        <time>2021-10-31T08:10:25.000Z</time>
      </trkpt>
      <trkpt lat="44.01683" lon="2.59357">
        <ele>432</ele>
        <time>2021-10-31T08:10:26.000Z</time>
      </trkpt>
      <trkpt lat="44.01684" lon="2.59358">
        <ele>432</ele>
        <time>2021-10-31T08:10:27.000Z</time>
      </trkpt>
      <trkpt lat="44.01684" lon="2.59359">
        <ele>433</ele>
        <time>2021-10-31T08:10:28.000Z</time>
      </trkpt>
      <trkpt lat="44.01685" lon="2.5936">
        <ele>433</ele>
        <time>2021-10-31T08:10:29.000Z</time>
      </trkpt>
      <trkpt lat="44.01686" lon="2.5936">
        <ele>433</ele>
        <time>2021-10-31T08:10:30.000Z</time>
      </trkpt>
      <trkpt lat="44.01686" lon="2.59361">
        <ele>433</ele>
        <time>2021-10-31T08:10:31.000Z</time>
      </trkpt>
      <trkpt lat="44.01687" lon="2.59362">
        <ele>433</ele>
        <time>2021-10-31T08:10:32.000Z</time>
      </trkpt>
      <trkpt lat="44.01687" lon="2.59363">
        <ele>434</ele>
        <time>2021-10-31T08:10:33.000Z</time>
      </trkpt>
      <trkpt lat="44.01688" lon="2.59364">
        <ele>434</ele>
        <time>2021-10-31T08:10:34.000Z</time>
      </trkpt>
      <trkpt lat="44.01688" lon="2.59364">
        <ele>434</ele>
        <time>2021-10-31T08:10:35.000Z</time>
      </trkpt>
      <trkpt lat="44.01688" lon="2.59364">
        <ele>434</ele>
        <time>2021-10-31T08:10:36.000Z</time>
      </trkpt>
      <trkpt lat="44.01688" lon="2.59364">
        <ele>435</ele>
        <time>2021-10-31T08:10:37.000Z</time>
      </trkpt>
      <trkpt lat="44.01684" lon="2.59367">
        <ele>444</ele>
        <time>2021-10-31T08:10:38.000Z</time>
      </trkpt>
      <trkpt lat="44.01684" lon="2.59367">
        <ele>444</ele>
        <time>2021-10-31T08:10:39.000Z</time>
      </trkpt>
      <trkpt lat="44.01684" lon="2.59368">
        <ele>444</ele>
        <time>2021-10-31T08:10:40.000Z</time>
      </trkpt>
      <trkpt lat="44.01683" lon="2.59368">
        <ele>444</ele>
        <time>2021-10-31T08:10:41.000Z</time>
      </trkpt>
      <trkpt lat="44.01682" lon="2.59368">
        <ele>444</ele>
        <time>2021-10-31T08:10:42.000Z</time>
      </trkpt>
      <trkpt lat="44.01682" lon="2.59368">
        <ele>444</ele>
        <time>2021-10-31T08:10:43.000Z</time>
      </trkpt>
      <trkpt lat="44.01682" lon="2.59368">
        <ele>444</ele>
        <time>2021-10-31T08:10:44.000Z</time>
      </trkpt>
      <trkpt lat="44.01681" lon="2.59369">
        <ele>444</ele>
        <time>2021-10-31T08:10:45.000Z</time>
      </trkpt>
      <trkpt lat="44.0168" lon="2.59369">
        <ele>444</ele>
        <time>2021-10-31T08:10:46.000Z</time>
      </trkpt>
      <trkpt lat="44.0168" lon="2.59369">
        <ele>444</ele>
        <time>2021-10-31T08:10:47.000Z</time>
      </trkpt>
      <trkpt lat="44.01679" lon="2.59369">
        <ele>444</ele>
        <time>2021-10-31T08:10:48.000Z</time>
      </trkpt>
      <trkpt lat="44.01679" lon="2.59369">
        <ele>444</ele>
        <time>2021-10-31T08:10:49.000Z</time>
      </trkpt>
      <trkpt lat="44.01678" lon="2.59369">
        <ele>444</ele>
        <time>2021-10-31T08:10:50.000Z</time>
      </trkpt>
      <trkpt lat="44.01677" lon="2.59369">
        <ele>444</ele>
        <time>2021-10-31T08:10:51.000Z</time>
      </trkpt>
      <trkpt lat="44.01677" lon="2.5937">
        <ele>444</ele>
        <time>2021-10-31T08:10:52.000Z</time>
      </trkpt>
      <trkpt lat="44.01676" lon="2.5937">
        <ele>444</ele>
        <time>2021-10-31T08:10:53.000Z</time>
      </trkpt>
      <trkpt lat="44.01676" lon="2.59371">
        <ele>444</ele>
        <time>2021-10-31T08:10:54.000Z</time>
      </trkpt>
      <trkpt lat="44.01675" lon="2.59371">
        <ele>444</ele>
        <time>2021-10-31T08:10:55.000Z</time>
      </trkpt>
      <trkpt lat="44.01675" lon="2.59372">
        <ele>444</ele>
        <time>2021-10-31T08:10:56.000Z</time>
      </trkpt>
      <trkpt lat="44.01675" lon="2.59372">
        <ele>444</ele>
        <time>2021-10-31T08:10:57.000Z</time>
      </trkpt>
      <trkpt lat="44.01673" lon="2.59373">
        <ele>444</ele>
        <time>2021-10-31T08:10:58.000Z</time>
      </trkpt>
      <trkpt lat="44.01672" lon="2.59373">
        <ele>444</ele>
        <time>2021-10-31T08:10:59.000Z</time>
      </trkpt>
      <trkpt lat="44.01672" lon="2.59374">
        <ele>444</ele>
        <time>2021-10-31T08:11:00.000Z</time>
      </trkpt>
      <trkpt lat="44.01671" lon="2.59374">
        <ele>444</ele>
        <time>2021-10-31T08:11:01.000Z</time>
      </trkpt>
      <trkpt lat="44.0167" lon="2.59375">
        <ele>444</ele>
        <time>2021-10-31T08:11:02.000Z</time>
      </trkpt>
      <trkpt lat="44.0167" lon="2.59375">
        <ele>444</ele>
        <time>2021-10-31T08:11:03.000Z</time>
      </trkpt>
      <trkpt lat="44.01669" lon="2.59376">
        <ele>444</ele>
        <time>2021-10-31T08:11:04.000Z</time>
      </trkpt>
      <trkpt lat="44.01668" lon="2.59376">
        <ele>443</ele>
        <time>2021-10-31T08:11:05.000Z</time>
      </trkpt>
      <trkpt lat="44.01668" lon="2.59377">
        <ele>443</ele>
        <time>2021-10-31T08:11:06.000Z</time>
      </trkpt>
      <trkpt lat="44.01667" lon="2.59377">
        <ele>443</ele>
        <time>2021-10-31T08:11:07.000Z</time>
      </trkpt>
      <trkpt lat="44.01667" lon="2.59378">
        <ele>443</ele>
        <time>2021-10-31T08:11:08.000Z</time>
      </trkpt>
      <trkpt lat="44.01666" lon="2.59378">
        <ele>443</ele>
        <time>2021-10-31T08:11:09.000Z</time>
      </trkpt>
      <trkpt lat="44.01665" lon="2.59379">
        <ele>443</ele>
        <time>2021-10-31T08:11:10.000Z</time>
      </trkpt>
      <trkpt lat="44.01664" lon="2.59379">
        <ele>442</ele>
        <time>2021-10-31T08:11:11.000Z</time>
      </trkpt>
      <trkpt lat="44.01663" lon="2.5938">
        <ele>442</ele>
        <time>2021-10-31T08:11:12.000Z</time>
      </trkpt>
      <trkpt lat="44.01662" lon="2.5938">
        <ele>442</ele>
        <time>2021-10-31T08:11:13.000Z</time>
      </trkpt>
      <trkpt lat="44.01661" lon="2.59381">
        <ele>442</ele>
        <time>2021-10-31T08:11:14.000Z</time>
      </trkpt>
      <trkpt lat="44.0166" lon="2.59381">
        <ele>441</ele>
        <time>2021-10-31T08:11:15.000Z</time>
      </trkpt>
      <trkpt lat="44.01659" lon="2.59382">
        <ele>441</ele>
        <time>2021-10-31T08:11:16.000Z</time>
      </trkpt>
      <trkpt lat="44.01658" lon="2.59382">
        <ele>441</ele>
        <time>2021-10-31T08:11:17.000Z</time>
      </trkpt>
      <trkpt lat="44.01657" lon="2.59383">
        <ele>441</ele>
        <time>2021-10-31T08:11:18.000Z</time>
      </trkpt>
      <trkpt lat="44.01656" lon="2.59383">
        <ele>441</ele>
        <time>2021-10-31T08:11:19.000Z</time>
      </trkpt>
      <trkpt lat="44.01655" lon="2.59384">
        <ele>440</ele>
        <time>2021-10-31T08:11:20.000Z</time>
      </trkpt>
      <trkpt lat="44.01653" lon="2.59384">
        <ele>440</ele>
        <time>2021-10-31T08:11:21.000Z</time>
      </trkpt>
      <trkpt lat="44.01652" lon="2.59385">
        <ele>440</ele>
        <time>2021-10-31T08:11:22.000Z</time>
      </trkpt>
      <trkpt lat="44.01652" lon="2.59385">
        <ele>440</ele>
        <time>2021-10-31T08:11:23.000Z</time>
      </trkpt>
      <trkpt lat="44.01651" lon="2.59385">
        <ele>440</ele>
        <time>2021-10-31T08:11:24.000Z</time>
      </trkpt>
      <trkpt lat="44.0165" lon="2.59386">
        <ele>440</ele>
        <time>2021-10-31T08:11:25.000Z</time>
      </trkpt>
      <trkpt lat="44.01649" lon="2.59386">
        <ele>440</ele>
        <time>2021-10-31T08:11:26.000Z</time>
      </trkpt>
      <trkpt lat="44.01648" lon="2.59387">
        <ele>439</ele>
        <time>2021-10-31T08:11:27.000Z</time>
      </trkpt>
      <trkpt lat="44.01647" lon="2.59387">
        <ele>439</ele>
        <time>2021-10-31T08:11:28.000Z</time>
      </trkpt>
      <trkpt lat="44.01646" lon="2.59387">
        <ele>439</ele>
        <time>2021-10-31T08:11:29.000Z</time>
      </trkpt>
      <trkpt lat="44.01645" lon="2.59388">
        <ele>439</ele>
        <time>2021-10-31T08:11:30.000Z</time>
      </trkpt>
      <trkpt lat="44.01644" lon="2.59388">
        <ele>439</ele>
        <time>2021-10-31T08:11:31.000Z</time>
      </trkpt>
      <trkpt lat="44.01643" lon="2.59388">
        <ele>439</ele>
        <time>2021-10-31T08:11:32.000Z</time>
      </trkpt>
      <trkpt lat="44.01642" lon="2.59388">
        <ele>438</ele>
        <time>2021-10-31T08:11:33.000Z</time>
      </trkpt>
      <trkpt lat="44.01641" lon="2.59388">
        <ele>438</ele>
        <time>2021-10-31T08:11:34.000Z</time>
      </trkpt>
      <trkpt lat="44.0164" lon="2.59388">
        <ele>438</ele>
        <time>2021-10-31T08:11:35.000Z</time>
      </trkpt>
      <trkpt lat="44.01639" lon="2.59388">
        <ele>438</ele>
        <time>2021-10-31T08:11:36.000Z</time>
      </trkpt>
      <trkpt lat="44.01638" lon="2.59389">
        <ele>438</ele>
        <time>2021-10-31T08:11:37.000Z</time>
      </trkpt>
      <trkpt lat="44.01637" lon="2.59389">
        <ele>438</ele>
        <time>2021-10-31T08:11:38.000Z</time>
      </trkpt>
      <trkpt lat="44.01636" lon="2.59389">
        <ele>438</ele>
        <time>2021-10-31T08:11:39.000Z</time>
      </trkpt>
      <trkpt lat="44.01635" lon="2.59389">
        <ele>438</ele>
        <time>2021-10-31T08:11:40.000Z</time>
      </trkpt>
      <trkpt lat="44.01635" lon="2.59389">
        <ele>438</ele>
        <time>2021-10-31T08:11:41.000Z</time>
      </trkpt>
      <trkpt lat="44.01634" lon="2.59389">
        <ele>438</ele>
        <time>2021-10-31T08:11:42.000Z</time>
      </trkpt>
      <trkpt lat="44.01633" lon="2.59388">
        <ele>438</ele>
        <time>2021-10-31T08:11:43.000Z</time>
      </trkpt>
      <trkpt lat="44.01632" lon="2.59388">
        <ele>439</ele>
        <time>2021-10-31T08:11:44.000Z</time>
      </trkpt>
      <trkpt lat="44.01631" lon="2.59388">
        <ele>439</ele>
        <time>2021-10-31T08:11:45.000Z</time>
      </trkpt>
      <trkpt lat="44.0163" lon="2.59388">
        <ele>439</ele>
        <time>2021-10-31T08:11:46.000Z</time>
      </trkpt>
      <trkpt lat="44.01629" lon="2.59388">
        <ele>439</ele>
        <time>2021-10-31T08:11:47.000Z</time>
      </trkpt>
      <trkpt lat="44.01628" lon="2.59389">
        <ele>439</ele>
        <time>2021-10-31T08:11:48.000Z</time>
      </trkpt>
      <trkpt lat="44.01627" lon="2.59389">
        <ele>439</ele>
        <time>2021-10-31T08:11:49.000Z</time>
      </trkpt>
      <trkpt lat="44.01626" lon="2.59389">
        <ele>439</ele>
        <time>2021-10-31T08:11:50.000Z</time>
      </trkpt>
      <trkpt lat="44.01625" lon="2.59389">
        <ele>439</ele>
        <time>2021-10-31T08:11:51.000Z</time>
      </trkpt>
      <trkpt lat="44.01624" lon="2.59389">
        <ele>439</ele>
        <time>2021-10-31T08:11:52.000Z</time>
      </trkpt>
      <trkpt lat="44.01623" lon="2.5939">
        <ele>439</ele>
        <time>2021-10-31T08:11:53.000Z</time>
      </trkpt>
      <trkpt lat="44.01622" lon="2.5939">
        <ele>439</ele>
        <time>2021-10-31T08:11:54.000Z</time>
      </trkpt>
      <trkpt lat="44.01622" lon="2.5939">
        <ele>439</ele>
        <time>2021-10-31T08:11:55.000Z</time>
      </trkpt>
      <trkpt lat="44.01621" lon="2.5939">
        <ele>439</ele>
        <time>2021-10-31T08:11:56.000Z</time>
      </trkpt>
      <trkpt lat="44.0162" lon="2.5939">
        <ele>439</ele>
        <time>2021-10-31T08:11:57.000Z</time>
      </trkpt>
      <trkpt lat="44.01619" lon="2.5939">
        <ele>439</ele>
        <time>2021-10-31T08:11:58.000Z</time>
      </trkpt>
      <trkpt lat="44.01617" lon="2.5939">
        <ele>439</ele>
        <time>2021-10-31T08:11:59.000Z</time>
      </trkpt>
      <trkpt lat="44.01616" lon="2.59391">
        <ele>439</ele>
        <time>2021-10-31T08:12:00.000Z</time>
      </trkpt>
      <trkpt lat="44.01615" lon="2.59391">
        <ele>439</ele>
        <time>2021-10-31T08:12:01.000Z</time>
      </trkpt>
      <trkpt lat="44.01614" lon="2.59391">
        <ele>439</ele>
        <time>2021-10-31T08:12:02.000Z</time>
      </trkpt>
      <trkpt lat="44.01613" lon="2.59391">
        <ele>439</ele>
        <time>2021-10-31T08:12:03.000Z</time>
      </trkpt>
      <trkpt lat="44.01611" lon="2.59392">
        <ele>439</ele>
        <time>2021-10-31T08:12:04.000Z</time>
      </trkpt>
      <trkpt lat="44.0161" lon="2.59392">
        <ele>439</ele>
        <time>2021-10-31T08:12:05.000Z</time>
      </trkpt>
      <trkpt lat="44.01609" lon="2.59391">
        <ele>440</ele>
        <time>2021-10-31T08:12:06.000Z</time>
      </trkpt>
      <trkpt lat="44.01608" lon="2.59391">
        <ele>440</ele>
        <time>2021-10-31T08:12:07.000Z</time>
      </trkpt>
      <trkpt lat="44.01607" lon="2.59391">
        <ele>440</ele>
        <time>2021-10-31T08:12:08.000Z</time>
      </trkpt>
      <trkpt lat="44.01606" lon="2.59391">
        <ele>440</ele>
        <time>2021-10-31T08:12:09.000Z</time>
      </trkpt>
      <trkpt lat="44.01605" lon="2.59391">
        <ele>440</ele>
        <time>2021-10-31T08:12:10.000Z</time>
      </trkpt>
      <trkpt lat="44.01604" lon="2.5939">
        <ele>440</ele>
        <time>2021-10-31T08:12:11.000Z</time>
      </trkpt>
      <trkpt lat="44.01603" lon="2.5939">
        <ele>440</ele>
        <time>2021-10-31T08:12:12.000Z</time>
      </trkpt>
      <trkpt lat="44.01602" lon="2.59389">
        <ele>440</ele>
        <time>2021-10-31T08:12:13.000Z</time>
      </trkpt>
      <trkpt lat="44.01601" lon="2.59388">
        <ele>440</ele>
        <time>2021-10-31T08:12:14.000Z</time>
      </trkpt>
      <trkpt lat="44.016" lon="2.59388">
        <ele>440</ele>
        <time>2021-10-31T08:12:15.000Z</time>
      </trkpt>
      <trkpt lat="44.016" lon="2.59387">
        <ele>440</ele>
        <time>2021-10-31T08:12:16.000Z</time>
      </trkpt>
      <trkpt lat="44.01599" lon="2.59386">
        <ele>440</ele>
        <time>2021-10-31T08:12:17.000Z</time>
      </trkpt>
      <trkpt lat="44.01598" lon="2.59386">
        <ele>440</ele>
        <time>2021-10-31T08:12:18.000Z</time>
      </trkpt>
      <trkpt lat="44.01597" lon="2.59385">
        <ele>440</ele>
        <time>2021-10-31T08:12:19.000Z</time>
      </trkpt>
      <trkpt lat="44.01596" lon="2.59385">
        <ele>440</ele>
        <time>2021-10-31T08:12:20.000Z</time>
      </trkpt>
      <trkpt lat="44.01595" lon="2.59384">
        <ele>440</ele>
        <time>2021-10-31T08:12:21.000Z</time>
      </trkpt>
      <trkpt lat="44.01594" lon="2.59383">
        <ele>440</ele>
        <time>2021-10-31T08:12:22.000Z</time>
      </trkpt>
      <trkpt lat="44.01593" lon="2.59383">
        <ele>440</ele>
        <time>2021-10-31T08:12:23.000Z</time>
      </trkpt>
      <trkpt lat="44.01592" lon="2.59382">
        <ele>440</ele>
        <time>2021-10-31T08:12:24.000Z</time>
      </trkpt>
      <trkpt lat="44.01591" lon="2.59381">
        <ele>440</ele>
        <time>2021-10-31T08:12:25.000Z</time>
      </trkpt>
      <trkpt lat="44.0159" lon="2.59381">
        <ele>440</ele>
        <time>2021-10-31T08:12:26.000Z</time>
      </trkpt>
      <trkpt lat="44.01589" lon="2.59381">
        <ele>440</ele>
        <time>2021-10-31T08:12:27.000Z</time>
      </trkpt>
      <trkpt lat="44.01588" lon="2.5938">
        <ele>440</ele>
        <time>2021-10-31T08:12:28.000Z</time>
      </trkpt>
      <trkpt lat="44.01587" lon="2.5938">
        <ele>441</ele>
        <time>2021-10-31T08:12:29.000Z</time>
      </trkpt>
      <trkpt lat="44.01587" lon="2.59379">
        <ele>441</ele>
        <time>2021-10-31T08:12:30.000Z</time>
      </trkpt>
      <trkpt lat="44.01586" lon="2.59379">
        <ele>441</ele>
        <time>2021-10-31T08:12:31.000Z</time>
      </trkpt>
      <trkpt lat="44.01585" lon="2.59378">
        <ele>441</ele>
        <time>2021-10-31T08:12:32.000Z</time>
      </trkpt>
      <trkpt lat="44.01584" lon="2.59377">
        <ele>441</ele>
        <time>2021-10-31T08:12:33.000Z</time>
      </trkpt>
      <trkpt lat="44.01583" lon="2.59377">
        <ele>441</ele>
        <time>2021-10-31T08:12:34.000Z</time>
      </trkpt>
      <trkpt lat="44.01582" lon="2.59377">
        <ele>441</ele>
        <time>2021-10-31T08:12:35.000Z</time>
      </trkpt>
      <trkpt lat="44.01581" lon="2.59377">
        <ele>441</ele>
        <time>2021-10-31T08:12:36.000Z</time>
      </trkpt>
      <trkpt lat="44.0158" lon="2.59377">
        <ele>441</ele>
        <time>2021-10-31T08:12:37.000Z</time>
      </trkpt>
      <trkpt lat="44.01579" lon="2.59376">
        <ele>441</ele>
        <time>2021-10-31T08:12:38.000Z</time>
      </trkpt>
      <trkpt lat="44.01578" lon="2.59376">
        <ele>441</ele>
        <time>2021-10-31T08:12:39.000Z</time>
      </trkpt>
      <trkpt lat="44.01577" lon="2.59375">
        <ele>441</ele>
        <time>2021-10-31T08:12:40.000Z</time>
      </trkpt>
      <trkpt lat="44.01577" lon="2.59375">
        <ele>441</ele>
        <time>2021-10-31T08:12:41.000Z</time>
      </trkpt>
      <trkpt lat="44.01576" lon="2.59374">
        <ele>441</ele>
        <time>2021-10-31T08:12:42.000Z</time>
      </trkpt>
      <trkpt lat="44.01575" lon="2.59374">
        <ele>441</ele>
        <time>2021-10-31T08:12:43.000Z</time>
      </trkpt>
      <trkpt lat="44.01574" lon="2.59374">
        <ele>441</ele>
        <time>2021-10-31T08:12:44.000Z</time>
      </trkpt>
      <trkpt lat="44.01574" lon="2.59374">
        <ele>441</ele>
        <time>2021-10-31T08:12:45.000Z</time>
      </trkpt>
      <trkpt lat="44.01573" lon="2.59374">
        <ele>441</ele>
        <time>2021-10-31T08:12:46.000Z</time>
      </trkpt>
      <trkpt lat="44.01573" lon="2.59374">
        <ele>441</ele>
        <time>2021-10-31T08:12:47.000Z</time>
      </trkpt>
      <trkpt lat="44.01572" lon="2.59373">
        <ele>442</ele>
        <time>2021-10-31T08:12:48.000Z</time>
      </trkpt>
      <trkpt lat="44.01571" lon="2.59373">
        <ele>441</ele>
        <time>2021-10-31T08:12:49.000Z</time>
      </trkpt>
      <trkpt lat="44.0157" lon="2.59373">
        <ele>441</ele>
        <time>2021-10-31T08:12:50.000Z</time>
      </trkpt>
      <trkpt lat="44.0157" lon="2.59373">
        <ele>441</ele>
        <time>2021-10-31T08:12:51.000Z</time>
      </trkpt>
      <trkpt lat="44.01569" lon="2.59373">
        <ele>441</ele>
        <time>2021-10-31T08:12:52.000Z</time>
      </trkpt>
      <trkpt lat="44.01568" lon="2.59373">
        <ele>441</ele>
        <time>2021-10-31T08:12:53.000Z</time>
      </trkpt>
      <trkpt lat="44.01567" lon="2.59373">
        <ele>441</ele>
        <time>2021-10-31T08:12:54.000Z</time>
      </trkpt>
      <trkpt lat="44.01567" lon="2.59372">
        <ele>441</ele>
        <time>2021-10-31T08:12:55.000Z</time>
      </trkpt>
      <trkpt lat="44.01566" lon="2.59372">
        <ele>441</ele>
        <time>2021-10-31T08:12:56.000Z</time>
      </trkpt>
      <trkpt lat="44.01565" lon="2.59372">
        <ele>442</ele>
        <time>2021-10-31T08:12:57.000Z</time>
      </trkpt>
      <trkpt lat="44.01564" lon="2.59372">
        <ele>442</ele>
        <time>2021-10-31T08:12:58.000Z</time>
      </trkpt>
      <trkpt lat="44.01564" lon="2.59372">
        <ele>442</ele>
        <time>2021-10-31T08:12:59.000Z</time>
      </trkpt>
      <trkpt lat="44.01563" lon="2.59372">
        <ele>442</ele>
        <time>2021-10-31T08:13:00.000Z</time>
      </trkpt>
      <trkpt lat="44.01562" lon="2.59372">
        <ele>442</ele>
        <time>2021-10-31T08:13:01.000Z</time>
      </trkpt>
      <trkpt lat="44.01562" lon="2.59372">
        <ele>442</ele>
        <time>2021-10-31T08:13:02.000Z</time>
      </trkpt>
      <trkpt lat="44.01561" lon="2.59372">
        <ele>442</ele>
        <time>2021-10-31T08:13:03.000Z</time>
      </trkpt>
      <trkpt lat="44.01561" lon="2.59372">
        <ele>442</ele>
        <time>2021-10-31T08:13:04.000Z</time>
      </trkpt>
      <trkpt lat="44.0156" lon="2.59372">
        <ele>442</ele>
        <time>2021-10-31T08:13:05.000Z</time>
      </trkpt>
      <trkpt lat="44.01559" lon="2.59371">
        <ele>442</ele>
        <time>2021-10-31T08:13:06.000Z</time>
      </trkpt>
      <trkpt lat="44.01558" lon="2.59371">
        <ele>442</ele>
        <time>2021-10-31T08:13:07.000Z</time>
      </trkpt>
      <trkpt lat="44.01558" lon="2.59371">
        <ele>442</ele>
        <time>2021-10-31T08:13:08.000Z</time>
      </trkpt>
      <trkpt lat="44.01557" lon="2.59371">
        <ele>442</ele>
        <time>2021-10-31T08:13:09.000Z</time>
      </trkpt>
      <trkpt lat="44.01556" lon="2.59372">
        <ele>442</ele>
        <time>2021-10-31T08:13:10.000Z</time>
      </trkpt>
      <trkpt lat="44.01555" lon="2.59372">
        <ele>442</ele>
        <time>2021-10-31T08:13:11.000Z</time>
      </trkpt>
      <trkpt lat="44.01554" lon="2.59372">
        <ele>442</ele>
        <time>2021-10-31T08:13:12.000Z</time>
      </trkpt>
      <trkpt lat="44.01554" lon="2.59372">
        <ele>442</ele>
        <time>2021-10-31T08:13:13.000Z</time>
      </trkpt>
      <trkpt lat="44.01553" lon="2.59372">
        <ele>443</ele>
        <time>2021-10-31T08:13:14.000Z</time>
      </trkpt>
      <trkpt lat="44.01552" lon="2.59372">
        <ele>443</ele>
        <time>2021-10-31T08:13:15.000Z</time>
      </trkpt>
      <trkpt lat="44.01551" lon="2.59372">
        <ele>443</ele>
        <time>2021-10-31T08:13:16.000Z</time>
      </trkpt>
      <trkpt lat="44.0155" lon="2.59372">
        <ele>443</ele>
        <time>2021-10-31T08:13:17.000Z</time>
      </trkpt>
      <trkpt lat="44.01549" lon="2.59373">
        <ele>443</ele>
        <time>2021-10-31T08:13:18.000Z</time>
      </trkpt>
      <trkpt lat="44.01548" lon="2.59373">
        <ele>443</ele>
        <time>2021-10-31T08:13:19.000Z</time>
      </trkpt>
      <trkpt lat="44.01547" lon="2.59373">
        <ele>443</ele>
        <time>2021-10-31T08:13:20.000Z</time>
      </trkpt>
      <trkpt lat="44.01546" lon="2.59373">
        <ele>443</ele>
        <time>2021-10-31T08:13:21.000Z</time>
      </trkpt>
      <trkpt lat="44.01545" lon="2.59373">
        <ele>443</ele>
        <time>2021-10-31T08:13:22.000Z</time>
      </trkpt>
      <trkpt lat="44.01544" lon="2.59373">
        <ele>443</ele>
        <time>2021-10-31T08:13:23.000Z</time>
      </trkpt>
      <trkpt lat="44.01543" lon="2.59373">
        <ele>443</ele>
        <time>2021-10-31T08:13:24.000Z</time>
      </trkpt>
      <trkpt lat="44.01542" lon="2.59373">
        <ele>444</ele>
        <time>2021-10-31T08:13:25.000Z</time>
      </trkpt>
      <trkpt lat="44.01541" lon="2.59373">
        <ele>444</ele>
        <time>2021-10-31T08:13:26.000Z</time>
      </trkpt>
      <trkpt lat="44.0154" lon="2.59374">
        <ele>444</ele>
        <time>2021-10-31T08:13:27.000Z</time>
      </trkpt>
      <trkpt lat="44.01539" lon="2.59374">
        <ele>444</ele>
        <time>2021-10-31T08:13:28.000Z</time>
      </trkpt>
      <trkpt lat="44.01538" lon="2.59374">
        <ele>444</ele>
        <time>2021-10-31T08:13:29.000Z</time>
      </trkpt>
      <trkpt lat="44.01537" lon="2.59374">
        <ele>444</ele>
        <time>2021-10-31T08:13:30.000Z</time>
      </trkpt>
      <trkpt lat="44.01536" lon="2.59373">
        <ele>444</ele>
        <time>2021-10-31T08:13:31.000Z</time>
      </trkpt>
      <trkpt lat="44.01535" lon="2.59373">
        <ele>444</ele>
        <time>2021-10-31T08:13:32.000Z</time>
      </trkpt>
      <trkpt lat="44.01534" lon="2.59373">
        <ele>444</ele>
        <time>2021-10-31T08:13:33.000Z</time>
      </trkpt>
      <trkpt lat="44.01533" lon="2.59373">
        <ele>444</ele>
        <time>2021-10-31T08:13:34.000Z</time>
      </trkpt>
      <trkpt lat="44.01532" lon="2.59373">
        <ele>445</ele>
        <time>2021-10-31T08:13:35.000Z</time>
      </trkpt>
      <trkpt lat="44.01531" lon="2.59373">
        <ele>445</ele>
        <time>2021-10-31T08:13:36.000Z</time>
      </trkpt>
      <trkpt lat="44.0153" lon="2.59373">
        <ele>445</ele>
        <time>2021-10-31T08:13:37.000Z</time>
      </trkpt>
      <trkpt lat="44.0153" lon="2.59374">
        <ele>445</ele>
        <time>2021-10-31T08:13:38.000Z</time>
      </trkpt>
      <trkpt lat="44.01529" lon="2.59374">
        <ele>445</ele>
        <time>2021-10-31T08:13:39.000Z</time>
      </trkpt>
      <trkpt lat="44.01528" lon="2.59374">
        <ele>445</ele>
        <time>2021-10-31T08:13:40.000Z</time>
      </trkpt>
      <trkpt lat="44.01527" lon="2.59374">
        <ele>445</ele>
        <time>2021-10-31T08:13:41.000Z</time>
      </trkpt>
      <trkpt lat="44.01526" lon="2.59374">
        <ele>445</ele>
        <time>2021-10-31T08:13:42.000Z</time>
      </trkpt>
      <trkpt lat="44.01525" lon="2.59375">
        <ele>445</ele>
        <time>2021-10-31T08:13:43.000Z</time>
      </trkpt>
      <trkpt lat="44.01524" lon="2.59375">
        <ele>445</ele>
        <time>2021-10-31T08:13:44.000Z</time>
      </trkpt>
      <trkpt lat="44.01523" lon="2.59375">
        <ele>445</ele>
        <time>2021-10-31T08:13:45.000Z</time>
      </trkpt>
      <trkpt lat="44.01522" lon="2.59375">
        <ele>446</ele>
        <time>2021-10-31T08:13:46.000Z</time>
      </trkpt>
      <trkpt lat="44.01522" lon="2.59376">
        <ele>446</ele>
        <time>2021-10-31T08:13:47.000Z</time>
      </trkpt>
      <trkpt lat="44.01521" lon="2.59376">
        <ele>446</ele>
        <time>2021-10-31T08:13:48.000Z</time>
      </trkpt>
      <trkpt lat="44.0152" lon="2.59376">
        <ele>446</ele>
        <time>2021-10-31T08:13:49.000Z</time>
      </trkpt>
      <trkpt lat="44.01519" lon="2.59376">
        <ele>446</ele>
        <time>2021-10-31T08:13:50.000Z</time>
      </trkpt>
      <trkpt lat="44.01518" lon="2.59376">
        <ele>446</ele>
        <time>2021-10-31T08:13:51.000Z</time>
      </trkpt>
      <trkpt lat="44.01517" lon="2.59377">
        <ele>446</ele>
        <time>2021-10-31T08:13:52.000Z</time>
      </trkpt>
      <trkpt lat="44.01516" lon="2.59377">
        <ele>446</ele>
        <time>2021-10-31T08:13:53.000Z</time>
      </trkpt>
      <trkpt lat="44.01515" lon="2.59377">
        <ele>446</ele>
        <time>2021-10-31T08:13:54.000Z</time>
      </trkpt>
      <trkpt lat="44.01514" lon="2.59377">
        <ele>446</ele>
        <time>2021-10-31T08:13:55.000Z</time>
      </trkpt>
      <trkpt lat="44.01513" lon="2.59378">
        <ele>446</ele>
        <time>2021-10-31T08:13:56.000Z</time>
      </trkpt>
      <trkpt lat="44.01512" lon="2.59378">
        <ele>446</ele>
        <time>2021-10-31T08:13:57.000Z</time>
      </trkpt>
      <trkpt lat="44.01511" lon="2.59378">
        <ele>446</ele>
        <time>2021-10-31T08:13:58.000Z</time>
      </trkpt>
      <trkpt lat="44.01511" lon="2.59378">
        <ele>447</ele>
        <time>2021-10-31T08:13:59.000Z</time>
      </trkpt>
      <trkpt lat="44.0151" lon="2.59378">
        <ele>447</ele>
        <time>2021-10-31T08:14:00.000Z</time>
      </trkpt>
      <trkpt lat="44.01509" lon="2.59378">
        <ele>447</ele>
        <time>2021-10-31T08:14:01.000Z</time>
      </trkpt>
      <trkpt lat="44.01508" lon="2.59379">
        <ele>447</ele>
        <time>2021-10-31T08:14:02.000Z</time>
      </trkpt>
      <trkpt lat="44.01507" lon="2.59379">
        <ele>447</ele>
        <time>2021-10-31T08:14:03.000Z</time>
      </trkpt>
      <trkpt lat="44.01506" lon="2.59379">
        <ele>447</ele>
        <time>2021-10-31T08:14:04.000Z</time>
      </trkpt>
      <trkpt lat="44.01505" lon="2.5938">
        <ele>447</ele>
        <time>2021-10-31T08:14:05.000Z</time>
      </trkpt>
      <trkpt lat="44.01505" lon="2.5938">
        <ele>447</ele>
        <time>2021-10-31T08:14:06.000Z</time>
      </trkpt>
      <trkpt lat="44.01505" lon="2.5938">
        <ele>447</ele>
        <time>2021-10-31T08:14:07.000Z</time>
      </trkpt>
      <trkpt lat="44.01504" lon="2.5938">
        <ele>447</ele>
        <time>2021-10-31T08:14:08.000Z</time>
      </trkpt>
      <trkpt lat="44.01503" lon="2.5938">
        <ele>447</ele>
        <time>2021-10-31T08:14:09.000Z</time>
      </trkpt>
      <trkpt lat="44.01502" lon="2.5938">
        <ele>447</ele>
        <time>2021-10-31T08:14:10.000Z</time>
      </trkpt>
      <trkpt lat="44.01502" lon="2.5938">
        <ele>447</ele>
        <time>2021-10-31T08:14:11.000Z</time>
      </trkpt>
      <trkpt lat="44.01501" lon="2.5938">
        <ele>447</ele>
        <time>2021-10-31T08:14:12.000Z</time>
      </trkpt>
      <trkpt lat="44.015" lon="2.59381">
        <ele>447</ele>
        <time>2021-10-31T08:14:13.000Z</time>
      </trkpt>
      <trkpt lat="44.01499" lon="2.59381">
        <ele>447</ele>
        <time>2021-10-31T08:14:14.000Z</time>
      </trkpt>
      <trkpt lat="44.01498" lon="2.59382">
        <ele>447</ele>
        <time>2021-10-31T08:14:15.000Z</time>
      </trkpt>
      <trkpt lat="44.01497" lon="2.59382">
        <ele>447</ele>
        <time>2021-10-31T08:14:16.000Z</time>
      </trkpt>
      <trkpt lat="44.01496" lon="2.59382">
        <ele>448</ele>
        <time>2021-10-31T08:14:17.000Z</time>
      </trkpt>
      <trkpt lat="44.01495" lon="2.59383">
        <ele>448</ele>
        <time>2021-10-31T08:14:18.000Z</time>
      </trkpt>
      <trkpt lat="44.01493" lon="2.59383">
        <ele>448</ele>
        <time>2021-10-31T08:14:19.000Z</time>
      </trkpt>
      <trkpt lat="44.01492" lon="2.59384">
        <ele>448</ele>
        <time>2021-10-31T08:14:20.000Z</time>
      </trkpt>
      <trkpt lat="44.01491" lon="2.59384">
        <ele>448</ele>
        <time>2021-10-31T08:14:21.000Z</time>
      </trkpt>
      <trkpt lat="44.0149" lon="2.59385">
        <ele>448</ele>
        <time>2021-10-31T08:14:22.000Z</time>
      </trkpt>
      <trkpt lat="44.01489" lon="2.59385">
        <ele>448</ele>
        <time>2021-10-31T08:14:23.000Z</time>
      </trkpt>
      <trkpt lat="44.01488" lon="2.59386">
        <ele>448</ele>
        <time>2021-10-31T08:14:24.000Z</time>
      </trkpt>
      <trkpt lat="44.01487" lon="2.59387">
        <ele>448</ele>
        <time>2021-10-31T08:14:25.000Z</time>
      </trkpt>
      <trkpt lat="44.01487" lon="2.59387">
        <ele>448</ele>
        <time>2021-10-31T08:14:26.000Z</time>
      </trkpt>
      <trkpt lat="44.01486" lon="2.59387">
        <ele>448</ele>
        <time>2021-10-31T08:14:27.000Z</time>
      </trkpt>
      <trkpt lat="44.01485" lon="2.59388">
        <ele>448</ele>
        <time>2021-10-31T08:14:28.000Z</time>
      </trkpt>
      <trkpt lat="44.01483" lon="2.59389">
        <ele>448</ele>
        <time>2021-10-31T08:14:29.000Z</time>
      </trkpt>
      <trkpt lat="44.01482" lon="2.5939">
        <ele>448</ele>
        <time>2021-10-31T08:14:30.000Z</time>
      </trkpt>
      <trkpt lat="44.01481" lon="2.59391">
        <ele>448</ele>
        <time>2021-10-31T08:14:31.000Z</time>
      </trkpt>
      <trkpt lat="44.0148" lon="2.59392">
        <ele>448</ele>
        <time>2021-10-31T08:14:32.000Z</time>
      </trkpt>
      <trkpt lat="44.01479" lon="2.59392">
        <ele>448</ele>
        <time>2021-10-31T08:14:33.000Z</time>
      </trkpt>
      <trkpt lat="44.01478" lon="2.59393">
        <ele>448</ele>
        <time>2021-10-31T08:14:34.000Z</time>
      </trkpt>
      <trkpt lat="44.01477" lon="2.59394">
        <ele>448</ele>
        <time>2021-10-31T08:14:35.000Z</time>
      </trkpt>
      <trkpt lat="44.01475" lon="2.59395">
        <ele>448</ele>
        <time>2021-10-31T08:14:36.000Z</time>
      </trkpt>
      <trkpt lat="44.01474" lon="2.59396">
        <ele>448</ele>
        <time>2021-10-31T08:14:37.000Z</time>
      </trkpt>
      <trkpt lat="44.01473" lon="2.59396">
        <ele>448</ele>
        <time>2021-10-31T08:14:38.000Z</time>
      </trkpt>
      <trkpt lat="44.01472" lon="2.59397">
        <ele>448</ele>
        <time>2021-10-31T08:14:39.000Z</time>
      </trkpt>
      <trkpt lat="44.01471" lon="2.59398">
        <ele>448</ele>
        <time>2021-10-31T08:14:40.000Z</time>
      </trkpt>
      <trkpt lat="44.0147" lon="2.59399">
        <ele>448</ele>
        <time>2021-10-31T08:14:41.000Z</time>
      </trkpt>
      <trkpt lat="44.01469" lon="2.59399">
        <ele>448</ele>
        <time>2021-10-31T08:14:42.000Z</time>
      </trkpt>
      <trkpt lat="44.01468" lon="2.594">
        <ele>448</ele>
        <time>2021-10-31T08:14:43.000Z</time>
      </trkpt>
      <trkpt lat="44.01467" lon="2.59401">
        <ele>448</ele>
        <time>2021-10-31T08:14:44.000Z</time>
      </trkpt>
      <trkpt lat="44.01466" lon="2.59401">
        <ele>448</ele>
        <time>2021-10-31T08:14:45.000Z</time>
      </trkpt>
      <trkpt lat="44.01465" lon="2.59402">
        <ele>448</ele>
        <time>2021-10-31T08:14:46.000Z</time>
      </trkpt>
      <trkpt lat="44.01463" lon="2.59403">
        <ele>448</ele>
        <time>2021-10-31T08:14:47.000Z</time>
      </trkpt>
      <trkpt lat="44.01462" lon="2.59403">
        <ele>448</ele>
        <time>2021-10-31T08:14:48.000Z</time>
      </trkpt>
      <trkpt lat="44.01461" lon="2.59404">
        <ele>448</ele>
        <time>2021-10-31T08:14:49.000Z</time>
      </trkpt>
      <trkpt lat="44.0146" lon="2.59405">
        <ele>448</ele>
        <time>2021-10-31T08:14:50.000Z</time>
      </trkpt>
      <trkpt lat="44.01459" lon="2.59406">
        <ele>448</ele>
        <time>2021-10-31T08:14:51.000Z</time>
      </trkpt>
      <trkpt lat="44.01458" lon="2.59407">
        <ele>448</ele>
        <time>2021-10-31T08:14:52.000Z</time>
      </trkpt>
      <trkpt lat="44.01457" lon="2.59408">
        <ele>448</ele>
        <time>2021-10-31T08:14:53.000Z</time>
      </trkpt>
      <trkpt lat="44.01456" lon="2.59409">
        <ele>448</ele>
        <time>2021-10-31T08:14:54.000Z</time>
      </trkpt>
      <trkpt lat="44.01456" lon="2.59409">
        <ele>448</ele>
        <time>2021-10-31T08:14:55.000Z</time>
      </trkpt>
      <trkpt lat="44.01454" lon="2.5941">
        <ele>448</ele>
        <time>2021-10-31T08:14:56.000Z</time>
      </trkpt>
      <trkpt lat="44.01454" lon="2.5941">
        <ele>448</ele>
        <time>2021-10-31T08:14:57.000Z</time>
      </trkpt>
      <trkpt lat="44.01454" lon="2.5941">
        <ele>448</ele>
        <time>2021-10-31T08:14:58.000Z</time>
      </trkpt>
      <trkpt lat="44.01453" lon="2.5941">
        <ele>447</ele>
        <time>2021-10-31T08:14:59.000Z</time>
      </trkpt>
      <trkpt lat="44.01452" lon="2.59411">
        <ele>447</ele>
        <time>2021-10-31T08:15:00.000Z</time>
      </trkpt>
      <trkpt lat="44.01451" lon="2.59412">
        <ele>447</ele>
        <time>2021-10-31T08:15:01.000Z</time>
      </trkpt>
      <trkpt lat="44.0145" lon="2.59412">
        <ele>447</ele>
        <time>2021-10-31T08:15:02.000Z</time>
      </trkpt>
      <trkpt lat="44.01449" lon="2.59413">
        <ele>447</ele>
        <time>2021-10-31T08:15:03.000Z</time>
      </trkpt>
      <trkpt lat="44.01448" lon="2.59414">
        <ele>447</ele>
        <time>2021-10-31T08:15:04.000Z</time>
      </trkpt>
      <trkpt lat="44.01447" lon="2.59415">
        <ele>447</ele>
        <time>2021-10-31T08:15:05.000Z</time>
      </trkpt>
      <trkpt lat="44.01446" lon="2.59416">
        <ele>447</ele>
        <time>2021-10-31T08:15:06.000Z</time>
      </trkpt>
      <trkpt lat="44.01445" lon="2.59416">
        <ele>447</ele>
        <time>2021-10-31T08:15:07.000Z</time>
      </trkpt>
      <trkpt lat="44.01443" lon="2.59417">
        <ele>447</ele>
        <time>2021-10-31T08:15:08.000Z</time>
      </trkpt>
      <trkpt lat="44.01442" lon="2.59418">
        <ele>447</ele>
        <time>2021-10-31T08:15:09.000Z</time>
      </trkpt>
      <trkpt lat="44.01441" lon="2.59419">
        <ele>447</ele>
        <time>2021-10-31T08:15:10.000Z</time>
      </trkpt>
      <trkpt lat="44.0144" lon="2.5942">
        <ele>447</ele>
        <time>2021-10-31T08:15:11.000Z</time>
      </trkpt>
      <trkpt lat="44.01439" lon="2.59421">
        <ele>447</ele>
        <time>2021-10-31T08:15:12.000Z</time>
      </trkpt>
      <trkpt lat="44.01438" lon="2.59422">
        <ele>447</ele>
        <time>2021-10-31T08:15:13.000Z</time>
      </trkpt>
      <trkpt lat="44.01437" lon="2.59422">
        <ele>447</ele>
        <time>2021-10-31T08:15:14.000Z</time>
      </trkpt>
      <trkpt lat="44.01435" lon="2.59423">
        <ele>447</ele>
        <time>2021-10-31T08:15:15.000Z</time>
      </trkpt>
      <trkpt lat="44.01434" lon="2.59424">
        <ele>447</ele>
        <time>2021-10-31T08:15:16.000Z</time>
      </trkpt>
      <trkpt lat="44.01433" lon="2.59425">
        <ele>447</ele>
        <time>2021-10-31T08:15:17.000Z</time>
      </trkpt>
      <trkpt lat="44.01432" lon="2.59426">
        <ele>447</ele>
        <time>2021-10-31T08:15:18.000Z</time>
      </trkpt>
      <trkpt lat="44.01431" lon="2.59427">
        <ele>447</ele>
        <time>2021-10-31T08:15:19.000Z</time>
      </trkpt>
      <trkpt lat="44.0143" lon="2.59427">
        <ele>447</ele>
        <time>2021-10-31T08:15:20.000Z</time>
      </trkpt>
      <trkpt lat="44.01428" lon="2.59428">
        <ele>447</ele>
        <time>2021-10-31T08:15:21.000Z</time>
      </trkpt>
      <trkpt lat="44.01427" lon="2.59429">
        <ele>447</ele>
        <time>2021-10-31T08:15:22.000Z</time>
      </trkpt>
      <trkpt lat="44.01426" lon="2.5943">
        <ele>447</ele>
        <time>2021-10-31T08:15:23.000Z</time>
      </trkpt>
      <trkpt lat="44.01425" lon="2.59431">
        <ele>447</ele>
        <time>2021-10-31T08:15:24.000Z</time>
      </trkpt>
      <trkpt lat="44.01424" lon="2.59431">
        <ele>447</ele>
        <time>2021-10-31T08:15:25.000Z</time>
      </trkpt>
      <trkpt lat="44.01423" lon="2.59432">
        <ele>447</ele>
        <time>2021-10-31T08:15:26.000Z</time>
      </trkpt>
      <trkpt lat="44.01422" lon="2.59433">
        <ele>447</ele>
        <time>2021-10-31T08:15:27.000Z</time>
      </trkpt>
      <trkpt lat="44.01421" lon="2.59434">
        <ele>447</ele>
        <time>2021-10-31T08:15:28.000Z</time>
      </trkpt>
      <trkpt lat="44.0142" lon="2.59434">
        <ele>447</ele>
        <time>2021-10-31T08:15:29.000Z</time>
      </trkpt>
      <trkpt lat="44.01419" lon="2.59435">
        <ele>447</ele>
        <time>2021-10-31T08:15:30.000Z</time>
      </trkpt>
      <trkpt lat="44.01418" lon="2.59436">
        <ele>447</ele>
        <time>2021-10-31T08:15:31.000Z</time>
      </trkpt>
      <trkpt lat="44.01417" lon="2.59436">
        <ele>447</ele>
        <time>2021-10-31T08:15:32.000Z</time>
      </trkpt>
      <trkpt lat="44.01416" lon="2.59437">
        <ele>446</ele>
        <time>2021-10-31T08:15:33.000Z</time>
      </trkpt>
      <trkpt lat="44.01415" lon="2.59438">
        <ele>446</ele>
        <time>2021-10-31T08:15:34.000Z</time>
      </trkpt>
      <trkpt lat="44.01414" lon="2.59439">
        <ele>446</ele>
        <time>2021-10-31T08:15:35.000Z</time>
      </trkpt>
      <trkpt lat="44.01413" lon="2.5944">
        <ele>446</ele>
        <time>2021-10-31T08:15:36.000Z</time>
      </trkpt>
      <trkpt lat="44.01412" lon="2.59441">
        <ele>446</ele>
        <time>2021-10-31T08:15:37.000Z</time>
      </trkpt>
      <trkpt lat="44.01411" lon="2.59442">
        <ele>446</ele>
        <time>2021-10-31T08:15:38.000Z</time>
      </trkpt>
      <trkpt lat="44.0141" lon="2.59443">
        <ele>446</ele>
        <time>2021-10-31T08:15:39.000Z</time>
      </trkpt>
      <trkpt lat="44.01409" lon="2.59443">
        <ele>446</ele>
        <time>2021-10-31T08:15:40.000Z</time>
      </trkpt>
      <trkpt lat="44.01408" lon="2.59444">
        <ele>446</ele>
        <time>2021-10-31T08:15:41.000Z</time>
      </trkpt>
      <trkpt lat="44.01407" lon="2.59445">
        <ele>446</ele>
        <time>2021-10-31T08:15:42.000Z</time>
      </trkpt>
      <trkpt lat="44.01406" lon="2.59446">
        <ele>446</ele>
        <time>2021-10-31T08:15:43.000Z</time>
      </trkpt>
      <trkpt lat="44.01405" lon="2.59447">
        <ele>446</ele>
        <time>2021-10-31T08:15:44.000Z</time>
      </trkpt>
      <trkpt lat="44.01404" lon="2.59448">
        <ele>446</ele>
        <time>2021-10-31T08:15:45.000Z</time>
      </trkpt>
      <trkpt lat="44.01403" lon="2.59449">
        <ele>446</ele>
        <time>2021-10-31T08:15:46.000Z</time>
      </trkpt>
      <trkpt lat="44.01402" lon="2.5945">
        <ele>446</ele>
        <time>2021-10-31T08:15:47.000Z</time>
      </trkpt>
      <trkpt lat="44.01401" lon="2.59451">
        <ele>446</ele>
        <time>2021-10-31T08:15:48.000Z</time>
      </trkpt>
      <trkpt lat="44.014" lon="2.59452">
        <ele>446</ele>
        <time>2021-10-31T08:15:49.000Z</time>
      </trkpt>
      <trkpt lat="44.01399" lon="2.59453">
        <ele>446</ele>
        <time>2021-10-31T08:15:50.000Z</time>
      </trkpt>
      <trkpt lat="44.01399" lon="2.59454">
        <ele>446</ele>
        <time>2021-10-31T08:15:51.000Z</time>
      </trkpt>
      <trkpt lat="44.01398" lon="2.59455">
        <ele>446</ele>
        <time>2021-10-31T08:15:52.000Z</time>
      </trkpt>
      <trkpt lat="44.01397" lon="2.59456">
        <ele>446</ele>
        <time>2021-10-31T08:15:53.000Z</time>
      </trkpt>
      <trkpt lat="44.01396" lon="2.59457">
        <ele>446</ele>
        <time>2021-10-31T08:15:54.000Z</time>
      </trkpt>
      <trkpt lat="44.01395" lon="2.59458">
        <ele>446</ele>
        <time>2021-10-31T08:15:55.000Z</time>
      </trkpt>
      <trkpt lat="44.01394" lon="2.59459">
        <ele>446</ele>
        <time>2021-10-31T08:15:56.000Z</time>
      </trkpt>
      <trkpt lat="44.01393" lon="2.59459">
        <ele>446</ele>
        <time>2021-10-31T08:15:57.000Z</time>
      </trkpt>
      <trkpt lat="44.01392" lon="2.5946">
        <ele>446</ele>
        <time>2021-10-31T08:15:58.000Z</time>
      </trkpt>
      <trkpt lat="44.01391" lon="2.59461">
        <ele>446</ele>
        <time>2021-10-31T08:15:59.000Z</time>
      </trkpt>
      <trkpt lat="44.0139" lon="2.59462">
        <ele>445</ele>
        <time>2021-10-31T08:16:00.000Z</time>
      </trkpt>
      <trkpt lat="44.01389" lon="2.59463">
        <ele>445</ele>
        <time>2021-10-31T08:16:01.000Z</time>
      </trkpt>
      <trkpt lat="44.01388" lon="2.59464">
        <ele>445</ele>
        <time>2021-10-31T08:16:02.000Z</time>
      </trkpt>
      <trkpt lat="44.01387" lon="2.59465">
        <ele>445</ele>
        <time>2021-10-31T08:16:03.000Z</time>
      </trkpt>
      <trkpt lat="44.01387" lon="2.59466">
        <ele>445</ele>
        <time>2021-10-31T08:16:04.000Z</time>
      </trkpt>
      <trkpt lat="44.01386" lon="2.59467">
        <ele>445</ele>
        <time>2021-10-31T08:16:05.000Z</time>
      </trkpt>
      <trkpt lat="44.01386" lon="2.59468">
        <ele>445</ele>
        <time>2021-10-31T08:16:06.000Z</time>
      </trkpt>
      <trkpt lat="44.01385" lon="2.59468">
        <ele>445</ele>
        <time>2021-10-31T08:16:07.000Z</time>
      </trkpt>
      <trkpt lat="44.01385" lon="2.59469">
        <ele>444</ele>
        <time>2021-10-31T08:16:08.000Z</time>
      </trkpt>
      <trkpt lat="44.01384" lon="2.5947">
        <ele>444</ele>
        <time>2021-10-31T08:16:09.000Z</time>
      </trkpt>
      <trkpt lat="44.01383" lon="2.59471">
        <ele>444</ele>
        <time>2021-10-31T08:16:10.000Z</time>
      </trkpt>
      <trkpt lat="44.01382" lon="2.59472">
        <ele>444</ele>
        <time>2021-10-31T08:16:11.000Z</time>
      </trkpt>
      <trkpt lat="44.01382" lon="2.59473">
        <ele>444</ele>
        <time>2021-10-31T08:16:12.000Z</time>
      </trkpt>
      <trkpt lat="44.01381" lon="2.59474">
        <ele>444</ele>
        <time>2021-10-31T08:16:13.000Z</time>
      </trkpt>
      <trkpt lat="44.01381" lon="2.59475">
        <ele>444</ele>
        <time>2021-10-31T08:16:14.000Z</time>
      </trkpt>
      <trkpt lat="44.0138" lon="2.59475">
        <ele>444</ele>
        <time>2021-10-31T08:16:15.000Z</time>
      </trkpt>
      <trkpt lat="44.01379" lon="2.59477">
        <ele>444</ele>
        <time>2021-10-31T08:16:16.000Z</time>
      </trkpt>
      <trkpt lat="44.01379" lon="2.59477">
        <ele>444</ele>
        <time>2021-10-31T08:16:17.000Z</time>
      </trkpt>
      <trkpt lat="44.01378" lon="2.59478">
        <ele>444</ele>
        <time>2021-10-31T08:16:18.000Z</time>
      </trkpt>
      <trkpt lat="44.01377" lon="2.59479">
        <ele>444</ele>
        <time>2021-10-31T08:16:19.000Z</time>
      </trkpt>
      <trkpt lat="44.01376" lon="2.5948">
        <ele>444</ele>
        <time>2021-10-31T08:16:20.000Z</time>
      </trkpt>
      <trkpt lat="44.01375" lon="2.59481">
        <ele>444</ele>
        <time>2021-10-31T08:16:21.000Z</time>
      </trkpt>
      <trkpt lat="44.01374" lon="2.59482">
        <ele>443</ele>
        <time>2021-10-31T08:16:22.000Z</time>
      </trkpt>
      <trkpt lat="44.01373" lon="2.59483">
        <ele>443</ele>
        <time>2021-10-31T08:16:23.000Z</time>
      </trkpt>
      <trkpt lat="44.01372" lon="2.59483">
        <ele>443</ele>
        <time>2021-10-31T08:16:24.000Z</time>
      </trkpt>
      <trkpt lat="44.01372" lon="2.59484">
        <ele>443</ele>
        <time>2021-10-31T08:16:25.000Z</time>
      </trkpt>
      <trkpt lat="44.01371" lon="2.59485">
        <ele>443</ele>
        <time>2021-10-31T08:16:26.000Z</time>
      </trkpt>
      <trkpt lat="44.0137" lon="2.59486">
        <ele>443</ele>
        <time>2021-10-31T08:16:27.000Z</time>
      </trkpt>
      <trkpt lat="44.01369" lon="2.59487">
        <ele>443</ele>
        <time>2021-10-31T08:16:28.000Z</time>
      </trkpt>
      <trkpt lat="44.01369" lon="2.59487">
        <ele>443</ele>
        <time>2021-10-31T08:16:29.000Z</time>
      </trkpt>
      <trkpt lat="44.01368" lon="2.59488">
        <ele>443</ele>
        <time>2021-10-31T08:16:30.000Z</time>
      </trkpt>
      <trkpt lat="44.01367" lon="2.59489">
        <ele>443</ele>
        <time>2021-10-31T08:16:31.000Z</time>
      </trkpt>
      <trkpt lat="44.01366" lon="2.5949">
        <ele>443</ele>
        <time>2021-10-31T08:16:32.000Z</time>
      </trkpt>
      <trkpt lat="44.01365" lon="2.59491">
        <ele>442</ele>
        <time>2021-10-31T08:16:33.000Z</time>
      </trkpt>
      <trkpt lat="44.01365" lon="2.59491">
        <ele>442</ele>
        <time>2021-10-31T08:16:34.000Z</time>
      </trkpt>
      <trkpt lat="44.01364" lon="2.59492">
        <ele>442</ele>
        <time>2021-10-31T08:16:35.000Z</time>
      </trkpt>
      <trkpt lat="44.01363" lon="2.59492">
        <ele>442</ele>
        <time>2021-10-31T08:16:36.000Z</time>
      </trkpt>
      <trkpt lat="44.01362" lon="2.59492">
        <ele>442</ele>
        <time>2021-10-31T08:16:37.000Z</time>
      </trkpt>
      <trkpt lat="44.01362" lon="2.59492">
        <ele>442</ele>
        <time>2021-10-31T08:16:38.000Z</time>
      </trkpt>
      <trkpt lat="44.01361" lon="2.59492">
        <ele>442</ele>
        <time>2021-10-31T08:16:39.000Z</time>
      </trkpt>
      <trkpt lat="44.01361" lon="2.59492">
        <ele>442</ele>
        <time>2021-10-31T08:16:40.000Z</time>
      </trkpt>
      <trkpt lat="44.01361" lon="2.59492">
        <ele>442</ele>
        <time>2021-10-31T08:16:41.000Z</time>
      </trkpt>
      <trkpt lat="44.0136" lon="2.59492">
        <ele>442</ele>
        <time>2021-10-31T08:16:42.000Z</time>
      </trkpt>
      <trkpt lat="44.01357" lon="2.59495">
        <ele>442</ele>
        <time>2021-10-31T08:16:43.000Z</time>
      </trkpt>
      <trkpt lat="44.01357" lon="2.59495">
        <ele>442</ele>
        <time>2021-10-31T08:16:44.000Z</time>
      </trkpt>
      <trkpt lat="44.01357" lon="2.59496">
        <ele>442</ele>
        <time>2021-10-31T08:16:45.000Z</time>
      </trkpt>
      <trkpt lat="44.01356" lon="2.59496">
        <ele>442</ele>
        <time>2021-10-31T08:16:46.000Z</time>
      </trkpt>
      <trkpt lat="44.01356" lon="2.59496">
        <ele>442</ele>
        <time>2021-10-31T08:16:47.000Z</time>
      </trkpt>
      <trkpt lat="44.01356" lon="2.59496">
        <ele>442</ele>
        <time>2021-10-31T08:16:48.000Z</time>
      </trkpt>
      <trkpt lat="44.01354" lon="2.59498">
        <ele>442</ele>
        <time>2021-10-31T08:16:49.000Z</time>
      </trkpt>
      <trkpt lat="44.01353" lon="2.59498">
        <ele>442</ele>
        <time>2021-10-31T08:16:50.000Z</time>
      </trkpt>
      <trkpt lat="44.01353" lon="2.59499">
        <ele>442</ele>
        <time>2021-10-31T08:16:51.000Z</time>
      </trkpt>
      <trkpt lat="44.01353" lon="2.59499">
        <ele>442</ele>
        <time>2021-10-31T08:16:52.000Z</time>
      </trkpt>
      <trkpt lat="44.01353" lon="2.59499">
        <ele>442</ele>
        <time>2021-10-31T08:16:53.000Z</time>
      </trkpt>
      <trkpt lat="44.01353" lon="2.59498">
        <ele>442</ele>
        <time>2021-10-31T08:16:54.000Z</time>
      </trkpt>
      <trkpt lat="44.01352" lon="2.595">
        <ele>442</ele>
        <time>2021-10-31T08:16:55.000Z</time>
      </trkpt>
      <trkpt lat="44.01351" lon="2.595">
        <ele>442</ele>
        <time>2021-10-31T08:16:56.000Z</time>
      </trkpt>
      <trkpt lat="44.01351" lon="2.59501">
        <ele>442</ele>
        <time>2021-10-31T08:16:57.000Z</time>
      </trkpt>
      <trkpt lat="44.0135" lon="2.59501">
        <ele>442</ele>
        <time>2021-10-31T08:16:58.000Z</time>
      </trkpt>
      <trkpt lat="44.01349" lon="2.59502">
        <ele>442</ele>
        <time>2021-10-31T08:16:59.000Z</time>
      </trkpt>
      <trkpt lat="44.01348" lon="2.59502">
        <ele>442</ele>
        <time>2021-10-31T08:17:00.000Z</time>
      </trkpt>
      <trkpt lat="44.01348" lon="2.59503">
        <ele>442</ele>
        <time>2021-10-31T08:17:01.000Z</time>
      </trkpt>
      <trkpt lat="44.01347" lon="2.59504">
        <ele>442</ele>
        <time>2021-10-31T08:17:02.000Z</time>
      </trkpt>
      <trkpt lat="44.01346" lon="2.59505">
        <ele>442</ele>
        <time>2021-10-31T08:17:03.000Z</time>
      </trkpt>
      <trkpt lat="44.01345" lon="2.59506">
        <ele>442</ele>
        <time>2021-10-31T08:17:04.000Z</time>
      </trkpt>
      <trkpt lat="44.01344" lon="2.59507">
        <ele>442</ele>
        <time>2021-10-31T08:17:05.000Z</time>
      </trkpt>
      <trkpt lat="44.01344" lon="2.59508">
        <ele>442</ele>
        <time>2021-10-31T08:17:06.000Z</time>
      </trkpt>
      <trkpt lat="44.01343" lon="2.59509">
        <ele>442</ele>
        <time>2021-10-31T08:17:07.000Z</time>
      </trkpt>
      <trkpt lat="44.01342" lon="2.5951">
        <ele>442</ele>
        <time>2021-10-31T08:17:08.000Z</time>
      </trkpt>
      <trkpt lat="44.01342" lon="2.5951">
        <ele>442</ele>
        <time>2021-10-31T08:17:09.000Z</time>
      </trkpt>
      <trkpt lat="44.01341" lon="2.59511">
        <ele>442</ele>
        <time>2021-10-31T08:17:10.000Z</time>
      </trkpt>
      <trkpt lat="44.0134" lon="2.59512">
        <ele>442</ele>
        <time>2021-10-31T08:17:11.000Z</time>
      </trkpt>
      <trkpt lat="44.0134" lon="2.59513">
        <ele>442</ele>
        <time>2021-10-31T08:17:12.000Z</time>
      </trkpt>
      <trkpt lat="44.01339" lon="2.59515">
        <ele>442</ele>
        <time>2021-10-31T08:17:13.000Z</time>
      </trkpt>
      <trkpt lat="44.01339" lon="2.59516">
        <ele>442</ele>
        <time>2021-10-31T08:17:14.000Z</time>
      </trkpt>
      <trkpt lat="44.01338" lon="2.59516">
        <ele>442</ele>
        <time>2021-10-31T08:17:15.000Z</time>
      </trkpt>
      <trkpt lat="44.01338" lon="2.59517">
        <ele>442</ele>
        <time>2021-10-31T08:17:16.000Z</time>
      </trkpt>
      <trkpt lat="44.01338" lon="2.59517">
        <ele>442</ele>
        <time>2021-10-31T08:17:17.000Z</time>
      </trkpt>
      <trkpt lat="44.01337" lon="2.59518">
        <ele>441</ele>
        <time>2021-10-31T08:17:18.000Z</time>
      </trkpt>
      <trkpt lat="44.01337" lon="2.59519">
        <ele>441</ele>
        <time>2021-10-31T08:17:19.000Z</time>
      </trkpt>
      <trkpt lat="44.01336" lon="2.5952">
        <ele>441</ele>
        <time>2021-10-31T08:17:20.000Z</time>
      </trkpt>
      <trkpt lat="44.01335" lon="2.59521">
        <ele>441</ele>
        <time>2021-10-31T08:17:21.000Z</time>
      </trkpt>
      <trkpt lat="44.01335" lon="2.59522">
        <ele>441</ele>
        <time>2021-10-31T08:17:22.000Z</time>
      </trkpt>
      <trkpt lat="44.01334" lon="2.59523">
        <ele>441</ele>
        <time>2021-10-31T08:17:23.000Z</time>
      </trkpt>
      <trkpt lat="44.01333" lon="2.59524">
        <ele>441</ele>
        <time>2021-10-31T08:17:24.000Z</time>
      </trkpt>
      <trkpt lat="44.01332" lon="2.59526">
        <ele>441</ele>
        <time>2021-10-31T08:17:25.000Z</time>
      </trkpt>
      <trkpt lat="44.01332" lon="2.59527">
        <ele>440</ele>
        <time>2021-10-31T08:17:26.000Z</time>
      </trkpt>
      <trkpt lat="44.01331" lon="2.59528">
        <ele>440</ele>
        <time>2021-10-31T08:17:27.000Z</time>
      </trkpt>
      <trkpt lat="44.0133" lon="2.59529">
        <ele>440</ele>
        <time>2021-10-31T08:17:28.000Z</time>
      </trkpt>
      <trkpt lat="44.01329" lon="2.5953">
        <ele>440</ele>
        <time>2021-10-31T08:17:29.000Z</time>
      </trkpt>
      <trkpt lat="44.01329" lon="2.59531">
        <ele>440</ele>
        <time>2021-10-31T08:17:30.000Z</time>
      </trkpt>
      <trkpt lat="44.01328" lon="2.59532">
        <ele>440</ele>
        <time>2021-10-31T08:17:31.000Z</time>
      </trkpt>
      <trkpt lat="44.01327" lon="2.59533">
        <ele>440</ele>
        <time>2021-10-31T08:17:32.000Z</time>
      </trkpt>
      <trkpt lat="44.01327" lon="2.59533">
        <ele>439</ele>
        <time>2021-10-31T08:17:33.000Z</time>
      </trkpt>
      <trkpt lat="44.01326" lon="2.59535">
        <ele>439</ele>
        <time>2021-10-31T08:17:34.000Z</time>
      </trkpt>
      <trkpt lat="44.01325" lon="2.59536">
        <ele>439</ele>
        <time>2021-10-31T08:17:35.000Z</time>
      </trkpt>
      <trkpt lat="44.01324" lon="2.59536">
        <ele>439</ele>
        <time>2021-10-31T08:17:36.000Z</time>
      </trkpt>
      <trkpt lat="44.01324" lon="2.59537">
        <ele>439</ele>
        <time>2021-10-31T08:17:37.000Z</time>
      </trkpt>
      <trkpt lat="44.01323" lon="2.59537">
        <ele>439</ele>
        <time>2021-10-31T08:17:38.000Z</time>
      </trkpt>
      <trkpt lat="44.01322" lon="2.59538">
        <ele>439</ele>
        <time>2021-10-31T08:17:39.000Z</time>
      </trkpt>
      <trkpt lat="44.01321" lon="2.59539">
        <ele>439</ele>
        <time>2021-10-31T08:17:40.000Z</time>
      </trkpt>
      <trkpt lat="44.01321" lon="2.59539">
        <ele>439</ele>
        <time>2021-10-31T08:17:41.000Z</time>
      </trkpt>
      <trkpt lat="44.0132" lon="2.5954">
        <ele>439</ele>
        <time>2021-10-31T08:17:42.000Z</time>
      </trkpt>
      <trkpt lat="44.01319" lon="2.59541">
        <ele>439</ele>
        <time>2021-10-31T08:17:43.000Z</time>
      </trkpt>
      <trkpt lat="44.01319" lon="2.59542">
        <ele>439</ele>
        <time>2021-10-31T08:17:44.000Z</time>
      </trkpt>
      <trkpt lat="44.01318" lon="2.59543">
        <ele>439</ele>
        <time>2021-10-31T08:17:45.000Z</time>
      </trkpt>
      <trkpt lat="44.01317" lon="2.59543">
        <ele>439</ele>
        <time>2021-10-31T08:17:46.000Z</time>
      </trkpt>
      <trkpt lat="44.01316" lon="2.59544">
        <ele>439</ele>
        <time>2021-10-31T08:17:47.000Z</time>
      </trkpt>
      <trkpt lat="44.01315" lon="2.59544">
        <ele>439</ele>
        <time>2021-10-31T08:17:48.000Z</time>
      </trkpt>
      <trkpt lat="44.01315" lon="2.59545">
        <ele>439</ele>
        <time>2021-10-31T08:17:49.000Z</time>
      </trkpt>
      <trkpt lat="44.01314" lon="2.59545">
        <ele>438</ele>
        <time>2021-10-31T08:17:50.000Z</time>
      </trkpt>
      <trkpt lat="44.01313" lon="2.59546">
        <ele>438</ele>
        <time>2021-10-31T08:17:51.000Z</time>
      </trkpt>
      <trkpt lat="44.01312" lon="2.59546">
        <ele>438</ele>
        <time>2021-10-31T08:17:52.000Z</time>
      </trkpt>
      <trkpt lat="44.01311" lon="2.59546">
        <ele>438</ele>
        <time>2021-10-31T08:17:53.000Z</time>
      </trkpt>
      <trkpt lat="44.0131" lon="2.59547">
        <ele>438</ele>
        <time>2021-10-31T08:17:54.000Z</time>
      </trkpt>
      <trkpt lat="44.01309" lon="2.59548">
        <ele>438</ele>
        <time>2021-10-31T08:17:55.000Z</time>
      </trkpt>
      <trkpt lat="44.01308" lon="2.59548">
        <ele>438</ele>
        <time>2021-10-31T08:17:56.000Z</time>
      </trkpt>
      <trkpt lat="44.01307" lon="2.59548">
        <ele>438</ele>
        <time>2021-10-31T08:17:57.000Z</time>
      </trkpt>
      <trkpt lat="44.01306" lon="2.59549">
        <ele>438</ele>
        <time>2021-10-31T08:17:58.000Z</time>
      </trkpt>
      <trkpt lat="44.01305" lon="2.59549">
        <ele>438</ele>
        <time>2021-10-31T08:17:59.000Z</time>
      </trkpt>
      <trkpt lat="44.01304" lon="2.5955">
        <ele>438</ele>
        <time>2021-10-31T08:18:00.000Z</time>
      </trkpt>
      <trkpt lat="44.01303" lon="2.5955">
        <ele>438</ele>
        <time>2021-10-31T08:18:01.000Z</time>
      </trkpt>
      <trkpt lat="44.01302" lon="2.59551">
        <ele>438</ele>
        <time>2021-10-31T08:18:02.000Z</time>
      </trkpt>
      <trkpt lat="44.01301" lon="2.59551">
        <ele>438</ele>
        <time>2021-10-31T08:18:03.000Z</time>
      </trkpt>
      <trkpt lat="44.013" lon="2.59552">
        <ele>438</ele>
        <time>2021-10-31T08:18:04.000Z</time>
      </trkpt>
      <trkpt lat="44.01299" lon="2.59552">
        <ele>438</ele>
        <time>2021-10-31T08:18:05.000Z</time>
      </trkpt>
      <trkpt lat="44.01298" lon="2.59552">
        <ele>438</ele>
        <time>2021-10-31T08:18:06.000Z</time>
      </trkpt>
      <trkpt lat="44.01297" lon="2.59552">
        <ele>438</ele>
        <time>2021-10-31T08:18:07.000Z</time>
      </trkpt>
      <trkpt lat="44.01296" lon="2.59553">
        <ele>438</ele>
        <time>2021-10-31T08:18:08.000Z</time>
      </trkpt>
      <trkpt lat="44.01295" lon="2.59553">
        <ele>438</ele>
        <time>2021-10-31T08:18:09.000Z</time>
      </trkpt>
      <trkpt lat="44.01294" lon="2.59553">
        <ele>438</ele>
        <time>2021-10-31T08:18:10.000Z</time>
      </trkpt>
      <trkpt lat="44.01293" lon="2.59554">
        <ele>438</ele>
        <time>2021-10-31T08:18:11.000Z</time>
      </trkpt>
      <trkpt lat="44.01292" lon="2.59554">
        <ele>438</ele>
        <time>2021-10-31T08:18:12.000Z</time>
      </trkpt>
      <trkpt lat="44.01292" lon="2.59554">
        <ele>438</ele>
        <time>2021-10-31T08:18:13.000Z</time>
      </trkpt>
      <trkpt lat="44.01291" lon="2.59554">
        <ele>438</ele>
        <time>2021-10-31T08:18:14.000Z</time>
      </trkpt>
      <trkpt lat="44.0129" lon="2.59554">
        <ele>438</ele>
        <time>2021-10-31T08:18:15.000Z</time>
      </trkpt>
      <trkpt lat="44.01289" lon="2.59554">
        <ele>438</ele>
        <time>2021-10-31T08:18:16.000Z</time>
      </trkpt>
      <trkpt lat="44.01289" lon="2.59554">
        <ele>438</ele>
        <time>2021-10-31T08:18:17.000Z</time>
      </trkpt>
      <trkpt lat="44.01288" lon="2.59554">
        <ele>438</ele>
        <time>2021-10-31T08:18:18.000Z</time>
      </trkpt>
      <trkpt lat="44.01288" lon="2.59554">
        <ele>439</ele>
        <time>2021-10-31T08:18:19.000Z</time>
      </trkpt>
      <trkpt lat="44.01288" lon="2.59554">
        <ele>439</ele>
        <time>2021-10-31T08:18:20.000Z</time>
      </trkpt>
      <trkpt lat="44.01286" lon="2.59555">
        <ele>439</ele>
        <time>2021-10-31T08:18:21.000Z</time>
      </trkpt>
      <trkpt lat="44.01285" lon="2.59555">
        <ele>439</ele>
        <time>2021-10-31T08:18:22.000Z</time>
      </trkpt>
      <trkpt lat="44.01285" lon="2.59555">
        <ele>439</ele>
        <time>2021-10-31T08:18:23.000Z</time>
      </trkpt>
      <trkpt lat="44.01284" lon="2.59555">
        <ele>439</ele>
        <time>2021-10-31T08:18:24.000Z</time>
      </trkpt>
      <trkpt lat="44.01284" lon="2.59555">
        <ele>439</ele>
        <time>2021-10-31T08:18:25.000Z</time>
      </trkpt>
      <trkpt lat="44.01283" lon="2.59556">
        <ele>439</ele>
        <time>2021-10-31T08:18:26.000Z</time>
      </trkpt>
      <trkpt lat="44.01282" lon="2.59557">
        <ele>439</ele>
        <time>2021-10-31T08:18:27.000Z</time>
      </trkpt>
      <trkpt lat="44.01282" lon="2.59557">
        <ele>439</ele>
        <time>2021-10-31T08:18:28.000Z</time>
      </trkpt>
      <trkpt lat="44.01281" lon="2.59557">
        <ele>439</ele>
        <time>2021-10-31T08:18:29.000Z</time>
      </trkpt>
      <trkpt lat="44.0128" lon="2.59558">
        <ele>439</ele>
        <time>2021-10-31T08:18:30.000Z</time>
      </trkpt>
      <trkpt lat="44.01279" lon="2.59558">
        <ele>439</ele>
        <time>2021-10-31T08:18:31.000Z</time>
      </trkpt>
      <trkpt lat="44.01278" lon="2.59557">
        <ele>439</ele>
        <time>2021-10-31T08:18:32.000Z</time>
      </trkpt>
      <trkpt lat="44.01277" lon="2.59557">
        <ele>439</ele>
        <time>2021-10-31T08:18:33.000Z</time>
      </trkpt>
      <trkpt lat="44.01276" lon="2.59557">
        <ele>439</ele>
        <time>2021-10-31T08:18:34.000Z</time>
      </trkpt>
      <trkpt lat="44.01275" lon="2.59556">
        <ele>439</ele>
        <time>2021-10-31T08:18:35.000Z</time>
      </trkpt>
      <trkpt lat="44.01274" lon="2.59556">
        <ele>439</ele>
        <time>2021-10-31T08:18:36.000Z</time>
      </trkpt>
      <trkpt lat="44.01273" lon="2.59556">
        <ele>439</ele>
        <time>2021-10-31T08:18:37.000Z</time>
      </trkpt>
      <trkpt lat="44.01273" lon="2.59555">
        <ele>440</ele>
        <time>2021-10-31T08:18:38.000Z</time>
      </trkpt>
      <trkpt lat="44.01272" lon="2.59554">
        <ele>439</ele>
        <time>2021-10-31T08:18:39.000Z</time>
      </trkpt>
      <trkpt lat="44.01271" lon="2.59554">
        <ele>440</ele>
        <time>2021-10-31T08:18:40.000Z</time>
      </trkpt>
      <trkpt lat="44.0127" lon="2.59553">
        <ele>440</ele>
        <time>2021-10-31T08:18:41.000Z</time>
      </trkpt>
      <trkpt lat="44.0127" lon="2.59552">
        <ele>440</ele>
        <time>2021-10-31T08:18:42.000Z</time>
      </trkpt>
      <trkpt lat="44.0127" lon="2.59552">
        <ele>440</ele>
        <time>2021-10-31T08:18:43.000Z</time>
      </trkpt>
      <trkpt lat="44.0127" lon="2.59552">
        <ele>440</ele>
        <time>2021-10-31T08:18:44.000Z</time>
      </trkpt>
      <trkpt lat="44.0127" lon="2.59552">
        <ele>440</ele>
        <time>2021-10-31T08:18:45.000Z</time>
      </trkpt>
      <trkpt lat="44.01271" lon="2.59553">
        <ele>438</ele>
        <time>2021-10-31T08:18:46.000Z</time>
      </trkpt>
      <trkpt lat="44.01271" lon="2.59552">
        <ele>438</ele>
        <time>2021-10-31T08:18:47.000Z</time>
      </trkpt>
      <trkpt lat="44.01271" lon="2.59552">
        <ele>438</ele>
        <time>2021-10-31T08:18:48.000Z</time>
      </trkpt>
      <trkpt lat="44.0127" lon="2.59552">
        <ele>438</ele>
        <time>2021-10-31T08:18:49.000Z</time>
      </trkpt>
      <trkpt lat="44.0127" lon="2.59553">
        <ele>438</ele>
        <time>2021-10-31T08:18:50.000Z</time>
      </trkpt>
      <trkpt lat="44.01269" lon="2.59554">
        <ele>438</ele>
        <time>2021-10-31T08:18:51.000Z</time>
      </trkpt>
      <trkpt lat="44.01269" lon="2.59556">
        <ele>438</ele>
        <time>2021-10-31T08:18:52.000Z</time>
      </trkpt>
      <trkpt lat="44.01268" lon="2.59557">
        <ele>438</ele>
        <time>2021-10-31T08:18:53.000Z</time>
      </trkpt>
      <trkpt lat="44.01267" lon="2.59558">
        <ele>438</ele>
        <time>2021-10-31T08:18:54.000Z</time>
      </trkpt>
      <trkpt lat="44.01266" lon="2.59559">
        <ele>438</ele>
        <time>2021-10-31T08:18:55.000Z</time>
      </trkpt>
      <trkpt lat="44.01266" lon="2.59561">
        <ele>438</ele>
        <time>2021-10-31T08:18:56.000Z</time>
      </trkpt>
      <trkpt lat="44.01265" lon="2.59562">
        <ele>438</ele>
        <time>2021-10-31T08:18:57.000Z</time>
      </trkpt>
      <trkpt lat="44.01264" lon="2.59562">
        <ele>438</ele>
        <time>2021-10-31T08:18:58.000Z</time>
      </trkpt>
      <trkpt lat="44.01263" lon="2.59562">
        <ele>438</ele>
        <time>2021-10-31T08:18:59.000Z</time>
      </trkpt>
      <trkpt lat="44.01263" lon="2.59563">
        <ele>438</ele>
        <time>2021-10-31T08:19:00.000Z</time>
      </trkpt>
      <trkpt lat="44.01262" lon="2.59563">
        <ele>438</ele>
        <time>2021-10-31T08:19:01.000Z</time>
      </trkpt>
      <trkpt lat="44.01262" lon="2.59563">
        <ele>438</ele>
        <time>2021-10-31T08:19:02.000Z</time>
      </trkpt>
      <trkpt lat="44.01262" lon="2.59564">
        <ele>438</ele>
        <time>2021-10-31T08:19:03.000Z</time>
      </trkpt>
      <trkpt lat="44.01262" lon="2.59564">
        <ele>438</ele>
        <time>2021-10-31T08:19:04.000Z</time>
      </trkpt>
      <trkpt lat="44.01261" lon="2.59565">
        <ele>438</ele>
        <time>2021-10-31T08:19:05.000Z</time>
      </trkpt>
      <trkpt lat="44.01261" lon="2.59566">
        <ele>438</ele>
        <time>2021-10-31T08:19:06.000Z</time>
      </trkpt>
      <trkpt lat="44.0126" lon="2.59567">
        <ele>438</ele>
        <time>2021-10-31T08:19:07.000Z</time>
      </trkpt>
      <trkpt lat="44.0126" lon="2.59568">
        <ele>438</ele>
        <time>2021-10-31T08:19:08.000Z</time>
      </trkpt>
      <trkpt lat="44.01259" lon="2.59569">
        <ele>438</ele>
        <time>2021-10-31T08:19:09.000Z</time>
      </trkpt>
      <trkpt lat="44.01259" lon="2.59569">
        <ele>438</ele>
        <time>2021-10-31T08:19:10.000Z</time>
      </trkpt>
      <trkpt lat="44.01259" lon="2.5957">
        <ele>438</ele>
        <time>2021-10-31T08:19:11.000Z</time>
      </trkpt>
      <trkpt lat="44.01259" lon="2.59571">
        <ele>438</ele>
        <time>2021-10-31T08:19:12.000Z</time>
      </trkpt>
      <trkpt lat="44.01259" lon="2.59572">
        <ele>438</ele>
        <time>2021-10-31T08:19:13.000Z</time>
      </trkpt>
      <trkpt lat="44.01258" lon="2.59573">
        <ele>438</ele>
        <time>2021-10-31T08:19:14.000Z</time>
      </trkpt>
      <trkpt lat="44.01257" lon="2.59573">
        <ele>438</ele>
        <time>2021-10-31T08:19:15.000Z</time>
      </trkpt>
      <trkpt lat="44.01257" lon="2.59574">
        <ele>438</ele>
        <time>2021-10-31T08:19:16.000Z</time>
      </trkpt>
      <trkpt lat="44.01257" lon="2.59575">
        <ele>438</ele>
        <time>2021-10-31T08:19:17.000Z</time>
      </trkpt>
      <trkpt lat="44.01256" lon="2.59575">
        <ele>438</ele>
        <time>2021-10-31T08:19:18.000Z</time>
      </trkpt>
      <trkpt lat="44.01256" lon="2.59576">
        <ele>438</ele>
        <time>2021-10-31T08:19:19.000Z</time>
      </trkpt>
      <trkpt lat="44.01255" lon="2.59577">
        <ele>438</ele>
        <time>2021-10-31T08:19:20.000Z</time>
      </trkpt>
      <trkpt lat="44.01255" lon="2.59578">
        <ele>438</ele>
        <time>2021-10-31T08:19:21.000Z</time>
      </trkpt>
      <trkpt lat="44.01254" lon="2.59579">
        <ele>438</ele>
        <time>2021-10-31T08:19:22.000Z</time>
      </trkpt>
      <trkpt lat="44.01254" lon="2.5958">
        <ele>438</ele>
        <time>2021-10-31T08:19:23.000Z</time>
      </trkpt>
      <trkpt lat="44.01253" lon="2.59581">
        <ele>438</ele>
        <time>2021-10-31T08:19:24.000Z</time>
      </trkpt>
      <trkpt lat="44.01252" lon="2.59582">
        <ele>438</ele>
        <time>2021-10-31T08:19:25.000Z</time>
      </trkpt>
      <trkpt lat="44.01252" lon="2.59583">
        <ele>438</ele>
        <time>2021-10-31T08:19:26.000Z</time>
      </trkpt>
      <trkpt lat="44.01251" lon="2.59584">
        <ele>437</ele>
        <time>2021-10-31T08:19:27.000Z</time>
      </trkpt>
      <trkpt lat="44.01251" lon="2.59586">
        <ele>437</ele>
        <time>2021-10-31T08:19:28.000Z</time>
      </trkpt>
      <trkpt lat="44.0125" lon="2.59587">
        <ele>437</ele>
        <time>2021-10-31T08:19:29.000Z</time>
      </trkpt>
      <trkpt lat="44.0125" lon="2.59588">
        <ele>437</ele>
        <time>2021-10-31T08:19:30.000Z</time>
      </trkpt>
      <trkpt lat="44.01249" lon="2.59589">
        <ele>437</ele>
        <time>2021-10-31T08:19:31.000Z</time>
      </trkpt>
      <trkpt lat="44.01249" lon="2.59591">
        <ele>437</ele>
        <time>2021-10-31T08:19:32.000Z</time>
      </trkpt>
      <trkpt lat="44.01248" lon="2.59592">
        <ele>437</ele>
        <time>2021-10-31T08:19:33.000Z</time>
      </trkpt>
      <trkpt lat="44.01248" lon="2.59593">
        <ele>437</ele>
        <time>2021-10-31T08:19:34.000Z</time>
      </trkpt>
      <trkpt lat="44.01247" lon="2.59595">
        <ele>437</ele>
        <time>2021-10-31T08:19:35.000Z</time>
      </trkpt>
      <trkpt lat="44.01247" lon="2.59596">
        <ele>437</ele>
        <time>2021-10-31T08:19:36.000Z</time>
      </trkpt>
      <trkpt lat="44.01247" lon="2.59597">
        <ele>437</ele>
        <time>2021-10-31T08:19:37.000Z</time>
      </trkpt>
      <trkpt lat="44.01247" lon="2.59599">
        <ele>437</ele>
        <time>2021-10-31T08:19:38.000Z</time>
      </trkpt>
      <trkpt lat="44.01247" lon="2.596">
        <ele>437</ele>
        <time>2021-10-31T08:19:39.000Z</time>
      </trkpt>
      <trkpt lat="44.01247" lon="2.59601">
        <ele>437</ele>
        <time>2021-10-31T08:19:40.000Z</time>
      </trkpt>
      <trkpt lat="44.01246" lon="2.59603">
        <ele>437</ele>
        <time>2021-10-31T08:19:41.000Z</time>
      </trkpt>
      <trkpt lat="44.01246" lon="2.59604">
        <ele>436</ele>
        <time>2021-10-31T08:19:42.000Z</time>
      </trkpt>
      <trkpt lat="44.01246" lon="2.59606">
        <ele>436</ele>
        <time>2021-10-31T08:19:43.000Z</time>
      </trkpt>
      <trkpt lat="44.01246" lon="2.59607">
        <ele>437</ele>
        <time>2021-10-31T08:19:44.000Z</time>
      </trkpt>
      <trkpt lat="44.01246" lon="2.59608">
        <ele>437</ele>
        <time>2021-10-31T08:19:45.000Z</time>
      </trkpt>
      <trkpt lat="44.01247" lon="2.5961">
        <ele>437</ele>
        <time>2021-10-31T08:19:46.000Z</time>
      </trkpt>
      <trkpt lat="44.01247" lon="2.59611">
        <ele>437</ele>
        <time>2021-10-31T08:19:47.000Z</time>
      </trkpt>
      <trkpt lat="44.01248" lon="2.59612">
        <ele>437</ele>
        <time>2021-10-31T08:19:48.000Z</time>
      </trkpt>
      <trkpt lat="44.01248" lon="2.59613">
        <ele>437</ele>
        <time>2021-10-31T08:19:49.000Z</time>
      </trkpt>
      <trkpt lat="44.01248" lon="2.59613">
        <ele>437</ele>
        <time>2021-10-31T08:19:50.000Z</time>
      </trkpt>
      <trkpt lat="44.01249" lon="2.59613">
        <ele>437</ele>
        <time>2021-10-31T08:19:51.000Z</time>
      </trkpt>
      <trkpt lat="44.01249" lon="2.59613">
        <ele>437</ele>
        <time>2021-10-31T08:19:52.000Z</time>
      </trkpt>
      <trkpt lat="44.01249" lon="2.59613">
        <ele>437</ele>
        <time>2021-10-31T08:19:53.000Z</time>
      </trkpt>
      <trkpt lat="44.01249" lon="2.59616">
        <ele>437</ele>
        <time>2021-10-31T08:19:54.000Z</time>
      </trkpt>
      <trkpt lat="44.0125" lon="2.59618">
        <ele>437</ele>
        <time>2021-10-31T08:19:55.000Z</time>
      </trkpt>
      <trkpt lat="44.0125" lon="2.59619">
        <ele>437</ele>
        <time>2021-10-31T08:19:56.000Z</time>
      </trkpt>
      <trkpt lat="44.0125" lon="2.5962">
        <ele>437</ele>
        <time>2021-10-31T08:19:57.000Z</time>
      </trkpt>
      <trkpt lat="44.0125" lon="2.59622">
        <ele>437</ele>
        <time>2021-10-31T08:19:58.000Z</time>
      </trkpt>
      <trkpt lat="44.0125" lon="2.59623">
        <ele>437</ele>
        <time>2021-10-31T08:19:59.000Z</time>
      </trkpt>
      <trkpt lat="44.01251" lon="2.59624">
        <ele>437</ele>
        <time>2021-10-31T08:20:00.000Z</time>
      </trkpt>
      <trkpt lat="44.01251" lon="2.59626">
        <ele>437</ele>
        <time>2021-10-31T08:20:01.000Z</time>
      </trkpt>
      <trkpt lat="44.01252" lon="2.59627">
        <ele>437</ele>
        <time>2021-10-31T08:20:02.000Z</time>
      </trkpt>
      <trkpt lat="44.01252" lon="2.59628">
        <ele>437</ele>
        <time>2021-10-31T08:20:03.000Z</time>
      </trkpt>
      <trkpt lat="44.01253" lon="2.5963">
        <ele>437</ele>
        <time>2021-10-31T08:20:04.000Z</time>
      </trkpt>
      <trkpt lat="44.01254" lon="2.59631">
        <ele>437</ele>
        <time>2021-10-31T08:20:05.000Z</time>
      </trkpt>
      <trkpt lat="44.01255" lon="2.59632">
        <ele>437</ele>
        <time>2021-10-31T08:20:06.000Z</time>
      </trkpt>
      <trkpt lat="44.01255" lon="2.59633">
        <ele>437</ele>
        <time>2021-10-31T08:20:07.000Z</time>
      </trkpt>
      <trkpt lat="44.01256" lon="2.59634">
        <ele>437</ele>
        <time>2021-10-31T08:20:08.000Z</time>
      </trkpt>
      <trkpt lat="44.01256" lon="2.59635">
        <ele>437</ele>
        <time>2021-10-31T08:20:09.000Z</time>
      </trkpt>
      <trkpt lat="44.01257" lon="2.59637">
        <ele>438</ele>
        <time>2021-10-31T08:20:10.000Z</time>
      </trkpt>
      <trkpt lat="44.01257" lon="2.59638">
        <ele>438</ele>
        <time>2021-10-31T08:20:11.000Z</time>
      </trkpt>
      <trkpt lat="44.01258" lon="2.59639">
        <ele>438</ele>
        <time>2021-10-31T08:20:12.000Z</time>
      </trkpt>
      <trkpt lat="44.01258" lon="2.5964">
        <ele>438</ele>
        <time>2021-10-31T08:20:13.000Z</time>
      </trkpt>
      <trkpt lat="44.01259" lon="2.5964">
        <ele>438</ele>
        <time>2021-10-31T08:20:14.000Z</time>
      </trkpt>
      <trkpt lat="44.01259" lon="2.59641">
        <ele>438</ele>
        <time>2021-10-31T08:20:15.000Z</time>
      </trkpt>
      <trkpt lat="44.0126" lon="2.59642">
        <ele>438</ele>
        <time>2021-10-31T08:20:16.000Z</time>
      </trkpt>
      <trkpt lat="44.01261" lon="2.59643">
        <ele>438</ele>
        <time>2021-10-31T08:20:17.000Z</time>
      </trkpt>
      <trkpt lat="44.01262" lon="2.59644">
        <ele>438</ele>
        <time>2021-10-31T08:20:18.000Z</time>
      </trkpt>
      <trkpt lat="44.01262" lon="2.59645">
        <ele>439</ele>
        <time>2021-10-31T08:20:19.000Z</time>
      </trkpt>
      <trkpt lat="44.01263" lon="2.59646">
        <ele>439</ele>
        <time>2021-10-31T08:20:20.000Z</time>
      </trkpt>
      <trkpt lat="44.01263" lon="2.59648">
        <ele>439</ele>
        <time>2021-10-31T08:20:21.000Z</time>
      </trkpt>
      <trkpt lat="44.01263" lon="2.59649">
        <ele>439</ele>
        <time>2021-10-31T08:20:22.000Z</time>
      </trkpt>
      <trkpt lat="44.01264" lon="2.5965">
        <ele>439</ele>
        <time>2021-10-31T08:20:23.000Z</time>
      </trkpt>
      <trkpt lat="44.01264" lon="2.59651">
        <ele>439</ele>
        <time>2021-10-31T08:20:24.000Z</time>
      </trkpt>
      <trkpt lat="44.01265" lon="2.59652">
        <ele>439</ele>
        <time>2021-10-31T08:20:25.000Z</time>
      </trkpt>
      <trkpt lat="44.01265" lon="2.59653">
        <ele>439</ele>
        <time>2021-10-31T08:20:26.000Z</time>
      </trkpt>
      <trkpt lat="44.01265" lon="2.59655">
        <ele>439</ele>
        <time>2021-10-31T08:20:27.000Z</time>
      </trkpt>
      <trkpt lat="44.01265" lon="2.59656">
        <ele>439</ele>
        <time>2021-10-31T08:20:28.000Z</time>
      </trkpt>
      <trkpt lat="44.01265" lon="2.59657">
        <ele>439</ele>
        <time>2021-10-31T08:20:29.000Z</time>
      </trkpt>
      <trkpt lat="44.01265" lon="2.59658">
        <ele>439</ele>
        <time>2021-10-31T08:20:30.000Z</time>
      </trkpt>
      <trkpt lat="44.01266" lon="2.59659">
        <ele>439</ele>
        <time>2021-10-31T08:20:31.000Z</time>
      </trkpt>
      <trkpt lat="44.01266" lon="2.59661">
        <ele>439</ele>
        <time>2021-10-31T08:20:32.000Z</time>
      </trkpt>
      <trkpt lat="44.01266" lon="2.59662">
        <ele>439</ele>
        <time>2021-10-31T08:20:33.000Z</time>
      </trkpt>
      <trkpt lat="44.01266" lon="2.59663">
        <ele>439</ele>
        <time>2021-10-31T08:20:34.000Z</time>
      </trkpt>
      <trkpt lat="44.01267" lon="2.59664">
        <ele>439</ele>
        <time>2021-10-31T08:20:35.000Z</time>
      </trkpt>
      <trkpt lat="44.01267" lon="2.59664">
        <ele>439</ele>
        <time>2021-10-31T08:20:36.000Z</time>
      </trkpt>
      <trkpt lat="44.01267" lon="2.59665">
        <ele>439</ele>
        <time>2021-10-31T08:20:37.000Z</time>
      </trkpt>
      <trkpt lat="44.01268" lon="2.59666">
        <ele>439</ele>
        <time>2021-10-31T08:20:38.000Z</time>
      </trkpt>
      <trkpt lat="44.01268" lon="2.59667">
        <ele>439</ele>
        <time>2021-10-31T08:20:39.000Z</time>
      </trkpt>
      <trkpt lat="44.01268" lon="2.59668">
        <ele>439</ele>
        <time>2021-10-31T08:20:40.000Z</time>
      </trkpt>
      <trkpt lat="44.01269" lon="2.59669">
        <ele>439</ele>
        <time>2021-10-31T08:20:41.000Z</time>
      </trkpt>
      <trkpt lat="44.01269" lon="2.59671">
        <ele>440</ele>
        <time>2021-10-31T08:20:42.000Z</time>
      </trkpt>
      <trkpt lat="44.0127" lon="2.59672">
        <ele>440</ele>
        <time>2021-10-31T08:20:43.000Z</time>
      </trkpt>
      <trkpt lat="44.0127" lon="2.59674">
        <ele>440</ele>
        <time>2021-10-31T08:20:44.000Z</time>
      </trkpt>
      <trkpt lat="44.0127" lon="2.59675">
        <ele>440</ele>
        <time>2021-10-31T08:20:45.000Z</time>
      </trkpt>
      <trkpt lat="44.01271" lon="2.59676">
        <ele>440</ele>
        <time>2021-10-31T08:20:46.000Z</time>
      </trkpt>
      <trkpt lat="44.01271" lon="2.59678">
        <ele>440</ele>
        <time>2021-10-31T08:20:47.000Z</time>
      </trkpt>
      <trkpt lat="44.01271" lon="2.59679">
        <ele>440</ele>
        <time>2021-10-31T08:20:48.000Z</time>
      </trkpt>
      <trkpt lat="44.01271" lon="2.59681">
        <ele>440</ele>
        <time>2021-10-31T08:20:49.000Z</time>
      </trkpt>
      <trkpt lat="44.01271" lon="2.59682">
        <ele>440</ele>
        <time>2021-10-31T08:20:50.000Z</time>
      </trkpt>
      <trkpt lat="44.01271" lon="2.59683">
        <ele>440</ele>
        <time>2021-10-31T08:20:51.000Z</time>
      </trkpt>
      <trkpt lat="44.01271" lon="2.59684">
        <ele>440</ele>
        <time>2021-10-31T08:20:52.000Z</time>
      </trkpt>
      <trkpt lat="44.01271" lon="2.59686">
        <ele>440</ele>
        <time>2021-10-31T08:20:53.000Z</time>
      </trkpt>
      <trkpt lat="44.01271" lon="2.59687">
        <ele>440</ele>
        <time>2021-10-31T08:20:54.000Z</time>
      </trkpt>
      <trkpt lat="44.0127" lon="2.59688">
        <ele>440</ele>
        <time>2021-10-31T08:20:55.000Z</time>
      </trkpt>
      <trkpt lat="44.0127" lon="2.59689">
        <ele>441</ele>
        <time>2021-10-31T08:20:56.000Z</time>
      </trkpt>
      <trkpt lat="44.0127" lon="2.59691">
        <ele>441</ele>
        <time>2021-10-31T08:20:57.000Z</time>
      </trkpt>
      <trkpt lat="44.0127" lon="2.59692">
        <ele>441</ele>
        <time>2021-10-31T08:20:58.000Z</time>
      </trkpt>
      <trkpt lat="44.0127" lon="2.59692">
        <ele>441</ele>
        <time>2021-10-31T08:20:59.000Z</time>
      </trkpt>
      <trkpt lat="44.0127" lon="2.59693">
        <ele>441</ele>
        <time>2021-10-31T08:21:00.000Z</time>
      </trkpt>
      <trkpt lat="44.0127" lon="2.59693">
        <ele>441</ele>
        <time>2021-10-31T08:21:01.000Z</time>
      </trkpt>
      <trkpt lat="44.0127" lon="2.59694">
        <ele>441</ele>
        <time>2021-10-31T08:21:02.000Z</time>
      </trkpt>
      <trkpt lat="44.01269" lon="2.59697">
        <ele>443</ele>
        <time>2021-10-31T08:21:03.000Z</time>
      </trkpt>
      <trkpt lat="44.01269" lon="2.59698">
        <ele>443</ele>
        <time>2021-10-31T08:21:04.000Z</time>
      </trkpt>
      <trkpt lat="44.0127" lon="2.59699">
        <ele>443</ele>
        <time>2021-10-31T08:21:05.000Z</time>
      </trkpt>
      <trkpt lat="44.0127" lon="2.59701">
        <ele>443</ele>
        <time>2021-10-31T08:21:06.000Z</time>
      </trkpt>
      <trkpt lat="44.0127" lon="2.59702">
        <ele>443</ele>
        <time>2021-10-31T08:21:07.000Z</time>
      </trkpt>
      <trkpt lat="44.0127" lon="2.59703">
        <ele>443</ele>
        <time>2021-10-31T08:21:08.000Z</time>
      </trkpt>
      <trkpt lat="44.0127" lon="2.59704">
        <ele>443</ele>
        <time>2021-10-31T08:21:09.000Z</time>
      </trkpt>
      <trkpt lat="44.01271" lon="2.59705">
        <ele>443</ele>
        <time>2021-10-31T08:21:10.000Z</time>
      </trkpt>
      <trkpt lat="44.01272" lon="2.59706">
        <ele>443</ele>
        <time>2021-10-31T08:21:11.000Z</time>
      </trkpt>
      <trkpt lat="44.01272" lon="2.59706">
        <ele>443</ele>
        <time>2021-10-31T08:21:12.000Z</time>
      </trkpt>
      <trkpt lat="44.01272" lon="2.59707">
        <ele>443</ele>
        <time>2021-10-31T08:21:13.000Z</time>
      </trkpt>
      <trkpt lat="44.01273" lon="2.59707">
        <ele>443</ele>
        <time>2021-10-31T08:21:14.000Z</time>
      </trkpt>
      <trkpt lat="44.01272" lon="2.59707">
        <ele>443</ele>
        <time>2021-10-31T08:21:15.000Z</time>
      </trkpt>
      <trkpt lat="44.01272" lon="2.59707">
        <ele>443</ele>
        <time>2021-10-31T08:21:16.000Z</time>
      </trkpt>
      <trkpt lat="44.01272" lon="2.5971">
        <ele>443</ele>
        <time>2021-10-31T08:21:17.000Z</time>
      </trkpt>
      <trkpt lat="44.01272" lon="2.59711">
        <ele>443</ele>
        <time>2021-10-31T08:21:18.000Z</time>
      </trkpt>
      <trkpt lat="44.01271" lon="2.59712">
        <ele>443</ele>
        <time>2021-10-31T08:21:19.000Z</time>
      </trkpt>
      <trkpt lat="44.01271" lon="2.59713">
        <ele>443</ele>
        <time>2021-10-31T08:21:20.000Z</time>
      </trkpt>
      <trkpt lat="44.01271" lon="2.59715">
        <ele>443</ele>
        <time>2021-10-31T08:21:21.000Z</time>
      </trkpt>
      <trkpt lat="44.01271" lon="2.59716">
        <ele>443</ele>
        <time>2021-10-31T08:21:22.000Z</time>
      </trkpt>
      <trkpt lat="44.01271" lon="2.59717">
        <ele>443</ele>
        <time>2021-10-31T08:21:23.000Z</time>
      </trkpt>
      <trkpt lat="44.01271" lon="2.59718">
        <ele>442</ele>
        <time>2021-10-31T08:21:24.000Z</time>
      </trkpt>
      <trkpt lat="44.01271" lon="2.5972">
        <ele>442</ele>
        <time>2021-10-31T08:21:25.000Z</time>
      </trkpt>
      <trkpt lat="44.01271" lon="2.59721">
        <ele>442</ele>
        <time>2021-10-31T08:21:26.000Z</time>
      </trkpt>
      <trkpt lat="44.01271" lon="2.59723">
        <ele>442</ele>
        <time>2021-10-31T08:21:27.000Z</time>
      </trkpt>
      <trkpt lat="44.01271" lon="2.59724">
        <ele>442</ele>
        <time>2021-10-31T08:21:28.000Z</time>
      </trkpt>
      <trkpt lat="44.01271" lon="2.59725">
        <ele>442</ele>
        <time>2021-10-31T08:21:29.000Z</time>
      </trkpt>
      <trkpt lat="44.01271" lon="2.59726">
        <ele>442</ele>
        <time>2021-10-31T08:21:30.000Z</time>
      </trkpt>
      <trkpt lat="44.01271" lon="2.59727">
        <ele>442</ele>
        <time>2021-10-31T08:21:31.000Z</time>
      </trkpt>
      <trkpt lat="44.01271" lon="2.59729">
        <ele>442</ele>
        <time>2021-10-31T08:21:32.000Z</time>
      </trkpt>
      <trkpt lat="44.01271" lon="2.5973">
        <ele>442</ele>
        <time>2021-10-31T08:21:33.000Z</time>
      </trkpt>
      <trkpt lat="44.01271" lon="2.59731">
        <ele>443</ele>
        <time>2021-10-31T08:21:34.000Z</time>
      </trkpt>
      <trkpt lat="44.01271" lon="2.59732">
        <ele>443</ele>
        <time>2021-10-31T08:21:35.000Z</time>
      </trkpt>
      <trkpt lat="44.01271" lon="2.59733">
        <ele>443</ele>
        <time>2021-10-31T08:21:36.000Z</time>
      </trkpt>
      <trkpt lat="44.01271" lon="2.59734">
        <ele>443</ele>
        <time>2021-10-31T08:21:37.000Z</time>
      </trkpt>
      <trkpt lat="44.01271" lon="2.59734">
        <ele>443</ele>
        <time>2021-10-31T08:21:38.000Z</time>
      </trkpt>
      <trkpt lat="44.01271" lon="2.59734">
        <ele>443</ele>
        <time>2021-10-31T08:21:39.000Z</time>
      </trkpt>
      <trkpt lat="44.01271" lon="2.59734">
        <ele>443</ele>
        <time>2021-10-31T08:21:40.000Z</time>
      </trkpt>
      <trkpt lat="44.0127" lon="2.59735">
        <ele>443</ele>
        <time>2021-10-31T08:21:41.000Z</time>
      </trkpt>
      <trkpt lat="44.0127" lon="2.59736">
        <ele>443</ele>
        <time>2021-10-31T08:21:42.000Z</time>
      </trkpt>
      <trkpt lat="44.0127" lon="2.59736">
        <ele>443</ele>
        <time>2021-10-31T08:21:43.000Z</time>
      </trkpt>
      <trkpt lat="44.0127" lon="2.59736">
        <ele>443</ele>
        <time>2021-10-31T08:21:44.000Z</time>
      </trkpt>
      <trkpt lat="44.0127" lon="2.59736">
        <ele>443</ele>
        <time>2021-10-31T08:21:45.000Z</time>
      </trkpt>
      <trkpt lat="44.01271" lon="2.59737">
        <ele>443</ele>
        <time>2021-10-31T08:21:46.000Z</time>
      </trkpt>
      <trkpt lat="44.01272" lon="2.59738">
        <ele>443</ele>
        <time>2021-10-31T08:21:47.000Z</time>
      </trkpt>
      <trkpt lat="44.01273" lon="2.59738">
        <ele>443</ele>
        <time>2021-10-31T08:21:48.000Z</time>
      </trkpt>
      <trkpt lat="44.01274" lon="2.59739">
        <ele>443</ele>
        <time>2021-10-31T08:21:49.000Z</time>
      </trkpt>
      <trkpt lat="44.01274" lon="2.59741">
        <ele>443</ele>
        <time>2021-10-31T08:21:50.000Z</time>
      </trkpt>
      <trkpt lat="44.01275" lon="2.59742">
        <ele>443</ele>
        <time>2021-10-31T08:21:51.000Z</time>
      </trkpt>
      <trkpt lat="44.01275" lon="2.59743">
        <ele>443</ele>
        <time>2021-10-31T08:21:52.000Z</time>
      </trkpt>
      <trkpt lat="44.01276" lon="2.59744">
        <ele>443</ele>
        <time>2021-10-31T08:21:53.000Z</time>
      </trkpt>
      <trkpt lat="44.01276" lon="2.59746">
        <ele>443</ele>
        <time>2021-10-31T08:21:54.000Z</time>
      </trkpt>
      <trkpt lat="44.01277" lon="2.59747">
        <ele>443</ele>
        <time>2021-10-31T08:21:55.000Z</time>
      </trkpt>
      <trkpt lat="44.01277" lon="2.59748">
        <ele>443</ele>
        <time>2021-10-31T08:21:56.000Z</time>
      </trkpt>
      <trkpt lat="44.01277" lon="2.59748">
        <ele>443</ele>
        <time>2021-10-31T08:21:57.000Z</time>
      </trkpt>
      <trkpt lat="44.01277" lon="2.59748">
        <ele>443</ele>
        <time>2021-10-31T08:21:58.000Z</time>
      </trkpt>
      <trkpt lat="44.01277" lon="2.59748">
        <ele>443</ele>
        <time>2021-10-31T08:21:59.000Z</time>
      </trkpt>
      <trkpt lat="44.01277" lon="2.59748">
        <ele>443</ele>
        <time>2021-10-31T08:22:00.000Z</time>
      </trkpt>
      <trkpt lat="44.01276" lon="2.59747">
        <ele>442</ele>
        <time>2021-10-31T08:22:01.000Z</time>
      </trkpt>
      <trkpt lat="44.01277" lon="2.59748">
        <ele>442</ele>
        <time>2021-10-31T08:22:02.000Z</time>
      </trkpt>
      <trkpt lat="44.01278" lon="2.59749">
        <ele>442</ele>
        <time>2021-10-31T08:22:03.000Z</time>
      </trkpt>
      <trkpt lat="44.01278" lon="2.5975">
        <ele>442</ele>
        <time>2021-10-31T08:22:04.000Z</time>
      </trkpt>
      <trkpt lat="44.01279" lon="2.59752">
        <ele>442</ele>
        <time>2021-10-31T08:22:05.000Z</time>
      </trkpt>
      <trkpt lat="44.0128" lon="2.59753">
        <ele>442</ele>
        <time>2021-10-31T08:22:06.000Z</time>
      </trkpt>
      <trkpt lat="44.01281" lon="2.59754">
        <ele>442</ele>
        <time>2021-10-31T08:22:07.000Z</time>
      </trkpt>
      <trkpt lat="44.01281" lon="2.59756">
        <ele>443</ele>
        <time>2021-10-31T08:22:08.000Z</time>
      </trkpt>
      <trkpt lat="44.01282" lon="2.59757">
        <ele>443</ele>
        <time>2021-10-31T08:22:09.000Z</time>
      </trkpt>
      <trkpt lat="44.01283" lon="2.59758">
        <ele>443</ele>
        <time>2021-10-31T08:22:10.000Z</time>
      </trkpt>
      <trkpt lat="44.01284" lon="2.5976">
        <ele>443</ele>
        <time>2021-10-31T08:22:11.000Z</time>
      </trkpt>
      <trkpt lat="44.01285" lon="2.59761">
        <ele>443</ele>
        <time>2021-10-31T08:22:12.000Z</time>
      </trkpt>
      <trkpt lat="44.01286" lon="2.59763">
        <ele>443</ele>
        <time>2021-10-31T08:22:13.000Z</time>
      </trkpt>
      <trkpt lat="44.01287" lon="2.59764">
        <ele>443</ele>
        <time>2021-10-31T08:22:14.000Z</time>
      </trkpt>
      <trkpt lat="44.01288" lon="2.59766">
        <ele>443</ele>
        <time>2021-10-31T08:22:15.000Z</time>
      </trkpt>
      <trkpt lat="44.01289" lon="2.59767">
        <ele>443</ele>
        <time>2021-10-31T08:22:16.000Z</time>
      </trkpt>
      <trkpt lat="44.0129" lon="2.59768">
        <ele>443</ele>
        <time>2021-10-31T08:22:17.000Z</time>
      </trkpt>
      <trkpt lat="44.01291" lon="2.5977">
        <ele>443</ele>
        <time>2021-10-31T08:22:18.000Z</time>
      </trkpt>
      <trkpt lat="44.01292" lon="2.59771">
        <ele>443</ele>
        <time>2021-10-31T08:22:19.000Z</time>
      </trkpt>
      <trkpt lat="44.01293" lon="2.59773">
        <ele>443</ele>
        <time>2021-10-31T08:22:20.000Z</time>
      </trkpt>
      <trkpt lat="44.01293" lon="2.59774">
        <ele>443</ele>
        <time>2021-10-31T08:22:21.000Z</time>
      </trkpt>
      <trkpt lat="44.01294" lon="2.59776">
        <ele>443</ele>
        <time>2021-10-31T08:22:22.000Z</time>
      </trkpt>
      <trkpt lat="44.01295" lon="2.59777">
        <ele>443</ele>
        <time>2021-10-31T08:22:23.000Z</time>
      </trkpt>
      <trkpt lat="44.01295" lon="2.59779">
        <ele>442</ele>
        <time>2021-10-31T08:22:24.000Z</time>
      </trkpt>
      <trkpt lat="44.01296" lon="2.5978">
        <ele>442</ele>
        <time>2021-10-31T08:22:25.000Z</time>
      </trkpt>
      <trkpt lat="44.01297" lon="2.59781">
        <ele>442</ele>
        <time>2021-10-31T08:22:26.000Z</time>
      </trkpt>
      <trkpt lat="44.01298" lon="2.59783">
        <ele>442</ele>
        <time>2021-10-31T08:22:27.000Z</time>
      </trkpt>
      <trkpt lat="44.01299" lon="2.59784">
        <ele>442</ele>
        <time>2021-10-31T08:22:28.000Z</time>
      </trkpt>
      <trkpt lat="44.013" lon="2.59785">
        <ele>442</ele>
        <time>2021-10-31T08:22:29.000Z</time>
      </trkpt>
      <trkpt lat="44.01301" lon="2.59787">
        <ele>442</ele>
        <time>2021-10-31T08:22:30.000Z</time>
      </trkpt>
      <trkpt lat="44.01302" lon="2.59788">
        <ele>442</ele>
        <time>2021-10-31T08:22:31.000Z</time>
      </trkpt>
      <trkpt lat="44.01303" lon="2.59789">
        <ele>442</ele>
        <time>2021-10-31T08:22:32.000Z</time>
      </trkpt>
      <trkpt lat="44.01304" lon="2.5979">
        <ele>442</ele>
        <time>2021-10-31T08:22:33.000Z</time>
      </trkpt>
      <trkpt lat="44.01305" lon="2.59791">
        <ele>442</ele>
        <time>2021-10-31T08:22:34.000Z</time>
      </trkpt>
      <trkpt lat="44.01306" lon="2.59793">
        <ele>442</ele>
        <time>2021-10-31T08:22:35.000Z</time>
      </trkpt>
      <trkpt lat="44.01307" lon="2.59794">
        <ele>442</ele>
        <time>2021-10-31T08:22:36.000Z</time>
      </trkpt>
      <trkpt lat="44.01308" lon="2.59795">
        <ele>442</ele>
        <time>2021-10-31T08:22:37.000Z</time>
      </trkpt>
      <trkpt lat="44.01309" lon="2.59796">
        <ele>442</ele>
        <time>2021-10-31T08:22:38.000Z</time>
      </trkpt>
      <trkpt lat="44.0131" lon="2.59798">
        <ele>442</ele>
        <time>2021-10-31T08:22:39.000Z</time>
      </trkpt>
      <trkpt lat="44.01311" lon="2.59799">
        <ele>442</ele>
        <time>2021-10-31T08:22:40.000Z</time>
      </trkpt>
      <trkpt lat="44.01312" lon="2.598">
        <ele>442</ele>
        <time>2021-10-31T08:22:41.000Z</time>
      </trkpt>
      <trkpt lat="44.01313" lon="2.59801">
        <ele>442</ele>
        <time>2021-10-31T08:22:42.000Z</time>
      </trkpt>
      <trkpt lat="44.01314" lon="2.59802">
        <ele>442</ele>
        <time>2021-10-31T08:22:43.000Z</time>
      </trkpt>
      <trkpt lat="44.01315" lon="2.59803">
        <ele>441</ele>
        <time>2021-10-31T08:22:44.000Z</time>
      </trkpt>
      <trkpt lat="44.01316" lon="2.59804">
        <ele>441</ele>
        <time>2021-10-31T08:22:45.000Z</time>
      </trkpt>
      <trkpt lat="44.01317" lon="2.59805">
        <ele>441</ele>
        <time>2021-10-31T08:22:46.000Z</time>
      </trkpt>
      <trkpt lat="44.01319" lon="2.59806">
        <ele>441</ele>
        <time>2021-10-31T08:22:47.000Z</time>
      </trkpt>
      <trkpt lat="44.0132" lon="2.59807">
        <ele>441</ele>
        <time>2021-10-31T08:22:48.000Z</time>
      </trkpt>
      <trkpt lat="44.01321" lon="2.59808">
        <ele>441</ele>
        <time>2021-10-31T08:22:49.000Z</time>
      </trkpt>
      <trkpt lat="44.01322" lon="2.59809">
        <ele>441</ele>
        <time>2021-10-31T08:22:50.000Z</time>
      </trkpt>
      <trkpt lat="44.01323" lon="2.5981">
        <ele>441</ele>
        <time>2021-10-31T08:22:51.000Z</time>
      </trkpt>
      <trkpt lat="44.01324" lon="2.59811">
        <ele>441</ele>
        <time>2021-10-31T08:22:52.000Z</time>
      </trkpt>
      <trkpt lat="44.01325" lon="2.59812">
        <ele>441</ele>
        <time>2021-10-31T08:22:53.000Z</time>
      </trkpt>
      <trkpt lat="44.01326" lon="2.59813">
        <ele>441</ele>
        <time>2021-10-31T08:22:54.000Z</time>
      </trkpt>
      <trkpt lat="44.01327" lon="2.59814">
        <ele>441</ele>
        <time>2021-10-31T08:22:55.000Z</time>
      </trkpt>
      <trkpt lat="44.01328" lon="2.59815">
        <ele>441</ele>
        <time>2021-10-31T08:22:56.000Z</time>
      </trkpt>
      <trkpt lat="44.01329" lon="2.59816">
        <ele>441</ele>
        <time>2021-10-31T08:22:57.000Z</time>
      </trkpt>
      <trkpt lat="44.0133" lon="2.59818">
        <ele>441</ele>
        <time>2021-10-31T08:22:58.000Z</time>
      </trkpt>
      <trkpt lat="44.01331" lon="2.59818">
        <ele>441</ele>
        <time>2021-10-31T08:22:59.000Z</time>
      </trkpt>
      <trkpt lat="44.01331" lon="2.59819">
        <ele>441</ele>
        <time>2021-10-31T08:23:00.000Z</time>
      </trkpt>
      <trkpt lat="44.01332" lon="2.5982">
        <ele>441</ele>
        <time>2021-10-31T08:23:01.000Z</time>
      </trkpt>
      <trkpt lat="44.01333" lon="2.59821">
        <ele>441</ele>
        <time>2021-10-31T08:23:02.000Z</time>
      </trkpt>
      <trkpt lat="44.01333" lon="2.59822">
        <ele>441</ele>
        <time>2021-10-31T08:23:03.000Z</time>
      </trkpt>
      <trkpt lat="44.01334" lon="2.59823">
        <ele>441</ele>
        <time>2021-10-31T08:23:04.000Z</time>
      </trkpt>
      <trkpt lat="44.01334" lon="2.59823">
        <ele>441</ele>
        <time>2021-10-31T08:23:05.000Z</time>
      </trkpt>
      <trkpt lat="44.01334" lon="2.59823">
        <ele>441</ele>
        <time>2021-10-31T08:23:06.000Z</time>
      </trkpt>
      <trkpt lat="44.01334" lon="2.59823">
        <ele>441</ele>
        <time>2021-10-31T08:23:07.000Z</time>
      </trkpt>
      <trkpt lat="44.01334" lon="2.59824">
        <ele>441</ele>
        <time>2021-10-31T08:23:08.000Z</time>
      </trkpt>
      <trkpt lat="44.01335" lon="2.59825">
        <ele>441</ele>
        <time>2021-10-31T08:23:09.000Z</time>
      </trkpt>
      <trkpt lat="44.01336" lon="2.59825">
        <ele>441</ele>
        <time>2021-10-31T08:23:10.000Z</time>
      </trkpt>
      <trkpt lat="44.01337" lon="2.59826">
        <ele>441</ele>
        <time>2021-10-31T08:23:11.000Z</time>
      </trkpt>
      <trkpt lat="44.01337" lon="2.59826">
        <ele>441</ele>
        <time>2021-10-31T08:23:12.000Z</time>
      </trkpt>
      <trkpt lat="44.01338" lon="2.59827">
        <ele>441</ele>
        <time>2021-10-31T08:23:13.000Z</time>
      </trkpt>
      <trkpt lat="44.01339" lon="2.59827">
        <ele>441</ele>
        <time>2021-10-31T08:23:14.000Z</time>
      </trkpt>
      <trkpt lat="44.0134" lon="2.59828">
        <ele>442</ele>
        <time>2021-10-31T08:23:15.000Z</time>
      </trkpt>
      <trkpt lat="44.01341" lon="2.59828">
        <ele>442</ele>
        <time>2021-10-31T08:23:16.000Z</time>
      </trkpt>
      <trkpt lat="44.01341" lon="2.59828">
        <ele>442</ele>
        <time>2021-10-31T08:23:17.000Z</time>
      </trkpt>
      <trkpt lat="44.01342" lon="2.59828">
        <ele>442</ele>
        <time>2021-10-31T08:23:18.000Z</time>
      </trkpt>
      <trkpt lat="44.01343" lon="2.59828">
        <ele>442</ele>
        <time>2021-10-31T08:23:19.000Z</time>
      </trkpt>
      <trkpt lat="44.01344" lon="2.59829">
        <ele>442</ele>
        <time>2021-10-31T08:23:20.000Z</time>
      </trkpt>
      <trkpt lat="44.01345" lon="2.59829">
        <ele>442</ele>
        <time>2021-10-31T08:23:21.000Z</time>
      </trkpt>
      <trkpt lat="44.01345" lon="2.59829">
        <ele>442</ele>
        <time>2021-10-31T08:23:22.000Z</time>
      </trkpt>
      <trkpt lat="44.01346" lon="2.59829">
        <ele>443</ele>
        <time>2021-10-31T08:23:23.000Z</time>
      </trkpt>
      <trkpt lat="44.01347" lon="2.59829">
        <ele>443</ele>
        <time>2021-10-31T08:23:24.000Z</time>
      </trkpt>
      <trkpt lat="44.01348" lon="2.5983">
        <ele>443</ele>
        <time>2021-10-31T08:23:25.000Z</time>
      </trkpt>
      <trkpt lat="44.01349" lon="2.5983">
        <ele>443</ele>
        <time>2021-10-31T08:23:26.000Z</time>
      </trkpt>
      <trkpt lat="44.0135" lon="2.5983">
        <ele>443</ele>
        <time>2021-10-31T08:23:27.000Z</time>
      </trkpt>
      <trkpt lat="44.01351" lon="2.5983">
        <ele>443</ele>
        <time>2021-10-31T08:23:28.000Z</time>
      </trkpt>
      <trkpt lat="44.01352" lon="2.5983">
        <ele>444</ele>
        <time>2021-10-31T08:23:29.000Z</time>
      </trkpt>
      <trkpt lat="44.01353" lon="2.59831">
        <ele>444</ele>
        <time>2021-10-31T08:23:30.000Z</time>
      </trkpt>
      <trkpt lat="44.01353" lon="2.59832">
        <ele>444</ele>
        <time>2021-10-31T08:23:31.000Z</time>
      </trkpt>
      <trkpt lat="44.01354" lon="2.59832">
        <ele>444</ele>
        <time>2021-10-31T08:23:32.000Z</time>
      </trkpt>
      <trkpt lat="44.01355" lon="2.59833">
        <ele>444</ele>
        <time>2021-10-31T08:23:33.000Z</time>
      </trkpt>
      <trkpt lat="44.01356" lon="2.59833">
        <ele>444</ele>
        <time>2021-10-31T08:23:34.000Z</time>
      </trkpt>
      <trkpt lat="44.01357" lon="2.59834">
        <ele>444</ele>
        <time>2021-10-31T08:23:35.000Z</time>
      </trkpt>
      <trkpt lat="44.01358" lon="2.59835">
        <ele>445</ele>
        <time>2021-10-31T08:23:36.000Z</time>
      </trkpt>
      <trkpt lat="44.01359" lon="2.59835">
        <ele>445</ele>
        <time>2021-10-31T08:23:37.000Z</time>
      </trkpt>
      <trkpt lat="44.0136" lon="2.59836">
        <ele>445</ele>
        <time>2021-10-31T08:23:38.000Z</time>
      </trkpt>
      <trkpt lat="44.01361" lon="2.59837">
        <ele>445</ele>
        <time>2021-10-31T08:23:39.000Z</time>
      </trkpt>
      <trkpt lat="44.01361" lon="2.59837">
        <ele>445</ele>
        <time>2021-10-31T08:23:40.000Z</time>
      </trkpt>
      <trkpt lat="44.01362" lon="2.59838">
        <ele>445</ele>
        <time>2021-10-31T08:23:41.000Z</time>
      </trkpt>
      <trkpt lat="44.01363" lon="2.59838">
        <ele>445</ele>
        <time>2021-10-31T08:23:42.000Z</time>
      </trkpt>
      <trkpt lat="44.01363" lon="2.59838">
        <ele>445</ele>
        <time>2021-10-31T08:23:43.000Z</time>
      </trkpt>
      <trkpt lat="44.01364" lon="2.59839">
        <ele>445</ele>
        <time>2021-10-31T08:23:44.000Z</time>
      </trkpt>
      <trkpt lat="44.01365" lon="2.5984">
        <ele>445</ele>
        <time>2021-10-31T08:23:45.000Z</time>
      </trkpt>
      <trkpt lat="44.01366" lon="2.5984">
        <ele>446</ele>
        <time>2021-10-31T08:23:46.000Z</time>
      </trkpt>
      <trkpt lat="44.01367" lon="2.59841">
        <ele>446</ele>
        <time>2021-10-31T08:23:47.000Z</time>
      </trkpt>
      <trkpt lat="44.01367" lon="2.59841">
        <ele>446</ele>
        <time>2021-10-31T08:23:48.000Z</time>
      </trkpt>
      <trkpt lat="44.01368" lon="2.59841">
        <ele>446</ele>
        <time>2021-10-31T08:23:49.000Z</time>
      </trkpt>
      <trkpt lat="44.01369" lon="2.59842">
        <ele>446</ele>
        <time>2021-10-31T08:23:50.000Z</time>
      </trkpt>
      <trkpt lat="44.0137" lon="2.59842">
        <ele>446</ele>
        <time>2021-10-31T08:23:51.000Z</time>
      </trkpt>
      <trkpt lat="44.0137" lon="2.59843">
        <ele>446</ele>
        <time>2021-10-31T08:23:52.000Z</time>
      </trkpt>
      <trkpt lat="44.01371" lon="2.59844">
        <ele>446</ele>
        <time>2021-10-31T08:23:53.000Z</time>
      </trkpt>
      <trkpt lat="44.01372" lon="2.59844">
        <ele>446</ele>
        <time>2021-10-31T08:23:54.000Z</time>
      </trkpt>
      <trkpt lat="44.01373" lon="2.59845">
        <ele>446</ele>
        <time>2021-10-31T08:23:55.000Z</time>
      </trkpt>
      <trkpt lat="44.01374" lon="2.59846">
        <ele>446</ele>
        <time>2021-10-31T08:23:56.000Z</time>
      </trkpt>
      <trkpt lat="44.01375" lon="2.59846">
        <ele>446</ele>
        <time>2021-10-31T08:23:57.000Z</time>
      </trkpt>
      <trkpt lat="44.01376" lon="2.59846">
        <ele>446</ele>
        <time>2021-10-31T08:23:58.000Z</time>
      </trkpt>
      <trkpt lat="44.01377" lon="2.59846">
        <ele>446</ele>
        <time>2021-10-31T08:23:59.000Z</time>
      </trkpt>
      <trkpt lat="44.01378" lon="2.59847">
        <ele>446</ele>
        <time>2021-10-31T08:24:00.000Z</time>
      </trkpt>
      <trkpt lat="44.01379" lon="2.59848">
        <ele>446</ele>
        <time>2021-10-31T08:24:01.000Z</time>
      </trkpt>
      <trkpt lat="44.0138" lon="2.59848">
        <ele>446</ele>
        <time>2021-10-31T08:24:02.000Z</time>
      </trkpt>
      <trkpt lat="44.01381" lon="2.59849">
        <ele>446</ele>
        <time>2021-10-31T08:24:03.000Z</time>
      </trkpt>
      <trkpt lat="44.01382" lon="2.59849">
        <ele>446</ele>
        <time>2021-10-31T08:24:04.000Z</time>
      </trkpt>
      <trkpt lat="44.01383" lon="2.59849">
        <ele>446</ele>
        <time>2021-10-31T08:24:05.000Z</time>
      </trkpt>
      <trkpt lat="44.01384" lon="2.59849">
        <ele>446</ele>
        <time>2021-10-31T08:24:06.000Z</time>
      </trkpt>
      <trkpt lat="44.01385" lon="2.5985">
        <ele>446</ele>
        <time>2021-10-31T08:24:07.000Z</time>
      </trkpt>
      <trkpt lat="44.01386" lon="2.5985">
        <ele>446</ele>
        <time>2021-10-31T08:24:08.000Z</time>
      </trkpt>
      <trkpt lat="44.01387" lon="2.5985">
        <ele>446</ele>
        <time>2021-10-31T08:24:09.000Z</time>
      </trkpt>
      <trkpt lat="44.01388" lon="2.59851">
        <ele>447</ele>
        <time>2021-10-31T08:24:10.000Z</time>
      </trkpt>
      <trkpt lat="44.01388" lon="2.59851">
        <ele>447</ele>
        <time>2021-10-31T08:24:11.000Z</time>
      </trkpt>
      <trkpt lat="44.01389" lon="2.59851">
        <ele>447</ele>
        <time>2021-10-31T08:24:12.000Z</time>
      </trkpt>
      <trkpt lat="44.0139" lon="2.59851">
        <ele>447</ele>
        <time>2021-10-31T08:24:13.000Z</time>
      </trkpt>
      <trkpt lat="44.01391" lon="2.5985">
        <ele>447</ele>
        <time>2021-10-31T08:24:14.000Z</time>
      </trkpt>
      <trkpt lat="44.01392" lon="2.5985">
        <ele>447</ele>
        <time>2021-10-31T08:24:15.000Z</time>
      </trkpt>
      <trkpt lat="44.01393" lon="2.5985">
        <ele>447</ele>
        <time>2021-10-31T08:24:16.000Z</time>
      </trkpt>
      <trkpt lat="44.01394" lon="2.5985">
        <ele>447</ele>
        <time>2021-10-31T08:24:17.000Z</time>
      </trkpt>
      <trkpt lat="44.01395" lon="2.5985">
        <ele>447</ele>
        <time>2021-10-31T08:24:18.000Z</time>
      </trkpt>
      <trkpt lat="44.01396" lon="2.5985">
        <ele>447</ele>
        <time>2021-10-31T08:24:19.000Z</time>
      </trkpt>
      <trkpt lat="44.01397" lon="2.5985">
        <ele>447</ele>
        <time>2021-10-31T08:24:20.000Z</time>
      </trkpt>
      <trkpt lat="44.01398" lon="2.59851">
        <ele>447</ele>
        <time>2021-10-31T08:24:21.000Z</time>
      </trkpt>
      <trkpt lat="44.01399" lon="2.59851">
        <ele>447</ele>
        <time>2021-10-31T08:24:22.000Z</time>
      </trkpt>
      <trkpt lat="44.014" lon="2.59851">
        <ele>447</ele>
        <time>2021-10-31T08:24:23.000Z</time>
      </trkpt>
      <trkpt lat="44.01401" lon="2.59852">
        <ele>448</ele>
        <time>2021-10-31T08:24:24.000Z</time>
      </trkpt>
      <trkpt lat="44.01402" lon="2.59853">
        <ele>448</ele>
        <time>2021-10-31T08:24:25.000Z</time>
      </trkpt>
      <trkpt lat="44.01402" lon="2.59854">
        <ele>448</ele>
        <time>2021-10-31T08:24:26.000Z</time>
      </trkpt>
      <trkpt lat="44.01403" lon="2.59854">
        <ele>448</ele>
        <time>2021-10-31T08:24:27.000Z</time>
      </trkpt>
      <trkpt lat="44.01404" lon="2.59855">
        <ele>448</ele>
        <time>2021-10-31T08:24:28.000Z</time>
      </trkpt>
      <trkpt lat="44.01404" lon="2.59855">
        <ele>448</ele>
        <time>2021-10-31T08:24:29.000Z</time>
      </trkpt>
      <trkpt lat="44.01405" lon="2.59856">
        <ele>448</ele>
        <time>2021-10-31T08:24:30.000Z</time>
      </trkpt>
      <trkpt lat="44.01406" lon="2.59856">
        <ele>449</ele>
        <time>2021-10-31T08:24:31.000Z</time>
      </trkpt>
      <trkpt lat="44.01406" lon="2.59857">
        <ele>449</ele>
        <time>2021-10-31T08:24:32.000Z</time>
      </trkpt>
      <trkpt lat="44.01407" lon="2.59857">
        <ele>449</ele>
        <time>2021-10-31T08:24:33.000Z</time>
      </trkpt>
      <trkpt lat="44.01408" lon="2.59857">
        <ele>449</ele>
        <time>2021-10-31T08:24:34.000Z</time>
      </trkpt>
      <trkpt lat="44.01409" lon="2.59858">
        <ele>449</ele>
        <time>2021-10-31T08:24:35.000Z</time>
      </trkpt>
      <trkpt lat="44.0141" lon="2.59859">
        <ele>449</ele>
        <time>2021-10-31T08:24:36.000Z</time>
      </trkpt>
      <trkpt lat="44.01411" lon="2.59859">
        <ele>449</ele>
        <time>2021-10-31T08:24:37.000Z</time>
      </trkpt>
      <trkpt lat="44.01411" lon="2.59859">
        <ele>449</ele>
        <time>2021-10-31T08:24:38.000Z</time>
      </trkpt>
      <trkpt lat="44.01412" lon="2.5986">
        <ele>449</ele>
        <time>2021-10-31T08:24:39.000Z</time>
      </trkpt>
      <trkpt lat="44.01413" lon="2.5986">
        <ele>449</ele>
        <time>2021-10-31T08:24:40.000Z</time>
      </trkpt>
      <trkpt lat="44.01414" lon="2.59861">
        <ele>449</ele>
        <time>2021-10-31T08:24:41.000Z</time>
      </trkpt>
      <trkpt lat="44.01415" lon="2.59861">
        <ele>449</ele>
        <time>2021-10-31T08:24:42.000Z</time>
      </trkpt>
      <trkpt lat="44.01416" lon="2.59861">
        <ele>449</ele>
        <time>2021-10-31T08:24:43.000Z</time>
      </trkpt>
      <trkpt lat="44.01416" lon="2.59862">
        <ele>449</ele>
        <time>2021-10-31T08:24:44.000Z</time>
      </trkpt>
      <trkpt lat="44.01417" lon="2.59862">
        <ele>449</ele>
        <time>2021-10-31T08:24:45.000Z</time>
      </trkpt>
      <trkpt lat="44.01418" lon="2.59862">
        <ele>449</ele>
        <time>2021-10-31T08:24:46.000Z</time>
      </trkpt>
      <trkpt lat="44.01419" lon="2.59862">
        <ele>449</ele>
        <time>2021-10-31T08:24:47.000Z</time>
      </trkpt>
      <trkpt lat="44.0142" lon="2.59863">
        <ele>449</ele>
        <time>2021-10-31T08:24:48.000Z</time>
      </trkpt>
      <trkpt lat="44.01421" lon="2.59863">
        <ele>449</ele>
        <time>2021-10-31T08:24:49.000Z</time>
      </trkpt>
      <trkpt lat="44.01422" lon="2.59864">
        <ele>449</ele>
        <time>2021-10-31T08:24:50.000Z</time>
      </trkpt>
      <trkpt lat="44.01423" lon="2.59864">
        <ele>449</ele>
        <time>2021-10-31T08:24:51.000Z</time>
      </trkpt>
      <trkpt lat="44.01424" lon="2.59864">
        <ele>450</ele>
        <time>2021-10-31T08:24:52.000Z</time>
      </trkpt>
      <trkpt lat="44.01424" lon="2.59865">
        <ele>450</ele>
        <time>2021-10-31T08:24:53.000Z</time>
      </trkpt>
      <trkpt lat="44.01425" lon="2.59865">
        <ele>450</ele>
        <time>2021-10-31T08:24:54.000Z</time>
      </trkpt>
      <trkpt lat="44.01426" lon="2.59866">
        <ele>450</ele>
        <time>2021-10-31T08:24:55.000Z</time>
      </trkpt>
      <trkpt lat="44.01427" lon="2.59866">
        <ele>450</ele>
        <time>2021-10-31T08:24:56.000Z</time>
      </trkpt>
      <trkpt lat="44.01427" lon="2.59867">
        <ele>450</ele>
        <time>2021-10-31T08:24:57.000Z</time>
      </trkpt>
      <trkpt lat="44.01428" lon="2.59867">
        <ele>451</ele>
        <time>2021-10-31T08:24:58.000Z</time>
      </trkpt>
      <trkpt lat="44.01429" lon="2.59867">
        <ele>451</ele>
        <time>2021-10-31T08:24:59.000Z</time>
      </trkpt>
      <trkpt lat="44.01429" lon="2.59867">
        <ele>451</ele>
        <time>2021-10-31T08:25:00.000Z</time>
      </trkpt>
      <trkpt lat="44.0143" lon="2.59867">
        <ele>451</ele>
        <time>2021-10-31T08:25:01.000Z</time>
      </trkpt>
      <trkpt lat="44.0143" lon="2.59867">
        <ele>451</ele>
        <time>2021-10-31T08:25:02.000Z</time>
      </trkpt>
      <trkpt lat="44.01431" lon="2.59867">
        <ele>451</ele>
        <time>2021-10-31T08:25:03.000Z</time>
      </trkpt>
      <trkpt lat="44.01431" lon="2.59868">
        <ele>451</ele>
        <time>2021-10-31T08:25:04.000Z</time>
      </trkpt>
      <trkpt lat="44.01432" lon="2.59868">
        <ele>451</ele>
        <time>2021-10-31T08:25:05.000Z</time>
      </trkpt>
      <trkpt lat="44.01433" lon="2.59868">
        <ele>452</ele>
        <time>2021-10-31T08:25:06.000Z</time>
      </trkpt>
      <trkpt lat="44.01433" lon="2.59868">
        <ele>452</ele>
        <time>2021-10-31T08:25:07.000Z</time>
      </trkpt>
      <trkpt lat="44.01434" lon="2.59868">
        <ele>452</ele>
        <time>2021-10-31T08:25:08.000Z</time>
      </trkpt>
      <trkpt lat="44.01435" lon="2.59868">
        <ele>452</ele>
        <time>2021-10-31T08:25:09.000Z</time>
      </trkpt>
      <trkpt lat="44.01436" lon="2.59868">
        <ele>452</ele>
        <time>2021-10-31T08:25:10.000Z</time>
      </trkpt>
      <trkpt lat="44.01437" lon="2.59868">
        <ele>452</ele>
        <time>2021-10-31T08:25:11.000Z</time>
      </trkpt>
      <trkpt lat="44.01438" lon="2.59868">
        <ele>452</ele>
        <time>2021-10-31T08:25:12.000Z</time>
      </trkpt>
      <trkpt lat="44.0144" lon="2.59868">
        <ele>452</ele>
        <time>2021-10-31T08:25:13.000Z</time>
      </trkpt>
      <trkpt lat="44.01441" lon="2.59868">
        <ele>452</ele>
        <time>2021-10-31T08:25:14.000Z</time>
      </trkpt>
      <trkpt lat="44.01442" lon="2.59868">
        <ele>452</ele>
        <time>2021-10-31T08:25:15.000Z</time>
      </trkpt>
      <trkpt lat="44.01443" lon="2.59868">
        <ele>452</ele>
        <time>2021-10-31T08:25:16.000Z</time>
      </trkpt>
      <trkpt lat="44.01444" lon="2.59868">
        <ele>452</ele>
        <time>2021-10-31T08:25:17.000Z</time>
      </trkpt>
      <trkpt lat="44.01445" lon="2.59868">
        <ele>453</ele>
        <time>2021-10-31T08:25:18.000Z</time>
      </trkpt>
      <trkpt lat="44.01446" lon="2.59868">
        <ele>453</ele>
        <time>2021-10-31T08:25:19.000Z</time>
      </trkpt>
      <trkpt lat="44.01446" lon="2.59868">
        <ele>453</ele>
        <time>2021-10-31T08:25:20.000Z</time>
      </trkpt>
      <trkpt lat="44.01447" lon="2.59869">
        <ele>453</ele>
        <time>2021-10-31T08:25:21.000Z</time>
      </trkpt>
      <trkpt lat="44.01448" lon="2.59869">
        <ele>453</ele>
        <time>2021-10-31T08:25:22.000Z</time>
      </trkpt>
      <trkpt lat="44.01449" lon="2.59869">
        <ele>454</ele>
        <time>2021-10-31T08:25:23.000Z</time>
      </trkpt>
      <trkpt lat="44.01449" lon="2.59869">
        <ele>454</ele>
        <time>2021-10-31T08:25:24.000Z</time>
      </trkpt>
      <trkpt lat="44.0145" lon="2.59869">
        <ele>454</ele>
        <time>2021-10-31T08:25:25.000Z</time>
      </trkpt>
      <trkpt lat="44.01451" lon="2.59869">
        <ele>454</ele>
        <time>2021-10-31T08:25:26.000Z</time>
      </trkpt>
      <trkpt lat="44.01452" lon="2.59869">
        <ele>454</ele>
        <time>2021-10-31T08:25:27.000Z</time>
      </trkpt>
      <trkpt lat="44.01453" lon="2.59869">
        <ele>454</ele>
        <time>2021-10-31T08:25:28.000Z</time>
      </trkpt>
      <trkpt lat="44.01454" lon="2.59869">
        <ele>454</ele>
        <time>2021-10-31T08:25:29.000Z</time>
      </trkpt>
      <trkpt lat="44.01455" lon="2.59869">
        <ele>454</ele>
        <time>2021-10-31T08:25:30.000Z</time>
      </trkpt>
      <trkpt lat="44.01456" lon="2.59869">
        <ele>455</ele>
        <time>2021-10-31T08:25:31.000Z</time>
      </trkpt>
      <trkpt lat="44.01457" lon="2.59869">
        <ele>455</ele>
        <time>2021-10-31T08:25:32.000Z</time>
      </trkpt>
      <trkpt lat="44.01457" lon="2.5987">
        <ele>455</ele>
        <time>2021-10-31T08:25:33.000Z</time>
      </trkpt>
      <trkpt lat="44.01458" lon="2.5987">
        <ele>455</ele>
        <time>2021-10-31T08:25:34.000Z</time>
      </trkpt>
      <trkpt lat="44.01459" lon="2.5987">
        <ele>455</ele>
        <time>2021-10-31T08:25:35.000Z</time>
      </trkpt>
      <trkpt lat="44.0146" lon="2.5987">
        <ele>455</ele>
        <time>2021-10-31T08:25:36.000Z</time>
      </trkpt>
      <trkpt lat="44.01461" lon="2.5987">
        <ele>455</ele>
        <time>2021-10-31T08:25:37.000Z</time>
      </trkpt>
      <trkpt lat="44.01462" lon="2.5987">
        <ele>456</ele>
        <time>2021-10-31T08:25:38.000Z</time>
      </trkpt>
      <trkpt lat="44.01463" lon="2.5987">
        <ele>456</ele>
        <time>2021-10-31T08:25:39.000Z</time>
      </trkpt>
      <trkpt lat="44.01464" lon="2.5987">
        <ele>456</ele>
        <time>2021-10-31T08:25:40.000Z</time>
      </trkpt>
      <trkpt lat="44.01464" lon="2.59869">
        <ele>456</ele>
        <time>2021-10-31T08:25:41.000Z</time>
      </trkpt>
      <trkpt lat="44.01466" lon="2.59869">
        <ele>456</ele>
        <time>2021-10-31T08:25:42.000Z</time>
      </trkpt>
      <trkpt lat="44.01467" lon="2.5987">
        <ele>456</ele>
        <time>2021-10-31T08:25:43.000Z</time>
      </trkpt>
      <trkpt lat="44.01468" lon="2.5987">
        <ele>457</ele>
        <time>2021-10-31T08:25:44.000Z</time>
      </trkpt>
      <trkpt lat="44.01469" lon="2.5987">
        <ele>457</ele>
        <time>2021-10-31T08:25:45.000Z</time>
      </trkpt>
      <trkpt lat="44.01469" lon="2.59869">
        <ele>457</ele>
        <time>2021-10-31T08:25:46.000Z</time>
      </trkpt>
      <trkpt lat="44.0147" lon="2.59869">
        <ele>457</ele>
        <time>2021-10-31T08:25:47.000Z</time>
      </trkpt>
      <trkpt lat="44.01471" lon="2.59869">
        <ele>457</ele>
        <time>2021-10-31T08:25:48.000Z</time>
      </trkpt>
      <trkpt lat="44.01472" lon="2.59868">
        <ele>457</ele>
        <time>2021-10-31T08:25:49.000Z</time>
      </trkpt>
      <trkpt lat="44.01473" lon="2.59868">
        <ele>458</ele>
        <time>2021-10-31T08:25:50.000Z</time>
      </trkpt>
      <trkpt lat="44.01474" lon="2.59869">
        <ele>458</ele>
        <time>2021-10-31T08:25:51.000Z</time>
      </trkpt>
      <trkpt lat="44.01475" lon="2.59869">
        <ele>458</ele>
        <time>2021-10-31T08:25:52.000Z</time>
      </trkpt>
      <trkpt lat="44.01476" lon="2.59869">
        <ele>458</ele>
        <time>2021-10-31T08:25:53.000Z</time>
      </trkpt>
      <trkpt lat="44.01477" lon="2.59869">
        <ele>458</ele>
        <time>2021-10-31T08:25:54.000Z</time>
      </trkpt>
      <trkpt lat="44.01478" lon="2.59869">
        <ele>458</ele>
        <time>2021-10-31T08:25:55.000Z</time>
      </trkpt>
      <trkpt lat="44.01479" lon="2.59869">
        <ele>459</ele>
        <time>2021-10-31T08:25:56.000Z</time>
      </trkpt>
      <trkpt lat="44.01479" lon="2.59869">
        <ele>459</ele>
        <time>2021-10-31T08:25:57.000Z</time>
      </trkpt>
      <trkpt lat="44.0148" lon="2.59869">
        <ele>459</ele>
        <time>2021-10-31T08:25:58.000Z</time>
      </trkpt>
      <trkpt lat="44.01481" lon="2.59869">
        <ele>459</ele>
        <time>2021-10-31T08:25:59.000Z</time>
      </trkpt>
      <trkpt lat="44.01481" lon="2.59869">
        <ele>459</ele>
        <time>2021-10-31T08:26:00.000Z</time>
      </trkpt>
      <trkpt lat="44.01482" lon="2.59869">
        <ele>459</ele>
        <time>2021-10-31T08:26:01.000Z</time>
      </trkpt>
      <trkpt lat="44.01483" lon="2.59869">
        <ele>459</ele>
        <time>2021-10-31T08:26:02.000Z</time>
      </trkpt>
      <trkpt lat="44.01484" lon="2.59869">
        <ele>459</ele>
        <time>2021-10-31T08:26:03.000Z</time>
      </trkpt>
      <trkpt lat="44.01485" lon="2.59869">
        <ele>459</ele>
        <time>2021-10-31T08:26:04.000Z</time>
      </trkpt>
      <trkpt lat="44.01486" lon="2.59869">
        <ele>459</ele>
        <time>2021-10-31T08:26:05.000Z</time>
      </trkpt>
      <trkpt lat="44.01487" lon="2.59869">
        <ele>459</ele>
        <time>2021-10-31T08:26:06.000Z</time>
      </trkpt>
      <trkpt lat="44.01488" lon="2.59869">
        <ele>459</ele>
        <time>2021-10-31T08:26:07.000Z</time>
      </trkpt>
      <trkpt lat="44.01489" lon="2.59868">
        <ele>459</ele>
        <time>2021-10-31T08:26:08.000Z</time>
      </trkpt>
      <trkpt lat="44.0149" lon="2.59868">
        <ele>460</ele>
        <time>2021-10-31T08:26:09.000Z</time>
      </trkpt>
      <trkpt lat="44.01492" lon="2.59869">
        <ele>460</ele>
        <time>2021-10-31T08:26:10.000Z</time>
      </trkpt>
      <trkpt lat="44.01493" lon="2.59869">
        <ele>460</ele>
        <time>2021-10-31T08:26:11.000Z</time>
      </trkpt>
      <trkpt lat="44.01493" lon="2.59869">
        <ele>460</ele>
        <time>2021-10-31T08:26:12.000Z</time>
      </trkpt>
      <trkpt lat="44.01495" lon="2.59869">
        <ele>460</ele>
        <time>2021-10-31T08:26:13.000Z</time>
      </trkpt>
      <trkpt lat="44.01496" lon="2.59869">
        <ele>460</ele>
        <time>2021-10-31T08:26:14.000Z</time>
      </trkpt>
      <trkpt lat="44.01497" lon="2.59869">
        <ele>460</ele>
        <time>2021-10-31T08:26:15.000Z</time>
      </trkpt>
      <trkpt lat="44.01498" lon="2.59869">
        <ele>460</ele>
        <time>2021-10-31T08:26:16.000Z</time>
      </trkpt>
      <trkpt lat="44.01499" lon="2.59869">
        <ele>460</ele>
        <time>2021-10-31T08:26:17.000Z</time>
      </trkpt>
      <trkpt lat="44.015" lon="2.59869">
        <ele>460</ele>
        <time>2021-10-31T08:26:18.000Z</time>
      </trkpt>
      <trkpt lat="44.01501" lon="2.59869">
        <ele>460</ele>
        <time>2021-10-31T08:26:19.000Z</time>
      </trkpt>
      <trkpt lat="44.01502" lon="2.59869">
        <ele>461</ele>
        <time>2021-10-31T08:26:20.000Z</time>
      </trkpt>
      <trkpt lat="44.01503" lon="2.59869">
        <ele>461</ele>
        <time>2021-10-31T08:26:21.000Z</time>
      </trkpt>
      <trkpt lat="44.01503" lon="2.59869">
        <ele>461</ele>
        <time>2021-10-31T08:26:22.000Z</time>
      </trkpt>
      <trkpt lat="44.01504" lon="2.5987">
        <ele>461</ele>
        <time>2021-10-31T08:26:23.000Z</time>
      </trkpt>
      <trkpt lat="44.01505" lon="2.5987">
        <ele>461</ele>
        <time>2021-10-31T08:26:24.000Z</time>
      </trkpt>
      <trkpt lat="44.01506" lon="2.5987">
        <ele>461</ele>
        <time>2021-10-31T08:26:25.000Z</time>
      </trkpt>
      <trkpt lat="44.01507" lon="2.5987">
        <ele>461</ele>
        <time>2021-10-31T08:26:26.000Z</time>
      </trkpt>
      <trkpt lat="44.01507" lon="2.5987">
        <ele>461</ele>
        <time>2021-10-31T08:26:27.000Z</time>
      </trkpt>
      <trkpt lat="44.01508" lon="2.5987">
        <ele>461</ele>
        <time>2021-10-31T08:26:28.000Z</time>
      </trkpt>
      <trkpt lat="44.01509" lon="2.5987">
        <ele>461</ele>
        <time>2021-10-31T08:26:29.000Z</time>
      </trkpt>
      <trkpt lat="44.0151" lon="2.59871">
        <ele>461</ele>
        <time>2021-10-31T08:26:30.000Z</time>
      </trkpt>
      <trkpt lat="44.01511" lon="2.59871">
        <ele>461</ele>
        <time>2021-10-31T08:26:31.000Z</time>
      </trkpt>
      <trkpt lat="44.01512" lon="2.59871">
        <ele>461</ele>
        <time>2021-10-31T08:26:32.000Z</time>
      </trkpt>
      <trkpt lat="44.01513" lon="2.59871">
        <ele>461</ele>
        <time>2021-10-31T08:26:33.000Z</time>
      </trkpt>
      <trkpt lat="44.01514" lon="2.59871">
        <ele>462</ele>
        <time>2021-10-31T08:26:34.000Z</time>
      </trkpt>
      <trkpt lat="44.01515" lon="2.59871">
        <ele>462</ele>
        <time>2021-10-31T08:26:35.000Z</time>
      </trkpt>
      <trkpt lat="44.01516" lon="2.59871">
        <ele>462</ele>
        <time>2021-10-31T08:26:36.000Z</time>
      </trkpt>
      <trkpt lat="44.01517" lon="2.59871">
        <ele>462</ele>
        <time>2021-10-31T08:26:37.000Z</time>
      </trkpt>
      <trkpt lat="44.01518" lon="2.59872">
        <ele>462</ele>
        <time>2021-10-31T08:26:38.000Z</time>
      </trkpt>
      <trkpt lat="44.01519" lon="2.59872">
        <ele>462</ele>
        <time>2021-10-31T08:26:39.000Z</time>
      </trkpt>
      <trkpt lat="44.01519" lon="2.59872">
        <ele>462</ele>
        <time>2021-10-31T08:26:40.000Z</time>
      </trkpt>
      <trkpt lat="44.0152" lon="2.59873">
        <ele>462</ele>
        <time>2021-10-31T08:26:41.000Z</time>
      </trkpt>
      <trkpt lat="44.01521" lon="2.59873">
        <ele>463</ele>
        <time>2021-10-31T08:26:42.000Z</time>
      </trkpt>
      <trkpt lat="44.01522" lon="2.59873">
        <ele>463</ele>
        <time>2021-10-31T08:26:43.000Z</time>
      </trkpt>
      <trkpt lat="44.01523" lon="2.59874">
        <ele>463</ele>
        <time>2021-10-31T08:26:44.000Z</time>
      </trkpt>
      <trkpt lat="44.01523" lon="2.59874">
        <ele>463</ele>
        <time>2021-10-31T08:26:45.000Z</time>
      </trkpt>
      <trkpt lat="44.01524" lon="2.59874">
        <ele>463</ele>
        <time>2021-10-31T08:26:46.000Z</time>
      </trkpt>
      <trkpt lat="44.01524" lon="2.59874">
        <ele>463</ele>
        <time>2021-10-31T08:26:47.000Z</time>
      </trkpt>
      <trkpt lat="44.01524" lon="2.59874">
        <ele>463</ele>
        <time>2021-10-31T08:26:48.000Z</time>
      </trkpt>
      <trkpt lat="44.01525" lon="2.59874">
        <ele>463</ele>
        <time>2021-10-31T08:26:49.000Z</time>
      </trkpt>
      <trkpt lat="44.01526" lon="2.59874">
        <ele>464</ele>
        <time>2021-10-31T08:26:50.000Z</time>
      </trkpt>
      <trkpt lat="44.01527" lon="2.59875">
        <ele>464</ele>
        <time>2021-10-31T08:26:51.000Z</time>
      </trkpt>
      <trkpt lat="44.01527" lon="2.59875">
        <ele>464</ele>
        <time>2021-10-31T08:26:52.000Z</time>
      </trkpt>
      <trkpt lat="44.01527" lon="2.59875">
        <ele>464</ele>
        <time>2021-10-31T08:26:53.000Z</time>
      </trkpt>
      <trkpt lat="44.01528" lon="2.59876">
        <ele>464</ele>
        <time>2021-10-31T08:26:54.000Z</time>
      </trkpt>
      <trkpt lat="44.01529" lon="2.59876">
        <ele>464</ele>
        <time>2021-10-31T08:26:55.000Z</time>
      </trkpt>
      <trkpt lat="44.0153" lon="2.59877">
        <ele>464</ele>
        <time>2021-10-31T08:26:56.000Z</time>
      </trkpt>
      <trkpt lat="44.01531" lon="2.59877">
        <ele>464</ele>
        <time>2021-10-31T08:26:57.000Z</time>
      </trkpt>
      <trkpt lat="44.01532" lon="2.59878">
        <ele>464</ele>
        <time>2021-10-31T08:26:58.000Z</time>
      </trkpt>
      <trkpt lat="44.01533" lon="2.59878">
        <ele>464</ele>
        <time>2021-10-31T08:26:59.000Z</time>
      </trkpt>
      <trkpt lat="44.01534" lon="2.59879">
        <ele>464</ele>
        <time>2021-10-31T08:27:00.000Z</time>
      </trkpt>
      <trkpt lat="44.01535" lon="2.5988">
        <ele>463</ele>
        <time>2021-10-31T08:27:01.000Z</time>
      </trkpt>
      <trkpt lat="44.01536" lon="2.5988">
        <ele>463</ele>
        <time>2021-10-31T08:27:02.000Z</time>
      </trkpt>
      <trkpt lat="44.01537" lon="2.59881">
        <ele>464</ele>
        <time>2021-10-31T08:27:03.000Z</time>
      </trkpt>
      <trkpt lat="44.01538" lon="2.59882">
        <ele>464</ele>
        <time>2021-10-31T08:27:04.000Z</time>
      </trkpt>
      <trkpt lat="44.01539" lon="2.59883">
        <ele>464</ele>
        <time>2021-10-31T08:27:05.000Z</time>
      </trkpt>
      <trkpt lat="44.0154" lon="2.59884">
        <ele>464</ele>
        <time>2021-10-31T08:27:06.000Z</time>
      </trkpt>
      <trkpt lat="44.01541" lon="2.59885">
        <ele>464</ele>
        <time>2021-10-31T08:27:07.000Z</time>
      </trkpt>
      <trkpt lat="44.01542" lon="2.59885">
        <ele>464</ele>
        <time>2021-10-31T08:27:08.000Z</time>
      </trkpt>
      <trkpt lat="44.01543" lon="2.59886">
        <ele>464</ele>
        <time>2021-10-31T08:27:09.000Z</time>
      </trkpt>
      <trkpt lat="44.01544" lon="2.59887">
        <ele>464</ele>
        <time>2021-10-31T08:27:10.000Z</time>
      </trkpt>
      <trkpt lat="44.01545" lon="2.59888">
        <ele>464</ele>
        <time>2021-10-31T08:27:11.000Z</time>
      </trkpt>
      <trkpt lat="44.01546" lon="2.59888">
        <ele>464</ele>
        <time>2021-10-31T08:27:12.000Z</time>
      </trkpt>
      <trkpt lat="44.01547" lon="2.59889">
        <ele>465</ele>
        <time>2021-10-31T08:27:13.000Z</time>
      </trkpt>
      <trkpt lat="44.01547" lon="2.5989">
        <ele>465</ele>
        <time>2021-10-31T08:27:14.000Z</time>
      </trkpt>
      <trkpt lat="44.01548" lon="2.59891">
        <ele>465</ele>
        <time>2021-10-31T08:27:15.000Z</time>
      </trkpt>
      <trkpt lat="44.01549" lon="2.59892">
        <ele>465</ele>
        <time>2021-10-31T08:27:16.000Z</time>
      </trkpt>
      <trkpt lat="44.0155" lon="2.59892">
        <ele>465</ele>
        <time>2021-10-31T08:27:17.000Z</time>
      </trkpt>
      <trkpt lat="44.01551" lon="2.59893">
        <ele>465</ele>
        <time>2021-10-31T08:27:18.000Z</time>
      </trkpt>
      <trkpt lat="44.01552" lon="2.59894">
        <ele>465</ele>
        <time>2021-10-31T08:27:19.000Z</time>
      </trkpt>
      <trkpt lat="44.01553" lon="2.59895">
        <ele>465</ele>
        <time>2021-10-31T08:27:20.000Z</time>
      </trkpt>
      <trkpt lat="44.01554" lon="2.59895">
        <ele>465</ele>
        <time>2021-10-31T08:27:21.000Z</time>
      </trkpt>
      <trkpt lat="44.01555" lon="2.59896">
        <ele>465</ele>
        <time>2021-10-31T08:27:22.000Z</time>
      </trkpt>
      <trkpt lat="44.01555" lon="2.59897">
        <ele>465</ele>
        <time>2021-10-31T08:27:23.000Z</time>
      </trkpt>
      <trkpt lat="44.01556" lon="2.59898">
        <ele>465</ele>
        <time>2021-10-31T08:27:24.000Z</time>
      </trkpt>
      <trkpt lat="44.01557" lon="2.59899">
        <ele>465</ele>
        <time>2021-10-31T08:27:25.000Z</time>
      </trkpt>
      <trkpt lat="44.01558" lon="2.599">
        <ele>466</ele>
        <time>2021-10-31T08:27:26.000Z</time>
      </trkpt>
      <trkpt lat="44.01559" lon="2.599">
        <ele>466</ele>
        <time>2021-10-31T08:27:27.000Z</time>
      </trkpt>
      <trkpt lat="44.0156" lon="2.59901">
        <ele>466</ele>
        <time>2021-10-31T08:27:28.000Z</time>
      </trkpt>
      <trkpt lat="44.0156" lon="2.59902">
        <ele>466</ele>
        <time>2021-10-31T08:27:29.000Z</time>
      </trkpt>
      <trkpt lat="44.01561" lon="2.59902">
        <ele>466</ele>
        <time>2021-10-31T08:27:30.000Z</time>
      </trkpt>
      <trkpt lat="44.01562" lon="2.59903">
        <ele>466</ele>
        <time>2021-10-31T08:27:31.000Z</time>
      </trkpt>
      <trkpt lat="44.01563" lon="2.59904">
        <ele>467</ele>
        <time>2021-10-31T08:27:32.000Z</time>
      </trkpt>
      <trkpt lat="44.01563" lon="2.59904">
        <ele>467</ele>
        <time>2021-10-31T08:27:33.000Z</time>
      </trkpt>
      <trkpt lat="44.01564" lon="2.59905">
        <ele>467</ele>
        <time>2021-10-31T08:27:34.000Z</time>
      </trkpt>
      <trkpt lat="44.01565" lon="2.59906">
        <ele>467</ele>
        <time>2021-10-31T08:27:35.000Z</time>
      </trkpt>
      <trkpt lat="44.01566" lon="2.59906">
        <ele>467</ele>
        <time>2021-10-31T08:27:36.000Z</time>
      </trkpt>
      <trkpt lat="44.01566" lon="2.59907">
        <ele>467</ele>
        <time>2021-10-31T08:27:37.000Z</time>
      </trkpt>
      <trkpt lat="44.01567" lon="2.59908">
        <ele>467</ele>
        <time>2021-10-31T08:27:38.000Z</time>
      </trkpt>
      <trkpt lat="44.01568" lon="2.59908">
        <ele>467</ele>
        <time>2021-10-31T08:27:39.000Z</time>
      </trkpt>
      <trkpt lat="44.01568" lon="2.59909">
        <ele>467</ele>
        <time>2021-10-31T08:27:40.000Z</time>
      </trkpt>
      <trkpt lat="44.01569" lon="2.59909">
        <ele>468</ele>
        <time>2021-10-31T08:27:41.000Z</time>
      </trkpt>
      <trkpt lat="44.0157" lon="2.5991">
        <ele>468</ele>
        <time>2021-10-31T08:27:42.000Z</time>
      </trkpt>
      <trkpt lat="44.0157" lon="2.5991">
        <ele>468</ele>
        <time>2021-10-31T08:27:43.000Z</time>
      </trkpt>
      <trkpt lat="44.01571" lon="2.59911">
        <ele>468</ele>
        <time>2021-10-31T08:27:44.000Z</time>
      </trkpt>
      <trkpt lat="44.01572" lon="2.59911">
        <ele>468</ele>
        <time>2021-10-31T08:27:45.000Z</time>
      </trkpt>
      <trkpt lat="44.01573" lon="2.59912">
        <ele>468</ele>
        <time>2021-10-31T08:27:46.000Z</time>
      </trkpt>
      <trkpt lat="44.01574" lon="2.59912">
        <ele>468</ele>
        <time>2021-10-31T08:27:47.000Z</time>
      </trkpt>
      <trkpt lat="44.01575" lon="2.59913">
        <ele>468</ele>
        <time>2021-10-31T08:27:48.000Z</time>
      </trkpt>
      <trkpt lat="44.01575" lon="2.59914">
        <ele>469</ele>
        <time>2021-10-31T08:27:49.000Z</time>
      </trkpt>
      <trkpt lat="44.01576" lon="2.59915">
        <ele>469</ele>
        <time>2021-10-31T08:27:50.000Z</time>
      </trkpt>
      <trkpt lat="44.01577" lon="2.59915">
        <ele>469</ele>
        <time>2021-10-31T08:27:51.000Z</time>
      </trkpt>
      <trkpt lat="44.01578" lon="2.59915">
        <ele>469</ele>
        <time>2021-10-31T08:27:52.000Z</time>
      </trkpt>
      <trkpt lat="44.01578" lon="2.59916">
        <ele>469</ele>
        <time>2021-10-31T08:27:53.000Z</time>
      </trkpt>
      <trkpt lat="44.01579" lon="2.59916">
        <ele>470</ele>
        <time>2021-10-31T08:27:54.000Z</time>
      </trkpt>
      <trkpt lat="44.0158" lon="2.59917">
        <ele>470</ele>
        <time>2021-10-31T08:27:55.000Z</time>
      </trkpt>
      <trkpt lat="44.0158" lon="2.59917">
        <ele>470</ele>
        <time>2021-10-31T08:27:56.000Z</time>
      </trkpt>
      <trkpt lat="44.01581" lon="2.59918">
        <ele>470</ele>
        <time>2021-10-31T08:27:57.000Z</time>
      </trkpt>
      <trkpt lat="44.01582" lon="2.59919">
        <ele>470</ele>
        <time>2021-10-31T08:27:58.000Z</time>
      </trkpt>
      <trkpt lat="44.01583" lon="2.59919">
        <ele>470</ele>
        <time>2021-10-31T08:27:59.000Z</time>
      </trkpt>
      <trkpt lat="44.01583" lon="2.5992">
        <ele>470</ele>
        <time>2021-10-31T08:28:00.000Z</time>
      </trkpt>
      <trkpt lat="44.01584" lon="2.59921">
        <ele>470</ele>
        <time>2021-10-31T08:28:01.000Z</time>
      </trkpt>
      <trkpt lat="44.01585" lon="2.59921">
        <ele>471</ele>
        <time>2021-10-31T08:28:02.000Z</time>
      </trkpt>
      <trkpt lat="44.01586" lon="2.59922">
        <ele>471</ele>
        <time>2021-10-31T08:28:03.000Z</time>
      </trkpt>
      <trkpt lat="44.01586" lon="2.59923">
        <ele>471</ele>
        <time>2021-10-31T08:28:04.000Z</time>
      </trkpt>
      <trkpt lat="44.01587" lon="2.59923">
        <ele>471</ele>
        <time>2021-10-31T08:28:05.000Z</time>
      </trkpt>
      <trkpt lat="44.01588" lon="2.59924">
        <ele>471</ele>
        <time>2021-10-31T08:28:06.000Z</time>
      </trkpt>
      <trkpt lat="44.01589" lon="2.59924">
        <ele>471</ele>
        <time>2021-10-31T08:28:07.000Z</time>
      </trkpt>
      <trkpt lat="44.01589" lon="2.59925">
        <ele>471</ele>
        <time>2021-10-31T08:28:08.000Z</time>
      </trkpt>
      <trkpt lat="44.0159" lon="2.59925">
        <ele>471</ele>
        <time>2021-10-31T08:28:09.000Z</time>
      </trkpt>
      <trkpt lat="44.01591" lon="2.59926">
        <ele>471</ele>
        <time>2021-10-31T08:28:10.000Z</time>
      </trkpt>
      <trkpt lat="44.01592" lon="2.59926">
        <ele>471</ele>
        <time>2021-10-31T08:28:11.000Z</time>
      </trkpt>
      <trkpt lat="44.01593" lon="2.59927">
        <ele>471</ele>
        <time>2021-10-31T08:28:12.000Z</time>
      </trkpt>
      <trkpt lat="44.01594" lon="2.59927">
        <ele>471</ele>
        <time>2021-10-31T08:28:13.000Z</time>
      </trkpt>
      <trkpt lat="44.01595" lon="2.59928">
        <ele>472</ele>
        <time>2021-10-31T08:28:14.000Z</time>
      </trkpt>
      <trkpt lat="44.01595" lon="2.59929">
        <ele>472</ele>
        <time>2021-10-31T08:28:15.000Z</time>
      </trkpt>
      <trkpt lat="44.01596" lon="2.59929">
        <ele>472</ele>
        <time>2021-10-31T08:28:16.000Z</time>
      </trkpt>
      <trkpt lat="44.01597" lon="2.5993">
        <ele>472</ele>
        <time>2021-10-31T08:28:17.000Z</time>
      </trkpt>
      <trkpt lat="44.01598" lon="2.59931">
        <ele>472</ele>
        <time>2021-10-31T08:28:18.000Z</time>
      </trkpt>
      <trkpt lat="44.01598" lon="2.59931">
        <ele>472</ele>
        <time>2021-10-31T08:28:19.000Z</time>
      </trkpt>
      <trkpt lat="44.01599" lon="2.59932">
        <ele>472</ele>
        <time>2021-10-31T08:28:20.000Z</time>
      </trkpt>
      <trkpt lat="44.016" lon="2.59932">
        <ele>472</ele>
        <time>2021-10-31T08:28:21.000Z</time>
      </trkpt>
      <trkpt lat="44.01601" lon="2.59933">
        <ele>473</ele>
        <time>2021-10-31T08:28:22.000Z</time>
      </trkpt>
      <trkpt lat="44.01601" lon="2.59933">
        <ele>473</ele>
        <time>2021-10-31T08:28:23.000Z</time>
      </trkpt>
      <trkpt lat="44.01602" lon="2.59934">
        <ele>473</ele>
        <time>2021-10-31T08:28:24.000Z</time>
      </trkpt>
      <trkpt lat="44.01602" lon="2.59934">
        <ele>473</ele>
        <time>2021-10-31T08:28:25.000Z</time>
      </trkpt>
      <trkpt lat="44.01603" lon="2.59935">
        <ele>473</ele>
        <time>2021-10-31T08:28:26.000Z</time>
      </trkpt>
      <trkpt lat="44.01604" lon="2.59935">
        <ele>473</ele>
        <time>2021-10-31T08:28:27.000Z</time>
      </trkpt>
      <trkpt lat="44.01605" lon="2.59935">
        <ele>473</ele>
        <time>2021-10-31T08:28:28.000Z</time>
      </trkpt>
      <trkpt lat="44.01605" lon="2.59935">
        <ele>473</ele>
        <time>2021-10-31T08:28:29.000Z</time>
      </trkpt>
      <trkpt lat="44.01606" lon="2.59935">
        <ele>473</ele>
        <time>2021-10-31T08:28:30.000Z</time>
      </trkpt>
      <trkpt lat="44.01607" lon="2.59935">
        <ele>473</ele>
        <time>2021-10-31T08:28:31.000Z</time>
      </trkpt>
      <trkpt lat="44.01608" lon="2.59936">
        <ele>473</ele>
        <time>2021-10-31T08:28:32.000Z</time>
      </trkpt>
      <trkpt lat="44.01609" lon="2.59936">
        <ele>473</ele>
        <time>2021-10-31T08:28:33.000Z</time>
      </trkpt>
      <trkpt lat="44.0161" lon="2.59936">
        <ele>473</ele>
        <time>2021-10-31T08:28:34.000Z</time>
      </trkpt>
      <trkpt lat="44.0161" lon="2.59936">
        <ele>473</ele>
        <time>2021-10-31T08:28:35.000Z</time>
      </trkpt>
      <trkpt lat="44.01611" lon="2.59936">
        <ele>474</ele>
        <time>2021-10-31T08:28:36.000Z</time>
      </trkpt>
      <trkpt lat="44.01612" lon="2.59936">
        <ele>474</ele>
        <time>2021-10-31T08:28:37.000Z</time>
      </trkpt>
      <trkpt lat="44.01613" lon="2.59936">
        <ele>474</ele>
        <time>2021-10-31T08:28:38.000Z</time>
      </trkpt>
      <trkpt lat="44.01613" lon="2.59936">
        <ele>474</ele>
        <time>2021-10-31T08:28:39.000Z</time>
      </trkpt>
      <trkpt lat="44.01614" lon="2.59936">
        <ele>474</ele>
        <time>2021-10-31T08:28:40.000Z</time>
      </trkpt>
      <trkpt lat="44.01615" lon="2.59936">
        <ele>474</ele>
        <time>2021-10-31T08:28:41.000Z</time>
      </trkpt>
      <trkpt lat="44.01615" lon="2.59936">
        <ele>475</ele>
        <time>2021-10-31T08:28:42.000Z</time>
      </trkpt>
      <trkpt lat="44.01616" lon="2.59936">
        <ele>475</ele>
        <time>2021-10-31T08:28:43.000Z</time>
      </trkpt>
      <trkpt lat="44.01617" lon="2.59935">
        <ele>475</ele>
        <time>2021-10-31T08:28:44.000Z</time>
      </trkpt>
      <trkpt lat="44.01618" lon="2.59935">
        <ele>475</ele>
        <time>2021-10-31T08:28:45.000Z</time>
      </trkpt>
      <trkpt lat="44.01619" lon="2.59935">
        <ele>475</ele>
        <time>2021-10-31T08:28:46.000Z</time>
      </trkpt>
      <trkpt lat="44.0162" lon="2.59935">
        <ele>475</ele>
        <time>2021-10-31T08:28:47.000Z</time>
      </trkpt>
      <trkpt lat="44.01621" lon="2.59934">
        <ele>476</ele>
        <time>2021-10-31T08:28:48.000Z</time>
      </trkpt>
      <trkpt lat="44.01622" lon="2.59934">
        <ele>476</ele>
        <time>2021-10-31T08:28:49.000Z</time>
      </trkpt>
      <trkpt lat="44.01623" lon="2.59934">
        <ele>476</ele>
        <time>2021-10-31T08:28:50.000Z</time>
      </trkpt>
      <trkpt lat="44.01624" lon="2.59933">
        <ele>476</ele>
        <time>2021-10-31T08:28:51.000Z</time>
      </trkpt>
      <trkpt lat="44.01625" lon="2.59933">
        <ele>476</ele>
        <time>2021-10-31T08:28:52.000Z</time>
      </trkpt>
      <trkpt lat="44.01625" lon="2.59932">
        <ele>477</ele>
        <time>2021-10-31T08:28:53.000Z</time>
      </trkpt>
      <trkpt lat="44.01626" lon="2.59932">
        <ele>477</ele>
        <time>2021-10-31T08:28:54.000Z</time>
      </trkpt>
      <trkpt lat="44.01627" lon="2.59932">
        <ele>477</ele>
        <time>2021-10-31T08:28:55.000Z</time>
      </trkpt>
      <trkpt lat="44.01628" lon="2.59931">
        <ele>477</ele>
        <time>2021-10-31T08:28:56.000Z</time>
      </trkpt>
      <trkpt lat="44.01628" lon="2.59931">
        <ele>477</ele>
        <time>2021-10-31T08:28:57.000Z</time>
      </trkpt>
      <trkpt lat="44.01629" lon="2.59931">
        <ele>477</ele>
        <time>2021-10-31T08:28:58.000Z</time>
      </trkpt>
      <trkpt lat="44.0163" lon="2.5993">
        <ele>478</ele>
        <time>2021-10-31T08:28:59.000Z</time>
      </trkpt>
      <trkpt lat="44.01631" lon="2.5993">
        <ele>478</ele>
        <time>2021-10-31T08:29:00.000Z</time>
      </trkpt>
      <trkpt lat="44.01631" lon="2.5993">
        <ele>478</ele>
        <time>2021-10-31T08:29:01.000Z</time>
      </trkpt>
      <trkpt lat="44.01632" lon="2.5993">
        <ele>478</ele>
        <time>2021-10-31T08:29:02.000Z</time>
      </trkpt>
      <trkpt lat="44.01633" lon="2.5993">
        <ele>478</ele>
        <time>2021-10-31T08:29:03.000Z</time>
      </trkpt>
      <trkpt lat="44.01633" lon="2.59929">
        <ele>479</ele>
        <time>2021-10-31T08:29:04.000Z</time>
      </trkpt>
      <trkpt lat="44.01634" lon="2.59929">
        <ele>479</ele>
        <time>2021-10-31T08:29:05.000Z</time>
      </trkpt>
      <trkpt lat="44.01635" lon="2.59929">
        <ele>479</ele>
        <time>2021-10-31T08:29:06.000Z</time>
      </trkpt>
      <trkpt lat="44.01635" lon="2.59929">
        <ele>479</ele>
        <time>2021-10-31T08:29:07.000Z</time>
      </trkpt>
      <trkpt lat="44.01636" lon="2.59928">
        <ele>479</ele>
        <time>2021-10-31T08:29:08.000Z</time>
      </trkpt>
      <trkpt lat="44.01637" lon="2.59928">
        <ele>479</ele>
        <time>2021-10-31T08:29:09.000Z</time>
      </trkpt>
      <trkpt lat="44.01638" lon="2.59928">
        <ele>479</ele>
        <time>2021-10-31T08:29:10.000Z</time>
      </trkpt>
      <trkpt lat="44.01639" lon="2.59928">
        <ele>479</ele>
        <time>2021-10-31T08:29:11.000Z</time>
      </trkpt>
      <trkpt lat="44.0164" lon="2.59928">
        <ele>480</ele>
        <time>2021-10-31T08:29:12.000Z</time>
      </trkpt>
      <trkpt lat="44.0164" lon="2.59928">
        <ele>480</ele>
        <time>2021-10-31T08:29:13.000Z</time>
      </trkpt>
      <trkpt lat="44.01641" lon="2.59927">
        <ele>480</ele>
        <time>2021-10-31T08:29:14.000Z</time>
      </trkpt>
      <trkpt lat="44.01642" lon="2.59927">
        <ele>480</ele>
        <time>2021-10-31T08:29:15.000Z</time>
      </trkpt>
      <trkpt lat="44.01643" lon="2.59926">
        <ele>480</ele>
        <time>2021-10-31T08:29:16.000Z</time>
      </trkpt>
      <trkpt lat="44.01643" lon="2.59926">
        <ele>480</ele>
        <time>2021-10-31T08:29:17.000Z</time>
      </trkpt>
      <trkpt lat="44.01644" lon="2.59925">
        <ele>480</ele>
        <time>2021-10-31T08:29:18.000Z</time>
      </trkpt>
      <trkpt lat="44.01645" lon="2.59925">
        <ele>480</ele>
        <time>2021-10-31T08:29:19.000Z</time>
      </trkpt>
      <trkpt lat="44.01646" lon="2.59925">
        <ele>481</ele>
        <time>2021-10-31T08:29:20.000Z</time>
      </trkpt>
      <trkpt lat="44.01646" lon="2.59924">
        <ele>481</ele>
        <time>2021-10-31T08:29:21.000Z</time>
      </trkpt>
      <trkpt lat="44.01647" lon="2.59924">
        <ele>481</ele>
        <time>2021-10-31T08:29:22.000Z</time>
      </trkpt>
      <trkpt lat="44.01648" lon="2.59923">
        <ele>481</ele>
        <time>2021-10-31T08:29:23.000Z</time>
      </trkpt>
      <trkpt lat="44.01649" lon="2.59923">
        <ele>481</ele>
        <time>2021-10-31T08:29:24.000Z</time>
      </trkpt>
      <trkpt lat="44.0165" lon="2.59922">
        <ele>481</ele>
        <time>2021-10-31T08:29:25.000Z</time>
      </trkpt>
      <trkpt lat="44.0165" lon="2.59922">
        <ele>481</ele>
        <time>2021-10-31T08:29:26.000Z</time>
      </trkpt>
      <trkpt lat="44.01651" lon="2.59921">
        <ele>481</ele>
        <time>2021-10-31T08:29:27.000Z</time>
      </trkpt>
      <trkpt lat="44.01652" lon="2.5992">
        <ele>481</ele>
        <time>2021-10-31T08:29:28.000Z</time>
      </trkpt>
      <trkpt lat="44.01653" lon="2.5992">
        <ele>481</ele>
        <time>2021-10-31T08:29:29.000Z</time>
      </trkpt>
      <trkpt lat="44.01654" lon="2.59919">
        <ele>482</ele>
        <time>2021-10-31T08:29:30.000Z</time>
      </trkpt>
      <trkpt lat="44.01654" lon="2.59919">
        <ele>482</ele>
        <time>2021-10-31T08:29:31.000Z</time>
      </trkpt>
      <trkpt lat="44.01655" lon="2.59919">
        <ele>482</ele>
        <time>2021-10-31T08:29:32.000Z</time>
      </trkpt>
      <trkpt lat="44.01656" lon="2.59918">
        <ele>482</ele>
        <time>2021-10-31T08:29:33.000Z</time>
      </trkpt>
      <trkpt lat="44.01657" lon="2.59918">
        <ele>482</ele>
        <time>2021-10-31T08:29:34.000Z</time>
      </trkpt>
      <trkpt lat="44.01657" lon="2.59917">
        <ele>482</ele>
        <time>2021-10-31T08:29:35.000Z</time>
      </trkpt>
      <trkpt lat="44.01658" lon="2.59917">
        <ele>482</ele>
        <time>2021-10-31T08:29:36.000Z</time>
      </trkpt>
      <trkpt lat="44.01659" lon="2.59916">
        <ele>482</ele>
        <time>2021-10-31T08:29:37.000Z</time>
      </trkpt>
      <trkpt lat="44.0166" lon="2.59916">
        <ele>482</ele>
        <time>2021-10-31T08:29:38.000Z</time>
      </trkpt>
      <trkpt lat="44.01661" lon="2.59915">
        <ele>483</ele>
        <time>2021-10-31T08:29:39.000Z</time>
      </trkpt>
      <trkpt lat="44.01662" lon="2.59915">
        <ele>483</ele>
        <time>2021-10-31T08:29:40.000Z</time>
      </trkpt>
      <trkpt lat="44.01663" lon="2.59915">
        <ele>483</ele>
        <time>2021-10-31T08:29:41.000Z</time>
      </trkpt>
      <trkpt lat="44.01664" lon="2.59914">
        <ele>483</ele>
        <time>2021-10-31T08:29:42.000Z</time>
      </trkpt>
      <trkpt lat="44.01665" lon="2.59914">
        <ele>483</ele>
        <time>2021-10-31T08:29:43.000Z</time>
      </trkpt>
      <trkpt lat="44.01666" lon="2.59913">
        <ele>483</ele>
        <time>2021-10-31T08:29:44.000Z</time>
      </trkpt>
      <trkpt lat="44.01667" lon="2.59913">
        <ele>483</ele>
        <time>2021-10-31T08:29:45.000Z</time>
      </trkpt>
      <trkpt lat="44.01668" lon="2.59913">
        <ele>483</ele>
        <time>2021-10-31T08:29:46.000Z</time>
      </trkpt>
      <trkpt lat="44.01669" lon="2.59912">
        <ele>483</ele>
        <time>2021-10-31T08:29:47.000Z</time>
      </trkpt>
      <trkpt lat="44.01669" lon="2.59911">
        <ele>484</ele>
        <time>2021-10-31T08:29:48.000Z</time>
      </trkpt>
      <trkpt lat="44.0167" lon="2.59911">
        <ele>484</ele>
        <time>2021-10-31T08:29:49.000Z</time>
      </trkpt>
      <trkpt lat="44.01671" lon="2.5991">
        <ele>484</ele>
        <time>2021-10-31T08:29:50.000Z</time>
      </trkpt>
      <trkpt lat="44.01672" lon="2.5991">
        <ele>484</ele>
        <time>2021-10-31T08:29:51.000Z</time>
      </trkpt>
      <trkpt lat="44.01673" lon="2.59909">
        <ele>484</ele>
        <time>2021-10-31T08:29:52.000Z</time>
      </trkpt>
      <trkpt lat="44.01673" lon="2.59909">
        <ele>484</ele>
        <time>2021-10-31T08:29:53.000Z</time>
      </trkpt>
      <trkpt lat="44.01674" lon="2.59909">
        <ele>484</ele>
        <time>2021-10-31T08:29:54.000Z</time>
      </trkpt>
      <trkpt lat="44.01675" lon="2.59908">
        <ele>484</ele>
        <time>2021-10-31T08:29:55.000Z</time>
      </trkpt>
      <trkpt lat="44.01675" lon="2.59908">
        <ele>484</ele>
        <time>2021-10-31T08:29:56.000Z</time>
      </trkpt>
      <trkpt lat="44.01675" lon="2.5991">
        <ele>485</ele>
        <time>2021-10-31T08:29:57.000Z</time>
      </trkpt>
      <trkpt lat="44.01675" lon="2.59911">
        <ele>485</ele>
        <time>2021-10-31T08:29:58.000Z</time>
      </trkpt>
      <trkpt lat="44.01674" lon="2.59911">
        <ele>485</ele>
        <time>2021-10-31T08:29:59.000Z</time>
      </trkpt>
      <trkpt lat="44.01674" lon="2.59911">
        <ele>485</ele>
        <time>2021-10-31T08:30:00.000Z</time>
      </trkpt>
      <trkpt lat="44.01674" lon="2.59912">
        <ele>485</ele>
        <time>2021-10-31T08:30:01.000Z</time>
      </trkpt>
      <trkpt lat="44.01674" lon="2.59911">
        <ele>485</ele>
        <time>2021-10-31T08:30:02.000Z</time>
      </trkpt>
      <trkpt lat="44.01675" lon="2.5991">
        <ele>485</ele>
        <time>2021-10-31T08:30:03.000Z</time>
      </trkpt>
      <trkpt lat="44.01676" lon="2.59909">
        <ele>485</ele>
        <time>2021-10-31T08:30:04.000Z</time>
      </trkpt>
      <trkpt lat="44.01677" lon="2.59909">
        <ele>486</ele>
        <time>2021-10-31T08:30:05.000Z</time>
      </trkpt>
      <trkpt lat="44.01678" lon="2.59909">
        <ele>486</ele>
        <time>2021-10-31T08:30:06.000Z</time>
      </trkpt>
      <trkpt lat="44.01679" lon="2.59908">
        <ele>486</ele>
        <time>2021-10-31T08:30:07.000Z</time>
      </trkpt>
      <trkpt lat="44.01679" lon="2.59908">
        <ele>486</ele>
        <time>2021-10-31T08:30:08.000Z</time>
      </trkpt>
      <trkpt lat="44.0168" lon="2.59908">
        <ele>486</ele>
        <time>2021-10-31T08:30:09.000Z</time>
      </trkpt>
      <trkpt lat="44.01681" lon="2.59907">
        <ele>486</ele>
        <time>2021-10-31T08:30:10.000Z</time>
      </trkpt>
      <trkpt lat="44.01681" lon="2.59907">
        <ele>486</ele>
        <time>2021-10-31T08:30:11.000Z</time>
      </trkpt>
      <trkpt lat="44.01682" lon="2.59907">
        <ele>486</ele>
        <time>2021-10-31T08:30:12.000Z</time>
      </trkpt>
      <trkpt lat="44.01683" lon="2.59906">
        <ele>486</ele>
        <time>2021-10-31T08:30:13.000Z</time>
      </trkpt>
      <trkpt lat="44.01684" lon="2.59906">
        <ele>486</ele>
        <time>2021-10-31T08:30:14.000Z</time>
      </trkpt>
      <trkpt lat="44.01685" lon="2.59906">
        <ele>486</ele>
        <time>2021-10-31T08:30:15.000Z</time>
      </trkpt>
      <trkpt lat="44.01686" lon="2.59906">
        <ele>486</ele>
        <time>2021-10-31T08:30:16.000Z</time>
      </trkpt>
      <trkpt lat="44.01687" lon="2.59906">
        <ele>487</ele>
        <time>2021-10-31T08:30:17.000Z</time>
      </trkpt>
      <trkpt lat="44.01688" lon="2.59906">
        <ele>487</ele>
        <time>2021-10-31T08:30:18.000Z</time>
      </trkpt>
      <trkpt lat="44.01689" lon="2.59905">
        <ele>487</ele>
        <time>2021-10-31T08:30:19.000Z</time>
      </trkpt>
      <trkpt lat="44.0169" lon="2.59905">
        <ele>487</ele>
        <time>2021-10-31T08:30:20.000Z</time>
      </trkpt>
      <trkpt lat="44.01691" lon="2.59905">
        <ele>487</ele>
        <time>2021-10-31T08:30:21.000Z</time>
      </trkpt>
      <trkpt lat="44.01692" lon="2.59904">
        <ele>487</ele>
        <time>2021-10-31T08:30:22.000Z</time>
      </trkpt>
      <trkpt lat="44.01693" lon="2.59904">
        <ele>487</ele>
        <time>2021-10-31T08:30:23.000Z</time>
      </trkpt>
      <trkpt lat="44.01694" lon="2.59904">
        <ele>487</ele>
        <time>2021-10-31T08:30:24.000Z</time>
      </trkpt>
      <trkpt lat="44.01695" lon="2.59904">
        <ele>487</ele>
        <time>2021-10-31T08:30:25.000Z</time>
      </trkpt>
      <trkpt lat="44.01696" lon="2.59904">
        <ele>487</ele>
        <time>2021-10-31T08:30:26.000Z</time>
      </trkpt>
      <trkpt lat="44.01697" lon="2.59904">
        <ele>487</ele>
        <time>2021-10-31T08:30:27.000Z</time>
      </trkpt>
      <trkpt lat="44.01698" lon="2.59904">
        <ele>488</ele>
        <time>2021-10-31T08:30:28.000Z</time>
      </trkpt>
      <trkpt lat="44.01699" lon="2.59903">
        <ele>488</ele>
        <time>2021-10-31T08:30:29.000Z</time>
      </trkpt>
      <trkpt lat="44.017" lon="2.59903">
        <ele>488</ele>
        <time>2021-10-31T08:30:30.000Z</time>
      </trkpt>
      <trkpt lat="44.01701" lon="2.59903">
        <ele>488</ele>
        <time>2021-10-31T08:30:31.000Z</time>
      </trkpt>
      <trkpt lat="44.01702" lon="2.59903">
        <ele>488</ele>
        <time>2021-10-31T08:30:32.000Z</time>
      </trkpt>
      <trkpt lat="44.01703" lon="2.59902">
        <ele>489</ele>
        <time>2021-10-31T08:30:33.000Z</time>
      </trkpt>
      <trkpt lat="44.01704" lon="2.59902">
        <ele>489</ele>
        <time>2021-10-31T08:30:34.000Z</time>
      </trkpt>
      <trkpt lat="44.01705" lon="2.59902">
        <ele>489</ele>
        <time>2021-10-31T08:30:35.000Z</time>
      </trkpt>
      <trkpt lat="44.01706" lon="2.59902">
        <ele>489</ele>
        <time>2021-10-31T08:30:36.000Z</time>
      </trkpt>
      <trkpt lat="44.01707" lon="2.59902">
        <ele>489</ele>
        <time>2021-10-31T08:30:37.000Z</time>
      </trkpt>
      <trkpt lat="44.01707" lon="2.59901">
        <ele>490</ele>
        <time>2021-10-31T08:30:38.000Z</time>
      </trkpt>
      <trkpt lat="44.01708" lon="2.59901">
        <ele>490</ele>
        <time>2021-10-31T08:30:39.000Z</time>
      </trkpt>
      <trkpt lat="44.01709" lon="2.59901">
        <ele>490</ele>
        <time>2021-10-31T08:30:40.000Z</time>
      </trkpt>
      <trkpt lat="44.0171" lon="2.59901">
        <ele>490</ele>
        <time>2021-10-31T08:30:41.000Z</time>
      </trkpt>
      <trkpt lat="44.01711" lon="2.599">
        <ele>491</ele>
        <time>2021-10-31T08:30:42.000Z</time>
      </trkpt>
      <trkpt lat="44.01712" lon="2.599">
        <ele>491</ele>
        <time>2021-10-31T08:30:43.000Z</time>
      </trkpt>
      <trkpt lat="44.01713" lon="2.599">
        <ele>491</ele>
        <time>2021-10-31T08:30:44.000Z</time>
      </trkpt>
      <trkpt lat="44.01714" lon="2.599">
        <ele>491</ele>
        <time>2021-10-31T08:30:45.000Z</time>
      </trkpt>
      <trkpt lat="44.01715" lon="2.599">
        <ele>491</ele>
        <time>2021-10-31T08:30:46.000Z</time>
      </trkpt>
      <trkpt lat="44.01716" lon="2.599">
        <ele>491</ele>
        <time>2021-10-31T08:30:47.000Z</time>
      </trkpt>
      <trkpt lat="44.01716" lon="2.599">
        <ele>491</ele>
        <time>2021-10-31T08:30:48.000Z</time>
      </trkpt>
      <trkpt lat="44.01717" lon="2.599">
        <ele>492</ele>
        <time>2021-10-31T08:30:49.000Z</time>
      </trkpt>
      <trkpt lat="44.01718" lon="2.599">
        <ele>492</ele>
        <time>2021-10-31T08:30:50.000Z</time>
      </trkpt>
      <trkpt lat="44.01719" lon="2.599">
        <ele>492</ele>
        <time>2021-10-31T08:30:51.000Z</time>
      </trkpt>
      <trkpt lat="44.0172" lon="2.59901">
        <ele>492</ele>
        <time>2021-10-31T08:30:52.000Z</time>
      </trkpt>
      <trkpt lat="44.01721" lon="2.59901">
        <ele>492</ele>
        <time>2021-10-31T08:30:53.000Z</time>
      </trkpt>
      <trkpt lat="44.01722" lon="2.59901">
        <ele>492</ele>
        <time>2021-10-31T08:30:54.000Z</time>
      </trkpt>
      <trkpt lat="44.01723" lon="2.59901">
        <ele>492</ele>
        <time>2021-10-31T08:30:55.000Z</time>
      </trkpt>
      <trkpt lat="44.01723" lon="2.59901">
        <ele>492</ele>
        <time>2021-10-31T08:30:56.000Z</time>
      </trkpt>
      <trkpt lat="44.01724" lon="2.59902">
        <ele>492</ele>
        <time>2021-10-31T08:30:57.000Z</time>
      </trkpt>
      <trkpt lat="44.01725" lon="2.59902">
        <ele>492</ele>
        <time>2021-10-31T08:30:58.000Z</time>
      </trkpt>
      <trkpt lat="44.01726" lon="2.59902">
        <ele>492</ele>
        <time>2021-10-31T08:30:59.000Z</time>
      </trkpt>
      <trkpt lat="44.01726" lon="2.59902">
        <ele>493</ele>
        <time>2021-10-31T08:31:00.000Z</time>
      </trkpt>
      <trkpt lat="44.01727" lon="2.59901">
        <ele>493</ele>
        <time>2021-10-31T08:31:01.000Z</time>
      </trkpt>
      <trkpt lat="44.01728" lon="2.59901">
        <ele>493</ele>
        <time>2021-10-31T08:31:02.000Z</time>
      </trkpt>
      <trkpt lat="44.01728" lon="2.59901">
        <ele>493</ele>
        <time>2021-10-31T08:31:03.000Z</time>
      </trkpt>
      <trkpt lat="44.01728" lon="2.599">
        <ele>493</ele>
        <time>2021-10-31T08:31:04.000Z</time>
      </trkpt>
      <trkpt lat="44.01729" lon="2.59899">
        <ele>493</ele>
        <time>2021-10-31T08:31:05.000Z</time>
      </trkpt>
      <trkpt lat="44.01729" lon="2.59898">
        <ele>494</ele>
        <time>2021-10-31T08:31:06.000Z</time>
      </trkpt>
      <trkpt lat="44.0173" lon="2.59898">
        <ele>494</ele>
        <time>2021-10-31T08:31:07.000Z</time>
      </trkpt>
      <trkpt lat="44.01731" lon="2.59898">
        <ele>494</ele>
        <time>2021-10-31T08:31:08.000Z</time>
      </trkpt>
      <trkpt lat="44.01732" lon="2.59898">
        <ele>494</ele>
        <time>2021-10-31T08:31:09.000Z</time>
      </trkpt>
      <trkpt lat="44.01732" lon="2.59898">
        <ele>494</ele>
        <time>2021-10-31T08:31:10.000Z</time>
      </trkpt>
      <trkpt lat="44.01733" lon="2.59899">
        <ele>495</ele>
        <time>2021-10-31T08:31:11.000Z</time>
      </trkpt>
      <trkpt lat="44.01734" lon="2.599">
        <ele>495</ele>
        <time>2021-10-31T08:31:12.000Z</time>
      </trkpt>
      <trkpt lat="44.01734" lon="2.599">
        <ele>495</ele>
        <time>2021-10-31T08:31:13.000Z</time>
      </trkpt>
      <trkpt lat="44.01735" lon="2.59901">
        <ele>495</ele>
        <time>2021-10-31T08:31:14.000Z</time>
      </trkpt>
      <trkpt lat="44.01736" lon="2.59902">
        <ele>495</ele>
        <time>2021-10-31T08:31:15.000Z</time>
      </trkpt>
      <trkpt lat="44.01737" lon="2.59903">
        <ele>495</ele>
        <time>2021-10-31T08:31:16.000Z</time>
      </trkpt>
      <trkpt lat="44.01737" lon="2.59904">
        <ele>495</ele>
        <time>2021-10-31T08:31:17.000Z</time>
      </trkpt>
      <trkpt lat="44.01738" lon="2.59904">
        <ele>495</ele>
        <time>2021-10-31T08:31:18.000Z</time>
      </trkpt>
      <trkpt lat="44.01739" lon="2.59905">
        <ele>495</ele>
        <time>2021-10-31T08:31:19.000Z</time>
      </trkpt>
      <trkpt lat="44.0174" lon="2.59905">
        <ele>495</ele>
        <time>2021-10-31T08:31:20.000Z</time>
      </trkpt>
      <trkpt lat="44.01741" lon="2.59905">
        <ele>496</ele>
        <time>2021-10-31T08:31:21.000Z</time>
      </trkpt>
      <trkpt lat="44.01741" lon="2.59905">
        <ele>496</ele>
        <time>2021-10-31T08:31:22.000Z</time>
      </trkpt>
      <trkpt lat="44.01742" lon="2.59905">
        <ele>496</ele>
        <time>2021-10-31T08:31:23.000Z</time>
      </trkpt>
      <trkpt lat="44.01743" lon="2.59906">
        <ele>496</ele>
        <time>2021-10-31T08:31:24.000Z</time>
      </trkpt>
      <trkpt lat="44.01744" lon="2.59906">
        <ele>496</ele>
        <time>2021-10-31T08:31:25.000Z</time>
      </trkpt>
      <trkpt lat="44.01744" lon="2.59906">
        <ele>496</ele>
        <time>2021-10-31T08:31:26.000Z</time>
      </trkpt>
      <trkpt lat="44.01745" lon="2.59906">
        <ele>496</ele>
        <time>2021-10-31T08:31:27.000Z</time>
      </trkpt>
      <trkpt lat="44.01746" lon="2.59907">
        <ele>496</ele>
        <time>2021-10-31T08:31:28.000Z</time>
      </trkpt>
      <trkpt lat="44.01747" lon="2.59907">
        <ele>496</ele>
        <time>2021-10-31T08:31:29.000Z</time>
      </trkpt>
      <trkpt lat="44.01747" lon="2.59907">
        <ele>496</ele>
        <time>2021-10-31T08:31:30.000Z</time>
      </trkpt>
      <trkpt lat="44.01748" lon="2.59907">
        <ele>496</ele>
        <time>2021-10-31T08:31:31.000Z</time>
      </trkpt>
      <trkpt lat="44.01749" lon="2.59908">
        <ele>496</ele>
        <time>2021-10-31T08:31:32.000Z</time>
      </trkpt>
      <trkpt lat="44.0175" lon="2.59908">
        <ele>496</ele>
        <time>2021-10-31T08:31:33.000Z</time>
      </trkpt>
      <trkpt lat="44.01751" lon="2.59908">
        <ele>496</ele>
        <time>2021-10-31T08:31:34.000Z</time>
      </trkpt>
      <trkpt lat="44.01752" lon="2.59908">
        <ele>496</ele>
        <time>2021-10-31T08:31:35.000Z</time>
      </trkpt>
      <trkpt lat="44.01752" lon="2.59908">
        <ele>497</ele>
        <time>2021-10-31T08:31:36.000Z</time>
      </trkpt>
      <trkpt lat="44.01753" lon="2.59909">
        <ele>497</ele>
        <time>2021-10-31T08:31:37.000Z</time>
      </trkpt>
      <trkpt lat="44.01754" lon="2.5991">
        <ele>497</ele>
        <time>2021-10-31T08:31:38.000Z</time>
      </trkpt>
      <trkpt lat="44.01754" lon="2.59911">
        <ele>497</ele>
        <time>2021-10-31T08:31:39.000Z</time>
      </trkpt>
      <trkpt lat="44.01755" lon="2.59911">
        <ele>497</ele>
        <time>2021-10-31T08:31:40.000Z</time>
      </trkpt>
      <trkpt lat="44.01756" lon="2.59912">
        <ele>497</ele>
        <time>2021-10-31T08:31:41.000Z</time>
      </trkpt>
      <trkpt lat="44.01757" lon="2.59912">
        <ele>497</ele>
        <time>2021-10-31T08:31:42.000Z</time>
      </trkpt>
      <trkpt lat="44.01758" lon="2.59912">
        <ele>497</ele>
        <time>2021-10-31T08:31:43.000Z</time>
      </trkpt>
      <trkpt lat="44.01759" lon="2.59913">
        <ele>497</ele>
        <time>2021-10-31T08:31:44.000Z</time>
      </trkpt>
      <trkpt lat="44.01759" lon="2.59913">
        <ele>497</ele>
        <time>2021-10-31T08:31:45.000Z</time>
      </trkpt>
      <trkpt lat="44.0176" lon="2.59913">
        <ele>497</ele>
        <time>2021-10-31T08:31:46.000Z</time>
      </trkpt>
      <trkpt lat="44.01761" lon="2.59913">
        <ele>497</ele>
        <time>2021-10-31T08:31:47.000Z</time>
      </trkpt>
      <trkpt lat="44.01762" lon="2.59914">
        <ele>497</ele>
        <time>2021-10-31T08:31:48.000Z</time>
      </trkpt>
      <trkpt lat="44.01763" lon="2.59914">
        <ele>497</ele>
        <time>2021-10-31T08:31:49.000Z</time>
      </trkpt>
      <trkpt lat="44.01763" lon="2.59915">
        <ele>498</ele>
        <time>2021-10-31T08:31:50.000Z</time>
      </trkpt>
      <trkpt lat="44.01764" lon="2.59915">
        <ele>498</ele>
        <time>2021-10-31T08:31:51.000Z</time>
      </trkpt>
      <trkpt lat="44.01765" lon="2.59916">
        <ele>498</ele>
        <time>2021-10-31T08:31:52.000Z</time>
      </trkpt>
      <trkpt lat="44.01766" lon="2.59916">
        <ele>498</ele>
        <time>2021-10-31T08:31:53.000Z</time>
      </trkpt>
      <trkpt lat="44.01767" lon="2.59916">
        <ele>498</ele>
        <time>2021-10-31T08:31:54.000Z</time>
      </trkpt>
      <trkpt lat="44.01768" lon="2.59917">
        <ele>498</ele>
        <time>2021-10-31T08:31:55.000Z</time>
      </trkpt>
      <trkpt lat="44.01768" lon="2.59917">
        <ele>498</ele>
        <time>2021-10-31T08:31:56.000Z</time>
      </trkpt>
      <trkpt lat="44.01769" lon="2.59918">
        <ele>498</ele>
        <time>2021-10-31T08:31:57.000Z</time>
      </trkpt>
      <trkpt lat="44.0177" lon="2.59918">
        <ele>498</ele>
        <time>2021-10-31T08:31:58.000Z</time>
      </trkpt>
      <trkpt lat="44.01771" lon="2.59919">
        <ele>498</ele>
        <time>2021-10-31T08:31:59.000Z</time>
      </trkpt>
      <trkpt lat="44.01772" lon="2.59919">
        <ele>498</ele>
        <time>2021-10-31T08:32:00.000Z</time>
      </trkpt>
      <trkpt lat="44.01773" lon="2.59919">
        <ele>498</ele>
        <time>2021-10-31T08:32:01.000Z</time>
      </trkpt>
      <trkpt lat="44.01774" lon="2.5992">
        <ele>498</ele>
        <time>2021-10-31T08:32:02.000Z</time>
      </trkpt>
      <trkpt lat="44.01774" lon="2.5992">
        <ele>499</ele>
        <time>2021-10-31T08:32:03.000Z</time>
      </trkpt>
      <trkpt lat="44.01775" lon="2.59921">
        <ele>499</ele>
        <time>2021-10-31T08:32:04.000Z</time>
      </trkpt>
      <trkpt lat="44.01776" lon="2.59921">
        <ele>499</ele>
        <time>2021-10-31T08:32:05.000Z</time>
      </trkpt>
      <trkpt lat="44.01777" lon="2.59922">
        <ele>499</ele>
        <time>2021-10-31T08:32:06.000Z</time>
      </trkpt>
      <trkpt lat="44.01778" lon="2.59922">
        <ele>499</ele>
        <time>2021-10-31T08:32:07.000Z</time>
      </trkpt>
      <trkpt lat="44.01779" lon="2.59923">
        <ele>499</ele>
        <time>2021-10-31T08:32:08.000Z</time>
      </trkpt>
      <trkpt lat="44.01779" lon="2.59923">
        <ele>499</ele>
        <time>2021-10-31T08:32:09.000Z</time>
      </trkpt>
      <trkpt lat="44.0178" lon="2.59924">
        <ele>499</ele>
        <time>2021-10-31T08:32:10.000Z</time>
      </trkpt>
      <trkpt lat="44.01781" lon="2.59924">
        <ele>499</ele>
        <time>2021-10-31T08:32:11.000Z</time>
      </trkpt>
      <trkpt lat="44.01782" lon="2.59925">
        <ele>499</ele>
        <time>2021-10-31T08:32:12.000Z</time>
      </trkpt>
      <trkpt lat="44.01783" lon="2.59925">
        <ele>499</ele>
        <time>2021-10-31T08:32:13.000Z</time>
      </trkpt>
      <trkpt lat="44.01784" lon="2.59926">
        <ele>499</ele>
        <time>2021-10-31T08:32:14.000Z</time>
      </trkpt>
      <trkpt lat="44.01785" lon="2.59927">
        <ele>499</ele>
        <time>2021-10-31T08:32:15.000Z</time>
      </trkpt>
      <trkpt lat="44.01785" lon="2.59927">
        <ele>499</ele>
        <time>2021-10-31T08:32:16.000Z</time>
      </trkpt>
      <trkpt lat="44.01786" lon="2.59928">
        <ele>499</ele>
        <time>2021-10-31T08:32:17.000Z</time>
      </trkpt>
      <trkpt lat="44.01787" lon="2.59928">
        <ele>499</ele>
        <time>2021-10-31T08:32:18.000Z</time>
      </trkpt>
      <trkpt lat="44.01788" lon="2.59928">
        <ele>499</ele>
        <time>2021-10-31T08:32:19.000Z</time>
      </trkpt>
      <trkpt lat="44.01789" lon="2.59929">
        <ele>500</ele>
        <time>2021-10-31T08:32:20.000Z</time>
      </trkpt>
      <trkpt lat="44.0179" lon="2.59929">
        <ele>500</ele>
        <time>2021-10-31T08:32:21.000Z</time>
      </trkpt>
      <trkpt lat="44.0179" lon="2.5993">
        <ele>500</ele>
        <time>2021-10-31T08:32:22.000Z</time>
      </trkpt>
      <trkpt lat="44.01791" lon="2.5993">
        <ele>500</ele>
        <time>2021-10-31T08:32:23.000Z</time>
      </trkpt>
      <trkpt lat="44.01792" lon="2.59931">
        <ele>500</ele>
        <time>2021-10-31T08:32:24.000Z</time>
      </trkpt>
      <trkpt lat="44.01793" lon="2.59931">
        <ele>500</ele>
        <time>2021-10-31T08:32:25.000Z</time>
      </trkpt>
      <trkpt lat="44.01794" lon="2.59932">
        <ele>500</ele>
        <time>2021-10-31T08:32:26.000Z</time>
      </trkpt>
      <trkpt lat="44.01795" lon="2.59932">
        <ele>500</ele>
        <time>2021-10-31T08:32:27.000Z</time>
      </trkpt>
      <trkpt lat="44.01796" lon="2.59932">
        <ele>500</ele>
        <time>2021-10-31T08:32:28.000Z</time>
      </trkpt>
      <trkpt lat="44.01797" lon="2.59933">
        <ele>500</ele>
        <time>2021-10-31T08:32:29.000Z</time>
      </trkpt>
      <trkpt lat="44.01797" lon="2.59933">
        <ele>500</ele>
        <time>2021-10-31T08:32:30.000Z</time>
      </trkpt>
      <trkpt lat="44.01798" lon="2.59934">
        <ele>501</ele>
        <time>2021-10-31T08:32:31.000Z</time>
      </trkpt>
      <trkpt lat="44.01799" lon="2.59934">
        <ele>501</ele>
        <time>2021-10-31T08:32:32.000Z</time>
      </trkpt>
      <trkpt lat="44.018" lon="2.59934">
        <ele>501</ele>
        <time>2021-10-31T08:32:33.000Z</time>
      </trkpt>
      <trkpt lat="44.01801" lon="2.59935">
        <ele>501</ele>
        <time>2021-10-31T08:32:34.000Z</time>
      </trkpt>
      <trkpt lat="44.01802" lon="2.59935">
        <ele>501</ele>
        <time>2021-10-31T08:32:35.000Z</time>
      </trkpt>
      <trkpt lat="44.01802" lon="2.59936">
        <ele>501</ele>
        <time>2021-10-31T08:32:36.000Z</time>
      </trkpt>
      <trkpt lat="44.01803" lon="2.59936">
        <ele>502</ele>
        <time>2021-10-31T08:32:37.000Z</time>
      </trkpt>
      <trkpt lat="44.01804" lon="2.59937">
        <ele>502</ele>
        <time>2021-10-31T08:32:38.000Z</time>
      </trkpt>
      <trkpt lat="44.01805" lon="2.59937">
        <ele>502</ele>
        <time>2021-10-31T08:32:39.000Z</time>
      </trkpt>
      <trkpt lat="44.01806" lon="2.59938">
        <ele>502</ele>
        <time>2021-10-31T08:32:40.000Z</time>
      </trkpt>
      <trkpt lat="44.01807" lon="2.59938">
        <ele>502</ele>
        <time>2021-10-31T08:32:41.000Z</time>
      </trkpt>
      <trkpt lat="44.01807" lon="2.59939">
        <ele>502</ele>
        <time>2021-10-31T08:32:42.000Z</time>
      </trkpt>
      <trkpt lat="44.01808" lon="2.59939">
        <ele>503</ele>
        <time>2021-10-31T08:32:43.000Z</time>
      </trkpt>
      <trkpt lat="44.01809" lon="2.59939">
        <ele>503</ele>
        <time>2021-10-31T08:32:44.000Z</time>
      </trkpt>
      <trkpt lat="44.0181" lon="2.5994">
        <ele>503</ele>
        <time>2021-10-31T08:32:45.000Z</time>
      </trkpt>
      <trkpt lat="44.01811" lon="2.5994">
        <ele>503</ele>
        <time>2021-10-31T08:32:46.000Z</time>
      </trkpt>
      <trkpt lat="44.01812" lon="2.59941">
        <ele>503</ele>
        <time>2021-10-31T08:32:47.000Z</time>
      </trkpt>
      <trkpt lat="44.01812" lon="2.59941">
        <ele>503</ele>
        <time>2021-10-31T08:32:48.000Z</time>
      </trkpt>
      <trkpt lat="44.01813" lon="2.59942">
        <ele>504</ele>
        <time>2021-10-31T08:32:49.000Z</time>
      </trkpt>
      <trkpt lat="44.01814" lon="2.59943">
        <ele>504</ele>
        <time>2021-10-31T08:32:50.000Z</time>
      </trkpt>
      <trkpt lat="44.01815" lon="2.59943">
        <ele>504</ele>
        <time>2021-10-31T08:32:51.000Z</time>
      </trkpt>
      <trkpt lat="44.01815" lon="2.59944">
        <ele>504</ele>
        <time>2021-10-31T08:32:52.000Z</time>
      </trkpt>
      <trkpt lat="44.01816" lon="2.59945">
        <ele>504</ele>
        <time>2021-10-31T08:32:53.000Z</time>
      </trkpt>
      <trkpt lat="44.01817" lon="2.59946">
        <ele>504</ele>
        <time>2021-10-31T08:32:54.000Z</time>
      </trkpt>
      <trkpt lat="44.01818" lon="2.59946">
        <ele>505</ele>
        <time>2021-10-31T08:32:55.000Z</time>
      </trkpt>
      <trkpt lat="44.01818" lon="2.59947">
        <ele>505</ele>
        <time>2021-10-31T08:32:56.000Z</time>
      </trkpt>
      <trkpt lat="44.01819" lon="2.59947">
        <ele>505</ele>
        <time>2021-10-31T08:32:57.000Z</time>
      </trkpt>
      <trkpt lat="44.0182" lon="2.59948">
        <ele>505</ele>
        <time>2021-10-31T08:32:58.000Z</time>
      </trkpt>
      <trkpt lat="44.01821" lon="2.59948">
        <ele>505</ele>
        <time>2021-10-31T08:32:59.000Z</time>
      </trkpt>
      <trkpt lat="44.01821" lon="2.59949">
        <ele>505</ele>
        <time>2021-10-31T08:33:00.000Z</time>
      </trkpt>
      <trkpt lat="44.01822" lon="2.5995">
        <ele>506</ele>
        <time>2021-10-31T08:33:01.000Z</time>
      </trkpt>
      <trkpt lat="44.01823" lon="2.5995">
        <ele>506</ele>
        <time>2021-10-31T08:33:02.000Z</time>
      </trkpt>
      <trkpt lat="44.01823" lon="2.59951">
        <ele>506</ele>
        <time>2021-10-31T08:33:03.000Z</time>
      </trkpt>
      <trkpt lat="44.01824" lon="2.59952">
        <ele>506</ele>
        <time>2021-10-31T08:33:04.000Z</time>
      </trkpt>
      <trkpt lat="44.01824" lon="2.59952">
        <ele>506</ele>
        <time>2021-10-31T08:33:05.000Z</time>
      </trkpt>
      <trkpt lat="44.01825" lon="2.59952">
        <ele>507</ele>
        <time>2021-10-31T08:33:06.000Z</time>
      </trkpt>
      <trkpt lat="44.01825" lon="2.59953">
        <ele>507</ele>
        <time>2021-10-31T08:33:07.000Z</time>
      </trkpt>
      <trkpt lat="44.01825" lon="2.59953">
        <ele>507</ele>
        <time>2021-10-31T08:33:08.000Z</time>
      </trkpt>
      <trkpt lat="44.01826" lon="2.59953">
        <ele>507</ele>
        <time>2021-10-31T08:33:09.000Z</time>
      </trkpt>
      <trkpt lat="44.01826" lon="2.59954">
        <ele>507</ele>
        <time>2021-10-31T08:33:10.000Z</time>
      </trkpt>
      <trkpt lat="44.01827" lon="2.59955">
        <ele>507</ele>
        <time>2021-10-31T08:33:11.000Z</time>
      </trkpt>
      <trkpt lat="44.01828" lon="2.59956">
        <ele>507</ele>
        <time>2021-10-31T08:33:12.000Z</time>
      </trkpt>
      <trkpt lat="44.01828" lon="2.59956">
        <ele>508</ele>
        <time>2021-10-31T08:33:13.000Z</time>
      </trkpt>
      <trkpt lat="44.01829" lon="2.59957">
        <ele>508</ele>
        <time>2021-10-31T08:33:14.000Z</time>
      </trkpt>
      <trkpt lat="44.01829" lon="2.59957">
        <ele>508</ele>
        <time>2021-10-31T08:33:15.000Z</time>
      </trkpt>
      <trkpt lat="44.0183" lon="2.59958">
        <ele>508</ele>
        <time>2021-10-31T08:33:16.000Z</time>
      </trkpt>
      <trkpt lat="44.0183" lon="2.59958">
        <ele>508</ele>
        <time>2021-10-31T08:33:17.000Z</time>
      </trkpt>
      <trkpt lat="44.01831" lon="2.59959">
        <ele>508</ele>
        <time>2021-10-31T08:33:18.000Z</time>
      </trkpt>
      <trkpt lat="44.01831" lon="2.5996">
        <ele>509</ele>
        <time>2021-10-31T08:33:19.000Z</time>
      </trkpt>
      <trkpt lat="44.01832" lon="2.5996">
        <ele>509</ele>
        <time>2021-10-31T08:33:20.000Z</time>
      </trkpt>
      <trkpt lat="44.01832" lon="2.59961">
        <ele>509</ele>
        <time>2021-10-31T08:33:21.000Z</time>
      </trkpt>
      <trkpt lat="44.01832" lon="2.59961">
        <ele>509</ele>
        <time>2021-10-31T08:33:22.000Z</time>
      </trkpt>
      <trkpt lat="44.01833" lon="2.59962">
        <ele>509</ele>
        <time>2021-10-31T08:33:23.000Z</time>
      </trkpt>
      <trkpt lat="44.01833" lon="2.59963">
        <ele>509</ele>
        <time>2021-10-31T08:33:24.000Z</time>
      </trkpt>
      <trkpt lat="44.01833" lon="2.59964">
        <ele>510</ele>
        <time>2021-10-31T08:33:25.000Z</time>
      </trkpt>
      <trkpt lat="44.01834" lon="2.59964">
        <ele>510</ele>
        <time>2021-10-31T08:33:26.000Z</time>
      </trkpt>
      <trkpt lat="44.01834" lon="2.59965">
        <ele>510</ele>
        <time>2021-10-31T08:33:27.000Z</time>
      </trkpt>
      <trkpt lat="44.01835" lon="2.59965">
        <ele>510</ele>
        <time>2021-10-31T08:33:28.000Z</time>
      </trkpt>
      <trkpt lat="44.01835" lon="2.59965">
        <ele>510</ele>
        <time>2021-10-31T08:33:29.000Z</time>
      </trkpt>
      <trkpt lat="44.01835" lon="2.59966">
        <ele>510</ele>
        <time>2021-10-31T08:33:30.000Z</time>
      </trkpt>
      <trkpt lat="44.01835" lon="2.59966">
        <ele>510</ele>
        <time>2021-10-31T08:33:31.000Z</time>
      </trkpt>
      <trkpt lat="44.01837" lon="2.59967">
        <ele>511</ele>
        <time>2021-10-31T08:33:32.000Z</time>
      </trkpt>
      <trkpt lat="44.01837" lon="2.59968">
        <ele>511</ele>
        <time>2021-10-31T08:33:33.000Z</time>
      </trkpt>
      <trkpt lat="44.01838" lon="2.59969">
        <ele>511</ele>
        <time>2021-10-31T08:33:34.000Z</time>
      </trkpt>
      <trkpt lat="44.01838" lon="2.59969">
        <ele>511</ele>
        <time>2021-10-31T08:33:35.000Z</time>
      </trkpt>
      <trkpt lat="44.01838" lon="2.5997">
        <ele>511</ele>
        <time>2021-10-31T08:33:36.000Z</time>
      </trkpt>
      <trkpt lat="44.01839" lon="2.5997">
        <ele>511</ele>
        <time>2021-10-31T08:33:37.000Z</time>
      </trkpt>
      <trkpt lat="44.01839" lon="2.5997">
        <ele>511</ele>
        <time>2021-10-31T08:33:38.000Z</time>
      </trkpt>
      <trkpt lat="44.0184" lon="2.5997">
        <ele>511</ele>
        <time>2021-10-31T08:33:39.000Z</time>
      </trkpt>
      <trkpt lat="44.0184" lon="2.5997">
        <ele>511</ele>
        <time>2021-10-31T08:33:40.000Z</time>
      </trkpt>
      <trkpt lat="44.01841" lon="2.5997">
        <ele>511</ele>
        <time>2021-10-31T08:33:41.000Z</time>
      </trkpt>
      <trkpt lat="44.01842" lon="2.59969">
        <ele>511</ele>
        <time>2021-10-31T08:33:42.000Z</time>
      </trkpt>
      <trkpt lat="44.01842" lon="2.59969">
        <ele>511</ele>
        <time>2021-10-31T08:33:43.000Z</time>
      </trkpt>
      <trkpt lat="44.01842" lon="2.59969">
        <ele>511</ele>
        <time>2021-10-31T08:33:44.000Z</time>
      </trkpt>
      <trkpt lat="44.01842" lon="2.5997">
        <ele>511</ele>
        <time>2021-10-31T08:33:45.000Z</time>
      </trkpt>
      <trkpt lat="44.01842" lon="2.5997">
        <ele>511</ele>
        <time>2021-10-31T08:33:46.000Z</time>
      </trkpt>
      <trkpt lat="44.01843" lon="2.59971">
        <ele>511</ele>
        <time>2021-10-31T08:33:47.000Z</time>
      </trkpt>
      <trkpt lat="44.01844" lon="2.59972">
        <ele>511</ele>
        <time>2021-10-31T08:33:48.000Z</time>
      </trkpt>
      <trkpt lat="44.01844" lon="2.59974">
        <ele>511</ele>
        <time>2021-10-31T08:33:49.000Z</time>
      </trkpt>
      <trkpt lat="44.01845" lon="2.59975">
        <ele>511</ele>
        <time>2021-10-31T08:33:50.000Z</time>
      </trkpt>
      <trkpt lat="44.01846" lon="2.59976">
        <ele>511</ele>
        <time>2021-10-31T08:33:51.000Z</time>
      </trkpt>
      <trkpt lat="44.01846" lon="2.59978">
        <ele>511</ele>
        <time>2021-10-31T08:33:52.000Z</time>
      </trkpt>
      <trkpt lat="44.01847" lon="2.59978">
        <ele>511</ele>
        <time>2021-10-31T08:33:53.000Z</time>
      </trkpt>
      <trkpt lat="44.01848" lon="2.5998">
        <ele>511</ele>
        <time>2021-10-31T08:33:54.000Z</time>
      </trkpt>
      <trkpt lat="44.01849" lon="2.59981">
        <ele>511</ele>
        <time>2021-10-31T08:33:55.000Z</time>
      </trkpt>
      <trkpt lat="44.0185" lon="2.59982">
        <ele>511</ele>
        <time>2021-10-31T08:33:56.000Z</time>
      </trkpt>
      <trkpt lat="44.01851" lon="2.59983">
        <ele>511</ele>
        <time>2021-10-31T08:33:57.000Z</time>
      </trkpt>
      <trkpt lat="44.01852" lon="2.59984">
        <ele>511</ele>
        <time>2021-10-31T08:33:58.000Z</time>
      </trkpt>
      <trkpt lat="44.01853" lon="2.59985">
        <ele>511</ele>
        <time>2021-10-31T08:33:59.000Z</time>
      </trkpt>
      <trkpt lat="44.01854" lon="2.59986">
        <ele>512</ele>
        <time>2021-10-31T08:34:00.000Z</time>
      </trkpt>
      <trkpt lat="44.01855" lon="2.59987">
        <ele>512</ele>
        <time>2021-10-31T08:34:01.000Z</time>
      </trkpt>
      <trkpt lat="44.01855" lon="2.59989">
        <ele>512</ele>
        <time>2021-10-31T08:34:02.000Z</time>
      </trkpt>
      <trkpt lat="44.01856" lon="2.5999">
        <ele>512</ele>
        <time>2021-10-31T08:34:03.000Z</time>
      </trkpt>
      <trkpt lat="44.01857" lon="2.59991">
        <ele>512</ele>
        <time>2021-10-31T08:34:04.000Z</time>
      </trkpt>
      <trkpt lat="44.01858" lon="2.59992">
        <ele>512</ele>
        <time>2021-10-31T08:34:05.000Z</time>
      </trkpt>
      <trkpt lat="44.01858" lon="2.59993">
        <ele>512</ele>
        <time>2021-10-31T08:34:06.000Z</time>
      </trkpt>
      <trkpt lat="44.01859" lon="2.59994">
        <ele>512</ele>
        <time>2021-10-31T08:34:07.000Z</time>
      </trkpt>
      <trkpt lat="44.0186" lon="2.59996">
        <ele>512</ele>
        <time>2021-10-31T08:34:08.000Z</time>
      </trkpt>
      <trkpt lat="44.01861" lon="2.59997">
        <ele>513</ele>
        <time>2021-10-31T08:34:09.000Z</time>
      </trkpt>
      <trkpt lat="44.01862" lon="2.59998">
        <ele>513</ele>
        <time>2021-10-31T08:34:10.000Z</time>
      </trkpt>
      <trkpt lat="44.01862" lon="2.59999">
        <ele>513</ele>
        <time>2021-10-31T08:34:11.000Z</time>
      </trkpt>
      <trkpt lat="44.01863" lon="2.6">
        <ele>513</ele>
        <time>2021-10-31T08:34:12.000Z</time>
      </trkpt>
      <trkpt lat="44.01864" lon="2.60002">
        <ele>513</ele>
        <time>2021-10-31T08:34:13.000Z</time>
      </trkpt>
      <trkpt lat="44.01865" lon="2.60003">
        <ele>513</ele>
        <time>2021-10-31T08:34:14.000Z</time>
      </trkpt>
      <trkpt lat="44.01866" lon="2.60004">
        <ele>514</ele>
        <time>2021-10-31T08:34:15.000Z</time>
      </trkpt>
      <trkpt lat="44.01867" lon="2.60005">
        <ele>514</ele>
        <time>2021-10-31T08:34:16.000Z</time>
      </trkpt>
      <trkpt lat="44.01867" lon="2.60006">
        <ele>514</ele>
        <time>2021-10-31T08:34:17.000Z</time>
      </trkpt>
      <trkpt lat="44.01868" lon="2.60007">
        <ele>514</ele>
        <time>2021-10-31T08:34:18.000Z</time>
      </trkpt>
      <trkpt lat="44.01869" lon="2.60009">
        <ele>514</ele>
        <time>2021-10-31T08:34:19.000Z</time>
      </trkpt>
      <trkpt lat="44.0187" lon="2.6001">
        <ele>514</ele>
        <time>2021-10-31T08:34:20.000Z</time>
      </trkpt>
      <trkpt lat="44.01871" lon="2.60011">
        <ele>514</ele>
        <time>2021-10-31T08:34:21.000Z</time>
      </trkpt>
      <trkpt lat="44.01872" lon="2.60012">
        <ele>514</ele>
        <time>2021-10-31T08:34:22.000Z</time>
      </trkpt>
      <trkpt lat="44.01873" lon="2.60013">
        <ele>515</ele>
        <time>2021-10-31T08:34:23.000Z</time>
      </trkpt>
      <trkpt lat="44.01873" lon="2.60014">
        <ele>515</ele>
        <time>2021-10-31T08:34:24.000Z</time>
      </trkpt>
      <trkpt lat="44.01874" lon="2.60016">
        <ele>515</ele>
        <time>2021-10-31T08:34:25.000Z</time>
      </trkpt>
      <trkpt lat="44.01875" lon="2.60017">
        <ele>515</ele>
        <time>2021-10-31T08:34:26.000Z</time>
      </trkpt>
      <trkpt lat="44.01876" lon="2.60018">
        <ele>515</ele>
        <time>2021-10-31T08:34:27.000Z</time>
      </trkpt>
      <trkpt lat="44.01876" lon="2.60019">
        <ele>515</ele>
        <time>2021-10-31T08:34:28.000Z</time>
      </trkpt>
      <trkpt lat="44.01877" lon="2.60021">
        <ele>515</ele>
        <time>2021-10-31T08:34:29.000Z</time>
      </trkpt>
      <trkpt lat="44.01878" lon="2.60022">
        <ele>515</ele>
        <time>2021-10-31T08:34:30.000Z</time>
      </trkpt>
      <trkpt lat="44.01878" lon="2.60023">
        <ele>515</ele>
        <time>2021-10-31T08:34:31.000Z</time>
      </trkpt>
      <trkpt lat="44.01879" lon="2.60024">
        <ele>515</ele>
        <time>2021-10-31T08:34:32.000Z</time>
      </trkpt>
      <trkpt lat="44.01879" lon="2.60025">
        <ele>515</ele>
        <time>2021-10-31T08:34:33.000Z</time>
      </trkpt>
      <trkpt lat="44.0188" lon="2.60026">
        <ele>515</ele>
        <time>2021-10-31T08:34:34.000Z</time>
      </trkpt>
      <trkpt lat="44.01881" lon="2.60028">
        <ele>516</ele>
        <time>2021-10-31T08:34:35.000Z</time>
      </trkpt>
      <trkpt lat="44.01881" lon="2.60029">
        <ele>516</ele>
        <time>2021-10-31T08:34:36.000Z</time>
      </trkpt>
      <trkpt lat="44.01882" lon="2.6003">
        <ele>516</ele>
        <time>2021-10-31T08:34:37.000Z</time>
      </trkpt>
      <trkpt lat="44.01882" lon="2.60031">
        <ele>516</ele>
        <time>2021-10-31T08:34:38.000Z</time>
      </trkpt>
      <trkpt lat="44.01883" lon="2.60032">
        <ele>516</ele>
        <time>2021-10-31T08:34:39.000Z</time>
      </trkpt>
      <trkpt lat="44.01883" lon="2.60033">
        <ele>516</ele>
        <time>2021-10-31T08:34:40.000Z</time>
      </trkpt>
      <trkpt lat="44.01884" lon="2.60034">
        <ele>516</ele>
        <time>2021-10-31T08:34:41.000Z</time>
      </trkpt>
      <trkpt lat="44.01885" lon="2.60035">
        <ele>516</ele>
        <time>2021-10-31T08:34:42.000Z</time>
      </trkpt>
      <trkpt lat="44.01885" lon="2.60036">
        <ele>517</ele>
        <time>2021-10-31T08:34:43.000Z</time>
      </trkpt>
      <trkpt lat="44.01885" lon="2.60036">
        <ele>517</ele>
        <time>2021-10-31T08:34:44.000Z</time>
      </trkpt>
      <trkpt lat="44.01885" lon="2.60036">
        <ele>517</ele>
        <time>2021-10-31T08:34:45.000Z</time>
      </trkpt>
      <trkpt lat="44.01885" lon="2.60036">
        <ele>517</ele>
        <time>2021-10-31T08:34:46.000Z</time>
      </trkpt>
      <trkpt lat="44.01886" lon="2.60037">
        <ele>517</ele>
        <time>2021-10-31T08:34:47.000Z</time>
      </trkpt>
      <trkpt lat="44.01886" lon="2.60038">
        <ele>517</ele>
        <time>2021-10-31T08:34:48.000Z</time>
      </trkpt>
      <trkpt lat="44.01887" lon="2.60039">
        <ele>517</ele>
        <time>2021-10-31T08:34:49.000Z</time>
      </trkpt>
      <trkpt lat="44.01888" lon="2.60039">
        <ele>517</ele>
        <time>2021-10-31T08:34:50.000Z</time>
      </trkpt>
      <trkpt lat="44.01888" lon="2.6004">
        <ele>517</ele>
        <time>2021-10-31T08:34:51.000Z</time>
      </trkpt>
      <trkpt lat="44.01889" lon="2.60041">
        <ele>517</ele>
        <time>2021-10-31T08:34:52.000Z</time>
      </trkpt>
      <trkpt lat="44.0189" lon="2.60042">
        <ele>517</ele>
        <time>2021-10-31T08:34:53.000Z</time>
      </trkpt>
      <trkpt lat="44.0189" lon="2.60043">
        <ele>517</ele>
        <time>2021-10-31T08:34:54.000Z</time>
      </trkpt>
      <trkpt lat="44.01891" lon="2.60044">
        <ele>517</ele>
        <time>2021-10-31T08:34:55.000Z</time>
      </trkpt>
      <trkpt lat="44.01892" lon="2.60045">
        <ele>517</ele>
        <time>2021-10-31T08:34:56.000Z</time>
      </trkpt>
      <trkpt lat="44.01892" lon="2.60046">
        <ele>518</ele>
        <time>2021-10-31T08:34:57.000Z</time>
      </trkpt>
      <trkpt lat="44.01893" lon="2.60046">
        <ele>518</ele>
        <time>2021-10-31T08:34:58.000Z</time>
      </trkpt>
      <trkpt lat="44.01894" lon="2.60048">
        <ele>518</ele>
        <time>2021-10-31T08:34:59.000Z</time>
      </trkpt>
      <trkpt lat="44.01894" lon="2.60049">
        <ele>518</ele>
        <time>2021-10-31T08:35:00.000Z</time>
      </trkpt>
      <trkpt lat="44.01895" lon="2.6005">
        <ele>518</ele>
        <time>2021-10-31T08:35:01.000Z</time>
      </trkpt>
      <trkpt lat="44.01895" lon="2.6005">
        <ele>518</ele>
        <time>2021-10-31T08:35:02.000Z</time>
      </trkpt>
      <trkpt lat="44.01896" lon="2.60052">
        <ele>518</ele>
        <time>2021-10-31T08:35:03.000Z</time>
      </trkpt>
      <trkpt lat="44.01896" lon="2.60053">
        <ele>519</ele>
        <time>2021-10-31T08:35:04.000Z</time>
      </trkpt>
      <trkpt lat="44.01897" lon="2.60054">
        <ele>519</ele>
        <time>2021-10-31T08:35:05.000Z</time>
      </trkpt>
      <trkpt lat="44.01897" lon="2.60055">
        <ele>519</ele>
        <time>2021-10-31T08:35:06.000Z</time>
      </trkpt>
      <trkpt lat="44.01898" lon="2.60056">
        <ele>519</ele>
        <time>2021-10-31T08:35:07.000Z</time>
      </trkpt>
      <trkpt lat="44.01898" lon="2.60057">
        <ele>519</ele>
        <time>2021-10-31T08:35:08.000Z</time>
      </trkpt>
      <trkpt lat="44.01899" lon="2.60059">
        <ele>519</ele>
        <time>2021-10-31T08:35:09.000Z</time>
      </trkpt>
      <trkpt lat="44.019" lon="2.6006">
        <ele>519</ele>
        <time>2021-10-31T08:35:10.000Z</time>
      </trkpt>
      <trkpt lat="44.019" lon="2.60061">
        <ele>520</ele>
        <time>2021-10-31T08:35:11.000Z</time>
      </trkpt>
      <trkpt lat="44.01901" lon="2.60062">
        <ele>520</ele>
        <time>2021-10-31T08:35:12.000Z</time>
      </trkpt>
      <trkpt lat="44.01901" lon="2.60062">
        <ele>520</ele>
        <time>2021-10-31T08:35:13.000Z</time>
      </trkpt>
      <trkpt lat="44.01901" lon="2.60063">
        <ele>520</ele>
        <time>2021-10-31T08:35:14.000Z</time>
      </trkpt>
      <trkpt lat="44.01902" lon="2.60064">
        <ele>520</ele>
        <time>2021-10-31T08:35:15.000Z</time>
      </trkpt>
      <trkpt lat="44.01902" lon="2.60065">
        <ele>520</ele>
        <time>2021-10-31T08:35:16.000Z</time>
      </trkpt>
      <trkpt lat="44.01903" lon="2.60066">
        <ele>520</ele>
        <time>2021-10-31T08:35:17.000Z</time>
      </trkpt>
      <trkpt lat="44.01904" lon="2.60067">
        <ele>520</ele>
        <time>2021-10-31T08:35:18.000Z</time>
      </trkpt>
      <trkpt lat="44.01904" lon="2.60068">
        <ele>520</ele>
        <time>2021-10-31T08:35:19.000Z</time>
      </trkpt>
      <trkpt lat="44.01905" lon="2.60069">
        <ele>521</ele>
        <time>2021-10-31T08:35:20.000Z</time>
      </trkpt>
      <trkpt lat="44.01905" lon="2.6007">
        <ele>521</ele>
        <time>2021-10-31T08:35:21.000Z</time>
      </trkpt>
      <trkpt lat="44.01906" lon="2.60071">
        <ele>521</ele>
        <time>2021-10-31T08:35:22.000Z</time>
      </trkpt>
      <trkpt lat="44.01906" lon="2.60072">
        <ele>521</ele>
        <time>2021-10-31T08:35:23.000Z</time>
      </trkpt>
      <trkpt lat="44.01907" lon="2.60073">
        <ele>521</ele>
        <time>2021-10-31T08:35:24.000Z</time>
      </trkpt>
      <trkpt lat="44.01907" lon="2.60074">
        <ele>521</ele>
        <time>2021-10-31T08:35:25.000Z</time>
      </trkpt>
      <trkpt lat="44.01907" lon="2.60075">
        <ele>521</ele>
        <time>2021-10-31T08:35:26.000Z</time>
      </trkpt>
      <trkpt lat="44.01908" lon="2.60076">
        <ele>521</ele>
        <time>2021-10-31T08:35:27.000Z</time>
      </trkpt>
      <trkpt lat="44.01908" lon="2.60077">
        <ele>521</ele>
        <time>2021-10-31T08:35:28.000Z</time>
      </trkpt>
      <trkpt lat="44.01909" lon="2.60078">
        <ele>521</ele>
        <time>2021-10-31T08:35:29.000Z</time>
      </trkpt>
      <trkpt lat="44.01909" lon="2.60079">
        <ele>521</ele>
        <time>2021-10-31T08:35:30.000Z</time>
      </trkpt>
      <trkpt lat="44.0191" lon="2.6008">
        <ele>521</ele>
        <time>2021-10-31T08:35:31.000Z</time>
      </trkpt>
      <trkpt lat="44.0191" lon="2.60081">
        <ele>521</ele>
        <time>2021-10-31T08:35:32.000Z</time>
      </trkpt>
      <trkpt lat="44.01911" lon="2.60082">
        <ele>521</ele>
        <time>2021-10-31T08:35:33.000Z</time>
      </trkpt>
      <trkpt lat="44.01911" lon="2.60083">
        <ele>521</ele>
        <time>2021-10-31T08:35:34.000Z</time>
      </trkpt>
      <trkpt lat="44.01912" lon="2.60084">
        <ele>521</ele>
        <time>2021-10-31T08:35:35.000Z</time>
      </trkpt>
      <trkpt lat="44.01912" lon="2.60085">
        <ele>521</ele>
        <time>2021-10-31T08:35:36.000Z</time>
      </trkpt>
      <trkpt lat="44.01913" lon="2.60086">
        <ele>521</ele>
        <time>2021-10-31T08:35:37.000Z</time>
      </trkpt>
      <trkpt lat="44.01913" lon="2.60087">
        <ele>521</ele>
        <time>2021-10-31T08:35:38.000Z</time>
      </trkpt>
      <trkpt lat="44.01914" lon="2.60088">
        <ele>521</ele>
        <time>2021-10-31T08:35:39.000Z</time>
      </trkpt>
      <trkpt lat="44.01914" lon="2.60089">
        <ele>521</ele>
        <time>2021-10-31T08:35:40.000Z</time>
      </trkpt>
      <trkpt lat="44.01915" lon="2.6009">
        <ele>521</ele>
        <time>2021-10-31T08:35:41.000Z</time>
      </trkpt>
      <trkpt lat="44.01915" lon="2.60091">
        <ele>521</ele>
        <time>2021-10-31T08:35:42.000Z</time>
      </trkpt>
      <trkpt lat="44.01915" lon="2.60091">
        <ele>522</ele>
        <time>2021-10-31T08:35:43.000Z</time>
      </trkpt>
      <trkpt lat="44.01916" lon="2.60092">
        <ele>522</ele>
        <time>2021-10-31T08:35:44.000Z</time>
      </trkpt>
      <trkpt lat="44.01916" lon="2.60093">
        <ele>522</ele>
        <time>2021-10-31T08:35:45.000Z</time>
      </trkpt>
      <trkpt lat="44.01917" lon="2.60094">
        <ele>522</ele>
        <time>2021-10-31T08:35:46.000Z</time>
      </trkpt>
      <trkpt lat="44.01917" lon="2.60095">
        <ele>522</ele>
        <time>2021-10-31T08:35:47.000Z</time>
      </trkpt>
      <trkpt lat="44.01918" lon="2.60096">
        <ele>522</ele>
        <time>2021-10-31T08:35:48.000Z</time>
      </trkpt>
      <trkpt lat="44.01918" lon="2.60097">
        <ele>522</ele>
        <time>2021-10-31T08:35:49.000Z</time>
      </trkpt>
      <trkpt lat="44.01919" lon="2.60098">
        <ele>522</ele>
        <time>2021-10-31T08:35:50.000Z</time>
      </trkpt>
      <trkpt lat="44.01919" lon="2.60099">
        <ele>522</ele>
        <time>2021-10-31T08:35:51.000Z</time>
      </trkpt>
      <trkpt lat="44.0192" lon="2.601">
        <ele>522</ele>
        <time>2021-10-31T08:35:52.000Z</time>
      </trkpt>
      <trkpt lat="44.0192" lon="2.60101">
        <ele>522</ele>
        <time>2021-10-31T08:35:53.000Z</time>
      </trkpt>
      <trkpt lat="44.01921" lon="2.60102">
        <ele>522</ele>
        <time>2021-10-31T08:35:54.000Z</time>
      </trkpt>
      <trkpt lat="44.01921" lon="2.60103">
        <ele>522</ele>
        <time>2021-10-31T08:35:55.000Z</time>
      </trkpt>
      <trkpt lat="44.01921" lon="2.60104">
        <ele>522</ele>
        <time>2021-10-31T08:35:56.000Z</time>
      </trkpt>
      <trkpt lat="44.01922" lon="2.60104">
        <ele>522</ele>
        <time>2021-10-31T08:35:57.000Z</time>
      </trkpt>
      <trkpt lat="44.01923" lon="2.60105">
        <ele>522</ele>
        <time>2021-10-31T08:35:58.000Z</time>
      </trkpt>
      <trkpt lat="44.01923" lon="2.60106">
        <ele>522</ele>
        <time>2021-10-31T08:35:59.000Z</time>
      </trkpt>
      <trkpt lat="44.01924" lon="2.60106">
        <ele>522</ele>
        <time>2021-10-31T08:36:00.000Z</time>
      </trkpt>
      <trkpt lat="44.01924" lon="2.60107">
        <ele>523</ele>
        <time>2021-10-31T08:36:01.000Z</time>
      </trkpt>
      <trkpt lat="44.01924" lon="2.60108">
        <ele>523</ele>
        <time>2021-10-31T08:36:02.000Z</time>
      </trkpt>
      <trkpt lat="44.01924" lon="2.60109">
        <ele>523</ele>
        <time>2021-10-31T08:36:03.000Z</time>
      </trkpt>
      <trkpt lat="44.01925" lon="2.6011">
        <ele>523</ele>
        <time>2021-10-31T08:36:04.000Z</time>
      </trkpt>
      <trkpt lat="44.01925" lon="2.6011">
        <ele>523</ele>
        <time>2021-10-31T08:36:05.000Z</time>
      </trkpt>
      <trkpt lat="44.01926" lon="2.60111">
        <ele>523</ele>
        <time>2021-10-31T08:36:06.000Z</time>
      </trkpt>
      <trkpt lat="44.01926" lon="2.60112">
        <ele>523</ele>
        <time>2021-10-31T08:36:07.000Z</time>
      </trkpt>
      <trkpt lat="44.01927" lon="2.60113">
        <ele>523</ele>
        <time>2021-10-31T08:36:08.000Z</time>
      </trkpt>
      <trkpt lat="44.01927" lon="2.60114">
        <ele>523</ele>
        <time>2021-10-31T08:36:09.000Z</time>
      </trkpt>
      <trkpt lat="44.01928" lon="2.60115">
        <ele>524</ele>
        <time>2021-10-31T08:36:10.000Z</time>
      </trkpt>
      <trkpt lat="44.01929" lon="2.60116">
        <ele>524</ele>
        <time>2021-10-31T08:36:11.000Z</time>
      </trkpt>
      <trkpt lat="44.01929" lon="2.60117">
        <ele>524</ele>
        <time>2021-10-31T08:36:12.000Z</time>
      </trkpt>
      <trkpt lat="44.01929" lon="2.60117">
        <ele>524</ele>
        <time>2021-10-31T08:36:13.000Z</time>
      </trkpt>
      <trkpt lat="44.0193" lon="2.60117">
        <ele>525</ele>
        <time>2021-10-31T08:36:14.000Z</time>
      </trkpt>
      <trkpt lat="44.0193" lon="2.60118">
        <ele>525</ele>
        <time>2021-10-31T08:36:15.000Z</time>
      </trkpt>
      <trkpt lat="44.01931" lon="2.60119">
        <ele>525</ele>
        <time>2021-10-31T08:36:16.000Z</time>
      </trkpt>
      <trkpt lat="44.01932" lon="2.6012">
        <ele>525</ele>
        <time>2021-10-31T08:36:17.000Z</time>
      </trkpt>
      <trkpt lat="44.01933" lon="2.60121">
        <ele>525</ele>
        <time>2021-10-31T08:36:18.000Z</time>
      </trkpt>
      <trkpt lat="44.01933" lon="2.60122">
        <ele>526</ele>
        <time>2021-10-31T08:36:19.000Z</time>
      </trkpt>
      <trkpt lat="44.01934" lon="2.60123">
        <ele>526</ele>
        <time>2021-10-31T08:36:20.000Z</time>
      </trkpt>
      <trkpt lat="44.01935" lon="2.60124">
        <ele>526</ele>
        <time>2021-10-31T08:36:21.000Z</time>
      </trkpt>
      <trkpt lat="44.01935" lon="2.60125">
        <ele>526</ele>
        <time>2021-10-31T08:36:22.000Z</time>
      </trkpt>
      <trkpt lat="44.01936" lon="2.60126">
        <ele>526</ele>
        <time>2021-10-31T08:36:23.000Z</time>
      </trkpt>
      <trkpt lat="44.01937" lon="2.60127">
        <ele>527</ele>
        <time>2021-10-31T08:36:24.000Z</time>
      </trkpt>
      <trkpt lat="44.01937" lon="2.60128">
        <ele>527</ele>
        <time>2021-10-31T08:36:25.000Z</time>
      </trkpt>
      <trkpt lat="44.01938" lon="2.60129">
        <ele>527</ele>
        <time>2021-10-31T08:36:26.000Z</time>
      </trkpt>
      <trkpt lat="44.01938" lon="2.6013">
        <ele>527</ele>
        <time>2021-10-31T08:36:27.000Z</time>
      </trkpt>
      <trkpt lat="44.01939" lon="2.60132">
        <ele>527</ele>
        <time>2021-10-31T08:36:28.000Z</time>
      </trkpt>
      <trkpt lat="44.0194" lon="2.60133">
        <ele>527</ele>
        <time>2021-10-31T08:36:29.000Z</time>
      </trkpt>
      <trkpt lat="44.0194" lon="2.60134">
        <ele>527</ele>
        <time>2021-10-31T08:36:30.000Z</time>
      </trkpt>
      <trkpt lat="44.01941" lon="2.60135">
        <ele>527</ele>
        <time>2021-10-31T08:36:31.000Z</time>
      </trkpt>
      <trkpt lat="44.01941" lon="2.60136">
        <ele>528</ele>
        <time>2021-10-31T08:36:32.000Z</time>
      </trkpt>
      <trkpt lat="44.01942" lon="2.60137">
        <ele>528</ele>
        <time>2021-10-31T08:36:33.000Z</time>
      </trkpt>
      <trkpt lat="44.01943" lon="2.60138">
        <ele>528</ele>
        <time>2021-10-31T08:36:34.000Z</time>
      </trkpt>
      <trkpt lat="44.01943" lon="2.60139">
        <ele>528</ele>
        <time>2021-10-31T08:36:35.000Z</time>
      </trkpt>
      <trkpt lat="44.01944" lon="2.60141">
        <ele>528</ele>
        <time>2021-10-31T08:36:36.000Z</time>
      </trkpt>
      <trkpt lat="44.01944" lon="2.60142">
        <ele>528</ele>
        <time>2021-10-31T08:36:37.000Z</time>
      </trkpt>
      <trkpt lat="44.01945" lon="2.60143">
        <ele>528</ele>
        <time>2021-10-31T08:36:38.000Z</time>
      </trkpt>
      <trkpt lat="44.01945" lon="2.60144">
        <ele>528</ele>
        <time>2021-10-31T08:36:39.000Z</time>
      </trkpt>
      <trkpt lat="44.01945" lon="2.60145">
        <ele>528</ele>
        <time>2021-10-31T08:36:40.000Z</time>
      </trkpt>
      <trkpt lat="44.01946" lon="2.60146">
        <ele>528</ele>
        <time>2021-10-31T08:36:41.000Z</time>
      </trkpt>
      <trkpt lat="44.01946" lon="2.60147">
        <ele>529</ele>
        <time>2021-10-31T08:36:42.000Z</time>
      </trkpt>
      <trkpt lat="44.01946" lon="2.60148">
        <ele>529</ele>
        <time>2021-10-31T08:36:43.000Z</time>
      </trkpt>
      <trkpt lat="44.01946" lon="2.60148">
        <ele>529</ele>
        <time>2021-10-31T08:36:44.000Z</time>
      </trkpt>
      <trkpt lat="44.01947" lon="2.60149">
        <ele>529</ele>
        <time>2021-10-31T08:36:45.000Z</time>
      </trkpt>
      <trkpt lat="44.01947" lon="2.60149">
        <ele>529</ele>
        <time>2021-10-31T08:36:46.000Z</time>
      </trkpt>
      <trkpt lat="44.01947" lon="2.60149">
        <ele>529</ele>
        <time>2021-10-31T08:36:47.000Z</time>
      </trkpt>
      <trkpt lat="44.01946" lon="2.60149">
        <ele>529</ele>
        <time>2021-10-31T08:36:48.000Z</time>
      </trkpt>
      <trkpt lat="44.01947" lon="2.60151">
        <ele>530</ele>
        <time>2021-10-31T08:36:49.000Z</time>
      </trkpt>
      <trkpt lat="44.01948" lon="2.60151">
        <ele>530</ele>
        <time>2021-10-31T08:36:50.000Z</time>
      </trkpt>
      <trkpt lat="44.01948" lon="2.60151">
        <ele>530</ele>
        <time>2021-10-31T08:36:51.000Z</time>
      </trkpt>
      <trkpt lat="44.01948" lon="2.60151">
        <ele>530</ele>
        <time>2021-10-31T08:36:52.000Z</time>
      </trkpt>
      <trkpt lat="44.01948" lon="2.60151">
        <ele>530</ele>
        <time>2021-10-31T08:36:53.000Z</time>
      </trkpt>
      <trkpt lat="44.01948" lon="2.60153">
        <ele>530</ele>
        <time>2021-10-31T08:36:54.000Z</time>
      </trkpt>
      <trkpt lat="44.01948" lon="2.60155">
        <ele>530</ele>
        <time>2021-10-31T08:36:55.000Z</time>
      </trkpt>
      <trkpt lat="44.01948" lon="2.60156">
        <ele>530</ele>
        <time>2021-10-31T08:36:56.000Z</time>
      </trkpt>
      <trkpt lat="44.01948" lon="2.60158">
        <ele>530</ele>
        <time>2021-10-31T08:36:57.000Z</time>
      </trkpt>
      <trkpt lat="44.01948" lon="2.6016">
        <ele>530</ele>
        <time>2021-10-31T08:36:58.000Z</time>
      </trkpt>
      <trkpt lat="44.01947" lon="2.60162">
        <ele>530</ele>
        <time>2021-10-31T08:36:59.000Z</time>
      </trkpt>
      <trkpt lat="44.01947" lon="2.60163">
        <ele>530</ele>
        <time>2021-10-31T08:37:00.000Z</time>
      </trkpt>
      <trkpt lat="44.01947" lon="2.60165">
        <ele>530</ele>
        <time>2021-10-31T08:37:01.000Z</time>
      </trkpt>
      <trkpt lat="44.01947" lon="2.60167">
        <ele>530</ele>
        <time>2021-10-31T08:37:02.000Z</time>
      </trkpt>
      <trkpt lat="44.01947" lon="2.60169">
        <ele>530</ele>
        <time>2021-10-31T08:37:03.000Z</time>
      </trkpt>
      <trkpt lat="44.01947" lon="2.60171">
        <ele>530</ele>
        <time>2021-10-31T08:37:04.000Z</time>
      </trkpt>
      <trkpt lat="44.01947" lon="2.60173">
        <ele>530</ele>
        <time>2021-10-31T08:37:05.000Z</time>
      </trkpt>
      <trkpt lat="44.01947" lon="2.60175">
        <ele>530</ele>
        <time>2021-10-31T08:37:06.000Z</time>
      </trkpt>
      <trkpt lat="44.01947" lon="2.60177">
        <ele>530</ele>
        <time>2021-10-31T08:37:07.000Z</time>
      </trkpt>
      <trkpt lat="44.01947" lon="2.60179">
        <ele>530</ele>
        <time>2021-10-31T08:37:08.000Z</time>
      </trkpt>
      <trkpt lat="44.01947" lon="2.6018">
        <ele>530</ele>
        <time>2021-10-31T08:37:09.000Z</time>
      </trkpt>
      <trkpt lat="44.01947" lon="2.60182">
        <ele>530</ele>
        <time>2021-10-31T08:37:10.000Z</time>
      </trkpt>
      <trkpt lat="44.01947" lon="2.60183">
        <ele>530</ele>
        <time>2021-10-31T08:37:11.000Z</time>
      </trkpt>
      <trkpt lat="44.01947" lon="2.60185">
        <ele>530</ele>
        <time>2021-10-31T08:37:12.000Z</time>
      </trkpt>
      <trkpt lat="44.01947" lon="2.60187">
        <ele>530</ele>
        <time>2021-10-31T08:37:13.000Z</time>
      </trkpt>
      <trkpt lat="44.01947" lon="2.60188">
        <ele>530</ele>
        <time>2021-10-31T08:37:14.000Z</time>
      </trkpt>
      <trkpt lat="44.01947" lon="2.6019">
        <ele>530</ele>
        <time>2021-10-31T08:37:15.000Z</time>
      </trkpt>
      <trkpt lat="44.01948" lon="2.60192">
        <ele>530</ele>
        <time>2021-10-31T08:37:16.000Z</time>
      </trkpt>
      <trkpt lat="44.01948" lon="2.60193">
        <ele>530</ele>
        <time>2021-10-31T08:37:17.000Z</time>
      </trkpt>
      <trkpt lat="44.01948" lon="2.60195">
        <ele>530</ele>
        <time>2021-10-31T08:37:18.000Z</time>
      </trkpt>
      <trkpt lat="44.01948" lon="2.60196">
        <ele>530</ele>
        <time>2021-10-31T08:37:19.000Z</time>
      </trkpt>
      <trkpt lat="44.01949" lon="2.60198">
        <ele>530</ele>
        <time>2021-10-31T08:37:20.000Z</time>
      </trkpt>
      <trkpt lat="44.01949" lon="2.60199">
        <ele>530</ele>
        <time>2021-10-31T08:37:21.000Z</time>
      </trkpt>
      <trkpt lat="44.01949" lon="2.60201">
        <ele>530</ele>
        <time>2021-10-31T08:37:22.000Z</time>
      </trkpt>
      <trkpt lat="44.01949" lon="2.60202">
        <ele>530</ele>
        <time>2021-10-31T08:37:23.000Z</time>
      </trkpt>
      <trkpt lat="44.01949" lon="2.60204">
        <ele>530</ele>
        <time>2021-10-31T08:37:24.000Z</time>
      </trkpt>
      <trkpt lat="44.01949" lon="2.60205">
        <ele>530</ele>
        <time>2021-10-31T08:37:25.000Z</time>
      </trkpt>
      <trkpt lat="44.01949" lon="2.60207">
        <ele>530</ele>
        <time>2021-10-31T08:37:26.000Z</time>
      </trkpt>
      <trkpt lat="44.0195" lon="2.60209">
        <ele>530</ele>
        <time>2021-10-31T08:37:27.000Z</time>
      </trkpt>
      <trkpt lat="44.0195" lon="2.6021">
        <ele>530</ele>
        <time>2021-10-31T08:37:28.000Z</time>
      </trkpt>
      <trkpt lat="44.0195" lon="2.60211">
        <ele>530</ele>
        <time>2021-10-31T08:37:29.000Z</time>
      </trkpt>
      <trkpt lat="44.0195" lon="2.60211">
        <ele>531</ele>
        <time>2021-10-31T08:37:30.000Z</time>
      </trkpt>
      <trkpt lat="44.0195" lon="2.60212">
        <ele>530</ele>
        <time>2021-10-31T08:37:31.000Z</time>
      </trkpt>
      <trkpt lat="44.01951" lon="2.60213">
        <ele>530</ele>
        <time>2021-10-31T08:37:32.000Z</time>
      </trkpt>
      <trkpt lat="44.01952" lon="2.60213">
        <ele>530</ele>
        <time>2021-10-31T08:37:33.000Z</time>
      </trkpt>
      <trkpt lat="44.01953" lon="2.60213">
        <ele>530</ele>
        <time>2021-10-31T08:37:34.000Z</time>
      </trkpt>
      <trkpt lat="44.01954" lon="2.60212">
        <ele>530</ele>
        <time>2021-10-31T08:37:35.000Z</time>
      </trkpt>
      <trkpt lat="44.01956" lon="2.60212">
        <ele>530</ele>
        <time>2021-10-31T08:37:36.000Z</time>
      </trkpt>
      <trkpt lat="44.01957" lon="2.60211">
        <ele>530</ele>
        <time>2021-10-31T08:37:37.000Z</time>
      </trkpt>
      <trkpt lat="44.01958" lon="2.60211">
        <ele>530</ele>
        <time>2021-10-31T08:37:38.000Z</time>
      </trkpt>
      <trkpt lat="44.01958" lon="2.60211">
        <ele>530</ele>
        <time>2021-10-31T08:37:39.000Z</time>
      </trkpt>
      <trkpt lat="44.01959" lon="2.6021">
        <ele>530</ele>
        <time>2021-10-31T08:37:40.000Z</time>
      </trkpt>
      <trkpt lat="44.01961" lon="2.6021">
        <ele>530</ele>
        <time>2021-10-31T08:37:41.000Z</time>
      </trkpt>
      <trkpt lat="44.01962" lon="2.6021">
        <ele>530</ele>
        <time>2021-10-31T08:37:42.000Z</time>
      </trkpt>
      <trkpt lat="44.01963" lon="2.6021">
        <ele>531</ele>
        <time>2021-10-31T08:37:43.000Z</time>
      </trkpt>
      <trkpt lat="44.01963" lon="2.6021">
        <ele>531</ele>
        <time>2021-10-31T08:37:44.000Z</time>
      </trkpt>
      <trkpt lat="44.01964" lon="2.6021">
        <ele>531</ele>
        <time>2021-10-31T08:37:45.000Z</time>
      </trkpt>
      <trkpt lat="44.01965" lon="2.6021">
        <ele>531</ele>
        <time>2021-10-31T08:37:46.000Z</time>
      </trkpt>
      <trkpt lat="44.01966" lon="2.60209">
        <ele>531</ele>
        <time>2021-10-31T08:37:47.000Z</time>
      </trkpt>
      <trkpt lat="44.01967" lon="2.60209">
        <ele>531</ele>
        <time>2021-10-31T08:37:48.000Z</time>
      </trkpt>
      <trkpt lat="44.01968" lon="2.60209">
        <ele>531</ele>
        <time>2021-10-31T08:37:49.000Z</time>
      </trkpt>
      <trkpt lat="44.01969" lon="2.60208">
        <ele>531</ele>
        <time>2021-10-31T08:37:50.000Z</time>
      </trkpt>
      <trkpt lat="44.0197" lon="2.60208">
        <ele>531</ele>
        <time>2021-10-31T08:37:51.000Z</time>
      </trkpt>
      <trkpt lat="44.01971" lon="2.60207">
        <ele>531</ele>
        <time>2021-10-31T08:37:52.000Z</time>
      </trkpt>
      <trkpt lat="44.01972" lon="2.60207">
        <ele>531</ele>
        <time>2021-10-31T08:37:53.000Z</time>
      </trkpt>
      <trkpt lat="44.01973" lon="2.60207">
        <ele>531</ele>
        <time>2021-10-31T08:37:54.000Z</time>
      </trkpt>
      <trkpt lat="44.01974" lon="2.60207">
        <ele>531</ele>
        <time>2021-10-31T08:37:55.000Z</time>
      </trkpt>
      <trkpt lat="44.01975" lon="2.60207">
        <ele>531</ele>
        <time>2021-10-31T08:37:56.000Z</time>
      </trkpt>
      <trkpt lat="44.01976" lon="2.60206">
        <ele>531</ele>
        <time>2021-10-31T08:37:57.000Z</time>
      </trkpt>
      <trkpt lat="44.01977" lon="2.60206">
        <ele>531</ele>
        <time>2021-10-31T08:37:58.000Z</time>
      </trkpt>
      <trkpt lat="44.01978" lon="2.60206">
        <ele>531</ele>
        <time>2021-10-31T08:37:59.000Z</time>
      </trkpt>
      <trkpt lat="44.01979" lon="2.60206">
        <ele>531</ele>
        <time>2021-10-31T08:38:00.000Z</time>
      </trkpt>
      <trkpt lat="44.0198" lon="2.60206">
        <ele>531</ele>
        <time>2021-10-31T08:38:01.000Z</time>
      </trkpt>
      <trkpt lat="44.01981" lon="2.60206">
        <ele>531</ele>
        <time>2021-10-31T08:38:02.000Z</time>
      </trkpt>
      <trkpt lat="44.01982" lon="2.60206">
        <ele>531</ele>
        <time>2021-10-31T08:38:03.000Z</time>
      </trkpt>
      <trkpt lat="44.01983" lon="2.60205">
        <ele>531</ele>
        <time>2021-10-31T08:38:04.000Z</time>
      </trkpt>
      <trkpt lat="44.01984" lon="2.60205">
        <ele>531</ele>
        <time>2021-10-31T08:38:05.000Z</time>
      </trkpt>
      <trkpt lat="44.01984" lon="2.60205">
        <ele>531</ele>
        <time>2021-10-31T08:38:06.000Z</time>
      </trkpt>
      <trkpt lat="44.01985" lon="2.60206">
        <ele>531</ele>
        <time>2021-10-31T08:38:07.000Z</time>
      </trkpt>
      <trkpt lat="44.01986" lon="2.60206">
        <ele>532</ele>
        <time>2021-10-31T08:38:08.000Z</time>
      </trkpt>
      <trkpt lat="44.01986" lon="2.60206">
        <ele>532</ele>
        <time>2021-10-31T08:38:09.000Z</time>
      </trkpt>
      <trkpt lat="44.01986" lon="2.60206">
        <ele>532</ele>
        <time>2021-10-31T08:38:10.000Z</time>
      </trkpt>
      <trkpt lat="44.01986" lon="2.60206">
        <ele>532</ele>
        <time>2021-10-31T08:38:11.000Z</time>
      </trkpt>
      <trkpt lat="44.01992" lon="2.60206">
        <ele>536</ele>
        <time>2021-10-31T08:38:12.000Z</time>
      </trkpt>
      <trkpt lat="44.01992" lon="2.60206">
        <ele>536</ele>
        <time>2021-10-31T08:38:13.000Z</time>
      </trkpt>
      <trkpt lat="44.01993" lon="2.60205">
        <ele>536</ele>
        <time>2021-10-31T08:38:14.000Z</time>
      </trkpt>
      <trkpt lat="44.01993" lon="2.60205">
        <ele>536</ele>
        <time>2021-10-31T08:38:15.000Z</time>
      </trkpt>
      <trkpt lat="44.01993" lon="2.60205">
        <ele>537</ele>
        <time>2021-10-31T08:38:16.000Z</time>
      </trkpt>
      <trkpt lat="44.01993" lon="2.60205">
        <ele>537</ele>
        <time>2021-10-31T08:38:17.000Z</time>
      </trkpt>
      <trkpt lat="44.01993" lon="2.60205">
        <ele>537</ele>
        <time>2021-10-31T08:38:18.000Z</time>
      </trkpt>
      <trkpt lat="44.01994" lon="2.60207">
        <ele>538</ele>
        <time>2021-10-31T08:38:19.000Z</time>
      </trkpt>
      <trkpt lat="44.01994" lon="2.60208">
        <ele>538</ele>
        <time>2021-10-31T08:38:20.000Z</time>
      </trkpt>
      <trkpt lat="44.01994" lon="2.60209">
        <ele>538</ele>
        <time>2021-10-31T08:38:21.000Z</time>
      </trkpt>
      <trkpt lat="44.01994" lon="2.6021">
        <ele>538</ele>
        <time>2021-10-31T08:38:22.000Z</time>
      </trkpt>
      <trkpt lat="44.01994" lon="2.60211">
        <ele>538</ele>
        <time>2021-10-31T08:38:23.000Z</time>
      </trkpt>
      <trkpt lat="44.01994" lon="2.60212">
        <ele>538</ele>
        <time>2021-10-31T08:38:24.000Z</time>
      </trkpt>
      <trkpt lat="44.01994" lon="2.60212">
        <ele>538</ele>
        <time>2021-10-31T08:38:25.000Z</time>
      </trkpt>
      <trkpt lat="44.01994" lon="2.60213">
        <ele>538</ele>
        <time>2021-10-31T08:38:26.000Z</time>
      </trkpt>
      <trkpt lat="44.01994" lon="2.60214">
        <ele>538</ele>
        <time>2021-10-31T08:38:27.000Z</time>
      </trkpt>
      <trkpt lat="44.01993" lon="2.60214">
        <ele>539</ele>
        <time>2021-10-31T08:38:28.000Z</time>
      </trkpt>
      <trkpt lat="44.01993" lon="2.60215">
        <ele>539</ele>
        <time>2021-10-31T08:38:29.000Z</time>
      </trkpt>
      <trkpt lat="44.01993" lon="2.60215">
        <ele>539</ele>
        <time>2021-10-31T08:38:30.000Z</time>
      </trkpt>
      <trkpt lat="44.01993" lon="2.60215">
        <ele>539</ele>
        <time>2021-10-31T08:38:31.000Z</time>
      </trkpt>
      <trkpt lat="44.01993" lon="2.60215">
        <ele>539</ele>
        <time>2021-10-31T08:38:32.000Z</time>
      </trkpt>
      <trkpt lat="44.01993" lon="2.60214">
        <ele>539</ele>
        <time>2021-10-31T08:38:33.000Z</time>
      </trkpt>
      <trkpt lat="44.01991" lon="2.60207">
        <ele>542</ele>
        <time>2021-10-31T08:38:34.000Z</time>
      </trkpt>
      <trkpt lat="44.0199" lon="2.60206">
        <ele>542</ele>
        <time>2021-10-31T08:38:35.000Z</time>
      </trkpt>
      <trkpt lat="44.01989" lon="2.60207">
        <ele>542</ele>
        <time>2021-10-31T08:38:36.000Z</time>
      </trkpt>
      <trkpt lat="44.01989" lon="2.60208">
        <ele>542</ele>
        <time>2021-10-31T08:38:37.000Z</time>
      </trkpt>
      <trkpt lat="44.01988" lon="2.60208">
        <ele>542</ele>
        <time>2021-10-31T08:38:38.000Z</time>
      </trkpt>
      <trkpt lat="44.01988" lon="2.60209">
        <ele>542</ele>
        <time>2021-10-31T08:38:39.000Z</time>
      </trkpt>
      <trkpt lat="44.01988" lon="2.6021">
        <ele>542</ele>
        <time>2021-10-31T08:38:40.000Z</time>
      </trkpt>
      <trkpt lat="44.01987" lon="2.6021">
        <ele>542</ele>
        <time>2021-10-31T08:38:41.000Z</time>
      </trkpt>
      <trkpt lat="44.01987" lon="2.60211">
        <ele>542</ele>
        <time>2021-10-31T08:38:42.000Z</time>
      </trkpt>
      <trkpt lat="44.01987" lon="2.60211">
        <ele>542</ele>
        <time>2021-10-31T08:38:43.000Z</time>
      </trkpt>
      <trkpt lat="44.01987" lon="2.6021">
        <ele>542</ele>
        <time>2021-10-31T08:38:44.000Z</time>
      </trkpt>
      <trkpt lat="44.01988" lon="2.6021">
        <ele>542</ele>
        <time>2021-10-31T08:38:45.000Z</time>
      </trkpt>
      <trkpt lat="44.01988" lon="2.6021">
        <ele>542</ele>
        <time>2021-10-31T08:38:46.000Z</time>
      </trkpt>
      <trkpt lat="44.01988" lon="2.6021">
        <ele>543</ele>
        <time>2021-10-31T08:38:47.000Z</time>
      </trkpt>
      <trkpt lat="44.01988" lon="2.60209">
        <ele>543</ele>
        <time>2021-10-31T08:38:48.000Z</time>
      </trkpt>
      <trkpt lat="44.01988" lon="2.60209">
        <ele>543</ele>
        <time>2021-10-31T08:38:49.000Z</time>
      </trkpt>
      <trkpt lat="44.01988" lon="2.60209">
        <ele>543</ele>
        <time>2021-10-31T08:38:50.000Z</time>
      </trkpt>
      <trkpt lat="44.01986" lon="2.60205">
        <ele>545</ele>
        <time>2021-10-31T08:38:51.000Z</time>
      </trkpt>
      <trkpt lat="44.01986" lon="2.60204">
        <ele>545</ele>
        <time>2021-10-31T08:38:52.000Z</time>
      </trkpt>
      <trkpt lat="44.01987" lon="2.60203">
        <ele>545</ele>
        <time>2021-10-31T08:38:53.000Z</time>
      </trkpt>
      <trkpt lat="44.01987" lon="2.60202">
        <ele>545</ele>
        <time>2021-10-31T08:38:54.000Z</time>
      </trkpt>
      <trkpt lat="44.01988" lon="2.60201">
        <ele>545</ele>
        <time>2021-10-31T08:38:55.000Z</time>
      </trkpt>
      <trkpt lat="44.01988" lon="2.602">
        <ele>545</ele>
        <time>2021-10-31T08:38:56.000Z</time>
      </trkpt>
      <trkpt lat="44.01989" lon="2.602">
        <ele>545</ele>
        <time>2021-10-31T08:38:57.000Z</time>
      </trkpt>
      <trkpt lat="44.0199" lon="2.602">
        <ele>545</ele>
        <time>2021-10-31T08:38:58.000Z</time>
      </trkpt>
      <trkpt lat="44.0199" lon="2.602">
        <ele>545</ele>
        <time>2021-10-31T08:38:59.000Z</time>
      </trkpt>
      <trkpt lat="44.01991" lon="2.602">
        <ele>546</ele>
        <time>2021-10-31T08:39:00.000Z</time>
      </trkpt>
      <trkpt lat="44.01992" lon="2.602">
        <ele>546</ele>
        <time>2021-10-31T08:39:01.000Z</time>
      </trkpt>
      <trkpt lat="44.01992" lon="2.60199">
        <ele>546</ele>
        <time>2021-10-31T08:39:02.000Z</time>
      </trkpt>
      <trkpt lat="44.01992" lon="2.60199">
        <ele>546</ele>
        <time>2021-10-31T08:39:03.000Z</time>
      </trkpt>
      <trkpt lat="44.01992" lon="2.60199">
        <ele>547</ele>
        <time>2021-10-31T08:39:04.000Z</time>
      </trkpt>
      <trkpt lat="44.01993" lon="2.60199">
        <ele>547</ele>
        <time>2021-10-31T08:39:05.000Z</time>
      </trkpt>
      <trkpt lat="44.01995" lon="2.60199">
        <ele>547</ele>
        <time>2021-10-31T08:39:06.000Z</time>
      </trkpt>
      <trkpt lat="44.01996" lon="2.602">
        <ele>547</ele>
        <time>2021-10-31T08:39:07.000Z</time>
      </trkpt>
      <trkpt lat="44.01997" lon="2.60201">
        <ele>546</ele>
        <time>2021-10-31T08:39:08.000Z</time>
      </trkpt>
      <trkpt lat="44.01997" lon="2.60201">
        <ele>546</ele>
        <time>2021-10-31T08:39:09.000Z</time>
      </trkpt>
      <trkpt lat="44.01998" lon="2.60202">
        <ele>546</ele>
        <time>2021-10-31T08:39:10.000Z</time>
      </trkpt>
      <trkpt lat="44.01998" lon="2.60202">
        <ele>546</ele>
        <time>2021-10-31T08:39:11.000Z</time>
      </trkpt>
      <trkpt lat="44.01998" lon="2.60202">
        <ele>546</ele>
        <time>2021-10-31T08:39:12.000Z</time>
      </trkpt>
      <trkpt lat="44.01998" lon="2.60203">
        <ele>545</ele>
        <time>2021-10-31T08:39:13.000Z</time>
      </trkpt>
      <trkpt lat="44.01999" lon="2.60205">
        <ele>543</ele>
        <time>2021-10-31T08:39:14.000Z</time>
      </trkpt>
      <trkpt lat="44.01999" lon="2.60204">
        <ele>543</ele>
        <time>2021-10-31T08:39:15.000Z</time>
      </trkpt>
      <trkpt lat="44.02" lon="2.60205">
        <ele>542</ele>
        <time>2021-10-31T08:39:16.000Z</time>
      </trkpt>
      <trkpt lat="44.02001" lon="2.60205">
        <ele>542</ele>
        <time>2021-10-31T08:39:17.000Z</time>
      </trkpt>
      <trkpt lat="44.02002" lon="2.60206">
        <ele>542</ele>
        <time>2021-10-31T08:39:18.000Z</time>
      </trkpt>
      <trkpt lat="44.02003" lon="2.60207">
        <ele>541</ele>
        <time>2021-10-31T08:39:19.000Z</time>
      </trkpt>
      <trkpt lat="44.02003" lon="2.60208">
        <ele>541</ele>
        <time>2021-10-31T08:39:20.000Z</time>
      </trkpt>
      <trkpt lat="44.02004" lon="2.60209">
        <ele>541</ele>
        <time>2021-10-31T08:39:21.000Z</time>
      </trkpt>
      <trkpt lat="44.02005" lon="2.6021">
        <ele>541</ele>
        <time>2021-10-31T08:39:22.000Z</time>
      </trkpt>
      <trkpt lat="44.02005" lon="2.60211">
        <ele>541</ele>
        <time>2021-10-31T08:39:23.000Z</time>
      </trkpt>
      <trkpt lat="44.02006" lon="2.60211">
        <ele>541</ele>
        <time>2021-10-31T08:39:24.000Z</time>
      </trkpt>
      <trkpt lat="44.02007" lon="2.60212">
        <ele>541</ele>
        <time>2021-10-31T08:39:25.000Z</time>
      </trkpt>
      <trkpt lat="44.02007" lon="2.60213">
        <ele>540</ele>
        <time>2021-10-31T08:39:26.000Z</time>
      </trkpt>
      <trkpt lat="44.02008" lon="2.60213">
        <ele>540</ele>
        <time>2021-10-31T08:39:27.000Z</time>
      </trkpt>
      <trkpt lat="44.02008" lon="2.60213">
        <ele>540</ele>
        <time>2021-10-31T08:39:28.000Z</time>
      </trkpt>
      <trkpt lat="44.02009" lon="2.60213">
        <ele>540</ele>
        <time>2021-10-31T08:39:29.000Z</time>
      </trkpt>
      <trkpt lat="44.0201" lon="2.60212">
        <ele>540</ele>
        <time>2021-10-31T08:39:30.000Z</time>
      </trkpt>
      <trkpt lat="44.02011" lon="2.60212">
        <ele>540</ele>
        <time>2021-10-31T08:39:31.000Z</time>
      </trkpt>
      <trkpt lat="44.02011" lon="2.6021">
        <ele>540</ele>
        <time>2021-10-31T08:39:32.000Z</time>
      </trkpt>
      <trkpt lat="44.02012" lon="2.6021">
        <ele>540</ele>
        <time>2021-10-31T08:39:33.000Z</time>
      </trkpt>
      <trkpt lat="44.02012" lon="2.60209">
        <ele>540</ele>
        <time>2021-10-31T08:39:34.000Z</time>
      </trkpt>
      <trkpt lat="44.02012" lon="2.60209">
        <ele>540</ele>
        <time>2021-10-31T08:39:35.000Z</time>
      </trkpt>
      <trkpt lat="44.02012" lon="2.60209">
        <ele>540</ele>
        <time>2021-10-31T08:39:36.000Z</time>
      </trkpt>
      <trkpt lat="44.02012" lon="2.60209">
        <ele>540</ele>
        <time>2021-10-31T08:39:37.000Z</time>
      </trkpt>
      <trkpt lat="44.0201" lon="2.60209">
        <ele>539</ele>
        <time>2021-10-31T08:39:38.000Z</time>
      </trkpt>
      <trkpt lat="44.0201" lon="2.6021">
        <ele>539</ele>
        <time>2021-10-31T08:39:39.000Z</time>
      </trkpt>
      <trkpt lat="44.02009" lon="2.6021">
        <ele>539</ele>
        <time>2021-10-31T08:39:40.000Z</time>
      </trkpt>
      <trkpt lat="44.02008" lon="2.6021">
        <ele>539</ele>
        <time>2021-10-31T08:39:41.000Z</time>
      </trkpt>
      <trkpt lat="44.02007" lon="2.6021">
        <ele>539</ele>
        <time>2021-10-31T08:39:42.000Z</time>
      </trkpt>
      <trkpt lat="44.02005" lon="2.60209">
        <ele>539</ele>
        <time>2021-10-31T08:39:43.000Z</time>
      </trkpt>
      <trkpt lat="44.02004" lon="2.60209">
        <ele>539</ele>
        <time>2021-10-31T08:39:44.000Z</time>
      </trkpt>
      <trkpt lat="44.02003" lon="2.60209">
        <ele>538</ele>
        <time>2021-10-31T08:39:45.000Z</time>
      </trkpt>
      <trkpt lat="44.02002" lon="2.60209">
        <ele>538</ele>
        <time>2021-10-31T08:39:46.000Z</time>
      </trkpt>
      <trkpt lat="44.02001" lon="2.60209">
        <ele>538</ele>
        <time>2021-10-31T08:39:47.000Z</time>
      </trkpt>
      <trkpt lat="44.01999" lon="2.60209">
        <ele>538</ele>
        <time>2021-10-31T08:39:48.000Z</time>
      </trkpt>
      <trkpt lat="44.01998" lon="2.60209">
        <ele>538</ele>
        <time>2021-10-31T08:39:49.000Z</time>
      </trkpt>
      <trkpt lat="44.01997" lon="2.60209">
        <ele>538</ele>
        <time>2021-10-31T08:39:50.000Z</time>
      </trkpt>
      <trkpt lat="44.01996" lon="2.6021">
        <ele>538</ele>
        <time>2021-10-31T08:39:51.000Z</time>
      </trkpt>
      <trkpt lat="44.01995" lon="2.6021">
        <ele>538</ele>
        <time>2021-10-31T08:39:52.000Z</time>
      </trkpt>
      <trkpt lat="44.01994" lon="2.6021">
        <ele>538</ele>
        <time>2021-10-31T08:39:53.000Z</time>
      </trkpt>
      <trkpt lat="44.01993" lon="2.60211">
        <ele>538</ele>
        <time>2021-10-31T08:39:54.000Z</time>
      </trkpt>
      <trkpt lat="44.01992" lon="2.60211">
        <ele>538</ele>
        <time>2021-10-31T08:39:55.000Z</time>
      </trkpt>
      <trkpt lat="44.01991" lon="2.60212">
        <ele>538</ele>
        <time>2021-10-31T08:39:56.000Z</time>
      </trkpt>
      <trkpt lat="44.0199" lon="2.60212">
        <ele>538</ele>
        <time>2021-10-31T08:39:57.000Z</time>
      </trkpt>
      <trkpt lat="44.0199" lon="2.60212">
        <ele>537</ele>
        <time>2021-10-31T08:39:58.000Z</time>
      </trkpt>
      <trkpt lat="44.0199" lon="2.60212">
        <ele>537</ele>
        <time>2021-10-31T08:39:59.000Z</time>
      </trkpt>
      <trkpt lat="44.0199" lon="2.60212">
        <ele>537</ele>
        <time>2021-10-31T08:40:00.000Z</time>
      </trkpt>
      <trkpt lat="44.0199" lon="2.60212">
        <ele>537</ele>
        <time>2021-10-31T08:40:01.000Z</time>
      </trkpt>
      <trkpt lat="44.01987" lon="2.60209">
        <ele>537</ele>
        <time>2021-10-31T08:40:02.000Z</time>
      </trkpt>
      <trkpt lat="44.01987" lon="2.60209">
        <ele>537</ele>
        <time>2021-10-31T08:40:03.000Z</time>
      </trkpt>
      <trkpt lat="44.01987" lon="2.60208">
        <ele>537</ele>
        <time>2021-10-31T08:40:04.000Z</time>
      </trkpt>
      <trkpt lat="44.01986" lon="2.60208">
        <ele>536</ele>
        <time>2021-10-31T08:40:05.000Z</time>
      </trkpt>
      <trkpt lat="44.01986" lon="2.60208">
        <ele>537</ele>
        <time>2021-10-31T08:40:06.000Z</time>
      </trkpt>
      <trkpt lat="44.01988" lon="2.60209">
        <ele>537</ele>
        <time>2021-10-31T08:40:07.000Z</time>
      </trkpt>
      <trkpt lat="44.01988" lon="2.6021">
        <ele>537</ele>
        <time>2021-10-31T08:40:08.000Z</time>
      </trkpt>
      <trkpt lat="44.01989" lon="2.6021">
        <ele>537</ele>
        <time>2021-10-31T08:40:09.000Z</time>
      </trkpt>
      <trkpt lat="44.01989" lon="2.6021">
        <ele>537</ele>
        <time>2021-10-31T08:40:10.000Z</time>
      </trkpt>
      <trkpt lat="44.01989" lon="2.6021">
        <ele>537</ele>
        <time>2021-10-31T08:40:11.000Z</time>
      </trkpt>
      <trkpt lat="44.01989" lon="2.6021">
        <ele>537</ele>
        <time>2021-10-31T08:40:12.000Z</time>
      </trkpt>
      <trkpt lat="44.01988" lon="2.60209">
        <ele>537</ele>
        <time>2021-10-31T08:40:13.000Z</time>
      </trkpt>
      <trkpt lat="44.01987" lon="2.60209">
        <ele>537</ele>
        <time>2021-10-31T08:40:14.000Z</time>
      </trkpt>
      <trkpt lat="44.01987" lon="2.6021">
        <ele>537</ele>
        <time>2021-10-31T08:40:15.000Z</time>
      </trkpt>
      <trkpt lat="44.01986" lon="2.6021">
        <ele>537</ele>
        <time>2021-10-31T08:40:16.000Z</time>
      </trkpt>
      <trkpt lat="44.01986" lon="2.6021">
        <ele>537</ele>
        <time>2021-10-31T08:40:17.000Z</time>
      </trkpt>
      <trkpt lat="44.01985" lon="2.6021">
        <ele>537</ele>
        <time>2021-10-31T08:40:18.000Z</time>
      </trkpt>
      <trkpt lat="44.01985" lon="2.6021">
        <ele>537</ele>
        <time>2021-10-31T08:40:19.000Z</time>
      </trkpt>
      <trkpt lat="44.01984" lon="2.6021">
        <ele>537</ele>
        <time>2021-10-31T08:40:20.000Z</time>
      </trkpt>
      <trkpt lat="44.01984" lon="2.6021">
        <ele>537</ele>
        <time>2021-10-31T08:40:21.000Z</time>
      </trkpt>
      <trkpt lat="44.01983" lon="2.6021">
        <ele>537</ele>
        <time>2021-10-31T08:40:22.000Z</time>
      </trkpt>
      <trkpt lat="44.01982" lon="2.6021">
        <ele>537</ele>
        <time>2021-10-31T08:40:23.000Z</time>
      </trkpt>
      <trkpt lat="44.01982" lon="2.6021">
        <ele>537</ele>
        <time>2021-10-31T08:40:24.000Z</time>
      </trkpt>
      <trkpt lat="44.01985" lon="2.6021">
        <ele>537</ele>
        <time>2021-10-31T08:40:25.000Z</time>
      </trkpt>
      <trkpt lat="44.01985" lon="2.6021">
        <ele>537</ele>
        <time>2021-10-31T08:40:26.000Z</time>
      </trkpt>
      <trkpt lat="44.01986" lon="2.6021">
        <ele>537</ele>
        <time>2021-10-31T08:40:27.000Z</time>
      </trkpt>
      <trkpt lat="44.01987" lon="2.6021">
        <ele>537</ele>
        <time>2021-10-31T08:40:28.000Z</time>
      </trkpt>
      <trkpt lat="44.01987" lon="2.6021">
        <ele>537</ele>
        <time>2021-10-31T08:40:29.000Z</time>
      </trkpt>
      <trkpt lat="44.01988" lon="2.60209">
        <ele>538</ele>
        <time>2021-10-31T08:40:30.000Z</time>
      </trkpt>
      <trkpt lat="44.01988" lon="2.60209">
        <ele>538</ele>
        <time>2021-10-31T08:40:31.000Z</time>
      </trkpt>
      <trkpt lat="44.01989" lon="2.60199">
        <ele>544</ele>
        <time>2021-10-31T08:40:32.000Z</time>
      </trkpt>
      <trkpt lat="44.01989" lon="2.60198">
        <ele>544</ele>
        <time>2021-10-31T08:40:33.000Z</time>
      </trkpt>
      <trkpt lat="44.0199" lon="2.60199">
        <ele>544</ele>
        <time>2021-10-31T08:40:34.000Z</time>
      </trkpt>
      <trkpt lat="44.0199" lon="2.60199">
        <ele>544</ele>
        <time>2021-10-31T08:40:35.000Z</time>
      </trkpt>
      <trkpt lat="44.01991" lon="2.60199">
        <ele>544</ele>
        <time>2021-10-31T08:40:36.000Z</time>
      </trkpt>
      <trkpt lat="44.01992" lon="2.60199">
        <ele>544</ele>
        <time>2021-10-31T08:40:37.000Z</time>
      </trkpt>
      <trkpt lat="44.01993" lon="2.60199">
        <ele>543</ele>
        <time>2021-10-31T08:40:38.000Z</time>
      </trkpt>
      <trkpt lat="44.01994" lon="2.60199">
        <ele>543</ele>
        <time>2021-10-31T08:40:39.000Z</time>
      </trkpt>
      <trkpt lat="44.01995" lon="2.60199">
        <ele>543</ele>
        <time>2021-10-31T08:40:40.000Z</time>
      </trkpt>
      <trkpt lat="44.01996" lon="2.60199">
        <ele>543</ele>
        <time>2021-10-31T08:40:41.000Z</time>
      </trkpt>
      <trkpt lat="44.01997" lon="2.60199">
        <ele>543</ele>
        <time>2021-10-31T08:40:42.000Z</time>
      </trkpt>
      <trkpt lat="44.01997" lon="2.602">
        <ele>543</ele>
        <time>2021-10-31T08:40:43.000Z</time>
      </trkpt>
      <trkpt lat="44.01998" lon="2.60201">
        <ele>543</ele>
        <time>2021-10-31T08:40:44.000Z</time>
      </trkpt>
      <trkpt lat="44.01998" lon="2.60202">
        <ele>543</ele>
        <time>2021-10-31T08:40:45.000Z</time>
      </trkpt>
      <trkpt lat="44.01999" lon="2.60203">
        <ele>543</ele>
        <time>2021-10-31T08:40:46.000Z</time>
      </trkpt>
      <trkpt lat="44.01999" lon="2.60203">
        <ele>542</ele>
        <time>2021-10-31T08:40:47.000Z</time>
      </trkpt>
      <trkpt lat="44.01999" lon="2.60204">
        <ele>542</ele>
        <time>2021-10-31T08:40:48.000Z</time>
      </trkpt>
      <trkpt lat="44.01999" lon="2.60204">
        <ele>542</ele>
        <time>2021-10-31T08:40:49.000Z</time>
      </trkpt>
      <trkpt lat="44.01996" lon="2.60208">
        <ele>538</ele>
        <time>2021-10-31T08:40:50.000Z</time>
      </trkpt>
      <trkpt lat="44.01996" lon="2.60208">
        <ele>538</ele>
        <time>2021-10-31T08:40:51.000Z</time>
      </trkpt>
      <trkpt lat="44.01995" lon="2.60208">
        <ele>538</ele>
        <time>2021-10-31T08:40:52.000Z</time>
      </trkpt>
      <trkpt lat="44.01995" lon="2.60209">
        <ele>537</ele>
        <time>2021-10-31T08:40:53.000Z</time>
      </trkpt>
      <trkpt lat="44.01995" lon="2.60209">
        <ele>537</ele>
        <time>2021-10-31T08:40:54.000Z</time>
      </trkpt>
      <trkpt lat="44.01994" lon="2.60209">
        <ele>537</ele>
        <time>2021-10-31T08:40:55.000Z</time>
      </trkpt>
      <trkpt lat="44.01994" lon="2.6021">
        <ele>537</ele>
        <time>2021-10-31T08:40:56.000Z</time>
      </trkpt>
      <trkpt lat="44.01994" lon="2.60209">
        <ele>537</ele>
        <time>2021-10-31T08:40:57.000Z</time>
      </trkpt>
      <trkpt lat="44.01995" lon="2.60209">
        <ele>537</ele>
        <time>2021-10-31T08:40:58.000Z</time>
      </trkpt>
      <trkpt lat="44.01996" lon="2.6021">
        <ele>537</ele>
        <time>2021-10-31T08:40:59.000Z</time>
      </trkpt>
      <trkpt lat="44.01996" lon="2.6021">
        <ele>537</ele>
        <time>2021-10-31T08:41:00.000Z</time>
      </trkpt>
      <trkpt lat="44.01997" lon="2.6021">
        <ele>537</ele>
        <time>2021-10-31T08:41:01.000Z</time>
      </trkpt>
      <trkpt lat="44.01997" lon="2.6021">
        <ele>537</ele>
        <time>2021-10-31T08:41:02.000Z</time>
      </trkpt>
      <trkpt lat="44.01998" lon="2.60211">
        <ele>538</ele>
        <time>2021-10-31T08:41:03.000Z</time>
      </trkpt>
      <trkpt lat="44.01999" lon="2.60211">
        <ele>538</ele>
        <time>2021-10-31T08:41:04.000Z</time>
      </trkpt>
      <trkpt lat="44.01999" lon="2.60212">
        <ele>538</ele>
        <time>2021-10-31T08:41:05.000Z</time>
      </trkpt>
      <trkpt lat="44.02" lon="2.60213">
        <ele>538</ele>
        <time>2021-10-31T08:41:06.000Z</time>
      </trkpt>
      <trkpt lat="44.02" lon="2.60213">
        <ele>538</ele>
        <time>2021-10-31T08:41:07.000Z</time>
      </trkpt>
      <trkpt lat="44.02001" lon="2.60214">
        <ele>538</ele>
        <time>2021-10-31T08:41:08.000Z</time>
      </trkpt>
      <trkpt lat="44.02001" lon="2.60215">
        <ele>538</ele>
        <time>2021-10-31T08:41:09.000Z</time>
      </trkpt>
      <trkpt lat="44.02001" lon="2.60216">
        <ele>538</ele>
        <time>2021-10-31T08:41:10.000Z</time>
      </trkpt>
      <trkpt lat="44.02002" lon="2.60216">
        <ele>539</ele>
        <time>2021-10-31T08:41:11.000Z</time>
      </trkpt>
      <trkpt lat="44.02003" lon="2.60216">
        <ele>539</ele>
        <time>2021-10-31T08:41:12.000Z</time>
      </trkpt>
      <trkpt lat="44.02003" lon="2.60217">
        <ele>539</ele>
        <time>2021-10-31T08:41:13.000Z</time>
      </trkpt>
      <trkpt lat="44.02004" lon="2.60218">
        <ele>539</ele>
        <time>2021-10-31T08:41:14.000Z</time>
      </trkpt>
      <trkpt lat="44.02005" lon="2.60218">
        <ele>539</ele>
        <time>2021-10-31T08:41:15.000Z</time>
      </trkpt>
      <trkpt lat="44.02005" lon="2.60219">
        <ele>539</ele>
        <time>2021-10-31T08:41:16.000Z</time>
      </trkpt>
      <trkpt lat="44.02006" lon="2.6022">
        <ele>539</ele>
        <time>2021-10-31T08:41:17.000Z</time>
      </trkpt>
      <trkpt lat="44.02006" lon="2.60221">
        <ele>539</ele>
        <time>2021-10-31T08:41:18.000Z</time>
      </trkpt>
      <trkpt lat="44.02007" lon="2.60222">
        <ele>539</ele>
        <time>2021-10-31T08:41:19.000Z</time>
      </trkpt>
      <trkpt lat="44.02007" lon="2.60223">
        <ele>539</ele>
        <time>2021-10-31T08:41:20.000Z</time>
      </trkpt>
      <trkpt lat="44.02008" lon="2.60224">
        <ele>539</ele>
        <time>2021-10-31T08:41:21.000Z</time>
      </trkpt>
      <trkpt lat="44.02008" lon="2.60225">
        <ele>539</ele>
        <time>2021-10-31T08:41:22.000Z</time>
      </trkpt>
      <trkpt lat="44.02009" lon="2.60225">
        <ele>539</ele>
        <time>2021-10-31T08:41:23.000Z</time>
      </trkpt>
      <trkpt lat="44.02009" lon="2.60225">
        <ele>539</ele>
        <time>2021-10-31T08:41:24.000Z</time>
      </trkpt>
      <trkpt lat="44.02009" lon="2.60225">
        <ele>539</ele>
        <time>2021-10-31T08:41:25.000Z</time>
      </trkpt>
      <trkpt lat="44.02009" lon="2.60224">
        <ele>539</ele>
        <time>2021-10-31T08:41:26.000Z</time>
      </trkpt>
      <trkpt lat="44.02008" lon="2.60224">
        <ele>540</ele>
        <time>2021-10-31T08:41:27.000Z</time>
      </trkpt>
      <trkpt lat="44.02007" lon="2.60224">
        <ele>540</ele>
        <time>2021-10-31T08:41:28.000Z</time>
      </trkpt>
      <trkpt lat="44.02007" lon="2.60223">
        <ele>540</ele>
        <time>2021-10-31T08:41:29.000Z</time>
      </trkpt>
      <trkpt lat="44.02006" lon="2.60222">
        <ele>540</ele>
        <time>2021-10-31T08:41:30.000Z</time>
      </trkpt>
      <trkpt lat="44.02005" lon="2.60222">
        <ele>540</ele>
        <time>2021-10-31T08:41:31.000Z</time>
      </trkpt>
      <trkpt lat="44.02005" lon="2.60221">
        <ele>540</ele>
        <time>2021-10-31T08:41:32.000Z</time>
      </trkpt>
      <trkpt lat="44.02004" lon="2.60221">
        <ele>540</ele>
        <time>2021-10-31T08:41:33.000Z</time>
      </trkpt>
      <trkpt lat="44.02004" lon="2.6022">
        <ele>540</ele>
        <time>2021-10-31T08:41:34.000Z</time>
      </trkpt>
      <trkpt lat="44.02003" lon="2.60219">
        <ele>540</ele>
        <time>2021-10-31T08:41:35.000Z</time>
      </trkpt>
      <trkpt lat="44.02003" lon="2.60218">
        <ele>540</ele>
        <time>2021-10-31T08:41:36.000Z</time>
      </trkpt>
      <trkpt lat="44.02002" lon="2.60218">
        <ele>540</ele>
        <time>2021-10-31T08:41:37.000Z</time>
      </trkpt>
      <trkpt lat="44.02002" lon="2.60217">
        <ele>540</ele>
        <time>2021-10-31T08:41:38.000Z</time>
      </trkpt>
      <trkpt lat="44.02002" lon="2.60217">
        <ele>540</ele>
        <time>2021-10-31T08:41:39.000Z</time>
      </trkpt>
      <trkpt lat="44.02002" lon="2.60216">
        <ele>540</ele>
        <time>2021-10-31T08:41:40.000Z</time>
      </trkpt>
      <trkpt lat="44.02002" lon="2.60216">
        <ele>540</ele>
        <time>2021-10-31T08:41:41.000Z</time>
      </trkpt>
      <trkpt lat="44.02006" lon="2.60212">
        <ele>539</ele>
        <time>2021-10-31T08:41:42.000Z</time>
      </trkpt>
      <trkpt lat="44.02007" lon="2.60212">
        <ele>539</ele>
        <time>2021-10-31T08:41:43.000Z</time>
      </trkpt>
      <trkpt lat="44.02007" lon="2.60212">
        <ele>539</ele>
        <time>2021-10-31T08:41:44.000Z</time>
      </trkpt>
      <trkpt lat="44.02009" lon="2.60212">
        <ele>539</ele>
        <time>2021-10-31T08:41:45.000Z</time>
      </trkpt>
      <trkpt lat="44.0201" lon="2.60212">
        <ele>539</ele>
        <time>2021-10-31T08:41:46.000Z</time>
      </trkpt>
      <trkpt lat="44.02011" lon="2.60211">
        <ele>539</ele>
        <time>2021-10-31T08:41:47.000Z</time>
      </trkpt>
      <trkpt lat="44.02011" lon="2.60211">
        <ele>539</ele>
        <time>2021-10-31T08:41:48.000Z</time>
      </trkpt>
      <trkpt lat="44.02012" lon="2.6021">
        <ele>539</ele>
        <time>2021-10-31T08:41:49.000Z</time>
      </trkpt>
      <trkpt lat="44.02012" lon="2.6021">
        <ele>539</ele>
        <time>2021-10-31T08:41:50.000Z</time>
      </trkpt>
      <trkpt lat="44.02012" lon="2.6021">
        <ele>539</ele>
        <time>2021-10-31T08:41:51.000Z</time>
      </trkpt>
      <trkpt lat="44.02013" lon="2.60209">
        <ele>539</ele>
        <time>2021-10-31T08:41:52.000Z</time>
      </trkpt>
      <trkpt lat="44.02014" lon="2.60209">
        <ele>539</ele>
        <time>2021-10-31T08:41:53.000Z</time>
      </trkpt>
      <trkpt lat="44.02014" lon="2.60209">
        <ele>539</ele>
        <time>2021-10-31T08:41:54.000Z</time>
      </trkpt>
      <trkpt lat="44.02015" lon="2.6021">
        <ele>539</ele>
        <time>2021-10-31T08:41:55.000Z</time>
      </trkpt>
      <trkpt lat="44.02015" lon="2.6021">
        <ele>539</ele>
        <time>2021-10-31T08:41:56.000Z</time>
      </trkpt>
      <trkpt lat="44.02015" lon="2.60211">
        <ele>539</ele>
        <time>2021-10-31T08:41:57.000Z</time>
      </trkpt>
      <trkpt lat="44.02015" lon="2.60211">
        <ele>539</ele>
        <time>2021-10-31T08:41:58.000Z</time>
      </trkpt>
      <trkpt lat="44.02015" lon="2.6021">
        <ele>539</ele>
        <time>2021-10-31T08:41:59.000Z</time>
      </trkpt>
      <trkpt lat="44.02015" lon="2.6021">
        <ele>539</ele>
        <time>2021-10-31T08:42:00.000Z</time>
      </trkpt>
      <trkpt lat="44.02016" lon="2.60211">
        <ele>540</ele>
        <time>2021-10-31T08:42:01.000Z</time>
      </trkpt>
      <trkpt lat="44.02016" lon="2.60211">
        <ele>540</ele>
        <time>2021-10-31T08:42:02.000Z</time>
      </trkpt>
      <trkpt lat="44.02017" lon="2.6021">
        <ele>540</ele>
        <time>2021-10-31T08:42:03.000Z</time>
      </trkpt>
      <trkpt lat="44.02017" lon="2.6021">
        <ele>540</ele>
        <time>2021-10-31T08:42:04.000Z</time>
      </trkpt>
      <trkpt lat="44.02017" lon="2.60209">
        <ele>540</ele>
        <time>2021-10-31T08:42:05.000Z</time>
      </trkpt>
      <trkpt lat="44.02018" lon="2.60209">
        <ele>540</ele>
        <time>2021-10-31T08:42:06.000Z</time>
      </trkpt>
      <trkpt lat="44.02019" lon="2.60209">
        <ele>540</ele>
        <time>2021-10-31T08:42:07.000Z</time>
      </trkpt>
      <trkpt lat="44.0202" lon="2.60209">
        <ele>540</ele>
        <time>2021-10-31T08:42:08.000Z</time>
      </trkpt>
      <trkpt lat="44.02021" lon="2.60209">
        <ele>540</ele>
        <time>2021-10-31T08:42:09.000Z</time>
      </trkpt>
      <trkpt lat="44.02022" lon="2.60209">
        <ele>540</ele>
        <time>2021-10-31T08:42:10.000Z</time>
      </trkpt>
      <trkpt lat="44.02023" lon="2.60209">
        <ele>540</ele>
        <time>2021-10-31T08:42:11.000Z</time>
      </trkpt>
      <trkpt lat="44.02024" lon="2.60209">
        <ele>540</ele>
        <time>2021-10-31T08:42:12.000Z</time>
      </trkpt>
      <trkpt lat="44.02025" lon="2.60209">
        <ele>540</ele>
        <time>2021-10-31T08:42:13.000Z</time>
      </trkpt>
      <trkpt lat="44.02026" lon="2.60209">
        <ele>540</ele>
        <time>2021-10-31T08:42:14.000Z</time>
      </trkpt>
      <trkpt lat="44.02027" lon="2.60209">
        <ele>540</ele>
        <time>2021-10-31T08:42:15.000Z</time>
      </trkpt>
      <trkpt lat="44.02028" lon="2.60209">
        <ele>540</ele>
        <time>2021-10-31T08:42:16.000Z</time>
      </trkpt>
      <trkpt lat="44.02029" lon="2.60209">
        <ele>540</ele>
        <time>2021-10-31T08:42:17.000Z</time>
      </trkpt>
      <trkpt lat="44.0203" lon="2.60209">
        <ele>541</ele>
        <time>2021-10-31T08:42:18.000Z</time>
      </trkpt>
      <trkpt lat="44.02031" lon="2.60209">
        <ele>541</ele>
        <time>2021-10-31T08:42:19.000Z</time>
      </trkpt>
      <trkpt lat="44.02032" lon="2.60209">
        <ele>541</ele>
        <time>2021-10-31T08:42:20.000Z</time>
      </trkpt>
      <trkpt lat="44.02033" lon="2.60209">
        <ele>541</ele>
        <time>2021-10-31T08:42:21.000Z</time>
      </trkpt>
      <trkpt lat="44.02034" lon="2.60209">
        <ele>541</ele>
        <time>2021-10-31T08:42:22.000Z</time>
      </trkpt>
      <trkpt lat="44.02035" lon="2.60209">
        <ele>541</ele>
        <time>2021-10-31T08:42:23.000Z</time>
      </trkpt>
      <trkpt lat="44.02036" lon="2.60209">
        <ele>541</ele>
        <time>2021-10-31T08:42:24.000Z</time>
      </trkpt>
      <trkpt lat="44.02037" lon="2.60209">
        <ele>541</ele>
        <time>2021-10-31T08:42:25.000Z</time>
      </trkpt>
      <trkpt lat="44.02038" lon="2.60208">
        <ele>541</ele>
        <time>2021-10-31T08:42:26.000Z</time>
      </trkpt>
      <trkpt lat="44.02039" lon="2.60208">
        <ele>541</ele>
        <time>2021-10-31T08:42:27.000Z</time>
      </trkpt>
      <trkpt lat="44.0204" lon="2.60209">
        <ele>541</ele>
        <time>2021-10-31T08:42:28.000Z</time>
      </trkpt>
      <trkpt lat="44.0204" lon="2.60209">
        <ele>541</ele>
        <time>2021-10-31T08:42:29.000Z</time>
      </trkpt>
      <trkpt lat="44.0204" lon="2.60209">
        <ele>541</ele>
        <time>2021-10-31T08:42:30.000Z</time>
      </trkpt>
      <trkpt lat="44.0204" lon="2.60209">
        <ele>541</ele>
        <time>2021-10-31T08:42:31.000Z</time>
      </trkpt>
      <trkpt lat="44.02039" lon="2.60209">
        <ele>541</ele>
        <time>2021-10-31T08:42:32.000Z</time>
      </trkpt>
      <trkpt lat="44.02038" lon="2.6021">
        <ele>541</ele>
        <time>2021-10-31T08:42:33.000Z</time>
      </trkpt>
      <trkpt lat="44.02037" lon="2.6021">
        <ele>541</ele>
        <time>2021-10-31T08:42:34.000Z</time>
      </trkpt>
      <trkpt lat="44.02036" lon="2.6021">
        <ele>541</ele>
        <time>2021-10-31T08:42:35.000Z</time>
      </trkpt>
      <trkpt lat="44.02035" lon="2.6021">
        <ele>541</ele>
        <time>2021-10-31T08:42:36.000Z</time>
      </trkpt>
      <trkpt lat="44.02034" lon="2.60211">
        <ele>541</ele>
        <time>2021-10-31T08:42:37.000Z</time>
      </trkpt>
      <trkpt lat="44.02032" lon="2.60211">
        <ele>541</ele>
        <time>2021-10-31T08:42:38.000Z</time>
      </trkpt>
      <trkpt lat="44.02031" lon="2.60211">
        <ele>541</ele>
        <time>2021-10-31T08:42:39.000Z</time>
      </trkpt>
      <trkpt lat="44.0203" lon="2.60211">
        <ele>541</ele>
        <time>2021-10-31T08:42:40.000Z</time>
      </trkpt>
      <trkpt lat="44.02029" lon="2.60211">
        <ele>541</ele>
        <time>2021-10-31T08:42:41.000Z</time>
      </trkpt>
      <trkpt lat="44.02027" lon="2.60211">
        <ele>541</ele>
        <time>2021-10-31T08:42:42.000Z</time>
      </trkpt>
      <trkpt lat="44.02026" lon="2.60211">
        <ele>541</ele>
        <time>2021-10-31T08:42:43.000Z</time>
      </trkpt>
      <trkpt lat="44.02025" lon="2.60211">
        <ele>541</ele>
        <time>2021-10-31T08:42:44.000Z</time>
      </trkpt>
      <trkpt lat="44.02023" lon="2.60211">
        <ele>541</ele>
        <time>2021-10-31T08:42:45.000Z</time>
      </trkpt>
      <trkpt lat="44.02022" lon="2.60211">
        <ele>542</ele>
        <time>2021-10-31T08:42:46.000Z</time>
      </trkpt>
      <trkpt lat="44.02021" lon="2.60211">
        <ele>542</ele>
        <time>2021-10-31T08:42:47.000Z</time>
      </trkpt>
      <trkpt lat="44.0202" lon="2.60211">
        <ele>542</ele>
        <time>2021-10-31T08:42:48.000Z</time>
      </trkpt>
      <trkpt lat="44.02018" lon="2.60211">
        <ele>542</ele>
        <time>2021-10-31T08:42:49.000Z</time>
      </trkpt>
      <trkpt lat="44.02017" lon="2.6021">
        <ele>542</ele>
        <time>2021-10-31T08:42:50.000Z</time>
      </trkpt>
      <trkpt lat="44.02016" lon="2.60209">
        <ele>541</ele>
        <time>2021-10-31T08:42:51.000Z</time>
      </trkpt>
      <trkpt lat="44.02015" lon="2.60208">
        <ele>542</ele>
        <time>2021-10-31T08:42:52.000Z</time>
      </trkpt>
      <trkpt lat="44.02014" lon="2.60207">
        <ele>541</ele>
        <time>2021-10-31T08:42:53.000Z</time>
      </trkpt>
      <trkpt lat="44.02013" lon="2.60206">
        <ele>541</ele>
        <time>2021-10-31T08:42:54.000Z</time>
      </trkpt>
      <trkpt lat="44.02012" lon="2.60205">
        <ele>541</ele>
        <time>2021-10-31T08:42:55.000Z</time>
      </trkpt>
      <trkpt lat="44.02011" lon="2.60204">
        <ele>541</ele>
        <time>2021-10-31T08:42:56.000Z</time>
      </trkpt>
      <trkpt lat="44.0201" lon="2.60203">
        <ele>541</ele>
        <time>2021-10-31T08:42:57.000Z</time>
      </trkpt>
      <trkpt lat="44.02009" lon="2.60202">
        <ele>541</ele>
        <time>2021-10-31T08:42:58.000Z</time>
      </trkpt>
      <trkpt lat="44.02009" lon="2.60201">
        <ele>541</ele>
        <time>2021-10-31T08:42:59.000Z</time>
      </trkpt>
      <trkpt lat="44.02008" lon="2.60199">
        <ele>541</ele>
        <time>2021-10-31T08:43:00.000Z</time>
      </trkpt>
      <trkpt lat="44.02007" lon="2.60198">
        <ele>541</ele>
        <time>2021-10-31T08:43:01.000Z</time>
      </trkpt>
      <trkpt lat="44.02006" lon="2.60197">
        <ele>541</ele>
        <time>2021-10-31T08:43:02.000Z</time>
      </trkpt>
      <trkpt lat="44.02006" lon="2.60196">
        <ele>540</ele>
        <time>2021-10-31T08:43:03.000Z</time>
      </trkpt>
      <trkpt lat="44.02005" lon="2.60194">
        <ele>540</ele>
        <time>2021-10-31T08:43:04.000Z</time>
      </trkpt>
      <trkpt lat="44.02005" lon="2.60193">
        <ele>540</ele>
        <time>2021-10-31T08:43:05.000Z</time>
      </trkpt>
      <trkpt lat="44.02005" lon="2.60192">
        <ele>540</ele>
        <time>2021-10-31T08:43:06.000Z</time>
      </trkpt>
      <trkpt lat="44.02005" lon="2.60191">
        <ele>540</ele>
        <time>2021-10-31T08:43:07.000Z</time>
      </trkpt>
      <trkpt lat="44.02004" lon="2.60189">
        <ele>540</ele>
        <time>2021-10-31T08:43:08.000Z</time>
      </trkpt>
      <trkpt lat="44.02004" lon="2.60188">
        <ele>540</ele>
        <time>2021-10-31T08:43:09.000Z</time>
      </trkpt>
      <trkpt lat="44.02004" lon="2.60187">
        <ele>540</ele>
        <time>2021-10-31T08:43:10.000Z</time>
      </trkpt>
      <trkpt lat="44.02004" lon="2.60186">
        <ele>540</ele>
        <time>2021-10-31T08:43:11.000Z</time>
      </trkpt>
      <trkpt lat="44.02003" lon="2.60185">
        <ele>540</ele>
        <time>2021-10-31T08:43:12.000Z</time>
      </trkpt>
      <trkpt lat="44.02002" lon="2.60184">
        <ele>540</ele>
        <time>2021-10-31T08:43:13.000Z</time>
      </trkpt>
      <trkpt lat="44.02001" lon="2.60183">
        <ele>540</ele>
        <time>2021-10-31T08:43:14.000Z</time>
      </trkpt>
      <trkpt lat="44.02" lon="2.60181">
        <ele>540</ele>
        <time>2021-10-31T08:43:15.000Z</time>
      </trkpt>
      <trkpt lat="44.02" lon="2.6018">
        <ele>540</ele>
        <time>2021-10-31T08:43:16.000Z</time>
      </trkpt>
      <trkpt lat="44.01999" lon="2.60179">
        <ele>540</ele>
        <time>2021-10-31T08:43:17.000Z</time>
      </trkpt>
      <trkpt lat="44.01998" lon="2.60177">
        <ele>540</ele>
        <time>2021-10-31T08:43:18.000Z</time>
      </trkpt>
      <trkpt lat="44.01997" lon="2.60176">
        <ele>540</ele>
        <time>2021-10-31T08:43:19.000Z</time>
      </trkpt>
      <trkpt lat="44.01996" lon="2.60175">
        <ele>540</ele>
        <time>2021-10-31T08:43:20.000Z</time>
      </trkpt>
      <trkpt lat="44.01996" lon="2.60173">
        <ele>540</ele>
        <time>2021-10-31T08:43:21.000Z</time>
      </trkpt>
      <trkpt lat="44.01995" lon="2.60172">
        <ele>540</ele>
        <time>2021-10-31T08:43:22.000Z</time>
      </trkpt>
      <trkpt lat="44.01994" lon="2.6017">
        <ele>539</ele>
        <time>2021-10-31T08:43:23.000Z</time>
      </trkpt>
      <trkpt lat="44.01993" lon="2.60169">
        <ele>539</ele>
        <time>2021-10-31T08:43:24.000Z</time>
      </trkpt>
      <trkpt lat="44.01993" lon="2.60168">
        <ele>539</ele>
        <time>2021-10-31T08:43:25.000Z</time>
      </trkpt>
      <trkpt lat="44.01992" lon="2.60166">
        <ele>539</ele>
        <time>2021-10-31T08:43:26.000Z</time>
      </trkpt>
      <trkpt lat="44.01992" lon="2.60165">
        <ele>539</ele>
        <time>2021-10-31T08:43:27.000Z</time>
      </trkpt>
      <trkpt lat="44.01992" lon="2.60163">
        <ele>539</ele>
        <time>2021-10-31T08:43:28.000Z</time>
      </trkpt>
      <trkpt lat="44.01992" lon="2.60162">
        <ele>539</ele>
        <time>2021-10-31T08:43:29.000Z</time>
      </trkpt>
      <trkpt lat="44.01992" lon="2.60161">
        <ele>539</ele>
        <time>2021-10-31T08:43:30.000Z</time>
      </trkpt>
      <trkpt lat="44.01991" lon="2.6016">
        <ele>539</ele>
        <time>2021-10-31T08:43:31.000Z</time>
      </trkpt>
      <trkpt lat="44.01991" lon="2.60159">
        <ele>539</ele>
        <time>2021-10-31T08:43:32.000Z</time>
      </trkpt>
      <trkpt lat="44.0199" lon="2.60157">
        <ele>539</ele>
        <time>2021-10-31T08:43:33.000Z</time>
      </trkpt>
      <trkpt lat="44.01989" lon="2.60156">
        <ele>539</ele>
        <time>2021-10-31T08:43:34.000Z</time>
      </trkpt>
      <trkpt lat="44.01988" lon="2.60155">
        <ele>539</ele>
        <time>2021-10-31T08:43:35.000Z</time>
      </trkpt>
      <trkpt lat="44.01987" lon="2.60154">
        <ele>539</ele>
        <time>2021-10-31T08:43:36.000Z</time>
      </trkpt>
      <trkpt lat="44.01987" lon="2.60152">
        <ele>539</ele>
        <time>2021-10-31T08:43:37.000Z</time>
      </trkpt>
      <trkpt lat="44.01986" lon="2.60151">
        <ele>539</ele>
        <time>2021-10-31T08:43:38.000Z</time>
      </trkpt>
      <trkpt lat="44.01985" lon="2.6015">
        <ele>538</ele>
        <time>2021-10-31T08:43:39.000Z</time>
      </trkpt>
      <trkpt lat="44.01984" lon="2.60149">
        <ele>538</ele>
        <time>2021-10-31T08:43:40.000Z</time>
      </trkpt>
      <trkpt lat="44.01984" lon="2.60148">
        <ele>538</ele>
        <time>2021-10-31T08:43:41.000Z</time>
      </trkpt>
      <trkpt lat="44.01983" lon="2.60147">
        <ele>538</ele>
        <time>2021-10-31T08:43:42.000Z</time>
      </trkpt>
      <trkpt lat="44.01982" lon="2.60146">
        <ele>538</ele>
        <time>2021-10-31T08:43:43.000Z</time>
      </trkpt>
      <trkpt lat="44.01982" lon="2.60144">
        <ele>538</ele>
        <time>2021-10-31T08:43:44.000Z</time>
      </trkpt>
      <trkpt lat="44.01981" lon="2.60143">
        <ele>537</ele>
        <time>2021-10-31T08:43:45.000Z</time>
      </trkpt>
      <trkpt lat="44.0198" lon="2.60142">
        <ele>537</ele>
        <time>2021-10-31T08:43:46.000Z</time>
      </trkpt>
      <trkpt lat="44.0198" lon="2.6014">
        <ele>537</ele>
        <time>2021-10-31T08:43:47.000Z</time>
      </trkpt>
      <trkpt lat="44.0198" lon="2.60139">
        <ele>537</ele>
        <time>2021-10-31T08:43:48.000Z</time>
      </trkpt>
      <trkpt lat="44.01979" lon="2.60137">
        <ele>537</ele>
        <time>2021-10-31T08:43:49.000Z</time>
      </trkpt>
      <trkpt lat="44.01979" lon="2.60135">
        <ele>537</ele>
        <time>2021-10-31T08:43:50.000Z</time>
      </trkpt>
      <trkpt lat="44.01979" lon="2.60133">
        <ele>537</ele>
        <time>2021-10-31T08:43:51.000Z</time>
      </trkpt>
      <trkpt lat="44.01979" lon="2.60132">
        <ele>536</ele>
        <time>2021-10-31T08:43:52.000Z</time>
      </trkpt>
      <trkpt lat="44.01979" lon="2.6013">
        <ele>536</ele>
        <time>2021-10-31T08:43:53.000Z</time>
      </trkpt>
      <trkpt lat="44.01979" lon="2.60128">
        <ele>536</ele>
        <time>2021-10-31T08:43:54.000Z</time>
      </trkpt>
      <trkpt lat="44.01979" lon="2.60126">
        <ele>536</ele>
        <time>2021-10-31T08:43:55.000Z</time>
      </trkpt>
      <trkpt lat="44.01979" lon="2.60125">
        <ele>536</ele>
        <time>2021-10-31T08:43:56.000Z</time>
      </trkpt>
      <trkpt lat="44.01979" lon="2.60123">
        <ele>536</ele>
        <time>2021-10-31T08:43:57.000Z</time>
      </trkpt>
      <trkpt lat="44.01979" lon="2.60121">
        <ele>536</ele>
        <time>2021-10-31T08:43:58.000Z</time>
      </trkpt>
      <trkpt lat="44.01978" lon="2.6012">
        <ele>536</ele>
        <time>2021-10-31T08:43:59.000Z</time>
      </trkpt>
      <trkpt lat="44.01978" lon="2.60118">
        <ele>535</ele>
        <time>2021-10-31T08:44:00.000Z</time>
      </trkpt>
      <trkpt lat="44.01978" lon="2.60116">
        <ele>535</ele>
        <time>2021-10-31T08:44:01.000Z</time>
      </trkpt>
      <trkpt lat="44.01978" lon="2.60115">
        <ele>535</ele>
        <time>2021-10-31T08:44:02.000Z</time>
      </trkpt>
      <trkpt lat="44.01979" lon="2.60113">
        <ele>535</ele>
        <time>2021-10-31T08:44:03.000Z</time>
      </trkpt>
      <trkpt lat="44.01979" lon="2.60112">
        <ele>535</ele>
        <time>2021-10-31T08:44:04.000Z</time>
      </trkpt>
      <trkpt lat="44.01979" lon="2.6011">
        <ele>535</ele>
        <time>2021-10-31T08:44:05.000Z</time>
      </trkpt>
      <trkpt lat="44.01979" lon="2.60108">
        <ele>535</ele>
        <time>2021-10-31T08:44:06.000Z</time>
      </trkpt>
      <trkpt lat="44.01979" lon="2.60106">
        <ele>534</ele>
        <time>2021-10-31T08:44:07.000Z</time>
      </trkpt>
      <trkpt lat="44.01979" lon="2.60104">
        <ele>534</ele>
        <time>2021-10-31T08:44:08.000Z</time>
      </trkpt>
      <trkpt lat="44.0198" lon="2.60102">
        <ele>534</ele>
        <time>2021-10-31T08:44:09.000Z</time>
      </trkpt>
      <trkpt lat="44.0198" lon="2.60101">
        <ele>534</ele>
        <time>2021-10-31T08:44:10.000Z</time>
      </trkpt>
      <trkpt lat="44.0198" lon="2.60099">
        <ele>534</ele>
        <time>2021-10-31T08:44:11.000Z</time>
      </trkpt>
      <trkpt lat="44.0198" lon="2.60097">
        <ele>534</ele>
        <time>2021-10-31T08:44:12.000Z</time>
      </trkpt>
      <trkpt lat="44.0198" lon="2.60096">
        <ele>534</ele>
        <time>2021-10-31T08:44:13.000Z</time>
      </trkpt>
      <trkpt lat="44.01981" lon="2.60094">
        <ele>533</ele>
        <time>2021-10-31T08:44:14.000Z</time>
      </trkpt>
      <trkpt lat="44.01981" lon="2.60092">
        <ele>533</ele>
        <time>2021-10-31T08:44:15.000Z</time>
      </trkpt>
      <trkpt lat="44.01981" lon="2.60091">
        <ele>533</ele>
        <time>2021-10-31T08:44:16.000Z</time>
      </trkpt>
      <trkpt lat="44.01981" lon="2.60089">
        <ele>533</ele>
        <time>2021-10-31T08:44:17.000Z</time>
      </trkpt>
      <trkpt lat="44.01981" lon="2.60088">
        <ele>533</ele>
        <time>2021-10-31T08:44:18.000Z</time>
      </trkpt>
      <trkpt lat="44.01982" lon="2.60086">
        <ele>533</ele>
        <time>2021-10-31T08:44:19.000Z</time>
      </trkpt>
      <trkpt lat="44.01982" lon="2.60084">
        <ele>533</ele>
        <time>2021-10-31T08:44:20.000Z</time>
      </trkpt>
      <trkpt lat="44.01983" lon="2.60083">
        <ele>533</ele>
        <time>2021-10-31T08:44:21.000Z</time>
      </trkpt>
      <trkpt lat="44.01983" lon="2.60081">
        <ele>533</ele>
        <time>2021-10-31T08:44:22.000Z</time>
      </trkpt>
      <trkpt lat="44.01984" lon="2.60079">
        <ele>533</ele>
        <time>2021-10-31T08:44:23.000Z</time>
      </trkpt>
      <trkpt lat="44.01984" lon="2.60077">
        <ele>533</ele>
        <time>2021-10-31T08:44:24.000Z</time>
      </trkpt>
      <trkpt lat="44.01984" lon="2.60076">
        <ele>532</ele>
        <time>2021-10-31T08:44:25.000Z</time>
      </trkpt>
      <trkpt lat="44.01985" lon="2.60074">
        <ele>532</ele>
        <time>2021-10-31T08:44:26.000Z</time>
      </trkpt>
      <trkpt lat="44.01985" lon="2.60073">
        <ele>532</ele>
        <time>2021-10-31T08:44:27.000Z</time>
      </trkpt>
      <trkpt lat="44.01985" lon="2.60071">
        <ele>532</ele>
        <time>2021-10-31T08:44:28.000Z</time>
      </trkpt>
      <trkpt lat="44.01986" lon="2.60069">
        <ele>532</ele>
        <time>2021-10-31T08:44:29.000Z</time>
      </trkpt>
      <trkpt lat="44.01986" lon="2.60068">
        <ele>532</ele>
        <time>2021-10-31T08:44:30.000Z</time>
      </trkpt>
      <trkpt lat="44.01987" lon="2.60066">
        <ele>532</ele>
        <time>2021-10-31T08:44:31.000Z</time>
      </trkpt>
      <trkpt lat="44.01988" lon="2.60065">
        <ele>532</ele>
        <time>2021-10-31T08:44:32.000Z</time>
      </trkpt>
      <trkpt lat="44.01988" lon="2.60064">
        <ele>532</ele>
        <time>2021-10-31T08:44:33.000Z</time>
      </trkpt>
      <trkpt lat="44.01989" lon="2.60062">
        <ele>532</ele>
        <time>2021-10-31T08:44:34.000Z</time>
      </trkpt>
      <trkpt lat="44.0199" lon="2.60061">
        <ele>532</ele>
        <time>2021-10-31T08:44:35.000Z</time>
      </trkpt>
      <trkpt lat="44.01991" lon="2.6006">
        <ele>532</ele>
        <time>2021-10-31T08:44:36.000Z</time>
      </trkpt>
      <trkpt lat="44.01992" lon="2.60059">
        <ele>531</ele>
        <time>2021-10-31T08:44:37.000Z</time>
      </trkpt>
      <trkpt lat="44.01993" lon="2.60058">
        <ele>531</ele>
        <time>2021-10-31T08:44:38.000Z</time>
      </trkpt>
      <trkpt lat="44.01994" lon="2.60056">
        <ele>531</ele>
        <time>2021-10-31T08:44:39.000Z</time>
      </trkpt>
      <trkpt lat="44.01995" lon="2.60055">
        <ele>531</ele>
        <time>2021-10-31T08:44:40.000Z</time>
      </trkpt>
      <trkpt lat="44.01996" lon="2.60054">
        <ele>532</ele>
        <time>2021-10-31T08:44:41.000Z</time>
      </trkpt>
      <trkpt lat="44.01997" lon="2.60053">
        <ele>531</ele>
        <time>2021-10-31T08:44:42.000Z</time>
      </trkpt>
      <trkpt lat="44.01998" lon="2.60052">
        <ele>531</ele>
        <time>2021-10-31T08:44:43.000Z</time>
      </trkpt>
      <trkpt lat="44.01999" lon="2.60051">
        <ele>531</ele>
        <time>2021-10-31T08:44:44.000Z</time>
      </trkpt>
      <trkpt lat="44.02" lon="2.6005">
        <ele>531</ele>
        <time>2021-10-31T08:44:45.000Z</time>
      </trkpt>
      <trkpt lat="44.02001" lon="2.60049">
        <ele>532</ele>
        <time>2021-10-31T08:44:46.000Z</time>
      </trkpt>
      <trkpt lat="44.02002" lon="2.60048">
        <ele>532</ele>
        <time>2021-10-31T08:44:47.000Z</time>
      </trkpt>
      <trkpt lat="44.02003" lon="2.60047">
        <ele>532</ele>
        <time>2021-10-31T08:44:48.000Z</time>
      </trkpt>
      <trkpt lat="44.02004" lon="2.60045">
        <ele>532</ele>
        <time>2021-10-31T08:44:49.000Z</time>
      </trkpt>
      <trkpt lat="44.02005" lon="2.60045">
        <ele>532</ele>
        <time>2021-10-31T08:44:50.000Z</time>
      </trkpt>
      <trkpt lat="44.02006" lon="2.60044">
        <ele>532</ele>
        <time>2021-10-31T08:44:51.000Z</time>
      </trkpt>
      <trkpt lat="44.02007" lon="2.60043">
        <ele>532</ele>
        <time>2021-10-31T08:44:52.000Z</time>
      </trkpt>
      <trkpt lat="44.02008" lon="2.60042">
        <ele>532</ele>
        <time>2021-10-31T08:44:53.000Z</time>
      </trkpt>
      <trkpt lat="44.02009" lon="2.6004">
        <ele>532</ele>
        <time>2021-10-31T08:44:54.000Z</time>
      </trkpt>
      <trkpt lat="44.0201" lon="2.60039">
        <ele>532</ele>
        <time>2021-10-31T08:44:55.000Z</time>
      </trkpt>
      <trkpt lat="44.02011" lon="2.60038">
        <ele>532</ele>
        <time>2021-10-31T08:44:56.000Z</time>
      </trkpt>
      <trkpt lat="44.02012" lon="2.60037">
        <ele>532</ele>
        <time>2021-10-31T08:44:57.000Z</time>
      </trkpt>
      <trkpt lat="44.02012" lon="2.60036">
        <ele>532</ele>
        <time>2021-10-31T08:44:58.000Z</time>
      </trkpt>
      <trkpt lat="44.02013" lon="2.60035">
        <ele>532</ele>
        <time>2021-10-31T08:44:59.000Z</time>
      </trkpt>
      <trkpt lat="44.02014" lon="2.60034">
        <ele>532</ele>
        <time>2021-10-31T08:45:00.000Z</time>
      </trkpt>
      <trkpt lat="44.02015" lon="2.60033">
        <ele>532</ele>
        <time>2021-10-31T08:45:01.000Z</time>
      </trkpt>
      <trkpt lat="44.02016" lon="2.60032">
        <ele>531</ele>
        <time>2021-10-31T08:45:02.000Z</time>
      </trkpt>
      <trkpt lat="44.02017" lon="2.60031">
        <ele>531</ele>
        <time>2021-10-31T08:45:03.000Z</time>
      </trkpt>
      <trkpt lat="44.02018" lon="2.60029">
        <ele>531</ele>
        <time>2021-10-31T08:45:04.000Z</time>
      </trkpt>
      <trkpt lat="44.02019" lon="2.60028">
        <ele>531</ele>
        <time>2021-10-31T08:45:05.000Z</time>
      </trkpt>
      <trkpt lat="44.0202" lon="2.60027">
        <ele>531</ele>
        <time>2021-10-31T08:45:06.000Z</time>
      </trkpt>
      <trkpt lat="44.02021" lon="2.60026">
        <ele>531</ele>
        <time>2021-10-31T08:45:07.000Z</time>
      </trkpt>
      <trkpt lat="44.02022" lon="2.60025">
        <ele>531</ele>
        <time>2021-10-31T08:45:08.000Z</time>
      </trkpt>
      <trkpt lat="44.02023" lon="2.60024">
        <ele>531</ele>
        <time>2021-10-31T08:45:09.000Z</time>
      </trkpt>
      <trkpt lat="44.02024" lon="2.60023">
        <ele>531</ele>
        <time>2021-10-31T08:45:10.000Z</time>
      </trkpt>
      <trkpt lat="44.02024" lon="2.60022">
        <ele>531</ele>
        <time>2021-10-31T08:45:11.000Z</time>
      </trkpt>
      <trkpt lat="44.02025" lon="2.60021">
        <ele>531</ele>
        <time>2021-10-31T08:45:12.000Z</time>
      </trkpt>
      <trkpt lat="44.02026" lon="2.6002">
        <ele>531</ele>
        <time>2021-10-31T08:45:13.000Z</time>
      </trkpt>
      <trkpt lat="44.02027" lon="2.60019">
        <ele>531</ele>
        <time>2021-10-31T08:45:14.000Z</time>
      </trkpt>
      <trkpt lat="44.02028" lon="2.60019">
        <ele>531</ele>
        <time>2021-10-31T08:45:15.000Z</time>
      </trkpt>
      <trkpt lat="44.02028" lon="2.60018">
        <ele>531</ele>
        <time>2021-10-31T08:45:16.000Z</time>
      </trkpt>
      <trkpt lat="44.02029" lon="2.60017">
        <ele>531</ele>
        <time>2021-10-31T08:45:17.000Z</time>
      </trkpt>
      <trkpt lat="44.02029" lon="2.60016">
        <ele>531</ele>
        <time>2021-10-31T08:45:18.000Z</time>
      </trkpt>
      <trkpt lat="44.0203" lon="2.60015">
        <ele>531</ele>
        <time>2021-10-31T08:45:19.000Z</time>
      </trkpt>
      <trkpt lat="44.02031" lon="2.60014">
        <ele>531</ele>
        <time>2021-10-31T08:45:20.000Z</time>
      </trkpt>
      <trkpt lat="44.02032" lon="2.60013">
        <ele>531</ele>
        <time>2021-10-31T08:45:21.000Z</time>
      </trkpt>
      <trkpt lat="44.02032" lon="2.60012">
        <ele>531</ele>
        <time>2021-10-31T08:45:22.000Z</time>
      </trkpt>
      <trkpt lat="44.02033" lon="2.6001">
        <ele>530</ele>
        <time>2021-10-31T08:45:23.000Z</time>
      </trkpt>
      <trkpt lat="44.02034" lon="2.60009">
        <ele>530</ele>
        <time>2021-10-31T08:45:24.000Z</time>
      </trkpt>
      <trkpt lat="44.02035" lon="2.60008">
        <ele>530</ele>
        <time>2021-10-31T08:45:25.000Z</time>
      </trkpt>
      <trkpt lat="44.02036" lon="2.60007">
        <ele>530</ele>
        <time>2021-10-31T08:45:26.000Z</time>
      </trkpt>
      <trkpt lat="44.02037" lon="2.60006">
        <ele>530</ele>
        <time>2021-10-31T08:45:27.000Z</time>
      </trkpt>
      <trkpt lat="44.02038" lon="2.60005">
        <ele>530</ele>
        <time>2021-10-31T08:45:28.000Z</time>
      </trkpt>
      <trkpt lat="44.02039" lon="2.60003">
        <ele>530</ele>
        <time>2021-10-31T08:45:29.000Z</time>
      </trkpt>
      <trkpt lat="44.02039" lon="2.60002">
        <ele>530</ele>
        <time>2021-10-31T08:45:30.000Z</time>
      </trkpt>
      <trkpt lat="44.0204" lon="2.60001">
        <ele>529</ele>
        <time>2021-10-31T08:45:31.000Z</time>
      </trkpt>
      <trkpt lat="44.02041" lon="2.6">
        <ele>529</ele>
        <time>2021-10-31T08:45:32.000Z</time>
      </trkpt>
      <trkpt lat="44.02042" lon="2.59999">
        <ele>529</ele>
        <time>2021-10-31T08:45:33.000Z</time>
      </trkpt>
      <trkpt lat="44.02042" lon="2.59998">
        <ele>529</ele>
        <time>2021-10-31T08:45:34.000Z</time>
      </trkpt>
      <trkpt lat="44.02043" lon="2.59996">
        <ele>529</ele>
        <time>2021-10-31T08:45:35.000Z</time>
      </trkpt>
      <trkpt lat="44.02044" lon="2.59995">
        <ele>529</ele>
        <time>2021-10-31T08:45:36.000Z</time>
      </trkpt>
      <trkpt lat="44.02045" lon="2.59994">
        <ele>529</ele>
        <time>2021-10-31T08:45:37.000Z</time>
      </trkpt>
      <trkpt lat="44.02046" lon="2.59992">
        <ele>529</ele>
        <time>2021-10-31T08:45:38.000Z</time>
      </trkpt>
      <trkpt lat="44.02047" lon="2.59991">
        <ele>529</ele>
        <time>2021-10-31T08:45:39.000Z</time>
      </trkpt>
      <trkpt lat="44.02047" lon="2.59989">
        <ele>529</ele>
        <time>2021-10-31T08:45:40.000Z</time>
      </trkpt>
      <trkpt lat="44.02048" lon="2.59988">
        <ele>529</ele>
        <time>2021-10-31T08:45:41.000Z</time>
      </trkpt>
      <trkpt lat="44.02049" lon="2.59987">
        <ele>529</ele>
        <time>2021-10-31T08:45:42.000Z</time>
      </trkpt>
      <trkpt lat="44.0205" lon="2.59986">
        <ele>529</ele>
        <time>2021-10-31T08:45:43.000Z</time>
      </trkpt>
      <trkpt lat="44.02051" lon="2.59984">
        <ele>529</ele>
        <time>2021-10-31T08:45:44.000Z</time>
      </trkpt>
      <trkpt lat="44.02052" lon="2.59983">
        <ele>529</ele>
        <time>2021-10-31T08:45:45.000Z</time>
      </trkpt>
      <trkpt lat="44.02052" lon="2.59982">
        <ele>529</ele>
        <time>2021-10-31T08:45:46.000Z</time>
      </trkpt>
      <trkpt lat="44.02053" lon="2.5998">
        <ele>529</ele>
        <time>2021-10-31T08:45:47.000Z</time>
      </trkpt>
      <trkpt lat="44.02054" lon="2.59979">
        <ele>529</ele>
        <time>2021-10-31T08:45:48.000Z</time>
      </trkpt>
      <trkpt lat="44.02054" lon="2.59978">
        <ele>529</ele>
        <time>2021-10-31T08:45:49.000Z</time>
      </trkpt>
      <trkpt lat="44.02055" lon="2.59977">
        <ele>529</ele>
        <time>2021-10-31T08:45:50.000Z</time>
      </trkpt>
      <trkpt lat="44.02055" lon="2.59975">
        <ele>529</ele>
        <time>2021-10-31T08:45:51.000Z</time>
      </trkpt>
      <trkpt lat="44.02056" lon="2.59974">
        <ele>529</ele>
        <time>2021-10-31T08:45:52.000Z</time>
      </trkpt>
      <trkpt lat="44.02057" lon="2.59973">
        <ele>528</ele>
        <time>2021-10-31T08:45:53.000Z</time>
      </trkpt>
      <trkpt lat="44.02057" lon="2.59971">
        <ele>529</ele>
        <time>2021-10-31T08:45:54.000Z</time>
      </trkpt>
      <trkpt lat="44.02058" lon="2.5997">
        <ele>529</ele>
        <time>2021-10-31T08:45:55.000Z</time>
      </trkpt>
      <trkpt lat="44.02059" lon="2.59969">
        <ele>529</ele>
        <time>2021-10-31T08:45:56.000Z</time>
      </trkpt>
      <trkpt lat="44.02059" lon="2.59969">
        <ele>529</ele>
        <time>2021-10-31T08:45:57.000Z</time>
      </trkpt>
      <trkpt lat="44.02059" lon="2.59968">
        <ele>529</ele>
        <time>2021-10-31T08:45:58.000Z</time>
      </trkpt>
      <trkpt lat="44.02059" lon="2.59967">
        <ele>529</ele>
        <time>2021-10-31T08:45:59.000Z</time>
      </trkpt>
      <trkpt lat="44.0206" lon="2.59967">
        <ele>529</ele>
        <time>2021-10-31T08:46:00.000Z</time>
      </trkpt>
      <trkpt lat="44.0206" lon="2.59966">
        <ele>529</ele>
        <time>2021-10-31T08:46:01.000Z</time>
      </trkpt>
      <trkpt lat="44.02061" lon="2.59965">
        <ele>529</ele>
        <time>2021-10-31T08:46:02.000Z</time>
      </trkpt>
      <trkpt lat="44.02061" lon="2.59964">
        <ele>529</ele>
        <time>2021-10-31T08:46:03.000Z</time>
      </trkpt>
      <trkpt lat="44.02062" lon="2.59963">
        <ele>529</ele>
        <time>2021-10-31T08:46:04.000Z</time>
      </trkpt>
      <trkpt lat="44.02063" lon="2.59962">
        <ele>529</ele>
        <time>2021-10-31T08:46:05.000Z</time>
      </trkpt>
      <trkpt lat="44.02063" lon="2.59961">
        <ele>529</ele>
        <time>2021-10-31T08:46:06.000Z</time>
      </trkpt>
      <trkpt lat="44.02064" lon="2.59959">
        <ele>529</ele>
        <time>2021-10-31T08:46:07.000Z</time>
      </trkpt>
      <trkpt lat="44.02064" lon="2.59958">
        <ele>529</ele>
        <time>2021-10-31T08:46:08.000Z</time>
      </trkpt>
      <trkpt lat="44.02065" lon="2.59957">
        <ele>529</ele>
        <time>2021-10-31T08:46:09.000Z</time>
      </trkpt>
      <trkpt lat="44.02065" lon="2.59957">
        <ele>529</ele>
        <time>2021-10-31T08:46:10.000Z</time>
      </trkpt>
      <trkpt lat="44.02066" lon="2.59956">
        <ele>529</ele>
        <time>2021-10-31T08:46:11.000Z</time>
      </trkpt>
      <trkpt lat="44.02067" lon="2.59955">
        <ele>529</ele>
        <time>2021-10-31T08:46:12.000Z</time>
      </trkpt>
      <trkpt lat="44.02067" lon="2.59954">
        <ele>529</ele>
        <time>2021-10-31T08:46:13.000Z</time>
      </trkpt>
      <trkpt lat="44.02068" lon="2.59953">
        <ele>529</ele>
        <time>2021-10-31T08:46:14.000Z</time>
      </trkpt>
      <trkpt lat="44.02068" lon="2.59952">
        <ele>529</ele>
        <time>2021-10-31T08:46:15.000Z</time>
      </trkpt>
      <trkpt lat="44.02069" lon="2.5995">
        <ele>529</ele>
        <time>2021-10-31T08:46:16.000Z</time>
      </trkpt>
      <trkpt lat="44.0207" lon="2.59949">
        <ele>528</ele>
        <time>2021-10-31T08:46:17.000Z</time>
      </trkpt>
      <trkpt lat="44.02071" lon="2.59948">
        <ele>528</ele>
        <time>2021-10-31T08:46:18.000Z</time>
      </trkpt>
      <trkpt lat="44.02072" lon="2.59946">
        <ele>528</ele>
        <time>2021-10-31T08:46:19.000Z</time>
      </trkpt>
      <trkpt lat="44.02072" lon="2.59945">
        <ele>528</ele>
        <time>2021-10-31T08:46:20.000Z</time>
      </trkpt>
      <trkpt lat="44.02073" lon="2.59944">
        <ele>528</ele>
        <time>2021-10-31T08:46:21.000Z</time>
      </trkpt>
      <trkpt lat="44.02074" lon="2.59943">
        <ele>528</ele>
        <time>2021-10-31T08:46:22.000Z</time>
      </trkpt>
      <trkpt lat="44.02074" lon="2.59941">
        <ele>528</ele>
        <time>2021-10-31T08:46:23.000Z</time>
      </trkpt>
      <trkpt lat="44.02074" lon="2.5994">
        <ele>528</ele>
        <time>2021-10-31T08:46:24.000Z</time>
      </trkpt>
      <trkpt lat="44.02075" lon="2.59938">
        <ele>528</ele>
        <time>2021-10-31T08:46:25.000Z</time>
      </trkpt>
      <trkpt lat="44.02076" lon="2.59937">
        <ele>528</ele>
        <time>2021-10-31T08:46:26.000Z</time>
      </trkpt>
      <trkpt lat="44.02076" lon="2.59936">
        <ele>528</ele>
        <time>2021-10-31T08:46:27.000Z</time>
      </trkpt>
      <trkpt lat="44.02077" lon="2.59934">
        <ele>528</ele>
        <time>2021-10-31T08:46:28.000Z</time>
      </trkpt>
      <trkpt lat="44.02078" lon="2.59933">
        <ele>528</ele>
        <time>2021-10-31T08:46:29.000Z</time>
      </trkpt>
      <trkpt lat="44.02079" lon="2.59932">
        <ele>527</ele>
        <time>2021-10-31T08:46:30.000Z</time>
      </trkpt>
      <trkpt lat="44.0208" lon="2.59931">
        <ele>527</ele>
        <time>2021-10-31T08:46:31.000Z</time>
      </trkpt>
      <trkpt lat="44.0208" lon="2.5993">
        <ele>527</ele>
        <time>2021-10-31T08:46:32.000Z</time>
      </trkpt>
      <trkpt lat="44.02081" lon="2.59929">
        <ele>527</ele>
        <time>2021-10-31T08:46:33.000Z</time>
      </trkpt>
      <trkpt lat="44.02082" lon="2.59927">
        <ele>527</ele>
        <time>2021-10-31T08:46:34.000Z</time>
      </trkpt>
      <trkpt lat="44.02082" lon="2.59926">
        <ele>527</ele>
        <time>2021-10-31T08:46:35.000Z</time>
      </trkpt>
      <trkpt lat="44.02083" lon="2.59925">
        <ele>527</ele>
        <time>2021-10-31T08:46:36.000Z</time>
      </trkpt>
      <trkpt lat="44.02084" lon="2.59923">
        <ele>527</ele>
        <time>2021-10-31T08:46:37.000Z</time>
      </trkpt>
      <trkpt lat="44.02085" lon="2.59922">
        <ele>527</ele>
        <time>2021-10-31T08:46:38.000Z</time>
      </trkpt>
      <trkpt lat="44.02086" lon="2.59921">
        <ele>527</ele>
        <time>2021-10-31T08:46:39.000Z</time>
      </trkpt>
      <trkpt lat="44.02087" lon="2.5992">
        <ele>527</ele>
        <time>2021-10-31T08:46:40.000Z</time>
      </trkpt>
      <trkpt lat="44.02087" lon="2.59918">
        <ele>527</ele>
        <time>2021-10-31T08:46:41.000Z</time>
      </trkpt>
      <trkpt lat="44.02088" lon="2.59917">
        <ele>527</ele>
        <time>2021-10-31T08:46:42.000Z</time>
      </trkpt>
      <trkpt lat="44.02089" lon="2.59916">
        <ele>527</ele>
        <time>2021-10-31T08:46:43.000Z</time>
      </trkpt>
      <trkpt lat="44.02089" lon="2.59914">
        <ele>526</ele>
        <time>2021-10-31T08:46:44.000Z</time>
      </trkpt>
      <trkpt lat="44.0209" lon="2.59913">
        <ele>526</ele>
        <time>2021-10-31T08:46:45.000Z</time>
      </trkpt>
      <trkpt lat="44.02091" lon="2.59913">
        <ele>526</ele>
        <time>2021-10-31T08:46:46.000Z</time>
      </trkpt>
      <trkpt lat="44.02091" lon="2.59912">
        <ele>526</ele>
        <time>2021-10-31T08:46:47.000Z</time>
      </trkpt>
      <trkpt lat="44.02092" lon="2.5991">
        <ele>526</ele>
        <time>2021-10-31T08:46:48.000Z</time>
      </trkpt>
      <trkpt lat="44.02093" lon="2.59909">
        <ele>526</ele>
        <time>2021-10-31T08:46:49.000Z</time>
      </trkpt>
      <trkpt lat="44.02093" lon="2.59908">
        <ele>526</ele>
        <time>2021-10-31T08:46:50.000Z</time>
      </trkpt>
      <trkpt lat="44.02094" lon="2.59907">
        <ele>526</ele>
        <time>2021-10-31T08:46:51.000Z</time>
      </trkpt>
      <trkpt lat="44.02094" lon="2.59906">
        <ele>526</ele>
        <time>2021-10-31T08:46:52.000Z</time>
      </trkpt>
      <trkpt lat="44.02095" lon="2.59905">
        <ele>526</ele>
        <time>2021-10-31T08:46:53.000Z</time>
      </trkpt>
      <trkpt lat="44.02095" lon="2.59903">
        <ele>526</ele>
        <time>2021-10-31T08:46:54.000Z</time>
      </trkpt>
      <trkpt lat="44.02096" lon="2.59902">
        <ele>526</ele>
        <time>2021-10-31T08:46:55.000Z</time>
      </trkpt>
      <trkpt lat="44.02096" lon="2.599">
        <ele>526</ele>
        <time>2021-10-31T08:46:56.000Z</time>
      </trkpt>
      <trkpt lat="44.02097" lon="2.59899">
        <ele>525</ele>
        <time>2021-10-31T08:46:57.000Z</time>
      </trkpt>
      <trkpt lat="44.02097" lon="2.59898">
        <ele>525</ele>
        <time>2021-10-31T08:46:58.000Z</time>
      </trkpt>
      <trkpt lat="44.02098" lon="2.59897">
        <ele>525</ele>
        <time>2021-10-31T08:46:59.000Z</time>
      </trkpt>
      <trkpt lat="44.02099" lon="2.59896">
        <ele>525</ele>
        <time>2021-10-31T08:47:00.000Z</time>
      </trkpt>
      <trkpt lat="44.02099" lon="2.59894">
        <ele>525</ele>
        <time>2021-10-31T08:47:01.000Z</time>
      </trkpt>
      <trkpt lat="44.021" lon="2.59893">
        <ele>524</ele>
        <time>2021-10-31T08:47:02.000Z</time>
      </trkpt>
      <trkpt lat="44.021" lon="2.59891">
        <ele>524</ele>
        <time>2021-10-31T08:47:03.000Z</time>
      </trkpt>
      <trkpt lat="44.02101" lon="2.59889">
        <ele>524</ele>
        <time>2021-10-31T08:47:04.000Z</time>
      </trkpt>
      <trkpt lat="44.02102" lon="2.59888">
        <ele>524</ele>
        <time>2021-10-31T08:47:05.000Z</time>
      </trkpt>
      <trkpt lat="44.02102" lon="2.59886">
        <ele>524</ele>
        <time>2021-10-31T08:47:06.000Z</time>
      </trkpt>
      <trkpt lat="44.02103" lon="2.59885">
        <ele>524</ele>
        <time>2021-10-31T08:47:07.000Z</time>
      </trkpt>
      <trkpt lat="44.02104" lon="2.59883">
        <ele>524</ele>
        <time>2021-10-31T08:47:08.000Z</time>
      </trkpt>
      <trkpt lat="44.02104" lon="2.59881">
        <ele>524</ele>
        <time>2021-10-31T08:47:09.000Z</time>
      </trkpt>
      <trkpt lat="44.02105" lon="2.5988">
        <ele>524</ele>
        <time>2021-10-31T08:47:10.000Z</time>
      </trkpt>
      <trkpt lat="44.02106" lon="2.59878">
        <ele>524</ele>
        <time>2021-10-31T08:47:11.000Z</time>
      </trkpt>
      <trkpt lat="44.02106" lon="2.59877">
        <ele>524</ele>
        <time>2021-10-31T08:47:12.000Z</time>
      </trkpt>
      <trkpt lat="44.02107" lon="2.59875">
        <ele>524</ele>
        <time>2021-10-31T08:47:13.000Z</time>
      </trkpt>
      <trkpt lat="44.02108" lon="2.59873">
        <ele>524</ele>
        <time>2021-10-31T08:47:14.000Z</time>
      </trkpt>
      <trkpt lat="44.02108" lon="2.59872">
        <ele>523</ele>
        <time>2021-10-31T08:47:15.000Z</time>
      </trkpt>
      <trkpt lat="44.02109" lon="2.5987">
        <ele>523</ele>
        <time>2021-10-31T08:47:16.000Z</time>
      </trkpt>
      <trkpt lat="44.0211" lon="2.59869">
        <ele>523</ele>
        <time>2021-10-31T08:47:17.000Z</time>
      </trkpt>
      <trkpt lat="44.02111" lon="2.59868">
        <ele>523</ele>
        <time>2021-10-31T08:47:18.000Z</time>
      </trkpt>
      <trkpt lat="44.02112" lon="2.59868">
        <ele>523</ele>
        <time>2021-10-31T08:47:19.000Z</time>
      </trkpt>
      <trkpt lat="44.02112" lon="2.59867">
        <ele>523</ele>
        <time>2021-10-31T08:47:20.000Z</time>
      </trkpt>
      <trkpt lat="44.02112" lon="2.59867">
        <ele>523</ele>
        <time>2021-10-31T08:47:21.000Z</time>
      </trkpt>
      <trkpt lat="44.02112" lon="2.59867">
        <ele>523</ele>
        <time>2021-10-31T08:47:22.000Z</time>
      </trkpt>
      <trkpt lat="44.02112" lon="2.59867">
        <ele>523</ele>
        <time>2021-10-31T08:47:23.000Z</time>
      </trkpt>
      <trkpt lat="44.02113" lon="2.59865">
        <ele>523</ele>
        <time>2021-10-31T08:47:24.000Z</time>
      </trkpt>
      <trkpt lat="44.02114" lon="2.59864">
        <ele>523</ele>
        <time>2021-10-31T08:47:25.000Z</time>
      </trkpt>
      <trkpt lat="44.02114" lon="2.59863">
        <ele>523</ele>
        <time>2021-10-31T08:47:26.000Z</time>
      </trkpt>
      <trkpt lat="44.02115" lon="2.59863">
        <ele>523</ele>
        <time>2021-10-31T08:47:27.000Z</time>
      </trkpt>
      <trkpt lat="44.02116" lon="2.59863">
        <ele>523</ele>
        <time>2021-10-31T08:47:28.000Z</time>
      </trkpt>
      <trkpt lat="44.02116" lon="2.59862">
        <ele>523</ele>
        <time>2021-10-31T08:47:29.000Z</time>
      </trkpt>
      <trkpt lat="44.02117" lon="2.59862">
        <ele>523</ele>
        <time>2021-10-31T08:47:30.000Z</time>
      </trkpt>
      <trkpt lat="44.02118" lon="2.59861">
        <ele>523</ele>
        <time>2021-10-31T08:47:31.000Z</time>
      </trkpt>
      <trkpt lat="44.02119" lon="2.59861">
        <ele>523</ele>
        <time>2021-10-31T08:47:32.000Z</time>
      </trkpt>
      <trkpt lat="44.0212" lon="2.59861">
        <ele>523</ele>
        <time>2021-10-31T08:47:33.000Z</time>
      </trkpt>
      <trkpt lat="44.02121" lon="2.5986">
        <ele>523</ele>
        <time>2021-10-31T08:47:34.000Z</time>
      </trkpt>
      <trkpt lat="44.02122" lon="2.5986">
        <ele>523</ele>
        <time>2021-10-31T08:47:35.000Z</time>
      </trkpt>
      <trkpt lat="44.02123" lon="2.5986">
        <ele>522</ele>
        <time>2021-10-31T08:47:36.000Z</time>
      </trkpt>
      <trkpt lat="44.02124" lon="2.5986">
        <ele>522</ele>
        <time>2021-10-31T08:47:37.000Z</time>
      </trkpt>
      <trkpt lat="44.02125" lon="2.5986">
        <ele>522</ele>
        <time>2021-10-31T08:47:38.000Z</time>
      </trkpt>
      <trkpt lat="44.02125" lon="2.5986">
        <ele>522</ele>
        <time>2021-10-31T08:47:39.000Z</time>
      </trkpt>
      <trkpt lat="44.02125" lon="2.59861">
        <ele>522</ele>
        <time>2021-10-31T08:47:40.000Z</time>
      </trkpt>
      <trkpt lat="44.02125" lon="2.59861">
        <ele>522</ele>
        <time>2021-10-31T08:47:41.000Z</time>
      </trkpt>
      <trkpt lat="44.02125" lon="2.5986">
        <ele>522</ele>
        <time>2021-10-31T08:47:42.000Z</time>
      </trkpt>
      <trkpt lat="44.02125" lon="2.5986">
        <ele>522</ele>
        <time>2021-10-31T08:47:43.000Z</time>
      </trkpt>
      <trkpt lat="44.02124" lon="2.59859">
        <ele>522</ele>
        <time>2021-10-31T08:47:44.000Z</time>
      </trkpt>
      <trkpt lat="44.02123" lon="2.59857">
        <ele>522</ele>
        <time>2021-10-31T08:47:45.000Z</time>
      </trkpt>
      <trkpt lat="44.02123" lon="2.59857">
        <ele>522</ele>
        <time>2021-10-31T08:47:46.000Z</time>
      </trkpt>
      <trkpt lat="44.02122" lon="2.59855">
        <ele>522</ele>
        <time>2021-10-31T08:47:47.000Z</time>
      </trkpt>
      <trkpt lat="44.02122" lon="2.59855">
        <ele>522</ele>
        <time>2021-10-31T08:47:48.000Z</time>
      </trkpt>
      <trkpt lat="44.02121" lon="2.59854">
        <ele>522</ele>
        <time>2021-10-31T08:47:49.000Z</time>
      </trkpt>
      <trkpt lat="44.0212" lon="2.59853">
        <ele>522</ele>
        <time>2021-10-31T08:47:50.000Z</time>
      </trkpt>
      <trkpt lat="44.0212" lon="2.59852">
        <ele>522</ele>
        <time>2021-10-31T08:47:51.000Z</time>
      </trkpt>
      <trkpt lat="44.0212" lon="2.59852">
        <ele>522</ele>
        <time>2021-10-31T08:47:52.000Z</time>
      </trkpt>
      <trkpt lat="44.02119" lon="2.59852">
        <ele>521</ele>
        <time>2021-10-31T08:47:53.000Z</time>
      </trkpt>
      <trkpt lat="44.02119" lon="2.59852">
        <ele>521</ele>
        <time>2021-10-31T08:47:54.000Z</time>
      </trkpt>
      <trkpt lat="44.02119" lon="2.59852">
        <ele>521</ele>
        <time>2021-10-31T08:47:55.000Z</time>
      </trkpt>
      <trkpt lat="44.02119" lon="2.59852">
        <ele>521</ele>
        <time>2021-10-31T08:47:56.000Z</time>
      </trkpt>
      <trkpt lat="44.0212" lon="2.59853">
        <ele>521</ele>
        <time>2021-10-31T08:47:57.000Z</time>
      </trkpt>
      <trkpt lat="44.02121" lon="2.59854">
        <ele>521</ele>
        <time>2021-10-31T08:47:58.000Z</time>
      </trkpt>
      <trkpt lat="44.02122" lon="2.59854">
        <ele>521</ele>
        <time>2021-10-31T08:47:59.000Z</time>
      </trkpt>
      <trkpt lat="44.02122" lon="2.59855">
        <ele>521</ele>
        <time>2021-10-31T08:48:00.000Z</time>
      </trkpt>
      <trkpt lat="44.02123" lon="2.59856">
        <ele>521</ele>
        <time>2021-10-31T08:48:01.000Z</time>
      </trkpt>
      <trkpt lat="44.02124" lon="2.59857">
        <ele>521</ele>
        <time>2021-10-31T08:48:02.000Z</time>
      </trkpt>
      <trkpt lat="44.02125" lon="2.59858">
        <ele>521</ele>
        <time>2021-10-31T08:48:03.000Z</time>
      </trkpt>
      <trkpt lat="44.02126" lon="2.59859">
        <ele>521</ele>
        <time>2021-10-31T08:48:04.000Z</time>
      </trkpt>
      <trkpt lat="44.02128" lon="2.5986">
        <ele>521</ele>
        <time>2021-10-31T08:48:05.000Z</time>
      </trkpt>
      <trkpt lat="44.02129" lon="2.5986">
        <ele>521</ele>
        <time>2021-10-31T08:48:06.000Z</time>
      </trkpt>
      <trkpt lat="44.0213" lon="2.5986">
        <ele>521</ele>
        <time>2021-10-31T08:48:07.000Z</time>
      </trkpt>
      <trkpt lat="44.02131" lon="2.5986">
        <ele>521</ele>
        <time>2021-10-31T08:48:08.000Z</time>
      </trkpt>
      <trkpt lat="44.02132" lon="2.5986">
        <ele>521</ele>
        <time>2021-10-31T08:48:09.000Z</time>
      </trkpt>
      <trkpt lat="44.02134" lon="2.59859">
        <ele>521</ele>
        <time>2021-10-31T08:48:10.000Z</time>
      </trkpt>
      <trkpt lat="44.02135" lon="2.59858">
        <ele>521</ele>
        <time>2021-10-31T08:48:11.000Z</time>
      </trkpt>
      <trkpt lat="44.02136" lon="2.59857">
        <ele>521</ele>
        <time>2021-10-31T08:48:12.000Z</time>
      </trkpt>
      <trkpt lat="44.02137" lon="2.59857">
        <ele>521</ele>
        <time>2021-10-31T08:48:13.000Z</time>
      </trkpt>
      <trkpt lat="44.02139" lon="2.59856">
        <ele>521</ele>
        <time>2021-10-31T08:48:14.000Z</time>
      </trkpt>
      <trkpt lat="44.0214" lon="2.59855">
        <ele>521</ele>
        <time>2021-10-31T08:48:15.000Z</time>
      </trkpt>
      <trkpt lat="44.02141" lon="2.59854">
        <ele>521</ele>
        <time>2021-10-31T08:48:16.000Z</time>
      </trkpt>
      <trkpt lat="44.02143" lon="2.59853">
        <ele>521</ele>
        <time>2021-10-31T08:48:17.000Z</time>
      </trkpt>
      <trkpt lat="44.02144" lon="2.59853">
        <ele>521</ele>
        <time>2021-10-31T08:48:18.000Z</time>
      </trkpt>
      <trkpt lat="44.02145" lon="2.59851">
        <ele>521</ele>
        <time>2021-10-31T08:48:19.000Z</time>
      </trkpt>
      <trkpt lat="44.02146" lon="2.59851">
        <ele>521</ele>
        <time>2021-10-31T08:48:20.000Z</time>
      </trkpt>
      <trkpt lat="44.02147" lon="2.5985">
        <ele>521</ele>
        <time>2021-10-31T08:48:21.000Z</time>
      </trkpt>
      <trkpt lat="44.02148" lon="2.59849">
        <ele>521</ele>
        <time>2021-10-31T08:48:22.000Z</time>
      </trkpt>
      <trkpt lat="44.02149" lon="2.59848">
        <ele>521</ele>
        <time>2021-10-31T08:48:23.000Z</time>
      </trkpt>
      <trkpt lat="44.0215" lon="2.59847">
        <ele>521</ele>
        <time>2021-10-31T08:48:24.000Z</time>
      </trkpt>
      <trkpt lat="44.02151" lon="2.59846">
        <ele>520</ele>
        <time>2021-10-31T08:48:25.000Z</time>
      </trkpt>
      <trkpt lat="44.02152" lon="2.59845">
        <ele>520</ele>
        <time>2021-10-31T08:48:26.000Z</time>
      </trkpt>
      <trkpt lat="44.02153" lon="2.59844">
        <ele>520</ele>
        <time>2021-10-31T08:48:27.000Z</time>
      </trkpt>
      <trkpt lat="44.02155" lon="2.59843">
        <ele>520</ele>
        <time>2021-10-31T08:48:28.000Z</time>
      </trkpt>
      <trkpt lat="44.02156" lon="2.59842">
        <ele>520</ele>
        <time>2021-10-31T08:48:29.000Z</time>
      </trkpt>
      <trkpt lat="44.02157" lon="2.59841">
        <ele>520</ele>
        <time>2021-10-31T08:48:30.000Z</time>
      </trkpt>
      <trkpt lat="44.02158" lon="2.5984">
        <ele>520</ele>
        <time>2021-10-31T08:48:31.000Z</time>
      </trkpt>
      <trkpt lat="44.02159" lon="2.59838">
        <ele>519</ele>
        <time>2021-10-31T08:48:32.000Z</time>
      </trkpt>
      <trkpt lat="44.0216" lon="2.59837">
        <ele>519</ele>
        <time>2021-10-31T08:48:33.000Z</time>
      </trkpt>
      <trkpt lat="44.02161" lon="2.59836">
        <ele>519</ele>
        <time>2021-10-31T08:48:34.000Z</time>
      </trkpt>
      <trkpt lat="44.02162" lon="2.59835">
        <ele>519</ele>
        <time>2021-10-31T08:48:35.000Z</time>
      </trkpt>
      <trkpt lat="44.02163" lon="2.59834">
        <ele>519</ele>
        <time>2021-10-31T08:48:36.000Z</time>
      </trkpt>
      <trkpt lat="44.02164" lon="2.59833">
        <ele>519</ele>
        <time>2021-10-31T08:48:37.000Z</time>
      </trkpt>
      <trkpt lat="44.02165" lon="2.59832">
        <ele>519</ele>
        <time>2021-10-31T08:48:38.000Z</time>
      </trkpt>
      <trkpt lat="44.02166" lon="2.59831">
        <ele>518</ele>
        <time>2021-10-31T08:48:39.000Z</time>
      </trkpt>
      <trkpt lat="44.02166" lon="2.5983">
        <ele>518</ele>
        <time>2021-10-31T08:48:40.000Z</time>
      </trkpt>
      <trkpt lat="44.02167" lon="2.59829">
        <ele>518</ele>
        <time>2021-10-31T08:48:41.000Z</time>
      </trkpt>
      <trkpt lat="44.02168" lon="2.59827">
        <ele>518</ele>
        <time>2021-10-31T08:48:42.000Z</time>
      </trkpt>
      <trkpt lat="44.02169" lon="2.59826">
        <ele>518</ele>
        <time>2021-10-31T08:48:43.000Z</time>
      </trkpt>
      <trkpt lat="44.02169" lon="2.59825">
        <ele>518</ele>
        <time>2021-10-31T08:48:44.000Z</time>
      </trkpt>
      <trkpt lat="44.0217" lon="2.59824">
        <ele>518</ele>
        <time>2021-10-31T08:48:45.000Z</time>
      </trkpt>
      <trkpt lat="44.02171" lon="2.59823">
        <ele>518</ele>
        <time>2021-10-31T08:48:46.000Z</time>
      </trkpt>
      <trkpt lat="44.02172" lon="2.59822">
        <ele>518</ele>
        <time>2021-10-31T08:48:47.000Z</time>
      </trkpt>
      <trkpt lat="44.02172" lon="2.59821">
        <ele>517</ele>
        <time>2021-10-31T08:48:48.000Z</time>
      </trkpt>
      <trkpt lat="44.02173" lon="2.5982">
        <ele>517</ele>
        <time>2021-10-31T08:48:49.000Z</time>
      </trkpt>
      <trkpt lat="44.02174" lon="2.59818">
        <ele>517</ele>
        <time>2021-10-31T08:48:50.000Z</time>
      </trkpt>
      <trkpt lat="44.02174" lon="2.59817">
        <ele>517</ele>
        <time>2021-10-31T08:48:51.000Z</time>
      </trkpt>
      <trkpt lat="44.02175" lon="2.59816">
        <ele>517</ele>
        <time>2021-10-31T08:48:52.000Z</time>
      </trkpt>
      <trkpt lat="44.02176" lon="2.59814">
        <ele>517</ele>
        <time>2021-10-31T08:48:53.000Z</time>
      </trkpt>
      <trkpt lat="44.02177" lon="2.59813">
        <ele>517</ele>
        <time>2021-10-31T08:48:54.000Z</time>
      </trkpt>
      <trkpt lat="44.02177" lon="2.59811">
        <ele>517</ele>
        <time>2021-10-31T08:48:55.000Z</time>
      </trkpt>
      <trkpt lat="44.02178" lon="2.5981">
        <ele>516</ele>
        <time>2021-10-31T08:48:56.000Z</time>
      </trkpt>
      <trkpt lat="44.02179" lon="2.59809">
        <ele>516</ele>
        <time>2021-10-31T08:48:57.000Z</time>
      </trkpt>
      <trkpt lat="44.02179" lon="2.59807">
        <ele>516</ele>
        <time>2021-10-31T08:48:58.000Z</time>
      </trkpt>
      <trkpt lat="44.0218" lon="2.59806">
        <ele>516</ele>
        <time>2021-10-31T08:48:59.000Z</time>
      </trkpt>
      <trkpt lat="44.0218" lon="2.59805">
        <ele>516</ele>
        <time>2021-10-31T08:49:00.000Z</time>
      </trkpt>
      <trkpt lat="44.02181" lon="2.59803">
        <ele>516</ele>
        <time>2021-10-31T08:49:01.000Z</time>
      </trkpt>
      <trkpt lat="44.02181" lon="2.59802">
        <ele>516</ele>
        <time>2021-10-31T08:49:02.000Z</time>
      </trkpt>
      <trkpt lat="44.02182" lon="2.598">
        <ele>516</ele>
        <time>2021-10-31T08:49:03.000Z</time>
      </trkpt>
      <trkpt lat="44.02182" lon="2.59799">
        <ele>516</ele>
        <time>2021-10-31T08:49:04.000Z</time>
      </trkpt>
      <trkpt lat="44.02183" lon="2.59797">
        <ele>516</ele>
        <time>2021-10-31T08:49:05.000Z</time>
      </trkpt>
      <trkpt lat="44.02184" lon="2.59795">
        <ele>516</ele>
        <time>2021-10-31T08:49:06.000Z</time>
      </trkpt>
      <trkpt lat="44.02184" lon="2.59794">
        <ele>516</ele>
        <time>2021-10-31T08:49:07.000Z</time>
      </trkpt>
      <trkpt lat="44.02185" lon="2.59792">
        <ele>516</ele>
        <time>2021-10-31T08:49:08.000Z</time>
      </trkpt>
      <trkpt lat="44.02185" lon="2.59791">
        <ele>516</ele>
        <time>2021-10-31T08:49:09.000Z</time>
      </trkpt>
      <trkpt lat="44.02186" lon="2.59788">
        <ele>516</ele>
        <time>2021-10-31T08:49:10.000Z</time>
      </trkpt>
      <trkpt lat="44.02186" lon="2.59786">
        <ele>515</ele>
        <time>2021-10-31T08:49:11.000Z</time>
      </trkpt>
      <trkpt lat="44.02187" lon="2.59784">
        <ele>515</ele>
        <time>2021-10-31T08:49:12.000Z</time>
      </trkpt>
      <trkpt lat="44.02187" lon="2.59782">
        <ele>515</ele>
        <time>2021-10-31T08:49:13.000Z</time>
      </trkpt>
      <trkpt lat="44.02188" lon="2.5978">
        <ele>515</ele>
        <time>2021-10-31T08:49:14.000Z</time>
      </trkpt>
      <trkpt lat="44.02188" lon="2.59778">
        <ele>515</ele>
        <time>2021-10-31T08:49:15.000Z</time>
      </trkpt>
      <trkpt lat="44.02189" lon="2.59776">
        <ele>515</ele>
        <time>2021-10-31T08:49:16.000Z</time>
      </trkpt>
      <trkpt lat="44.0219" lon="2.59775">
        <ele>514</ele>
        <time>2021-10-31T08:49:17.000Z</time>
      </trkpt>
      <trkpt lat="44.0219" lon="2.59773">
        <ele>514</ele>
        <time>2021-10-31T08:49:18.000Z</time>
      </trkpt>
      <trkpt lat="44.02191" lon="2.59771">
        <ele>514</ele>
        <time>2021-10-31T08:49:19.000Z</time>
      </trkpt>
      <trkpt lat="44.02191" lon="2.5977">
        <ele>514</ele>
        <time>2021-10-31T08:49:20.000Z</time>
      </trkpt>
      <trkpt lat="44.02192" lon="2.59768">
        <ele>514</ele>
        <time>2021-10-31T08:49:21.000Z</time>
      </trkpt>
      <trkpt lat="44.02192" lon="2.59766">
        <ele>514</ele>
        <time>2021-10-31T08:49:22.000Z</time>
      </trkpt>
      <trkpt lat="44.02193" lon="2.59764">
        <ele>513</ele>
        <time>2021-10-31T08:49:23.000Z</time>
      </trkpt>
      <trkpt lat="44.02193" lon="2.59762">
        <ele>513</ele>
        <time>2021-10-31T08:49:24.000Z</time>
      </trkpt>
      <trkpt lat="44.02194" lon="2.59761">
        <ele>513</ele>
        <time>2021-10-31T08:49:25.000Z</time>
      </trkpt>
      <trkpt lat="44.02194" lon="2.59759">
        <ele>513</ele>
        <time>2021-10-31T08:49:26.000Z</time>
      </trkpt>
      <trkpt lat="44.02195" lon="2.59757">
        <ele>513</ele>
        <time>2021-10-31T08:49:27.000Z</time>
      </trkpt>
      <trkpt lat="44.02196" lon="2.59756">
        <ele>513</ele>
        <time>2021-10-31T08:49:28.000Z</time>
      </trkpt>
      <trkpt lat="44.02197" lon="2.59754">
        <ele>513</ele>
        <time>2021-10-31T08:49:29.000Z</time>
      </trkpt>
      <trkpt lat="44.02197" lon="2.59753">
        <ele>513</ele>
        <time>2021-10-31T08:49:30.000Z</time>
      </trkpt>
      <trkpt lat="44.02198" lon="2.59751">
        <ele>512</ele>
        <time>2021-10-31T08:49:31.000Z</time>
      </trkpt>
      <trkpt lat="44.02199" lon="2.5975">
        <ele>512</ele>
        <time>2021-10-31T08:49:32.000Z</time>
      </trkpt>
      <trkpt lat="44.022" lon="2.59748">
        <ele>512</ele>
        <time>2021-10-31T08:49:33.000Z</time>
      </trkpt>
      <trkpt lat="44.02201" lon="2.59747">
        <ele>512</ele>
        <time>2021-10-31T08:49:34.000Z</time>
      </trkpt>
      <trkpt lat="44.02202" lon="2.59745">
        <ele>512</ele>
        <time>2021-10-31T08:49:35.000Z</time>
      </trkpt>
      <trkpt lat="44.02203" lon="2.59744">
        <ele>511</ele>
        <time>2021-10-31T08:49:36.000Z</time>
      </trkpt>
      <trkpt lat="44.02204" lon="2.59743">
        <ele>511</ele>
        <time>2021-10-31T08:49:37.000Z</time>
      </trkpt>
      <trkpt lat="44.02204" lon="2.59741">
        <ele>511</ele>
        <time>2021-10-31T08:49:38.000Z</time>
      </trkpt>
      <trkpt lat="44.02205" lon="2.5974">
        <ele>511</ele>
        <time>2021-10-31T08:49:39.000Z</time>
      </trkpt>
      <trkpt lat="44.02206" lon="2.59739">
        <ele>511</ele>
        <time>2021-10-31T08:49:40.000Z</time>
      </trkpt>
      <trkpt lat="44.02207" lon="2.59738">
        <ele>511</ele>
        <time>2021-10-31T08:49:41.000Z</time>
      </trkpt>
      <trkpt lat="44.02208" lon="2.59737">
        <ele>510</ele>
        <time>2021-10-31T08:49:42.000Z</time>
      </trkpt>
      <trkpt lat="44.02209" lon="2.59736">
        <ele>510</ele>
        <time>2021-10-31T08:49:43.000Z</time>
      </trkpt>
      <trkpt lat="44.02209" lon="2.59735">
        <ele>510</ele>
        <time>2021-10-31T08:49:44.000Z</time>
      </trkpt>
      <trkpt lat="44.0221" lon="2.59734">
        <ele>510</ele>
        <time>2021-10-31T08:49:45.000Z</time>
      </trkpt>
      <trkpt lat="44.02211" lon="2.59733">
        <ele>509</ele>
        <time>2021-10-31T08:49:46.000Z</time>
      </trkpt>
      <trkpt lat="44.02212" lon="2.59732">
        <ele>509</ele>
        <time>2021-10-31T08:49:47.000Z</time>
      </trkpt>
      <trkpt lat="44.02212" lon="2.59732">
        <ele>509</ele>
        <time>2021-10-31T08:49:48.000Z</time>
      </trkpt>
      <trkpt lat="44.02213" lon="2.59731">
        <ele>509</ele>
        <time>2021-10-31T08:49:49.000Z</time>
      </trkpt>
      <trkpt lat="44.02213" lon="2.59731">
        <ele>508</ele>
        <time>2021-10-31T08:49:50.000Z</time>
      </trkpt>
      <trkpt lat="44.02214" lon="2.5973">
        <ele>508</ele>
        <time>2021-10-31T08:49:51.000Z</time>
      </trkpt>
      <trkpt lat="44.02215" lon="2.5973">
        <ele>508</ele>
        <time>2021-10-31T08:49:52.000Z</time>
      </trkpt>
      <trkpt lat="44.02215" lon="2.59729">
        <ele>508</ele>
        <time>2021-10-31T08:49:53.000Z</time>
      </trkpt>
      <trkpt lat="44.02215" lon="2.59729">
        <ele>508</ele>
        <time>2021-10-31T08:49:54.000Z</time>
      </trkpt>
      <trkpt lat="44.02216" lon="2.59729">
        <ele>508</ele>
        <time>2021-10-31T08:49:55.000Z</time>
      </trkpt>
      <trkpt lat="44.02216" lon="2.59728">
        <ele>507</ele>
        <time>2021-10-31T08:49:56.000Z</time>
      </trkpt>
      <trkpt lat="44.02217" lon="2.59727">
        <ele>507</ele>
        <time>2021-10-31T08:49:57.000Z</time>
      </trkpt>
      <trkpt lat="44.02218" lon="2.59726">
        <ele>507</ele>
        <time>2021-10-31T08:49:58.000Z</time>
      </trkpt>
      <trkpt lat="44.02219" lon="2.59725">
        <ele>507</ele>
        <time>2021-10-31T08:49:59.000Z</time>
      </trkpt>
      <trkpt lat="44.0222" lon="2.59724">
        <ele>507</ele>
        <time>2021-10-31T08:50:00.000Z</time>
      </trkpt>
      <trkpt lat="44.02221" lon="2.59723">
        <ele>507</ele>
        <time>2021-10-31T08:50:01.000Z</time>
      </trkpt>
      <trkpt lat="44.02222" lon="2.59723">
        <ele>507</ele>
        <time>2021-10-31T08:50:02.000Z</time>
      </trkpt>
      <trkpt lat="44.02223" lon="2.59722">
        <ele>506</ele>
        <time>2021-10-31T08:50:03.000Z</time>
      </trkpt>
      <trkpt lat="44.02224" lon="2.59721">
        <ele>506</ele>
        <time>2021-10-31T08:50:04.000Z</time>
      </trkpt>
      <trkpt lat="44.02225" lon="2.5972">
        <ele>506</ele>
        <time>2021-10-31T08:50:05.000Z</time>
      </trkpt>
      <trkpt lat="44.02226" lon="2.5972">
        <ele>506</ele>
        <time>2021-10-31T08:50:06.000Z</time>
      </trkpt>
      <trkpt lat="44.02227" lon="2.59719">
        <ele>506</ele>
        <time>2021-10-31T08:50:07.000Z</time>
      </trkpt>
      <trkpt lat="44.02228" lon="2.59718">
        <ele>506</ele>
        <time>2021-10-31T08:50:08.000Z</time>
      </trkpt>
      <trkpt lat="44.02229" lon="2.59718">
        <ele>506</ele>
        <time>2021-10-31T08:50:09.000Z</time>
      </trkpt>
      <trkpt lat="44.0223" lon="2.59717">
        <ele>506</ele>
        <time>2021-10-31T08:50:10.000Z</time>
      </trkpt>
      <trkpt lat="44.02231" lon="2.59717">
        <ele>505</ele>
        <time>2021-10-31T08:50:11.000Z</time>
      </trkpt>
      <trkpt lat="44.02232" lon="2.59716">
        <ele>505</ele>
        <time>2021-10-31T08:50:12.000Z</time>
      </trkpt>
      <trkpt lat="44.02232" lon="2.59716">
        <ele>505</ele>
        <time>2021-10-31T08:50:13.000Z</time>
      </trkpt>
      <trkpt lat="44.02233" lon="2.59715">
        <ele>505</ele>
        <time>2021-10-31T08:50:14.000Z</time>
      </trkpt>
      <trkpt lat="44.02234" lon="2.59715">
        <ele>505</ele>
        <time>2021-10-31T08:50:15.000Z</time>
      </trkpt>
      <trkpt lat="44.02235" lon="2.59714">
        <ele>505</ele>
        <time>2021-10-31T08:50:16.000Z</time>
      </trkpt>
      <trkpt lat="44.02236" lon="2.59714">
        <ele>505</ele>
        <time>2021-10-31T08:50:17.000Z</time>
      </trkpt>
      <trkpt lat="44.02237" lon="2.59714">
        <ele>504</ele>
        <time>2021-10-31T08:50:18.000Z</time>
      </trkpt>
      <trkpt lat="44.02237" lon="2.59713">
        <ele>504</ele>
        <time>2021-10-31T08:50:19.000Z</time>
      </trkpt>
      <trkpt lat="44.02238" lon="2.59713">
        <ele>504</ele>
        <time>2021-10-31T08:50:20.000Z</time>
      </trkpt>
      <trkpt lat="44.02239" lon="2.59712">
        <ele>504</ele>
        <time>2021-10-31T08:50:21.000Z</time>
      </trkpt>
      <trkpt lat="44.0224" lon="2.59712">
        <ele>504</ele>
        <time>2021-10-31T08:50:22.000Z</time>
      </trkpt>
      <trkpt lat="44.02241" lon="2.59712">
        <ele>504</ele>
        <time>2021-10-31T08:50:23.000Z</time>
      </trkpt>
      <trkpt lat="44.02242" lon="2.59711">
        <ele>504</ele>
        <time>2021-10-31T08:50:24.000Z</time>
      </trkpt>
      <trkpt lat="44.02243" lon="2.59711">
        <ele>504</ele>
        <time>2021-10-31T08:50:25.000Z</time>
      </trkpt>
      <trkpt lat="44.02244" lon="2.59711">
        <ele>504</ele>
        <time>2021-10-31T08:50:26.000Z</time>
      </trkpt>
      <trkpt lat="44.02244" lon="2.5971">
        <ele>504</ele>
        <time>2021-10-31T08:50:27.000Z</time>
      </trkpt>
      <trkpt lat="44.02245" lon="2.5971">
        <ele>504</ele>
        <time>2021-10-31T08:50:28.000Z</time>
      </trkpt>
      <trkpt lat="44.02246" lon="2.5971">
        <ele>504</ele>
        <time>2021-10-31T08:50:29.000Z</time>
      </trkpt>
      <trkpt lat="44.02247" lon="2.5971">
        <ele>504</ele>
        <time>2021-10-31T08:50:30.000Z</time>
      </trkpt>
      <trkpt lat="44.02247" lon="2.59709">
        <ele>503</ele>
        <time>2021-10-31T08:50:31.000Z</time>
      </trkpt>
      <trkpt lat="44.02248" lon="2.59709">
        <ele>503</ele>
        <time>2021-10-31T08:50:32.000Z</time>
      </trkpt>
      <trkpt lat="44.02249" lon="2.59709">
        <ele>503</ele>
        <time>2021-10-31T08:50:33.000Z</time>
      </trkpt>
      <trkpt lat="44.0225" lon="2.59708">
        <ele>503</ele>
        <time>2021-10-31T08:50:34.000Z</time>
      </trkpt>
      <trkpt lat="44.02251" lon="2.59708">
        <ele>503</ele>
        <time>2021-10-31T08:50:35.000Z</time>
      </trkpt>
      <trkpt lat="44.02251" lon="2.59708">
        <ele>503</ele>
        <time>2021-10-31T08:50:36.000Z</time>
      </trkpt>
      <trkpt lat="44.02252" lon="2.59708">
        <ele>502</ele>
        <time>2021-10-31T08:50:37.000Z</time>
      </trkpt>
      <trkpt lat="44.02253" lon="2.59708">
        <ele>502</ele>
        <time>2021-10-31T08:50:38.000Z</time>
      </trkpt>
      <trkpt lat="44.02254" lon="2.59708">
        <ele>502</ele>
        <time>2021-10-31T08:50:39.000Z</time>
      </trkpt>
      <trkpt lat="44.02255" lon="2.59708">
        <ele>502</ele>
        <time>2021-10-31T08:50:40.000Z</time>
      </trkpt>
      <trkpt lat="44.02256" lon="2.59708">
        <ele>502</ele>
        <time>2021-10-31T08:50:41.000Z</time>
      </trkpt>
      <trkpt lat="44.02256" lon="2.59708">
        <ele>502</ele>
        <time>2021-10-31T08:50:42.000Z</time>
      </trkpt>
      <trkpt lat="44.02257" lon="2.59708">
        <ele>501</ele>
        <time>2021-10-31T08:50:43.000Z</time>
      </trkpt>
      <trkpt lat="44.02258" lon="2.59707">
        <ele>501</ele>
        <time>2021-10-31T08:50:44.000Z</time>
      </trkpt>
      <trkpt lat="44.02259" lon="2.59707">
        <ele>501</ele>
        <time>2021-10-31T08:50:45.000Z</time>
      </trkpt>
      <trkpt lat="44.0226" lon="2.59707">
        <ele>501</ele>
        <time>2021-10-31T08:50:46.000Z</time>
      </trkpt>
      <trkpt lat="44.0226" lon="2.59707">
        <ele>501</ele>
        <time>2021-10-31T08:50:47.000Z</time>
      </trkpt>
      <trkpt lat="44.02261" lon="2.59707">
        <ele>501</ele>
        <time>2021-10-31T08:50:48.000Z</time>
      </trkpt>
      <trkpt lat="44.02262" lon="2.59707">
        <ele>501</ele>
        <time>2021-10-31T08:50:49.000Z</time>
      </trkpt>
      <trkpt lat="44.02262" lon="2.59706">
        <ele>501</ele>
        <time>2021-10-31T08:50:50.000Z</time>
      </trkpt>
      <trkpt lat="44.02263" lon="2.59706">
        <ele>500</ele>
        <time>2021-10-31T08:50:51.000Z</time>
      </trkpt>
      <trkpt lat="44.02264" lon="2.59706">
        <ele>500</ele>
        <time>2021-10-31T08:50:52.000Z</time>
      </trkpt>
      <trkpt lat="44.02265" lon="2.59706">
        <ele>500</ele>
        <time>2021-10-31T08:50:53.000Z</time>
      </trkpt>
      <trkpt lat="44.02266" lon="2.59706">
        <ele>500</ele>
        <time>2021-10-31T08:50:54.000Z</time>
      </trkpt>
      <trkpt lat="44.02266" lon="2.59706">
        <ele>500</ele>
        <time>2021-10-31T08:50:55.000Z</time>
      </trkpt>
      <trkpt lat="44.02267" lon="2.59705">
        <ele>500</ele>
        <time>2021-10-31T08:50:56.000Z</time>
      </trkpt>
      <trkpt lat="44.02268" lon="2.59705">
        <ele>500</ele>
        <time>2021-10-31T08:50:57.000Z</time>
      </trkpt>
      <trkpt lat="44.02268" lon="2.59705">
        <ele>500</ele>
        <time>2021-10-31T08:50:58.000Z</time>
      </trkpt>
      <trkpt lat="44.02269" lon="2.59705">
        <ele>500</ele>
        <time>2021-10-31T08:50:59.000Z</time>
      </trkpt>
      <trkpt lat="44.0227" lon="2.59704">
        <ele>500</ele>
        <time>2021-10-31T08:51:00.000Z</time>
      </trkpt>
      <trkpt lat="44.02271" lon="2.59704">
        <ele>500</ele>
        <time>2021-10-31T08:51:01.000Z</time>
      </trkpt>
      <trkpt lat="44.02271" lon="2.59704">
        <ele>500</ele>
        <time>2021-10-31T08:51:02.000Z</time>
      </trkpt>
      <trkpt lat="44.02272" lon="2.59703">
        <ele>500</ele>
        <time>2021-10-31T08:51:03.000Z</time>
      </trkpt>
      <trkpt lat="44.02273" lon="2.59703">
        <ele>500</ele>
        <time>2021-10-31T08:51:04.000Z</time>
      </trkpt>
      <trkpt lat="44.02273" lon="2.59703">
        <ele>500</ele>
        <time>2021-10-31T08:51:05.000Z</time>
      </trkpt>
      <trkpt lat="44.02274" lon="2.59703">
        <ele>500</ele>
        <time>2021-10-31T08:51:06.000Z</time>
      </trkpt>
      <trkpt lat="44.02275" lon="2.59702">
        <ele>500</ele>
        <time>2021-10-31T08:51:07.000Z</time>
      </trkpt>
      <trkpt lat="44.02275" lon="2.59702">
        <ele>500</ele>
        <time>2021-10-31T08:51:08.000Z</time>
      </trkpt>
      <trkpt lat="44.02276" lon="2.59701">
        <ele>500</ele>
        <time>2021-10-31T08:51:09.000Z</time>
      </trkpt>
      <trkpt lat="44.02276" lon="2.597">
        <ele>500</ele>
        <time>2021-10-31T08:51:10.000Z</time>
      </trkpt>
      <trkpt lat="44.02277" lon="2.59699">
        <ele>500</ele>
        <time>2021-10-31T08:51:11.000Z</time>
      </trkpt>
      <trkpt lat="44.02278" lon="2.59699">
        <ele>500</ele>
        <time>2021-10-31T08:51:12.000Z</time>
      </trkpt>
      <trkpt lat="44.02279" lon="2.59698">
        <ele>499</ele>
        <time>2021-10-31T08:51:13.000Z</time>
      </trkpt>
      <trkpt lat="44.02279" lon="2.59698">
        <ele>499</ele>
        <time>2021-10-31T08:51:14.000Z</time>
      </trkpt>
      <trkpt lat="44.02279" lon="2.59698">
        <ele>499</ele>
        <time>2021-10-31T08:51:15.000Z</time>
      </trkpt>
      <trkpt lat="44.02279" lon="2.59698">
        <ele>499</ele>
        <time>2021-10-31T08:51:16.000Z</time>
      </trkpt>
      <trkpt lat="44.02279" lon="2.59698">
        <ele>499</ele>
        <time>2021-10-31T08:51:17.000Z</time>
      </trkpt>
      <trkpt lat="44.0228" lon="2.59697">
        <ele>499</ele>
        <time>2021-10-31T08:51:18.000Z</time>
      </trkpt>
      <trkpt lat="44.02281" lon="2.59697">
        <ele>499</ele>
        <time>2021-10-31T08:51:19.000Z</time>
      </trkpt>
      <trkpt lat="44.02281" lon="2.59696">
        <ele>499</ele>
        <time>2021-10-31T08:51:20.000Z</time>
      </trkpt>
      <trkpt lat="44.02282" lon="2.59696">
        <ele>499</ele>
        <time>2021-10-31T08:51:21.000Z</time>
      </trkpt>
      <trkpt lat="44.02282" lon="2.59696">
        <ele>499</ele>
        <time>2021-10-31T08:51:22.000Z</time>
      </trkpt>
      <trkpt lat="44.02282" lon="2.59696">
        <ele>499</ele>
        <time>2021-10-31T08:51:23.000Z</time>
      </trkpt>
      <trkpt lat="44.02285" lon="2.59694">
        <ele>498</ele>
        <time>2021-10-31T08:51:24.000Z</time>
      </trkpt>
      <trkpt lat="44.02286" lon="2.59694">
        <ele>498</ele>
        <time>2021-10-31T08:51:25.000Z</time>
      </trkpt>
      <trkpt lat="44.02287" lon="2.59693">
        <ele>498</ele>
        <time>2021-10-31T08:51:26.000Z</time>
      </trkpt>
      <trkpt lat="44.02287" lon="2.59693">
        <ele>498</ele>
        <time>2021-10-31T08:51:27.000Z</time>
      </trkpt>
      <trkpt lat="44.02288" lon="2.59693">
        <ele>498</ele>
        <time>2021-10-31T08:51:28.000Z</time>
      </trkpt>
      <trkpt lat="44.02289" lon="2.59693">
        <ele>498</ele>
        <time>2021-10-31T08:51:29.000Z</time>
      </trkpt>
      <trkpt lat="44.02289" lon="2.59692">
        <ele>498</ele>
        <time>2021-10-31T08:51:30.000Z</time>
      </trkpt>
      <trkpt lat="44.0229" lon="2.59692">
        <ele>497</ele>
        <time>2021-10-31T08:51:31.000Z</time>
      </trkpt>
      <trkpt lat="44.0229" lon="2.59692">
        <ele>497</ele>
        <time>2021-10-31T08:51:32.000Z</time>
      </trkpt>
      <trkpt lat="44.02291" lon="2.59691">
        <ele>497</ele>
        <time>2021-10-31T08:51:33.000Z</time>
      </trkpt>
      <trkpt lat="44.02292" lon="2.59691">
        <ele>497</ele>
        <time>2021-10-31T08:51:34.000Z</time>
      </trkpt>
      <trkpt lat="44.02293" lon="2.5969">
        <ele>497</ele>
        <time>2021-10-31T08:51:35.000Z</time>
      </trkpt>
      <trkpt lat="44.02293" lon="2.5969">
        <ele>496</ele>
        <time>2021-10-31T08:51:36.000Z</time>
      </trkpt>
      <trkpt lat="44.02294" lon="2.5969">
        <ele>496</ele>
        <time>2021-10-31T08:51:37.000Z</time>
      </trkpt>
      <trkpt lat="44.02295" lon="2.5969">
        <ele>496</ele>
        <time>2021-10-31T08:51:38.000Z</time>
      </trkpt>
      <trkpt lat="44.02296" lon="2.5969">
        <ele>496</ele>
        <time>2021-10-31T08:51:39.000Z</time>
      </trkpt>
      <trkpt lat="44.02296" lon="2.5969">
        <ele>495</ele>
        <time>2021-10-31T08:51:40.000Z</time>
      </trkpt>
      <trkpt lat="44.02297" lon="2.5969">
        <ele>495</ele>
        <time>2021-10-31T08:51:41.000Z</time>
      </trkpt>
      <trkpt lat="44.02298" lon="2.5969">
        <ele>495</ele>
        <time>2021-10-31T08:51:42.000Z</time>
      </trkpt>
      <trkpt lat="44.02298" lon="2.5969">
        <ele>495</ele>
        <time>2021-10-31T08:51:43.000Z</time>
      </trkpt>
      <trkpt lat="44.02299" lon="2.5969">
        <ele>494</ele>
        <time>2021-10-31T08:51:44.000Z</time>
      </trkpt>
      <trkpt lat="44.023" lon="2.5969">
        <ele>494</ele>
        <time>2021-10-31T08:51:45.000Z</time>
      </trkpt>
      <trkpt lat="44.023" lon="2.59689">
        <ele>494</ele>
        <time>2021-10-31T08:51:46.000Z</time>
      </trkpt>
      <trkpt lat="44.02301" lon="2.59689">
        <ele>494</ele>
        <time>2021-10-31T08:51:47.000Z</time>
      </trkpt>
      <trkpt lat="44.02302" lon="2.59689">
        <ele>494</ele>
        <time>2021-10-31T08:51:48.000Z</time>
      </trkpt>
      <trkpt lat="44.02302" lon="2.59688">
        <ele>493</ele>
        <time>2021-10-31T08:51:49.000Z</time>
      </trkpt>
      <trkpt lat="44.02303" lon="2.59688">
        <ele>493</ele>
        <time>2021-10-31T08:51:50.000Z</time>
      </trkpt>
      <trkpt lat="44.02304" lon="2.59689">
        <ele>493</ele>
        <time>2021-10-31T08:51:51.000Z</time>
      </trkpt>
      <trkpt lat="44.02304" lon="2.59689">
        <ele>493</ele>
        <time>2021-10-31T08:51:52.000Z</time>
      </trkpt>
      <trkpt lat="44.02305" lon="2.59689">
        <ele>493</ele>
        <time>2021-10-31T08:51:53.000Z</time>
      </trkpt>
      <trkpt lat="44.02305" lon="2.59689">
        <ele>493</ele>
        <time>2021-10-31T08:51:54.000Z</time>
      </trkpt>
      <trkpt lat="44.02306" lon="2.59688">
        <ele>492</ele>
        <time>2021-10-31T08:51:55.000Z</time>
      </trkpt>
      <trkpt lat="44.02307" lon="2.59689">
        <ele>492</ele>
        <time>2021-10-31T08:51:56.000Z</time>
      </trkpt>
      <trkpt lat="44.02307" lon="2.59689">
        <ele>492</ele>
        <time>2021-10-31T08:51:57.000Z</time>
      </trkpt>
      <trkpt lat="44.02308" lon="2.59689">
        <ele>492</ele>
        <time>2021-10-31T08:51:58.000Z</time>
      </trkpt>
      <trkpt lat="44.02309" lon="2.59689">
        <ele>492</ele>
        <time>2021-10-31T08:51:59.000Z</time>
      </trkpt>
      <trkpt lat="44.02309" lon="2.59689">
        <ele>492</ele>
        <time>2021-10-31T08:52:00.000Z</time>
      </trkpt>
      <trkpt lat="44.0231" lon="2.59689">
        <ele>492</ele>
        <time>2021-10-31T08:52:01.000Z</time>
      </trkpt>
      <trkpt lat="44.02311" lon="2.59689">
        <ele>491</ele>
        <time>2021-10-31T08:52:02.000Z</time>
      </trkpt>
      <trkpt lat="44.02312" lon="2.59689">
        <ele>491</ele>
        <time>2021-10-31T08:52:03.000Z</time>
      </trkpt>
      <trkpt lat="44.02312" lon="2.59689">
        <ele>491</ele>
        <time>2021-10-31T08:52:04.000Z</time>
      </trkpt>
      <trkpt lat="44.02313" lon="2.59689">
        <ele>491</ele>
        <time>2021-10-31T08:52:05.000Z</time>
      </trkpt>
      <trkpt lat="44.02314" lon="2.59689">
        <ele>490</ele>
        <time>2021-10-31T08:52:06.000Z</time>
      </trkpt>
      <trkpt lat="44.02315" lon="2.59689">
        <ele>490</ele>
        <time>2021-10-31T08:52:07.000Z</time>
      </trkpt>
      <trkpt lat="44.02315" lon="2.59689">
        <ele>490</ele>
        <time>2021-10-31T08:52:08.000Z</time>
      </trkpt>
      <trkpt lat="44.02316" lon="2.59689">
        <ele>490</ele>
        <time>2021-10-31T08:52:09.000Z</time>
      </trkpt>
      <trkpt lat="44.02317" lon="2.59689">
        <ele>489</ele>
        <time>2021-10-31T08:52:10.000Z</time>
      </trkpt>
      <trkpt lat="44.02318" lon="2.59689">
        <ele>489</ele>
        <time>2021-10-31T08:52:11.000Z</time>
      </trkpt>
      <trkpt lat="44.02319" lon="2.5969">
        <ele>489</ele>
        <time>2021-10-31T08:52:12.000Z</time>
      </trkpt>
      <trkpt lat="44.02319" lon="2.5969">
        <ele>489</ele>
        <time>2021-10-31T08:52:13.000Z</time>
      </trkpt>
      <trkpt lat="44.0232" lon="2.5969">
        <ele>489</ele>
        <time>2021-10-31T08:52:14.000Z</time>
      </trkpt>
      <trkpt lat="44.02321" lon="2.59691">
        <ele>489</ele>
        <time>2021-10-31T08:52:15.000Z</time>
      </trkpt>
      <trkpt lat="44.02322" lon="2.59691">
        <ele>488</ele>
        <time>2021-10-31T08:52:16.000Z</time>
      </trkpt>
      <trkpt lat="44.02322" lon="2.59692">
        <ele>488</ele>
        <time>2021-10-31T08:52:17.000Z</time>
      </trkpt>
      <trkpt lat="44.02323" lon="2.59692">
        <ele>488</ele>
        <time>2021-10-31T08:52:18.000Z</time>
      </trkpt>
      <trkpt lat="44.02324" lon="2.59692">
        <ele>488</ele>
        <time>2021-10-31T08:52:19.000Z</time>
      </trkpt>
      <trkpt lat="44.02325" lon="2.59692">
        <ele>488</ele>
        <time>2021-10-31T08:52:20.000Z</time>
      </trkpt>
      <trkpt lat="44.02325" lon="2.59692">
        <ele>488</ele>
        <time>2021-10-31T08:52:21.000Z</time>
      </trkpt>
      <trkpt lat="44.02326" lon="2.59692">
        <ele>487</ele>
        <time>2021-10-31T08:52:22.000Z</time>
      </trkpt>
      <trkpt lat="44.02327" lon="2.59692">
        <ele>487</ele>
        <time>2021-10-31T08:52:23.000Z</time>
      </trkpt>
      <trkpt lat="44.02328" lon="2.59692">
        <ele>487</ele>
        <time>2021-10-31T08:52:24.000Z</time>
      </trkpt>
      <trkpt lat="44.02328" lon="2.59692">
        <ele>487</ele>
        <time>2021-10-31T08:52:25.000Z</time>
      </trkpt>
      <trkpt lat="44.02329" lon="2.59692">
        <ele>487</ele>
        <time>2021-10-31T08:52:26.000Z</time>
      </trkpt>
      <trkpt lat="44.0233" lon="2.59692">
        <ele>487</ele>
        <time>2021-10-31T08:52:27.000Z</time>
      </trkpt>
      <trkpt lat="44.0233" lon="2.59692">
        <ele>487</ele>
        <time>2021-10-31T08:52:28.000Z</time>
      </trkpt>
      <trkpt lat="44.02331" lon="2.59692">
        <ele>487</ele>
        <time>2021-10-31T08:52:29.000Z</time>
      </trkpt>
      <trkpt lat="44.02332" lon="2.59692">
        <ele>487</ele>
        <time>2021-10-31T08:52:30.000Z</time>
      </trkpt>
      <trkpt lat="44.02332" lon="2.59692">
        <ele>487</ele>
        <time>2021-10-31T08:52:31.000Z</time>
      </trkpt>
      <trkpt lat="44.02333" lon="2.59692">
        <ele>487</ele>
        <time>2021-10-31T08:52:32.000Z</time>
      </trkpt>
      <trkpt lat="44.02333" lon="2.59692">
        <ele>487</ele>
        <time>2021-10-31T08:52:33.000Z</time>
      </trkpt>
      <trkpt lat="44.02334" lon="2.59692">
        <ele>487</ele>
        <time>2021-10-31T08:52:34.000Z</time>
      </trkpt>
      <trkpt lat="44.02334" lon="2.59692">
        <ele>487</ele>
        <time>2021-10-31T08:52:35.000Z</time>
      </trkpt>
      <trkpt lat="44.02335" lon="2.59692">
        <ele>487</ele>
        <time>2021-10-31T08:52:36.000Z</time>
      </trkpt>
      <trkpt lat="44.02335" lon="2.59692">
        <ele>486</ele>
        <time>2021-10-31T08:52:37.000Z</time>
      </trkpt>
      <trkpt lat="44.02336" lon="2.59692">
        <ele>486</ele>
        <time>2021-10-31T08:52:38.000Z</time>
      </trkpt>
      <trkpt lat="44.02337" lon="2.59692">
        <ele>486</ele>
        <time>2021-10-31T08:52:39.000Z</time>
      </trkpt>
      <trkpt lat="44.0234" lon="2.59692">
        <ele>486</ele>
        <time>2021-10-31T08:52:40.000Z</time>
      </trkpt>
      <trkpt lat="44.0234" lon="2.59692">
        <ele>486</ele>
        <time>2021-10-31T08:52:41.000Z</time>
      </trkpt>
      <trkpt lat="44.02341" lon="2.59691">
        <ele>486</ele>
        <time>2021-10-31T08:52:42.000Z</time>
      </trkpt>
      <trkpt lat="44.02342" lon="2.59691">
        <ele>486</ele>
        <time>2021-10-31T08:52:43.000Z</time>
      </trkpt>
      <trkpt lat="44.02342" lon="2.59691">
        <ele>486</ele>
        <time>2021-10-31T08:52:44.000Z</time>
      </trkpt>
      <trkpt lat="44.02343" lon="2.5969">
        <ele>486</ele>
        <time>2021-10-31T08:52:45.000Z</time>
      </trkpt>
      <trkpt lat="44.02344" lon="2.5969">
        <ele>486</ele>
        <time>2021-10-31T08:52:46.000Z</time>
      </trkpt>
      <trkpt lat="44.02344" lon="2.5969">
        <ele>485</ele>
        <time>2021-10-31T08:52:47.000Z</time>
      </trkpt>
      <trkpt lat="44.02345" lon="2.59689">
        <ele>485</ele>
        <time>2021-10-31T08:52:48.000Z</time>
      </trkpt>
      <trkpt lat="44.02346" lon="2.59689">
        <ele>485</ele>
        <time>2021-10-31T08:52:49.000Z</time>
      </trkpt>
      <trkpt lat="44.02347" lon="2.59689">
        <ele>485</ele>
        <time>2021-10-31T08:52:50.000Z</time>
      </trkpt>
      <trkpt lat="44.02348" lon="2.59689">
        <ele>485</ele>
        <time>2021-10-31T08:52:51.000Z</time>
      </trkpt>
      <trkpt lat="44.02349" lon="2.59689">
        <ele>485</ele>
        <time>2021-10-31T08:52:52.000Z</time>
      </trkpt>
      <trkpt lat="44.02349" lon="2.59689">
        <ele>484</ele>
        <time>2021-10-31T08:52:53.000Z</time>
      </trkpt>
      <trkpt lat="44.0235" lon="2.59689">
        <ele>484</ele>
        <time>2021-10-31T08:52:54.000Z</time>
      </trkpt>
      <trkpt lat="44.02351" lon="2.59689">
        <ele>484</ele>
        <time>2021-10-31T08:52:55.000Z</time>
      </trkpt>
      <trkpt lat="44.02352" lon="2.59689">
        <ele>484</ele>
        <time>2021-10-31T08:52:56.000Z</time>
      </trkpt>
      <trkpt lat="44.02353" lon="2.59688">
        <ele>485</ele>
        <time>2021-10-31T08:52:57.000Z</time>
      </trkpt>
      <trkpt lat="44.02354" lon="2.59687">
        <ele>485</ele>
        <time>2021-10-31T08:52:58.000Z</time>
      </trkpt>
      <trkpt lat="44.02355" lon="2.59687">
        <ele>485</ele>
        <time>2021-10-31T08:52:59.000Z</time>
      </trkpt>
      <trkpt lat="44.02356" lon="2.59686">
        <ele>485</ele>
        <time>2021-10-31T08:53:00.000Z</time>
      </trkpt>
      <trkpt lat="44.02356" lon="2.59686">
        <ele>485</ele>
        <time>2021-10-31T08:53:01.000Z</time>
      </trkpt>
      <trkpt lat="44.02357" lon="2.59686">
        <ele>485</ele>
        <time>2021-10-31T08:53:02.000Z</time>
      </trkpt>
      <trkpt lat="44.02358" lon="2.59686">
        <ele>485</ele>
        <time>2021-10-31T08:53:03.000Z</time>
      </trkpt>
      <trkpt lat="44.02358" lon="2.59686">
        <ele>485</ele>
        <time>2021-10-31T08:53:04.000Z</time>
      </trkpt>
      <trkpt lat="44.02359" lon="2.59685">
        <ele>485</ele>
        <time>2021-10-31T08:53:05.000Z</time>
      </trkpt>
      <trkpt lat="44.02359" lon="2.59685">
        <ele>485</ele>
        <time>2021-10-31T08:53:06.000Z</time>
      </trkpt>
      <trkpt lat="44.0236" lon="2.59685">
        <ele>485</ele>
        <time>2021-10-31T08:53:07.000Z</time>
      </trkpt>
      <trkpt lat="44.02365" lon="2.59684">
        <ele>484</ele>
        <time>2021-10-31T08:53:08.000Z</time>
      </trkpt>
      <trkpt lat="44.02366" lon="2.59684">
        <ele>484</ele>
        <time>2021-10-31T08:53:09.000Z</time>
      </trkpt>
      <trkpt lat="44.02367" lon="2.59684">
        <ele>484</ele>
        <time>2021-10-31T08:53:10.000Z</time>
      </trkpt>
      <trkpt lat="44.02367" lon="2.59685">
        <ele>484</ele>
        <time>2021-10-31T08:53:11.000Z</time>
      </trkpt>
      <trkpt lat="44.02368" lon="2.59685">
        <ele>484</ele>
        <time>2021-10-31T08:53:12.000Z</time>
      </trkpt>
      <trkpt lat="44.02369" lon="2.59685">
        <ele>484</ele>
        <time>2021-10-31T08:53:13.000Z</time>
      </trkpt>
      <trkpt lat="44.02369" lon="2.59685">
        <ele>484</ele>
        <time>2021-10-31T08:53:14.000Z</time>
      </trkpt>
      <trkpt lat="44.0237" lon="2.59685">
        <ele>484</ele>
        <time>2021-10-31T08:53:15.000Z</time>
      </trkpt>
      <trkpt lat="44.02371" lon="2.59684">
        <ele>484</ele>
        <time>2021-10-31T08:53:16.000Z</time>
      </trkpt>
      <trkpt lat="44.02371" lon="2.59684">
        <ele>484</ele>
        <time>2021-10-31T08:53:17.000Z</time>
      </trkpt>
      <trkpt lat="44.02372" lon="2.59684">
        <ele>483</ele>
        <time>2021-10-31T08:53:18.000Z</time>
      </trkpt>
      <trkpt lat="44.02373" lon="2.59684">
        <ele>483</ele>
        <time>2021-10-31T08:53:19.000Z</time>
      </trkpt>
      <trkpt lat="44.02373" lon="2.59684">
        <ele>483</ele>
        <time>2021-10-31T08:53:20.000Z</time>
      </trkpt>
      <trkpt lat="44.02374" lon="2.59683">
        <ele>483</ele>
        <time>2021-10-31T08:53:21.000Z</time>
      </trkpt>
      <trkpt lat="44.02374" lon="2.59683">
        <ele>483</ele>
        <time>2021-10-31T08:53:22.000Z</time>
      </trkpt>
      <trkpt lat="44.02374" lon="2.59683">
        <ele>484</ele>
        <time>2021-10-31T08:53:23.000Z</time>
      </trkpt>
      <trkpt lat="44.02375" lon="2.59683">
        <ele>484</ele>
        <time>2021-10-31T08:53:24.000Z</time>
      </trkpt>
      <trkpt lat="44.02376" lon="2.59682">
        <ele>483</ele>
        <time>2021-10-31T08:53:25.000Z</time>
      </trkpt>
      <trkpt lat="44.02376" lon="2.59682">
        <ele>483</ele>
        <time>2021-10-31T08:53:26.000Z</time>
      </trkpt>
      <trkpt lat="44.02377" lon="2.59682">
        <ele>483</ele>
        <time>2021-10-31T08:53:27.000Z</time>
      </trkpt>
      <trkpt lat="44.02377" lon="2.59681">
        <ele>483</ele>
        <time>2021-10-31T08:53:28.000Z</time>
      </trkpt>
      <trkpt lat="44.02378" lon="2.59681">
        <ele>483</ele>
        <time>2021-10-31T08:53:29.000Z</time>
      </trkpt>
      <trkpt lat="44.02378" lon="2.59681">
        <ele>483</ele>
        <time>2021-10-31T08:53:30.000Z</time>
      </trkpt>
      <trkpt lat="44.02379" lon="2.59681">
        <ele>483</ele>
        <time>2021-10-31T08:53:31.000Z</time>
      </trkpt>
      <trkpt lat="44.02379" lon="2.59681">
        <ele>483</ele>
        <time>2021-10-31T08:53:32.000Z</time>
      </trkpt>
      <trkpt lat="44.0238" lon="2.59681">
        <ele>483</ele>
        <time>2021-10-31T08:53:33.000Z</time>
      </trkpt>
      <trkpt lat="44.02381" lon="2.5968">
        <ele>483</ele>
        <time>2021-10-31T08:53:34.000Z</time>
      </trkpt>
      <trkpt lat="44.02381" lon="2.5968">
        <ele>483</ele>
        <time>2021-10-31T08:53:35.000Z</time>
      </trkpt>
      <trkpt lat="44.02382" lon="2.5968">
        <ele>483</ele>
        <time>2021-10-31T08:53:36.000Z</time>
      </trkpt>
      <trkpt lat="44.02382" lon="2.5968">
        <ele>483</ele>
        <time>2021-10-31T08:53:37.000Z</time>
      </trkpt>
      <trkpt lat="44.02383" lon="2.5968">
        <ele>483</ele>
        <time>2021-10-31T08:53:38.000Z</time>
      </trkpt>
      <trkpt lat="44.02383" lon="2.5968">
        <ele>483</ele>
        <time>2021-10-31T08:53:39.000Z</time>
      </trkpt>
      <trkpt lat="44.02384" lon="2.5968">
        <ele>482</ele>
        <time>2021-10-31T08:53:40.000Z</time>
      </trkpt>
      <trkpt lat="44.02385" lon="2.5968">
        <ele>482</ele>
        <time>2021-10-31T08:53:41.000Z</time>
      </trkpt>
      <trkpt lat="44.02386" lon="2.59679">
        <ele>482</ele>
        <time>2021-10-31T08:53:42.000Z</time>
      </trkpt>
      <trkpt lat="44.02386" lon="2.59679">
        <ele>482</ele>
        <time>2021-10-31T08:53:43.000Z</time>
      </trkpt>
      <trkpt lat="44.02387" lon="2.59679">
        <ele>482</ele>
        <time>2021-10-31T08:53:44.000Z</time>
      </trkpt>
      <trkpt lat="44.02388" lon="2.59678">
        <ele>482</ele>
        <time>2021-10-31T08:53:45.000Z</time>
      </trkpt>
      <trkpt lat="44.02388" lon="2.59678">
        <ele>482</ele>
        <time>2021-10-31T08:53:46.000Z</time>
      </trkpt>
      <trkpt lat="44.02389" lon="2.59678">
        <ele>482</ele>
        <time>2021-10-31T08:53:47.000Z</time>
      </trkpt>
      <trkpt lat="44.02389" lon="2.59678">
        <ele>482</ele>
        <time>2021-10-31T08:53:48.000Z</time>
      </trkpt>
      <trkpt lat="44.0239" lon="2.59678">
        <ele>481</ele>
        <time>2021-10-31T08:53:49.000Z</time>
      </trkpt>
      <trkpt lat="44.0239" lon="2.59678">
        <ele>481</ele>
        <time>2021-10-31T08:53:50.000Z</time>
      </trkpt>
      <trkpt lat="44.02391" lon="2.59678">
        <ele>481</ele>
        <time>2021-10-31T08:53:51.000Z</time>
      </trkpt>
      <trkpt lat="44.02392" lon="2.59678">
        <ele>481</ele>
        <time>2021-10-31T08:53:52.000Z</time>
      </trkpt>
      <trkpt lat="44.02392" lon="2.59678">
        <ele>481</ele>
        <time>2021-10-31T08:53:53.000Z</time>
      </trkpt>
      <trkpt lat="44.02393" lon="2.59677">
        <ele>481</ele>
        <time>2021-10-31T08:53:54.000Z</time>
      </trkpt>
      <trkpt lat="44.02394" lon="2.59678">
        <ele>481</ele>
        <time>2021-10-31T08:53:55.000Z</time>
      </trkpt>
      <trkpt lat="44.02394" lon="2.59678">
        <ele>481</ele>
        <time>2021-10-31T08:53:56.000Z</time>
      </trkpt>
      <trkpt lat="44.02395" lon="2.59678">
        <ele>481</ele>
        <time>2021-10-31T08:53:57.000Z</time>
      </trkpt>
      <trkpt lat="44.02396" lon="2.59678">
        <ele>481</ele>
        <time>2021-10-31T08:53:58.000Z</time>
      </trkpt>
      <trkpt lat="44.02396" lon="2.59678">
        <ele>481</ele>
        <time>2021-10-31T08:53:59.000Z</time>
      </trkpt>
      <trkpt lat="44.02397" lon="2.59678">
        <ele>480</ele>
        <time>2021-10-31T08:54:00.000Z</time>
      </trkpt>
      <trkpt lat="44.02397" lon="2.59678">
        <ele>480</ele>
        <time>2021-10-31T08:54:01.000Z</time>
      </trkpt>
      <trkpt lat="44.02398" lon="2.59678">
        <ele>480</ele>
        <time>2021-10-31T08:54:02.000Z</time>
      </trkpt>
      <trkpt lat="44.02399" lon="2.59677">
        <ele>480</ele>
        <time>2021-10-31T08:54:03.000Z</time>
      </trkpt>
      <trkpt lat="44.024" lon="2.59677">
        <ele>480</ele>
        <time>2021-10-31T08:54:04.000Z</time>
      </trkpt>
      <trkpt lat="44.024" lon="2.59677">
        <ele>480</ele>
        <time>2021-10-31T08:54:05.000Z</time>
      </trkpt>
      <trkpt lat="44.02401" lon="2.59677">
        <ele>480</ele>
        <time>2021-10-31T08:54:06.000Z</time>
      </trkpt>
      <trkpt lat="44.02402" lon="2.59677">
        <ele>479</ele>
        <time>2021-10-31T08:54:07.000Z</time>
      </trkpt>
      <trkpt lat="44.02403" lon="2.59676">
        <ele>479</ele>
        <time>2021-10-31T08:54:08.000Z</time>
      </trkpt>
      <trkpt lat="44.02403" lon="2.59676">
        <ele>479</ele>
        <time>2021-10-31T08:54:09.000Z</time>
      </trkpt>
      <trkpt lat="44.02404" lon="2.59676">
        <ele>479</ele>
        <time>2021-10-31T08:54:10.000Z</time>
      </trkpt>
      <trkpt lat="44.02404" lon="2.59675">
        <ele>479</ele>
        <time>2021-10-31T08:54:11.000Z</time>
      </trkpt>
      <trkpt lat="44.02405" lon="2.59675">
        <ele>479</ele>
        <time>2021-10-31T08:54:12.000Z</time>
      </trkpt>
      <trkpt lat="44.02406" lon="2.59674">
        <ele>479</ele>
        <time>2021-10-31T08:54:13.000Z</time>
      </trkpt>
      <trkpt lat="44.02406" lon="2.59674">
        <ele>479</ele>
        <time>2021-10-31T08:54:14.000Z</time>
      </trkpt>
      <trkpt lat="44.02407" lon="2.59674">
        <ele>479</ele>
        <time>2021-10-31T08:54:15.000Z</time>
      </trkpt>
      <trkpt lat="44.02408" lon="2.59675">
        <ele>479</ele>
        <time>2021-10-31T08:54:16.000Z</time>
      </trkpt>
      <trkpt lat="44.02409" lon="2.59675">
        <ele>478</ele>
        <time>2021-10-31T08:54:17.000Z</time>
      </trkpt>
      <trkpt lat="44.02411" lon="2.59675">
        <ele>478</ele>
        <time>2021-10-31T08:54:18.000Z</time>
      </trkpt>
      <trkpt lat="44.02412" lon="2.59675">
        <ele>478</ele>
        <time>2021-10-31T08:54:19.000Z</time>
      </trkpt>
      <trkpt lat="44.02412" lon="2.59674">
        <ele>478</ele>
        <time>2021-10-31T08:54:20.000Z</time>
      </trkpt>
      <trkpt lat="44.02413" lon="2.59674">
        <ele>478</ele>
        <time>2021-10-31T08:54:21.000Z</time>
      </trkpt>
      <trkpt lat="44.02414" lon="2.59674">
        <ele>478</ele>
        <time>2021-10-31T08:54:22.000Z</time>
      </trkpt>
      <trkpt lat="44.02415" lon="2.59674">
        <ele>478</ele>
        <time>2021-10-31T08:54:23.000Z</time>
      </trkpt>
      <trkpt lat="44.02416" lon="2.59673">
        <ele>478</ele>
        <time>2021-10-31T08:54:24.000Z</time>
      </trkpt>
      <trkpt lat="44.02417" lon="2.59673">
        <ele>478</ele>
        <time>2021-10-31T08:54:25.000Z</time>
      </trkpt>
      <trkpt lat="44.02418" lon="2.59673">
        <ele>478</ele>
        <time>2021-10-31T08:54:26.000Z</time>
      </trkpt>
      <trkpt lat="44.02419" lon="2.59673">
        <ele>478</ele>
        <time>2021-10-31T08:54:27.000Z</time>
      </trkpt>
      <trkpt lat="44.0242" lon="2.59673">
        <ele>478</ele>
        <time>2021-10-31T08:54:28.000Z</time>
      </trkpt>
      <trkpt lat="44.02421" lon="2.59673">
        <ele>478</ele>
        <time>2021-10-31T08:54:29.000Z</time>
      </trkpt>
      <trkpt lat="44.02422" lon="2.59673">
        <ele>478</ele>
        <time>2021-10-31T08:54:30.000Z</time>
      </trkpt>
      <trkpt lat="44.02423" lon="2.59673">
        <ele>478</ele>
        <time>2021-10-31T08:54:31.000Z</time>
      </trkpt>
      <trkpt lat="44.02424" lon="2.59673">
        <ele>478</ele>
        <time>2021-10-31T08:54:32.000Z</time>
      </trkpt>
      <trkpt lat="44.02425" lon="2.59673">
        <ele>477</ele>
        <time>2021-10-31T08:54:33.000Z</time>
      </trkpt>
      <trkpt lat="44.02426" lon="2.59673">
        <ele>477</ele>
        <time>2021-10-31T08:54:34.000Z</time>
      </trkpt>
      <trkpt lat="44.02426" lon="2.59673">
        <ele>477</ele>
        <time>2021-10-31T08:54:35.000Z</time>
      </trkpt>
      <trkpt lat="44.02427" lon="2.59673">
        <ele>477</ele>
        <time>2021-10-31T08:54:36.000Z</time>
      </trkpt>
      <trkpt lat="44.02428" lon="2.59673">
        <ele>477</ele>
        <time>2021-10-31T08:54:37.000Z</time>
      </trkpt>
      <trkpt lat="44.02429" lon="2.59673">
        <ele>477</ele>
        <time>2021-10-31T08:54:38.000Z</time>
      </trkpt>
      <trkpt lat="44.02429" lon="2.59672">
        <ele>477</ele>
        <time>2021-10-31T08:54:39.000Z</time>
      </trkpt>
      <trkpt lat="44.0243" lon="2.59672">
        <ele>476</ele>
        <time>2021-10-31T08:54:40.000Z</time>
      </trkpt>
      <trkpt lat="44.02431" lon="2.59672">
        <ele>476</ele>
        <time>2021-10-31T08:54:41.000Z</time>
      </trkpt>
      <trkpt lat="44.02431" lon="2.59672">
        <ele>476</ele>
        <time>2021-10-31T08:54:42.000Z</time>
      </trkpt>
      <trkpt lat="44.02432" lon="2.59671">
        <ele>476</ele>
        <time>2021-10-31T08:54:43.000Z</time>
      </trkpt>
      <trkpt lat="44.02433" lon="2.59671">
        <ele>476</ele>
        <time>2021-10-31T08:54:44.000Z</time>
      </trkpt>
      <trkpt lat="44.02434" lon="2.5967">
        <ele>476</ele>
        <time>2021-10-31T08:54:45.000Z</time>
      </trkpt>
      <trkpt lat="44.02434" lon="2.5967">
        <ele>476</ele>
        <time>2021-10-31T08:54:46.000Z</time>
      </trkpt>
      <trkpt lat="44.02434" lon="2.5967">
        <ele>476</ele>
        <time>2021-10-31T08:54:47.000Z</time>
      </trkpt>
      <trkpt lat="44.02434" lon="2.5967">
        <ele>476</ele>
        <time>2021-10-31T08:54:48.000Z</time>
      </trkpt>
      <trkpt lat="44.02438" lon="2.59667">
        <ele>475</ele>
        <time>2021-10-31T08:54:49.000Z</time>
      </trkpt>
      <trkpt lat="44.02439" lon="2.59667">
        <ele>475</ele>
        <time>2021-10-31T08:54:50.000Z</time>
      </trkpt>
      <trkpt lat="44.0244" lon="2.59667">
        <ele>475</ele>
        <time>2021-10-31T08:54:51.000Z</time>
      </trkpt>
      <trkpt lat="44.0244" lon="2.59667">
        <ele>475</ele>
        <time>2021-10-31T08:54:52.000Z</time>
      </trkpt>
      <trkpt lat="44.02441" lon="2.59667">
        <ele>476</ele>
        <time>2021-10-31T08:54:53.000Z</time>
      </trkpt>
      <trkpt lat="44.02441" lon="2.59667">
        <ele>475</ele>
        <time>2021-10-31T08:54:54.000Z</time>
      </trkpt>
      <trkpt lat="44.02442" lon="2.59668">
        <ele>475</ele>
        <time>2021-10-31T08:54:55.000Z</time>
      </trkpt>
      <trkpt lat="44.02443" lon="2.59668">
        <ele>475</ele>
        <time>2021-10-31T08:54:56.000Z</time>
      </trkpt>
      <trkpt lat="44.02444" lon="2.59668">
        <ele>475</ele>
        <time>2021-10-31T08:54:57.000Z</time>
      </trkpt>
      <trkpt lat="44.02445" lon="2.59668">
        <ele>475</ele>
        <time>2021-10-31T08:54:58.000Z</time>
      </trkpt>
      <trkpt lat="44.02446" lon="2.59667">
        <ele>475</ele>
        <time>2021-10-31T08:54:59.000Z</time>
      </trkpt>
      <trkpt lat="44.02447" lon="2.59667">
        <ele>475</ele>
        <time>2021-10-31T08:55:00.000Z</time>
      </trkpt>
      <trkpt lat="44.02448" lon="2.59667">
        <ele>475</ele>
        <time>2021-10-31T08:55:01.000Z</time>
      </trkpt>
      <trkpt lat="44.02449" lon="2.59667">
        <ele>475</ele>
        <time>2021-10-31T08:55:02.000Z</time>
      </trkpt>
      <trkpt lat="44.0245" lon="2.59667">
        <ele>475</ele>
        <time>2021-10-31T08:55:03.000Z</time>
      </trkpt>
      <trkpt lat="44.02451" lon="2.59667">
        <ele>474</ele>
        <time>2021-10-31T08:55:04.000Z</time>
      </trkpt>
      <trkpt lat="44.02452" lon="2.59667">
        <ele>474</ele>
        <time>2021-10-31T08:55:05.000Z</time>
      </trkpt>
      <trkpt lat="44.02453" lon="2.59667">
        <ele>474</ele>
        <time>2021-10-31T08:55:06.000Z</time>
      </trkpt>
      <trkpt lat="44.02453" lon="2.59667">
        <ele>474</ele>
        <time>2021-10-31T08:55:07.000Z</time>
      </trkpt>
      <trkpt lat="44.02454" lon="2.59667">
        <ele>474</ele>
        <time>2021-10-31T08:55:08.000Z</time>
      </trkpt>
      <trkpt lat="44.02455" lon="2.59667">
        <ele>474</ele>
        <time>2021-10-31T08:55:09.000Z</time>
      </trkpt>
      <trkpt lat="44.02456" lon="2.59667">
        <ele>474</ele>
        <time>2021-10-31T08:55:10.000Z</time>
      </trkpt>
      <trkpt lat="44.02457" lon="2.59667">
        <ele>474</ele>
        <time>2021-10-31T08:55:11.000Z</time>
      </trkpt>
      <trkpt lat="44.02457" lon="2.59666">
        <ele>473</ele>
        <time>2021-10-31T08:55:12.000Z</time>
      </trkpt>
      <trkpt lat="44.02458" lon="2.59666">
        <ele>473</ele>
        <time>2021-10-31T08:55:13.000Z</time>
      </trkpt>
      <trkpt lat="44.02459" lon="2.59666">
        <ele>473</ele>
        <time>2021-10-31T08:55:14.000Z</time>
      </trkpt>
      <trkpt lat="44.0246" lon="2.59666">
        <ele>473</ele>
        <time>2021-10-31T08:55:15.000Z</time>
      </trkpt>
      <trkpt lat="44.02461" lon="2.59665">
        <ele>473</ele>
        <time>2021-10-31T08:55:16.000Z</time>
      </trkpt>
      <trkpt lat="44.02462" lon="2.59665">
        <ele>473</ele>
        <time>2021-10-31T08:55:17.000Z</time>
      </trkpt>
      <trkpt lat="44.02463" lon="2.59665">
        <ele>473</ele>
        <time>2021-10-31T08:55:18.000Z</time>
      </trkpt>
      <trkpt lat="44.02464" lon="2.59664">
        <ele>473</ele>
        <time>2021-10-31T08:55:19.000Z</time>
      </trkpt>
      <trkpt lat="44.02465" lon="2.59664">
        <ele>473</ele>
        <time>2021-10-31T08:55:20.000Z</time>
      </trkpt>
      <trkpt lat="44.02466" lon="2.59663">
        <ele>473</ele>
        <time>2021-10-31T08:55:21.000Z</time>
      </trkpt>
      <trkpt lat="44.02467" lon="2.59663">
        <ele>473</ele>
        <time>2021-10-31T08:55:22.000Z</time>
      </trkpt>
      <trkpt lat="44.02467" lon="2.59662">
        <ele>473</ele>
        <time>2021-10-31T08:55:23.000Z</time>
      </trkpt>
      <trkpt lat="44.02468" lon="2.59661">
        <ele>473</ele>
        <time>2021-10-31T08:55:24.000Z</time>
      </trkpt>
      <trkpt lat="44.02469" lon="2.5966">
        <ele>473</ele>
        <time>2021-10-31T08:55:25.000Z</time>
      </trkpt>
      <trkpt lat="44.0247" lon="2.5966">
        <ele>473</ele>
        <time>2021-10-31T08:55:26.000Z</time>
      </trkpt>
      <trkpt lat="44.0247" lon="2.59659">
        <ele>473</ele>
        <time>2021-10-31T08:55:27.000Z</time>
      </trkpt>
      <trkpt lat="44.02471" lon="2.59658">
        <ele>472</ele>
        <time>2021-10-31T08:55:28.000Z</time>
      </trkpt>
      <trkpt lat="44.02472" lon="2.59657">
        <ele>472</ele>
        <time>2021-10-31T08:55:29.000Z</time>
      </trkpt>
      <trkpt lat="44.02472" lon="2.59656">
        <ele>472</ele>
        <time>2021-10-31T08:55:30.000Z</time>
      </trkpt>
      <trkpt lat="44.02473" lon="2.59655">
        <ele>472</ele>
        <time>2021-10-31T08:55:31.000Z</time>
      </trkpt>
      <trkpt lat="44.02474" lon="2.59655">
        <ele>472</ele>
        <time>2021-10-31T08:55:32.000Z</time>
      </trkpt>
      <trkpt lat="44.02474" lon="2.59654">
        <ele>472</ele>
        <time>2021-10-31T08:55:33.000Z</time>
      </trkpt>
      <trkpt lat="44.02475" lon="2.59653">
        <ele>472</ele>
        <time>2021-10-31T08:55:34.000Z</time>
      </trkpt>
      <trkpt lat="44.02475" lon="2.59652">
        <ele>472</ele>
        <time>2021-10-31T08:55:35.000Z</time>
      </trkpt>
      <trkpt lat="44.02476" lon="2.59652">
        <ele>473</ele>
        <time>2021-10-31T08:55:36.000Z</time>
      </trkpt>
      <trkpt lat="44.02477" lon="2.59651">
        <ele>473</ele>
        <time>2021-10-31T08:55:37.000Z</time>
      </trkpt>
      <trkpt lat="44.02477" lon="2.5965">
        <ele>473</ele>
        <time>2021-10-31T08:55:38.000Z</time>
      </trkpt>
      <trkpt lat="44.02478" lon="2.59649">
        <ele>473</ele>
        <time>2021-10-31T08:55:39.000Z</time>
      </trkpt>
      <trkpt lat="44.02479" lon="2.59648">
        <ele>473</ele>
        <time>2021-10-31T08:55:40.000Z</time>
      </trkpt>
      <trkpt lat="44.0248" lon="2.59647">
        <ele>473</ele>
        <time>2021-10-31T08:55:41.000Z</time>
      </trkpt>
      <trkpt lat="44.0248" lon="2.59646">
        <ele>473</ele>
        <time>2021-10-31T08:55:42.000Z</time>
      </trkpt>
      <trkpt lat="44.02481" lon="2.59645">
        <ele>473</ele>
        <time>2021-10-31T08:55:43.000Z</time>
      </trkpt>
      <trkpt lat="44.02482" lon="2.59645">
        <ele>473</ele>
        <time>2021-10-31T08:55:44.000Z</time>
      </trkpt>
      <trkpt lat="44.02483" lon="2.59644">
        <ele>473</ele>
        <time>2021-10-31T08:55:45.000Z</time>
      </trkpt>
      <trkpt lat="44.02483" lon="2.59644">
        <ele>473</ele>
        <time>2021-10-31T08:55:46.000Z</time>
      </trkpt>
      <trkpt lat="44.02484" lon="2.59643">
        <ele>473</ele>
        <time>2021-10-31T08:55:47.000Z</time>
      </trkpt>
      <trkpt lat="44.02485" lon="2.59643">
        <ele>473</ele>
        <time>2021-10-31T08:55:48.000Z</time>
      </trkpt>
      <trkpt lat="44.02486" lon="2.59642">
        <ele>473</ele>
        <time>2021-10-31T08:55:49.000Z</time>
      </trkpt>
      <trkpt lat="44.02487" lon="2.59642">
        <ele>473</ele>
        <time>2021-10-31T08:55:50.000Z</time>
      </trkpt>
      <trkpt lat="44.02488" lon="2.59641">
        <ele>473</ele>
        <time>2021-10-31T08:55:51.000Z</time>
      </trkpt>
      <trkpt lat="44.02488" lon="2.59641">
        <ele>473</ele>
        <time>2021-10-31T08:55:52.000Z</time>
      </trkpt>
      <trkpt lat="44.02489" lon="2.5964">
        <ele>473</ele>
        <time>2021-10-31T08:55:53.000Z</time>
      </trkpt>
      <trkpt lat="44.0249" lon="2.59639">
        <ele>473</ele>
        <time>2021-10-31T08:55:54.000Z</time>
      </trkpt>
      <trkpt lat="44.02491" lon="2.59639">
        <ele>472</ele>
        <time>2021-10-31T08:55:55.000Z</time>
      </trkpt>
      <trkpt lat="44.02491" lon="2.59638">
        <ele>472</ele>
        <time>2021-10-31T08:55:56.000Z</time>
      </trkpt>
      <trkpt lat="44.02492" lon="2.59638">
        <ele>472</ele>
        <time>2021-10-31T08:55:57.000Z</time>
      </trkpt>
      <trkpt lat="44.02493" lon="2.59637">
        <ele>472</ele>
        <time>2021-10-31T08:55:58.000Z</time>
      </trkpt>
      <trkpt lat="44.02494" lon="2.59636">
        <ele>472</ele>
        <time>2021-10-31T08:55:59.000Z</time>
      </trkpt>
      <trkpt lat="44.02495" lon="2.59636">
        <ele>472</ele>
        <time>2021-10-31T08:56:00.000Z</time>
      </trkpt>
      <trkpt lat="44.02495" lon="2.59635">
        <ele>472</ele>
        <time>2021-10-31T08:56:01.000Z</time>
      </trkpt>
      <trkpt lat="44.02496" lon="2.59634">
        <ele>472</ele>
        <time>2021-10-31T08:56:02.000Z</time>
      </trkpt>
      <trkpt lat="44.02497" lon="2.59633">
        <ele>472</ele>
        <time>2021-10-31T08:56:03.000Z</time>
      </trkpt>
      <trkpt lat="44.02498" lon="2.59632">
        <ele>472</ele>
        <time>2021-10-31T08:56:04.000Z</time>
      </trkpt>
      <trkpt lat="44.02499" lon="2.59632">
        <ele>472</ele>
        <time>2021-10-31T08:56:05.000Z</time>
      </trkpt>
      <trkpt lat="44.02499" lon="2.59631">
        <ele>472</ele>
        <time>2021-10-31T08:56:06.000Z</time>
      </trkpt>
      <trkpt lat="44.025" lon="2.5963">
        <ele>472</ele>
        <time>2021-10-31T08:56:07.000Z</time>
      </trkpt>
      <trkpt lat="44.02501" lon="2.5963">
        <ele>472</ele>
        <time>2021-10-31T08:56:08.000Z</time>
      </trkpt>
      <trkpt lat="44.02502" lon="2.59629">
        <ele>472</ele>
        <time>2021-10-31T08:56:09.000Z</time>
      </trkpt>
      <trkpt lat="44.02503" lon="2.59628">
        <ele>472</ele>
        <time>2021-10-31T08:56:10.000Z</time>
      </trkpt>
      <trkpt lat="44.02504" lon="2.59627">
        <ele>472</ele>
        <time>2021-10-31T08:56:11.000Z</time>
      </trkpt>
      <trkpt lat="44.02505" lon="2.59627">
        <ele>472</ele>
        <time>2021-10-31T08:56:12.000Z</time>
      </trkpt>
      <trkpt lat="44.02506" lon="2.59626">
        <ele>471</ele>
        <time>2021-10-31T08:56:13.000Z</time>
      </trkpt>
      <trkpt lat="44.02507" lon="2.59625">
        <ele>471</ele>
        <time>2021-10-31T08:56:14.000Z</time>
      </trkpt>
      <trkpt lat="44.02508" lon="2.59624">
        <ele>471</ele>
        <time>2021-10-31T08:56:15.000Z</time>
      </trkpt>
      <trkpt lat="44.02508" lon="2.59623">
        <ele>471</ele>
        <time>2021-10-31T08:56:16.000Z</time>
      </trkpt>
      <trkpt lat="44.02509" lon="2.59622">
        <ele>471</ele>
        <time>2021-10-31T08:56:17.000Z</time>
      </trkpt>
      <trkpt lat="44.0251" lon="2.59621">
        <ele>471</ele>
        <time>2021-10-31T08:56:18.000Z</time>
      </trkpt>
      <trkpt lat="44.02511" lon="2.59621">
        <ele>470</ele>
        <time>2021-10-31T08:56:19.000Z</time>
      </trkpt>
      <trkpt lat="44.02511" lon="2.5962">
        <ele>470</ele>
        <time>2021-10-31T08:56:20.000Z</time>
      </trkpt>
      <trkpt lat="44.02512" lon="2.5962">
        <ele>470</ele>
        <time>2021-10-31T08:56:21.000Z</time>
      </trkpt>
      <trkpt lat="44.02513" lon="2.59619">
        <ele>470</ele>
        <time>2021-10-31T08:56:22.000Z</time>
      </trkpt>
      <trkpt lat="44.02514" lon="2.59618">
        <ele>470</ele>
        <time>2021-10-31T08:56:23.000Z</time>
      </trkpt>
      <trkpt lat="44.02515" lon="2.59617">
        <ele>470</ele>
        <time>2021-10-31T08:56:24.000Z</time>
      </trkpt>
      <trkpt lat="44.02515" lon="2.59617">
        <ele>469</ele>
        <time>2021-10-31T08:56:25.000Z</time>
      </trkpt>
      <trkpt lat="44.02516" lon="2.59617">
        <ele>469</ele>
        <time>2021-10-31T08:56:26.000Z</time>
      </trkpt>
      <trkpt lat="44.02516" lon="2.59617">
        <ele>469</ele>
        <time>2021-10-31T08:56:27.000Z</time>
      </trkpt>
      <trkpt lat="44.02516" lon="2.59616">
        <ele>469</ele>
        <time>2021-10-31T08:56:28.000Z</time>
      </trkpt>
      <trkpt lat="44.02517" lon="2.59616">
        <ele>469</ele>
        <time>2021-10-31T08:56:29.000Z</time>
      </trkpt>
      <trkpt lat="44.02521" lon="2.59614">
        <ele>468</ele>
        <time>2021-10-31T08:56:31.000Z</time>
      </trkpt>
      <trkpt lat="44.02521" lon="2.59613">
        <ele>468</ele>
        <time>2021-10-31T08:56:32.000Z</time>
      </trkpt>
      <trkpt lat="44.02522" lon="2.59612">
        <ele>468</ele>
        <time>2021-10-31T08:56:33.000Z</time>
      </trkpt>
      <trkpt lat="44.02523" lon="2.59611">
        <ele>468</ele>
        <time>2021-10-31T08:56:34.000Z</time>
      </trkpt>
      <trkpt lat="44.02524" lon="2.5961">
        <ele>468</ele>
        <time>2021-10-31T08:56:35.000Z</time>
      </trkpt>
      <trkpt lat="44.02525" lon="2.59609">
        <ele>468</ele>
        <time>2021-10-31T08:56:36.000Z</time>
      </trkpt>
      <trkpt lat="44.02526" lon="2.59608">
        <ele>468</ele>
        <time>2021-10-31T08:56:37.000Z</time>
      </trkpt>
      <trkpt lat="44.02527" lon="2.59607">
        <ele>468</ele>
        <time>2021-10-31T08:56:38.000Z</time>
      </trkpt>
      <trkpt lat="44.02528" lon="2.59607">
        <ele>468</ele>
        <time>2021-10-31T08:56:39.000Z</time>
      </trkpt>
      <trkpt lat="44.02529" lon="2.59606">
        <ele>468</ele>
        <time>2021-10-31T08:56:40.000Z</time>
      </trkpt>
      <trkpt lat="44.02529" lon="2.59604">
        <ele>468</ele>
        <time>2021-10-31T08:56:41.000Z</time>
      </trkpt>
      <trkpt lat="44.0253" lon="2.59603">
        <ele>468</ele>
        <time>2021-10-31T08:56:42.000Z</time>
      </trkpt>
      <trkpt lat="44.02531" lon="2.59602">
        <ele>467</ele>
        <time>2021-10-31T08:56:43.000Z</time>
      </trkpt>
      <trkpt lat="44.02532" lon="2.59601">
        <ele>467</ele>
        <time>2021-10-31T08:56:44.000Z</time>
      </trkpt>
      <trkpt lat="44.02532" lon="2.596">
        <ele>467</ele>
        <time>2021-10-31T08:56:45.000Z</time>
      </trkpt>
      <trkpt lat="44.02533" lon="2.59599">
        <ele>467</ele>
        <time>2021-10-31T08:56:46.000Z</time>
      </trkpt>
      <trkpt lat="44.02533" lon="2.59598">
        <ele>467</ele>
        <time>2021-10-31T08:56:47.000Z</time>
      </trkpt>
      <trkpt lat="44.02534" lon="2.59597">
        <ele>467</ele>
        <time>2021-10-31T08:56:48.000Z</time>
      </trkpt>
      <trkpt lat="44.02535" lon="2.59596">
        <ele>467</ele>
        <time>2021-10-31T08:56:49.000Z</time>
      </trkpt>
      <trkpt lat="44.02535" lon="2.59595">
        <ele>467</ele>
        <time>2021-10-31T08:56:50.000Z</time>
      </trkpt>
      <trkpt lat="44.02536" lon="2.59594">
        <ele>467</ele>
        <time>2021-10-31T08:56:51.000Z</time>
      </trkpt>
      <trkpt lat="44.02537" lon="2.59593">
        <ele>467</ele>
        <time>2021-10-31T08:56:52.000Z</time>
      </trkpt>
      <trkpt lat="44.02537" lon="2.59592">
        <ele>467</ele>
        <time>2021-10-31T08:56:53.000Z</time>
      </trkpt>
      <trkpt lat="44.02538" lon="2.59591">
        <ele>467</ele>
        <time>2021-10-31T08:56:54.000Z</time>
      </trkpt>
      <trkpt lat="44.02539" lon="2.5959">
        <ele>467</ele>
        <time>2021-10-31T08:56:55.000Z</time>
      </trkpt>
      <trkpt lat="44.02539" lon="2.59589">
        <ele>467</ele>
        <time>2021-10-31T08:56:56.000Z</time>
      </trkpt>
      <trkpt lat="44.0254" lon="2.59588">
        <ele>467</ele>
        <time>2021-10-31T08:56:57.000Z</time>
      </trkpt>
      <trkpt lat="44.02541" lon="2.59587">
        <ele>467</ele>
        <time>2021-10-31T08:56:58.000Z</time>
      </trkpt>
      <trkpt lat="44.02542" lon="2.59586">
        <ele>467</ele>
        <time>2021-10-31T08:56:59.000Z</time>
      </trkpt>
      <trkpt lat="44.02543" lon="2.59585">
        <ele>467</ele>
        <time>2021-10-31T08:57:00.000Z</time>
      </trkpt>
      <trkpt lat="44.02543" lon="2.59583">
        <ele>467</ele>
        <time>2021-10-31T08:57:01.000Z</time>
      </trkpt>
      <trkpt lat="44.02544" lon="2.59582">
        <ele>467</ele>
        <time>2021-10-31T08:57:02.000Z</time>
      </trkpt>
      <trkpt lat="44.02544" lon="2.59582">
        <ele>467</ele>
        <time>2021-10-31T08:57:03.000Z</time>
      </trkpt>
      <trkpt lat="44.02545" lon="2.5958">
        <ele>467</ele>
        <time>2021-10-31T08:57:04.000Z</time>
      </trkpt>
      <trkpt lat="44.02546" lon="2.59579">
        <ele>467</ele>
        <time>2021-10-31T08:57:05.000Z</time>
      </trkpt>
      <trkpt lat="44.02547" lon="2.59578">
        <ele>467</ele>
        <time>2021-10-31T08:57:06.000Z</time>
      </trkpt>
      <trkpt lat="44.02547" lon="2.59577">
        <ele>467</ele>
        <time>2021-10-31T08:57:07.000Z</time>
      </trkpt>
      <trkpt lat="44.02548" lon="2.59576">
        <ele>467</ele>
        <time>2021-10-31T08:57:08.000Z</time>
      </trkpt>
      <trkpt lat="44.02549" lon="2.59575">
        <ele>467</ele>
        <time>2021-10-31T08:57:09.000Z</time>
      </trkpt>
      <trkpt lat="44.0255" lon="2.59574">
        <ele>467</ele>
        <time>2021-10-31T08:57:10.000Z</time>
      </trkpt>
      <trkpt lat="44.0255" lon="2.59573">
        <ele>467</ele>
        <time>2021-10-31T08:57:11.000Z</time>
      </trkpt>
      <trkpt lat="44.02551" lon="2.59572">
        <ele>467</ele>
        <time>2021-10-31T08:57:12.000Z</time>
      </trkpt>
      <trkpt lat="44.02552" lon="2.59571">
        <ele>467</ele>
        <time>2021-10-31T08:57:13.000Z</time>
      </trkpt>
      <trkpt lat="44.02552" lon="2.5957">
        <ele>467</ele>
        <time>2021-10-31T08:57:14.000Z</time>
      </trkpt>
      <trkpt lat="44.02553" lon="2.59569">
        <ele>467</ele>
        <time>2021-10-31T08:57:15.000Z</time>
      </trkpt>
      <trkpt lat="44.02554" lon="2.59568">
        <ele>466</ele>
        <time>2021-10-31T08:57:16.000Z</time>
      </trkpt>
      <trkpt lat="44.02554" lon="2.59567">
        <ele>466</ele>
        <time>2021-10-31T08:57:17.000Z</time>
      </trkpt>
      <trkpt lat="44.02555" lon="2.59566">
        <ele>466</ele>
        <time>2021-10-31T08:57:18.000Z</time>
      </trkpt>
      <trkpt lat="44.02556" lon="2.59565">
        <ele>466</ele>
        <time>2021-10-31T08:57:19.000Z</time>
      </trkpt>
      <trkpt lat="44.02556" lon="2.59564">
        <ele>466</ele>
        <time>2021-10-31T08:57:20.000Z</time>
      </trkpt>
      <trkpt lat="44.02557" lon="2.59563">
        <ele>466</ele>
        <time>2021-10-31T08:57:21.000Z</time>
      </trkpt>
      <trkpt lat="44.02557" lon="2.59562">
        <ele>466</ele>
        <time>2021-10-31T08:57:22.000Z</time>
      </trkpt>
      <trkpt lat="44.02558" lon="2.59561">
        <ele>466</ele>
        <time>2021-10-31T08:57:23.000Z</time>
      </trkpt>
      <trkpt lat="44.02559" lon="2.5956">
        <ele>465</ele>
        <time>2021-10-31T08:57:24.000Z</time>
      </trkpt>
      <trkpt lat="44.02559" lon="2.59559">
        <ele>465</ele>
        <time>2021-10-31T08:57:25.000Z</time>
      </trkpt>
      <trkpt lat="44.0256" lon="2.59557">
        <ele>465</ele>
        <time>2021-10-31T08:57:26.000Z</time>
      </trkpt>
      <trkpt lat="44.02561" lon="2.59556">
        <ele>465</ele>
        <time>2021-10-31T08:57:27.000Z</time>
      </trkpt>
      <trkpt lat="44.02562" lon="2.59555">
        <ele>465</ele>
        <time>2021-10-31T08:57:28.000Z</time>
      </trkpt>
      <trkpt lat="44.02563" lon="2.59554">
        <ele>465</ele>
        <time>2021-10-31T08:57:29.000Z</time>
      </trkpt>
      <trkpt lat="44.02563" lon="2.59553">
        <ele>465</ele>
        <time>2021-10-31T08:57:30.000Z</time>
      </trkpt>
      <trkpt lat="44.02564" lon="2.59552">
        <ele>465</ele>
        <time>2021-10-31T08:57:31.000Z</time>
      </trkpt>
      <trkpt lat="44.02565" lon="2.59551">
        <ele>464</ele>
        <time>2021-10-31T08:57:32.000Z</time>
      </trkpt>
      <trkpt lat="44.02565" lon="2.5955">
        <ele>464</ele>
        <time>2021-10-31T08:57:33.000Z</time>
      </trkpt>
      <trkpt lat="44.02566" lon="2.59549">
        <ele>464</ele>
        <time>2021-10-31T08:57:34.000Z</time>
      </trkpt>
      <trkpt lat="44.02567" lon="2.59547">
        <ele>464</ele>
        <time>2021-10-31T08:57:35.000Z</time>
      </trkpt>
      <trkpt lat="44.02568" lon="2.59546">
        <ele>464</ele>
        <time>2021-10-31T08:57:36.000Z</time>
      </trkpt>
      <trkpt lat="44.02568" lon="2.59545">
        <ele>464</ele>
        <time>2021-10-31T08:57:37.000Z</time>
      </trkpt>
      <trkpt lat="44.02569" lon="2.59544">
        <ele>464</ele>
        <time>2021-10-31T08:57:38.000Z</time>
      </trkpt>
      <trkpt lat="44.0257" lon="2.59543">
        <ele>464</ele>
        <time>2021-10-31T08:57:39.000Z</time>
      </trkpt>
      <trkpt lat="44.0257" lon="2.59542">
        <ele>464</ele>
        <time>2021-10-31T08:57:40.000Z</time>
      </trkpt>
      <trkpt lat="44.02571" lon="2.59541">
        <ele>464</ele>
        <time>2021-10-31T08:57:41.000Z</time>
      </trkpt>
      <trkpt lat="44.02572" lon="2.5954">
        <ele>464</ele>
        <time>2021-10-31T08:57:42.000Z</time>
      </trkpt>
      <trkpt lat="44.02573" lon="2.59539">
        <ele>464</ele>
        <time>2021-10-31T08:57:43.000Z</time>
      </trkpt>
      <trkpt lat="44.02574" lon="2.59538">
        <ele>464</ele>
        <time>2021-10-31T08:57:44.000Z</time>
      </trkpt>
      <trkpt lat="44.02575" lon="2.59538">
        <ele>464</ele>
        <time>2021-10-31T08:57:45.000Z</time>
      </trkpt>
      <trkpt lat="44.02576" lon="2.59537">
        <ele>464</ele>
        <time>2021-10-31T08:57:46.000Z</time>
      </trkpt>
      <trkpt lat="44.02576" lon="2.59537">
        <ele>463</ele>
        <time>2021-10-31T08:57:47.000Z</time>
      </trkpt>
      <trkpt lat="44.02577" lon="2.59536">
        <ele>463</ele>
        <time>2021-10-31T08:57:48.000Z</time>
      </trkpt>
      <trkpt lat="44.02578" lon="2.59535">
        <ele>463</ele>
        <time>2021-10-31T08:57:49.000Z</time>
      </trkpt>
      <trkpt lat="44.02578" lon="2.59535">
        <ele>463</ele>
        <time>2021-10-31T08:57:50.000Z</time>
      </trkpt>
      <trkpt lat="44.02579" lon="2.59534">
        <ele>463</ele>
        <time>2021-10-31T08:57:51.000Z</time>
      </trkpt>
      <trkpt lat="44.02579" lon="2.59533">
        <ele>463</ele>
        <time>2021-10-31T08:57:52.000Z</time>
      </trkpt>
      <trkpt lat="44.0258" lon="2.59532">
        <ele>463</ele>
        <time>2021-10-31T08:57:53.000Z</time>
      </trkpt>
      <trkpt lat="44.02581" lon="2.59531">
        <ele>463</ele>
        <time>2021-10-31T08:57:54.000Z</time>
      </trkpt>
      <trkpt lat="44.02582" lon="2.5953">
        <ele>463</ele>
        <time>2021-10-31T08:57:55.000Z</time>
      </trkpt>
      <trkpt lat="44.02582" lon="2.59528">
        <ele>463</ele>
        <time>2021-10-31T08:57:56.000Z</time>
      </trkpt>
      <trkpt lat="44.02583" lon="2.59527">
        <ele>464</ele>
        <time>2021-10-31T08:57:57.000Z</time>
      </trkpt>
      <trkpt lat="44.02583" lon="2.59527">
        <ele>464</ele>
        <time>2021-10-31T08:57:58.000Z</time>
      </trkpt>
      <trkpt lat="44.02584" lon="2.59526">
        <ele>464</ele>
        <time>2021-10-31T08:57:59.000Z</time>
      </trkpt>
      <trkpt lat="44.02585" lon="2.59525">
        <ele>464</ele>
        <time>2021-10-31T08:58:00.000Z</time>
      </trkpt>
      <trkpt lat="44.02586" lon="2.59524">
        <ele>464</ele>
        <time>2021-10-31T08:58:01.000Z</time>
      </trkpt>
      <trkpt lat="44.02586" lon="2.59523">
        <ele>464</ele>
        <time>2021-10-31T08:58:02.000Z</time>
      </trkpt>
      <trkpt lat="44.02587" lon="2.59523">
        <ele>463</ele>
        <time>2021-10-31T08:58:03.000Z</time>
      </trkpt>
      <trkpt lat="44.02588" lon="2.59523">
        <ele>463</ele>
        <time>2021-10-31T08:58:04.000Z</time>
      </trkpt>
      <trkpt lat="44.02589" lon="2.59522">
        <ele>463</ele>
        <time>2021-10-31T08:58:05.000Z</time>
      </trkpt>
      <trkpt lat="44.02589" lon="2.59522">
        <ele>463</ele>
        <time>2021-10-31T08:58:06.000Z</time>
      </trkpt>
      <trkpt lat="44.0259" lon="2.59522">
        <ele>463</ele>
        <time>2021-10-31T08:58:07.000Z</time>
      </trkpt>
      <trkpt lat="44.0259" lon="2.59521">
        <ele>463</ele>
        <time>2021-10-31T08:58:08.000Z</time>
      </trkpt>
      <trkpt lat="44.02591" lon="2.59521">
        <ele>463</ele>
        <time>2021-10-31T08:58:09.000Z</time>
      </trkpt>
      <trkpt lat="44.02593" lon="2.59521">
        <ele>463</ele>
        <time>2021-10-31T08:58:10.000Z</time>
      </trkpt>
      <trkpt lat="44.02594" lon="2.59521">
        <ele>463</ele>
        <time>2021-10-31T08:58:11.000Z</time>
      </trkpt>
      <trkpt lat="44.02594" lon="2.5952">
        <ele>462</ele>
        <time>2021-10-31T08:58:12.000Z</time>
      </trkpt>
      <trkpt lat="44.02595" lon="2.5952">
        <ele>462</ele>
        <time>2021-10-31T08:58:13.000Z</time>
      </trkpt>
      <trkpt lat="44.02596" lon="2.59519">
        <ele>462</ele>
        <time>2021-10-31T08:58:14.000Z</time>
      </trkpt>
      <trkpt lat="44.02597" lon="2.59519">
        <ele>462</ele>
        <time>2021-10-31T08:58:15.000Z</time>
      </trkpt>
      <trkpt lat="44.02598" lon="2.59518">
        <ele>462</ele>
        <time>2021-10-31T08:58:16.000Z</time>
      </trkpt>
      <trkpt lat="44.02599" lon="2.59518">
        <ele>462</ele>
        <time>2021-10-31T08:58:17.000Z</time>
      </trkpt>
      <trkpt lat="44.026" lon="2.59517">
        <ele>462</ele>
        <time>2021-10-31T08:58:18.000Z</time>
      </trkpt>
      <trkpt lat="44.02601" lon="2.59517">
        <ele>462</ele>
        <time>2021-10-31T08:58:19.000Z</time>
      </trkpt>
      <trkpt lat="44.02602" lon="2.59516">
        <ele>461</ele>
        <time>2021-10-31T08:58:20.000Z</time>
      </trkpt>
      <trkpt lat="44.02603" lon="2.59515">
        <ele>461</ele>
        <time>2021-10-31T08:58:21.000Z</time>
      </trkpt>
      <trkpt lat="44.02604" lon="2.59514">
        <ele>461</ele>
        <time>2021-10-31T08:58:22.000Z</time>
      </trkpt>
      <trkpt lat="44.02605" lon="2.59514">
        <ele>461</ele>
        <time>2021-10-31T08:58:23.000Z</time>
      </trkpt>
      <trkpt lat="44.02606" lon="2.59513">
        <ele>461</ele>
        <time>2021-10-31T08:58:24.000Z</time>
      </trkpt>
      <trkpt lat="44.02607" lon="2.59513">
        <ele>461</ele>
        <time>2021-10-31T08:58:25.000Z</time>
      </trkpt>
      <trkpt lat="44.02608" lon="2.59512">
        <ele>461</ele>
        <time>2021-10-31T08:58:26.000Z</time>
      </trkpt>
      <trkpt lat="44.02608" lon="2.59512">
        <ele>460</ele>
        <time>2021-10-31T08:58:27.000Z</time>
      </trkpt>
      <trkpt lat="44.02609" lon="2.59512">
        <ele>460</ele>
        <time>2021-10-31T08:58:28.000Z</time>
      </trkpt>
      <trkpt lat="44.0261" lon="2.59512">
        <ele>460</ele>
        <time>2021-10-31T08:58:29.000Z</time>
      </trkpt>
      <trkpt lat="44.02611" lon="2.59512">
        <ele>460</ele>
        <time>2021-10-31T08:58:30.000Z</time>
      </trkpt>
      <trkpt lat="44.02612" lon="2.59513">
        <ele>460</ele>
        <time>2021-10-31T08:58:31.000Z</time>
      </trkpt>
      <trkpt lat="44.02612" lon="2.59513">
        <ele>460</ele>
        <time>2021-10-31T08:58:32.000Z</time>
      </trkpt>
      <trkpt lat="44.02613" lon="2.59513">
        <ele>460</ele>
        <time>2021-10-31T08:58:33.000Z</time>
      </trkpt>
      <trkpt lat="44.02614" lon="2.59513">
        <ele>460</ele>
        <time>2021-10-31T08:58:34.000Z</time>
      </trkpt>
      <trkpt lat="44.02615" lon="2.59513">
        <ele>459</ele>
        <time>2021-10-31T08:58:35.000Z</time>
      </trkpt>
      <trkpt lat="44.02615" lon="2.59513">
        <ele>459</ele>
        <time>2021-10-31T08:58:36.000Z</time>
      </trkpt>
      <trkpt lat="44.02616" lon="2.59512">
        <ele>459</ele>
        <time>2021-10-31T08:58:37.000Z</time>
      </trkpt>
      <trkpt lat="44.02616" lon="2.59512">
        <ele>459</ele>
        <time>2021-10-31T08:58:38.000Z</time>
      </trkpt>
      <trkpt lat="44.02617" lon="2.59511">
        <ele>459</ele>
        <time>2021-10-31T08:58:39.000Z</time>
      </trkpt>
      <trkpt lat="44.02618" lon="2.59511">
        <ele>459</ele>
        <time>2021-10-31T08:58:40.000Z</time>
      </trkpt>
      <trkpt lat="44.02618" lon="2.59511">
        <ele>459</ele>
        <time>2021-10-31T08:58:41.000Z</time>
      </trkpt>
      <trkpt lat="44.02619" lon="2.59511">
        <ele>458</ele>
        <time>2021-10-31T08:58:42.000Z</time>
      </trkpt>
      <trkpt lat="44.02619" lon="2.5951">
        <ele>458</ele>
        <time>2021-10-31T08:58:43.000Z</time>
      </trkpt>
      <trkpt lat="44.02619" lon="2.59509">
        <ele>458</ele>
        <time>2021-10-31T08:58:44.000Z</time>
      </trkpt>
      <trkpt lat="44.0262" lon="2.59509">
        <ele>458</ele>
        <time>2021-10-31T08:58:45.000Z</time>
      </trkpt>
      <trkpt lat="44.0262" lon="2.59508">
        <ele>458</ele>
        <time>2021-10-31T08:58:46.000Z</time>
      </trkpt>
      <trkpt lat="44.0262" lon="2.59507">
        <ele>457</ele>
        <time>2021-10-31T08:58:47.000Z</time>
      </trkpt>
      <trkpt lat="44.02619" lon="2.59506">
        <ele>457</ele>
        <time>2021-10-31T08:58:48.000Z</time>
      </trkpt>
      <trkpt lat="44.02619" lon="2.59506">
        <ele>457</ele>
        <time>2021-10-31T08:58:49.000Z</time>
      </trkpt>
      <trkpt lat="44.02618" lon="2.59506">
        <ele>457</ele>
        <time>2021-10-31T08:58:50.000Z</time>
      </trkpt>
      <trkpt lat="44.02617" lon="2.59506">
        <ele>457</ele>
        <time>2021-10-31T08:58:51.000Z</time>
      </trkpt>
      <trkpt lat="44.02617" lon="2.59506">
        <ele>457</ele>
        <time>2021-10-31T08:58:52.000Z</time>
      </trkpt>
      <trkpt lat="44.02616" lon="2.59507">
        <ele>456</ele>
        <time>2021-10-31T08:58:53.000Z</time>
      </trkpt>
      <trkpt lat="44.02616" lon="2.59507">
        <ele>456</ele>
        <time>2021-10-31T08:58:54.000Z</time>
      </trkpt>
      <trkpt lat="44.02615" lon="2.59507">
        <ele>456</ele>
        <time>2021-10-31T08:58:55.000Z</time>
      </trkpt>
      <trkpt lat="44.02615" lon="2.59506">
        <ele>456</ele>
        <time>2021-10-31T08:58:56.000Z</time>
      </trkpt>
      <trkpt lat="44.02615" lon="2.59506">
        <ele>456</ele>
        <time>2021-10-31T08:58:57.000Z</time>
      </trkpt>
      <trkpt lat="44.02614" lon="2.59506">
        <ele>456</ele>
        <time>2021-10-31T08:58:58.000Z</time>
      </trkpt>
      <trkpt lat="44.02614" lon="2.59506">
        <ele>456</ele>
        <time>2021-10-31T08:58:59.000Z</time>
      </trkpt>
      <trkpt lat="44.02614" lon="2.59507">
        <ele>456</ele>
        <time>2021-10-31T08:59:00.000Z</time>
      </trkpt>
      <trkpt lat="44.02613" lon="2.59507">
        <ele>456</ele>
        <time>2021-10-31T08:59:01.000Z</time>
      </trkpt>
      <trkpt lat="44.02613" lon="2.59508">
        <ele>456</ele>
        <time>2021-10-31T08:59:02.000Z</time>
      </trkpt>
      <trkpt lat="44.02612" lon="2.59508">
        <ele>456</ele>
        <time>2021-10-31T08:59:03.000Z</time>
      </trkpt>
      <trkpt lat="44.02612" lon="2.59508">
        <ele>457</ele>
        <time>2021-10-31T08:59:04.000Z</time>
      </trkpt>
      <trkpt lat="44.02611" lon="2.59508">
        <ele>457</ele>
        <time>2021-10-31T08:59:05.000Z</time>
      </trkpt>
      <trkpt lat="44.0261" lon="2.59508">
        <ele>457</ele>
        <time>2021-10-31T08:59:06.000Z</time>
      </trkpt>
      <trkpt lat="44.02609" lon="2.59508">
        <ele>457</ele>
        <time>2021-10-31T08:59:07.000Z</time>
      </trkpt>
      <trkpt lat="44.02608" lon="2.59509">
        <ele>457</ele>
        <time>2021-10-31T08:59:08.000Z</time>
      </trkpt>
      <trkpt lat="44.02608" lon="2.59509">
        <ele>457</ele>
        <time>2021-10-31T08:59:09.000Z</time>
      </trkpt>
      <trkpt lat="44.02607" lon="2.59509">
        <ele>457</ele>
        <time>2021-10-31T08:59:10.000Z</time>
      </trkpt>
      <trkpt lat="44.02606" lon="2.59509">
        <ele>457</ele>
        <time>2021-10-31T08:59:11.000Z</time>
      </trkpt>
      <trkpt lat="44.02605" lon="2.59509">
        <ele>458</ele>
        <time>2021-10-31T08:59:12.000Z</time>
      </trkpt>
      <trkpt lat="44.02604" lon="2.59509">
        <ele>458</ele>
        <time>2021-10-31T08:59:13.000Z</time>
      </trkpt>
      <trkpt lat="44.02603" lon="2.5951">
        <ele>458</ele>
        <time>2021-10-31T08:59:14.000Z</time>
      </trkpt>
      <trkpt lat="44.02603" lon="2.5951">
        <ele>458</ele>
        <time>2021-10-31T08:59:15.000Z</time>
      </trkpt>
      <trkpt lat="44.02603" lon="2.59509">
        <ele>458</ele>
        <time>2021-10-31T08:59:16.000Z</time>
      </trkpt>
      <trkpt lat="44.02602" lon="2.59509">
        <ele>458</ele>
        <time>2021-10-31T08:59:17.000Z</time>
      </trkpt>
      <trkpt lat="44.02601" lon="2.59509">
        <ele>458</ele>
        <time>2021-10-31T08:59:18.000Z</time>
      </trkpt>
      <trkpt lat="44.026" lon="2.59509">
        <ele>459</ele>
        <time>2021-10-31T08:59:19.000Z</time>
      </trkpt>
      <trkpt lat="44.02599" lon="2.59509">
        <ele>459</ele>
        <time>2021-10-31T08:59:20.000Z</time>
      </trkpt>
      <trkpt lat="44.02599" lon="2.59509">
        <ele>459</ele>
        <time>2021-10-31T08:59:21.000Z</time>
      </trkpt>
      <trkpt lat="44.02598" lon="2.5951">
        <ele>459</ele>
        <time>2021-10-31T08:59:22.000Z</time>
      </trkpt>
      <trkpt lat="44.02597" lon="2.5951">
        <ele>459</ele>
        <time>2021-10-31T08:59:23.000Z</time>
      </trkpt>
      <trkpt lat="44.02596" lon="2.5951">
        <ele>459</ele>
        <time>2021-10-31T08:59:24.000Z</time>
      </trkpt>
      <trkpt lat="44.02595" lon="2.5951">
        <ele>460</ele>
        <time>2021-10-31T08:59:25.000Z</time>
      </trkpt>
      <trkpt lat="44.02595" lon="2.59509">
        <ele>460</ele>
        <time>2021-10-31T08:59:26.000Z</time>
      </trkpt>
      <trkpt lat="44.02594" lon="2.59509">
        <ele>460</ele>
        <time>2021-10-31T08:59:27.000Z</time>
      </trkpt>
      <trkpt lat="44.02593" lon="2.59509">
        <ele>461</ele>
        <time>2021-10-31T08:59:28.000Z</time>
      </trkpt>
      <trkpt lat="44.02593" lon="2.59509">
        <ele>461</ele>
        <time>2021-10-31T08:59:29.000Z</time>
      </trkpt>
      <trkpt lat="44.02592" lon="2.59509">
        <ele>461</ele>
        <time>2021-10-31T08:59:30.000Z</time>
      </trkpt>
      <trkpt lat="44.02591" lon="2.5951">
        <ele>461</ele>
        <time>2021-10-31T08:59:31.000Z</time>
      </trkpt>
      <trkpt lat="44.0259" lon="2.5951">
        <ele>461</ele>
        <time>2021-10-31T08:59:32.000Z</time>
      </trkpt>
      <trkpt lat="44.0259" lon="2.5951">
        <ele>462</ele>
        <time>2021-10-31T08:59:33.000Z</time>
      </trkpt>
      <trkpt lat="44.02589" lon="2.5951">
        <ele>462</ele>
        <time>2021-10-31T08:59:34.000Z</time>
      </trkpt>
      <trkpt lat="44.02588" lon="2.5951">
        <ele>462</ele>
        <time>2021-10-31T08:59:35.000Z</time>
      </trkpt>
      <trkpt lat="44.02588" lon="2.5951">
        <ele>462</ele>
        <time>2021-10-31T08:59:36.000Z</time>
      </trkpt>
      <trkpt lat="44.02587" lon="2.5951">
        <ele>462</ele>
        <time>2021-10-31T08:59:37.000Z</time>
      </trkpt>
      <trkpt lat="44.02587" lon="2.5951">
        <ele>462</ele>
        <time>2021-10-31T08:59:38.000Z</time>
      </trkpt>
      <trkpt lat="44.02586" lon="2.59511">
        <ele>462</ele>
        <time>2021-10-31T08:59:39.000Z</time>
      </trkpt>
      <trkpt lat="44.02585" lon="2.59511">
        <ele>462</ele>
        <time>2021-10-31T08:59:40.000Z</time>
      </trkpt>
      <trkpt lat="44.02584" lon="2.59511">
        <ele>462</ele>
        <time>2021-10-31T08:59:41.000Z</time>
      </trkpt>
      <trkpt lat="44.02584" lon="2.59511">
        <ele>463</ele>
        <time>2021-10-31T08:59:42.000Z</time>
      </trkpt>
      <trkpt lat="44.02583" lon="2.59511">
        <ele>463</ele>
        <time>2021-10-31T08:59:43.000Z</time>
      </trkpt>
      <trkpt lat="44.02583" lon="2.59511">
        <ele>463</ele>
        <time>2021-10-31T08:59:44.000Z</time>
      </trkpt>
      <trkpt lat="44.02582" lon="2.59511">
        <ele>463</ele>
        <time>2021-10-31T08:59:45.000Z</time>
      </trkpt>
      <trkpt lat="44.02582" lon="2.59511">
        <ele>463</ele>
        <time>2021-10-31T08:59:46.000Z</time>
      </trkpt>
      <trkpt lat="44.02582" lon="2.59511">
        <ele>463</ele>
        <time>2021-10-31T08:59:47.000Z</time>
      </trkpt>
      <trkpt lat="44.02579" lon="2.59511">
        <ele>465</ele>
        <time>2021-10-31T08:59:48.000Z</time>
      </trkpt>
      <trkpt lat="44.02578" lon="2.59511">
        <ele>465</ele>
        <time>2021-10-31T08:59:49.000Z</time>
      </trkpt>
      <trkpt lat="44.02578" lon="2.59511">
        <ele>465</ele>
        <time>2021-10-31T08:59:50.000Z</time>
      </trkpt>
      <trkpt lat="44.02578" lon="2.5951">
        <ele>465</ele>
        <time>2021-10-31T08:59:51.000Z</time>
      </trkpt>
      <trkpt lat="44.02577" lon="2.5951">
        <ele>466</ele>
        <time>2021-10-31T08:59:52.000Z</time>
      </trkpt>
      <trkpt lat="44.02577" lon="2.59509">
        <ele>466</ele>
        <time>2021-10-31T08:59:53.000Z</time>
      </trkpt>
      <trkpt lat="44.02576" lon="2.59508">
        <ele>466</ele>
        <time>2021-10-31T08:59:54.000Z</time>
      </trkpt>
      <trkpt lat="44.02576" lon="2.59508">
        <ele>466</ele>
        <time>2021-10-31T08:59:55.000Z</time>
      </trkpt>
      <trkpt lat="44.02575" lon="2.59507">
        <ele>467</ele>
        <time>2021-10-31T08:59:56.000Z</time>
      </trkpt>
      <trkpt lat="44.02574" lon="2.59506">
        <ele>467</ele>
        <time>2021-10-31T08:59:57.000Z</time>
      </trkpt>
      <trkpt lat="44.02573" lon="2.59506">
        <ele>467</ele>
        <time>2021-10-31T08:59:58.000Z</time>
      </trkpt>
      <trkpt lat="44.02572" lon="2.59506">
        <ele>467</ele>
        <time>2021-10-31T08:59:59.000Z</time>
      </trkpt>
      <trkpt lat="44.02572" lon="2.59506">
        <ele>467</ele>
        <time>2021-10-31T09:00:00.000Z</time>
      </trkpt>
      <trkpt lat="44.02571" lon="2.59506">
        <ele>467</ele>
        <time>2021-10-31T09:00:01.000Z</time>
      </trkpt>
      <trkpt lat="44.0257" lon="2.59506">
        <ele>467</ele>
        <time>2021-10-31T09:00:02.000Z</time>
      </trkpt>
      <trkpt lat="44.0257" lon="2.59505">
        <ele>467</ele>
        <time>2021-10-31T09:00:03.000Z</time>
      </trkpt>
      <trkpt lat="44.02569" lon="2.59505">
        <ele>467</ele>
        <time>2021-10-31T09:00:04.000Z</time>
      </trkpt>
      <trkpt lat="44.02568" lon="2.59505">
        <ele>468</ele>
        <time>2021-10-31T09:00:05.000Z</time>
      </trkpt>
      <trkpt lat="44.02567" lon="2.59505">
        <ele>468</ele>
        <time>2021-10-31T09:00:06.000Z</time>
      </trkpt>
      <trkpt lat="44.02567" lon="2.59505">
        <ele>468</ele>
        <time>2021-10-31T09:00:07.000Z</time>
      </trkpt>
      <trkpt lat="44.02566" lon="2.59505">
        <ele>468</ele>
        <time>2021-10-31T09:00:08.000Z</time>
      </trkpt>
      <trkpt lat="44.02565" lon="2.59505">
        <ele>468</ele>
        <time>2021-10-31T09:00:09.000Z</time>
      </trkpt>
      <trkpt lat="44.02564" lon="2.59505">
        <ele>468</ele>
        <time>2021-10-31T09:00:10.000Z</time>
      </trkpt>
      <trkpt lat="44.02562" lon="2.59504">
        <ele>468</ele>
        <time>2021-10-31T09:00:11.000Z</time>
      </trkpt>
      <trkpt lat="44.02561" lon="2.59504">
        <ele>468</ele>
        <time>2021-10-31T09:00:12.000Z</time>
      </trkpt>
      <trkpt lat="44.02561" lon="2.59504">
        <ele>468</ele>
        <time>2021-10-31T09:00:13.000Z</time>
      </trkpt>
      <trkpt lat="44.02558" lon="2.59502">
        <ele>468</ele>
        <time>2021-10-31T09:00:14.000Z</time>
      </trkpt>
      <trkpt lat="44.02558" lon="2.59502">
        <ele>468</ele>
        <time>2021-10-31T09:00:15.000Z</time>
      </trkpt>
      <trkpt lat="44.02557" lon="2.59501">
        <ele>468</ele>
        <time>2021-10-31T09:00:16.000Z</time>
      </trkpt>
      <trkpt lat="44.02556" lon="2.59501">
        <ele>468</ele>
        <time>2021-10-31T09:00:17.000Z</time>
      </trkpt>
      <trkpt lat="44.02555" lon="2.595">
        <ele>468</ele>
        <time>2021-10-31T09:00:18.000Z</time>
      </trkpt>
      <trkpt lat="44.02555" lon="2.595">
        <ele>468</ele>
        <time>2021-10-31T09:00:19.000Z</time>
      </trkpt>
      <trkpt lat="44.02554" lon="2.595">
        <ele>468</ele>
        <time>2021-10-31T09:00:20.000Z</time>
      </trkpt>
      <trkpt lat="44.02554" lon="2.59499">
        <ele>468</ele>
        <time>2021-10-31T09:00:21.000Z</time>
      </trkpt>
      <trkpt lat="44.02552" lon="2.59498">
        <ele>468</ele>
        <time>2021-10-31T09:00:22.000Z</time>
      </trkpt>
      <trkpt lat="44.02552" lon="2.59497">
        <ele>468</ele>
        <time>2021-10-31T09:00:23.000Z</time>
      </trkpt>
      <trkpt lat="44.02551" lon="2.59497">
        <ele>468</ele>
        <time>2021-10-31T09:00:24.000Z</time>
      </trkpt>
      <trkpt lat="44.0255" lon="2.59497">
        <ele>468</ele>
        <time>2021-10-31T09:00:25.000Z</time>
      </trkpt>
      <trkpt lat="44.02549" lon="2.59496">
        <ele>468</ele>
        <time>2021-10-31T09:00:26.000Z</time>
      </trkpt>
      <trkpt lat="44.02549" lon="2.59496">
        <ele>469</ele>
        <time>2021-10-31T09:00:27.000Z</time>
      </trkpt>
      <trkpt lat="44.02548" lon="2.59496">
        <ele>469</ele>
        <time>2021-10-31T09:00:28.000Z</time>
      </trkpt>
      <trkpt lat="44.02547" lon="2.59495">
        <ele>469</ele>
        <time>2021-10-31T09:00:29.000Z</time>
      </trkpt>
      <trkpt lat="44.02547" lon="2.59495">
        <ele>469</ele>
        <time>2021-10-31T09:00:30.000Z</time>
      </trkpt>
      <trkpt lat="44.02546" lon="2.59495">
        <ele>469</ele>
        <time>2021-10-31T09:00:31.000Z</time>
      </trkpt>
      <trkpt lat="44.02546" lon="2.59494">
        <ele>469</ele>
        <time>2021-10-31T09:00:32.000Z</time>
      </trkpt>
      <trkpt lat="44.02545" lon="2.59494">
        <ele>470</ele>
        <time>2021-10-31T09:00:33.000Z</time>
      </trkpt>
      <trkpt lat="44.02542" lon="2.59494">
        <ele>471</ele>
        <time>2021-10-31T09:00:34.000Z</time>
      </trkpt>
      <trkpt lat="44.02541" lon="2.59494">
        <ele>471</ele>
        <time>2021-10-31T09:00:35.000Z</time>
      </trkpt>
      <trkpt lat="44.02541" lon="2.59494">
        <ele>472</ele>
        <time>2021-10-31T09:00:36.000Z</time>
      </trkpt>
      <trkpt lat="44.0254" lon="2.59493">
        <ele>472</ele>
        <time>2021-10-31T09:00:37.000Z</time>
      </trkpt>
      <trkpt lat="44.0254" lon="2.59493">
        <ele>472</ele>
        <time>2021-10-31T09:00:38.000Z</time>
      </trkpt>
      <trkpt lat="44.02539" lon="2.59492">
        <ele>472</ele>
        <time>2021-10-31T09:00:39.000Z</time>
      </trkpt>
      <trkpt lat="44.02539" lon="2.59492">
        <ele>473</ele>
        <time>2021-10-31T09:00:40.000Z</time>
      </trkpt>
      <trkpt lat="44.02538" lon="2.59491">
        <ele>473</ele>
        <time>2021-10-31T09:00:41.000Z</time>
      </trkpt>
      <trkpt lat="44.02537" lon="2.59491">
        <ele>473</ele>
        <time>2021-10-31T09:00:42.000Z</time>
      </trkpt>
      <trkpt lat="44.02537" lon="2.59491">
        <ele>473</ele>
        <time>2021-10-31T09:00:43.000Z</time>
      </trkpt>
      <trkpt lat="44.02537" lon="2.5949">
        <ele>473</ele>
        <time>2021-10-31T09:00:44.000Z</time>
      </trkpt>
      <trkpt lat="44.02536" lon="2.5949">
        <ele>473</ele>
        <time>2021-10-31T09:00:45.000Z</time>
      </trkpt>
      <trkpt lat="44.02533" lon="2.59488">
        <ele>475</ele>
        <time>2021-10-31T09:00:46.000Z</time>
      </trkpt>
      <trkpt lat="44.02533" lon="2.59489">
        <ele>475</ele>
        <time>2021-10-31T09:00:47.000Z</time>
      </trkpt>
      <trkpt lat="44.02532" lon="2.59489">
        <ele>475</ele>
        <time>2021-10-31T09:00:48.000Z</time>
      </trkpt>
      <trkpt lat="44.02531" lon="2.59489">
        <ele>475</ele>
        <time>2021-10-31T09:00:49.000Z</time>
      </trkpt>
      <trkpt lat="44.0253" lon="2.59489">
        <ele>475</ele>
        <time>2021-10-31T09:00:50.000Z</time>
      </trkpt>
      <trkpt lat="44.0253" lon="2.59488">
        <ele>475</ele>
        <time>2021-10-31T09:00:51.000Z</time>
      </trkpt>
      <trkpt lat="44.02529" lon="2.59488">
        <ele>475</ele>
        <time>2021-10-31T09:00:52.000Z</time>
      </trkpt>
      <trkpt lat="44.02529" lon="2.59488">
        <ele>475</ele>
        <time>2021-10-31T09:00:53.000Z</time>
      </trkpt>
      <trkpt lat="44.02528" lon="2.59486">
        <ele>475</ele>
        <time>2021-10-31T09:00:54.000Z</time>
      </trkpt>
      <trkpt lat="44.02527" lon="2.59486">
        <ele>475</ele>
        <time>2021-10-31T09:00:55.000Z</time>
      </trkpt>
      <trkpt lat="44.02527" lon="2.59486">
        <ele>475</ele>
        <time>2021-10-31T09:00:56.000Z</time>
      </trkpt>
      <trkpt lat="44.02526" lon="2.59485">
        <ele>476</ele>
        <time>2021-10-31T09:00:57.000Z</time>
      </trkpt>
      <trkpt lat="44.02525" lon="2.59485">
        <ele>476</ele>
        <time>2021-10-31T09:00:58.000Z</time>
      </trkpt>
      <trkpt lat="44.02525" lon="2.59485">
        <ele>476</ele>
        <time>2021-10-31T09:00:59.000Z</time>
      </trkpt>
      <trkpt lat="44.02524" lon="2.59485">
        <ele>476</ele>
        <time>2021-10-31T09:01:00.000Z</time>
      </trkpt>
      <trkpt lat="44.02522" lon="2.59484">
        <ele>475</ele>
        <time>2021-10-31T09:01:01.000Z</time>
      </trkpt>
      <trkpt lat="44.02521" lon="2.59484">
        <ele>475</ele>
        <time>2021-10-31T09:01:02.000Z</time>
      </trkpt>
      <trkpt lat="44.0252" lon="2.59484">
        <ele>475</ele>
        <time>2021-10-31T09:01:03.000Z</time>
      </trkpt>
      <trkpt lat="44.02519" lon="2.59484">
        <ele>475</ele>
        <time>2021-10-31T09:01:04.000Z</time>
      </trkpt>
      <trkpt lat="44.02519" lon="2.59484">
        <ele>475</ele>
        <time>2021-10-31T09:01:05.000Z</time>
      </trkpt>
      <trkpt lat="44.02518" lon="2.59484">
        <ele>475</ele>
        <time>2021-10-31T09:01:06.000Z</time>
      </trkpt>
      <trkpt lat="44.02517" lon="2.59484">
        <ele>475</ele>
        <time>2021-10-31T09:01:07.000Z</time>
      </trkpt>
      <trkpt lat="44.02516" lon="2.59484">
        <ele>475</ele>
        <time>2021-10-31T09:01:08.000Z</time>
      </trkpt>
      <trkpt lat="44.02516" lon="2.59484">
        <ele>475</ele>
        <time>2021-10-31T09:01:09.000Z</time>
      </trkpt>
      <trkpt lat="44.02516" lon="2.59483">
        <ele>475</ele>
        <time>2021-10-31T09:01:10.000Z</time>
      </trkpt>
      <trkpt lat="44.02512" lon="2.5948">
        <ele>478</ele>
        <time>2021-10-31T09:01:11.000Z</time>
      </trkpt>
      <trkpt lat="44.02512" lon="2.5948">
        <ele>478</ele>
        <time>2021-10-31T09:01:12.000Z</time>
      </trkpt>
      <trkpt lat="44.02511" lon="2.59479">
        <ele>478</ele>
        <time>2021-10-31T09:01:13.000Z</time>
      </trkpt>
      <trkpt lat="44.02511" lon="2.5948">
        <ele>478</ele>
        <time>2021-10-31T09:01:14.000Z</time>
      </trkpt>
      <trkpt lat="44.02511" lon="2.5948">
        <ele>479</ele>
        <time>2021-10-31T09:01:15.000Z</time>
      </trkpt>
      <trkpt lat="44.02508" lon="2.59481">
        <ele>480</ele>
        <time>2021-10-31T09:01:16.000Z</time>
      </trkpt>
      <trkpt lat="44.02507" lon="2.59481">
        <ele>480</ele>
        <time>2021-10-31T09:01:17.000Z</time>
      </trkpt>
      <trkpt lat="44.02507" lon="2.59481">
        <ele>480</ele>
        <time>2021-10-31T09:01:18.000Z</time>
      </trkpt>
      <trkpt lat="44.02506" lon="2.59481">
        <ele>480</ele>
        <time>2021-10-31T09:01:19.000Z</time>
      </trkpt>
      <trkpt lat="44.02505" lon="2.59481">
        <ele>481</ele>
        <time>2021-10-31T09:01:20.000Z</time>
      </trkpt>
      <trkpt lat="44.02504" lon="2.59482">
        <ele>481</ele>
        <time>2021-10-31T09:01:21.000Z</time>
      </trkpt>
      <trkpt lat="44.02503" lon="2.59482">
        <ele>481</ele>
        <time>2021-10-31T09:01:22.000Z</time>
      </trkpt>
      <trkpt lat="44.02503" lon="2.59482">
        <ele>481</ele>
        <time>2021-10-31T09:01:23.000Z</time>
      </trkpt>
      <trkpt lat="44.02502" lon="2.59482">
        <ele>481</ele>
        <time>2021-10-31T09:01:24.000Z</time>
      </trkpt>
      <trkpt lat="44.02501" lon="2.59483">
        <ele>481</ele>
        <time>2021-10-31T09:01:25.000Z</time>
      </trkpt>
      <trkpt lat="44.025" lon="2.59483">
        <ele>482</ele>
        <time>2021-10-31T09:01:26.000Z</time>
      </trkpt>
      <trkpt lat="44.02498" lon="2.59483">
        <ele>482</ele>
        <time>2021-10-31T09:01:27.000Z</time>
      </trkpt>
      <trkpt lat="44.02497" lon="2.59483">
        <ele>482</ele>
        <time>2021-10-31T09:01:28.000Z</time>
      </trkpt>
      <trkpt lat="44.02496" lon="2.59483">
        <ele>482</ele>
        <time>2021-10-31T09:01:29.000Z</time>
      </trkpt>
      <trkpt lat="44.02495" lon="2.59483">
        <ele>482</ele>
        <time>2021-10-31T09:01:30.000Z</time>
      </trkpt>
      <trkpt lat="44.02494" lon="2.59483">
        <ele>482</ele>
        <time>2021-10-31T09:01:31.000Z</time>
      </trkpt>
      <trkpt lat="44.02493" lon="2.59483">
        <ele>482</ele>
        <time>2021-10-31T09:01:32.000Z</time>
      </trkpt>
      <trkpt lat="44.02492" lon="2.59482">
        <ele>482</ele>
        <time>2021-10-31T09:01:33.000Z</time>
      </trkpt>
      <trkpt lat="44.02491" lon="2.59482">
        <ele>482</ele>
        <time>2021-10-31T09:01:34.000Z</time>
      </trkpt>
      <trkpt lat="44.0249" lon="2.59482">
        <ele>482</ele>
        <time>2021-10-31T09:01:35.000Z</time>
      </trkpt>
      <trkpt lat="44.02489" lon="2.59482">
        <ele>482</ele>
        <time>2021-10-31T09:01:36.000Z</time>
      </trkpt>
      <trkpt lat="44.02489" lon="2.59482">
        <ele>482</ele>
        <time>2021-10-31T09:01:37.000Z</time>
      </trkpt>
      <trkpt lat="44.02488" lon="2.59483">
        <ele>482</ele>
        <time>2021-10-31T09:01:38.000Z</time>
      </trkpt>
      <trkpt lat="44.02487" lon="2.59483">
        <ele>482</ele>
        <time>2021-10-31T09:01:39.000Z</time>
      </trkpt>
      <trkpt lat="44.02486" lon="2.59483">
        <ele>482</ele>
        <time>2021-10-31T09:01:40.000Z</time>
      </trkpt>
      <trkpt lat="44.02485" lon="2.59482">
        <ele>482</ele>
        <time>2021-10-31T09:01:41.000Z</time>
      </trkpt>
      <trkpt lat="44.02484" lon="2.59482">
        <ele>482</ele>
        <time>2021-10-31T09:01:42.000Z</time>
      </trkpt>
      <trkpt lat="44.02483" lon="2.59482">
        <ele>482</ele>
        <time>2021-10-31T09:01:43.000Z</time>
      </trkpt>
      <trkpt lat="44.02482" lon="2.59482">
        <ele>482</ele>
        <time>2021-10-31T09:01:44.000Z</time>
      </trkpt>
      <trkpt lat="44.02481" lon="2.59482">
        <ele>482</ele>
        <time>2021-10-31T09:01:45.000Z</time>
      </trkpt>
      <trkpt lat="44.0248" lon="2.59482">
        <ele>481</ele>
        <time>2021-10-31T09:01:46.000Z</time>
      </trkpt>
      <trkpt lat="44.02479" lon="2.59482">
        <ele>481</ele>
        <time>2021-10-31T09:01:47.000Z</time>
      </trkpt>
      <trkpt lat="44.02479" lon="2.59481">
        <ele>481</ele>
        <time>2021-10-31T09:01:48.000Z</time>
      </trkpt>
      <trkpt lat="44.02478" lon="2.59481">
        <ele>481</ele>
        <time>2021-10-31T09:01:49.000Z</time>
      </trkpt>
      <trkpt lat="44.02477" lon="2.59482">
        <ele>481</ele>
        <time>2021-10-31T09:01:50.000Z</time>
      </trkpt>
      <trkpt lat="44.02476" lon="2.59482">
        <ele>480</ele>
        <time>2021-10-31T09:01:51.000Z</time>
      </trkpt>
      <trkpt lat="44.02475" lon="2.59482">
        <ele>480</ele>
        <time>2021-10-31T09:01:52.000Z</time>
      </trkpt>
      <trkpt lat="44.02475" lon="2.59482">
        <ele>480</ele>
        <time>2021-10-31T09:01:53.000Z</time>
      </trkpt>
      <trkpt lat="44.02474" lon="2.59482">
        <ele>480</ele>
        <time>2021-10-31T09:01:54.000Z</time>
      </trkpt>
      <trkpt lat="44.02473" lon="2.59482">
        <ele>480</ele>
        <time>2021-10-31T09:01:55.000Z</time>
      </trkpt>
      <trkpt lat="44.02472" lon="2.59482">
        <ele>479</ele>
        <time>2021-10-31T09:01:56.000Z</time>
      </trkpt>
      <trkpt lat="44.02471" lon="2.59483">
        <ele>479</ele>
        <time>2021-10-31T09:01:57.000Z</time>
      </trkpt>
      <trkpt lat="44.02471" lon="2.59483">
        <ele>479</ele>
        <time>2021-10-31T09:01:58.000Z</time>
      </trkpt>
      <trkpt lat="44.0247" lon="2.59483">
        <ele>479</ele>
        <time>2021-10-31T09:01:59.000Z</time>
      </trkpt>
      <trkpt lat="44.02469" lon="2.59483">
        <ele>479</ele>
        <time>2021-10-31T09:02:00.000Z</time>
      </trkpt>
      <trkpt lat="44.02468" lon="2.59483">
        <ele>478</ele>
        <time>2021-10-31T09:02:01.000Z</time>
      </trkpt>
      <trkpt lat="44.02468" lon="2.59483">
        <ele>478</ele>
        <time>2021-10-31T09:02:02.000Z</time>
      </trkpt>
      <trkpt lat="44.02467" lon="2.59483">
        <ele>478</ele>
        <time>2021-10-31T09:02:03.000Z</time>
      </trkpt>
      <trkpt lat="44.02466" lon="2.59483">
        <ele>478</ele>
        <time>2021-10-31T09:02:04.000Z</time>
      </trkpt>
      <trkpt lat="44.02465" lon="2.59482">
        <ele>478</ele>
        <time>2021-10-31T09:02:05.000Z</time>
      </trkpt>
      <trkpt lat="44.02465" lon="2.59483">
        <ele>478</ele>
        <time>2021-10-31T09:02:06.000Z</time>
      </trkpt>
      <trkpt lat="44.02464" lon="2.59482">
        <ele>478</ele>
        <time>2021-10-31T09:02:07.000Z</time>
      </trkpt>
      <trkpt lat="44.02464" lon="2.59482">
        <ele>478</ele>
        <time>2021-10-31T09:02:08.000Z</time>
      </trkpt>
      <trkpt lat="44.02463" lon="2.59482">
        <ele>478</ele>
        <time>2021-10-31T09:02:09.000Z</time>
      </trkpt>
      <trkpt lat="44.02462" lon="2.59482">
        <ele>478</ele>
        <time>2021-10-31T09:02:10.000Z</time>
      </trkpt>
      <trkpt lat="44.02462" lon="2.59482">
        <ele>478</ele>
        <time>2021-10-31T09:02:11.000Z</time>
      </trkpt>
      <trkpt lat="44.02461" lon="2.59482">
        <ele>478</ele>
        <time>2021-10-31T09:02:12.000Z</time>
      </trkpt>
      <trkpt lat="44.0246" lon="2.59482">
        <ele>477</ele>
        <time>2021-10-31T09:02:13.000Z</time>
      </trkpt>
      <trkpt lat="44.0246" lon="2.59482">
        <ele>477</ele>
        <time>2021-10-31T09:02:14.000Z</time>
      </trkpt>
      <trkpt lat="44.02459" lon="2.59482">
        <ele>477</ele>
        <time>2021-10-31T09:02:15.000Z</time>
      </trkpt>
      <trkpt lat="44.02458" lon="2.59482">
        <ele>477</ele>
        <time>2021-10-31T09:02:16.000Z</time>
      </trkpt>
      <trkpt lat="44.02457" lon="2.59481">
        <ele>477</ele>
        <time>2021-10-31T09:02:17.000Z</time>
      </trkpt>
      <trkpt lat="44.02456" lon="2.59481">
        <ele>477</ele>
        <time>2021-10-31T09:02:18.000Z</time>
      </trkpt>
      <trkpt lat="44.02456" lon="2.59481">
        <ele>477</ele>
        <time>2021-10-31T09:02:19.000Z</time>
      </trkpt>
      <trkpt lat="44.02455" lon="2.59481">
        <ele>477</ele>
        <time>2021-10-31T09:02:20.000Z</time>
      </trkpt>
      <trkpt lat="44.02454" lon="2.59481">
        <ele>477</ele>
        <time>2021-10-31T09:02:21.000Z</time>
      </trkpt>
      <trkpt lat="44.02454" lon="2.5948">
        <ele>477</ele>
        <time>2021-10-31T09:02:22.000Z</time>
      </trkpt>
      <trkpt lat="44.02453" lon="2.5948">
        <ele>477</ele>
        <time>2021-10-31T09:02:23.000Z</time>
      </trkpt>
      <trkpt lat="44.02453" lon="2.5948">
        <ele>477</ele>
        <time>2021-10-31T09:02:24.000Z</time>
      </trkpt>
      <trkpt lat="44.02452" lon="2.5948">
        <ele>477</ele>
        <time>2021-10-31T09:02:25.000Z</time>
      </trkpt>
      <trkpt lat="44.02451" lon="2.5948">
        <ele>477</ele>
        <time>2021-10-31T09:02:26.000Z</time>
      </trkpt>
      <trkpt lat="44.02451" lon="2.59481">
        <ele>477</ele>
        <time>2021-10-31T09:02:27.000Z</time>
      </trkpt>
      <trkpt lat="44.0245" lon="2.59481">
        <ele>477</ele>
        <time>2021-10-31T09:02:28.000Z</time>
      </trkpt>
      <trkpt lat="44.02448" lon="2.59481">
        <ele>477</ele>
        <time>2021-10-31T09:02:29.000Z</time>
      </trkpt>
      <trkpt lat="44.02448" lon="2.59481">
        <ele>477</ele>
        <time>2021-10-31T09:02:30.000Z</time>
      </trkpt>
      <trkpt lat="44.02447" lon="2.59481">
        <ele>477</ele>
        <time>2021-10-31T09:02:31.000Z</time>
      </trkpt>
      <trkpt lat="44.02446" lon="2.59481">
        <ele>477</ele>
        <time>2021-10-31T09:02:32.000Z</time>
      </trkpt>
      <trkpt lat="44.02446" lon="2.59481">
        <ele>477</ele>
        <time>2021-10-31T09:02:33.000Z</time>
      </trkpt>
      <trkpt lat="44.02445" lon="2.5948">
        <ele>477</ele>
        <time>2021-10-31T09:02:34.000Z</time>
      </trkpt>
      <trkpt lat="44.02445" lon="2.5948">
        <ele>477</ele>
        <time>2021-10-31T09:02:35.000Z</time>
      </trkpt>
      <trkpt lat="44.02444" lon="2.5948">
        <ele>477</ele>
        <time>2021-10-31T09:02:36.000Z</time>
      </trkpt>
      <trkpt lat="44.02443" lon="2.59479">
        <ele>477</ele>
        <time>2021-10-31T09:02:37.000Z</time>
      </trkpt>
      <trkpt lat="44.02442" lon="2.59479">
        <ele>477</ele>
        <time>2021-10-31T09:02:38.000Z</time>
      </trkpt>
      <trkpt lat="44.02441" lon="2.59479">
        <ele>477</ele>
        <time>2021-10-31T09:02:39.000Z</time>
      </trkpt>
      <trkpt lat="44.02441" lon="2.59479">
        <ele>477</ele>
        <time>2021-10-31T09:02:40.000Z</time>
      </trkpt>
      <trkpt lat="44.0244" lon="2.59479">
        <ele>478</ele>
        <time>2021-10-31T09:02:41.000Z</time>
      </trkpt>
      <trkpt lat="44.02439" lon="2.59478">
        <ele>478</ele>
        <time>2021-10-31T09:02:42.000Z</time>
      </trkpt>
      <trkpt lat="44.02439" lon="2.59478">
        <ele>478</ele>
        <time>2021-10-31T09:02:43.000Z</time>
      </trkpt>
      <trkpt lat="44.02438" lon="2.59478">
        <ele>478</ele>
        <time>2021-10-31T09:02:44.000Z</time>
      </trkpt>
      <trkpt lat="44.02437" lon="2.59477">
        <ele>478</ele>
        <time>2021-10-31T09:02:45.000Z</time>
      </trkpt>
      <trkpt lat="44.02436" lon="2.59477">
        <ele>478</ele>
        <time>2021-10-31T09:02:46.000Z</time>
      </trkpt>
      <trkpt lat="44.02436" lon="2.59477">
        <ele>478</ele>
        <time>2021-10-31T09:02:47.000Z</time>
      </trkpt>
      <trkpt lat="44.02435" lon="2.59476">
        <ele>478</ele>
        <time>2021-10-31T09:02:48.000Z</time>
      </trkpt>
      <trkpt lat="44.02435" lon="2.59475">
        <ele>478</ele>
        <time>2021-10-31T09:02:49.000Z</time>
      </trkpt>
      <trkpt lat="44.02434" lon="2.59475">
        <ele>478</ele>
        <time>2021-10-31T09:02:50.000Z</time>
      </trkpt>
      <trkpt lat="44.02434" lon="2.59474">
        <ele>478</ele>
        <time>2021-10-31T09:02:51.000Z</time>
      </trkpt>
      <trkpt lat="44.02433" lon="2.59474">
        <ele>479</ele>
        <time>2021-10-31T09:02:52.000Z</time>
      </trkpt>
      <trkpt lat="44.02432" lon="2.59473">
        <ele>479</ele>
        <time>2021-10-31T09:02:53.000Z</time>
      </trkpt>
      <trkpt lat="44.02431" lon="2.59473">
        <ele>479</ele>
        <time>2021-10-31T09:02:54.000Z</time>
      </trkpt>
      <trkpt lat="44.0243" lon="2.59472">
        <ele>479</ele>
        <time>2021-10-31T09:02:55.000Z</time>
      </trkpt>
      <trkpt lat="44.0243" lon="2.59471">
        <ele>479</ele>
        <time>2021-10-31T09:02:56.000Z</time>
      </trkpt>
      <trkpt lat="44.02429" lon="2.5947">
        <ele>479</ele>
        <time>2021-10-31T09:02:57.000Z</time>
      </trkpt>
      <trkpt lat="44.02428" lon="2.59469">
        <ele>479</ele>
        <time>2021-10-31T09:02:58.000Z</time>
      </trkpt>
      <trkpt lat="44.02427" lon="2.59469">
        <ele>479</ele>
        <time>2021-10-31T09:02:59.000Z</time>
      </trkpt>
      <trkpt lat="44.02426" lon="2.59468">
        <ele>479</ele>
        <time>2021-10-31T09:03:00.000Z</time>
      </trkpt>
      <trkpt lat="44.02425" lon="2.59467">
        <ele>480</ele>
        <time>2021-10-31T09:03:01.000Z</time>
      </trkpt>
      <trkpt lat="44.02424" lon="2.59466">
        <ele>480</ele>
        <time>2021-10-31T09:03:02.000Z</time>
      </trkpt>
      <trkpt lat="44.02423" lon="2.59465">
        <ele>480</ele>
        <time>2021-10-31T09:03:03.000Z</time>
      </trkpt>
      <trkpt lat="44.02422" lon="2.59464">
        <ele>480</ele>
        <time>2021-10-31T09:03:04.000Z</time>
      </trkpt>
      <trkpt lat="44.02421" lon="2.59463">
        <ele>480</ele>
        <time>2021-10-31T09:03:05.000Z</time>
      </trkpt>
      <trkpt lat="44.0242" lon="2.59462">
        <ele>480</ele>
        <time>2021-10-31T09:03:06.000Z</time>
      </trkpt>
      <trkpt lat="44.0242" lon="2.59461">
        <ele>480</ele>
        <time>2021-10-31T09:03:07.000Z</time>
      </trkpt>
      <trkpt lat="44.02419" lon="2.5946">
        <ele>481</ele>
        <time>2021-10-31T09:03:08.000Z</time>
      </trkpt>
      <trkpt lat="44.02418" lon="2.59459">
        <ele>481</ele>
        <time>2021-10-31T09:03:09.000Z</time>
      </trkpt>
      <trkpt lat="44.02417" lon="2.59458">
        <ele>481</ele>
        <time>2021-10-31T09:03:10.000Z</time>
      </trkpt>
      <trkpt lat="44.02416" lon="2.59457">
        <ele>481</ele>
        <time>2021-10-31T09:03:11.000Z</time>
      </trkpt>
      <trkpt lat="44.02415" lon="2.59456">
        <ele>481</ele>
        <time>2021-10-31T09:03:12.000Z</time>
      </trkpt>
      <trkpt lat="44.02414" lon="2.59455">
        <ele>481</ele>
        <time>2021-10-31T09:03:13.000Z</time>
      </trkpt>
      <trkpt lat="44.02413" lon="2.59454">
        <ele>481</ele>
        <time>2021-10-31T09:03:14.000Z</time>
      </trkpt>
      <trkpt lat="44.02413" lon="2.59453">
        <ele>480</ele>
        <time>2021-10-31T09:03:15.000Z</time>
      </trkpt>
      <trkpt lat="44.02412" lon="2.59452">
        <ele>480</ele>
        <time>2021-10-31T09:03:16.000Z</time>
      </trkpt>
      <trkpt lat="44.02411" lon="2.59451">
        <ele>480</ele>
        <time>2021-10-31T09:03:17.000Z</time>
      </trkpt>
      <trkpt lat="44.0241" lon="2.5945">
        <ele>480</ele>
        <time>2021-10-31T09:03:18.000Z</time>
      </trkpt>
      <trkpt lat="44.0241" lon="2.59449">
        <ele>480</ele>
        <time>2021-10-31T09:03:19.000Z</time>
      </trkpt>
      <trkpt lat="44.02409" lon="2.59449">
        <ele>480</ele>
        <time>2021-10-31T09:03:20.000Z</time>
      </trkpt>
      <trkpt lat="44.02408" lon="2.59448">
        <ele>480</ele>
        <time>2021-10-31T09:03:21.000Z</time>
      </trkpt>
      <trkpt lat="44.02407" lon="2.59448">
        <ele>480</ele>
        <time>2021-10-31T09:03:22.000Z</time>
      </trkpt>
      <trkpt lat="44.02407" lon="2.59448">
        <ele>480</ele>
        <time>2021-10-31T09:03:23.000Z</time>
      </trkpt>
      <trkpt lat="44.02407" lon="2.59448">
        <ele>480</ele>
        <time>2021-10-31T09:03:24.000Z</time>
      </trkpt>
      <trkpt lat="44.02407" lon="2.59448">
        <ele>479</ele>
        <time>2021-10-31T09:03:25.000Z</time>
      </trkpt>
      <trkpt lat="44.02404" lon="2.59446">
        <ele>479</ele>
        <time>2021-10-31T09:03:26.000Z</time>
      </trkpt>
      <trkpt lat="44.02404" lon="2.59445">
        <ele>479</ele>
        <time>2021-10-31T09:03:27.000Z</time>
      </trkpt>
      <trkpt lat="44.02403" lon="2.59444">
        <ele>479</ele>
        <time>2021-10-31T09:03:28.000Z</time>
      </trkpt>
      <trkpt lat="44.02402" lon="2.59444">
        <ele>479</ele>
        <time>2021-10-31T09:03:29.000Z</time>
      </trkpt>
      <trkpt lat="44.02401" lon="2.59443">
        <ele>479</ele>
        <time>2021-10-31T09:03:30.000Z</time>
      </trkpt>
      <trkpt lat="44.024" lon="2.59442">
        <ele>479</ele>
        <time>2021-10-31T09:03:31.000Z</time>
      </trkpt>
      <trkpt lat="44.02399" lon="2.59441">
        <ele>479</ele>
        <time>2021-10-31T09:03:32.000Z</time>
      </trkpt>
      <trkpt lat="44.02398" lon="2.59441">
        <ele>479</ele>
        <time>2021-10-31T09:03:33.000Z</time>
      </trkpt>
      <trkpt lat="44.02397" lon="2.5944">
        <ele>479</ele>
        <time>2021-10-31T09:03:34.000Z</time>
      </trkpt>
      <trkpt lat="44.02397" lon="2.59439">
        <ele>479</ele>
        <time>2021-10-31T09:03:35.000Z</time>
      </trkpt>
      <trkpt lat="44.02396" lon="2.59438">
        <ele>479</ele>
        <time>2021-10-31T09:03:36.000Z</time>
      </trkpt>
      <trkpt lat="44.02395" lon="2.59437">
        <ele>479</ele>
        <time>2021-10-31T09:03:37.000Z</time>
      </trkpt>
      <trkpt lat="44.02395" lon="2.59436">
        <ele>479</ele>
        <time>2021-10-31T09:03:38.000Z</time>
      </trkpt>
      <trkpt lat="44.02394" lon="2.59436">
        <ele>479</ele>
        <time>2021-10-31T09:03:39.000Z</time>
      </trkpt>
      <trkpt lat="44.02393" lon="2.59435">
        <ele>479</ele>
        <time>2021-10-31T09:03:40.000Z</time>
      </trkpt>
      <trkpt lat="44.02392" lon="2.59435">
        <ele>479</ele>
        <time>2021-10-31T09:03:41.000Z</time>
      </trkpt>
      <trkpt lat="44.02391" lon="2.59434">
        <ele>479</ele>
        <time>2021-10-31T09:03:42.000Z</time>
      </trkpt>
      <trkpt lat="44.0239" lon="2.59433">
        <ele>479</ele>
        <time>2021-10-31T09:03:43.000Z</time>
      </trkpt>
      <trkpt lat="44.0239" lon="2.59433">
        <ele>479</ele>
        <time>2021-10-31T09:03:44.000Z</time>
      </trkpt>
      <trkpt lat="44.02389" lon="2.59432">
        <ele>479</ele>
        <time>2021-10-31T09:03:45.000Z</time>
      </trkpt>
      <trkpt lat="44.02388" lon="2.59431">
        <ele>479</ele>
        <time>2021-10-31T09:03:46.000Z</time>
      </trkpt>
      <trkpt lat="44.02387" lon="2.5943">
        <ele>479</ele>
        <time>2021-10-31T09:03:47.000Z</time>
      </trkpt>
      <trkpt lat="44.02387" lon="2.59429">
        <ele>479</ele>
        <time>2021-10-31T09:03:48.000Z</time>
      </trkpt>
      <trkpt lat="44.02386" lon="2.59429">
        <ele>479</ele>
        <time>2021-10-31T09:03:49.000Z</time>
      </trkpt>
      <trkpt lat="44.02385" lon="2.59428">
        <ele>480</ele>
        <time>2021-10-31T09:03:50.000Z</time>
      </trkpt>
      <trkpt lat="44.02384" lon="2.59427">
        <ele>480</ele>
        <time>2021-10-31T09:03:51.000Z</time>
      </trkpt>
      <trkpt lat="44.02384" lon="2.59426">
        <ele>480</ele>
        <time>2021-10-31T09:03:52.000Z</time>
      </trkpt>
      <trkpt lat="44.02383" lon="2.59425">
        <ele>480</ele>
        <time>2021-10-31T09:03:53.000Z</time>
      </trkpt>
      <trkpt lat="44.02383" lon="2.59424">
        <ele>480</ele>
        <time>2021-10-31T09:03:54.000Z</time>
      </trkpt>
      <trkpt lat="44.02382" lon="2.59424">
        <ele>480</ele>
        <time>2021-10-31T09:03:55.000Z</time>
      </trkpt>
      <trkpt lat="44.02382" lon="2.59423">
        <ele>480</ele>
        <time>2021-10-31T09:03:56.000Z</time>
      </trkpt>
      <trkpt lat="44.02381" lon="2.59422">
        <ele>479</ele>
        <time>2021-10-31T09:03:57.000Z</time>
      </trkpt>
      <trkpt lat="44.0238" lon="2.59421">
        <ele>479</ele>
        <time>2021-10-31T09:03:58.000Z</time>
      </trkpt>
      <trkpt lat="44.0238" lon="2.5942">
        <ele>479</ele>
        <time>2021-10-31T09:03:59.000Z</time>
      </trkpt>
      <trkpt lat="44.02379" lon="2.59419">
        <ele>479</ele>
        <time>2021-10-31T09:04:00.000Z</time>
      </trkpt>
      <trkpt lat="44.02379" lon="2.59419">
        <ele>479</ele>
        <time>2021-10-31T09:04:01.000Z</time>
      </trkpt>
      <trkpt lat="44.02379" lon="2.59419">
        <ele>479</ele>
        <time>2021-10-31T09:04:02.000Z</time>
      </trkpt>
      <trkpt lat="44.02379" lon="2.59418">
        <ele>479</ele>
        <time>2021-10-31T09:04:03.000Z</time>
      </trkpt>
      <trkpt lat="44.02379" lon="2.59418">
        <ele>479</ele>
        <time>2021-10-31T09:04:04.000Z</time>
      </trkpt>
      <trkpt lat="44.02377" lon="2.59416">
        <ele>479</ele>
        <time>2021-10-31T09:04:05.000Z</time>
      </trkpt>
      <trkpt lat="44.02377" lon="2.59416">
        <ele>479</ele>
        <time>2021-10-31T09:04:06.000Z</time>
      </trkpt>
      <trkpt lat="44.02377" lon="2.59415">
        <ele>479</ele>
        <time>2021-10-31T09:04:07.000Z</time>
      </trkpt>
      <trkpt lat="44.02376" lon="2.59414">
        <ele>479</ele>
        <time>2021-10-31T09:04:08.000Z</time>
      </trkpt>
      <trkpt lat="44.02376" lon="2.59413">
        <ele>479</ele>
        <time>2021-10-31T09:04:09.000Z</time>
      </trkpt>
      <trkpt lat="44.02375" lon="2.59413">
        <ele>479</ele>
        <time>2021-10-31T09:04:10.000Z</time>
      </trkpt>
      <trkpt lat="44.02375" lon="2.59412">
        <ele>479</ele>
        <time>2021-10-31T09:04:11.000Z</time>
      </trkpt>
      <trkpt lat="44.02375" lon="2.59411">
        <ele>479</ele>
        <time>2021-10-31T09:04:12.000Z</time>
      </trkpt>
      <trkpt lat="44.02374" lon="2.59411">
        <ele>479</ele>
        <time>2021-10-31T09:04:13.000Z</time>
      </trkpt>
      <trkpt lat="44.02374" lon="2.5941">
        <ele>479</ele>
        <time>2021-10-31T09:04:14.000Z</time>
      </trkpt>
      <trkpt lat="44.02374" lon="2.59408">
        <ele>479</ele>
        <time>2021-10-31T09:04:15.000Z</time>
      </trkpt>
      <trkpt lat="44.02374" lon="2.59408">
        <ele>479</ele>
        <time>2021-10-31T09:04:16.000Z</time>
      </trkpt>
      <trkpt lat="44.02374" lon="2.59407">
        <ele>479</ele>
        <time>2021-10-31T09:04:17.000Z</time>
      </trkpt>
      <trkpt lat="44.02374" lon="2.59407">
        <ele>479</ele>
        <time>2021-10-31T09:04:18.000Z</time>
      </trkpt>
      <trkpt lat="44.02374" lon="2.59407">
        <ele>479</ele>
        <time>2021-10-31T09:04:19.000Z</time>
      </trkpt>
      <trkpt lat="44.02376" lon="2.59398">
        <ele>481</ele>
        <time>2021-10-31T09:04:20.000Z</time>
      </trkpt>
      <trkpt lat="44.02376" lon="2.59397">
        <ele>481</ele>
        <time>2021-10-31T09:04:21.000Z</time>
      </trkpt>
      <trkpt lat="44.02376" lon="2.59396">
        <ele>482</ele>
        <time>2021-10-31T09:04:22.000Z</time>
      </trkpt>
      <trkpt lat="44.02377" lon="2.59396">
        <ele>482</ele>
        <time>2021-10-31T09:04:23.000Z</time>
      </trkpt>
      <trkpt lat="44.02377" lon="2.59395">
        <ele>482</ele>
        <time>2021-10-31T09:04:24.000Z</time>
      </trkpt>
      <trkpt lat="44.02377" lon="2.59395">
        <ele>482</ele>
        <time>2021-10-31T09:04:25.000Z</time>
      </trkpt>
      <trkpt lat="44.02377" lon="2.59395">
        <ele>482</ele>
        <time>2021-10-31T09:04:26.000Z</time>
      </trkpt>
      <trkpt lat="44.02378" lon="2.59394">
        <ele>482</ele>
        <time>2021-10-31T09:04:27.000Z</time>
      </trkpt>
      <trkpt lat="44.02378" lon="2.59394">
        <ele>482</ele>
        <time>2021-10-31T09:04:28.000Z</time>
      </trkpt>
      <trkpt lat="44.02378" lon="2.59394">
        <ele>482</ele>
        <time>2021-10-31T09:04:29.000Z</time>
      </trkpt>
      <trkpt lat="44.02379" lon="2.59393">
        <ele>482</ele>
        <time>2021-10-31T09:04:30.000Z</time>
      </trkpt>
      <trkpt lat="44.0238" lon="2.59393">
        <ele>482</ele>
        <time>2021-10-31T09:04:31.000Z</time>
      </trkpt>
      <trkpt lat="44.0238" lon="2.59392">
        <ele>482</ele>
        <time>2021-10-31T09:04:32.000Z</time>
      </trkpt>
      <trkpt lat="44.02381" lon="2.59391">
        <ele>482</ele>
        <time>2021-10-31T09:04:33.000Z</time>
      </trkpt>
      <trkpt lat="44.02381" lon="2.59391">
        <ele>482</ele>
        <time>2021-10-31T09:04:34.000Z</time>
      </trkpt>
      <trkpt lat="44.02382" lon="2.5939">
        <ele>482</ele>
        <time>2021-10-31T09:04:35.000Z</time>
      </trkpt>
      <trkpt lat="44.02383" lon="2.59389">
        <ele>482</ele>
        <time>2021-10-31T09:04:36.000Z</time>
      </trkpt>
      <trkpt lat="44.02383" lon="2.59389">
        <ele>482</ele>
        <time>2021-10-31T09:05:02.100Z</time>
      </trkpt>
      <trkpt lat="44.02384" lon="2.59388">
        <ele>482</ele>
        <time>2021-10-31T09:05:03.100Z</time>
      </trkpt>
      <trkpt lat="44.02385" lon="2.59387">
        <ele>482</ele>
        <time>2021-10-31T09:05:04.100Z</time>
      </trkpt>
      <trkpt lat="44.02385" lon="2.59386">
        <ele>483</ele>
        <time>2021-10-31T09:05:05.100Z</time>
      </trkpt>
      <trkpt lat="44.02386" lon="2.59385">
        <ele>483</ele>
        <time>2021-10-31T09:05:06.100Z</time>
      </trkpt>
      <trkpt lat="44.02387" lon="2.59384">
        <ele>483</ele>
        <time>2021-10-31T09:05:07.100Z</time>
      </trkpt>
      <trkpt lat="44.02387" lon="2.59384">
        <ele>483</ele>
        <time>2021-10-31T09:05:08.100Z</time>
      </trkpt>
      <trkpt lat="44.02388" lon="2.59383">
        <ele>483</ele>
        <time>2021-10-31T09:05:09.100Z</time>
      </trkpt>
      <trkpt lat="44.02389" lon="2.59382">
        <ele>483</ele>
        <time>2021-10-31T09:05:10.100Z</time>
      </trkpt>
      <trkpt lat="44.0239" lon="2.59382">
        <ele>483</ele>
        <time>2021-10-31T09:05:11.100Z</time>
      </trkpt>
      <trkpt lat="44.0239" lon="2.59381">
        <ele>483</ele>
        <time>2021-10-31T09:05:12.100Z</time>
      </trkpt>
      <trkpt lat="44.0239" lon="2.59381">
        <ele>483</ele>
        <time>2021-10-31T09:05:15.381Z</time>
      </trkpt>
      <trkpt lat="44.0239" lon="2.59381">
        <ele>483</ele>
        <time>2021-10-31T09:05:16.381Z</time>
      </trkpt>
      <trkpt lat="44.02391" lon="2.5938">
        <ele>483</ele>
        <time>2021-10-31T09:05:17.381Z</time>
      </trkpt>
      <trkpt lat="44.02391" lon="2.59379">
        <ele>483</ele>
        <time>2021-10-31T09:05:18.381Z</time>
      </trkpt>
      <trkpt lat="44.02392" lon="2.59378">
        <ele>483</ele>
        <time>2021-10-31T09:05:19.381Z</time>
      </trkpt>
      <trkpt lat="44.02392" lon="2.59377">
        <ele>483</ele>
        <time>2021-10-31T09:05:20.381Z</time>
      </trkpt>
      <trkpt lat="44.02393" lon="2.59377">
        <ele>483</ele>
        <time>2021-10-31T09:05:21.381Z</time>
      </trkpt>
      <trkpt lat="44.02393" lon="2.59376">
        <ele>483</ele>
        <time>2021-10-31T09:05:22.381Z</time>
      </trkpt>
      <trkpt lat="44.02394" lon="2.59375">
        <ele>483</ele>
        <time>2021-10-31T09:05:23.381Z</time>
      </trkpt>
      <trkpt lat="44.02395" lon="2.59374">
        <ele>483</ele>
        <time>2021-10-31T09:05:24.381Z</time>
      </trkpt>
      <trkpt lat="44.02396" lon="2.59374">
        <ele>483</ele>
        <time>2021-10-31T09:05:27.660Z</time>
      </trkpt>
      <trkpt lat="44.02396" lon="2.59373">
        <ele>484</ele>
        <time>2021-10-31T09:05:28.660Z</time>
      </trkpt>
      <trkpt lat="44.02397" lon="2.59372">
        <ele>484</ele>
        <time>2021-10-31T09:06:53.643Z</time>
      </trkpt>
      <trkpt lat="44.02397" lon="2.59372">
        <ele>484</ele>
        <time>2021-10-31T09:06:54.643Z</time>
      </trkpt>
      <trkpt lat="44.02397" lon="2.59372">
        <ele>484</ele>
        <time>2021-10-31T09:06:55.643Z</time>
      </trkpt>
      <trkpt lat="44.02397" lon="2.59372">
        <ele>484</ele>
        <time>2021-10-31T09:06:56.643Z</time>
      </trkpt>
      <trkpt lat="44.02398" lon="2.59372">
        <ele>484</ele>
        <time>2021-10-31T09:06:57.643Z</time>
      </trkpt>
      <trkpt lat="44.02398" lon="2.59371">
        <ele>484</ele>
        <time>2021-10-31T09:06:58.643Z</time>
      </trkpt>
      <trkpt lat="44.02399" lon="2.59371">
        <ele>484</ele>
        <time>2021-10-31T09:06:59.643Z</time>
      </trkpt>
      <trkpt lat="44.024" lon="2.5937">
        <ele>484</ele>
        <time>2021-10-31T09:07:00.643Z</time>
      </trkpt>
      <trkpt lat="44.024" lon="2.5937">
        <ele>484</ele>
        <time>2021-10-31T09:07:01.643Z</time>
      </trkpt>
      <trkpt lat="44.02401" lon="2.59369">
        <ele>485</ele>
        <time>2021-10-31T09:07:02.643Z</time>
      </trkpt>
      <trkpt lat="44.02402" lon="2.59368">
        <ele>485</ele>
        <time>2021-10-31T09:07:07.660Z</time>
      </trkpt>
      <trkpt lat="44.02402" lon="2.59367">
        <ele>485</ele>
        <time>2021-10-31T09:07:08.660Z</time>
      </trkpt>
      <trkpt lat="44.02403" lon="2.59367">
        <ele>485</ele>
        <time>2021-10-31T09:07:09.660Z</time>
      </trkpt>
      <trkpt lat="44.02404" lon="2.59366">
        <ele>485</ele>
        <time>2021-10-31T09:07:10.660Z</time>
      </trkpt>
      <trkpt lat="44.02404" lon="2.59365">
        <ele>485</ele>
        <time>2021-10-31T09:07:11.660Z</time>
      </trkpt>
      <trkpt lat="44.02405" lon="2.59364">
        <ele>485</ele>
        <time>2021-10-31T09:07:12.660Z</time>
      </trkpt>
      <trkpt lat="44.02406" lon="2.59363">
        <ele>486</ele>
        <time>2021-10-31T09:07:13.660Z</time>
      </trkpt>
      <trkpt lat="44.02406" lon="2.59362">
        <ele>486</ele>
        <time>2021-10-31T09:07:14.660Z</time>
      </trkpt>
      <trkpt lat="44.02407" lon="2.59361">
        <ele>486</ele>
        <time>2021-10-31T09:07:15.660Z</time>
      </trkpt>
      <trkpt lat="44.02408" lon="2.5936">
        <ele>486</ele>
        <time>2021-10-31T09:07:16.660Z</time>
      </trkpt>
      <trkpt lat="44.02408" lon="2.59359">
        <ele>486</ele>
        <time>2021-10-31T09:07:17.660Z</time>
      </trkpt>
      <trkpt lat="44.02409" lon="2.59358">
        <ele>486</ele>
        <time>2021-10-31T09:07:18.660Z</time>
      </trkpt>
      <trkpt lat="44.0241" lon="2.59357">
        <ele>486</ele>
        <time>2021-10-31T09:07:19.660Z</time>
      </trkpt>
      <trkpt lat="44.0241" lon="2.59357">
        <ele>486</ele>
        <time>2021-10-31T09:07:20.660Z</time>
      </trkpt>
      <trkpt lat="44.0241" lon="2.59356">
        <ele>486</ele>
        <time>2021-10-31T09:07:21.660Z</time>
      </trkpt>
      <trkpt lat="44.02411" lon="2.59355">
        <ele>486</ele>
        <time>2021-10-31T09:07:22.660Z</time>
      </trkpt>
      <trkpt lat="44.02411" lon="2.59355">
        <ele>486</ele>
        <time>2021-10-31T09:07:23.660Z</time>
      </trkpt>
      <trkpt lat="44.02411" lon="2.59354">
        <ele>486</ele>
        <time>2021-10-31T09:07:24.660Z</time>
      </trkpt>
      <trkpt lat="44.02412" lon="2.59353">
        <ele>486</ele>
        <time>2021-10-31T09:07:25.660Z</time>
      </trkpt>
      <trkpt lat="44.02412" lon="2.59352">
        <ele>486</ele>
        <time>2021-10-31T09:07:26.660Z</time>
      </trkpt>
      <trkpt lat="44.02412" lon="2.59351">
        <ele>486</ele>
        <time>2021-10-31T09:07:27.660Z</time>
      </trkpt>
      <trkpt lat="44.02413" lon="2.5935">
        <ele>486</ele>
        <time>2021-10-31T09:07:28.660Z</time>
      </trkpt>
      <trkpt lat="44.02413" lon="2.59349">
        <ele>486</ele>
        <time>2021-10-31T09:07:29.660Z</time>
      </trkpt>
      <trkpt lat="44.02414" lon="2.59348">
        <ele>486</ele>
        <time>2021-10-31T09:07:30.660Z</time>
      </trkpt>
      <trkpt lat="44.02414" lon="2.59347">
        <ele>486</ele>
        <time>2021-10-31T09:07:31.660Z</time>
      </trkpt>
      <trkpt lat="44.02415" lon="2.59346">
        <ele>486</ele>
        <time>2021-10-31T09:07:32.660Z</time>
      </trkpt>
      <trkpt lat="44.02415" lon="2.59345">
        <ele>486</ele>
        <time>2021-10-31T09:07:33.660Z</time>
      </trkpt>
      <trkpt lat="44.02416" lon="2.59344">
        <ele>486</ele>
        <time>2021-10-31T09:07:34.660Z</time>
      </trkpt>
      <trkpt lat="44.02416" lon="2.59343">
        <ele>486</ele>
        <time>2021-10-31T09:07:35.660Z</time>
      </trkpt>
      <trkpt lat="44.02416" lon="2.59342">
        <ele>486</ele>
        <time>2021-10-31T09:07:36.660Z</time>
      </trkpt>
      <trkpt lat="44.02417" lon="2.59341">
        <ele>486</ele>
        <time>2021-10-31T09:07:37.660Z</time>
      </trkpt>
      <trkpt lat="44.02417" lon="2.5934">
        <ele>487</ele>
        <time>2021-10-31T09:07:38.660Z</time>
      </trkpt>
      <trkpt lat="44.02417" lon="2.59339">
        <ele>487</ele>
        <time>2021-10-31T09:07:39.660Z</time>
      </trkpt>
      <trkpt lat="44.02418" lon="2.59338">
        <ele>487</ele>
        <time>2021-10-31T09:07:40.660Z</time>
      </trkpt>
      <trkpt lat="44.02418" lon="2.59337">
        <ele>487</ele>
        <time>2021-10-31T09:07:41.660Z</time>
      </trkpt>
      <trkpt lat="44.02419" lon="2.59336">
        <ele>487</ele>
        <time>2021-10-31T09:07:42.660Z</time>
      </trkpt>
      <trkpt lat="44.02419" lon="2.59335">
        <ele>487</ele>
        <time>2021-10-31T09:07:43.660Z</time>
      </trkpt>
      <trkpt lat="44.02419" lon="2.59334">
        <ele>486</ele>
        <time>2021-10-31T09:07:44.660Z</time>
      </trkpt>
      <trkpt lat="44.0242" lon="2.59333">
        <ele>486</ele>
        <time>2021-10-31T09:07:45.660Z</time>
      </trkpt>
      <trkpt lat="44.0242" lon="2.59332">
        <ele>486</ele>
        <time>2021-10-31T09:07:46.660Z</time>
      </trkpt>
      <trkpt lat="44.02421" lon="2.59331">
        <ele>486</ele>
        <time>2021-10-31T09:07:47.660Z</time>
      </trkpt>
      <trkpt lat="44.02421" lon="2.5933">
        <ele>486</ele>
        <time>2021-10-31T09:07:48.660Z</time>
      </trkpt>
      <trkpt lat="44.02422" lon="2.59329">
        <ele>486</ele>
        <time>2021-10-31T09:07:49.660Z</time>
      </trkpt>
      <trkpt lat="44.02423" lon="2.59328">
        <ele>486</ele>
        <time>2021-10-31T09:07:50.660Z</time>
      </trkpt>
      <trkpt lat="44.02423" lon="2.59326">
        <ele>486</ele>
        <time>2021-10-31T09:07:51.660Z</time>
      </trkpt>
      <trkpt lat="44.02424" lon="2.59325">
        <ele>486</ele>
        <time>2021-10-31T09:07:52.660Z</time>
      </trkpt>
      <trkpt lat="44.02425" lon="2.59324">
        <ele>486</ele>
        <time>2021-10-31T09:07:53.660Z</time>
      </trkpt>
      <trkpt lat="44.02425" lon="2.59323">
        <ele>486</ele>
        <time>2021-10-31T09:07:54.660Z</time>
      </trkpt>
      <trkpt lat="44.02426" lon="2.59322">
        <ele>486</ele>
        <time>2021-10-31T09:07:55.660Z</time>
      </trkpt>
      <trkpt lat="44.02426" lon="2.59321">
        <ele>486</ele>
        <time>2021-10-31T09:07:56.660Z</time>
      </trkpt>
      <trkpt lat="44.02427" lon="2.59319">
        <ele>487</ele>
        <time>2021-10-31T09:07:57.660Z</time>
      </trkpt>
      <trkpt lat="44.02427" lon="2.59319">
        <ele>487</ele>
        <time>2021-10-31T09:07:58.660Z</time>
      </trkpt>
      <trkpt lat="44.02428" lon="2.59317">
        <ele>487</ele>
        <time>2021-10-31T09:07:59.660Z</time>
      </trkpt>
      <trkpt lat="44.02428" lon="2.59316">
        <ele>487</ele>
        <time>2021-10-31T09:08:00.660Z</time>
      </trkpt>
      <trkpt lat="44.02429" lon="2.59315">
        <ele>487</ele>
        <time>2021-10-31T09:08:01.660Z</time>
      </trkpt>
      <trkpt lat="44.0243" lon="2.59314">
        <ele>488</ele>
        <time>2021-10-31T09:08:02.660Z</time>
      </trkpt>
      <trkpt lat="44.0243" lon="2.59313">
        <ele>488</ele>
        <time>2021-10-31T09:08:03.660Z</time>
      </trkpt>
      <trkpt lat="44.02431" lon="2.59312">
        <ele>488</ele>
        <time>2021-10-31T09:08:04.660Z</time>
      </trkpt>
      <trkpt lat="44.02432" lon="2.5931">
        <ele>488</ele>
        <time>2021-10-31T09:08:05.660Z</time>
      </trkpt>
      <trkpt lat="44.02432" lon="2.5931">
        <ele>489</ele>
        <time>2021-10-31T09:08:06.660Z</time>
      </trkpt>
      <trkpt lat="44.02433" lon="2.59308">
        <ele>489</ele>
        <time>2021-10-31T09:08:07.660Z</time>
      </trkpt>
      <trkpt lat="44.02434" lon="2.59307">
        <ele>489</ele>
        <time>2021-10-31T09:08:08.660Z</time>
      </trkpt>
      <trkpt lat="44.02434" lon="2.59306">
        <ele>489</ele>
        <time>2021-10-31T09:08:09.660Z</time>
      </trkpt>
      <trkpt lat="44.02435" lon="2.59304">
        <ele>490</ele>
        <time>2021-10-31T09:08:10.660Z</time>
      </trkpt>
      <trkpt lat="44.02436" lon="2.59303">
        <ele>490</ele>
        <time>2021-10-31T09:08:11.660Z</time>
      </trkpt>
      <trkpt lat="44.02436" lon="2.59302">
        <ele>490</ele>
        <time>2021-10-31T09:08:12.660Z</time>
      </trkpt>
      <trkpt lat="44.02437" lon="2.59301">
        <ele>491</ele>
        <time>2021-10-31T09:08:13.660Z</time>
      </trkpt>
      <trkpt lat="44.02438" lon="2.59299">
        <ele>491</ele>
        <time>2021-10-31T09:08:14.660Z</time>
      </trkpt>
      <trkpt lat="44.02438" lon="2.59298">
        <ele>491</ele>
        <time>2021-10-31T09:08:15.660Z</time>
      </trkpt>
      <trkpt lat="44.02439" lon="2.59296">
        <ele>491</ele>
        <time>2021-10-31T09:08:16.660Z</time>
      </trkpt>
      <trkpt lat="44.02439" lon="2.59294">
        <ele>491</ele>
        <time>2021-10-31T09:08:17.660Z</time>
      </trkpt>
      <trkpt lat="44.02439" lon="2.59293">
        <ele>492</ele>
        <time>2021-10-31T09:08:18.660Z</time>
      </trkpt>
      <trkpt lat="44.0244" lon="2.59291">
        <ele>492</ele>
        <time>2021-10-31T09:08:19.660Z</time>
      </trkpt>
      <trkpt lat="44.0244" lon="2.59289">
        <ele>492</ele>
        <time>2021-10-31T09:08:20.660Z</time>
      </trkpt>
      <trkpt lat="44.02441" lon="2.59288">
        <ele>492</ele>
        <time>2021-10-31T09:08:21.660Z</time>
      </trkpt>
      <trkpt lat="44.02441" lon="2.59287">
        <ele>492</ele>
        <time>2021-10-31T09:08:22.660Z</time>
      </trkpt>
      <trkpt lat="44.02442" lon="2.59286">
        <ele>493</ele>
        <time>2021-10-31T09:08:23.660Z</time>
      </trkpt>
      <trkpt lat="44.02443" lon="2.59285">
        <ele>493</ele>
        <time>2021-10-31T09:08:24.660Z</time>
      </trkpt>
      <trkpt lat="44.02443" lon="2.59284">
        <ele>493</ele>
        <time>2021-10-31T09:08:25.660Z</time>
      </trkpt>
      <trkpt lat="44.02444" lon="2.59283">
        <ele>493</ele>
        <time>2021-10-31T09:08:26.660Z</time>
      </trkpt>
      <trkpt lat="44.02444" lon="2.59281">
        <ele>493</ele>
        <time>2021-10-31T09:08:27.660Z</time>
      </trkpt>
      <trkpt lat="44.02444" lon="2.5928">
        <ele>493</ele>
        <time>2021-10-31T09:08:28.660Z</time>
      </trkpt>
      <trkpt lat="44.02445" lon="2.59278">
        <ele>494</ele>
        <time>2021-10-31T09:08:29.660Z</time>
      </trkpt>
      <trkpt lat="44.02445" lon="2.59277">
        <ele>494</ele>
        <time>2021-10-31T09:08:30.660Z</time>
      </trkpt>
      <trkpt lat="44.02445" lon="2.59276">
        <ele>494</ele>
        <time>2021-10-31T09:08:31.660Z</time>
      </trkpt>
      <trkpt lat="44.02444" lon="2.59274">
        <ele>494</ele>
        <time>2021-10-31T09:08:32.660Z</time>
      </trkpt>
      <trkpt lat="44.02444" lon="2.59273">
        <ele>494</ele>
        <time>2021-10-31T09:08:33.660Z</time>
      </trkpt>
      <trkpt lat="44.02444" lon="2.59272">
        <ele>494</ele>
        <time>2021-10-31T09:08:34.660Z</time>
      </trkpt>
      <trkpt lat="44.02444" lon="2.59272">
        <ele>494</ele>
        <time>2021-10-31T09:08:35.660Z</time>
      </trkpt>
      <trkpt lat="44.02443" lon="2.59272">
        <ele>494</ele>
        <time>2021-10-31T09:08:36.660Z</time>
      </trkpt>
      <trkpt lat="44.02443" lon="2.59271">
        <ele>494</ele>
        <time>2021-10-31T09:08:37.660Z</time>
      </trkpt>
      <trkpt lat="44.02443" lon="2.59271">
        <ele>494</ele>
        <time>2021-10-31T09:08:38.660Z</time>
      </trkpt>
      <trkpt lat="44.02443" lon="2.5927">
        <ele>495</ele>
        <time>2021-10-31T09:08:39.660Z</time>
      </trkpt>
      <trkpt lat="44.02443" lon="2.5927">
        <ele>495</ele>
        <time>2021-10-31T09:08:40.660Z</time>
      </trkpt>
      <trkpt lat="44.02442" lon="2.59269">
        <ele>495</ele>
        <time>2021-10-31T09:08:41.660Z</time>
      </trkpt>
      <trkpt lat="44.02441" lon="2.59269">
        <ele>495</ele>
        <time>2021-10-31T09:08:42.660Z</time>
      </trkpt>
      <trkpt lat="44.0244" lon="2.59269">
        <ele>495</ele>
        <time>2021-10-31T09:08:43.660Z</time>
      </trkpt>
      <trkpt lat="44.02439" lon="2.59269">
        <ele>495</ele>
        <time>2021-10-31T09:08:44.660Z</time>
      </trkpt>
      <trkpt lat="44.02438" lon="2.59269">
        <ele>496</ele>
        <time>2021-10-31T09:08:45.660Z</time>
      </trkpt>
      <trkpt lat="44.02437" lon="2.59269">
        <ele>496</ele>
        <time>2021-10-31T09:08:46.660Z</time>
      </trkpt>
      <trkpt lat="44.02437" lon="2.59268">
        <ele>496</ele>
        <time>2021-10-31T09:08:47.660Z</time>
      </trkpt>
      <trkpt lat="44.02436" lon="2.59268">
        <ele>496</ele>
        <time>2021-10-31T09:08:48.660Z</time>
      </trkpt>
      <trkpt lat="44.02435" lon="2.59268">
        <ele>497</ele>
        <time>2021-10-31T09:08:49.660Z</time>
      </trkpt>
      <trkpt lat="44.02434" lon="2.59267">
        <ele>497</ele>
        <time>2021-10-31T09:08:50.660Z</time>
      </trkpt>
      <trkpt lat="44.02433" lon="2.59267">
        <ele>497</ele>
        <time>2021-10-31T09:08:51.660Z</time>
      </trkpt>
      <trkpt lat="44.02432" lon="2.59267">
        <ele>497</ele>
        <time>2021-10-31T09:08:52.660Z</time>
      </trkpt>
      <trkpt lat="44.02432" lon="2.59267">
        <ele>497</ele>
        <time>2021-10-31T09:08:53.660Z</time>
      </trkpt>
      <trkpt lat="44.02431" lon="2.59266">
        <ele>498</ele>
        <time>2021-10-31T09:08:54.660Z</time>
      </trkpt>
      <trkpt lat="44.02431" lon="2.59266">
        <ele>498</ele>
        <time>2021-10-31T09:08:55.660Z</time>
      </trkpt>
      <trkpt lat="44.0243" lon="2.59265">
        <ele>498</ele>
        <time>2021-10-31T09:08:56.660Z</time>
      </trkpt>
      <trkpt lat="44.0243" lon="2.59265">
        <ele>498</ele>
        <time>2021-10-31T09:08:57.660Z</time>
      </trkpt>
      <trkpt lat="44.02429" lon="2.59265">
        <ele>499</ele>
        <time>2021-10-31T09:08:58.660Z</time>
      </trkpt>
      <trkpt lat="44.02428" lon="2.59264">
        <ele>499</ele>
        <time>2021-10-31T09:08:59.660Z</time>
      </trkpt>
      <trkpt lat="44.02428" lon="2.59264">
        <ele>499</ele>
        <time>2021-10-31T09:09:00.660Z</time>
      </trkpt>
      <trkpt lat="44.02427" lon="2.59264">
        <ele>499</ele>
        <time>2021-10-31T09:09:01.660Z</time>
      </trkpt>
      <trkpt lat="44.02426" lon="2.59264">
        <ele>499</ele>
        <time>2021-10-31T09:09:02.660Z</time>
      </trkpt>
      <trkpt lat="44.02425" lon="2.59263">
        <ele>500</ele>
        <time>2021-10-31T09:09:03.660Z</time>
      </trkpt>
      <trkpt lat="44.02425" lon="2.59264">
        <ele>500</ele>
        <time>2021-10-31T09:09:04.660Z</time>
      </trkpt>
      <trkpt lat="44.02424" lon="2.59264">
        <ele>500</ele>
        <time>2021-10-31T09:09:05.660Z</time>
      </trkpt>
      <trkpt lat="44.02423" lon="2.59264">
        <ele>500</ele>
        <time>2021-10-31T09:09:06.660Z</time>
      </trkpt>
      <trkpt lat="44.02422" lon="2.59264">
        <ele>500</ele>
        <time>2021-10-31T09:09:07.660Z</time>
      </trkpt>
      <trkpt lat="44.02421" lon="2.59264">
        <ele>501</ele>
        <time>2021-10-31T09:09:08.660Z</time>
      </trkpt>
      <trkpt lat="44.0242" lon="2.59264">
        <ele>501</ele>
        <time>2021-10-31T09:09:09.660Z</time>
      </trkpt>
      <trkpt lat="44.02419" lon="2.59264">
        <ele>501</ele>
        <time>2021-10-31T09:09:10.660Z</time>
      </trkpt>
      <trkpt lat="44.02418" lon="2.59263">
        <ele>501</ele>
        <time>2021-10-31T09:09:11.660Z</time>
      </trkpt>
      <trkpt lat="44.02417" lon="2.59263">
        <ele>501</ele>
        <time>2021-10-31T09:09:12.660Z</time>
      </trkpt>
      <trkpt lat="44.02416" lon="2.59262">
        <ele>502</ele>
        <time>2021-10-31T09:09:13.660Z</time>
      </trkpt>
      <trkpt lat="44.02415" lon="2.59262">
        <ele>502</ele>
        <time>2021-10-31T09:09:14.660Z</time>
      </trkpt>
      <trkpt lat="44.02414" lon="2.59262">
        <ele>502</ele>
        <time>2021-10-31T09:09:15.660Z</time>
      </trkpt>
      <trkpt lat="44.02414" lon="2.59262">
        <ele>502</ele>
        <time>2021-10-31T09:09:16.660Z</time>
      </trkpt>
      <trkpt lat="44.02413" lon="2.59262">
        <ele>502</ele>
        <time>2021-10-31T09:09:17.660Z</time>
      </trkpt>
      <trkpt lat="44.02412" lon="2.59261">
        <ele>503</ele>
        <time>2021-10-31T09:09:18.660Z</time>
      </trkpt>
      <trkpt lat="44.02412" lon="2.59261">
        <ele>503</ele>
        <time>2021-10-31T09:09:19.660Z</time>
      </trkpt>
      <trkpt lat="44.02411" lon="2.59261">
        <ele>503</ele>
        <time>2021-10-31T09:09:20.660Z</time>
      </trkpt>
      <trkpt lat="44.0241" lon="2.59261">
        <ele>503</ele>
        <time>2021-10-31T09:09:21.660Z</time>
      </trkpt>
      <trkpt lat="44.02409" lon="2.59261">
        <ele>503</ele>
        <time>2021-10-31T09:09:22.660Z</time>
      </trkpt>
      <trkpt lat="44.02409" lon="2.5926">
        <ele>503</ele>
        <time>2021-10-31T09:09:23.660Z</time>
      </trkpt>
      <trkpt lat="44.02408" lon="2.5926">
        <ele>503</ele>
        <time>2021-10-31T09:09:24.660Z</time>
      </trkpt>
      <trkpt lat="44.02407" lon="2.5926">
        <ele>504</ele>
        <time>2021-10-31T09:09:25.660Z</time>
      </trkpt>
      <trkpt lat="44.02407" lon="2.5926">
        <ele>504</ele>
        <time>2021-10-31T09:09:26.660Z</time>
      </trkpt>
      <trkpt lat="44.02402" lon="2.5926">
        <ele>505</ele>
        <time>2021-10-31T09:09:27.660Z</time>
      </trkpt>
      <trkpt lat="44.02401" lon="2.59259">
        <ele>505</ele>
        <time>2021-10-31T09:09:28.660Z</time>
      </trkpt>
      <trkpt lat="44.02401" lon="2.59259">
        <ele>505</ele>
        <time>2021-10-31T09:09:29.660Z</time>
      </trkpt>
      <trkpt lat="44.02399" lon="2.59259">
        <ele>505</ele>
        <time>2021-10-31T09:09:30.660Z</time>
      </trkpt>
      <trkpt lat="44.02398" lon="2.59258">
        <ele>505</ele>
        <time>2021-10-31T09:09:31.660Z</time>
      </trkpt>
      <trkpt lat="44.02397" lon="2.59258">
        <ele>505</ele>
        <time>2021-10-31T09:09:32.660Z</time>
      </trkpt>
      <trkpt lat="44.02396" lon="2.59257">
        <ele>505</ele>
        <time>2021-10-31T09:09:33.660Z</time>
      </trkpt>
      <trkpt lat="44.02395" lon="2.59256">
        <ele>505</ele>
        <time>2021-10-31T09:09:34.660Z</time>
      </trkpt>
      <trkpt lat="44.02395" lon="2.59256">
        <ele>505</ele>
        <time>2021-10-31T09:09:35.660Z</time>
      </trkpt>
      <trkpt lat="44.02394" lon="2.59256">
        <ele>505</ele>
        <time>2021-10-31T09:09:36.660Z</time>
      </trkpt>
      <trkpt lat="44.02393" lon="2.59256">
        <ele>505</ele>
        <time>2021-10-31T09:09:37.660Z</time>
      </trkpt>
      <trkpt lat="44.02392" lon="2.59256">
        <ele>505</ele>
        <time>2021-10-31T09:09:38.660Z</time>
      </trkpt>
      <trkpt lat="44.0239" lon="2.59254">
        <ele>505</ele>
        <time>2021-10-31T09:09:39.660Z</time>
      </trkpt>
      <trkpt lat="44.02389" lon="2.59253">
        <ele>505</ele>
        <time>2021-10-31T09:09:40.660Z</time>
      </trkpt>
      <trkpt lat="44.02389" lon="2.59252">
        <ele>505</ele>
        <time>2021-10-31T09:09:41.660Z</time>
      </trkpt>
      <trkpt lat="44.02388" lon="2.59251">
        <ele>505</ele>
        <time>2021-10-31T09:09:42.660Z</time>
      </trkpt>
      <trkpt lat="44.02388" lon="2.5925">
        <ele>505</ele>
        <time>2021-10-31T09:09:43.660Z</time>
      </trkpt>
      <trkpt lat="44.02387" lon="2.5925">
        <ele>505</ele>
        <time>2021-10-31T09:09:44.660Z</time>
      </trkpt>
      <trkpt lat="44.02387" lon="2.59249">
        <ele>505</ele>
        <time>2021-10-31T09:09:45.660Z</time>
      </trkpt>
      <trkpt lat="44.02386" lon="2.59249">
        <ele>505</ele>
        <time>2021-10-31T09:09:46.660Z</time>
      </trkpt>
      <trkpt lat="44.02385" lon="2.59248">
        <ele>505</ele>
        <time>2021-10-31T09:09:47.660Z</time>
      </trkpt>
      <trkpt lat="44.02385" lon="2.59248">
        <ele>505</ele>
        <time>2021-10-31T09:09:48.660Z</time>
      </trkpt>
      <trkpt lat="44.02384" lon="2.59247">
        <ele>505</ele>
        <time>2021-10-31T09:09:49.660Z</time>
      </trkpt>
      <trkpt lat="44.02383" lon="2.59247">
        <ele>505</ele>
        <time>2021-10-31T09:09:50.660Z</time>
      </trkpt>
      <trkpt lat="44.02382" lon="2.59246">
        <ele>505</ele>
        <time>2021-10-31T09:09:51.660Z</time>
      </trkpt>
      <trkpt lat="44.02381" lon="2.59246">
        <ele>505</ele>
        <time>2021-10-31T09:09:52.660Z</time>
      </trkpt>
      <trkpt lat="44.02381" lon="2.59245">
        <ele>505</ele>
        <time>2021-10-31T09:09:53.660Z</time>
      </trkpt>
      <trkpt lat="44.0238" lon="2.59245">
        <ele>505</ele>
        <time>2021-10-31T09:09:54.660Z</time>
      </trkpt>
      <trkpt lat="44.02379" lon="2.59244">
        <ele>506</ele>
        <time>2021-10-31T09:09:55.660Z</time>
      </trkpt>
      <trkpt lat="44.02379" lon="2.59243">
        <ele>506</ele>
        <time>2021-10-31T09:09:56.660Z</time>
      </trkpt>
      <trkpt lat="44.02378" lon="2.59242">
        <ele>506</ele>
        <time>2021-10-31T09:09:57.660Z</time>
      </trkpt>
      <trkpt lat="44.02377" lon="2.59242">
        <ele>506</ele>
        <time>2021-10-31T09:09:58.660Z</time>
      </trkpt>
      <trkpt lat="44.02377" lon="2.59241">
        <ele>506</ele>
        <time>2021-10-31T09:09:59.660Z</time>
      </trkpt>
      <trkpt lat="44.02377" lon="2.5924">
        <ele>506</ele>
        <time>2021-10-31T09:10:00.660Z</time>
      </trkpt>
      <trkpt lat="44.02376" lon="2.59239">
        <ele>506</ele>
        <time>2021-10-31T09:10:01.660Z</time>
      </trkpt>
      <trkpt lat="44.02375" lon="2.59238">
        <ele>506</ele>
        <time>2021-10-31T09:10:02.660Z</time>
      </trkpt>
      <trkpt lat="44.02375" lon="2.59237">
        <ele>506</ele>
        <time>2021-10-31T09:10:03.660Z</time>
      </trkpt>
      <trkpt lat="44.02374" lon="2.59236">
        <ele>506</ele>
        <time>2021-10-31T09:10:04.660Z</time>
      </trkpt>
      <trkpt lat="44.02374" lon="2.59236">
        <ele>506</ele>
        <time>2021-10-31T09:10:05.660Z</time>
      </trkpt>
      <trkpt lat="44.02373" lon="2.59235">
        <ele>506</ele>
        <time>2021-10-31T09:10:06.660Z</time>
      </trkpt>
      <trkpt lat="44.02373" lon="2.59234">
        <ele>506</ele>
        <time>2021-10-31T09:10:07.660Z</time>
      </trkpt>
      <trkpt lat="44.02372" lon="2.59233">
        <ele>506</ele>
        <time>2021-10-31T09:10:08.660Z</time>
      </trkpt>
      <trkpt lat="44.02372" lon="2.59232">
        <ele>506</ele>
        <time>2021-10-31T09:10:09.660Z</time>
      </trkpt>
      <trkpt lat="44.02371" lon="2.59231">
        <ele>506</ele>
        <time>2021-10-31T09:10:10.660Z</time>
      </trkpt>
      <trkpt lat="44.02371" lon="2.59229">
        <ele>506</ele>
        <time>2021-10-31T09:10:11.660Z</time>
      </trkpt>
      <trkpt lat="44.02371" lon="2.59228">
        <ele>506</ele>
        <time>2021-10-31T09:10:12.660Z</time>
      </trkpt>
      <trkpt lat="44.0237" lon="2.59227">
        <ele>506</ele>
        <time>2021-10-31T09:10:13.660Z</time>
      </trkpt>
      <trkpt lat="44.0237" lon="2.59226">
        <ele>506</ele>
        <time>2021-10-31T09:10:14.660Z</time>
      </trkpt>
      <trkpt lat="44.02369" lon="2.59225">
        <ele>506</ele>
        <time>2021-10-31T09:10:15.660Z</time>
      </trkpt>
      <trkpt lat="44.02369" lon="2.59224">
        <ele>506</ele>
        <time>2021-10-31T09:10:16.660Z</time>
      </trkpt>
      <trkpt lat="44.02369" lon="2.59223">
        <ele>506</ele>
        <time>2021-10-31T09:10:17.660Z</time>
      </trkpt>
      <trkpt lat="44.02368" lon="2.59222">
        <ele>506</ele>
        <time>2021-10-31T09:10:18.660Z</time>
      </trkpt>
      <trkpt lat="44.02368" lon="2.5922">
        <ele>506</ele>
        <time>2021-10-31T09:10:19.660Z</time>
      </trkpt>
      <trkpt lat="44.02367" lon="2.59219">
        <ele>506</ele>
        <time>2021-10-31T09:10:20.660Z</time>
      </trkpt>
      <trkpt lat="44.02367" lon="2.59218">
        <ele>506</ele>
        <time>2021-10-31T09:10:21.660Z</time>
      </trkpt>
      <trkpt lat="44.02366" lon="2.59218">
        <ele>507</ele>
        <time>2021-10-31T09:10:22.660Z</time>
      </trkpt>
      <trkpt lat="44.02365" lon="2.59217">
        <ele>507</ele>
        <time>2021-10-31T09:10:23.660Z</time>
      </trkpt>
      <trkpt lat="44.02365" lon="2.59216">
        <ele>507</ele>
        <time>2021-10-31T09:10:24.660Z</time>
      </trkpt>
      <trkpt lat="44.02365" lon="2.59216">
        <ele>507</ele>
        <time>2021-10-31T09:10:25.660Z</time>
      </trkpt>
      <trkpt lat="44.02364" lon="2.59215">
        <ele>507</ele>
        <time>2021-10-31T09:10:26.660Z</time>
      </trkpt>
      <trkpt lat="44.02364" lon="2.59214">
        <ele>507</ele>
        <time>2021-10-31T09:10:27.660Z</time>
      </trkpt>
      <trkpt lat="44.02364" lon="2.59213">
        <ele>507</ele>
        <time>2021-10-31T09:10:28.660Z</time>
      </trkpt>
      <trkpt lat="44.02363" lon="2.59212">
        <ele>507</ele>
        <time>2021-10-31T09:10:29.660Z</time>
      </trkpt>
      <trkpt lat="44.02363" lon="2.59211">
        <ele>507</ele>
        <time>2021-10-31T09:10:30.660Z</time>
      </trkpt>
      <trkpt lat="44.02363" lon="2.59211">
        <ele>508</ele>
        <time>2021-10-31T09:10:31.660Z</time>
      </trkpt>
      <trkpt lat="44.02362" lon="2.5921">
        <ele>508</ele>
        <time>2021-10-31T09:10:32.660Z</time>
      </trkpt>
      <trkpt lat="44.02362" lon="2.5921">
        <ele>508</ele>
        <time>2021-10-31T09:10:33.660Z</time>
      </trkpt>
      <trkpt lat="44.02361" lon="2.5921">
        <ele>508</ele>
        <time>2021-10-31T09:10:34.660Z</time>
      </trkpt>
      <trkpt lat="44.02359" lon="2.59208">
        <ele>509</ele>
        <time>2021-10-31T09:10:35.660Z</time>
      </trkpt>
      <trkpt lat="44.02359" lon="2.59207">
        <ele>509</ele>
        <time>2021-10-31T09:10:36.660Z</time>
      </trkpt>
      <trkpt lat="44.02358" lon="2.59207">
        <ele>509</ele>
        <time>2021-10-31T09:10:37.660Z</time>
      </trkpt>
      <trkpt lat="44.02358" lon="2.59206">
        <ele>509</ele>
        <time>2021-10-31T09:10:38.660Z</time>
      </trkpt>
      <trkpt lat="44.02357" lon="2.59206">
        <ele>509</ele>
        <time>2021-10-31T09:10:39.660Z</time>
      </trkpt>
      <trkpt lat="44.02356" lon="2.59206">
        <ele>509</ele>
        <time>2021-10-31T09:10:40.660Z</time>
      </trkpt>
      <trkpt lat="44.02356" lon="2.59205">
        <ele>509</ele>
        <time>2021-10-31T09:10:41.660Z</time>
      </trkpt>
      <trkpt lat="44.02355" lon="2.59205">
        <ele>510</ele>
        <time>2021-10-31T09:10:42.660Z</time>
      </trkpt>
      <trkpt lat="44.02355" lon="2.59205">
        <ele>510</ele>
        <time>2021-10-31T09:10:43.660Z</time>
      </trkpt>
      <trkpt lat="44.02354" lon="2.59204">
        <ele>510</ele>
        <time>2021-10-31T09:10:44.660Z</time>
      </trkpt>
      <trkpt lat="44.02352" lon="2.59203">
        <ele>510</ele>
        <time>2021-10-31T09:10:45.660Z</time>
      </trkpt>
      <trkpt lat="44.02352" lon="2.59203">
        <ele>510</ele>
        <time>2021-10-31T09:10:46.660Z</time>
      </trkpt>
      <trkpt lat="44.0235" lon="2.59203">
        <ele>510</ele>
        <time>2021-10-31T09:10:47.660Z</time>
      </trkpt>
      <trkpt lat="44.02349" lon="2.59203">
        <ele>511</ele>
        <time>2021-10-31T09:10:48.660Z</time>
      </trkpt>
      <trkpt lat="44.02348" lon="2.59202">
        <ele>511</ele>
        <time>2021-10-31T09:10:49.660Z</time>
      </trkpt>
      <trkpt lat="44.02348" lon="2.59202">
        <ele>511</ele>
        <time>2021-10-31T09:10:50.660Z</time>
      </trkpt>
      <trkpt lat="44.02347" lon="2.59202">
        <ele>511</ele>
        <time>2021-10-31T09:10:51.660Z</time>
      </trkpt>
      <trkpt lat="44.02346" lon="2.59201">
        <ele>511</ele>
        <time>2021-10-31T09:10:52.660Z</time>
      </trkpt>
      <trkpt lat="44.02346" lon="2.59201">
        <ele>512</ele>
        <time>2021-10-31T09:10:53.660Z</time>
      </trkpt>
      <trkpt lat="44.02345" lon="2.592">
        <ele>512</ele>
        <time>2021-10-31T09:10:54.660Z</time>
      </trkpt>
      <trkpt lat="44.02344" lon="2.592">
        <ele>512</ele>
        <time>2021-10-31T09:10:55.660Z</time>
      </trkpt>
      <trkpt lat="44.02344" lon="2.59199">
        <ele>512</ele>
        <time>2021-10-31T09:10:58.940Z</time>
      </trkpt>
      <trkpt lat="44.02343" lon="2.59199">
        <ele>513</ele>
        <time>2021-10-31T09:10:59.940Z</time>
      </trkpt>
      <trkpt lat="44.02342" lon="2.59199">
        <ele>513</ele>
        <time>2021-10-31T09:11:00.940Z</time>
      </trkpt>
      <trkpt lat="44.02342" lon="2.59198">
        <ele>513</ele>
        <time>2021-10-31T09:11:01.940Z</time>
      </trkpt>
      <trkpt lat="44.02341" lon="2.59198">
        <ele>513</ele>
        <time>2021-10-31T09:11:02.940Z</time>
      </trkpt>
      <trkpt lat="44.0234" lon="2.59198">
        <ele>514</ele>
        <time>2021-10-31T09:11:03.940Z</time>
      </trkpt>
      <trkpt lat="44.0234" lon="2.59198">
        <ele>514</ele>
        <time>2021-10-31T09:11:04.940Z</time>
      </trkpt>
      <trkpt lat="44.02339" lon="2.59197">
        <ele>514</ele>
        <time>2021-10-31T09:11:05.940Z</time>
      </trkpt>
      <trkpt lat="44.02338" lon="2.59197">
        <ele>514</ele>
        <time>2021-10-31T09:11:06.940Z</time>
      </trkpt>
      <trkpt lat="44.02338" lon="2.59196">
        <ele>514</ele>
        <time>2021-10-31T09:11:07.940Z</time>
      </trkpt>
      <trkpt lat="44.02337" lon="2.59196">
        <ele>515</ele>
        <time>2021-10-31T09:11:08.940Z</time>
      </trkpt>
      <trkpt lat="44.02336" lon="2.59196">
        <ele>515</ele>
        <time>2021-10-31T09:11:09.940Z</time>
      </trkpt>
      <trkpt lat="44.02336" lon="2.59196">
        <ele>515</ele>
        <time>2021-10-31T09:11:10.940Z</time>
      </trkpt>
      <trkpt lat="44.02335" lon="2.59197">
        <ele>515</ele>
        <time>2021-10-31T09:11:11.940Z</time>
      </trkpt>
      <trkpt lat="44.02335" lon="2.59197">
        <ele>515</ele>
        <time>2021-10-31T09:11:12.940Z</time>
      </trkpt>
      <trkpt lat="44.02334" lon="2.59196">
        <ele>515</ele>
        <time>2021-10-31T09:11:13.940Z</time>
      </trkpt>
      <trkpt lat="44.02334" lon="2.59196">
        <ele>515</ele>
        <time>2021-10-31T09:11:14.940Z</time>
      </trkpt>
      <trkpt lat="44.02333" lon="2.59195">
        <ele>516</ele>
        <time>2021-10-31T09:11:15.940Z</time>
      </trkpt>
      <trkpt lat="44.02333" lon="2.59195">
        <ele>516</ele>
        <time>2021-10-31T09:11:16.940Z</time>
      </trkpt>
      <trkpt lat="44.02332" lon="2.59195">
        <ele>516</ele>
        <time>2021-10-31T09:11:17.940Z</time>
      </trkpt>
      <trkpt lat="44.02332" lon="2.59195">
        <ele>516</ele>
        <time>2021-10-31T09:11:18.940Z</time>
      </trkpt>
      <trkpt lat="44.0233" lon="2.59192">
        <ele>516</ele>
        <time>2021-10-31T09:11:19.940Z</time>
      </trkpt>
      <trkpt lat="44.0233" lon="2.59191">
        <ele>517</ele>
        <time>2021-10-31T09:11:20.940Z</time>
      </trkpt>
      <trkpt lat="44.02329" lon="2.5919">
        <ele>517</ele>
        <time>2021-10-31T09:11:21.940Z</time>
      </trkpt>
      <trkpt lat="44.02328" lon="2.5919">
        <ele>517</ele>
        <time>2021-10-31T09:11:22.940Z</time>
      </trkpt>
      <trkpt lat="44.02328" lon="2.59189">
        <ele>517</ele>
        <time>2021-10-31T09:11:23.940Z</time>
      </trkpt>
      <trkpt lat="44.02327" lon="2.59188">
        <ele>517</ele>
        <time>2021-10-31T09:11:24.940Z</time>
      </trkpt>
      <trkpt lat="44.02326" lon="2.59187">
        <ele>517</ele>
        <time>2021-10-31T09:11:25.940Z</time>
      </trkpt>
      <trkpt lat="44.02326" lon="2.59187">
        <ele>517</ele>
        <time>2021-10-31T09:11:26.940Z</time>
      </trkpt>
      <trkpt lat="44.02325" lon="2.59186">
        <ele>517</ele>
        <time>2021-10-31T09:11:27.940Z</time>
      </trkpt>
      <trkpt lat="44.02324" lon="2.59186">
        <ele>517</ele>
        <time>2021-10-31T09:11:28.940Z</time>
      </trkpt>
      <trkpt lat="44.02324" lon="2.59185">
        <ele>517</ele>
        <time>2021-10-31T09:11:29.940Z</time>
      </trkpt>
      <trkpt lat="44.02323" lon="2.59185">
        <ele>518</ele>
        <time>2021-10-31T09:11:30.940Z</time>
      </trkpt>
      <trkpt lat="44.02323" lon="2.59184">
        <ele>518</ele>
        <time>2021-10-31T09:11:31.940Z</time>
      </trkpt>
      <trkpt lat="44.02322" lon="2.59184">
        <ele>518</ele>
        <time>2021-10-31T09:11:32.940Z</time>
      </trkpt>
      <trkpt lat="44.02321" lon="2.59183">
        <ele>518</ele>
        <time>2021-10-31T09:11:33.940Z</time>
      </trkpt>
      <trkpt lat="44.0232" lon="2.59183">
        <ele>518</ele>
        <time>2021-10-31T09:11:34.940Z</time>
      </trkpt>
      <trkpt lat="44.0232" lon="2.59182">
        <ele>518</ele>
        <time>2021-10-31T09:11:35.940Z</time>
      </trkpt>
      <trkpt lat="44.02319" lon="2.59181">
        <ele>518</ele>
        <time>2021-10-31T09:11:36.940Z</time>
      </trkpt>
      <trkpt lat="44.02318" lon="2.5918">
        <ele>518</ele>
        <time>2021-10-31T09:11:37.940Z</time>
      </trkpt>
      <trkpt lat="44.02318" lon="2.59179">
        <ele>518</ele>
        <time>2021-10-31T09:11:38.940Z</time>
      </trkpt>
      <trkpt lat="44.02317" lon="2.59177">
        <ele>518</ele>
        <time>2021-10-31T09:11:39.940Z</time>
      </trkpt>
      <trkpt lat="44.02317" lon="2.59176">
        <ele>518</ele>
        <time>2021-10-31T09:11:40.940Z</time>
      </trkpt>
      <trkpt lat="44.02317" lon="2.59175">
        <ele>518</ele>
        <time>2021-10-31T09:11:41.940Z</time>
      </trkpt>
      <trkpt lat="44.02317" lon="2.59174">
        <ele>518</ele>
        <time>2021-10-31T09:11:42.940Z</time>
      </trkpt>
      <trkpt lat="44.02316" lon="2.59173">
        <ele>518</ele>
        <time>2021-10-31T09:11:43.940Z</time>
      </trkpt>
      <trkpt lat="44.02316" lon="2.59172">
        <ele>518</ele>
        <time>2021-10-31T09:11:44.940Z</time>
      </trkpt>
      <trkpt lat="44.02316" lon="2.59172">
        <ele>518</ele>
        <time>2021-10-31T09:11:45.940Z</time>
      </trkpt>
      <trkpt lat="44.02316" lon="2.59171">
        <ele>518</ele>
        <time>2021-10-31T09:11:46.940Z</time>
      </trkpt>
      <trkpt lat="44.02315" lon="2.5917">
        <ele>518</ele>
        <time>2021-10-31T09:11:47.940Z</time>
      </trkpt>
      <trkpt lat="44.02315" lon="2.59168">
        <ele>517</ele>
        <time>2021-10-31T09:11:48.940Z</time>
      </trkpt>
      <trkpt lat="44.02315" lon="2.59167">
        <ele>517</ele>
        <time>2021-10-31T09:11:49.940Z</time>
      </trkpt>
      <trkpt lat="44.02315" lon="2.59165">
        <ele>517</ele>
        <time>2021-10-31T09:11:50.940Z</time>
      </trkpt>
      <trkpt lat="44.02315" lon="2.59164">
        <ele>517</ele>
        <time>2021-10-31T09:11:51.940Z</time>
      </trkpt>
      <trkpt lat="44.02315" lon="2.59162">
        <ele>517</ele>
        <time>2021-10-31T09:11:52.940Z</time>
      </trkpt>
      <trkpt lat="44.02315" lon="2.59161">
        <ele>516</ele>
        <time>2021-10-31T09:11:53.940Z</time>
      </trkpt>
      <trkpt lat="44.02315" lon="2.59159">
        <ele>516</ele>
        <time>2021-10-31T09:11:54.940Z</time>
      </trkpt>
      <trkpt lat="44.02315" lon="2.59158">
        <ele>516</ele>
        <time>2021-10-31T09:11:55.940Z</time>
      </trkpt>
      <trkpt lat="44.02315" lon="2.59157">
        <ele>516</ele>
        <time>2021-10-31T09:11:56.940Z</time>
      </trkpt>
      <trkpt lat="44.02315" lon="2.59155">
        <ele>516</ele>
        <time>2021-10-31T09:11:57.940Z</time>
      </trkpt>
      <trkpt lat="44.02315" lon="2.59154">
        <ele>516</ele>
        <time>2021-10-31T09:11:58.940Z</time>
      </trkpt>
      <trkpt lat="44.02315" lon="2.59153">
        <ele>516</ele>
        <time>2021-10-31T09:11:59.940Z</time>
      </trkpt>
      <trkpt lat="44.02315" lon="2.59152">
        <ele>515</ele>
        <time>2021-10-31T09:12:00.940Z</time>
      </trkpt>
      <trkpt lat="44.02315" lon="2.5915">
        <ele>515</ele>
        <time>2021-10-31T09:12:01.940Z</time>
      </trkpt>
      <trkpt lat="44.02315" lon="2.59149">
        <ele>515</ele>
        <time>2021-10-31T09:12:02.940Z</time>
      </trkpt>
      <trkpt lat="44.02315" lon="2.59148">
        <ele>515</ele>
        <time>2021-10-31T09:12:03.940Z</time>
      </trkpt>
      <trkpt lat="44.02315" lon="2.59146">
        <ele>515</ele>
        <time>2021-10-31T09:12:04.940Z</time>
      </trkpt>
      <trkpt lat="44.02315" lon="2.59145">
        <ele>515</ele>
        <time>2021-10-31T09:12:05.940Z</time>
      </trkpt>
      <trkpt lat="44.02314" lon="2.59143">
        <ele>515</ele>
        <time>2021-10-31T09:12:06.940Z</time>
      </trkpt>
      <trkpt lat="44.02314" lon="2.59142">
        <ele>515</ele>
        <time>2021-10-31T09:12:07.940Z</time>
      </trkpt>
      <trkpt lat="44.02314" lon="2.5914">
        <ele>515</ele>
        <time>2021-10-31T09:12:08.940Z</time>
      </trkpt>
      <trkpt lat="44.02314" lon="2.59139">
        <ele>515</ele>
        <time>2021-10-31T09:12:09.940Z</time>
      </trkpt>
      <trkpt lat="44.02314" lon="2.59137">
        <ele>515</ele>
        <time>2021-10-31T09:12:10.940Z</time>
      </trkpt>
      <trkpt lat="44.02314" lon="2.59136">
        <ele>515</ele>
        <time>2021-10-31T09:12:11.940Z</time>
      </trkpt>
      <trkpt lat="44.02314" lon="2.59134">
        <ele>515</ele>
        <time>2021-10-31T09:12:12.940Z</time>
      </trkpt>
      <trkpt lat="44.02314" lon="2.59133">
        <ele>515</ele>
        <time>2021-10-31T09:12:13.940Z</time>
      </trkpt>
      <trkpt lat="44.02314" lon="2.59132">
        <ele>515</ele>
        <time>2021-10-31T09:12:14.940Z</time>
      </trkpt>
      <trkpt lat="44.02314" lon="2.5913">
        <ele>515</ele>
        <time>2021-10-31T09:12:15.940Z</time>
      </trkpt>
      <trkpt lat="44.02314" lon="2.59129">
        <ele>515</ele>
        <time>2021-10-31T09:12:16.940Z</time>
      </trkpt>
      <trkpt lat="44.02314" lon="2.59128">
        <ele>514</ele>
        <time>2021-10-31T09:12:17.940Z</time>
      </trkpt>
      <trkpt lat="44.02314" lon="2.59126">
        <ele>515</ele>
        <time>2021-10-31T09:12:18.940Z</time>
      </trkpt>
      <trkpt lat="44.02314" lon="2.59125">
        <ele>515</ele>
        <time>2021-10-31T09:12:19.940Z</time>
      </trkpt>
      <trkpt lat="44.02314" lon="2.59124">
        <ele>514</ele>
        <time>2021-10-31T09:12:20.940Z</time>
      </trkpt>
      <trkpt lat="44.02313" lon="2.59122">
        <ele>514</ele>
        <time>2021-10-31T09:12:21.940Z</time>
      </trkpt>
      <trkpt lat="44.02314" lon="2.59121">
        <ele>514</ele>
        <time>2021-10-31T09:12:22.940Z</time>
      </trkpt>
      <trkpt lat="44.02313" lon="2.59119">
        <ele>514</ele>
        <time>2021-10-31T09:12:23.940Z</time>
      </trkpt>
      <trkpt lat="44.02313" lon="2.59118">
        <ele>514</ele>
        <time>2021-10-31T09:12:24.940Z</time>
      </trkpt>
      <trkpt lat="44.02314" lon="2.59117">
        <ele>514</ele>
        <time>2021-10-31T09:12:25.940Z</time>
      </trkpt>
      <trkpt lat="44.02314" lon="2.59115">
        <ele>514</ele>
        <time>2021-10-31T09:12:26.940Z</time>
      </trkpt>
      <trkpt lat="44.02314" lon="2.59114">
        <ele>514</ele>
        <time>2021-10-31T09:12:27.940Z</time>
      </trkpt>
      <trkpt lat="44.02314" lon="2.59112">
        <ele>514</ele>
        <time>2021-10-31T09:12:28.940Z</time>
      </trkpt>
      <trkpt lat="44.02314" lon="2.59111">
        <ele>514</ele>
        <time>2021-10-31T09:12:29.940Z</time>
      </trkpt>
      <trkpt lat="44.02314" lon="2.5911">
        <ele>514</ele>
        <time>2021-10-31T09:12:30.940Z</time>
      </trkpt>
      <trkpt lat="44.02314" lon="2.59108">
        <ele>514</ele>
        <time>2021-10-31T09:12:31.940Z</time>
      </trkpt>
      <trkpt lat="44.02314" lon="2.59107">
        <ele>514</ele>
        <time>2021-10-31T09:12:32.940Z</time>
      </trkpt>
      <trkpt lat="44.02314" lon="2.59105">
        <ele>514</ele>
        <time>2021-10-31T09:12:33.940Z</time>
      </trkpt>
      <trkpt lat="44.02314" lon="2.59104">
        <ele>514</ele>
        <time>2021-10-31T09:12:34.940Z</time>
      </trkpt>
      <trkpt lat="44.02314" lon="2.59103">
        <ele>514</ele>
        <time>2021-10-31T09:12:35.940Z</time>
      </trkpt>
      <trkpt lat="44.02314" lon="2.59101">
        <ele>514</ele>
        <time>2021-10-31T09:12:36.940Z</time>
      </trkpt>
      <trkpt lat="44.02314" lon="2.591">
        <ele>514</ele>
        <time>2021-10-31T09:12:37.940Z</time>
      </trkpt>
      <trkpt lat="44.02314" lon="2.59098">
        <ele>514</ele>
        <time>2021-10-31T09:12:38.940Z</time>
      </trkpt>
      <trkpt lat="44.02314" lon="2.59097">
        <ele>514</ele>
        <time>2021-10-31T09:12:39.940Z</time>
      </trkpt>
      <trkpt lat="44.02314" lon="2.59095">
        <ele>514</ele>
        <time>2021-10-31T09:12:40.940Z</time>
      </trkpt>
      <trkpt lat="44.02314" lon="2.59094">
        <ele>514</ele>
        <time>2021-10-31T09:12:41.940Z</time>
      </trkpt>
      <trkpt lat="44.02314" lon="2.59093">
        <ele>514</ele>
        <time>2021-10-31T09:12:42.940Z</time>
      </trkpt>
      <trkpt lat="44.02314" lon="2.59092">
        <ele>514</ele>
        <time>2021-10-31T09:12:43.940Z</time>
      </trkpt>
      <trkpt lat="44.02314" lon="2.59091">
        <ele>514</ele>
        <time>2021-10-31T09:12:44.940Z</time>
      </trkpt>
      <trkpt lat="44.02314" lon="2.5909">
        <ele>514</ele>
        <time>2021-10-31T09:12:45.940Z</time>
      </trkpt>
      <trkpt lat="44.02314" lon="2.59089">
        <ele>514</ele>
        <time>2021-10-31T09:12:46.940Z</time>
      </trkpt>
      <trkpt lat="44.02314" lon="2.59087">
        <ele>514</ele>
        <time>2021-10-31T09:12:47.940Z</time>
      </trkpt>
      <trkpt lat="44.02314" lon="2.59086">
        <ele>514</ele>
        <time>2021-10-31T09:12:48.940Z</time>
      </trkpt>
      <trkpt lat="44.02314" lon="2.59084">
        <ele>514</ele>
        <time>2021-10-31T09:12:49.940Z</time>
      </trkpt>
      <trkpt lat="44.02315" lon="2.59083">
        <ele>514</ele>
        <time>2021-10-31T09:12:50.940Z</time>
      </trkpt>
      <trkpt lat="44.02315" lon="2.59081">
        <ele>514</ele>
        <time>2021-10-31T09:12:51.940Z</time>
      </trkpt>
      <trkpt lat="44.02315" lon="2.59079">
        <ele>514</ele>
        <time>2021-10-31T09:12:52.940Z</time>
      </trkpt>
      <trkpt lat="44.02315" lon="2.59078">
        <ele>514</ele>
        <time>2021-10-31T09:12:53.940Z</time>
      </trkpt>
      <trkpt lat="44.02315" lon="2.59077">
        <ele>514</ele>
        <time>2021-10-31T09:12:54.940Z</time>
      </trkpt>
      <trkpt lat="44.02316" lon="2.59075">
        <ele>514</ele>
        <time>2021-10-31T09:12:55.940Z</time>
      </trkpt>
      <trkpt lat="44.02316" lon="2.59074">
        <ele>514</ele>
        <time>2021-10-31T09:12:56.940Z</time>
      </trkpt>
      <trkpt lat="44.02316" lon="2.59072">
        <ele>514</ele>
        <time>2021-10-31T09:12:57.940Z</time>
      </trkpt>
      <trkpt lat="44.02316" lon="2.59071">
        <ele>514</ele>
        <time>2021-10-31T09:12:58.940Z</time>
      </trkpt>
      <trkpt lat="44.02316" lon="2.5907">
        <ele>514</ele>
        <time>2021-10-31T09:12:59.940Z</time>
      </trkpt>
      <trkpt lat="44.02316" lon="2.59068">
        <ele>514</ele>
        <time>2021-10-31T09:13:00.940Z</time>
      </trkpt>
      <trkpt lat="44.02316" lon="2.59068">
        <ele>514</ele>
        <time>2021-10-31T09:13:01.940Z</time>
      </trkpt>
      <trkpt lat="44.02317" lon="2.59066">
        <ele>514</ele>
        <time>2021-10-31T09:13:02.940Z</time>
      </trkpt>
      <trkpt lat="44.02317" lon="2.59065">
        <ele>515</ele>
        <time>2021-10-31T09:13:03.940Z</time>
      </trkpt>
      <trkpt lat="44.02317" lon="2.59064">
        <ele>515</ele>
        <time>2021-10-31T09:13:04.940Z</time>
      </trkpt>
      <trkpt lat="44.02317" lon="2.59063">
        <ele>514</ele>
        <time>2021-10-31T09:13:05.940Z</time>
      </trkpt>
      <trkpt lat="44.02318" lon="2.59062">
        <ele>514</ele>
        <time>2021-10-31T09:13:06.940Z</time>
      </trkpt>
      <trkpt lat="44.02318" lon="2.59061">
        <ele>514</ele>
        <time>2021-10-31T09:13:07.940Z</time>
      </trkpt>
      <trkpt lat="44.02318" lon="2.59059">
        <ele>514</ele>
        <time>2021-10-31T09:13:08.940Z</time>
      </trkpt>
      <trkpt lat="44.02319" lon="2.59058">
        <ele>514</ele>
        <time>2021-10-31T09:13:09.940Z</time>
      </trkpt>
      <trkpt lat="44.02319" lon="2.59057">
        <ele>514</ele>
        <time>2021-10-31T09:13:10.940Z</time>
      </trkpt>
      <trkpt lat="44.02319" lon="2.59055">
        <ele>514</ele>
        <time>2021-10-31T09:13:11.940Z</time>
      </trkpt>
      <trkpt lat="44.02319" lon="2.59054">
        <ele>514</ele>
        <time>2021-10-31T09:13:12.940Z</time>
      </trkpt>
      <trkpt lat="44.02319" lon="2.59052">
        <ele>515</ele>
        <time>2021-10-31T09:13:13.940Z</time>
      </trkpt>
      <trkpt lat="44.02319" lon="2.59051">
        <ele>515</ele>
        <time>2021-10-31T09:13:14.940Z</time>
      </trkpt>
      <trkpt lat="44.02319" lon="2.59049">
        <ele>515</ele>
        <time>2021-10-31T09:13:15.940Z</time>
      </trkpt>
      <trkpt lat="44.02319" lon="2.59048">
        <ele>515</ele>
        <time>2021-10-31T09:13:16.940Z</time>
      </trkpt>
      <trkpt lat="44.0232" lon="2.59047">
        <ele>515</ele>
        <time>2021-10-31T09:13:17.940Z</time>
      </trkpt>
      <trkpt lat="44.0232" lon="2.59045">
        <ele>515</ele>
        <time>2021-10-31T09:13:18.940Z</time>
      </trkpt>
      <trkpt lat="44.0232" lon="2.59044">
        <ele>515</ele>
        <time>2021-10-31T09:13:19.940Z</time>
      </trkpt>
      <trkpt lat="44.0232" lon="2.59042">
        <ele>515</ele>
        <time>2021-10-31T09:13:20.940Z</time>
      </trkpt>
      <trkpt lat="44.02321" lon="2.59041">
        <ele>515</ele>
        <time>2021-10-31T09:13:21.940Z</time>
      </trkpt>
      <trkpt lat="44.02321" lon="2.5904">
        <ele>515</ele>
        <time>2021-10-31T09:13:22.940Z</time>
      </trkpt>
      <trkpt lat="44.02322" lon="2.59039">
        <ele>515</ele>
        <time>2021-10-31T09:13:23.940Z</time>
      </trkpt>
      <trkpt lat="44.02322" lon="2.59037">
        <ele>515</ele>
        <time>2021-10-31T09:13:24.940Z</time>
      </trkpt>
      <trkpt lat="44.02323" lon="2.59036">
        <ele>515</ele>
        <time>2021-10-31T09:13:25.940Z</time>
      </trkpt>
      <trkpt lat="44.02324" lon="2.59035">
        <ele>515</ele>
        <time>2021-10-31T09:13:26.940Z</time>
      </trkpt>
      <trkpt lat="44.02324" lon="2.59034">
        <ele>515</ele>
        <time>2021-10-31T09:13:27.940Z</time>
      </trkpt>
      <trkpt lat="44.02324" lon="2.59033">
        <ele>515</ele>
        <time>2021-10-31T09:13:28.940Z</time>
      </trkpt>
      <trkpt lat="44.02325" lon="2.59032">
        <ele>515</ele>
        <time>2021-10-31T09:13:29.940Z</time>
      </trkpt>
      <trkpt lat="44.02325" lon="2.59031">
        <ele>515</ele>
        <time>2021-10-31T09:13:30.940Z</time>
      </trkpt>
      <trkpt lat="44.02325" lon="2.59031">
        <ele>515</ele>
        <time>2021-10-31T09:13:31.940Z</time>
      </trkpt>
      <trkpt lat="44.02325" lon="2.5903">
        <ele>516</ele>
        <time>2021-10-31T09:13:32.940Z</time>
      </trkpt>
      <trkpt lat="44.02326" lon="2.59029">
        <ele>516</ele>
        <time>2021-10-31T09:13:33.940Z</time>
      </trkpt>
      <trkpt lat="44.02326" lon="2.59028">
        <ele>516</ele>
        <time>2021-10-31T09:13:34.940Z</time>
      </trkpt>
      <trkpt lat="44.02326" lon="2.59027">
        <ele>516</ele>
        <time>2021-10-31T09:13:35.940Z</time>
      </trkpt>
      <trkpt lat="44.02327" lon="2.59026">
        <ele>516</ele>
        <time>2021-10-31T09:13:36.940Z</time>
      </trkpt>
      <trkpt lat="44.02327" lon="2.59025">
        <ele>517</ele>
        <time>2021-10-31T09:13:37.940Z</time>
      </trkpt>
      <trkpt lat="44.02327" lon="2.59025">
        <ele>517</ele>
        <time>2021-10-31T09:13:38.940Z</time>
      </trkpt>
      <trkpt lat="44.02327" lon="2.59024">
        <ele>517</ele>
        <time>2021-10-31T09:13:39.940Z</time>
      </trkpt>
      <trkpt lat="44.02327" lon="2.59023">
        <ele>517</ele>
        <time>2021-10-31T09:13:40.940Z</time>
      </trkpt>
      <trkpt lat="44.02328" lon="2.59022">
        <ele>517</ele>
        <time>2021-10-31T09:13:41.940Z</time>
      </trkpt>
      <trkpt lat="44.02328" lon="2.5902">
        <ele>517</ele>
        <time>2021-10-31T09:13:42.940Z</time>
      </trkpt>
      <trkpt lat="44.02328" lon="2.59019">
        <ele>517</ele>
        <time>2021-10-31T09:13:43.940Z</time>
      </trkpt>
      <trkpt lat="44.02328" lon="2.59018">
        <ele>517</ele>
        <time>2021-10-31T09:13:44.940Z</time>
      </trkpt>
      <trkpt lat="44.02329" lon="2.59016">
        <ele>518</ele>
        <time>2021-10-31T09:13:45.940Z</time>
      </trkpt>
      <trkpt lat="44.02329" lon="2.59015">
        <ele>518</ele>
        <time>2021-10-31T09:13:46.940Z</time>
      </trkpt>
      <trkpt lat="44.0233" lon="2.59013">
        <ele>518</ele>
        <time>2021-10-31T09:13:47.940Z</time>
      </trkpt>
      <trkpt lat="44.0233" lon="2.59012">
        <ele>518</ele>
        <time>2021-10-31T09:13:48.940Z</time>
      </trkpt>
      <trkpt lat="44.02331" lon="2.5901">
        <ele>518</ele>
        <time>2021-10-31T09:13:49.940Z</time>
      </trkpt>
      <trkpt lat="44.02331" lon="2.59009">
        <ele>518</ele>
        <time>2021-10-31T09:13:50.940Z</time>
      </trkpt>
      <trkpt lat="44.02331" lon="2.59007">
        <ele>518</ele>
        <time>2021-10-31T09:13:51.940Z</time>
      </trkpt>
      <trkpt lat="44.02332" lon="2.59006">
        <ele>518</ele>
        <time>2021-10-31T09:13:52.940Z</time>
      </trkpt>
      <trkpt lat="44.02332" lon="2.59005">
        <ele>518</ele>
        <time>2021-10-31T09:13:53.940Z</time>
      </trkpt>
      <trkpt lat="44.02333" lon="2.59004">
        <ele>519</ele>
        <time>2021-10-31T09:13:54.940Z</time>
      </trkpt>
      <trkpt lat="44.02333" lon="2.59003">
        <ele>519</ele>
        <time>2021-10-31T09:13:55.940Z</time>
      </trkpt>
      <trkpt lat="44.02333" lon="2.59002">
        <ele>519</ele>
        <time>2021-10-31T09:13:56.940Z</time>
      </trkpt>
      <trkpt lat="44.02334" lon="2.59001">
        <ele>519</ele>
        <time>2021-10-31T09:13:57.940Z</time>
      </trkpt>
      <trkpt lat="44.02334" lon="2.58999">
        <ele>519</ele>
        <time>2021-10-31T09:13:58.940Z</time>
      </trkpt>
      <trkpt lat="44.02334" lon="2.58998">
        <ele>519</ele>
        <time>2021-10-31T09:13:59.940Z</time>
      </trkpt>
      <trkpt lat="44.02335" lon="2.58996">
        <ele>519</ele>
        <time>2021-10-31T09:14:00.940Z</time>
      </trkpt>
      <trkpt lat="44.02335" lon="2.58995">
        <ele>519</ele>
        <time>2021-10-31T09:14:01.940Z</time>
      </trkpt>
      <trkpt lat="44.02335" lon="2.58994">
        <ele>519</ele>
        <time>2021-10-31T09:14:02.940Z</time>
      </trkpt>
      <trkpt lat="44.02335" lon="2.58992">
        <ele>520</ele>
        <time>2021-10-31T09:14:03.940Z</time>
      </trkpt>
      <trkpt lat="44.02335" lon="2.58991">
        <ele>520</ele>
        <time>2021-10-31T09:14:04.940Z</time>
      </trkpt>
      <trkpt lat="44.02335" lon="2.5899">
        <ele>520</ele>
        <time>2021-10-31T09:14:05.940Z</time>
      </trkpt>
      <trkpt lat="44.02336" lon="2.58989">
        <ele>520</ele>
        <time>2021-10-31T09:14:06.940Z</time>
      </trkpt>
      <trkpt lat="44.02336" lon="2.58988">
        <ele>520</ele>
        <time>2021-10-31T09:14:07.940Z</time>
      </trkpt>
      <trkpt lat="44.02336" lon="2.58986">
        <ele>520</ele>
        <time>2021-10-31T09:14:08.940Z</time>
      </trkpt>
      <trkpt lat="44.02337" lon="2.58985">
        <ele>520</ele>
        <time>2021-10-31T09:14:09.940Z</time>
      </trkpt>
      <trkpt lat="44.02337" lon="2.58984">
        <ele>521</ele>
        <time>2021-10-31T09:14:10.940Z</time>
      </trkpt>
      <trkpt lat="44.02337" lon="2.58982">
        <ele>521</ele>
        <time>2021-10-31T09:14:11.940Z</time>
      </trkpt>
      <trkpt lat="44.02337" lon="2.58981">
        <ele>521</ele>
        <time>2021-10-31T09:14:12.940Z</time>
      </trkpt>
      <trkpt lat="44.02338" lon="2.58979">
        <ele>521</ele>
        <time>2021-10-31T09:14:13.940Z</time>
      </trkpt>
      <trkpt lat="44.02338" lon="2.58978">
        <ele>521</ele>
        <time>2021-10-31T09:14:14.940Z</time>
      </trkpt>
      <trkpt lat="44.02338" lon="2.58977">
        <ele>521</ele>
        <time>2021-10-31T09:14:15.940Z</time>
      </trkpt>
      <trkpt lat="44.02338" lon="2.58975">
        <ele>521</ele>
        <time>2021-10-31T09:14:16.940Z</time>
      </trkpt>
      <trkpt lat="44.02338" lon="2.58974">
        <ele>521</ele>
        <time>2021-10-31T09:14:17.940Z</time>
      </trkpt>
      <trkpt lat="44.02338" lon="2.58973">
        <ele>521</ele>
        <time>2021-10-31T09:14:18.940Z</time>
      </trkpt>
      <trkpt lat="44.02338" lon="2.58971">
        <ele>521</ele>
        <time>2021-10-31T09:14:19.940Z</time>
      </trkpt>
      <trkpt lat="44.02339" lon="2.5897">
        <ele>522</ele>
        <time>2021-10-31T09:14:20.940Z</time>
      </trkpt>
      <trkpt lat="44.02339" lon="2.58968">
        <ele>522</ele>
        <time>2021-10-31T09:14:21.940Z</time>
      </trkpt>
      <trkpt lat="44.02339" lon="2.58967">
        <ele>522</ele>
        <time>2021-10-31T09:14:22.940Z</time>
      </trkpt>
      <trkpt lat="44.02339" lon="2.58966">
        <ele>522</ele>
        <time>2021-10-31T09:14:23.940Z</time>
      </trkpt>
      <trkpt lat="44.02339" lon="2.58964">
        <ele>522</ele>
        <time>2021-10-31T09:14:24.940Z</time>
      </trkpt>
      <trkpt lat="44.02339" lon="2.58963">
        <ele>522</ele>
        <time>2021-10-31T09:14:25.940Z</time>
      </trkpt>
      <trkpt lat="44.02339" lon="2.58962">
        <ele>522</ele>
        <time>2021-10-31T09:14:26.940Z</time>
      </trkpt>
      <trkpt lat="44.0234" lon="2.58962">
        <ele>523</ele>
        <time>2021-10-31T09:14:27.940Z</time>
      </trkpt>
      <trkpt lat="44.0234" lon="2.58961">
        <ele>523</ele>
        <time>2021-10-31T09:14:28.940Z</time>
      </trkpt>
      <trkpt lat="44.0234" lon="2.5896">
        <ele>523</ele>
        <time>2021-10-31T09:14:29.940Z</time>
      </trkpt>
      <trkpt lat="44.0234" lon="2.58959">
        <ele>523</ele>
        <time>2021-10-31T09:14:30.940Z</time>
      </trkpt>
      <trkpt lat="44.0234" lon="2.58958">
        <ele>523</ele>
        <time>2021-10-31T09:14:31.940Z</time>
      </trkpt>
      <trkpt lat="44.0234" lon="2.58957">
        <ele>524</ele>
        <time>2021-10-31T09:14:32.940Z</time>
      </trkpt>
      <trkpt lat="44.0234" lon="2.58955">
        <ele>524</ele>
        <time>2021-10-31T09:14:33.940Z</time>
      </trkpt>
      <trkpt lat="44.02339" lon="2.58954">
        <ele>524</ele>
        <time>2021-10-31T09:14:34.940Z</time>
      </trkpt>
      <trkpt lat="44.02339" lon="2.58953">
        <ele>524</ele>
        <time>2021-10-31T09:14:35.940Z</time>
      </trkpt>
      <trkpt lat="44.02339" lon="2.58952">
        <ele>524</ele>
        <time>2021-10-31T09:14:36.940Z</time>
      </trkpt>
      <trkpt lat="44.02339" lon="2.58951">
        <ele>525</ele>
        <time>2021-10-31T09:14:37.940Z</time>
      </trkpt>
      <trkpt lat="44.02339" lon="2.5895">
        <ele>525</ele>
        <time>2021-10-31T09:14:38.940Z</time>
      </trkpt>
      <trkpt lat="44.02338" lon="2.58948">
        <ele>525</ele>
        <time>2021-10-31T09:14:39.940Z</time>
      </trkpt>
      <trkpt lat="44.02338" lon="2.58947">
        <ele>525</ele>
        <time>2021-10-31T09:14:40.940Z</time>
      </trkpt>
      <trkpt lat="44.02337" lon="2.58946">
        <ele>525</ele>
        <time>2021-10-31T09:14:41.940Z</time>
      </trkpt>
      <trkpt lat="44.02337" lon="2.58944">
        <ele>526</ele>
        <time>2021-10-31T09:14:42.940Z</time>
      </trkpt>
      <trkpt lat="44.02336" lon="2.58943">
        <ele>526</ele>
        <time>2021-10-31T09:14:43.940Z</time>
      </trkpt>
      <trkpt lat="44.02336" lon="2.58942">
        <ele>526</ele>
        <time>2021-10-31T09:14:44.940Z</time>
      </trkpt>
      <trkpt lat="44.02335" lon="2.58941">
        <ele>526</ele>
        <time>2021-10-31T09:14:45.940Z</time>
      </trkpt>
      <trkpt lat="44.02334" lon="2.58939">
        <ele>526</ele>
        <time>2021-10-31T09:14:46.940Z</time>
      </trkpt>
      <trkpt lat="44.02333" lon="2.58938">
        <ele>527</ele>
        <time>2021-10-31T09:14:47.940Z</time>
      </trkpt>
      <trkpt lat="44.02333" lon="2.58937">
        <ele>527</ele>
        <time>2021-10-31T09:14:48.940Z</time>
      </trkpt>
      <trkpt lat="44.02333" lon="2.58936">
        <ele>527</ele>
        <time>2021-10-31T09:14:49.940Z</time>
      </trkpt>
      <trkpt lat="44.02332" lon="2.58934">
        <ele>527</ele>
        <time>2021-10-31T09:14:50.940Z</time>
      </trkpt>
      <trkpt lat="44.02332" lon="2.58933">
        <ele>527</ele>
        <time>2021-10-31T09:14:51.940Z</time>
      </trkpt>
      <trkpt lat="44.02332" lon="2.58932">
        <ele>527</ele>
        <time>2021-10-31T09:14:52.940Z</time>
      </trkpt>
      <trkpt lat="44.02332" lon="2.58932">
        <ele>527</ele>
        <time>2021-10-31T09:14:53.940Z</time>
      </trkpt>
      <trkpt lat="44.02332" lon="2.58931">
        <ele>527</ele>
        <time>2021-10-31T09:14:54.940Z</time>
      </trkpt>
      <trkpt lat="44.02332" lon="2.58931">
        <ele>527</ele>
        <time>2021-10-31T09:14:55.940Z</time>
      </trkpt>
      <trkpt lat="44.0233" lon="2.58929">
        <ele>527</ele>
        <time>2021-10-31T09:14:56.940Z</time>
      </trkpt>
      <trkpt lat="44.02329" lon="2.58928">
        <ele>527</ele>
        <time>2021-10-31T09:14:57.940Z</time>
      </trkpt>
      <trkpt lat="44.02329" lon="2.58927">
        <ele>527</ele>
        <time>2021-10-31T09:14:58.940Z</time>
      </trkpt>
      <trkpt lat="44.02328" lon="2.58925">
        <ele>527</ele>
        <time>2021-10-31T09:14:59.940Z</time>
      </trkpt>
      <trkpt lat="44.02327" lon="2.58924">
        <ele>527</ele>
        <time>2021-10-31T09:15:00.940Z</time>
      </trkpt>
      <trkpt lat="44.02326" lon="2.58922">
        <ele>527</ele>
        <time>2021-10-31T09:15:01.940Z</time>
      </trkpt>
      <trkpt lat="44.02325" lon="2.58921">
        <ele>527</ele>
        <time>2021-10-31T09:15:02.940Z</time>
      </trkpt>
      <trkpt lat="44.02324" lon="2.58919">
        <ele>527</ele>
        <time>2021-10-31T09:15:03.940Z</time>
      </trkpt>
      <trkpt lat="44.02323" lon="2.58918">
        <ele>527</ele>
        <time>2021-10-31T09:15:04.940Z</time>
      </trkpt>
      <trkpt lat="44.02322" lon="2.58917">
        <ele>527</ele>
        <time>2021-10-31T09:15:05.940Z</time>
      </trkpt>
      <trkpt lat="44.02321" lon="2.58916">
        <ele>527</ele>
        <time>2021-10-31T09:15:06.940Z</time>
      </trkpt>
      <trkpt lat="44.0232" lon="2.58914">
        <ele>527</ele>
        <time>2021-10-31T09:15:07.940Z</time>
      </trkpt>
      <trkpt lat="44.02319" lon="2.58914">
        <ele>527</ele>
        <time>2021-10-31T09:15:08.940Z</time>
      </trkpt>
      <trkpt lat="44.02318" lon="2.58913">
        <ele>527</ele>
        <time>2021-10-31T09:15:09.940Z</time>
      </trkpt>
      <trkpt lat="44.02317" lon="2.58912">
        <ele>527</ele>
        <time>2021-10-31T09:15:10.940Z</time>
      </trkpt>
      <trkpt lat="44.02317" lon="2.58911">
        <ele>527</ele>
        <time>2021-10-31T09:15:11.940Z</time>
      </trkpt>
      <trkpt lat="44.02316" lon="2.5891">
        <ele>527</ele>
        <time>2021-10-31T09:15:12.940Z</time>
      </trkpt>
      <trkpt lat="44.02316" lon="2.58909">
        <ele>527</ele>
        <time>2021-10-31T09:15:13.940Z</time>
      </trkpt>
      <trkpt lat="44.02315" lon="2.58908">
        <ele>527</ele>
        <time>2021-10-31T09:15:14.940Z</time>
      </trkpt>
      <trkpt lat="44.02314" lon="2.58907">
        <ele>527</ele>
        <time>2021-10-31T09:15:15.940Z</time>
      </trkpt>
      <trkpt lat="44.02313" lon="2.58907">
        <ele>528</ele>
        <time>2021-10-31T09:15:16.940Z</time>
      </trkpt>
      <trkpt lat="44.02312" lon="2.58906">
        <ele>528</ele>
        <time>2021-10-31T09:15:17.940Z</time>
      </trkpt>
      <trkpt lat="44.02312" lon="2.58905">
        <ele>528</ele>
        <time>2021-10-31T09:15:18.940Z</time>
      </trkpt>
      <trkpt lat="44.02312" lon="2.58904">
        <ele>528</ele>
        <time>2021-10-31T09:15:19.940Z</time>
      </trkpt>
      <trkpt lat="44.02311" lon="2.58903">
        <ele>528</ele>
        <time>2021-10-31T09:15:20.940Z</time>
      </trkpt>
      <trkpt lat="44.0231" lon="2.58902">
        <ele>528</ele>
        <time>2021-10-31T09:15:21.940Z</time>
      </trkpt>
      <trkpt lat="44.0231" lon="2.58901">
        <ele>528</ele>
        <time>2021-10-31T09:15:22.940Z</time>
      </trkpt>
      <trkpt lat="44.02309" lon="2.589">
        <ele>528</ele>
        <time>2021-10-31T09:15:23.940Z</time>
      </trkpt>
      <trkpt lat="44.02309" lon="2.589">
        <ele>528</ele>
        <time>2021-10-31T09:15:24.940Z</time>
      </trkpt>
      <trkpt lat="44.02308" lon="2.58899">
        <ele>529</ele>
        <time>2021-10-31T09:15:25.940Z</time>
      </trkpt>
      <trkpt lat="44.02308" lon="2.58898">
        <ele>529</ele>
        <time>2021-10-31T09:15:26.940Z</time>
      </trkpt>
      <trkpt lat="44.02307" lon="2.58897">
        <ele>529</ele>
        <time>2021-10-31T09:15:27.940Z</time>
      </trkpt>
      <trkpt lat="44.02307" lon="2.58896">
        <ele>529</ele>
        <time>2021-10-31T09:15:28.940Z</time>
      </trkpt>
      <trkpt lat="44.02306" lon="2.58895">
        <ele>529</ele>
        <time>2021-10-31T09:15:29.940Z</time>
      </trkpt>
      <trkpt lat="44.02306" lon="2.58894">
        <ele>529</ele>
        <time>2021-10-31T09:15:30.940Z</time>
      </trkpt>
      <trkpt lat="44.02305" lon="2.58893">
        <ele>529</ele>
        <time>2021-10-31T09:15:31.940Z</time>
      </trkpt>
      <trkpt lat="44.02304" lon="2.58893">
        <ele>529</ele>
        <time>2021-10-31T09:15:32.940Z</time>
      </trkpt>
      <trkpt lat="44.02303" lon="2.58892">
        <ele>529</ele>
        <time>2021-10-31T09:15:33.940Z</time>
      </trkpt>
      <trkpt lat="44.02303" lon="2.58891">
        <ele>529</ele>
        <time>2021-10-31T09:15:34.940Z</time>
      </trkpt>
      <trkpt lat="44.02302" lon="2.58891">
        <ele>529</ele>
        <time>2021-10-31T09:15:35.940Z</time>
      </trkpt>
      <trkpt lat="44.02301" lon="2.5889">
        <ele>529</ele>
        <time>2021-10-31T09:15:36.940Z</time>
      </trkpt>
      <trkpt lat="44.023" lon="2.5889">
        <ele>529</ele>
        <time>2021-10-31T09:15:37.940Z</time>
      </trkpt>
      <trkpt lat="44.02299" lon="2.5889">
        <ele>529</ele>
        <time>2021-10-31T09:15:38.940Z</time>
      </trkpt>
      <trkpt lat="44.02299" lon="2.58889">
        <ele>529</ele>
        <time>2021-10-31T09:15:39.940Z</time>
      </trkpt>
      <trkpt lat="44.02298" lon="2.58888">
        <ele>529</ele>
        <time>2021-10-31T09:15:40.940Z</time>
      </trkpt>
      <trkpt lat="44.02297" lon="2.58887">
        <ele>529</ele>
        <time>2021-10-31T09:15:41.940Z</time>
      </trkpt>
      <trkpt lat="44.02296" lon="2.58887">
        <ele>529</ele>
        <time>2021-10-31T09:15:42.940Z</time>
      </trkpt>
      <trkpt lat="44.02295" lon="2.58886">
        <ele>529</ele>
        <time>2021-10-31T09:15:43.940Z</time>
      </trkpt>
      <trkpt lat="44.02294" lon="2.58885">
        <ele>529</ele>
        <time>2021-10-31T09:15:44.940Z</time>
      </trkpt>
      <trkpt lat="44.02293" lon="2.58885">
        <ele>529</ele>
        <time>2021-10-31T09:15:45.940Z</time>
      </trkpt>
      <trkpt lat="44.02292" lon="2.58884">
        <ele>529</ele>
        <time>2021-10-31T09:15:46.940Z</time>
      </trkpt>
      <trkpt lat="44.02292" lon="2.58884">
        <ele>529</ele>
        <time>2021-10-31T09:15:47.940Z</time>
      </trkpt>
      <trkpt lat="44.02291" lon="2.58883">
        <ele>529</ele>
        <time>2021-10-31T09:15:48.940Z</time>
      </trkpt>
      <trkpt lat="44.0229" lon="2.58882">
        <ele>529</ele>
        <time>2021-10-31T09:15:49.940Z</time>
      </trkpt>
      <trkpt lat="44.02289" lon="2.58882">
        <ele>529</ele>
        <time>2021-10-31T09:15:50.940Z</time>
      </trkpt>
      <trkpt lat="44.02289" lon="2.58881">
        <ele>529</ele>
        <time>2021-10-31T09:15:51.940Z</time>
      </trkpt>
      <trkpt lat="44.02288" lon="2.58879">
        <ele>529</ele>
        <time>2021-10-31T09:15:52.940Z</time>
      </trkpt>
      <trkpt lat="44.02287" lon="2.58878">
        <ele>529</ele>
        <time>2021-10-31T09:15:53.940Z</time>
      </trkpt>
      <trkpt lat="44.02286" lon="2.58877">
        <ele>530</ele>
        <time>2021-10-31T09:15:54.940Z</time>
      </trkpt>
      <trkpt lat="44.02285" lon="2.58877">
        <ele>530</ele>
        <time>2021-10-31T09:15:55.940Z</time>
      </trkpt>
      <trkpt lat="44.02284" lon="2.58876">
        <ele>530</ele>
        <time>2021-10-31T09:15:56.940Z</time>
      </trkpt>
      <trkpt lat="44.02283" lon="2.58875">
        <ele>530</ele>
        <time>2021-10-31T09:15:57.940Z</time>
      </trkpt>
      <trkpt lat="44.02282" lon="2.58875">
        <ele>530</ele>
        <time>2021-10-31T09:15:58.940Z</time>
      </trkpt>
      <trkpt lat="44.02282" lon="2.58874">
        <ele>530</ele>
        <time>2021-10-31T09:15:59.940Z</time>
      </trkpt>
      <trkpt lat="44.02281" lon="2.58873">
        <ele>530</ele>
        <time>2021-10-31T09:16:00.940Z</time>
      </trkpt>
      <trkpt lat="44.0228" lon="2.58872">
        <ele>530</ele>
        <time>2021-10-31T09:16:01.940Z</time>
      </trkpt>
      <trkpt lat="44.0228" lon="2.58871">
        <ele>530</ele>
        <time>2021-10-31T09:16:02.940Z</time>
      </trkpt>
      <trkpt lat="44.02279" lon="2.5887">
        <ele>530</ele>
        <time>2021-10-31T09:16:03.940Z</time>
      </trkpt>
      <trkpt lat="44.02278" lon="2.58869">
        <ele>530</ele>
        <time>2021-10-31T09:16:04.940Z</time>
      </trkpt>
      <trkpt lat="44.02278" lon="2.58869">
        <ele>530</ele>
        <time>2021-10-31T09:16:05.940Z</time>
      </trkpt>
      <trkpt lat="44.02277" lon="2.58868">
        <ele>530</ele>
        <time>2021-10-31T09:16:06.940Z</time>
      </trkpt>
      <trkpt lat="44.02276" lon="2.58867">
        <ele>531</ele>
        <time>2021-10-31T09:16:07.940Z</time>
      </trkpt>
      <trkpt lat="44.02275" lon="2.58865">
        <ele>531</ele>
        <time>2021-10-31T09:16:08.940Z</time>
      </trkpt>
      <trkpt lat="44.02274" lon="2.58864">
        <ele>531</ele>
        <time>2021-10-31T09:16:09.940Z</time>
      </trkpt>
      <trkpt lat="44.02273" lon="2.58863">
        <ele>531</ele>
        <time>2021-10-31T09:16:10.940Z</time>
      </trkpt>
      <trkpt lat="44.02272" lon="2.58862">
        <ele>531</ele>
        <time>2021-10-31T09:16:11.940Z</time>
      </trkpt>
      <trkpt lat="44.02272" lon="2.58861">
        <ele>531</ele>
        <time>2021-10-31T09:16:12.940Z</time>
      </trkpt>
      <trkpt lat="44.02271" lon="2.5886">
        <ele>531</ele>
        <time>2021-10-31T09:16:13.940Z</time>
      </trkpt>
      <trkpt lat="44.0227" lon="2.58859">
        <ele>531</ele>
        <time>2021-10-31T09:16:14.940Z</time>
      </trkpt>
      <trkpt lat="44.02269" lon="2.58857">
        <ele>531</ele>
        <time>2021-10-31T09:16:15.940Z</time>
      </trkpt>
      <trkpt lat="44.02268" lon="2.58857">
        <ele>531</ele>
        <time>2021-10-31T09:16:16.940Z</time>
      </trkpt>
      <trkpt lat="44.02267" lon="2.58856">
        <ele>531</ele>
        <time>2021-10-31T09:16:17.940Z</time>
      </trkpt>
      <trkpt lat="44.02266" lon="2.58855">
        <ele>531</ele>
        <time>2021-10-31T09:16:18.940Z</time>
      </trkpt>
      <trkpt lat="44.02265" lon="2.58855">
        <ele>531</ele>
        <time>2021-10-31T09:16:19.940Z</time>
      </trkpt>
      <trkpt lat="44.02264" lon="2.58854">
        <ele>531</ele>
        <time>2021-10-31T09:16:20.940Z</time>
      </trkpt>
      <trkpt lat="44.02263" lon="2.58853">
        <ele>531</ele>
        <time>2021-10-31T09:16:21.940Z</time>
      </trkpt>
      <trkpt lat="44.02262" lon="2.58853">
        <ele>531</ele>
        <time>2021-10-31T09:16:22.940Z</time>
      </trkpt>
      <trkpt lat="44.02261" lon="2.58852">
        <ele>531</ele>
        <time>2021-10-31T09:16:23.940Z</time>
      </trkpt>
      <trkpt lat="44.0226" lon="2.58852">
        <ele>531</ele>
        <time>2021-10-31T09:16:24.940Z</time>
      </trkpt>
      <trkpt lat="44.02259" lon="2.58851">
        <ele>531</ele>
        <time>2021-10-31T09:16:25.940Z</time>
      </trkpt>
      <trkpt lat="44.02258" lon="2.58851">
        <ele>531</ele>
        <time>2021-10-31T09:16:26.940Z</time>
      </trkpt>
      <trkpt lat="44.02257" lon="2.58852">
        <ele>531</ele>
        <time>2021-10-31T09:16:27.940Z</time>
      </trkpt>
      <trkpt lat="44.02256" lon="2.58851">
        <ele>531</ele>
        <time>2021-10-31T09:16:28.940Z</time>
      </trkpt>
      <trkpt lat="44.02255" lon="2.58851">
        <ele>531</ele>
        <time>2021-10-31T09:16:29.940Z</time>
      </trkpt>
      <trkpt lat="44.02253" lon="2.58851">
        <ele>531</ele>
        <time>2021-10-31T09:16:30.940Z</time>
      </trkpt>
      <trkpt lat="44.02252" lon="2.58851">
        <ele>531</ele>
        <time>2021-10-31T09:16:31.940Z</time>
      </trkpt>
      <trkpt lat="44.02251" lon="2.58851">
        <ele>531</ele>
        <time>2021-10-31T09:16:32.940Z</time>
      </trkpt>
      <trkpt lat="44.0225" lon="2.58851">
        <ele>532</ele>
        <time>2021-10-31T09:16:33.940Z</time>
      </trkpt>
      <trkpt lat="44.02249" lon="2.5885">
        <ele>532</ele>
        <time>2021-10-31T09:16:34.940Z</time>
      </trkpt>
      <trkpt lat="44.02248" lon="2.5885">
        <ele>532</ele>
        <time>2021-10-31T09:16:35.940Z</time>
      </trkpt>
      <trkpt lat="44.02246" lon="2.5885">
        <ele>532</ele>
        <time>2021-10-31T09:16:36.940Z</time>
      </trkpt>
      <trkpt lat="44.02245" lon="2.5885">
        <ele>533</ele>
        <time>2021-10-31T09:16:37.940Z</time>
      </trkpt>
      <trkpt lat="44.02244" lon="2.5885">
        <ele>533</ele>
        <time>2021-10-31T09:16:38.940Z</time>
      </trkpt>
      <trkpt lat="44.02242" lon="2.5885">
        <ele>533</ele>
        <time>2021-10-31T09:16:39.940Z</time>
      </trkpt>
      <trkpt lat="44.02241" lon="2.5885">
        <ele>533</ele>
        <time>2021-10-31T09:16:40.940Z</time>
      </trkpt>
      <trkpt lat="44.0224" lon="2.58849">
        <ele>533</ele>
        <time>2021-10-31T09:16:41.940Z</time>
      </trkpt>
      <trkpt lat="44.02239" lon="2.58849">
        <ele>534</ele>
        <time>2021-10-31T09:16:42.940Z</time>
      </trkpt>
      <trkpt lat="44.02237" lon="2.58849">
        <ele>534</ele>
        <time>2021-10-31T09:16:43.940Z</time>
      </trkpt>
      <trkpt lat="44.02236" lon="2.58849">
        <ele>534</ele>
        <time>2021-10-31T09:16:44.940Z</time>
      </trkpt>
      <trkpt lat="44.02235" lon="2.58849">
        <ele>534</ele>
        <time>2021-10-31T09:16:45.940Z</time>
      </trkpt>
      <trkpt lat="44.02234" lon="2.58849">
        <ele>534</ele>
        <time>2021-10-31T09:16:46.940Z</time>
      </trkpt>
      <trkpt lat="44.02232" lon="2.58849">
        <ele>534</ele>
        <time>2021-10-31T09:16:47.940Z</time>
      </trkpt>
      <trkpt lat="44.02231" lon="2.58849">
        <ele>534</ele>
        <time>2021-10-31T09:16:48.940Z</time>
      </trkpt>
      <trkpt lat="44.0223" lon="2.58849">
        <ele>534</ele>
        <time>2021-10-31T09:16:49.940Z</time>
      </trkpt>
      <trkpt lat="44.02229" lon="2.58848">
        <ele>534</ele>
        <time>2021-10-31T09:16:50.940Z</time>
      </trkpt>
      <trkpt lat="44.02228" lon="2.58848">
        <ele>534</ele>
        <time>2021-10-31T09:16:51.940Z</time>
      </trkpt>
      <trkpt lat="44.02227" lon="2.58848">
        <ele>534</ele>
        <time>2021-10-31T09:16:52.940Z</time>
      </trkpt>
      <trkpt lat="44.02227" lon="2.58847">
        <ele>534</ele>
        <time>2021-10-31T09:16:53.940Z</time>
      </trkpt>
      <trkpt lat="44.02226" lon="2.58847">
        <ele>534</ele>
        <time>2021-10-31T09:16:54.940Z</time>
      </trkpt>
      <trkpt lat="44.02225" lon="2.58847">
        <ele>534</ele>
        <time>2021-10-31T09:16:55.940Z</time>
      </trkpt>
      <trkpt lat="44.02224" lon="2.58847">
        <ele>534</ele>
        <time>2021-10-31T09:16:56.940Z</time>
      </trkpt>
      <trkpt lat="44.02223" lon="2.58846">
        <ele>534</ele>
        <time>2021-10-31T09:16:57.940Z</time>
      </trkpt>
      <trkpt lat="44.02222" lon="2.58846">
        <ele>534</ele>
        <time>2021-10-31T09:16:58.940Z</time>
      </trkpt>
      <trkpt lat="44.02221" lon="2.58846">
        <ele>534</ele>
        <time>2021-10-31T09:16:59.940Z</time>
      </trkpt>
      <trkpt lat="44.0222" lon="2.58846">
        <ele>534</ele>
        <time>2021-10-31T09:17:00.940Z</time>
      </trkpt>
      <trkpt lat="44.02219" lon="2.58846">
        <ele>534</ele>
        <time>2021-10-31T09:17:01.940Z</time>
      </trkpt>
      <trkpt lat="44.02218" lon="2.58847">
        <ele>534</ele>
        <time>2021-10-31T09:17:02.940Z</time>
      </trkpt>
      <trkpt lat="44.02217" lon="2.58847">
        <ele>534</ele>
        <time>2021-10-31T09:17:03.940Z</time>
      </trkpt>
      <trkpt lat="44.02216" lon="2.58847">
        <ele>534</ele>
        <time>2021-10-31T09:17:04.940Z</time>
      </trkpt>
      <trkpt lat="44.02215" lon="2.58847">
        <ele>534</ele>
        <time>2021-10-31T09:17:05.940Z</time>
      </trkpt>
      <trkpt lat="44.02214" lon="2.58847">
        <ele>534</ele>
        <time>2021-10-31T09:17:06.940Z</time>
      </trkpt>
      <trkpt lat="44.02213" lon="2.58847">
        <ele>534</ele>
        <time>2021-10-31T09:17:07.940Z</time>
      </trkpt>
      <trkpt lat="44.02212" lon="2.58847">
        <ele>533</ele>
        <time>2021-10-31T09:17:08.940Z</time>
      </trkpt>
      <trkpt lat="44.02211" lon="2.58847">
        <ele>533</ele>
        <time>2021-10-31T09:17:09.940Z</time>
      </trkpt>
      <trkpt lat="44.0221" lon="2.58847">
        <ele>533</ele>
        <time>2021-10-31T09:17:10.940Z</time>
      </trkpt>
      <trkpt lat="44.02209" lon="2.58847">
        <ele>533</ele>
        <time>2021-10-31T09:17:11.940Z</time>
      </trkpt>
      <trkpt lat="44.02207" lon="2.58847">
        <ele>533</ele>
        <time>2021-10-31T09:17:12.940Z</time>
      </trkpt>
      <trkpt lat="44.02206" lon="2.58847">
        <ele>532</ele>
        <time>2021-10-31T09:17:13.940Z</time>
      </trkpt>
      <trkpt lat="44.02205" lon="2.58846">
        <ele>532</ele>
        <time>2021-10-31T09:17:14.940Z</time>
      </trkpt>
      <trkpt lat="44.02204" lon="2.58846">
        <ele>532</ele>
        <time>2021-10-31T09:17:15.940Z</time>
      </trkpt>
      <trkpt lat="44.02203" lon="2.58846">
        <ele>532</ele>
        <time>2021-10-31T09:17:16.940Z</time>
      </trkpt>
      <trkpt lat="44.02202" lon="2.58846">
        <ele>532</ele>
        <time>2021-10-31T09:17:17.940Z</time>
      </trkpt>
      <trkpt lat="44.02201" lon="2.58846">
        <ele>532</ele>
        <time>2021-10-31T09:17:18.940Z</time>
      </trkpt>
      <trkpt lat="44.022" lon="2.58846">
        <ele>531</ele>
        <time>2021-10-31T09:17:19.940Z</time>
      </trkpt>
      <trkpt lat="44.02198" lon="2.58846">
        <ele>531</ele>
        <time>2021-10-31T09:17:20.940Z</time>
      </trkpt>
      <trkpt lat="44.02197" lon="2.58846">
        <ele>531</ele>
        <time>2021-10-31T09:17:21.940Z</time>
      </trkpt>
      <trkpt lat="44.02196" lon="2.58846">
        <ele>531</ele>
        <time>2021-10-31T09:17:22.940Z</time>
      </trkpt>
      <trkpt lat="44.02195" lon="2.58846">
        <ele>531</ele>
        <time>2021-10-31T09:17:23.940Z</time>
      </trkpt>
      <trkpt lat="44.02194" lon="2.58846">
        <ele>531</ele>
        <time>2021-10-31T09:17:24.940Z</time>
      </trkpt>
      <trkpt lat="44.02192" lon="2.58846">
        <ele>530</ele>
        <time>2021-10-31T09:17:25.940Z</time>
      </trkpt>
      <trkpt lat="44.02191" lon="2.58846">
        <ele>530</ele>
        <time>2021-10-31T09:17:26.940Z</time>
      </trkpt>
      <trkpt lat="44.0219" lon="2.58846">
        <ele>530</ele>
        <time>2021-10-31T09:17:27.940Z</time>
      </trkpt>
      <trkpt lat="44.02189" lon="2.58846">
        <ele>530</ele>
        <time>2021-10-31T09:17:28.940Z</time>
      </trkpt>
      <trkpt lat="44.02188" lon="2.58845">
        <ele>530</ele>
        <time>2021-10-31T09:17:29.940Z</time>
      </trkpt>
      <trkpt lat="44.02187" lon="2.58845">
        <ele>529</ele>
        <time>2021-10-31T09:17:30.940Z</time>
      </trkpt>
      <trkpt lat="44.02186" lon="2.58845">
        <ele>529</ele>
        <time>2021-10-31T09:17:31.940Z</time>
      </trkpt>
      <trkpt lat="44.02185" lon="2.58844">
        <ele>529</ele>
        <time>2021-10-31T09:17:32.940Z</time>
      </trkpt>
      <trkpt lat="44.02185" lon="2.58844">
        <ele>529</ele>
        <time>2021-10-31T09:17:33.940Z</time>
      </trkpt>
      <trkpt lat="44.02184" lon="2.58843">
        <ele>529</ele>
        <time>2021-10-31T09:17:34.940Z</time>
      </trkpt>
      <trkpt lat="44.02183" lon="2.58842">
        <ele>529</ele>
        <time>2021-10-31T09:17:35.940Z</time>
      </trkpt>
      <trkpt lat="44.02182" lon="2.58842">
        <ele>529</ele>
        <time>2021-10-31T09:17:36.940Z</time>
      </trkpt>
      <trkpt lat="44.02181" lon="2.58841">
        <ele>529</ele>
        <time>2021-10-31T09:17:37.940Z</time>
      </trkpt>
      <trkpt lat="44.0218" lon="2.58841">
        <ele>528</ele>
        <time>2021-10-31T09:17:38.940Z</time>
      </trkpt>
      <trkpt lat="44.02179" lon="2.5884">
        <ele>528</ele>
        <time>2021-10-31T09:17:39.940Z</time>
      </trkpt>
      <trkpt lat="44.02178" lon="2.5884">
        <ele>528</ele>
        <time>2021-10-31T09:17:40.940Z</time>
      </trkpt>
      <trkpt lat="44.02177" lon="2.58839">
        <ele>528</ele>
        <time>2021-10-31T09:17:41.940Z</time>
      </trkpt>
      <trkpt lat="44.02176" lon="2.58839">
        <ele>528</ele>
        <time>2021-10-31T09:17:42.940Z</time>
      </trkpt>
      <trkpt lat="44.02175" lon="2.58839">
        <ele>528</ele>
        <time>2021-10-31T09:17:43.940Z</time>
      </trkpt>
      <trkpt lat="44.02174" lon="2.58839">
        <ele>528</ele>
        <time>2021-10-31T09:17:44.940Z</time>
      </trkpt>
      <trkpt lat="44.02173" lon="2.58839">
        <ele>528</ele>
        <time>2021-10-31T09:17:45.940Z</time>
      </trkpt>
      <trkpt lat="44.02172" lon="2.58838">
        <ele>528</ele>
        <time>2021-10-31T09:17:46.940Z</time>
      </trkpt>
      <trkpt lat="44.02171" lon="2.58838">
        <ele>528</ele>
        <time>2021-10-31T09:17:47.940Z</time>
      </trkpt>
      <trkpt lat="44.02169" lon="2.58838">
        <ele>528</ele>
        <time>2021-10-31T09:17:48.940Z</time>
      </trkpt>
      <trkpt lat="44.02168" lon="2.58838">
        <ele>528</ele>
        <time>2021-10-31T09:17:49.940Z</time>
      </trkpt>
      <trkpt lat="44.02167" lon="2.58838">
        <ele>528</ele>
        <time>2021-10-31T09:17:50.940Z</time>
      </trkpt>
      <trkpt lat="44.02166" lon="2.58838">
        <ele>528</ele>
        <time>2021-10-31T09:17:51.940Z</time>
      </trkpt>
      <trkpt lat="44.02165" lon="2.58837">
        <ele>528</ele>
        <time>2021-10-31T09:17:52.940Z</time>
      </trkpt>
      <trkpt lat="44.02164" lon="2.58836">
        <ele>527</ele>
        <time>2021-10-31T09:17:53.940Z</time>
      </trkpt>
      <trkpt lat="44.02163" lon="2.58836">
        <ele>527</ele>
        <time>2021-10-31T09:17:54.940Z</time>
      </trkpt>
      <trkpt lat="44.02162" lon="2.58835">
        <ele>527</ele>
        <time>2021-10-31T09:17:55.940Z</time>
      </trkpt>
      <trkpt lat="44.02161" lon="2.58834">
        <ele>527</ele>
        <time>2021-10-31T09:17:56.940Z</time>
      </trkpt>
      <trkpt lat="44.0216" lon="2.58834">
        <ele>527</ele>
        <time>2021-10-31T09:17:57.940Z</time>
      </trkpt>
      <trkpt lat="44.02159" lon="2.58833">
        <ele>526</ele>
        <time>2021-10-31T09:17:58.940Z</time>
      </trkpt>
      <trkpt lat="44.02158" lon="2.58832">
        <ele>526</ele>
        <time>2021-10-31T09:17:59.940Z</time>
      </trkpt>
      <trkpt lat="44.02157" lon="2.58832">
        <ele>526</ele>
        <time>2021-10-31T09:18:00.940Z</time>
      </trkpt>
      <trkpt lat="44.02156" lon="2.58831">
        <ele>526</ele>
        <time>2021-10-31T09:18:01.940Z</time>
      </trkpt>
      <trkpt lat="44.02155" lon="2.5883">
        <ele>526</ele>
        <time>2021-10-31T09:18:02.940Z</time>
      </trkpt>
      <trkpt lat="44.02154" lon="2.58829">
        <ele>526</ele>
        <time>2021-10-31T09:18:03.940Z</time>
      </trkpt>
      <trkpt lat="44.02153" lon="2.58828">
        <ele>526</ele>
        <time>2021-10-31T09:18:04.940Z</time>
      </trkpt>
      <trkpt lat="44.02152" lon="2.58828">
        <ele>525</ele>
        <time>2021-10-31T09:18:05.940Z</time>
      </trkpt>
      <trkpt lat="44.02151" lon="2.58827">
        <ele>525</ele>
        <time>2021-10-31T09:18:06.940Z</time>
      </trkpt>
      <trkpt lat="44.0215" lon="2.58827">
        <ele>525</ele>
        <time>2021-10-31T09:18:07.940Z</time>
      </trkpt>
      <trkpt lat="44.02149" lon="2.58826">
        <ele>525</ele>
        <time>2021-10-31T09:18:08.940Z</time>
      </trkpt>
      <trkpt lat="44.02148" lon="2.58825">
        <ele>525</ele>
        <time>2021-10-31T09:18:09.940Z</time>
      </trkpt>
      <trkpt lat="44.02147" lon="2.58824">
        <ele>525</ele>
        <time>2021-10-31T09:18:10.940Z</time>
      </trkpt>
      <trkpt lat="44.02146" lon="2.58823">
        <ele>525</ele>
        <time>2021-10-31T09:18:11.940Z</time>
      </trkpt>
      <trkpt lat="44.02145" lon="2.58822">
        <ele>525</ele>
        <time>2021-10-31T09:18:12.940Z</time>
      </trkpt>
      <trkpt lat="44.02145" lon="2.58822">
        <ele>524</ele>
        <time>2021-10-31T09:18:13.940Z</time>
      </trkpt>
      <trkpt lat="44.02144" lon="2.58821">
        <ele>524</ele>
        <time>2021-10-31T09:18:14.940Z</time>
      </trkpt>
      <trkpt lat="44.02143" lon="2.58821">
        <ele>524</ele>
        <time>2021-10-31T09:18:15.940Z</time>
      </trkpt>
      <trkpt lat="44.02142" lon="2.5882">
        <ele>524</ele>
        <time>2021-10-31T09:18:16.940Z</time>
      </trkpt>
      <trkpt lat="44.02141" lon="2.58819">
        <ele>524</ele>
        <time>2021-10-31T09:18:17.940Z</time>
      </trkpt>
      <trkpt lat="44.02141" lon="2.58818">
        <ele>524</ele>
        <time>2021-10-31T09:18:18.940Z</time>
      </trkpt>
      <trkpt lat="44.0214" lon="2.58818">
        <ele>524</ele>
        <time>2021-10-31T09:18:19.940Z</time>
      </trkpt>
      <trkpt lat="44.02139" lon="2.58817">
        <ele>524</ele>
        <time>2021-10-31T09:18:20.940Z</time>
      </trkpt>
      <trkpt lat="44.02138" lon="2.58816">
        <ele>524</ele>
        <time>2021-10-31T09:18:21.940Z</time>
      </trkpt>
      <trkpt lat="44.02137" lon="2.58815">
        <ele>524</ele>
        <time>2021-10-31T09:18:22.940Z</time>
      </trkpt>
      <trkpt lat="44.02136" lon="2.58815">
        <ele>524</ele>
        <time>2021-10-31T09:18:23.940Z</time>
      </trkpt>
      <trkpt lat="44.02135" lon="2.58814">
        <ele>524</ele>
        <time>2021-10-31T09:18:24.940Z</time>
      </trkpt>
      <trkpt lat="44.02134" lon="2.58813">
        <ele>524</ele>
        <time>2021-10-31T09:18:25.940Z</time>
      </trkpt>
      <trkpt lat="44.02134" lon="2.58813">
        <ele>524</ele>
        <time>2021-10-31T09:18:26.940Z</time>
      </trkpt>
      <trkpt lat="44.02133" lon="2.58812">
        <ele>524</ele>
        <time>2021-10-31T09:18:27.940Z</time>
      </trkpt>
      <trkpt lat="44.02132" lon="2.58812">
        <ele>524</ele>
        <time>2021-10-31T09:18:28.940Z</time>
      </trkpt>
      <trkpt lat="44.02131" lon="2.58811">
        <ele>524</ele>
        <time>2021-10-31T09:18:29.940Z</time>
      </trkpt>
      <trkpt lat="44.0213" lon="2.58811">
        <ele>524</ele>
        <time>2021-10-31T09:18:30.940Z</time>
      </trkpt>
      <trkpt lat="44.02129" lon="2.5881">
        <ele>524</ele>
        <time>2021-10-31T09:18:31.940Z</time>
      </trkpt>
      <trkpt lat="44.02128" lon="2.5881">
        <ele>524</ele>
        <time>2021-10-31T09:18:32.940Z</time>
      </trkpt>
      <trkpt lat="44.02128" lon="2.58809">
        <ele>524</ele>
        <time>2021-10-31T09:18:33.940Z</time>
      </trkpt>
      <trkpt lat="44.02127" lon="2.58809">
        <ele>524</ele>
        <time>2021-10-31T09:18:34.940Z</time>
      </trkpt>
      <trkpt lat="44.02126" lon="2.58808">
        <ele>524</ele>
        <time>2021-10-31T09:18:35.940Z</time>
      </trkpt>
      <trkpt lat="44.02125" lon="2.58807">
        <ele>524</ele>
        <time>2021-10-31T09:18:36.940Z</time>
      </trkpt>
      <trkpt lat="44.02124" lon="2.58806">
        <ele>524</ele>
        <time>2021-10-31T09:18:37.940Z</time>
      </trkpt>
      <trkpt lat="44.02123" lon="2.58805">
        <ele>524</ele>
        <time>2021-10-31T09:18:38.940Z</time>
      </trkpt>
      <trkpt lat="44.02122" lon="2.58804">
        <ele>524</ele>
        <time>2021-10-31T09:18:39.940Z</time>
      </trkpt>
      <trkpt lat="44.02122" lon="2.58803">
        <ele>524</ele>
        <time>2021-10-31T09:18:40.940Z</time>
      </trkpt>
      <trkpt lat="44.02121" lon="2.58802">
        <ele>524</ele>
        <time>2021-10-31T09:18:41.940Z</time>
      </trkpt>
      <trkpt lat="44.0212" lon="2.58801">
        <ele>524</ele>
        <time>2021-10-31T09:18:42.940Z</time>
      </trkpt>
      <trkpt lat="44.02119" lon="2.588">
        <ele>524</ele>
        <time>2021-10-31T09:18:43.940Z</time>
      </trkpt>
      <trkpt lat="44.02118" lon="2.58799">
        <ele>524</ele>
        <time>2021-10-31T09:18:44.940Z</time>
      </trkpt>
      <trkpt lat="44.02117" lon="2.58798">
        <ele>524</ele>
        <time>2021-10-31T09:18:45.940Z</time>
      </trkpt>
      <trkpt lat="44.02117" lon="2.58797">
        <ele>524</ele>
        <time>2021-10-31T09:18:46.940Z</time>
      </trkpt>
      <trkpt lat="44.02116" lon="2.58796">
        <ele>524</ele>
        <time>2021-10-31T09:18:47.940Z</time>
      </trkpt>
      <trkpt lat="44.02115" lon="2.58795">
        <ele>524</ele>
        <time>2021-10-31T09:18:48.940Z</time>
      </trkpt>
      <trkpt lat="44.02114" lon="2.58794">
        <ele>524</ele>
        <time>2021-10-31T09:18:49.940Z</time>
      </trkpt>
      <trkpt lat="44.02113" lon="2.58793">
        <ele>525</ele>
        <time>2021-10-31T09:18:50.940Z</time>
      </trkpt>
      <trkpt lat="44.02113" lon="2.58792">
        <ele>525</ele>
        <time>2021-10-31T09:18:51.940Z</time>
      </trkpt>
      <trkpt lat="44.02112" lon="2.58791">
        <ele>525</ele>
        <time>2021-10-31T09:18:52.940Z</time>
      </trkpt>
      <trkpt lat="44.02111" lon="2.58791">
        <ele>525</ele>
        <time>2021-10-31T09:18:53.940Z</time>
      </trkpt>
      <trkpt lat="44.0211" lon="2.5879">
        <ele>525</ele>
        <time>2021-10-31T09:18:54.940Z</time>
      </trkpt>
      <trkpt lat="44.02109" lon="2.58789">
        <ele>525</ele>
        <time>2021-10-31T09:18:55.940Z</time>
      </trkpt>
      <trkpt lat="44.02109" lon="2.58788">
        <ele>525</ele>
        <time>2021-10-31T09:18:56.940Z</time>
      </trkpt>
      <trkpt lat="44.02108" lon="2.58786">
        <ele>525</ele>
        <time>2021-10-31T09:18:57.940Z</time>
      </trkpt>
      <trkpt lat="44.02107" lon="2.58786">
        <ele>525</ele>
        <time>2021-10-31T09:18:58.940Z</time>
      </trkpt>
      <trkpt lat="44.02107" lon="2.58785">
        <ele>525</ele>
        <time>2021-10-31T09:18:59.940Z</time>
      </trkpt>
      <trkpt lat="44.02106" lon="2.58784">
        <ele>524</ele>
        <time>2021-10-31T09:19:00.940Z</time>
      </trkpt>
      <trkpt lat="44.02106" lon="2.58784">
        <ele>525</ele>
        <time>2021-10-31T09:19:01.940Z</time>
      </trkpt>
      <trkpt lat="44.02106" lon="2.58784">
        <ele>525</ele>
        <time>2021-10-31T09:19:02.940Z</time>
      </trkpt>
      <trkpt lat="44.02105" lon="2.58784">
        <ele>525</ele>
        <time>2021-10-31T09:19:03.940Z</time>
      </trkpt>
      <trkpt lat="44.02102" lon="2.58782">
        <ele>525</ele>
        <time>2021-10-31T09:19:04.940Z</time>
      </trkpt>
      <trkpt lat="44.02102" lon="2.58781">
        <ele>525</ele>
        <time>2021-10-31T09:19:05.940Z</time>
      </trkpt>
      <trkpt lat="44.02101" lon="2.5878">
        <ele>525</ele>
        <time>2021-10-31T09:19:06.940Z</time>
      </trkpt>
      <trkpt lat="44.021" lon="2.58779">
        <ele>525</ele>
        <time>2021-10-31T09:19:07.940Z</time>
      </trkpt>
      <trkpt lat="44.021" lon="2.58779">
        <ele>525</ele>
        <time>2021-10-31T09:19:08.940Z</time>
      </trkpt>
      <trkpt lat="44.021" lon="2.58778">
        <ele>525</ele>
        <time>2021-10-31T09:19:09.940Z</time>
      </trkpt>
      <trkpt lat="44.02099" lon="2.58777">
        <ele>525</ele>
        <time>2021-10-31T09:19:10.940Z</time>
      </trkpt>
      <trkpt lat="44.02099" lon="2.58776">
        <ele>525</ele>
        <time>2021-10-31T09:19:11.940Z</time>
      </trkpt>
      <trkpt lat="44.02099" lon="2.58776">
        <ele>525</ele>
        <time>2021-10-31T09:19:12.940Z</time>
      </trkpt>
      <trkpt lat="44.02099" lon="2.58776">
        <ele>525</ele>
        <time>2021-10-31T09:19:13.940Z</time>
      </trkpt>
      <trkpt lat="44.02099" lon="2.58776">
        <ele>525</ele>
        <time>2021-10-31T09:19:14.940Z</time>
      </trkpt>
      <trkpt lat="44.02098" lon="2.58774">
        <ele>524</ele>
        <time>2021-10-31T09:19:15.940Z</time>
      </trkpt>
      <trkpt lat="44.02098" lon="2.58773">
        <ele>524</ele>
        <time>2021-10-31T09:19:16.940Z</time>
      </trkpt>
      <trkpt lat="44.02098" lon="2.58772">
        <ele>524</ele>
        <time>2021-10-31T09:19:17.940Z</time>
      </trkpt>
      <trkpt lat="44.02097" lon="2.58771">
        <ele>523</ele>
        <time>2021-10-31T09:19:18.940Z</time>
      </trkpt>
      <trkpt lat="44.02097" lon="2.5877">
        <ele>523</ele>
        <time>2021-10-31T09:19:19.940Z</time>
      </trkpt>
      <trkpt lat="44.02096" lon="2.58769">
        <ele>523</ele>
        <time>2021-10-31T09:19:20.940Z</time>
      </trkpt>
      <trkpt lat="44.02095" lon="2.58767">
        <ele>523</ele>
        <time>2021-10-31T09:19:21.940Z</time>
      </trkpt>
      <trkpt lat="44.02095" lon="2.58766">
        <ele>523</ele>
        <time>2021-10-31T09:19:22.940Z</time>
      </trkpt>
      <trkpt lat="44.02094" lon="2.58765">
        <ele>523</ele>
        <time>2021-10-31T09:19:23.940Z</time>
      </trkpt>
      <trkpt lat="44.02093" lon="2.58764">
        <ele>523</ele>
        <time>2021-10-31T09:19:24.940Z</time>
      </trkpt>
      <trkpt lat="44.02093" lon="2.58763">
        <ele>522</ele>
        <time>2021-10-31T09:19:25.940Z</time>
      </trkpt>
      <trkpt lat="44.02092" lon="2.58761">
        <ele>522</ele>
        <time>2021-10-31T09:19:26.940Z</time>
      </trkpt>
      <trkpt lat="44.02092" lon="2.5876">
        <ele>522</ele>
        <time>2021-10-31T09:19:27.940Z</time>
      </trkpt>
      <trkpt lat="44.02092" lon="2.5876">
        <ele>522</ele>
        <time>2021-10-31T09:19:28.940Z</time>
      </trkpt>
      <trkpt lat="44.02092" lon="2.58759">
        <ele>522</ele>
        <time>2021-10-31T09:19:29.940Z</time>
      </trkpt>
      <trkpt lat="44.02091" lon="2.58758">
        <ele>521</ele>
        <time>2021-10-31T09:19:30.940Z</time>
      </trkpt>
      <trkpt lat="44.0209" lon="2.58757">
        <ele>521</ele>
        <time>2021-10-31T09:19:31.940Z</time>
      </trkpt>
      <trkpt lat="44.0209" lon="2.58755">
        <ele>521</ele>
        <time>2021-10-31T09:19:32.940Z</time>
      </trkpt>
      <trkpt lat="44.02089" lon="2.58754">
        <ele>521</ele>
        <time>2021-10-31T09:19:33.940Z</time>
      </trkpt>
      <trkpt lat="44.02088" lon="2.58752">
        <ele>520</ele>
        <time>2021-10-31T09:19:34.940Z</time>
      </trkpt>
      <trkpt lat="44.02088" lon="2.58751">
        <ele>520</ele>
        <time>2021-10-31T09:19:35.940Z</time>
      </trkpt>
      <trkpt lat="44.02087" lon="2.58749">
        <ele>520</ele>
        <time>2021-10-31T09:19:36.940Z</time>
      </trkpt>
      <trkpt lat="44.02086" lon="2.58748">
        <ele>520</ele>
        <time>2021-10-31T09:19:37.940Z</time>
      </trkpt>
      <trkpt lat="44.02086" lon="2.58747">
        <ele>520</ele>
        <time>2021-10-31T09:19:38.940Z</time>
      </trkpt>
      <trkpt lat="44.02085" lon="2.58746">
        <ele>520</ele>
        <time>2021-10-31T09:19:39.940Z</time>
      </trkpt>
      <trkpt lat="44.02085" lon="2.58744">
        <ele>520</ele>
        <time>2021-10-31T09:19:40.940Z</time>
      </trkpt>
      <trkpt lat="44.02084" lon="2.58743">
        <ele>519</ele>
        <time>2021-10-31T09:19:41.940Z</time>
      </trkpt>
      <trkpt lat="44.02083" lon="2.58742">
        <ele>519</ele>
        <time>2021-10-31T09:19:42.940Z</time>
      </trkpt>
      <trkpt lat="44.02082" lon="2.5874">
        <ele>519</ele>
        <time>2021-10-31T09:19:43.940Z</time>
      </trkpt>
      <trkpt lat="44.02082" lon="2.58738">
        <ele>519</ele>
        <time>2021-10-31T09:19:44.940Z</time>
      </trkpt>
      <trkpt lat="44.02081" lon="2.58737">
        <ele>519</ele>
        <time>2021-10-31T09:19:45.940Z</time>
      </trkpt>
      <trkpt lat="44.02081" lon="2.58736">
        <ele>519</ele>
        <time>2021-10-31T09:19:46.940Z</time>
      </trkpt>
      <trkpt lat="44.0208" lon="2.58735">
        <ele>519</ele>
        <time>2021-10-31T09:19:47.940Z</time>
      </trkpt>
      <trkpt lat="44.0208" lon="2.58734">
        <ele>519</ele>
        <time>2021-10-31T09:19:48.940Z</time>
      </trkpt>
      <trkpt lat="44.02079" lon="2.58733">
        <ele>519</ele>
        <time>2021-10-31T09:19:49.940Z</time>
      </trkpt>
      <trkpt lat="44.02079" lon="2.58732">
        <ele>519</ele>
        <time>2021-10-31T09:19:50.940Z</time>
      </trkpt>
      <trkpt lat="44.02078" lon="2.58731">
        <ele>519</ele>
        <time>2021-10-31T09:19:51.940Z</time>
      </trkpt>
      <trkpt lat="44.02078" lon="2.58731">
        <ele>519</ele>
        <time>2021-10-31T09:19:52.940Z</time>
      </trkpt>
      <trkpt lat="44.02078" lon="2.58731">
        <ele>519</ele>
        <time>2021-10-31T09:19:53.940Z</time>
      </trkpt>
      <trkpt lat="44.02077" lon="2.58729">
        <ele>518</ele>
        <time>2021-10-31T09:19:54.940Z</time>
      </trkpt>
      <trkpt lat="44.02077" lon="2.58729">
        <ele>518</ele>
        <time>2021-10-31T09:19:55.940Z</time>
      </trkpt>
      <trkpt lat="44.02077" lon="2.58728">
        <ele>518</ele>
        <time>2021-10-31T09:19:56.940Z</time>
      </trkpt>
      <trkpt lat="44.02077" lon="2.58728">
        <ele>518</ele>
        <time>2021-10-31T09:19:57.940Z</time>
      </trkpt>
      <trkpt lat="44.02077" lon="2.58728">
        <ele>519</ele>
        <time>2021-10-31T09:19:58.940Z</time>
      </trkpt>
      <trkpt lat="44.02077" lon="2.58729">
        <ele>519</ele>
        <time>2021-10-31T09:19:59.940Z</time>
      </trkpt>
      <trkpt lat="44.02076" lon="2.58727">
        <ele>518</ele>
        <time>2021-10-31T09:20:00.940Z</time>
      </trkpt>
      <trkpt lat="44.02075" lon="2.58726">
        <ele>518</ele>
        <time>2021-10-31T09:20:01.940Z</time>
      </trkpt>
      <trkpt lat="44.02075" lon="2.58725">
        <ele>518</ele>
        <time>2021-10-31T09:20:02.940Z</time>
      </trkpt>
      <trkpt lat="44.02074" lon="2.58724">
        <ele>518</ele>
        <time>2021-10-31T09:20:03.940Z</time>
      </trkpt>
      <trkpt lat="44.02073" lon="2.58723">
        <ele>518</ele>
        <time>2021-10-31T09:20:04.940Z</time>
      </trkpt>
      <trkpt lat="44.02073" lon="2.58722">
        <ele>518</ele>
        <time>2021-10-31T09:20:05.940Z</time>
      </trkpt>
      <trkpt lat="44.02072" lon="2.58721">
        <ele>518</ele>
        <time>2021-10-31T09:20:06.940Z</time>
      </trkpt>
      <trkpt lat="44.02072" lon="2.58721">
        <ele>518</ele>
        <time>2021-10-31T09:20:07.940Z</time>
      </trkpt>
      <trkpt lat="44.02071" lon="2.5872">
        <ele>518</ele>
        <time>2021-10-31T09:20:08.940Z</time>
      </trkpt>
      <trkpt lat="44.0207" lon="2.58719">
        <ele>518</ele>
        <time>2021-10-31T09:20:09.940Z</time>
      </trkpt>
      <trkpt lat="44.0207" lon="2.58718">
        <ele>519</ele>
        <time>2021-10-31T09:20:10.940Z</time>
      </trkpt>
      <trkpt lat="44.0207" lon="2.58718">
        <ele>519</ele>
        <time>2021-10-31T09:20:11.940Z</time>
      </trkpt>
      <trkpt lat="44.02069" lon="2.58718">
        <ele>519</ele>
        <time>2021-10-31T09:20:12.940Z</time>
      </trkpt>
      <trkpt lat="44.02069" lon="2.58717">
        <ele>519</ele>
        <time>2021-10-31T09:20:13.940Z</time>
      </trkpt>
      <trkpt lat="44.02069" lon="2.58717">
        <ele>519</ele>
        <time>2021-10-31T09:20:14.940Z</time>
      </trkpt>
      <trkpt lat="44.02069" lon="2.58716">
        <ele>519</ele>
        <time>2021-10-31T09:20:15.940Z</time>
      </trkpt>
      <trkpt lat="44.02067" lon="2.58714">
        <ele>518</ele>
        <time>2021-10-31T09:20:16.940Z</time>
      </trkpt>
      <trkpt lat="44.02066" lon="2.58713">
        <ele>518</ele>
        <time>2021-10-31T09:20:17.940Z</time>
      </trkpt>
      <trkpt lat="44.02066" lon="2.58712">
        <ele>518</ele>
        <time>2021-10-31T09:20:18.940Z</time>
      </trkpt>
      <trkpt lat="44.02065" lon="2.58711">
        <ele>518</ele>
        <time>2021-10-31T09:20:19.940Z</time>
      </trkpt>
      <trkpt lat="44.02065" lon="2.58709">
        <ele>518</ele>
        <time>2021-10-31T09:20:20.940Z</time>
      </trkpt>
      <trkpt lat="44.02064" lon="2.58708">
        <ele>518</ele>
        <time>2021-10-31T09:20:21.940Z</time>
      </trkpt>
      <trkpt lat="44.02063" lon="2.58707">
        <ele>518</ele>
        <time>2021-10-31T09:20:22.940Z</time>
      </trkpt>
      <trkpt lat="44.02063" lon="2.58705">
        <ele>518</ele>
        <time>2021-10-31T09:20:23.940Z</time>
      </trkpt>
      <trkpt lat="44.02062" lon="2.58704">
        <ele>518</ele>
        <time>2021-10-31T09:20:24.940Z</time>
      </trkpt>
      <trkpt lat="44.02062" lon="2.58703">
        <ele>518</ele>
        <time>2021-10-31T09:20:25.940Z</time>
      </trkpt>
      <trkpt lat="44.02061" lon="2.58701">
        <ele>518</ele>
        <time>2021-10-31T09:20:26.940Z</time>
      </trkpt>
      <trkpt lat="44.02061" lon="2.587">
        <ele>518</ele>
        <time>2021-10-31T09:20:27.940Z</time>
      </trkpt>
      <trkpt lat="44.0206" lon="2.58699">
        <ele>518</ele>
        <time>2021-10-31T09:20:28.940Z</time>
      </trkpt>
      <trkpt lat="44.0206" lon="2.58698">
        <ele>518</ele>
        <time>2021-10-31T09:20:29.940Z</time>
      </trkpt>
      <trkpt lat="44.02059" lon="2.58697">
        <ele>518</ele>
        <time>2021-10-31T09:20:30.940Z</time>
      </trkpt>
      <trkpt lat="44.02059" lon="2.58695">
        <ele>518</ele>
        <time>2021-10-31T09:20:31.940Z</time>
      </trkpt>
      <trkpt lat="44.02058" lon="2.58694">
        <ele>517</ele>
        <time>2021-10-31T09:20:32.940Z</time>
      </trkpt>
      <trkpt lat="44.02057" lon="2.58693">
        <ele>517</ele>
        <time>2021-10-31T09:20:33.940Z</time>
      </trkpt>
      <trkpt lat="44.02057" lon="2.58691">
        <ele>517</ele>
        <time>2021-10-31T09:20:34.940Z</time>
      </trkpt>
      <trkpt lat="44.02056" lon="2.5869">
        <ele>517</ele>
        <time>2021-10-31T09:20:35.940Z</time>
      </trkpt>
      <trkpt lat="44.02056" lon="2.58689">
        <ele>517</ele>
        <time>2021-10-31T09:20:36.940Z</time>
      </trkpt>
      <trkpt lat="44.02055" lon="2.58687">
        <ele>517</ele>
        <time>2021-10-31T09:20:37.940Z</time>
      </trkpt>
      <trkpt lat="44.02054" lon="2.58686">
        <ele>517</ele>
        <time>2021-10-31T09:20:38.940Z</time>
      </trkpt>
      <trkpt lat="44.02054" lon="2.58685">
        <ele>517</ele>
        <time>2021-10-31T09:20:39.940Z</time>
      </trkpt>
      <trkpt lat="44.02053" lon="2.58684">
        <ele>517</ele>
        <time>2021-10-31T09:20:40.940Z</time>
      </trkpt>
      <trkpt lat="44.02052" lon="2.58682">
        <ele>517</ele>
        <time>2021-10-31T09:20:41.940Z</time>
      </trkpt>
      <trkpt lat="44.02052" lon="2.58681">
        <ele>517</ele>
        <time>2021-10-31T09:20:42.940Z</time>
      </trkpt>
      <trkpt lat="44.02051" lon="2.58679">
        <ele>517</ele>
        <time>2021-10-31T09:20:43.940Z</time>
      </trkpt>
      <trkpt lat="44.0205" lon="2.58678">
        <ele>517</ele>
        <time>2021-10-31T09:20:44.940Z</time>
      </trkpt>
      <trkpt lat="44.02049" lon="2.58677">
        <ele>517</ele>
        <time>2021-10-31T09:20:45.940Z</time>
      </trkpt>
      <trkpt lat="44.02049" lon="2.58675">
        <ele>517</ele>
        <time>2021-10-31T09:20:46.940Z</time>
      </trkpt>
      <trkpt lat="44.02048" lon="2.58674">
        <ele>517</ele>
        <time>2021-10-31T09:20:47.940Z</time>
      </trkpt>
      <trkpt lat="44.02048" lon="2.58673">
        <ele>517</ele>
        <time>2021-10-31T09:20:48.940Z</time>
      </trkpt>
      <trkpt lat="44.02047" lon="2.58672">
        <ele>517</ele>
        <time>2021-10-31T09:20:49.940Z</time>
      </trkpt>
      <trkpt lat="44.02047" lon="2.5867">
        <ele>517</ele>
        <time>2021-10-31T09:20:50.940Z</time>
      </trkpt>
      <trkpt lat="44.02046" lon="2.58669">
        <ele>517</ele>
        <time>2021-10-31T09:20:51.940Z</time>
      </trkpt>
      <trkpt lat="44.02045" lon="2.58667">
        <ele>517</ele>
        <time>2021-10-31T09:20:52.940Z</time>
      </trkpt>
      <trkpt lat="44.02045" lon="2.58665">
        <ele>517</ele>
        <time>2021-10-31T09:20:53.940Z</time>
      </trkpt>
      <trkpt lat="44.02045" lon="2.58664">
        <ele>516</ele>
        <time>2021-10-31T09:20:54.940Z</time>
      </trkpt>
      <trkpt lat="44.02044" lon="2.58663">
        <ele>516</ele>
        <time>2021-10-31T09:20:55.940Z</time>
      </trkpt>
      <trkpt lat="44.02044" lon="2.58661">
        <ele>516</ele>
        <time>2021-10-31T09:20:56.940Z</time>
      </trkpt>
      <trkpt lat="44.02043" lon="2.5866">
        <ele>516</ele>
        <time>2021-10-31T09:20:57.940Z</time>
      </trkpt>
      <trkpt lat="44.02043" lon="2.58658">
        <ele>516</ele>
        <time>2021-10-31T09:20:58.940Z</time>
      </trkpt>
      <trkpt lat="44.02042" lon="2.58657">
        <ele>516</ele>
        <time>2021-10-31T09:20:59.940Z</time>
      </trkpt>
      <trkpt lat="44.02042" lon="2.58655">
        <ele>516</ele>
        <time>2021-10-31T09:21:00.940Z</time>
      </trkpt>
      <trkpt lat="44.02041" lon="2.58654">
        <ele>516</ele>
        <time>2021-10-31T09:21:01.940Z</time>
      </trkpt>
      <trkpt lat="44.02041" lon="2.58653">
        <ele>516</ele>
        <time>2021-10-31T09:21:02.940Z</time>
      </trkpt>
      <trkpt lat="44.0204" lon="2.58652">
        <ele>516</ele>
        <time>2021-10-31T09:21:03.940Z</time>
      </trkpt>
      <trkpt lat="44.0204" lon="2.58651">
        <ele>516</ele>
        <time>2021-10-31T09:21:04.940Z</time>
      </trkpt>
      <trkpt lat="44.02039" lon="2.58649">
        <ele>516</ele>
        <time>2021-10-31T09:21:05.940Z</time>
      </trkpt>
      <trkpt lat="44.02038" lon="2.58648">
        <ele>516</ele>
        <time>2021-10-31T09:21:06.940Z</time>
      </trkpt>
      <trkpt lat="44.02038" lon="2.58646">
        <ele>516</ele>
        <time>2021-10-31T09:21:07.940Z</time>
      </trkpt>
      <trkpt lat="44.02037" lon="2.58645">
        <ele>516</ele>
        <time>2021-10-31T09:21:08.940Z</time>
      </trkpt>
      <trkpt lat="44.02037" lon="2.58644">
        <ele>516</ele>
        <time>2021-10-31T09:21:09.940Z</time>
      </trkpt>
      <trkpt lat="44.02036" lon="2.58642">
        <ele>516</ele>
        <time>2021-10-31T09:21:10.940Z</time>
      </trkpt>
      <trkpt lat="44.02036" lon="2.58641">
        <ele>516</ele>
        <time>2021-10-31T09:21:11.940Z</time>
      </trkpt>
      <trkpt lat="44.02035" lon="2.5864">
        <ele>516</ele>
        <time>2021-10-31T09:21:12.940Z</time>
      </trkpt>
      <trkpt lat="44.02034" lon="2.58638">
        <ele>515</ele>
        <time>2021-10-31T09:21:13.940Z</time>
      </trkpt>
      <trkpt lat="44.02034" lon="2.58637">
        <ele>515</ele>
        <time>2021-10-31T09:21:14.940Z</time>
      </trkpt>
      <trkpt lat="44.02033" lon="2.58636">
        <ele>515</ele>
        <time>2021-10-31T09:21:15.940Z</time>
      </trkpt>
      <trkpt lat="44.02033" lon="2.58635">
        <ele>515</ele>
        <time>2021-10-31T09:21:16.940Z</time>
      </trkpt>
      <trkpt lat="44.02032" lon="2.58634">
        <ele>515</ele>
        <time>2021-10-31T09:21:17.940Z</time>
      </trkpt>
      <trkpt lat="44.02031" lon="2.58633">
        <ele>515</ele>
        <time>2021-10-31T09:21:18.940Z</time>
      </trkpt>
      <trkpt lat="44.02031" lon="2.58632">
        <ele>515</ele>
        <time>2021-10-31T09:21:19.940Z</time>
      </trkpt>
      <trkpt lat="44.0203" lon="2.58631">
        <ele>515</ele>
        <time>2021-10-31T09:21:20.940Z</time>
      </trkpt>
      <trkpt lat="44.02029" lon="2.5863">
        <ele>515</ele>
        <time>2021-10-31T09:21:21.940Z</time>
      </trkpt>
      <trkpt lat="44.02029" lon="2.58629">
        <ele>515</ele>
        <time>2021-10-31T09:21:22.940Z</time>
      </trkpt>
      <trkpt lat="44.02028" lon="2.58628">
        <ele>515</ele>
        <time>2021-10-31T09:21:23.940Z</time>
      </trkpt>
      <trkpt lat="44.02027" lon="2.58627">
        <ele>515</ele>
        <time>2021-10-31T09:21:24.940Z</time>
      </trkpt>
      <trkpt lat="44.02026" lon="2.58626">
        <ele>515</ele>
        <time>2021-10-31T09:21:25.940Z</time>
      </trkpt>
      <trkpt lat="44.02025" lon="2.58625">
        <ele>515</ele>
        <time>2021-10-31T09:21:26.940Z</time>
      </trkpt>
      <trkpt lat="44.02025" lon="2.58624">
        <ele>515</ele>
        <time>2021-10-31T09:21:27.940Z</time>
      </trkpt>
      <trkpt lat="44.02024" lon="2.58623">
        <ele>514</ele>
        <time>2021-10-31T09:21:28.940Z</time>
      </trkpt>
      <trkpt lat="44.02023" lon="2.58623">
        <ele>514</ele>
        <time>2021-10-31T09:21:29.940Z</time>
      </trkpt>
      <trkpt lat="44.02022" lon="2.58622">
        <ele>514</ele>
        <time>2021-10-31T09:21:30.940Z</time>
      </trkpt>
      <trkpt lat="44.02021" lon="2.58621">
        <ele>514</ele>
        <time>2021-10-31T09:21:31.940Z</time>
      </trkpt>
      <trkpt lat="44.02021" lon="2.58621">
        <ele>514</ele>
        <time>2021-10-31T09:21:32.940Z</time>
      </trkpt>
      <trkpt lat="44.0202" lon="2.5862">
        <ele>514</ele>
        <time>2021-10-31T09:21:33.940Z</time>
      </trkpt>
      <trkpt lat="44.02019" lon="2.58619">
        <ele>514</ele>
        <time>2021-10-31T09:21:34.940Z</time>
      </trkpt>
      <trkpt lat="44.02018" lon="2.58618">
        <ele>514</ele>
        <time>2021-10-31T09:21:35.940Z</time>
      </trkpt>
      <trkpt lat="44.02017" lon="2.58617">
        <ele>514</ele>
        <time>2021-10-31T09:21:36.940Z</time>
      </trkpt>
      <trkpt lat="44.02016" lon="2.58616">
        <ele>514</ele>
        <time>2021-10-31T09:21:37.940Z</time>
      </trkpt>
      <trkpt lat="44.02016" lon="2.58615">
        <ele>514</ele>
        <time>2021-10-31T09:21:38.940Z</time>
      </trkpt>
      <trkpt lat="44.02015" lon="2.58614">
        <ele>513</ele>
        <time>2021-10-31T09:21:39.940Z</time>
      </trkpt>
      <trkpt lat="44.02014" lon="2.58613">
        <ele>513</ele>
        <time>2021-10-31T09:21:40.940Z</time>
      </trkpt>
      <trkpt lat="44.02013" lon="2.58612">
        <ele>513</ele>
        <time>2021-10-31T09:21:41.940Z</time>
      </trkpt>
      <trkpt lat="44.02013" lon="2.58611">
        <ele>513</ele>
        <time>2021-10-31T09:21:42.940Z</time>
      </trkpt>
      <trkpt lat="44.02012" lon="2.5861">
        <ele>513</ele>
        <time>2021-10-31T09:21:43.940Z</time>
      </trkpt>
      <trkpt lat="44.02011" lon="2.58609">
        <ele>513</ele>
        <time>2021-10-31T09:21:44.940Z</time>
      </trkpt>
      <trkpt lat="44.02011" lon="2.58608">
        <ele>513</ele>
        <time>2021-10-31T09:21:45.940Z</time>
      </trkpt>
      <trkpt lat="44.0201" lon="2.58607">
        <ele>513</ele>
        <time>2021-10-31T09:21:46.940Z</time>
      </trkpt>
      <trkpt lat="44.0201" lon="2.58607">
        <ele>513</ele>
        <time>2021-10-31T09:21:47.940Z</time>
      </trkpt>
      <trkpt lat="44.02009" lon="2.58607">
        <ele>513</ele>
        <time>2021-10-31T09:21:48.940Z</time>
      </trkpt>
      <trkpt lat="44.02009" lon="2.58607">
        <ele>513</ele>
        <time>2021-10-31T09:21:49.940Z</time>
      </trkpt>
      <trkpt lat="44.02008" lon="2.58607">
        <ele>513</ele>
        <time>2021-10-31T09:21:50.940Z</time>
      </trkpt>
      <trkpt lat="44.02008" lon="2.58607">
        <ele>513</ele>
        <time>2021-10-31T09:21:51.940Z</time>
      </trkpt>
      <trkpt lat="44.02007" lon="2.58607">
        <ele>513</ele>
        <time>2021-10-31T09:21:52.940Z</time>
      </trkpt>
      <trkpt lat="44.02007" lon="2.58607">
        <ele>513</ele>
        <time>2021-10-31T09:21:53.940Z</time>
      </trkpt>
      <trkpt lat="44.02007" lon="2.58607">
        <ele>513</ele>
        <time>2021-10-31T09:21:54.940Z</time>
      </trkpt>
      <trkpt lat="44.02006" lon="2.58604">
        <ele>512</ele>
        <time>2021-10-31T09:21:55.940Z</time>
      </trkpt>
      <trkpt lat="44.02006" lon="2.58604">
        <ele>512</ele>
        <time>2021-10-31T09:21:56.940Z</time>
      </trkpt>
      <trkpt lat="44.02006" lon="2.58603">
        <ele>512</ele>
        <time>2021-10-31T09:21:57.940Z</time>
      </trkpt>
      <trkpt lat="44.02006" lon="2.58602">
        <ele>512</ele>
        <time>2021-10-31T09:21:58.940Z</time>
      </trkpt>
      <trkpt lat="44.02006" lon="2.58601">
        <ele>512</ele>
        <time>2021-10-31T09:21:59.940Z</time>
      </trkpt>
      <trkpt lat="44.02006" lon="2.58602">
        <ele>511</ele>
        <time>2021-10-31T09:22:00.940Z</time>
      </trkpt>
      <trkpt lat="44.02007" lon="2.58602">
        <ele>511</ele>
        <time>2021-10-31T09:22:01.940Z</time>
      </trkpt>
      <trkpt lat="44.02007" lon="2.58602">
        <ele>511</ele>
        <time>2021-10-31T09:22:02.940Z</time>
      </trkpt>
      <trkpt lat="44.02008" lon="2.58602">
        <ele>511</ele>
        <time>2021-10-31T09:22:03.940Z</time>
      </trkpt>
      <trkpt lat="44.02008" lon="2.58602">
        <ele>511</ele>
        <time>2021-10-31T09:22:04.940Z</time>
      </trkpt>
      <trkpt lat="44.02009" lon="2.58602">
        <ele>511</ele>
        <time>2021-10-31T09:22:05.940Z</time>
      </trkpt>
      <trkpt lat="44.02009" lon="2.58602">
        <ele>511</ele>
        <time>2021-10-31T09:22:06.940Z</time>
      </trkpt>
      <trkpt lat="44.02009" lon="2.58602">
        <ele>511</ele>
        <time>2021-10-31T09:22:07.940Z</time>
      </trkpt>
      <trkpt lat="44.02009" lon="2.58602">
        <ele>511</ele>
        <time>2021-10-31T09:22:08.940Z</time>
      </trkpt>
      <trkpt lat="44.02009" lon="2.586">
        <ele>511</ele>
        <time>2021-10-31T09:22:09.940Z</time>
      </trkpt>
      <trkpt lat="44.02009" lon="2.58599">
        <ele>511</ele>
        <time>2021-10-31T09:22:10.940Z</time>
      </trkpt>
      <trkpt lat="44.02009" lon="2.58598">
        <ele>511</ele>
        <time>2021-10-31T09:22:11.940Z</time>
      </trkpt>
      <trkpt lat="44.02009" lon="2.58597">
        <ele>511</ele>
        <time>2021-10-31T09:22:12.940Z</time>
      </trkpt>
      <trkpt lat="44.02009" lon="2.58596">
        <ele>511</ele>
        <time>2021-10-31T09:22:13.940Z</time>
      </trkpt>
      <trkpt lat="44.02009" lon="2.58594">
        <ele>511</ele>
        <time>2021-10-31T09:22:14.940Z</time>
      </trkpt>
      <trkpt lat="44.02009" lon="2.58593">
        <ele>511</ele>
        <time>2021-10-31T09:22:15.940Z</time>
      </trkpt>
      <trkpt lat="44.02009" lon="2.58592">
        <ele>511</ele>
        <time>2021-10-31T09:22:16.940Z</time>
      </trkpt>
      <trkpt lat="44.02009" lon="2.58591">
        <ele>511</ele>
        <time>2021-10-31T09:22:17.940Z</time>
      </trkpt>
      <trkpt lat="44.02009" lon="2.5859">
        <ele>511</ele>
        <time>2021-10-31T09:22:18.940Z</time>
      </trkpt>
      <trkpt lat="44.02008" lon="2.58589">
        <ele>511</ele>
        <time>2021-10-31T09:22:19.940Z</time>
      </trkpt>
      <trkpt lat="44.02008" lon="2.58588">
        <ele>511</ele>
        <time>2021-10-31T09:22:20.940Z</time>
      </trkpt>
      <trkpt lat="44.02008" lon="2.58587">
        <ele>511</ele>
        <time>2021-10-31T09:22:21.940Z</time>
      </trkpt>
      <trkpt lat="44.02007" lon="2.58586">
        <ele>511</ele>
        <time>2021-10-31T09:22:22.940Z</time>
      </trkpt>
      <trkpt lat="44.02007" lon="2.58584">
        <ele>511</ele>
        <time>2021-10-31T09:22:23.940Z</time>
      </trkpt>
      <trkpt lat="44.02006" lon="2.58582">
        <ele>511</ele>
        <time>2021-10-31T09:22:24.940Z</time>
      </trkpt>
      <trkpt lat="44.02006" lon="2.5858">
        <ele>511</ele>
        <time>2021-10-31T09:22:25.940Z</time>
      </trkpt>
      <trkpt lat="44.02006" lon="2.58578">
        <ele>511</ele>
        <time>2021-10-31T09:22:26.940Z</time>
      </trkpt>
      <trkpt lat="44.02006" lon="2.58577">
        <ele>511</ele>
        <time>2021-10-31T09:22:27.940Z</time>
      </trkpt>
      <trkpt lat="44.02006" lon="2.58575">
        <ele>511</ele>
        <time>2021-10-31T09:22:28.940Z</time>
      </trkpt>
      <trkpt lat="44.02006" lon="2.58573">
        <ele>511</ele>
        <time>2021-10-31T09:22:29.940Z</time>
      </trkpt>
      <trkpt lat="44.02006" lon="2.58571">
        <ele>511</ele>
        <time>2021-10-31T09:22:30.940Z</time>
      </trkpt>
      <trkpt lat="44.02006" lon="2.58569">
        <ele>511</ele>
        <time>2021-10-31T09:22:31.940Z</time>
      </trkpt>
      <trkpt lat="44.02006" lon="2.58567">
        <ele>511</ele>
        <time>2021-10-31T09:22:32.940Z</time>
      </trkpt>
      <trkpt lat="44.02006" lon="2.58565">
        <ele>511</ele>
        <time>2021-10-31T09:22:33.940Z</time>
      </trkpt>
      <trkpt lat="44.02006" lon="2.58563">
        <ele>511</ele>
        <time>2021-10-31T09:22:34.940Z</time>
      </trkpt>
      <trkpt lat="44.02006" lon="2.58561">
        <ele>511</ele>
        <time>2021-10-31T09:22:35.940Z</time>
      </trkpt>
      <trkpt lat="44.02006" lon="2.58559">
        <ele>511</ele>
        <time>2021-10-31T09:22:36.940Z</time>
      </trkpt>
      <trkpt lat="44.02006" lon="2.58557">
        <ele>511</ele>
        <time>2021-10-31T09:22:37.940Z</time>
      </trkpt>
      <trkpt lat="44.02006" lon="2.58555">
        <ele>511</ele>
        <time>2021-10-31T09:22:38.940Z</time>
      </trkpt>
      <trkpt lat="44.02006" lon="2.58553">
        <ele>511</ele>
        <time>2021-10-31T09:22:39.940Z</time>
      </trkpt>
      <trkpt lat="44.02006" lon="2.58552">
        <ele>511</ele>
        <time>2021-10-31T09:22:40.940Z</time>
      </trkpt>
      <trkpt lat="44.02007" lon="2.5855">
        <ele>511</ele>
        <time>2021-10-31T09:22:41.940Z</time>
      </trkpt>
      <trkpt lat="44.02007" lon="2.58548">
        <ele>511</ele>
        <time>2021-10-31T09:22:42.940Z</time>
      </trkpt>
      <trkpt lat="44.02007" lon="2.58546">
        <ele>511</ele>
        <time>2021-10-31T09:22:43.940Z</time>
      </trkpt>
      <trkpt lat="44.02007" lon="2.58544">
        <ele>511</ele>
        <time>2021-10-31T09:22:44.940Z</time>
      </trkpt>
      <trkpt lat="44.02006" lon="2.58542">
        <ele>511</ele>
        <time>2021-10-31T09:22:45.940Z</time>
      </trkpt>
      <trkpt lat="44.02006" lon="2.5854">
        <ele>511</ele>
        <time>2021-10-31T09:22:46.940Z</time>
      </trkpt>
      <trkpt lat="44.02006" lon="2.58539">
        <ele>511</ele>
        <time>2021-10-31T09:22:47.940Z</time>
      </trkpt>
      <trkpt lat="44.02006" lon="2.58537">
        <ele>511</ele>
        <time>2021-10-31T09:22:48.940Z</time>
      </trkpt>
      <trkpt lat="44.02006" lon="2.58535">
        <ele>511</ele>
        <time>2021-10-31T09:22:49.940Z</time>
      </trkpt>
      <trkpt lat="44.02006" lon="2.58533">
        <ele>511</ele>
        <time>2021-10-31T09:22:50.940Z</time>
      </trkpt>
      <trkpt lat="44.02006" lon="2.58531">
        <ele>511</ele>
        <time>2021-10-31T09:22:51.940Z</time>
      </trkpt>
      <trkpt lat="44.02006" lon="2.58528">
        <ele>511</ele>
        <time>2021-10-31T09:22:52.940Z</time>
      </trkpt>
      <trkpt lat="44.02006" lon="2.58526">
        <ele>511</ele>
        <time>2021-10-31T09:22:53.940Z</time>
      </trkpt>
      <trkpt lat="44.02006" lon="2.58524">
        <ele>511</ele>
        <time>2021-10-31T09:22:54.940Z</time>
      </trkpt>
      <trkpt lat="44.02006" lon="2.58522">
        <ele>511</ele>
        <time>2021-10-31T09:22:55.940Z</time>
      </trkpt>
      <trkpt lat="44.02006" lon="2.58521">
        <ele>511</ele>
        <time>2021-10-31T09:22:56.940Z</time>
      </trkpt>
      <trkpt lat="44.02006" lon="2.58519">
        <ele>511</ele>
        <time>2021-10-31T09:22:57.940Z</time>
      </trkpt>
      <trkpt lat="44.02006" lon="2.58517">
        <ele>511</ele>
        <time>2021-10-31T09:22:58.940Z</time>
      </trkpt>
      <trkpt lat="44.02006" lon="2.58515">
        <ele>511</ele>
        <time>2021-10-31T09:22:59.940Z</time>
      </trkpt>
      <trkpt lat="44.02006" lon="2.58513">
        <ele>511</ele>
        <time>2021-10-31T09:23:00.940Z</time>
      </trkpt>
      <trkpt lat="44.02006" lon="2.58511">
        <ele>511</ele>
        <time>2021-10-31T09:23:01.940Z</time>
      </trkpt>
      <trkpt lat="44.02006" lon="2.58509">
        <ele>511</ele>
        <time>2021-10-31T09:23:02.940Z</time>
      </trkpt>
      <trkpt lat="44.02006" lon="2.58507">
        <ele>511</ele>
        <time>2021-10-31T09:23:03.940Z</time>
      </trkpt>
      <trkpt lat="44.02006" lon="2.58505">
        <ele>511</ele>
        <time>2021-10-31T09:23:04.940Z</time>
      </trkpt>
      <trkpt lat="44.02006" lon="2.58503">
        <ele>511</ele>
        <time>2021-10-31T09:23:05.940Z</time>
      </trkpt>
      <trkpt lat="44.02006" lon="2.58501">
        <ele>510</ele>
        <time>2021-10-31T09:23:06.940Z</time>
      </trkpt>
      <trkpt lat="44.02006" lon="2.585">
        <ele>510</ele>
        <time>2021-10-31T09:23:07.940Z</time>
      </trkpt>
      <trkpt lat="44.02006" lon="2.58499">
        <ele>510</ele>
        <time>2021-10-31T09:23:08.940Z</time>
      </trkpt>
      <trkpt lat="44.02006" lon="2.58497">
        <ele>510</ele>
        <time>2021-10-31T09:23:09.940Z</time>
      </trkpt>
      <trkpt lat="44.02006" lon="2.58496">
        <ele>510</ele>
        <time>2021-10-31T09:23:10.940Z</time>
      </trkpt>
      <trkpt lat="44.02006" lon="2.58494">
        <ele>510</ele>
        <time>2021-10-31T09:23:11.940Z</time>
      </trkpt>
      <trkpt lat="44.02006" lon="2.58492">
        <ele>509</ele>
        <time>2021-10-31T09:23:12.940Z</time>
      </trkpt>
      <trkpt lat="44.02005" lon="2.5849">
        <ele>509</ele>
        <time>2021-10-31T09:23:13.940Z</time>
      </trkpt>
      <trkpt lat="44.02005" lon="2.58488">
        <ele>509</ele>
        <time>2021-10-31T09:23:14.940Z</time>
      </trkpt>
      <trkpt lat="44.02005" lon="2.58486">
        <ele>509</ele>
        <time>2021-10-31T09:23:15.940Z</time>
      </trkpt>
      <trkpt lat="44.02005" lon="2.58485">
        <ele>509</ele>
        <time>2021-10-31T09:23:16.940Z</time>
      </trkpt>
      <trkpt lat="44.02004" lon="2.58483">
        <ele>509</ele>
        <time>2021-10-31T09:23:17.940Z</time>
      </trkpt>
      <trkpt lat="44.02004" lon="2.58482">
        <ele>508</ele>
        <time>2021-10-31T09:23:18.940Z</time>
      </trkpt>
      <trkpt lat="44.02004" lon="2.5848">
        <ele>508</ele>
        <time>2021-10-31T09:23:19.940Z</time>
      </trkpt>
      <trkpt lat="44.02004" lon="2.58478">
        <ele>508</ele>
        <time>2021-10-31T09:23:20.940Z</time>
      </trkpt>
      <trkpt lat="44.02004" lon="2.58476">
        <ele>508</ele>
        <time>2021-10-31T09:23:21.940Z</time>
      </trkpt>
      <trkpt lat="44.02003" lon="2.58475">
        <ele>508</ele>
        <time>2021-10-31T09:23:22.940Z</time>
      </trkpt>
      <trkpt lat="44.02003" lon="2.58473">
        <ele>507</ele>
        <time>2021-10-31T09:23:23.940Z</time>
      </trkpt>
      <trkpt lat="44.02003" lon="2.58471">
        <ele>507</ele>
        <time>2021-10-31T09:23:24.940Z</time>
      </trkpt>
      <trkpt lat="44.02003" lon="2.58469">
        <ele>507</ele>
        <time>2021-10-31T09:23:25.940Z</time>
      </trkpt>
      <trkpt lat="44.02003" lon="2.58467">
        <ele>507</ele>
        <time>2021-10-31T09:23:26.940Z</time>
      </trkpt>
      <trkpt lat="44.02002" lon="2.58465">
        <ele>507</ele>
        <time>2021-10-31T09:23:27.940Z</time>
      </trkpt>
      <trkpt lat="44.02002" lon="2.58464">
        <ele>507</ele>
        <time>2021-10-31T09:23:28.940Z</time>
      </trkpt>
      <trkpt lat="44.02002" lon="2.58462">
        <ele>506</ele>
        <time>2021-10-31T09:23:29.940Z</time>
      </trkpt>
      <trkpt lat="44.02002" lon="2.58461">
        <ele>506</ele>
        <time>2021-10-31T09:23:30.940Z</time>
      </trkpt>
      <trkpt lat="44.02001" lon="2.58459">
        <ele>506</ele>
        <time>2021-10-31T09:23:31.940Z</time>
      </trkpt>
      <trkpt lat="44.02001" lon="2.58458">
        <ele>506</ele>
        <time>2021-10-31T09:23:32.940Z</time>
      </trkpt>
      <trkpt lat="44.02001" lon="2.58456">
        <ele>506</ele>
        <time>2021-10-31T09:23:33.940Z</time>
      </trkpt>
      <trkpt lat="44.02001" lon="2.58454">
        <ele>506</ele>
        <time>2021-10-31T09:23:34.940Z</time>
      </trkpt>
      <trkpt lat="44.02001" lon="2.58453">
        <ele>506</ele>
        <time>2021-10-31T09:23:38.180Z</time>
      </trkpt>
      <trkpt lat="44.02" lon="2.58452">
        <ele>506</ele>
        <time>2021-10-31T09:23:39.180Z</time>
      </trkpt>
      <trkpt lat="44.02" lon="2.5845">
        <ele>506</ele>
        <time>2021-10-31T09:23:40.180Z</time>
      </trkpt>
      <trkpt lat="44.02" lon="2.58449">
        <ele>505</ele>
        <time>2021-10-31T09:23:41.180Z</time>
      </trkpt>
      <trkpt lat="44.02" lon="2.58448">
        <ele>505</ele>
        <time>2021-10-31T09:23:42.180Z</time>
      </trkpt>
      <trkpt lat="44.02" lon="2.58446">
        <ele>505</ele>
        <time>2021-10-31T09:23:43.180Z</time>
      </trkpt>
      <trkpt lat="44.02" lon="2.58445">
        <ele>505</ele>
        <time>2021-10-31T09:23:53.165Z</time>
      </trkpt>
      <trkpt lat="44.02" lon="2.58443">
        <ele>505</ele>
        <time>2021-10-31T09:23:54.165Z</time>
      </trkpt>
      <trkpt lat="44.01999" lon="2.58442">
        <ele>505</ele>
        <time>2021-10-31T09:23:55.165Z</time>
      </trkpt>
      <trkpt lat="44.01999" lon="2.58441">
        <ele>505</ele>
        <time>2021-10-31T09:23:56.165Z</time>
      </trkpt>
      <trkpt lat="44.01999" lon="2.58439">
        <ele>504</ele>
        <time>2021-10-31T09:23:57.165Z</time>
      </trkpt>
      <trkpt lat="44.01999" lon="2.58438">
        <ele>504</ele>
        <time>2021-10-31T09:23:58.165Z</time>
      </trkpt>
      <trkpt lat="44.01999" lon="2.58438">
        <ele>504</ele>
        <time>2021-10-31T09:23:59.165Z</time>
      </trkpt>
      <trkpt lat="44.01999" lon="2.58438">
        <ele>504</ele>
        <time>2021-10-31T09:24:00.165Z</time>
      </trkpt>
      <trkpt lat="44.01999" lon="2.58438">
        <ele>504</ele>
        <time>2021-10-31T09:24:01.165Z</time>
      </trkpt>
      <trkpt lat="44.02" lon="2.58437">
        <ele>502</ele>
        <time>2021-10-31T09:24:02.165Z</time>
      </trkpt>
      <trkpt lat="44.02" lon="2.58435">
        <ele>502</ele>
        <time>2021-10-31T09:24:03.165Z</time>
      </trkpt>
      <trkpt lat="44.02" lon="2.58434">
        <ele>501</ele>
        <time>2021-10-31T09:24:04.165Z</time>
      </trkpt>
      <trkpt lat="44.01999" lon="2.58433">
        <ele>501</ele>
        <time>2021-10-31T09:24:05.165Z</time>
      </trkpt>
      <trkpt lat="44.01999" lon="2.58431">
        <ele>501</ele>
        <time>2021-10-31T09:24:06.165Z</time>
      </trkpt>
      <trkpt lat="44.01999" lon="2.58429">
        <ele>501</ele>
        <time>2021-10-31T09:24:07.165Z</time>
      </trkpt>
      <trkpt lat="44.01998" lon="2.58428">
        <ele>501</ele>
        <time>2021-10-31T09:24:08.165Z</time>
      </trkpt>
      <trkpt lat="44.01998" lon="2.58426">
        <ele>501</ele>
        <time>2021-10-31T09:24:09.165Z</time>
      </trkpt>
      <trkpt lat="44.01998" lon="2.58424">
        <ele>501</ele>
        <time>2021-10-31T09:24:10.165Z</time>
      </trkpt>
      <trkpt lat="44.01998" lon="2.58422">
        <ele>501</ele>
        <time>2021-10-31T09:24:11.165Z</time>
      </trkpt>
      <trkpt lat="44.01998" lon="2.5842">
        <ele>500</ele>
        <time>2021-10-31T09:24:12.165Z</time>
      </trkpt>
      <trkpt lat="44.01997" lon="2.58419">
        <ele>500</ele>
        <time>2021-10-31T09:24:13.165Z</time>
      </trkpt>
      <trkpt lat="44.01997" lon="2.58417">
        <ele>500</ele>
        <time>2021-10-31T09:24:14.165Z</time>
      </trkpt>
      <trkpt lat="44.01997" lon="2.58415">
        <ele>500</ele>
        <time>2021-10-31T09:24:15.165Z</time>
      </trkpt>
      <trkpt lat="44.01997" lon="2.58413">
        <ele>500</ele>
        <time>2021-10-31T09:24:16.165Z</time>
      </trkpt>
      <trkpt lat="44.01996" lon="2.58412">
        <ele>500</ele>
        <time>2021-10-31T09:24:17.165Z</time>
      </trkpt>
      <trkpt lat="44.01996" lon="2.5841">
        <ele>499</ele>
        <time>2021-10-31T09:24:18.165Z</time>
      </trkpt>
      <trkpt lat="44.01996" lon="2.58408">
        <ele>499</ele>
        <time>2021-10-31T09:24:19.165Z</time>
      </trkpt>
      <trkpt lat="44.01996" lon="2.58406">
        <ele>499</ele>
        <time>2021-10-31T09:24:20.165Z</time>
      </trkpt>
      <trkpt lat="44.01996" lon="2.58404">
        <ele>499</ele>
        <time>2021-10-31T09:24:21.165Z</time>
      </trkpt>
      <trkpt lat="44.01995" lon="2.58402">
        <ele>499</ele>
        <time>2021-10-31T09:24:22.165Z</time>
      </trkpt>
      <trkpt lat="44.01995" lon="2.584">
        <ele>499</ele>
        <time>2021-10-31T09:24:23.165Z</time>
      </trkpt>
      <trkpt lat="44.01995" lon="2.58398">
        <ele>498</ele>
        <time>2021-10-31T09:24:24.165Z</time>
      </trkpt>
      <trkpt lat="44.01995" lon="2.58396">
        <ele>498</ele>
        <time>2021-10-31T09:24:25.165Z</time>
      </trkpt>
      <trkpt lat="44.01995" lon="2.58394">
        <ele>498</ele>
        <time>2021-10-31T09:24:26.165Z</time>
      </trkpt>
      <trkpt lat="44.01994" lon="2.58392">
        <ele>498</ele>
        <time>2021-10-31T09:24:27.165Z</time>
      </trkpt>
      <trkpt lat="44.01994" lon="2.5839">
        <ele>498</ele>
        <time>2021-10-31T09:24:28.165Z</time>
      </trkpt>
      <trkpt lat="44.01994" lon="2.58388">
        <ele>498</ele>
        <time>2021-10-31T09:24:29.165Z</time>
      </trkpt>
      <trkpt lat="44.01993" lon="2.58386">
        <ele>498</ele>
        <time>2021-10-31T09:24:30.165Z</time>
      </trkpt>
      <trkpt lat="44.01993" lon="2.58384">
        <ele>498</ele>
        <time>2021-10-31T09:24:31.165Z</time>
      </trkpt>
      <trkpt lat="44.01993" lon="2.58382">
        <ele>497</ele>
        <time>2021-10-31T09:24:32.165Z</time>
      </trkpt>
      <trkpt lat="44.01993" lon="2.5838">
        <ele>497</ele>
        <time>2021-10-31T09:24:33.165Z</time>
      </trkpt>
      <trkpt lat="44.01993" lon="2.58378">
        <ele>497</ele>
        <time>2021-10-31T09:24:34.165Z</time>
      </trkpt>
      <trkpt lat="44.01993" lon="2.58376">
        <ele>497</ele>
        <time>2021-10-31T09:24:35.165Z</time>
      </trkpt>
      <trkpt lat="44.01993" lon="2.58374">
        <ele>497</ele>
        <time>2021-10-31T09:24:36.165Z</time>
      </trkpt>
      <trkpt lat="44.01993" lon="2.58372">
        <ele>497</ele>
        <time>2021-10-31T09:24:37.165Z</time>
      </trkpt>
      <trkpt lat="44.01993" lon="2.58371">
        <ele>497</ele>
        <time>2021-10-31T09:24:38.165Z</time>
      </trkpt>
      <trkpt lat="44.01993" lon="2.58369">
        <ele>497</ele>
        <time>2021-10-31T09:24:39.165Z</time>
      </trkpt>
      <trkpt lat="44.01993" lon="2.58367">
        <ele>496</ele>
        <time>2021-10-31T09:24:40.165Z</time>
      </trkpt>
      <trkpt lat="44.01993" lon="2.58365">
        <ele>496</ele>
        <time>2021-10-31T09:24:41.165Z</time>
      </trkpt>
      <trkpt lat="44.01993" lon="2.58363">
        <ele>496</ele>
        <time>2021-10-31T09:24:42.165Z</time>
      </trkpt>
      <trkpt lat="44.01993" lon="2.58361">
        <ele>496</ele>
        <time>2021-10-31T09:24:43.165Z</time>
      </trkpt>
      <trkpt lat="44.01993" lon="2.58359">
        <ele>496</ele>
        <time>2021-10-31T09:24:44.165Z</time>
      </trkpt>
      <trkpt lat="44.01993" lon="2.58357">
        <ele>496</ele>
        <time>2021-10-31T09:24:45.165Z</time>
      </trkpt>
      <trkpt lat="44.01993" lon="2.58356">
        <ele>496</ele>
        <time>2021-10-31T09:25:06.178Z</time>
      </trkpt>
      <trkpt lat="44.01994" lon="2.58354">
        <ele>495</ele>
        <time>2021-10-31T09:25:07.178Z</time>
      </trkpt>
      <trkpt lat="44.01994" lon="2.58352">
        <ele>495</ele>
        <time>2021-10-31T09:25:08.178Z</time>
      </trkpt>
      <trkpt lat="44.01994" lon="2.5835">
        <ele>495</ele>
        <time>2021-10-31T09:25:09.178Z</time>
      </trkpt>
      <trkpt lat="44.01995" lon="2.58348">
        <ele>495</ele>
        <time>2021-10-31T09:25:10.178Z</time>
      </trkpt>
      <trkpt lat="44.01995" lon="2.58346">
        <ele>495</ele>
        <time>2021-10-31T09:25:11.178Z</time>
      </trkpt>
      <trkpt lat="44.01995" lon="2.58345">
        <ele>495</ele>
        <time>2021-10-31T09:25:12.178Z</time>
      </trkpt>
      <trkpt lat="44.01995" lon="2.58343">
        <ele>495</ele>
        <time>2021-10-31T09:25:13.178Z</time>
      </trkpt>
      <trkpt lat="44.01996" lon="2.58341">
        <ele>495</ele>
        <time>2021-10-31T09:25:14.178Z</time>
      </trkpt>
      <trkpt lat="44.01996" lon="2.58339">
        <ele>495</ele>
        <time>2021-10-31T09:25:15.178Z</time>
      </trkpt>
      <trkpt lat="44.01996" lon="2.58338">
        <ele>495</ele>
        <time>2021-10-31T09:25:16.178Z</time>
      </trkpt>
      <trkpt lat="44.01996" lon="2.58336">
        <ele>495</ele>
        <time>2021-10-31T09:25:17.178Z</time>
      </trkpt>
      <trkpt lat="44.01996" lon="2.58334">
        <ele>494</ele>
        <time>2021-10-31T09:25:18.178Z</time>
      </trkpt>
      <trkpt lat="44.01996" lon="2.58332">
        <ele>494</ele>
        <time>2021-10-31T09:25:19.178Z</time>
      </trkpt>
      <trkpt lat="44.01996" lon="2.5833">
        <ele>494</ele>
        <time>2021-10-31T09:25:20.178Z</time>
      </trkpt>
      <trkpt lat="44.01996" lon="2.58328">
        <ele>494</ele>
        <time>2021-10-31T09:25:21.178Z</time>
      </trkpt>
      <trkpt lat="44.01997" lon="2.58327">
        <ele>494</ele>
        <time>2021-10-31T09:25:22.178Z</time>
      </trkpt>
      <trkpt lat="44.01997" lon="2.58325">
        <ele>493</ele>
        <time>2021-10-31T09:25:23.178Z</time>
      </trkpt>
      <trkpt lat="44.01997" lon="2.58323">
        <ele>493</ele>
        <time>2021-10-31T09:25:24.178Z</time>
      </trkpt>
      <trkpt lat="44.01998" lon="2.58322">
        <ele>493</ele>
        <time>2021-10-31T09:25:25.178Z</time>
      </trkpt>
      <trkpt lat="44.01998" lon="2.5832">
        <ele>493</ele>
        <time>2021-10-31T09:25:26.178Z</time>
      </trkpt>
      <trkpt lat="44.01999" lon="2.58318">
        <ele>492</ele>
        <time>2021-10-31T09:25:27.178Z</time>
      </trkpt>
      <trkpt lat="44.01999" lon="2.58317">
        <ele>492</ele>
        <time>2021-10-31T09:25:28.178Z</time>
      </trkpt>
      <trkpt lat="44.02" lon="2.58315">
        <ele>492</ele>
        <time>2021-10-31T09:25:29.178Z</time>
      </trkpt>
      <trkpt lat="44.02" lon="2.58313">
        <ele>492</ele>
        <time>2021-10-31T09:25:30.178Z</time>
      </trkpt>
      <trkpt lat="44.02001" lon="2.58311">
        <ele>491</ele>
        <time>2021-10-31T09:25:31.178Z</time>
      </trkpt>
      <trkpt lat="44.02001" lon="2.5831">
        <ele>491</ele>
        <time>2021-10-31T09:25:32.178Z</time>
      </trkpt>
      <trkpt lat="44.02001" lon="2.58308">
        <ele>491</ele>
        <time>2021-10-31T09:25:33.178Z</time>
      </trkpt>
      <trkpt lat="44.02002" lon="2.58306">
        <ele>491</ele>
        <time>2021-10-31T09:25:34.178Z</time>
      </trkpt>
      <trkpt lat="44.02002" lon="2.58305">
        <ele>490</ele>
        <time>2021-10-31T09:25:35.178Z</time>
      </trkpt>
      <trkpt lat="44.02002" lon="2.58303">
        <ele>490</ele>
        <time>2021-10-31T09:25:36.178Z</time>
      </trkpt>
      <trkpt lat="44.02002" lon="2.58301">
        <ele>490</ele>
        <time>2021-10-31T09:25:37.178Z</time>
      </trkpt>
      <trkpt lat="44.02003" lon="2.583">
        <ele>490</ele>
        <time>2021-10-31T09:25:38.178Z</time>
      </trkpt>
      <trkpt lat="44.02003" lon="2.58298">
        <ele>489</ele>
        <time>2021-10-31T09:25:39.178Z</time>
      </trkpt>
      <trkpt lat="44.02003" lon="2.58296">
        <ele>489</ele>
        <time>2021-10-31T09:25:40.178Z</time>
      </trkpt>
      <trkpt lat="44.02004" lon="2.58294">
        <ele>489</ele>
        <time>2021-10-31T09:25:41.178Z</time>
      </trkpt>
      <trkpt lat="44.02004" lon="2.58292">
        <ele>489</ele>
        <time>2021-10-31T09:25:42.178Z</time>
      </trkpt>
      <trkpt lat="44.02004" lon="2.5829">
        <ele>489</ele>
        <time>2021-10-31T09:25:43.178Z</time>
      </trkpt>
      <trkpt lat="44.02004" lon="2.58289">
        <ele>489</ele>
        <time>2021-10-31T09:25:44.178Z</time>
      </trkpt>
      <trkpt lat="44.02004" lon="2.58287">
        <ele>488</ele>
        <time>2021-10-31T09:25:45.178Z</time>
      </trkpt>
      <trkpt lat="44.02004" lon="2.58285">
        <ele>488</ele>
        <time>2021-10-31T09:25:46.178Z</time>
      </trkpt>
      <trkpt lat="44.02004" lon="2.58284">
        <ele>488</ele>
        <time>2021-10-31T09:25:47.178Z</time>
      </trkpt>
      <trkpt lat="44.02004" lon="2.58282">
        <ele>488</ele>
        <time>2021-10-31T09:25:48.178Z</time>
      </trkpt>
      <trkpt lat="44.02004" lon="2.58281">
        <ele>487</ele>
        <time>2021-10-31T09:25:49.178Z</time>
      </trkpt>
      <trkpt lat="44.02004" lon="2.58279">
        <ele>487</ele>
        <time>2021-10-31T09:25:50.178Z</time>
      </trkpt>
      <trkpt lat="44.02004" lon="2.58277">
        <ele>487</ele>
        <time>2021-10-31T09:25:51.178Z</time>
      </trkpt>
      <trkpt lat="44.02004" lon="2.58275">
        <ele>487</ele>
        <time>2021-10-31T09:25:52.178Z</time>
      </trkpt>
      <trkpt lat="44.02003" lon="2.58274">
        <ele>486</ele>
        <time>2021-10-31T09:25:53.178Z</time>
      </trkpt>
      <trkpt lat="44.02003" lon="2.58272">
        <ele>486</ele>
        <time>2021-10-31T09:25:54.178Z</time>
      </trkpt>
      <trkpt lat="44.02003" lon="2.58271">
        <ele>486</ele>
        <time>2021-10-31T09:25:55.178Z</time>
      </trkpt>
      <trkpt lat="44.02003" lon="2.58269">
        <ele>486</ele>
        <time>2021-10-31T09:25:56.178Z</time>
      </trkpt>
      <trkpt lat="44.02002" lon="2.58267">
        <ele>486</ele>
        <time>2021-10-31T09:25:57.178Z</time>
      </trkpt>
      <trkpt lat="44.02002" lon="2.58266">
        <ele>485</ele>
        <time>2021-10-31T09:25:58.178Z</time>
      </trkpt>
      <trkpt lat="44.02001" lon="2.58265">
        <ele>485</ele>
        <time>2021-10-31T09:25:59.178Z</time>
      </trkpt>
      <trkpt lat="44.02001" lon="2.58264">
        <ele>485</ele>
        <time>2021-10-31T09:26:00.178Z</time>
      </trkpt>
      <trkpt lat="44.02" lon="2.58263">
        <ele>485</ele>
        <time>2021-10-31T09:26:01.178Z</time>
      </trkpt>
      <trkpt lat="44.02" lon="2.58262">
        <ele>485</ele>
        <time>2021-10-31T09:26:02.178Z</time>
      </trkpt>
      <trkpt lat="44.01999" lon="2.58261">
        <ele>485</ele>
        <time>2021-10-31T09:26:03.178Z</time>
      </trkpt>
      <trkpt lat="44.01999" lon="2.5826">
        <ele>485</ele>
        <time>2021-10-31T09:26:04.178Z</time>
      </trkpt>
      <trkpt lat="44.01998" lon="2.58259">
        <ele>485</ele>
        <time>2021-10-31T09:26:05.178Z</time>
      </trkpt>
      <trkpt lat="44.01997" lon="2.58258">
        <ele>485</ele>
        <time>2021-10-31T09:26:06.178Z</time>
      </trkpt>
      <trkpt lat="44.01997" lon="2.58257">
        <ele>485</ele>
        <time>2021-10-31T09:26:07.178Z</time>
      </trkpt>
      <trkpt lat="44.01996" lon="2.58256">
        <ele>485</ele>
        <time>2021-10-31T09:26:08.178Z</time>
      </trkpt>
      <trkpt lat="44.01996" lon="2.58255">
        <ele>484</ele>
        <time>2021-10-31T09:26:09.178Z</time>
      </trkpt>
      <trkpt lat="44.01995" lon="2.58255">
        <ele>484</ele>
        <time>2021-10-31T09:26:10.178Z</time>
      </trkpt>
      <trkpt lat="44.01995" lon="2.58254">
        <ele>484</ele>
        <time>2021-10-31T09:26:11.178Z</time>
      </trkpt>
      <trkpt lat="44.01994" lon="2.58253">
        <ele>484</ele>
        <time>2021-10-31T09:26:12.178Z</time>
      </trkpt>
      <trkpt lat="44.01994" lon="2.58252">
        <ele>484</ele>
        <time>2021-10-31T09:26:13.178Z</time>
      </trkpt>
      <trkpt lat="44.01993" lon="2.58251">
        <ele>484</ele>
        <time>2021-10-31T09:26:14.178Z</time>
      </trkpt>
      <trkpt lat="44.01993" lon="2.5825">
        <ele>484</ele>
        <time>2021-10-31T09:26:15.178Z</time>
      </trkpt>
      <trkpt lat="44.01992" lon="2.58249">
        <ele>484</ele>
        <time>2021-10-31T09:26:16.178Z</time>
      </trkpt>
      <trkpt lat="44.01992" lon="2.58247">
        <ele>483</ele>
        <time>2021-10-31T09:26:17.178Z</time>
      </trkpt>
      <trkpt lat="44.01992" lon="2.58247">
        <ele>483</ele>
        <time>2021-10-31T09:26:18.178Z</time>
      </trkpt>
      <trkpt lat="44.01992" lon="2.58246">
        <ele>483</ele>
        <time>2021-10-31T09:26:19.178Z</time>
      </trkpt>
      <trkpt lat="44.01992" lon="2.58245">
        <ele>483</ele>
        <time>2021-10-31T09:26:20.178Z</time>
      </trkpt>
      <trkpt lat="44.01991" lon="2.58244">
        <ele>483</ele>
        <time>2021-10-31T09:26:21.178Z</time>
      </trkpt>
      <trkpt lat="44.01991" lon="2.58243">
        <ele>483</ele>
        <time>2021-10-31T09:26:22.178Z</time>
      </trkpt>
      <trkpt lat="44.0199" lon="2.58242">
        <ele>483</ele>
        <time>2021-10-31T09:26:23.178Z</time>
      </trkpt>
      <trkpt lat="44.0199" lon="2.58241">
        <ele>483</ele>
        <time>2021-10-31T09:26:24.178Z</time>
      </trkpt>
      <trkpt lat="44.01989" lon="2.5824">
        <ele>483</ele>
        <time>2021-10-31T09:26:25.178Z</time>
      </trkpt>
      <trkpt lat="44.01989" lon="2.58239">
        <ele>483</ele>
        <time>2021-10-31T09:26:26.178Z</time>
      </trkpt>
      <trkpt lat="44.01988" lon="2.58238">
        <ele>482</ele>
        <time>2021-10-31T09:26:27.178Z</time>
      </trkpt>
      <trkpt lat="44.01988" lon="2.58237">
        <ele>482</ele>
        <time>2021-10-31T09:26:28.178Z</time>
      </trkpt>
      <trkpt lat="44.01988" lon="2.58235">
        <ele>482</ele>
        <time>2021-10-31T09:26:29.178Z</time>
      </trkpt>
      <trkpt lat="44.01987" lon="2.58234">
        <ele>482</ele>
        <time>2021-10-31T09:26:30.178Z</time>
      </trkpt>
      <trkpt lat="44.01987" lon="2.58233">
        <ele>482</ele>
        <time>2021-10-31T09:26:31.178Z</time>
      </trkpt>
      <trkpt lat="44.01987" lon="2.58232">
        <ele>482</ele>
        <time>2021-10-31T09:26:32.178Z</time>
      </trkpt>
      <trkpt lat="44.01987" lon="2.58231">
        <ele>482</ele>
        <time>2021-10-31T09:26:33.178Z</time>
      </trkpt>
      <trkpt lat="44.01987" lon="2.5823">
        <ele>482</ele>
        <time>2021-10-31T09:26:34.178Z</time>
      </trkpt>
      <trkpt lat="44.01986" lon="2.5823">
        <ele>482</ele>
        <time>2021-10-31T09:26:35.178Z</time>
      </trkpt>
      <trkpt lat="44.01986" lon="2.58229">
        <ele>482</ele>
        <time>2021-10-31T09:26:36.178Z</time>
      </trkpt>
      <trkpt lat="44.01986" lon="2.58228">
        <ele>482</ele>
        <time>2021-10-31T09:26:37.178Z</time>
      </trkpt>
      <trkpt lat="44.01986" lon="2.58228">
        <ele>482</ele>
        <time>2021-10-31T09:26:38.178Z</time>
      </trkpt>
      <trkpt lat="44.01985" lon="2.58227">
        <ele>482</ele>
        <time>2021-10-31T09:26:39.178Z</time>
      </trkpt>
      <trkpt lat="44.01985" lon="2.58225">
        <ele>482</ele>
        <time>2021-10-31T09:26:40.178Z</time>
      </trkpt>
      <trkpt lat="44.01985" lon="2.58224">
        <ele>482</ele>
        <time>2021-10-31T09:26:41.178Z</time>
      </trkpt>
      <trkpt lat="44.01985" lon="2.58223">
        <ele>482</ele>
        <time>2021-10-31T09:26:42.178Z</time>
      </trkpt>
      <trkpt lat="44.01985" lon="2.58222">
        <ele>482</ele>
        <time>2021-10-31T09:26:43.178Z</time>
      </trkpt>
      <trkpt lat="44.01985" lon="2.58221">
        <ele>482</ele>
        <time>2021-10-31T09:26:44.178Z</time>
      </trkpt>
      <trkpt lat="44.01984" lon="2.5822">
        <ele>482</ele>
        <time>2021-10-31T09:26:45.178Z</time>
      </trkpt>
      <trkpt lat="44.01984" lon="2.58219">
        <ele>482</ele>
        <time>2021-10-31T09:26:46.178Z</time>
      </trkpt>
      <trkpt lat="44.01984" lon="2.58218">
        <ele>482</ele>
        <time>2021-10-31T09:26:47.178Z</time>
      </trkpt>
      <trkpt lat="44.01984" lon="2.58217">
        <ele>482</ele>
        <time>2021-10-31T09:26:48.178Z</time>
      </trkpt>
      <trkpt lat="44.01984" lon="2.58216">
        <ele>482</ele>
        <time>2021-10-31T09:26:49.178Z</time>
      </trkpt>
      <trkpt lat="44.01984" lon="2.58215">
        <ele>482</ele>
        <time>2021-10-31T09:26:50.178Z</time>
      </trkpt>
      <trkpt lat="44.01984" lon="2.58214">
        <ele>483</ele>
        <time>2021-10-31T09:26:51.178Z</time>
      </trkpt>
      <trkpt lat="44.01984" lon="2.58213">
        <ele>483</ele>
        <time>2021-10-31T09:26:52.178Z</time>
      </trkpt>
      <trkpt lat="44.01984" lon="2.58212">
        <ele>483</ele>
        <time>2021-10-31T09:26:53.178Z</time>
      </trkpt>
      <trkpt lat="44.01983" lon="2.5821">
        <ele>483</ele>
        <time>2021-10-31T09:26:54.178Z</time>
      </trkpt>
      <trkpt lat="44.01983" lon="2.58209">
        <ele>483</ele>
        <time>2021-10-31T09:26:55.178Z</time>
      </trkpt>
      <trkpt lat="44.01983" lon="2.58208">
        <ele>483</ele>
        <time>2021-10-31T09:26:56.178Z</time>
      </trkpt>
      <trkpt lat="44.01983" lon="2.58207">
        <ele>483</ele>
        <time>2021-10-31T09:26:57.178Z</time>
      </trkpt>
      <trkpt lat="44.01983" lon="2.58205">
        <ele>483</ele>
        <time>2021-10-31T09:26:58.178Z</time>
      </trkpt>
      <trkpt lat="44.01982" lon="2.58204">
        <ele>483</ele>
        <time>2021-10-31T09:26:59.178Z</time>
      </trkpt>
      <trkpt lat="44.01982" lon="2.58203">
        <ele>483</ele>
        <time>2021-10-31T09:27:00.178Z</time>
      </trkpt>
      <trkpt lat="44.01981" lon="2.58202">
        <ele>483</ele>
        <time>2021-10-31T09:27:01.178Z</time>
      </trkpt>
      <trkpt lat="44.01981" lon="2.58201">
        <ele>484</ele>
        <time>2021-10-31T09:27:02.178Z</time>
      </trkpt>
      <trkpt lat="44.01981" lon="2.582">
        <ele>484</ele>
        <time>2021-10-31T09:27:03.178Z</time>
      </trkpt>
      <trkpt lat="44.01981" lon="2.58199">
        <ele>484</ele>
        <time>2021-10-31T09:27:04.178Z</time>
      </trkpt>
      <trkpt lat="44.01981" lon="2.58198">
        <ele>484</ele>
        <time>2021-10-31T09:27:05.178Z</time>
      </trkpt>
      <trkpt lat="44.0198" lon="2.58197">
        <ele>484</ele>
        <time>2021-10-31T09:27:06.178Z</time>
      </trkpt>
      <trkpt lat="44.0198" lon="2.58195">
        <ele>484</ele>
        <time>2021-10-31T09:27:07.178Z</time>
      </trkpt>
      <trkpt lat="44.01979" lon="2.58194">
        <ele>484</ele>
        <time>2021-10-31T09:27:08.178Z</time>
      </trkpt>
      <trkpt lat="44.01979" lon="2.58193">
        <ele>484</ele>
        <time>2021-10-31T09:27:09.178Z</time>
      </trkpt>
      <trkpt lat="44.01979" lon="2.58192">
        <ele>485</ele>
        <time>2021-10-31T09:27:10.178Z</time>
      </trkpt>
      <trkpt lat="44.01978" lon="2.58191">
        <ele>485</ele>
        <time>2021-10-31T09:27:11.178Z</time>
      </trkpt>
      <trkpt lat="44.01978" lon="2.5819">
        <ele>485</ele>
        <time>2021-10-31T09:27:12.178Z</time>
      </trkpt>
      <trkpt lat="44.01977" lon="2.58189">
        <ele>485</ele>
        <time>2021-10-31T09:27:13.178Z</time>
      </trkpt>
      <trkpt lat="44.01977" lon="2.58188">
        <ele>485</ele>
        <time>2021-10-31T09:27:14.178Z</time>
      </trkpt>
      <trkpt lat="44.01976" lon="2.58187">
        <ele>485</ele>
        <time>2021-10-31T09:27:15.178Z</time>
      </trkpt>
      <trkpt lat="44.01976" lon="2.58186">
        <ele>485</ele>
        <time>2021-10-31T09:27:16.178Z</time>
      </trkpt>
      <trkpt lat="44.01975" lon="2.58184">
        <ele>485</ele>
        <time>2021-10-31T09:27:17.178Z</time>
      </trkpt>
      <trkpt lat="44.01975" lon="2.58183">
        <ele>485</ele>
        <time>2021-10-31T09:27:18.178Z</time>
      </trkpt>
      <trkpt lat="44.01974" lon="2.58182">
        <ele>486</ele>
        <time>2021-10-31T09:27:19.178Z</time>
      </trkpt>
      <trkpt lat="44.01974" lon="2.58182">
        <ele>486</ele>
        <time>2021-10-31T09:27:20.178Z</time>
      </trkpt>
      <trkpt lat="44.01973" lon="2.58181">
        <ele>486</ele>
        <time>2021-10-31T09:27:21.178Z</time>
      </trkpt>
      <trkpt lat="44.01972" lon="2.5818">
        <ele>486</ele>
        <time>2021-10-31T09:27:22.178Z</time>
      </trkpt>
      <trkpt lat="44.01972" lon="2.58179">
        <ele>486</ele>
        <time>2021-10-31T09:27:23.178Z</time>
      </trkpt>
      <trkpt lat="44.01971" lon="2.58178">
        <ele>486</ele>
        <time>2021-10-31T09:27:24.178Z</time>
      </trkpt>
      <trkpt lat="44.0197" lon="2.58177">
        <ele>486</ele>
        <time>2021-10-31T09:27:25.178Z</time>
      </trkpt>
      <trkpt lat="44.01969" lon="2.58176">
        <ele>486</ele>
        <time>2021-10-31T09:27:26.178Z</time>
      </trkpt>
      <trkpt lat="44.01968" lon="2.58175">
        <ele>486</ele>
        <time>2021-10-31T09:27:27.178Z</time>
      </trkpt>
      <trkpt lat="44.01967" lon="2.58174">
        <ele>486</ele>
        <time>2021-10-31T09:27:28.178Z</time>
      </trkpt>
      <trkpt lat="44.01967" lon="2.58173">
        <ele>486</ele>
        <time>2021-10-31T09:27:29.178Z</time>
      </trkpt>
      <trkpt lat="44.01966" lon="2.58172">
        <ele>486</ele>
        <time>2021-10-31T09:27:30.178Z</time>
      </trkpt>
      <trkpt lat="44.01965" lon="2.58171">
        <ele>486</ele>
        <time>2021-10-31T09:27:31.178Z</time>
      </trkpt>
      <trkpt lat="44.01964" lon="2.5817">
        <ele>486</ele>
        <time>2021-10-31T09:27:32.178Z</time>
      </trkpt>
      <trkpt lat="44.01964" lon="2.58169">
        <ele>486</ele>
        <time>2021-10-31T09:27:33.178Z</time>
      </trkpt>
      <trkpt lat="44.01963" lon="2.58168">
        <ele>486</ele>
        <time>2021-10-31T09:27:34.178Z</time>
      </trkpt>
      <trkpt lat="44.01962" lon="2.58166">
        <ele>486</ele>
        <time>2021-10-31T09:27:35.178Z</time>
      </trkpt>
      <trkpt lat="44.01962" lon="2.58165">
        <ele>486</ele>
        <time>2021-10-31T09:27:36.178Z</time>
      </trkpt>
      <trkpt lat="44.01961" lon="2.58164">
        <ele>487</ele>
        <time>2021-10-31T09:27:37.178Z</time>
      </trkpt>
      <trkpt lat="44.0196" lon="2.58163">
        <ele>487</ele>
        <time>2021-10-31T09:27:38.178Z</time>
      </trkpt>
      <trkpt lat="44.01959" lon="2.58162">
        <ele>487</ele>
        <time>2021-10-31T09:27:39.178Z</time>
      </trkpt>
      <trkpt lat="44.01958" lon="2.58161">
        <ele>487</ele>
        <time>2021-10-31T09:27:40.178Z</time>
      </trkpt>
      <trkpt lat="44.01958" lon="2.5816">
        <ele>487</ele>
        <time>2021-10-31T09:27:41.178Z</time>
      </trkpt>
      <trkpt lat="44.01957" lon="2.58159">
        <ele>487</ele>
        <time>2021-10-31T09:27:42.178Z</time>
      </trkpt>
      <trkpt lat="44.01956" lon="2.58157">
        <ele>487</ele>
        <time>2021-10-31T09:27:43.178Z</time>
      </trkpt>
      <trkpt lat="44.01956" lon="2.58156">
        <ele>487</ele>
        <time>2021-10-31T09:27:44.178Z</time>
      </trkpt>
      <trkpt lat="44.01955" lon="2.58155">
        <ele>487</ele>
        <time>2021-10-31T09:27:45.178Z</time>
      </trkpt>
      <trkpt lat="44.01955" lon="2.58154">
        <ele>487</ele>
        <time>2021-10-31T09:27:46.178Z</time>
      </trkpt>
      <trkpt lat="44.01954" lon="2.58153">
        <ele>487</ele>
        <time>2021-10-31T09:27:47.178Z</time>
      </trkpt>
      <trkpt lat="44.01954" lon="2.58151">
        <ele>487</ele>
        <time>2021-10-31T09:27:48.178Z</time>
      </trkpt>
      <trkpt lat="44.01954" lon="2.5815">
        <ele>487</ele>
        <time>2021-10-31T09:27:49.178Z</time>
      </trkpt>
      <trkpt lat="44.01953" lon="2.58149">
        <ele>488</ele>
        <time>2021-10-31T09:27:50.178Z</time>
      </trkpt>
      <trkpt lat="44.01953" lon="2.58148">
        <ele>488</ele>
        <time>2021-10-31T09:27:51.178Z</time>
      </trkpt>
      <trkpt lat="44.01953" lon="2.58147">
        <ele>488</ele>
        <time>2021-10-31T09:27:52.178Z</time>
      </trkpt>
      <trkpt lat="44.01953" lon="2.58146">
        <ele>488</ele>
        <time>2021-10-31T09:27:53.178Z</time>
      </trkpt>
      <trkpt lat="44.01954" lon="2.58145">
        <ele>488</ele>
        <time>2021-10-31T09:27:54.178Z</time>
      </trkpt>
      <trkpt lat="44.01954" lon="2.58143">
        <ele>488</ele>
        <time>2021-10-31T09:27:55.178Z</time>
      </trkpt>
      <trkpt lat="44.01954" lon="2.58142">
        <ele>488</ele>
        <time>2021-10-31T09:27:56.178Z</time>
      </trkpt>
      <trkpt lat="44.01954" lon="2.58141">
        <ele>488</ele>
        <time>2021-10-31T09:27:57.178Z</time>
      </trkpt>
      <trkpt lat="44.01954" lon="2.5814">
        <ele>488</ele>
        <time>2021-10-31T09:27:58.178Z</time>
      </trkpt>
      <trkpt lat="44.01954" lon="2.58139">
        <ele>488</ele>
        <time>2021-10-31T09:27:59.178Z</time>
      </trkpt>
      <trkpt lat="44.01954" lon="2.58138">
        <ele>488</ele>
        <time>2021-10-31T09:28:00.178Z</time>
      </trkpt>
      <trkpt lat="44.01954" lon="2.58137">
        <ele>488</ele>
        <time>2021-10-31T09:28:01.178Z</time>
      </trkpt>
      <trkpt lat="44.01954" lon="2.58136">
        <ele>488</ele>
        <time>2021-10-31T09:28:02.178Z</time>
      </trkpt>
      <trkpt lat="44.01954" lon="2.58134">
        <ele>487</ele>
        <time>2021-10-31T09:28:03.178Z</time>
      </trkpt>
      <trkpt lat="44.01954" lon="2.58133">
        <ele>487</ele>
        <time>2021-10-31T09:28:04.178Z</time>
      </trkpt>
      <trkpt lat="44.01954" lon="2.58132">
        <ele>487</ele>
        <time>2021-10-31T09:28:05.178Z</time>
      </trkpt>
      <trkpt lat="44.01954" lon="2.5813">
        <ele>487</ele>
        <time>2021-10-31T09:28:06.178Z</time>
      </trkpt>
      <trkpt lat="44.01954" lon="2.58129">
        <ele>487</ele>
        <time>2021-10-31T09:28:07.178Z</time>
      </trkpt>
      <trkpt lat="44.01954" lon="2.58128">
        <ele>487</ele>
        <time>2021-10-31T09:28:08.178Z</time>
      </trkpt>
      <trkpt lat="44.01954" lon="2.58127">
        <ele>487</ele>
        <time>2021-10-31T09:28:09.178Z</time>
      </trkpt>
      <trkpt lat="44.01954" lon="2.58126">
        <ele>487</ele>
        <time>2021-10-31T09:28:10.178Z</time>
      </trkpt>
      <trkpt lat="44.01954" lon="2.58125">
        <ele>487</ele>
        <time>2021-10-31T09:28:11.178Z</time>
      </trkpt>
      <trkpt lat="44.01954" lon="2.58124">
        <ele>487</ele>
        <time>2021-10-31T09:28:12.178Z</time>
      </trkpt>
      <trkpt lat="44.01954" lon="2.58123">
        <ele>487</ele>
        <time>2021-10-31T09:28:13.178Z</time>
      </trkpt>
      <trkpt lat="44.01954" lon="2.58122">
        <ele>487</ele>
        <time>2021-10-31T09:28:14.178Z</time>
      </trkpt>
      <trkpt lat="44.01954" lon="2.58122">
        <ele>487</ele>
        <time>2021-10-31T09:28:15.178Z</time>
      </trkpt>
      <trkpt lat="44.01954" lon="2.58121">
        <ele>487</ele>
        <time>2021-10-31T09:28:16.178Z</time>
      </trkpt>
      <trkpt lat="44.01954" lon="2.58118">
        <ele>487</ele>
        <time>2021-10-31T09:28:17.178Z</time>
      </trkpt>
      <trkpt lat="44.01954" lon="2.58117">
        <ele>487</ele>
        <time>2021-10-31T09:28:18.178Z</time>
      </trkpt>
      <trkpt lat="44.01954" lon="2.58116">
        <ele>487</ele>
        <time>2021-10-31T09:28:19.178Z</time>
      </trkpt>
      <trkpt lat="44.01953" lon="2.58115">
        <ele>487</ele>
        <time>2021-10-31T09:28:20.178Z</time>
      </trkpt>
      <trkpt lat="44.01953" lon="2.58114">
        <ele>487</ele>
        <time>2021-10-31T09:28:21.178Z</time>
      </trkpt>
      <trkpt lat="44.01953" lon="2.58113">
        <ele>487</ele>
        <time>2021-10-31T09:28:22.178Z</time>
      </trkpt>
      <trkpt lat="44.01953" lon="2.58112">
        <ele>487</ele>
        <time>2021-10-31T09:28:23.178Z</time>
      </trkpt>
      <trkpt lat="44.01952" lon="2.58111">
        <ele>487</ele>
        <time>2021-10-31T09:28:24.178Z</time>
      </trkpt>
      <trkpt lat="44.01952" lon="2.5811">
        <ele>488</ele>
        <time>2021-10-31T09:28:25.178Z</time>
      </trkpt>
      <trkpt lat="44.01951" lon="2.58109">
        <ele>488</ele>
        <time>2021-10-31T09:28:26.178Z</time>
      </trkpt>
      <trkpt lat="44.01951" lon="2.58108">
        <ele>488</ele>
        <time>2021-10-31T09:28:27.178Z</time>
      </trkpt>
      <trkpt lat="44.01951" lon="2.58107">
        <ele>488</ele>
        <time>2021-10-31T09:28:28.178Z</time>
      </trkpt>
      <trkpt lat="44.0195" lon="2.58107">
        <ele>488</ele>
        <time>2021-10-31T09:28:29.178Z</time>
      </trkpt>
      <trkpt lat="44.0195" lon="2.58106">
        <ele>488</ele>
        <time>2021-10-31T09:28:30.178Z</time>
      </trkpt>
      <trkpt lat="44.01949" lon="2.58105">
        <ele>488</ele>
        <time>2021-10-31T09:28:31.178Z</time>
      </trkpt>
      <trkpt lat="44.01949" lon="2.58104">
        <ele>488</ele>
        <time>2021-10-31T09:28:32.178Z</time>
      </trkpt>
      <trkpt lat="44.01948" lon="2.58103">
        <ele>489</ele>
        <time>2021-10-31T09:28:33.178Z</time>
      </trkpt>
      <trkpt lat="44.01947" lon="2.58102">
        <ele>489</ele>
        <time>2021-10-31T09:28:34.178Z</time>
      </trkpt>
      <trkpt lat="44.01947" lon="2.58101">
        <ele>489</ele>
        <time>2021-10-31T09:28:35.178Z</time>
      </trkpt>
      <trkpt lat="44.01946" lon="2.58101">
        <ele>489</ele>
        <time>2021-10-31T09:28:36.178Z</time>
      </trkpt>
      <trkpt lat="44.01946" lon="2.581">
        <ele>489</ele>
        <time>2021-10-31T09:28:37.178Z</time>
      </trkpt>
      <trkpt lat="44.01945" lon="2.58099">
        <ele>489</ele>
        <time>2021-10-31T09:28:38.178Z</time>
      </trkpt>
      <trkpt lat="44.01945" lon="2.58099">
        <ele>489</ele>
        <time>2021-10-31T09:28:39.178Z</time>
      </trkpt>
      <trkpt lat="44.01944" lon="2.58098">
        <ele>489</ele>
        <time>2021-10-31T09:28:40.178Z</time>
      </trkpt>
      <trkpt lat="44.01943" lon="2.58097">
        <ele>489</ele>
        <time>2021-10-31T09:28:41.178Z</time>
      </trkpt>
      <trkpt lat="44.01942" lon="2.58096">
        <ele>490</ele>
        <time>2021-10-31T09:28:42.178Z</time>
      </trkpt>
      <trkpt lat="44.01942" lon="2.58096">
        <ele>490</ele>
        <time>2021-10-31T09:28:43.178Z</time>
      </trkpt>
      <trkpt lat="44.01941" lon="2.58096">
        <ele>490</ele>
        <time>2021-10-31T09:28:44.178Z</time>
      </trkpt>
      <trkpt lat="44.0194" lon="2.58095">
        <ele>490</ele>
        <time>2021-10-31T09:28:45.178Z</time>
      </trkpt>
      <trkpt lat="44.01939" lon="2.58095">
        <ele>490</ele>
        <time>2021-10-31T09:28:46.178Z</time>
      </trkpt>
      <trkpt lat="44.01939" lon="2.58094">
        <ele>491</ele>
        <time>2021-10-31T09:28:47.178Z</time>
      </trkpt>
      <trkpt lat="44.01938" lon="2.58094">
        <ele>491</ele>
        <time>2021-10-31T09:28:48.178Z</time>
      </trkpt>
      <trkpt lat="44.01937" lon="2.58093">
        <ele>491</ele>
        <time>2021-10-31T09:28:49.178Z</time>
      </trkpt>
      <trkpt lat="44.01936" lon="2.58093">
        <ele>491</ele>
        <time>2021-10-31T09:28:50.178Z</time>
      </trkpt>
      <trkpt lat="44.01936" lon="2.58092">
        <ele>491</ele>
        <time>2021-10-31T09:28:51.178Z</time>
      </trkpt>
      <trkpt lat="44.01935" lon="2.58091">
        <ele>492</ele>
        <time>2021-10-31T09:28:52.178Z</time>
      </trkpt>
      <trkpt lat="44.01935" lon="2.5809">
        <ele>492</ele>
        <time>2021-10-31T09:28:53.178Z</time>
      </trkpt>
      <trkpt lat="44.01934" lon="2.58089">
        <ele>492</ele>
        <time>2021-10-31T09:28:54.178Z</time>
      </trkpt>
      <trkpt lat="44.01933" lon="2.58088">
        <ele>492</ele>
        <time>2021-10-31T09:28:55.178Z</time>
      </trkpt>
      <trkpt lat="44.01933" lon="2.58088">
        <ele>492</ele>
        <time>2021-10-31T09:28:56.178Z</time>
      </trkpt>
      <trkpt lat="44.01932" lon="2.58087">
        <ele>492</ele>
        <time>2021-10-31T09:28:57.178Z</time>
      </trkpt>
      <trkpt lat="44.01932" lon="2.58086">
        <ele>492</ele>
        <time>2021-10-31T09:28:58.178Z</time>
      </trkpt>
      <trkpt lat="44.01931" lon="2.58086">
        <ele>493</ele>
        <time>2021-10-31T09:28:59.178Z</time>
      </trkpt>
      <trkpt lat="44.01931" lon="2.58085">
        <ele>493</ele>
        <time>2021-10-31T09:29:00.178Z</time>
      </trkpt>
      <trkpt lat="44.0193" lon="2.58084">
        <ele>493</ele>
        <time>2021-10-31T09:29:01.178Z</time>
      </trkpt>
      <trkpt lat="44.01929" lon="2.58084">
        <ele>493</ele>
        <time>2021-10-31T09:29:02.178Z</time>
      </trkpt>
      <trkpt lat="44.01929" lon="2.58083">
        <ele>493</ele>
        <time>2021-10-31T09:29:03.178Z</time>
      </trkpt>
      <trkpt lat="44.01928" lon="2.58082">
        <ele>493</ele>
        <time>2021-10-31T09:29:04.178Z</time>
      </trkpt>
      <trkpt lat="44.01928" lon="2.58082">
        <ele>493</ele>
        <time>2021-10-31T09:29:05.178Z</time>
      </trkpt>
      <trkpt lat="44.01927" lon="2.58081">
        <ele>493</ele>
        <time>2021-10-31T09:29:06.178Z</time>
      </trkpt>
      <trkpt lat="44.01927" lon="2.58081">
        <ele>494</ele>
        <time>2021-10-31T09:29:07.178Z</time>
      </trkpt>
      <trkpt lat="44.01927" lon="2.5808">
        <ele>494</ele>
        <time>2021-10-31T09:29:08.178Z</time>
      </trkpt>
      <trkpt lat="44.01926" lon="2.5808">
        <ele>494</ele>
        <time>2021-10-31T09:29:09.178Z</time>
      </trkpt>
      <trkpt lat="44.01926" lon="2.58079">
        <ele>494</ele>
        <time>2021-10-31T09:29:10.178Z</time>
      </trkpt>
      <trkpt lat="44.01925" lon="2.58078">
        <ele>494</ele>
        <time>2021-10-31T09:29:11.178Z</time>
      </trkpt>
      <trkpt lat="44.01924" lon="2.58077">
        <ele>494</ele>
        <time>2021-10-31T09:29:12.178Z</time>
      </trkpt>
      <trkpt lat="44.01924" lon="2.58077">
        <ele>494</ele>
        <time>2021-10-31T09:29:13.178Z</time>
      </trkpt>
      <trkpt lat="44.01923" lon="2.58076">
        <ele>494</ele>
        <time>2021-10-31T09:29:14.178Z</time>
      </trkpt>
      <trkpt lat="44.01922" lon="2.58075">
        <ele>495</ele>
        <time>2021-10-31T09:29:15.178Z</time>
      </trkpt>
      <trkpt lat="44.01922" lon="2.58075">
        <ele>495</ele>
        <time>2021-10-31T09:29:16.178Z</time>
      </trkpt>
      <trkpt lat="44.01921" lon="2.58074">
        <ele>495</ele>
        <time>2021-10-31T09:29:17.178Z</time>
      </trkpt>
      <trkpt lat="44.01921" lon="2.58073">
        <ele>495</ele>
        <time>2021-10-31T09:29:18.178Z</time>
      </trkpt>
      <trkpt lat="44.0192" lon="2.58073">
        <ele>495</ele>
        <time>2021-10-31T09:29:19.178Z</time>
      </trkpt>
      <trkpt lat="44.01919" lon="2.58072">
        <ele>495</ele>
        <time>2021-10-31T09:29:20.178Z</time>
      </trkpt>
      <trkpt lat="44.01919" lon="2.58072">
        <ele>495</ele>
        <time>2021-10-31T09:29:21.178Z</time>
      </trkpt>
      <trkpt lat="44.01918" lon="2.58072">
        <ele>495</ele>
        <time>2021-10-31T09:29:22.178Z</time>
      </trkpt>
      <trkpt lat="44.01918" lon="2.58072">
        <ele>495</ele>
        <time>2021-10-31T09:29:23.178Z</time>
      </trkpt>
      <trkpt lat="44.01917" lon="2.58071">
        <ele>495</ele>
        <time>2021-10-31T09:29:24.178Z</time>
      </trkpt>
      <trkpt lat="44.01917" lon="2.5807">
        <ele>495</ele>
        <time>2021-10-31T09:29:25.178Z</time>
      </trkpt>
      <trkpt lat="44.01916" lon="2.5807">
        <ele>495</ele>
        <time>2021-10-31T09:29:26.178Z</time>
      </trkpt>
      <trkpt lat="44.01915" lon="2.58069">
        <ele>495</ele>
        <time>2021-10-31T09:29:27.178Z</time>
      </trkpt>
      <trkpt lat="44.01915" lon="2.58068">
        <ele>495</ele>
        <time>2021-10-31T09:29:28.178Z</time>
      </trkpt>
      <trkpt lat="44.01914" lon="2.58068">
        <ele>496</ele>
        <time>2021-10-31T09:29:29.178Z</time>
      </trkpt>
      <trkpt lat="44.01914" lon="2.58067">
        <ele>496</ele>
        <time>2021-10-31T09:29:30.178Z</time>
      </trkpt>
      <trkpt lat="44.01913" lon="2.58066">
        <ele>496</ele>
        <time>2021-10-31T09:29:31.178Z</time>
      </trkpt>
      <trkpt lat="44.01912" lon="2.58066">
        <ele>496</ele>
        <time>2021-10-31T09:29:32.178Z</time>
      </trkpt>
      <trkpt lat="44.01912" lon="2.58065">
        <ele>496</ele>
        <time>2021-10-31T09:29:33.178Z</time>
      </trkpt>
      <trkpt lat="44.01911" lon="2.58064">
        <ele>496</ele>
        <time>2021-10-31T09:29:34.178Z</time>
      </trkpt>
      <trkpt lat="44.0191" lon="2.58063">
        <ele>496</ele>
        <time>2021-10-31T09:29:35.178Z</time>
      </trkpt>
      <trkpt lat="44.01909" lon="2.58062">
        <ele>496</ele>
        <time>2021-10-31T09:29:36.178Z</time>
      </trkpt>
      <trkpt lat="44.01909" lon="2.58061">
        <ele>496</ele>
        <time>2021-10-31T09:29:37.178Z</time>
      </trkpt>
      <trkpt lat="44.01908" lon="2.5806">
        <ele>496</ele>
        <time>2021-10-31T09:29:38.178Z</time>
      </trkpt>
      <trkpt lat="44.01907" lon="2.58059">
        <ele>496</ele>
        <time>2021-10-31T09:29:39.178Z</time>
      </trkpt>
      <trkpt lat="44.01907" lon="2.58058">
        <ele>496</ele>
        <time>2021-10-31T09:29:40.178Z</time>
      </trkpt>
      <trkpt lat="44.01906" lon="2.58057">
        <ele>496</ele>
        <time>2021-10-31T09:29:41.178Z</time>
      </trkpt>
      <trkpt lat="44.01905" lon="2.58056">
        <ele>496</ele>
        <time>2021-10-31T09:29:42.178Z</time>
      </trkpt>
      <trkpt lat="44.01905" lon="2.58056">
        <ele>496</ele>
        <time>2021-10-31T09:29:43.178Z</time>
      </trkpt>
      <trkpt lat="44.01904" lon="2.58055">
        <ele>496</ele>
        <time>2021-10-31T09:29:44.178Z</time>
      </trkpt>
      <trkpt lat="44.01904" lon="2.58054">
        <ele>496</ele>
        <time>2021-10-31T09:29:45.178Z</time>
      </trkpt>
      <trkpt lat="44.01903" lon="2.58054">
        <ele>496</ele>
        <time>2021-10-31T09:29:46.178Z</time>
      </trkpt>
      <trkpt lat="44.01903" lon="2.58053">
        <ele>496</ele>
        <time>2021-10-31T09:29:47.178Z</time>
      </trkpt>
      <trkpt lat="44.01902" lon="2.58053">
        <ele>496</ele>
        <time>2021-10-31T09:29:48.178Z</time>
      </trkpt>
      <trkpt lat="44.01901" lon="2.58052">
        <ele>496</ele>
        <time>2021-10-31T09:29:49.178Z</time>
      </trkpt>
      <trkpt lat="44.01901" lon="2.58052">
        <ele>496</ele>
        <time>2021-10-31T09:29:50.178Z</time>
      </trkpt>
      <trkpt lat="44.019" lon="2.58051">
        <ele>496</ele>
        <time>2021-10-31T09:29:51.178Z</time>
      </trkpt>
      <trkpt lat="44.01899" lon="2.58051">
        <ele>496</ele>
        <time>2021-10-31T09:29:52.178Z</time>
      </trkpt>
      <trkpt lat="44.01898" lon="2.58051">
        <ele>496</ele>
        <time>2021-10-31T09:29:53.178Z</time>
      </trkpt>
      <trkpt lat="44.01897" lon="2.58051">
        <ele>496</ele>
        <time>2021-10-31T09:29:54.178Z</time>
      </trkpt>
      <trkpt lat="44.01896" lon="2.5805">
        <ele>496</ele>
        <time>2021-10-31T09:29:55.178Z</time>
      </trkpt>
      <trkpt lat="44.01895" lon="2.5805">
        <ele>496</ele>
        <time>2021-10-31T09:29:56.178Z</time>
      </trkpt>
      <trkpt lat="44.01894" lon="2.5805">
        <ele>496</ele>
        <time>2021-10-31T09:29:57.178Z</time>
      </trkpt>
      <trkpt lat="44.01893" lon="2.58049">
        <ele>496</ele>
        <time>2021-10-31T09:29:58.178Z</time>
      </trkpt>
      <trkpt lat="44.01892" lon="2.58049">
        <ele>496</ele>
        <time>2021-10-31T09:29:59.178Z</time>
      </trkpt>
      <trkpt lat="44.01891" lon="2.5805">
        <ele>496</ele>
        <time>2021-10-31T09:30:00.178Z</time>
      </trkpt>
      <trkpt lat="44.01889" lon="2.58051">
        <ele>496</ele>
        <time>2021-10-31T09:30:01.178Z</time>
      </trkpt>
      <trkpt lat="44.01888" lon="2.58051">
        <ele>496</ele>
        <time>2021-10-31T09:30:02.178Z</time>
      </trkpt>
      <trkpt lat="44.01887" lon="2.58052">
        <ele>496</ele>
        <time>2021-10-31T09:30:03.178Z</time>
      </trkpt>
      <trkpt lat="44.01886" lon="2.58052">
        <ele>496</ele>
        <time>2021-10-31T09:30:04.178Z</time>
      </trkpt>
      <trkpt lat="44.01885" lon="2.58053">
        <ele>496</ele>
        <time>2021-10-31T09:30:05.178Z</time>
      </trkpt>
      <trkpt lat="44.01884" lon="2.58053">
        <ele>496</ele>
        <time>2021-10-31T09:30:06.178Z</time>
      </trkpt>
      <trkpt lat="44.01883" lon="2.58054">
        <ele>497</ele>
        <time>2021-10-31T09:30:07.178Z</time>
      </trkpt>
      <trkpt lat="44.01882" lon="2.58054">
        <ele>497</ele>
        <time>2021-10-31T09:30:08.178Z</time>
      </trkpt>
      <trkpt lat="44.0188" lon="2.58055">
        <ele>497</ele>
        <time>2021-10-31T09:30:09.178Z</time>
      </trkpt>
      <trkpt lat="44.01879" lon="2.58055">
        <ele>497</ele>
        <time>2021-10-31T09:30:10.178Z</time>
      </trkpt>
      <trkpt lat="44.01878" lon="2.58056">
        <ele>497</ele>
        <time>2021-10-31T09:30:11.178Z</time>
      </trkpt>
      <trkpt lat="44.01877" lon="2.58057">
        <ele>497</ele>
        <time>2021-10-31T09:30:12.178Z</time>
      </trkpt>
      <trkpt lat="44.01876" lon="2.58057">
        <ele>497</ele>
        <time>2021-10-31T09:30:13.178Z</time>
      </trkpt>
      <trkpt lat="44.01875" lon="2.58058">
        <ele>497</ele>
        <time>2021-10-31T09:30:14.178Z</time>
      </trkpt>
      <trkpt lat="44.01874" lon="2.58058">
        <ele>497</ele>
        <time>2021-10-31T09:30:15.178Z</time>
      </trkpt>
      <trkpt lat="44.01872" lon="2.58059">
        <ele>497</ele>
        <time>2021-10-31T09:30:16.178Z</time>
      </trkpt>
      <trkpt lat="44.01871" lon="2.58059">
        <ele>497</ele>
        <time>2021-10-31T09:30:17.178Z</time>
      </trkpt>
      <trkpt lat="44.0187" lon="2.5806">
        <ele>497</ele>
        <time>2021-10-31T09:30:18.178Z</time>
      </trkpt>
      <trkpt lat="44.01869" lon="2.5806">
        <ele>497</ele>
        <time>2021-10-31T09:30:19.178Z</time>
      </trkpt>
      <trkpt lat="44.01868" lon="2.5806">
        <ele>497</ele>
        <time>2021-10-31T09:30:20.178Z</time>
      </trkpt>
      <trkpt lat="44.01867" lon="2.5806">
        <ele>497</ele>
        <time>2021-10-31T09:30:21.178Z</time>
      </trkpt>
      <trkpt lat="44.01866" lon="2.58061">
        <ele>497</ele>
        <time>2021-10-31T09:30:22.178Z</time>
      </trkpt>
      <trkpt lat="44.01865" lon="2.58061">
        <ele>498</ele>
        <time>2021-10-31T09:30:23.178Z</time>
      </trkpt>
      <trkpt lat="44.01864" lon="2.58061">
        <ele>498</ele>
        <time>2021-10-31T09:30:24.178Z</time>
      </trkpt>
      <trkpt lat="44.01863" lon="2.58061">
        <ele>498</ele>
        <time>2021-10-31T09:30:25.178Z</time>
      </trkpt>
      <trkpt lat="44.01862" lon="2.58061">
        <ele>498</ele>
        <time>2021-10-31T09:30:26.178Z</time>
      </trkpt>
      <trkpt lat="44.01861" lon="2.58061">
        <ele>498</ele>
        <time>2021-10-31T09:30:27.178Z</time>
      </trkpt>
      <trkpt lat="44.0186" lon="2.5806">
        <ele>498</ele>
        <time>2021-10-31T09:30:28.178Z</time>
      </trkpt>
      <trkpt lat="44.01859" lon="2.5806">
        <ele>498</ele>
        <time>2021-10-31T09:30:29.178Z</time>
      </trkpt>
      <trkpt lat="44.01858" lon="2.5806">
        <ele>498</ele>
        <time>2021-10-31T09:30:30.178Z</time>
      </trkpt>
      <trkpt lat="44.01857" lon="2.5806">
        <ele>498</ele>
        <time>2021-10-31T09:30:31.178Z</time>
      </trkpt>
      <trkpt lat="44.01856" lon="2.58061">
        <ele>498</ele>
        <time>2021-10-31T09:30:32.178Z</time>
      </trkpt>
      <trkpt lat="44.01855" lon="2.58062">
        <ele>498</ele>
        <time>2021-10-31T09:30:33.178Z</time>
      </trkpt>
      <trkpt lat="44.01855" lon="2.58062">
        <ele>498</ele>
        <time>2021-10-31T09:30:34.178Z</time>
      </trkpt>
      <trkpt lat="44.01854" lon="2.58063">
        <ele>498</ele>
        <time>2021-10-31T09:30:35.178Z</time>
      </trkpt>
      <trkpt lat="44.01853" lon="2.58064">
        <ele>498</ele>
        <time>2021-10-31T09:30:36.178Z</time>
      </trkpt>
      <trkpt lat="44.01852" lon="2.58065">
        <ele>498</ele>
        <time>2021-10-31T09:30:37.178Z</time>
      </trkpt>
      <trkpt lat="44.01851" lon="2.58066">
        <ele>498</ele>
        <time>2021-10-31T09:30:38.178Z</time>
      </trkpt>
      <trkpt lat="44.0185" lon="2.58066">
        <ele>499</ele>
        <time>2021-10-31T09:30:39.178Z</time>
      </trkpt>
      <trkpt lat="44.01849" lon="2.58066">
        <ele>499</ele>
        <time>2021-10-31T09:30:40.178Z</time>
      </trkpt>
      <trkpt lat="44.01848" lon="2.58066">
        <ele>499</ele>
        <time>2021-10-31T09:30:41.178Z</time>
      </trkpt>
      <trkpt lat="44.01847" lon="2.58066">
        <ele>499</ele>
        <time>2021-10-31T09:30:42.178Z</time>
      </trkpt>
      <trkpt lat="44.01847" lon="2.58067">
        <ele>499</ele>
        <time>2021-10-31T09:30:43.178Z</time>
      </trkpt>
      <trkpt lat="44.01846" lon="2.58067">
        <ele>499</ele>
        <time>2021-10-31T09:30:44.178Z</time>
      </trkpt>
      <trkpt lat="44.01845" lon="2.58067">
        <ele>499</ele>
        <time>2021-10-31T09:30:45.178Z</time>
      </trkpt>
      <trkpt lat="44.01844" lon="2.58068">
        <ele>499</ele>
        <time>2021-10-31T09:30:46.178Z</time>
      </trkpt>
      <trkpt lat="44.01843" lon="2.58068">
        <ele>499</ele>
        <time>2021-10-31T09:30:47.178Z</time>
      </trkpt>
      <trkpt lat="44.01842" lon="2.58068">
        <ele>499</ele>
        <time>2021-10-31T09:30:48.178Z</time>
      </trkpt>
      <trkpt lat="44.01841" lon="2.58069">
        <ele>499</ele>
        <time>2021-10-31T09:30:49.178Z</time>
      </trkpt>
      <trkpt lat="44.0184" lon="2.58069">
        <ele>499</ele>
        <time>2021-10-31T09:30:50.178Z</time>
      </trkpt>
      <trkpt lat="44.01839" lon="2.58069">
        <ele>499</ele>
        <time>2021-10-31T09:30:51.178Z</time>
      </trkpt>
      <trkpt lat="44.01838" lon="2.5807">
        <ele>499</ele>
        <time>2021-10-31T09:30:52.178Z</time>
      </trkpt>
      <trkpt lat="44.01837" lon="2.5807">
        <ele>499</ele>
        <time>2021-10-31T09:30:53.178Z</time>
      </trkpt>
      <trkpt lat="44.01837" lon="2.58071">
        <ele>499</ele>
        <time>2021-10-31T09:30:54.178Z</time>
      </trkpt>
      <trkpt lat="44.01836" lon="2.5807">
        <ele>499</ele>
        <time>2021-10-31T09:30:55.178Z</time>
      </trkpt>
      <trkpt lat="44.01836" lon="2.58071">
        <ele>499</ele>
        <time>2021-10-31T09:30:56.178Z</time>
      </trkpt>
      <trkpt lat="44.01835" lon="2.58071">
        <ele>499</ele>
        <time>2021-10-31T09:30:57.178Z</time>
      </trkpt>
      <trkpt lat="44.01834" lon="2.58071">
        <ele>499</ele>
        <time>2021-10-31T09:30:58.178Z</time>
      </trkpt>
      <trkpt lat="44.01833" lon="2.58071">
        <ele>499</ele>
        <time>2021-10-31T09:30:59.178Z</time>
      </trkpt>
      <trkpt lat="44.01833" lon="2.58072">
        <ele>499</ele>
        <time>2021-10-31T09:31:00.178Z</time>
      </trkpt>
      <trkpt lat="44.01832" lon="2.58072">
        <ele>499</ele>
        <time>2021-10-31T09:31:01.178Z</time>
      </trkpt>
      <trkpt lat="44.01831" lon="2.58073">
        <ele>499</ele>
        <time>2021-10-31T09:31:02.178Z</time>
      </trkpt>
      <trkpt lat="44.0183" lon="2.58073">
        <ele>499</ele>
        <time>2021-10-31T09:31:03.178Z</time>
      </trkpt>
      <trkpt lat="44.01828" lon="2.58073">
        <ele>500</ele>
        <time>2021-10-31T09:31:04.178Z</time>
      </trkpt>
      <trkpt lat="44.01827" lon="2.58074">
        <ele>500</ele>
        <time>2021-10-31T09:31:05.178Z</time>
      </trkpt>
      <trkpt lat="44.01826" lon="2.58074">
        <ele>500</ele>
        <time>2021-10-31T09:31:06.178Z</time>
      </trkpt>
      <trkpt lat="44.01825" lon="2.58075">
        <ele>500</ele>
        <time>2021-10-31T09:31:07.178Z</time>
      </trkpt>
      <trkpt lat="44.01824" lon="2.58076">
        <ele>500</ele>
        <time>2021-10-31T09:31:08.178Z</time>
      </trkpt>
      <trkpt lat="44.01823" lon="2.58076">
        <ele>500</ele>
        <time>2021-10-31T09:31:09.178Z</time>
      </trkpt>
      <trkpt lat="44.01822" lon="2.58076">
        <ele>500</ele>
        <time>2021-10-31T09:31:10.178Z</time>
      </trkpt>
      <trkpt lat="44.01821" lon="2.58076">
        <ele>500</ele>
        <time>2021-10-31T09:31:11.178Z</time>
      </trkpt>
      <trkpt lat="44.0182" lon="2.58077">
        <ele>500</ele>
        <time>2021-10-31T09:31:12.178Z</time>
      </trkpt>
      <trkpt lat="44.01819" lon="2.58077">
        <ele>500</ele>
        <time>2021-10-31T09:31:13.178Z</time>
      </trkpt>
      <trkpt lat="44.01818" lon="2.58077">
        <ele>500</ele>
        <time>2021-10-31T09:31:14.178Z</time>
      </trkpt>
      <trkpt lat="44.01817" lon="2.58078">
        <ele>500</ele>
        <time>2021-10-31T09:31:15.178Z</time>
      </trkpt>
      <trkpt lat="44.01816" lon="2.58078">
        <ele>500</ele>
        <time>2021-10-31T09:31:16.178Z</time>
      </trkpt>
      <trkpt lat="44.01815" lon="2.58078">
        <ele>500</ele>
        <time>2021-10-31T09:31:17.178Z</time>
      </trkpt>
      <trkpt lat="44.01814" lon="2.58078">
        <ele>500</ele>
        <time>2021-10-31T09:31:18.178Z</time>
      </trkpt>
      <trkpt lat="44.01813" lon="2.58078">
        <ele>500</ele>
        <time>2021-10-31T09:31:19.178Z</time>
      </trkpt>
      <trkpt lat="44.01812" lon="2.58078">
        <ele>500</ele>
        <time>2021-10-31T09:31:20.178Z</time>
      </trkpt>
      <trkpt lat="44.01811" lon="2.58079">
        <ele>500</ele>
        <time>2021-10-31T09:31:21.178Z</time>
      </trkpt>
      <trkpt lat="44.0181" lon="2.58079">
        <ele>500</ele>
        <time>2021-10-31T09:31:22.178Z</time>
      </trkpt>
      <trkpt lat="44.01809" lon="2.5808">
        <ele>501</ele>
        <time>2021-10-31T09:31:23.178Z</time>
      </trkpt>
      <trkpt lat="44.01808" lon="2.5808">
        <ele>501</ele>
        <time>2021-10-31T09:31:24.178Z</time>
      </trkpt>
      <trkpt lat="44.01807" lon="2.58081">
        <ele>501</ele>
        <time>2021-10-31T09:31:25.178Z</time>
      </trkpt>
      <trkpt lat="44.01806" lon="2.58081">
        <ele>501</ele>
        <time>2021-10-31T09:31:26.178Z</time>
      </trkpt>
      <trkpt lat="44.01804" lon="2.58082">
        <ele>501</ele>
        <time>2021-10-31T09:33:58.202Z</time>
      </trkpt>
      <trkpt lat="44.01804" lon="2.58082">
        <ele>501</ele>
        <time>2021-10-31T09:33:59.202Z</time>
      </trkpt>
      <trkpt lat="44.01802" lon="2.58083">
        <ele>501</ele>
        <time>2021-10-31T09:34:00.202Z</time>
      </trkpt>
      <trkpt lat="44.01801" lon="2.58083">
        <ele>501</ele>
        <time>2021-10-31T09:34:01.202Z</time>
      </trkpt>
      <trkpt lat="44.018" lon="2.58084">
        <ele>501</ele>
        <time>2021-10-31T09:34:02.202Z</time>
      </trkpt>
      <trkpt lat="44.01799" lon="2.58084">
        <ele>501</ele>
        <time>2021-10-31T09:34:03.202Z</time>
      </trkpt>
      <trkpt lat="44.01798" lon="2.58084">
        <ele>501</ele>
        <time>2021-10-31T09:34:04.202Z</time>
      </trkpt>
      <trkpt lat="44.01797" lon="2.58085">
        <ele>501</ele>
        <time>2021-10-31T09:34:05.202Z</time>
      </trkpt>
      <trkpt lat="44.01796" lon="2.58086">
        <ele>501</ele>
        <time>2021-10-31T09:34:06.202Z</time>
      </trkpt>
      <trkpt lat="44.01794" lon="2.58086">
        <ele>501</ele>
        <time>2021-10-31T09:34:07.202Z</time>
      </trkpt>
      <trkpt lat="44.01793" lon="2.58087">
        <ele>501</ele>
        <time>2021-10-31T09:34:08.202Z</time>
      </trkpt>
      <trkpt lat="44.01792" lon="2.58088">
        <ele>501</ele>
        <time>2021-10-31T09:34:09.202Z</time>
      </trkpt>
      <trkpt lat="44.01791" lon="2.58089">
        <ele>501</ele>
        <time>2021-10-31T09:34:10.202Z</time>
      </trkpt>
      <trkpt lat="44.0179" lon="2.58089">
        <ele>501</ele>
        <time>2021-10-31T09:34:11.202Z</time>
      </trkpt>
      <trkpt lat="44.01789" lon="2.5809">
        <ele>501</ele>
        <time>2021-10-31T09:34:12.202Z</time>
      </trkpt>
      <trkpt lat="44.01789" lon="2.5809">
        <ele>501</ele>
        <time>2021-10-31T09:34:13.202Z</time>
      </trkpt>
      <trkpt lat="44.01788" lon="2.58091">
        <ele>501</ele>
        <time>2021-10-31T09:34:14.202Z</time>
      </trkpt>
      <trkpt lat="44.01787" lon="2.58091">
        <ele>501</ele>
        <time>2021-10-31T09:34:15.202Z</time>
      </trkpt>
      <trkpt lat="44.01787" lon="2.58091">
        <ele>502</ele>
        <time>2021-10-31T09:34:16.202Z</time>
      </trkpt>
      <trkpt lat="44.01786" lon="2.58092">
        <ele>502</ele>
        <time>2021-10-31T09:34:17.202Z</time>
      </trkpt>
      <trkpt lat="44.01786" lon="2.58093">
        <ele>502</ele>
        <time>2021-10-31T09:34:18.202Z</time>
      </trkpt>
      <trkpt lat="44.01785" lon="2.58093">
        <ele>502</ele>
        <time>2021-10-31T09:34:19.202Z</time>
      </trkpt>
      <trkpt lat="44.01784" lon="2.58094">
        <ele>502</ele>
        <time>2021-10-31T09:34:20.202Z</time>
      </trkpt>
      <trkpt lat="44.01783" lon="2.58095">
        <ele>502</ele>
        <time>2021-10-31T09:34:21.202Z</time>
      </trkpt>
      <trkpt lat="44.01782" lon="2.58096">
        <ele>502</ele>
        <time>2021-10-31T09:34:22.202Z</time>
      </trkpt>
      <trkpt lat="44.01781" lon="2.58096">
        <ele>502</ele>
        <time>2021-10-31T09:34:23.202Z</time>
      </trkpt>
      <trkpt lat="44.0178" lon="2.58097">
        <ele>502</ele>
        <time>2021-10-31T09:34:24.202Z</time>
      </trkpt>
      <trkpt lat="44.01779" lon="2.58097">
        <ele>502</ele>
        <time>2021-10-31T09:34:25.202Z</time>
      </trkpt>
      <trkpt lat="44.01779" lon="2.58098">
        <ele>502</ele>
        <time>2021-10-31T09:34:26.202Z</time>
      </trkpt>
      <trkpt lat="44.01779" lon="2.58098">
        <ele>502</ele>
        <time>2021-10-31T09:34:27.202Z</time>
      </trkpt>
      <trkpt lat="44.01778" lon="2.58098">
        <ele>502</ele>
        <time>2021-10-31T09:34:28.202Z</time>
      </trkpt>
      <trkpt lat="44.01777" lon="2.58098">
        <ele>502</ele>
        <time>2021-10-31T09:34:29.202Z</time>
      </trkpt>
      <trkpt lat="44.01776" lon="2.58099">
        <ele>503</ele>
        <time>2021-10-31T09:34:30.202Z</time>
      </trkpt>
      <trkpt lat="44.01775" lon="2.58099">
        <ele>503</ele>
        <time>2021-10-31T09:34:31.202Z</time>
      </trkpt>
      <trkpt lat="44.01774" lon="2.581">
        <ele>503</ele>
        <time>2021-10-31T09:34:32.202Z</time>
      </trkpt>
      <trkpt lat="44.01773" lon="2.58101">
        <ele>503</ele>
        <time>2021-10-31T09:34:33.202Z</time>
      </trkpt>
      <trkpt lat="44.01773" lon="2.58101">
        <ele>503</ele>
        <time>2021-10-31T09:34:34.202Z</time>
      </trkpt>
      <trkpt lat="44.01772" lon="2.58102">
        <ele>503</ele>
        <time>2021-10-31T09:34:35.202Z</time>
      </trkpt>
      <trkpt lat="44.01771" lon="2.58103">
        <ele>503</ele>
        <time>2021-10-31T09:34:36.202Z</time>
      </trkpt>
      <trkpt lat="44.0177" lon="2.58104">
        <ele>503</ele>
        <time>2021-10-31T09:34:37.202Z</time>
      </trkpt>
      <trkpt lat="44.01769" lon="2.58104">
        <ele>503</ele>
        <time>2021-10-31T09:34:38.202Z</time>
      </trkpt>
      <trkpt lat="44.01768" lon="2.58105">
        <ele>503</ele>
        <time>2021-10-31T09:34:39.202Z</time>
      </trkpt>
      <trkpt lat="44.01767" lon="2.58105">
        <ele>503</ele>
        <time>2021-10-31T09:34:40.202Z</time>
      </trkpt>
      <trkpt lat="44.01765" lon="2.58106">
        <ele>504</ele>
        <time>2021-10-31T09:34:41.202Z</time>
      </trkpt>
      <trkpt lat="44.01764" lon="2.58107">
        <ele>504</ele>
        <time>2021-10-31T09:34:42.202Z</time>
      </trkpt>
      <trkpt lat="44.01763" lon="2.58107">
        <ele>504</ele>
        <time>2021-10-31T09:34:43.202Z</time>
      </trkpt>
      <trkpt lat="44.01762" lon="2.58107">
        <ele>504</ele>
        <time>2021-10-31T09:34:44.202Z</time>
      </trkpt>
      <trkpt lat="44.01761" lon="2.58108">
        <ele>504</ele>
        <time>2021-10-31T09:34:45.202Z</time>
      </trkpt>
      <trkpt lat="44.01759" lon="2.58108">
        <ele>504</ele>
        <time>2021-10-31T09:34:46.202Z</time>
      </trkpt>
      <trkpt lat="44.01758" lon="2.58109">
        <ele>504</ele>
        <time>2021-10-31T09:34:47.202Z</time>
      </trkpt>
      <trkpt lat="44.01757" lon="2.5811">
        <ele>504</ele>
        <time>2021-10-31T09:34:48.202Z</time>
      </trkpt>
      <trkpt lat="44.01756" lon="2.58111">
        <ele>504</ele>
        <time>2021-10-31T09:34:49.202Z</time>
      </trkpt>
      <trkpt lat="44.01755" lon="2.58112">
        <ele>504</ele>
        <time>2021-10-31T09:34:50.202Z</time>
      </trkpt>
      <trkpt lat="44.01754" lon="2.58113">
        <ele>504</ele>
        <time>2021-10-31T09:34:51.202Z</time>
      </trkpt>
      <trkpt lat="44.01754" lon="2.58113">
        <ele>504</ele>
        <time>2021-10-31T09:34:52.202Z</time>
      </trkpt>
      <trkpt lat="44.01753" lon="2.58114">
        <ele>504</ele>
        <time>2021-10-31T09:34:53.202Z</time>
      </trkpt>
      <trkpt lat="44.01752" lon="2.58115">
        <ele>504</ele>
        <time>2021-10-31T09:34:54.202Z</time>
      </trkpt>
      <trkpt lat="44.01751" lon="2.58115">
        <ele>504</ele>
        <time>2021-10-31T09:34:55.202Z</time>
      </trkpt>
      <trkpt lat="44.0175" lon="2.58116">
        <ele>504</ele>
        <time>2021-10-31T09:34:56.202Z</time>
      </trkpt>
      <trkpt lat="44.01749" lon="2.58116">
        <ele>505</ele>
        <time>2021-10-31T09:34:57.202Z</time>
      </trkpt>
      <trkpt lat="44.01748" lon="2.58117">
        <ele>505</ele>
        <time>2021-10-31T09:34:58.202Z</time>
      </trkpt>
      <trkpt lat="44.01747" lon="2.58117">
        <ele>505</ele>
        <time>2021-10-31T09:34:59.202Z</time>
      </trkpt>
      <trkpt lat="44.01746" lon="2.58117">
        <ele>505</ele>
        <time>2021-10-31T09:35:00.202Z</time>
      </trkpt>
      <trkpt lat="44.01745" lon="2.58117">
        <ele>505</ele>
        <time>2021-10-31T09:35:01.202Z</time>
      </trkpt>
      <trkpt lat="44.01745" lon="2.58118">
        <ele>505</ele>
        <time>2021-10-31T09:35:02.202Z</time>
      </trkpt>
      <trkpt lat="44.01744" lon="2.58118">
        <ele>505</ele>
        <time>2021-10-31T09:35:03.202Z</time>
      </trkpt>
      <trkpt lat="44.01743" lon="2.58118">
        <ele>506</ele>
        <time>2021-10-31T09:35:04.202Z</time>
      </trkpt>
      <trkpt lat="44.01743" lon="2.58119">
        <ele>506</ele>
        <time>2021-10-31T09:35:05.202Z</time>
      </trkpt>
      <trkpt lat="44.0174" lon="2.58121">
        <ele>506</ele>
        <time>2021-10-31T09:35:06.202Z</time>
      </trkpt>
      <trkpt lat="44.01739" lon="2.58122">
        <ele>506</ele>
        <time>2021-10-31T09:35:07.202Z</time>
      </trkpt>
      <trkpt lat="44.01737" lon="2.58122">
        <ele>506</ele>
        <time>2021-10-31T09:35:08.202Z</time>
      </trkpt>
      <trkpt lat="44.01736" lon="2.58123">
        <ele>506</ele>
        <time>2021-10-31T09:35:09.202Z</time>
      </trkpt>
      <trkpt lat="44.01735" lon="2.58123">
        <ele>506</ele>
        <time>2021-10-31T09:35:10.202Z</time>
      </trkpt>
      <trkpt lat="44.01733" lon="2.58124">
        <ele>506</ele>
        <time>2021-10-31T09:35:11.202Z</time>
      </trkpt>
      <trkpt lat="44.01732" lon="2.58124">
        <ele>506</ele>
        <time>2021-10-31T09:35:12.202Z</time>
      </trkpt>
      <trkpt lat="44.01731" lon="2.58124">
        <ele>506</ele>
        <time>2021-10-31T09:35:13.202Z</time>
      </trkpt>
      <trkpt lat="44.0173" lon="2.58125">
        <ele>506</ele>
        <time>2021-10-31T09:35:14.202Z</time>
      </trkpt>
      <trkpt lat="44.01728" lon="2.58125">
        <ele>506</ele>
        <time>2021-10-31T09:35:15.202Z</time>
      </trkpt>
      <trkpt lat="44.01727" lon="2.58126">
        <ele>506</ele>
        <time>2021-10-31T09:35:16.202Z</time>
      </trkpt>
      <trkpt lat="44.01726" lon="2.58126">
        <ele>506</ele>
        <time>2021-10-31T09:35:17.202Z</time>
      </trkpt>
      <trkpt lat="44.01724" lon="2.58126">
        <ele>506</ele>
        <time>2021-10-31T09:35:18.202Z</time>
      </trkpt>
      <trkpt lat="44.01723" lon="2.58127">
        <ele>506</ele>
        <time>2021-10-31T09:35:19.202Z</time>
      </trkpt>
      <trkpt lat="44.01721" lon="2.58127">
        <ele>506</ele>
        <time>2021-10-31T09:35:20.202Z</time>
      </trkpt>
      <trkpt lat="44.0172" lon="2.58128">
        <ele>506</ele>
        <time>2021-10-31T09:35:21.202Z</time>
      </trkpt>
      <trkpt lat="44.01718" lon="2.58128">
        <ele>506</ele>
        <time>2021-10-31T09:35:22.202Z</time>
      </trkpt>
      <trkpt lat="44.01717" lon="2.58128">
        <ele>506</ele>
        <time>2021-10-31T09:35:23.202Z</time>
      </trkpt>
      <trkpt lat="44.01716" lon="2.58128">
        <ele>506</ele>
        <time>2021-10-31T09:35:24.202Z</time>
      </trkpt>
      <trkpt lat="44.01715" lon="2.58128">
        <ele>506</ele>
        <time>2021-10-31T09:35:25.202Z</time>
      </trkpt>
      <trkpt lat="44.01714" lon="2.58128">
        <ele>506</ele>
        <time>2021-10-31T09:35:26.202Z</time>
      </trkpt>
      <trkpt lat="44.01713" lon="2.58129">
        <ele>506</ele>
        <time>2021-10-31T09:35:27.202Z</time>
      </trkpt>
      <trkpt lat="44.01712" lon="2.58129">
        <ele>506</ele>
        <time>2021-10-31T09:35:28.202Z</time>
      </trkpt>
      <trkpt lat="44.01711" lon="2.58129">
        <ele>505</ele>
        <time>2021-10-31T09:35:29.202Z</time>
      </trkpt>
      <trkpt lat="44.0171" lon="2.58129">
        <ele>505</ele>
        <time>2021-10-31T09:35:30.202Z</time>
      </trkpt>
      <trkpt lat="44.0171" lon="2.58128">
        <ele>506</ele>
        <time>2021-10-31T09:35:31.202Z</time>
      </trkpt>
      <trkpt lat="44.01709" lon="2.58128">
        <ele>506</ele>
        <time>2021-10-31T09:35:32.202Z</time>
      </trkpt>
      <trkpt lat="44.01708" lon="2.58128">
        <ele>506</ele>
        <time>2021-10-31T09:35:33.202Z</time>
      </trkpt>
      <trkpt lat="44.01707" lon="2.58127">
        <ele>506</ele>
        <time>2021-10-31T09:35:34.202Z</time>
      </trkpt>
      <trkpt lat="44.01706" lon="2.58127">
        <ele>506</ele>
        <time>2021-10-31T09:35:35.202Z</time>
      </trkpt>
      <trkpt lat="44.01705" lon="2.58127">
        <ele>506</ele>
        <time>2021-10-31T09:35:36.202Z</time>
      </trkpt>
      <trkpt lat="44.01704" lon="2.58127">
        <ele>506</ele>
        <time>2021-10-31T09:35:37.202Z</time>
      </trkpt>
      <trkpt lat="44.01703" lon="2.58127">
        <ele>506</ele>
        <time>2021-10-31T09:35:38.202Z</time>
      </trkpt>
      <trkpt lat="44.01702" lon="2.58127">
        <ele>506</ele>
        <time>2021-10-31T09:35:39.202Z</time>
      </trkpt>
      <trkpt lat="44.01702" lon="2.58127">
        <ele>506</ele>
        <time>2021-10-31T09:35:40.202Z</time>
      </trkpt>
      <trkpt lat="44.01701" lon="2.58127">
        <ele>506</ele>
        <time>2021-10-31T09:35:41.202Z</time>
      </trkpt>
      <trkpt lat="44.017" lon="2.58127">
        <ele>506</ele>
        <time>2021-10-31T09:35:42.202Z</time>
      </trkpt>
      <trkpt lat="44.01698" lon="2.58127">
        <ele>506</ele>
        <time>2021-10-31T09:35:43.202Z</time>
      </trkpt>
      <trkpt lat="44.01697" lon="2.58127">
        <ele>506</ele>
        <time>2021-10-31T09:35:44.202Z</time>
      </trkpt>
      <trkpt lat="44.01696" lon="2.58127">
        <ele>506</ele>
        <time>2021-10-31T09:35:45.202Z</time>
      </trkpt>
      <trkpt lat="44.01694" lon="2.58128">
        <ele>506</ele>
        <time>2021-10-31T09:35:46.202Z</time>
      </trkpt>
      <trkpt lat="44.01693" lon="2.58128">
        <ele>506</ele>
        <time>2021-10-31T09:35:47.202Z</time>
      </trkpt>
      <trkpt lat="44.01691" lon="2.58128">
        <ele>506</ele>
        <time>2021-10-31T09:35:48.202Z</time>
      </trkpt>
      <trkpt lat="44.0169" lon="2.58128">
        <ele>506</ele>
        <time>2021-10-31T09:35:49.202Z</time>
      </trkpt>
      <trkpt lat="44.01689" lon="2.58128">
        <ele>506</ele>
        <time>2021-10-31T09:35:50.202Z</time>
      </trkpt>
      <trkpt lat="44.01687" lon="2.58128">
        <ele>506</ele>
        <time>2021-10-31T09:35:51.202Z</time>
      </trkpt>
      <trkpt lat="44.01686" lon="2.58129">
        <ele>505</ele>
        <time>2021-10-31T09:35:52.202Z</time>
      </trkpt>
      <trkpt lat="44.01685" lon="2.58129">
        <ele>505</ele>
        <time>2021-10-31T09:35:53.202Z</time>
      </trkpt>
      <trkpt lat="44.01684" lon="2.58129">
        <ele>505</ele>
        <time>2021-10-31T09:35:54.202Z</time>
      </trkpt>
      <trkpt lat="44.01683" lon="2.58129">
        <ele>505</ele>
        <time>2021-10-31T09:35:55.202Z</time>
      </trkpt>
      <trkpt lat="44.01682" lon="2.58129">
        <ele>505</ele>
        <time>2021-10-31T09:35:56.202Z</time>
      </trkpt>
      <trkpt lat="44.01681" lon="2.58129">
        <ele>505</ele>
        <time>2021-10-31T09:35:57.202Z</time>
      </trkpt>
      <trkpt lat="44.0168" lon="2.58129">
        <ele>505</ele>
        <time>2021-10-31T09:35:58.202Z</time>
      </trkpt>
      <trkpt lat="44.01679" lon="2.58129">
        <ele>505</ele>
        <time>2021-10-31T09:35:59.202Z</time>
      </trkpt>
      <trkpt lat="44.01678" lon="2.5813">
        <ele>505</ele>
        <time>2021-10-31T09:36:00.202Z</time>
      </trkpt>
      <trkpt lat="44.01677" lon="2.5813">
        <ele>505</ele>
        <time>2021-10-31T09:36:01.202Z</time>
      </trkpt>
      <trkpt lat="44.01676" lon="2.58129">
        <ele>505</ele>
        <time>2021-10-31T09:36:02.202Z</time>
      </trkpt>
      <trkpt lat="44.01675" lon="2.58129">
        <ele>505</ele>
        <time>2021-10-31T09:36:03.202Z</time>
      </trkpt>
      <trkpt lat="44.01674" lon="2.58129">
        <ele>505</ele>
        <time>2021-10-31T09:36:04.202Z</time>
      </trkpt>
      <trkpt lat="44.01673" lon="2.58129">
        <ele>505</ele>
        <time>2021-10-31T09:36:05.202Z</time>
      </trkpt>
      <trkpt lat="44.01672" lon="2.58129">
        <ele>505</ele>
        <time>2021-10-31T09:36:06.202Z</time>
      </trkpt>
      <trkpt lat="44.01671" lon="2.58129">
        <ele>505</ele>
        <time>2021-10-31T09:36:07.202Z</time>
      </trkpt>
      <trkpt lat="44.0167" lon="2.58129">
        <ele>505</ele>
        <time>2021-10-31T09:36:08.202Z</time>
      </trkpt>
      <trkpt lat="44.01669" lon="2.58128">
        <ele>505</ele>
        <time>2021-10-31T09:36:09.202Z</time>
      </trkpt>
      <trkpt lat="44.01668" lon="2.58128">
        <ele>505</ele>
        <time>2021-10-31T09:36:10.202Z</time>
      </trkpt>
      <trkpt lat="44.01667" lon="2.58128">
        <ele>505</ele>
        <time>2021-10-31T09:36:11.202Z</time>
      </trkpt>
      <trkpt lat="44.01666" lon="2.58129">
        <ele>505</ele>
        <time>2021-10-31T09:36:12.202Z</time>
      </trkpt>
      <trkpt lat="44.01665" lon="2.58128">
        <ele>505</ele>
        <time>2021-10-31T09:36:13.202Z</time>
      </trkpt>
      <trkpt lat="44.01664" lon="2.58128">
        <ele>505</ele>
        <time>2021-10-31T09:36:14.202Z</time>
      </trkpt>
      <trkpt lat="44.01663" lon="2.58128">
        <ele>505</ele>
        <time>2021-10-31T09:36:15.202Z</time>
      </trkpt>
      <trkpt lat="44.01662" lon="2.58128">
        <ele>505</ele>
        <time>2021-10-31T09:36:16.202Z</time>
      </trkpt>
      <trkpt lat="44.01661" lon="2.58128">
        <ele>505</ele>
        <time>2021-10-31T09:36:17.202Z</time>
      </trkpt>
      <trkpt lat="44.0166" lon="2.58127">
        <ele>505</ele>
        <time>2021-10-31T09:36:18.202Z</time>
      </trkpt>
      <trkpt lat="44.01659" lon="2.58127">
        <ele>505</ele>
        <time>2021-10-31T09:36:19.202Z</time>
      </trkpt>
      <trkpt lat="44.01658" lon="2.58126">
        <ele>505</ele>
        <time>2021-10-31T09:36:20.202Z</time>
      </trkpt>
      <trkpt lat="44.01657" lon="2.58126">
        <ele>505</ele>
        <time>2021-10-31T09:36:21.202Z</time>
      </trkpt>
      <trkpt lat="44.01656" lon="2.58126">
        <ele>505</ele>
        <time>2021-10-31T09:36:22.202Z</time>
      </trkpt>
      <trkpt lat="44.01655" lon="2.58126">
        <ele>505</ele>
        <time>2021-10-31T09:36:23.202Z</time>
      </trkpt>
      <trkpt lat="44.01654" lon="2.58125">
        <ele>505</ele>
        <time>2021-10-31T09:36:24.202Z</time>
      </trkpt>
      <trkpt lat="44.01653" lon="2.58125">
        <ele>505</ele>
        <time>2021-10-31T09:36:25.202Z</time>
      </trkpt>
      <trkpt lat="44.01652" lon="2.58124">
        <ele>505</ele>
        <time>2021-10-31T09:36:26.202Z</time>
      </trkpt>
      <trkpt lat="44.01651" lon="2.58123">
        <ele>505</ele>
        <time>2021-10-31T09:36:27.202Z</time>
      </trkpt>
      <trkpt lat="44.0165" lon="2.58122">
        <ele>506</ele>
        <time>2021-10-31T09:36:28.202Z</time>
      </trkpt>
      <trkpt lat="44.0165" lon="2.58122">
        <ele>506</ele>
        <time>2021-10-31T09:36:29.202Z</time>
      </trkpt>
      <trkpt lat="44.01649" lon="2.58121">
        <ele>506</ele>
        <time>2021-10-31T09:36:30.202Z</time>
      </trkpt>
      <trkpt lat="44.01648" lon="2.58121">
        <ele>506</ele>
        <time>2021-10-31T09:36:31.202Z</time>
      </trkpt>
      <trkpt lat="44.01647" lon="2.5812">
        <ele>506</ele>
        <time>2021-10-31T09:36:32.202Z</time>
      </trkpt>
      <trkpt lat="44.01646" lon="2.5812">
        <ele>506</ele>
        <time>2021-10-31T09:36:33.202Z</time>
      </trkpt>
      <trkpt lat="44.01645" lon="2.58119">
        <ele>506</ele>
        <time>2021-10-31T09:36:34.202Z</time>
      </trkpt>
      <trkpt lat="44.01644" lon="2.58119">
        <ele>506</ele>
        <time>2021-10-31T09:36:35.202Z</time>
      </trkpt>
      <trkpt lat="44.01643" lon="2.58118">
        <ele>506</ele>
        <time>2021-10-31T09:36:36.202Z</time>
      </trkpt>
      <trkpt lat="44.01643" lon="2.58117">
        <ele>506</ele>
        <time>2021-10-31T09:36:37.202Z</time>
      </trkpt>
      <trkpt lat="44.01642" lon="2.58117">
        <ele>507</ele>
        <time>2021-10-31T09:36:38.202Z</time>
      </trkpt>
      <trkpt lat="44.01641" lon="2.58116">
        <ele>507</ele>
        <time>2021-10-31T09:36:39.202Z</time>
      </trkpt>
      <trkpt lat="44.0164" lon="2.58116">
        <ele>507</ele>
        <time>2021-10-31T09:36:40.202Z</time>
      </trkpt>
      <trkpt lat="44.01639" lon="2.58115">
        <ele>507</ele>
        <time>2021-10-31T09:36:41.202Z</time>
      </trkpt>
      <trkpt lat="44.01638" lon="2.58115">
        <ele>507</ele>
        <time>2021-10-31T09:36:42.202Z</time>
      </trkpt>
      <trkpt lat="44.01637" lon="2.58114">
        <ele>507</ele>
        <time>2021-10-31T09:36:43.202Z</time>
      </trkpt>
      <trkpt lat="44.01636" lon="2.58114">
        <ele>507</ele>
        <time>2021-10-31T09:36:44.202Z</time>
      </trkpt>
      <trkpt lat="44.01635" lon="2.58113">
        <ele>507</ele>
        <time>2021-10-31T09:36:45.202Z</time>
      </trkpt>
      <trkpt lat="44.01634" lon="2.58113">
        <ele>508</ele>
        <time>2021-10-31T09:36:46.202Z</time>
      </trkpt>
      <trkpt lat="44.01634" lon="2.58112">
        <ele>508</ele>
        <time>2021-10-31T09:36:47.202Z</time>
      </trkpt>
      <trkpt lat="44.01633" lon="2.58112">
        <ele>508</ele>
        <time>2021-10-31T09:36:48.202Z</time>
      </trkpt>
      <trkpt lat="44.01632" lon="2.58111">
        <ele>508</ele>
        <time>2021-10-31T09:36:49.202Z</time>
      </trkpt>
      <trkpt lat="44.01631" lon="2.58111">
        <ele>508</ele>
        <time>2021-10-31T09:36:50.202Z</time>
      </trkpt>
      <trkpt lat="44.0163" lon="2.58111">
        <ele>508</ele>
        <time>2021-10-31T09:36:51.202Z</time>
      </trkpt>
      <trkpt lat="44.01629" lon="2.5811">
        <ele>508</ele>
        <time>2021-10-31T09:36:52.202Z</time>
      </trkpt>
      <trkpt lat="44.01628" lon="2.5811">
        <ele>508</ele>
        <time>2021-10-31T09:36:53.202Z</time>
      </trkpt>
      <trkpt lat="44.01627" lon="2.58109">
        <ele>508</ele>
        <time>2021-10-31T09:36:54.202Z</time>
      </trkpt>
      <trkpt lat="44.01626" lon="2.58109">
        <ele>508</ele>
        <time>2021-10-31T09:36:55.202Z</time>
      </trkpt>
      <trkpt lat="44.01625" lon="2.58108">
        <ele>508</ele>
        <time>2021-10-31T09:36:56.202Z</time>
      </trkpt>
      <trkpt lat="44.01624" lon="2.58108">
        <ele>509</ele>
        <time>2021-10-31T09:36:57.202Z</time>
      </trkpt>
      <trkpt lat="44.01624" lon="2.58107">
        <ele>509</ele>
        <time>2021-10-31T09:36:58.202Z</time>
      </trkpt>
      <trkpt lat="44.01623" lon="2.58106">
        <ele>509</ele>
        <time>2021-10-31T09:36:59.202Z</time>
      </trkpt>
      <trkpt lat="44.01622" lon="2.58106">
        <ele>509</ele>
        <time>2021-10-31T09:37:00.202Z</time>
      </trkpt>
      <trkpt lat="44.01622" lon="2.58105">
        <ele>509</ele>
        <time>2021-10-31T09:37:01.202Z</time>
      </trkpt>
      <trkpt lat="44.01621" lon="2.58104">
        <ele>509</ele>
        <time>2021-10-31T09:37:02.202Z</time>
      </trkpt>
      <trkpt lat="44.0162" lon="2.58104">
        <ele>509</ele>
        <time>2021-10-31T09:37:03.202Z</time>
      </trkpt>
      <trkpt lat="44.0162" lon="2.58103">
        <ele>509</ele>
        <time>2021-10-31T09:37:04.202Z</time>
      </trkpt>
      <trkpt lat="44.01619" lon="2.58103">
        <ele>509</ele>
        <time>2021-10-31T09:37:05.202Z</time>
      </trkpt>
      <trkpt lat="44.01618" lon="2.58102">
        <ele>509</ele>
        <time>2021-10-31T09:37:06.202Z</time>
      </trkpt>
      <trkpt lat="44.01617" lon="2.58101">
        <ele>509</ele>
        <time>2021-10-31T09:37:07.202Z</time>
      </trkpt>
      <trkpt lat="44.01616" lon="2.581">
        <ele>509</ele>
        <time>2021-10-31T09:37:08.202Z</time>
      </trkpt>
      <trkpt lat="44.01616" lon="2.581">
        <ele>509</ele>
        <time>2021-10-31T09:37:09.202Z</time>
      </trkpt>
      <trkpt lat="44.01615" lon="2.58099">
        <ele>509</ele>
        <time>2021-10-31T09:37:10.202Z</time>
      </trkpt>
      <trkpt lat="44.01614" lon="2.58098">
        <ele>510</ele>
        <time>2021-10-31T09:37:11.202Z</time>
      </trkpt>
      <trkpt lat="44.01614" lon="2.58098">
        <ele>510</ele>
        <time>2021-10-31T09:37:12.202Z</time>
      </trkpt>
      <trkpt lat="44.01613" lon="2.58097">
        <ele>510</ele>
        <time>2021-10-31T09:37:13.202Z</time>
      </trkpt>
      <trkpt lat="44.01612" lon="2.58096">
        <ele>510</ele>
        <time>2021-10-31T09:37:14.202Z</time>
      </trkpt>
      <trkpt lat="44.01611" lon="2.58096">
        <ele>510</ele>
        <time>2021-10-31T09:37:15.202Z</time>
      </trkpt>
      <trkpt lat="44.01611" lon="2.58095">
        <ele>510</ele>
        <time>2021-10-31T09:37:16.202Z</time>
      </trkpt>
      <trkpt lat="44.0161" lon="2.58094">
        <ele>510</ele>
        <time>2021-10-31T09:37:17.202Z</time>
      </trkpt>
      <trkpt lat="44.01609" lon="2.58093">
        <ele>510</ele>
        <time>2021-10-31T09:37:18.202Z</time>
      </trkpt>
      <trkpt lat="44.01608" lon="2.58093">
        <ele>510</ele>
        <time>2021-10-31T09:37:19.202Z</time>
      </trkpt>
      <trkpt lat="44.01607" lon="2.58092">
        <ele>510</ele>
        <time>2021-10-31T09:37:20.202Z</time>
      </trkpt>
      <trkpt lat="44.01606" lon="2.58092">
        <ele>510</ele>
        <time>2021-10-31T09:37:21.202Z</time>
      </trkpt>
      <trkpt lat="44.01605" lon="2.58091">
        <ele>510</ele>
        <time>2021-10-31T09:37:22.202Z</time>
      </trkpt>
      <trkpt lat="44.01604" lon="2.5809">
        <ele>510</ele>
        <time>2021-10-31T09:37:23.202Z</time>
      </trkpt>
      <trkpt lat="44.01604" lon="2.5809">
        <ele>511</ele>
        <time>2021-10-31T09:37:24.202Z</time>
      </trkpt>
      <trkpt lat="44.01603" lon="2.5809">
        <ele>511</ele>
        <time>2021-10-31T09:37:25.202Z</time>
      </trkpt>
      <trkpt lat="44.01602" lon="2.5809">
        <ele>511</ele>
        <time>2021-10-31T09:37:26.202Z</time>
      </trkpt>
      <trkpt lat="44.01601" lon="2.58089">
        <ele>511</ele>
        <time>2021-10-31T09:37:27.202Z</time>
      </trkpt>
      <trkpt lat="44.016" lon="2.58089">
        <ele>511</ele>
        <time>2021-10-31T09:37:28.202Z</time>
      </trkpt>
      <trkpt lat="44.01599" lon="2.58088">
        <ele>511</ele>
        <time>2021-10-31T09:37:29.202Z</time>
      </trkpt>
      <trkpt lat="44.01598" lon="2.58087">
        <ele>511</ele>
        <time>2021-10-31T09:37:30.202Z</time>
      </trkpt>
      <trkpt lat="44.01597" lon="2.58087">
        <ele>511</ele>
        <time>2021-10-31T09:37:31.202Z</time>
      </trkpt>
      <trkpt lat="44.01597" lon="2.58087">
        <ele>511</ele>
        <time>2021-10-31T09:37:32.202Z</time>
      </trkpt>
      <trkpt lat="44.01596" lon="2.58087">
        <ele>511</ele>
        <time>2021-10-31T09:37:33.202Z</time>
      </trkpt>
      <trkpt lat="44.01595" lon="2.58087">
        <ele>511</ele>
        <time>2021-10-31T09:37:34.202Z</time>
      </trkpt>
      <trkpt lat="44.01594" lon="2.58086">
        <ele>511</ele>
        <time>2021-10-31T09:37:35.202Z</time>
      </trkpt>
      <trkpt lat="44.01594" lon="2.58086">
        <ele>511</ele>
        <time>2021-10-31T09:37:36.202Z</time>
      </trkpt>
      <trkpt lat="44.01593" lon="2.58085">
        <ele>511</ele>
        <time>2021-10-31T09:37:37.202Z</time>
      </trkpt>
      <trkpt lat="44.01592" lon="2.58084">
        <ele>511</ele>
        <time>2021-10-31T09:37:38.202Z</time>
      </trkpt>
      <trkpt lat="44.01592" lon="2.58084">
        <ele>511</ele>
        <time>2021-10-31T09:37:39.202Z</time>
      </trkpt>
      <trkpt lat="44.01592" lon="2.58084">
        <ele>511</ele>
        <time>2021-10-31T09:37:40.202Z</time>
      </trkpt>
      <trkpt lat="44.01592" lon="2.58083">
        <ele>511</ele>
        <time>2021-10-31T09:37:41.202Z</time>
      </trkpt>
      <trkpt lat="44.01592" lon="2.58083">
        <ele>511</ele>
        <time>2021-10-31T09:37:42.202Z</time>
      </trkpt>
      <trkpt lat="44.01592" lon="2.58082">
        <ele>511</ele>
        <time>2021-10-31T09:37:43.202Z</time>
      </trkpt>
      <trkpt lat="44.01592" lon="2.58081">
        <ele>512</ele>
        <time>2021-10-31T09:37:44.202Z</time>
      </trkpt>
      <trkpt lat="44.01591" lon="2.5808">
        <ele>512</ele>
        <time>2021-10-31T09:37:45.202Z</time>
      </trkpt>
      <trkpt lat="44.01591" lon="2.5808">
        <ele>512</ele>
        <time>2021-10-31T09:37:48.457Z</time>
      </trkpt>
      <trkpt lat="44.0159" lon="2.58079">
        <ele>512</ele>
        <time>2021-10-31T09:37:49.457Z</time>
      </trkpt>
      <trkpt lat="44.01589" lon="2.58078">
        <ele>512</ele>
        <time>2021-10-31T09:37:50.457Z</time>
      </trkpt>
      <trkpt lat="44.01589" lon="2.58078">
        <ele>512</ele>
        <time>2021-10-31T09:37:51.457Z</time>
      </trkpt>
      <trkpt lat="44.01588" lon="2.58077">
        <ele>512</ele>
        <time>2021-10-31T09:37:52.457Z</time>
      </trkpt>
      <trkpt lat="44.01587" lon="2.58077">
        <ele>513</ele>
        <time>2021-10-31T09:37:53.457Z</time>
      </trkpt>
      <trkpt lat="44.01586" lon="2.58076">
        <ele>513</ele>
        <time>2021-10-31T09:37:54.457Z</time>
      </trkpt>
      <trkpt lat="44.01586" lon="2.58076">
        <ele>513</ele>
        <time>2021-10-31T09:37:55.457Z</time>
      </trkpt>
      <trkpt lat="44.01586" lon="2.58075">
        <ele>513</ele>
        <time>2021-10-31T09:37:56.457Z</time>
      </trkpt>
      <trkpt lat="44.01585" lon="2.58075">
        <ele>514</ele>
        <time>2021-10-31T09:37:57.457Z</time>
      </trkpt>
      <trkpt lat="44.01585" lon="2.58074">
        <ele>514</ele>
        <time>2021-10-31T09:37:58.457Z</time>
      </trkpt>
      <trkpt lat="44.01585" lon="2.58073">
        <ele>514</ele>
        <time>2021-10-31T09:37:59.457Z</time>
      </trkpt>
      <trkpt lat="44.01584" lon="2.58073">
        <ele>514</ele>
        <time>2021-10-31T09:38:00.457Z</time>
      </trkpt>
      <trkpt lat="44.01584" lon="2.58073">
        <ele>514</ele>
        <time>2021-10-31T09:38:01.457Z</time>
      </trkpt>
      <trkpt lat="44.01578" lon="2.58068">
        <ele>517</ele>
        <time>2021-10-31T09:38:02.457Z</time>
      </trkpt>
      <trkpt lat="44.01578" lon="2.58068">
        <ele>517</ele>
        <time>2021-10-31T09:38:03.457Z</time>
      </trkpt>
      <trkpt lat="44.01577" lon="2.58068">
        <ele>517</ele>
        <time>2021-10-31T09:38:04.457Z</time>
      </trkpt>
      <trkpt lat="44.01576" lon="2.58068">
        <ele>518</ele>
        <time>2021-10-31T09:38:05.457Z</time>
      </trkpt>
      <trkpt lat="44.01576" lon="2.58067">
        <ele>518</ele>
        <time>2021-10-31T09:38:06.457Z</time>
      </trkpt>
      <trkpt lat="44.01575" lon="2.58067">
        <ele>518</ele>
        <time>2021-10-31T09:38:07.457Z</time>
      </trkpt>
      <trkpt lat="44.01575" lon="2.58067">
        <ele>518</ele>
        <time>2021-10-31T09:38:08.457Z</time>
      </trkpt>
      <trkpt lat="44.01575" lon="2.58067">
        <ele>518</ele>
        <time>2021-10-31T09:38:09.457Z</time>
      </trkpt>
      <trkpt lat="44.01574" lon="2.58067">
        <ele>518</ele>
        <time>2021-10-31T09:38:10.457Z</time>
      </trkpt>
      <trkpt lat="44.01573" lon="2.58066">
        <ele>518</ele>
        <time>2021-10-31T09:38:11.457Z</time>
      </trkpt>
      <trkpt lat="44.01572" lon="2.58066">
        <ele>518</ele>
        <time>2021-10-31T09:38:12.457Z</time>
      </trkpt>
      <trkpt lat="44.01571" lon="2.58066">
        <ele>518</ele>
        <time>2021-10-31T09:38:13.457Z</time>
      </trkpt>
      <trkpt lat="44.01571" lon="2.58066">
        <ele>518</ele>
        <time>2021-10-31T09:38:14.457Z</time>
      </trkpt>
      <trkpt lat="44.0157" lon="2.58066">
        <ele>518</ele>
        <time>2021-10-31T09:38:15.457Z</time>
      </trkpt>
      <trkpt lat="44.01569" lon="2.58066">
        <ele>518</ele>
        <time>2021-10-31T09:38:16.457Z</time>
      </trkpt>
      <trkpt lat="44.01568" lon="2.58066">
        <ele>518</ele>
        <time>2021-10-31T09:38:17.457Z</time>
      </trkpt>
      <trkpt lat="44.01568" lon="2.58066">
        <ele>518</ele>
        <time>2021-10-31T09:38:18.457Z</time>
      </trkpt>
      <trkpt lat="44.01567" lon="2.58066">
        <ele>518</ele>
        <time>2021-10-31T09:38:19.457Z</time>
      </trkpt>
      <trkpt lat="44.01566" lon="2.58066">
        <ele>518</ele>
        <time>2021-10-31T09:38:20.457Z</time>
      </trkpt>
      <trkpt lat="44.01565" lon="2.58066">
        <ele>518</ele>
        <time>2021-10-31T09:38:21.457Z</time>
      </trkpt>
      <trkpt lat="44.01564" lon="2.58066">
        <ele>518</ele>
        <time>2021-10-31T09:38:22.457Z</time>
      </trkpt>
      <trkpt lat="44.01564" lon="2.58066">
        <ele>518</ele>
        <time>2021-10-31T09:38:23.457Z</time>
      </trkpt>
      <trkpt lat="44.01563" lon="2.58066">
        <ele>518</ele>
        <time>2021-10-31T09:38:24.457Z</time>
      </trkpt>
      <trkpt lat="44.01562" lon="2.58067">
        <ele>518</ele>
        <time>2021-10-31T09:38:25.457Z</time>
      </trkpt>
      <trkpt lat="44.01562" lon="2.58067">
        <ele>518</ele>
        <time>2021-10-31T09:38:26.457Z</time>
      </trkpt>
      <trkpt lat="44.01561" lon="2.58067">
        <ele>518</ele>
        <time>2021-10-31T09:38:27.457Z</time>
      </trkpt>
      <trkpt lat="44.01561" lon="2.58067">
        <ele>518</ele>
        <time>2021-10-31T09:38:28.457Z</time>
      </trkpt>
      <trkpt lat="44.0156" lon="2.58067">
        <ele>518</ele>
        <time>2021-10-31T09:38:29.457Z</time>
      </trkpt>
      <trkpt lat="44.01559" lon="2.58068">
        <ele>519</ele>
        <time>2021-10-31T09:38:30.457Z</time>
      </trkpt>
      <trkpt lat="44.01559" lon="2.58068">
        <ele>519</ele>
        <time>2021-10-31T09:38:31.457Z</time>
      </trkpt>
      <trkpt lat="44.01558" lon="2.58068">
        <ele>519</ele>
        <time>2021-10-31T09:38:32.457Z</time>
      </trkpt>
      <trkpt lat="44.01558" lon="2.58069">
        <ele>519</ele>
        <time>2021-10-31T09:38:33.457Z</time>
      </trkpt>
      <trkpt lat="44.01557" lon="2.58069">
        <ele>519</ele>
        <time>2021-10-31T09:38:34.457Z</time>
      </trkpt>
      <trkpt lat="44.01556" lon="2.58069">
        <ele>519</ele>
        <time>2021-10-31T09:38:35.457Z</time>
      </trkpt>
      <trkpt lat="44.01556" lon="2.58069">
        <ele>519</ele>
        <time>2021-10-31T09:38:36.457Z</time>
      </trkpt>
      <trkpt lat="44.01555" lon="2.5807">
        <ele>520</ele>
        <time>2021-10-31T09:38:37.457Z</time>
      </trkpt>
      <trkpt lat="44.01554" lon="2.5807">
        <ele>520</ele>
        <time>2021-10-31T09:38:38.457Z</time>
      </trkpt>
      <trkpt lat="44.01554" lon="2.5807">
        <ele>520</ele>
        <time>2021-10-31T09:38:39.457Z</time>
      </trkpt>
      <trkpt lat="44.01553" lon="2.5807">
        <ele>520</ele>
        <time>2021-10-31T09:38:40.457Z</time>
      </trkpt>
      <trkpt lat="44.01553" lon="2.5807">
        <ele>520</ele>
        <time>2021-10-31T09:38:41.457Z</time>
      </trkpt>
      <trkpt lat="44.01552" lon="2.58071">
        <ele>520</ele>
        <time>2021-10-31T09:38:42.457Z</time>
      </trkpt>
      <trkpt lat="44.01551" lon="2.58071">
        <ele>520</ele>
        <time>2021-10-31T09:38:43.457Z</time>
      </trkpt>
      <trkpt lat="44.01551" lon="2.58072">
        <ele>520</ele>
        <time>2021-10-31T09:38:44.457Z</time>
      </trkpt>
      <trkpt lat="44.0155" lon="2.58072">
        <ele>520</ele>
        <time>2021-10-31T09:38:45.457Z</time>
      </trkpt>
      <trkpt lat="44.0155" lon="2.58072">
        <ele>521</ele>
        <time>2021-10-31T09:38:46.457Z</time>
      </trkpt>
      <trkpt lat="44.01549" lon="2.58072">
        <ele>521</ele>
        <time>2021-10-31T09:38:47.457Z</time>
      </trkpt>
      <trkpt lat="44.01548" lon="2.58072">
        <ele>521</ele>
        <time>2021-10-31T09:38:48.457Z</time>
      </trkpt>
      <trkpt lat="44.01548" lon="2.58073">
        <ele>521</ele>
        <time>2021-10-31T09:38:49.457Z</time>
      </trkpt>
      <trkpt lat="44.01547" lon="2.58073">
        <ele>521</ele>
        <time>2021-10-31T09:38:50.457Z</time>
      </trkpt>
      <trkpt lat="44.01546" lon="2.58074">
        <ele>521</ele>
        <time>2021-10-31T09:38:51.457Z</time>
      </trkpt>
      <trkpt lat="44.01546" lon="2.58074">
        <ele>521</ele>
        <time>2021-10-31T09:38:52.457Z</time>
      </trkpt>
      <trkpt lat="44.01545" lon="2.58074">
        <ele>521</ele>
        <time>2021-10-31T09:38:53.457Z</time>
      </trkpt>
      <trkpt lat="44.01545" lon="2.58075">
        <ele>521</ele>
        <time>2021-10-31T09:38:54.457Z</time>
      </trkpt>
      <trkpt lat="44.01544" lon="2.58075">
        <ele>521</ele>
        <time>2021-10-31T09:38:55.457Z</time>
      </trkpt>
      <trkpt lat="44.01543" lon="2.58075">
        <ele>521</ele>
        <time>2021-10-31T09:38:56.457Z</time>
      </trkpt>
      <trkpt lat="44.01543" lon="2.58075">
        <ele>521</ele>
        <time>2021-10-31T09:38:57.457Z</time>
      </trkpt>
      <trkpt lat="44.01542" lon="2.58075">
        <ele>521</ele>
        <time>2021-10-31T09:38:58.457Z</time>
      </trkpt>
      <trkpt lat="44.01541" lon="2.58075">
        <ele>521</ele>
        <time>2021-10-31T09:38:59.457Z</time>
      </trkpt>
      <trkpt lat="44.01541" lon="2.58075">
        <ele>521</ele>
        <time>2021-10-31T09:39:00.457Z</time>
      </trkpt>
      <trkpt lat="44.0154" lon="2.58076">
        <ele>521</ele>
        <time>2021-10-31T09:39:01.457Z</time>
      </trkpt>
      <trkpt lat="44.0154" lon="2.58076">
        <ele>521</ele>
        <time>2021-10-31T09:39:02.457Z</time>
      </trkpt>
      <trkpt lat="44.01539" lon="2.58077">
        <ele>521</ele>
        <time>2021-10-31T09:39:03.457Z</time>
      </trkpt>
      <trkpt lat="44.01538" lon="2.58077">
        <ele>521</ele>
        <time>2021-10-31T09:39:04.457Z</time>
      </trkpt>
      <trkpt lat="44.01537" lon="2.58077">
        <ele>521</ele>
        <time>2021-10-31T09:39:05.457Z</time>
      </trkpt>
      <trkpt lat="44.01536" lon="2.58077">
        <ele>521</ele>
        <time>2021-10-31T09:39:06.457Z</time>
      </trkpt>
      <trkpt lat="44.01536" lon="2.58077">
        <ele>521</ele>
        <time>2021-10-31T09:39:07.457Z</time>
      </trkpt>
      <trkpt lat="44.01535" lon="2.58078">
        <ele>521</ele>
        <time>2021-10-31T09:39:08.457Z</time>
      </trkpt>
      <trkpt lat="44.01534" lon="2.58078">
        <ele>522</ele>
        <time>2021-10-31T09:39:09.457Z</time>
      </trkpt>
      <trkpt lat="44.01533" lon="2.58078">
        <ele>522</ele>
        <time>2021-10-31T09:39:10.457Z</time>
      </trkpt>
      <trkpt lat="44.01532" lon="2.58078">
        <ele>522</ele>
        <time>2021-10-31T09:39:11.457Z</time>
      </trkpt>
      <trkpt lat="44.01532" lon="2.58078">
        <ele>522</ele>
        <time>2021-10-31T09:39:12.457Z</time>
      </trkpt>
      <trkpt lat="44.01531" lon="2.58078">
        <ele>522</ele>
        <time>2021-10-31T09:39:13.457Z</time>
      </trkpt>
      <trkpt lat="44.0153" lon="2.58078">
        <ele>522</ele>
        <time>2021-10-31T09:39:14.457Z</time>
      </trkpt>
      <trkpt lat="44.01529" lon="2.58078">
        <ele>522</ele>
        <time>2021-10-31T09:39:15.457Z</time>
      </trkpt>
      <trkpt lat="44.01528" lon="2.58078">
        <ele>522</ele>
        <time>2021-10-31T09:39:16.457Z</time>
      </trkpt>
      <trkpt lat="44.01527" lon="2.58078">
        <ele>522</ele>
        <time>2021-10-31T09:39:17.457Z</time>
      </trkpt>
      <trkpt lat="44.01526" lon="2.58078">
        <ele>522</ele>
        <time>2021-10-31T09:39:18.457Z</time>
      </trkpt>
      <trkpt lat="44.01525" lon="2.58079">
        <ele>522</ele>
        <time>2021-10-31T09:39:19.457Z</time>
      </trkpt>
      <trkpt lat="44.01525" lon="2.58079">
        <ele>522</ele>
        <time>2021-10-31T09:39:20.457Z</time>
      </trkpt>
      <trkpt lat="44.01524" lon="2.58078">
        <ele>522</ele>
        <time>2021-10-31T09:39:21.457Z</time>
      </trkpt>
      <trkpt lat="44.01523" lon="2.58078">
        <ele>522</ele>
        <time>2021-10-31T09:39:22.457Z</time>
      </trkpt>
      <trkpt lat="44.01522" lon="2.58079">
        <ele>522</ele>
        <time>2021-10-31T09:39:23.457Z</time>
      </trkpt>
      <trkpt lat="44.01521" lon="2.58079">
        <ele>522</ele>
        <time>2021-10-31T09:39:24.457Z</time>
      </trkpt>
      <trkpt lat="44.0152" lon="2.58079">
        <ele>522</ele>
        <time>2021-10-31T09:39:25.457Z</time>
      </trkpt>
      <trkpt lat="44.01519" lon="2.58079">
        <ele>522</ele>
        <time>2021-10-31T09:39:26.457Z</time>
      </trkpt>
      <trkpt lat="44.01518" lon="2.58079">
        <ele>522</ele>
        <time>2021-10-31T09:39:27.457Z</time>
      </trkpt>
      <trkpt lat="44.01517" lon="2.58079">
        <ele>522</ele>
        <time>2021-10-31T09:39:28.457Z</time>
      </trkpt>
      <trkpt lat="44.01516" lon="2.58079">
        <ele>522</ele>
        <time>2021-10-31T09:39:29.457Z</time>
      </trkpt>
      <trkpt lat="44.01515" lon="2.58079">
        <ele>522</ele>
        <time>2021-10-31T09:39:30.457Z</time>
      </trkpt>
      <trkpt lat="44.01514" lon="2.58079">
        <ele>522</ele>
        <time>2021-10-31T09:39:31.457Z</time>
      </trkpt>
      <trkpt lat="44.01513" lon="2.58079">
        <ele>522</ele>
        <time>2021-10-31T09:39:32.457Z</time>
      </trkpt>
      <trkpt lat="44.01512" lon="2.5808">
        <ele>522</ele>
        <time>2021-10-31T09:39:33.457Z</time>
      </trkpt>
      <trkpt lat="44.01511" lon="2.5808">
        <ele>522</ele>
        <time>2021-10-31T09:39:34.457Z</time>
      </trkpt>
      <trkpt lat="44.0151" lon="2.5808">
        <ele>522</ele>
        <time>2021-10-31T09:39:35.457Z</time>
      </trkpt>
      <trkpt lat="44.01509" lon="2.5808">
        <ele>523</ele>
        <time>2021-10-31T09:39:36.457Z</time>
      </trkpt>
      <trkpt lat="44.01508" lon="2.58081">
        <ele>523</ele>
        <time>2021-10-31T09:39:37.457Z</time>
      </trkpt>
      <trkpt lat="44.01507" lon="2.58081">
        <ele>523</ele>
        <time>2021-10-31T09:39:38.457Z</time>
      </trkpt>
      <trkpt lat="44.01506" lon="2.58081">
        <ele>523</ele>
        <time>2021-10-31T09:39:39.457Z</time>
      </trkpt>
      <trkpt lat="44.01506" lon="2.58081">
        <ele>523</ele>
        <time>2021-10-31T09:39:40.457Z</time>
      </trkpt>
      <trkpt lat="44.01505" lon="2.58081">
        <ele>523</ele>
        <time>2021-10-31T09:39:41.457Z</time>
      </trkpt>
      <trkpt lat="44.01504" lon="2.58081">
        <ele>523</ele>
        <time>2021-10-31T09:39:42.457Z</time>
      </trkpt>
      <trkpt lat="44.01503" lon="2.58081">
        <ele>523</ele>
        <time>2021-10-31T09:39:43.457Z</time>
      </trkpt>
      <trkpt lat="44.01502" lon="2.58081">
        <ele>523</ele>
        <time>2021-10-31T09:39:44.457Z</time>
      </trkpt>
      <trkpt lat="44.01501" lon="2.58081">
        <ele>523</ele>
        <time>2021-10-31T09:39:45.457Z</time>
      </trkpt>
      <trkpt lat="44.015" lon="2.58081">
        <ele>523</ele>
        <time>2021-10-31T09:39:46.457Z</time>
      </trkpt>
      <trkpt lat="44.015" lon="2.58081">
        <ele>523</ele>
        <time>2021-10-31T09:39:47.457Z</time>
      </trkpt>
      <trkpt lat="44.01499" lon="2.58082">
        <ele>523</ele>
        <time>2021-10-31T09:39:48.457Z</time>
      </trkpt>
      <trkpt lat="44.01498" lon="2.58082">
        <ele>523</ele>
        <time>2021-10-31T09:39:49.457Z</time>
      </trkpt>
      <trkpt lat="44.01497" lon="2.58082">
        <ele>523</ele>
        <time>2021-10-31T09:39:50.457Z</time>
      </trkpt>
      <trkpt lat="44.01496" lon="2.58082">
        <ele>524</ele>
        <time>2021-10-31T09:39:51.457Z</time>
      </trkpt>
      <trkpt lat="44.01495" lon="2.58083">
        <ele>524</ele>
        <time>2021-10-31T09:39:52.457Z</time>
      </trkpt>
      <trkpt lat="44.01494" lon="2.58083">
        <ele>524</ele>
        <time>2021-10-31T09:39:53.457Z</time>
      </trkpt>
      <trkpt lat="44.01493" lon="2.58083">
        <ele>524</ele>
        <time>2021-10-31T09:39:54.457Z</time>
      </trkpt>
      <trkpt lat="44.01493" lon="2.58083">
        <ele>524</ele>
        <time>2021-10-31T09:39:55.457Z</time>
      </trkpt>
      <trkpt lat="44.01492" lon="2.58083">
        <ele>524</ele>
        <time>2021-10-31T09:39:56.457Z</time>
      </trkpt>
      <trkpt lat="44.01491" lon="2.58082">
        <ele>524</ele>
        <time>2021-10-31T09:39:57.457Z</time>
      </trkpt>
      <trkpt lat="44.0149" lon="2.58082">
        <ele>525</ele>
        <time>2021-10-31T09:39:58.457Z</time>
      </trkpt>
      <trkpt lat="44.0149" lon="2.58081">
        <ele>525</ele>
        <time>2021-10-31T09:39:59.457Z</time>
      </trkpt>
      <trkpt lat="44.01489" lon="2.58081">
        <ele>525</ele>
        <time>2021-10-31T09:40:00.457Z</time>
      </trkpt>
      <trkpt lat="44.01488" lon="2.58081">
        <ele>525</ele>
        <time>2021-10-31T09:40:01.457Z</time>
      </trkpt>
      <trkpt lat="44.01488" lon="2.58081">
        <ele>525</ele>
        <time>2021-10-31T09:40:02.457Z</time>
      </trkpt>
      <trkpt lat="44.01487" lon="2.5808">
        <ele>525</ele>
        <time>2021-10-31T09:40:03.457Z</time>
      </trkpt>
      <trkpt lat="44.01487" lon="2.5808">
        <ele>525</ele>
        <time>2021-10-31T09:40:04.457Z</time>
      </trkpt>
      <trkpt lat="44.01486" lon="2.58079">
        <ele>525</ele>
        <time>2021-10-31T09:40:05.457Z</time>
      </trkpt>
      <trkpt lat="44.01486" lon="2.58079">
        <ele>525</ele>
        <time>2021-10-31T09:40:06.457Z</time>
      </trkpt>
      <trkpt lat="44.01485" lon="2.58078">
        <ele>525</ele>
        <time>2021-10-31T09:40:07.457Z</time>
      </trkpt>
      <trkpt lat="44.01485" lon="2.58077">
        <ele>525</ele>
        <time>2021-10-31T09:40:08.457Z</time>
      </trkpt>
      <trkpt lat="44.01484" lon="2.58076">
        <ele>525</ele>
        <time>2021-10-31T09:40:09.457Z</time>
      </trkpt>
      <trkpt lat="44.01484" lon="2.58075">
        <ele>525</ele>
        <time>2021-10-31T09:40:10.457Z</time>
      </trkpt>
      <trkpt lat="44.01484" lon="2.58074">
        <ele>525</ele>
        <time>2021-10-31T09:40:11.457Z</time>
      </trkpt>
      <trkpt lat="44.01483" lon="2.58073">
        <ele>525</ele>
        <time>2021-10-31T09:40:12.457Z</time>
      </trkpt>
      <trkpt lat="44.01483" lon="2.58072">
        <ele>525</ele>
        <time>2021-10-31T09:40:13.457Z</time>
      </trkpt>
      <trkpt lat="44.01483" lon="2.58071">
        <ele>525</ele>
        <time>2021-10-31T09:40:14.457Z</time>
      </trkpt>
      <trkpt lat="44.01483" lon="2.5807">
        <ele>525</ele>
        <time>2021-10-31T09:40:15.457Z</time>
      </trkpt>
      <trkpt lat="44.01482" lon="2.58069">
        <ele>525</ele>
        <time>2021-10-31T09:40:16.457Z</time>
      </trkpt>
      <trkpt lat="44.01482" lon="2.58068">
        <ele>525</ele>
        <time>2021-10-31T09:40:17.457Z</time>
      </trkpt>
      <trkpt lat="44.01482" lon="2.58067">
        <ele>526</ele>
        <time>2021-10-31T09:40:18.457Z</time>
      </trkpt>
      <trkpt lat="44.01482" lon="2.58066">
        <ele>526</ele>
        <time>2021-10-31T09:40:19.457Z</time>
      </trkpt>
      <trkpt lat="44.01482" lon="2.58064">
        <ele>526</ele>
        <time>2021-10-31T09:40:20.457Z</time>
      </trkpt>
      <trkpt lat="44.01483" lon="2.58063">
        <ele>526</ele>
        <time>2021-10-31T09:40:21.457Z</time>
      </trkpt>
      <trkpt lat="44.01483" lon="2.58062">
        <ele>526</ele>
        <time>2021-10-31T09:40:22.457Z</time>
      </trkpt>
      <trkpt lat="44.01483" lon="2.5806">
        <ele>527</ele>
        <time>2021-10-31T09:40:23.457Z</time>
      </trkpt>
      <trkpt lat="44.01483" lon="2.58059">
        <ele>527</ele>
        <time>2021-10-31T09:40:24.457Z</time>
      </trkpt>
      <trkpt lat="44.01483" lon="2.58058">
        <ele>527</ele>
        <time>2021-10-31T09:40:25.457Z</time>
      </trkpt>
      <trkpt lat="44.01484" lon="2.58056">
        <ele>527</ele>
        <time>2021-10-31T09:40:26.457Z</time>
      </trkpt>
      <trkpt lat="44.01484" lon="2.58055">
        <ele>527</ele>
        <time>2021-10-31T09:40:27.457Z</time>
      </trkpt>
      <trkpt lat="44.01484" lon="2.58054">
        <ele>528</ele>
        <time>2021-10-31T09:40:28.457Z</time>
      </trkpt>
      <trkpt lat="44.01484" lon="2.58053">
        <ele>528</ele>
        <time>2021-10-31T09:40:29.457Z</time>
      </trkpt>
      <trkpt lat="44.01484" lon="2.58052">
        <ele>528</ele>
        <time>2021-10-31T09:40:30.457Z</time>
      </trkpt>
      <trkpt lat="44.01484" lon="2.5805">
        <ele>528</ele>
        <time>2021-10-31T09:40:31.457Z</time>
      </trkpt>
      <trkpt lat="44.01484" lon="2.58049">
        <ele>528</ele>
        <time>2021-10-31T09:40:32.457Z</time>
      </trkpt>
      <trkpt lat="44.01484" lon="2.58047">
        <ele>528</ele>
        <time>2021-10-31T09:40:33.457Z</time>
      </trkpt>
      <trkpt lat="44.01483" lon="2.58046">
        <ele>528</ele>
        <time>2021-10-31T09:40:34.457Z</time>
      </trkpt>
      <trkpt lat="44.01483" lon="2.58045">
        <ele>529</ele>
        <time>2021-10-31T09:40:35.457Z</time>
      </trkpt>
      <trkpt lat="44.01483" lon="2.58044">
        <ele>529</ele>
        <time>2021-10-31T09:40:36.457Z</time>
      </trkpt>
      <trkpt lat="44.01483" lon="2.58043">
        <ele>529</ele>
        <time>2021-10-31T09:40:37.457Z</time>
      </trkpt>
      <trkpt lat="44.01483" lon="2.58041">
        <ele>529</ele>
        <time>2021-10-31T09:40:38.457Z</time>
      </trkpt>
      <trkpt lat="44.01482" lon="2.5804">
        <ele>529</ele>
        <time>2021-10-31T09:40:39.457Z</time>
      </trkpt>
      <trkpt lat="44.01482" lon="2.58039">
        <ele>529</ele>
        <time>2021-10-31T09:40:40.457Z</time>
      </trkpt>
      <trkpt lat="44.01481" lon="2.58038">
        <ele>529</ele>
        <time>2021-10-31T09:40:41.457Z</time>
      </trkpt>
      <trkpt lat="44.01481" lon="2.58037">
        <ele>530</ele>
        <time>2021-10-31T09:40:42.457Z</time>
      </trkpt>
      <trkpt lat="44.01481" lon="2.58035">
        <ele>530</ele>
        <time>2021-10-31T09:40:43.457Z</time>
      </trkpt>
      <trkpt lat="44.0148" lon="2.58034">
        <ele>530</ele>
        <time>2021-10-31T09:40:44.457Z</time>
      </trkpt>
      <trkpt lat="44.0148" lon="2.58033">
        <ele>530</ele>
        <time>2021-10-31T09:40:45.457Z</time>
      </trkpt>
      <trkpt lat="44.0148" lon="2.58032">
        <ele>530</ele>
        <time>2021-10-31T09:40:46.457Z</time>
      </trkpt>
      <trkpt lat="44.0148" lon="2.5803">
        <ele>530</ele>
        <time>2021-10-31T09:40:47.457Z</time>
      </trkpt>
      <trkpt lat="44.0148" lon="2.58029">
        <ele>531</ele>
        <time>2021-10-31T09:40:48.457Z</time>
      </trkpt>
      <trkpt lat="44.0148" lon="2.58028">
        <ele>531</ele>
        <time>2021-10-31T09:40:49.457Z</time>
      </trkpt>
      <trkpt lat="44.0148" lon="2.58027">
        <ele>531</ele>
        <time>2021-10-31T09:40:50.457Z</time>
      </trkpt>
      <trkpt lat="44.01479" lon="2.58026">
        <ele>531</ele>
        <time>2021-10-31T09:40:51.457Z</time>
      </trkpt>
      <trkpt lat="44.01479" lon="2.58025">
        <ele>532</ele>
        <time>2021-10-31T09:40:52.457Z</time>
      </trkpt>
      <trkpt lat="44.01479" lon="2.58023">
        <ele>532</ele>
        <time>2021-10-31T09:40:53.457Z</time>
      </trkpt>
      <trkpt lat="44.01479" lon="2.58022">
        <ele>532</ele>
        <time>2021-10-31T09:40:54.457Z</time>
      </trkpt>
      <trkpt lat="44.01478" lon="2.58021">
        <ele>532</ele>
        <time>2021-10-31T09:40:55.457Z</time>
      </trkpt>
      <trkpt lat="44.01478" lon="2.58019">
        <ele>532</ele>
        <time>2021-10-31T09:40:56.457Z</time>
      </trkpt>
      <trkpt lat="44.01478" lon="2.58018">
        <ele>533</ele>
        <time>2021-10-31T09:40:57.457Z</time>
      </trkpt>
      <trkpt lat="44.01478" lon="2.58016">
        <ele>533</ele>
        <time>2021-10-31T09:40:58.457Z</time>
      </trkpt>
      <trkpt lat="44.01478" lon="2.58015">
        <ele>533</ele>
        <time>2021-10-31T09:40:59.457Z</time>
      </trkpt>
      <trkpt lat="44.01477" lon="2.58014">
        <ele>533</ele>
        <time>2021-10-31T09:41:00.457Z</time>
      </trkpt>
      <trkpt lat="44.01477" lon="2.58013">
        <ele>533</ele>
        <time>2021-10-31T09:41:01.457Z</time>
      </trkpt>
      <trkpt lat="44.01477" lon="2.58011">
        <ele>533</ele>
        <time>2021-10-31T09:41:02.457Z</time>
      </trkpt>
      <trkpt lat="44.01477" lon="2.5801">
        <ele>533</ele>
        <time>2021-10-31T09:41:03.457Z</time>
      </trkpt>
      <trkpt lat="44.01477" lon="2.58009">
        <ele>533</ele>
        <time>2021-10-31T09:41:04.457Z</time>
      </trkpt>
      <trkpt lat="44.01477" lon="2.58007">
        <ele>533</ele>
        <time>2021-10-31T09:41:05.457Z</time>
      </trkpt>
      <trkpt lat="44.01476" lon="2.58006">
        <ele>533</ele>
        <time>2021-10-31T09:41:06.457Z</time>
      </trkpt>
      <trkpt lat="44.01476" lon="2.58005">
        <ele>533</ele>
        <time>2021-10-31T09:41:07.457Z</time>
      </trkpt>
      <trkpt lat="44.01476" lon="2.58003">
        <ele>533</ele>
        <time>2021-10-31T09:41:08.457Z</time>
      </trkpt>
      <trkpt lat="44.01476" lon="2.58002">
        <ele>533</ele>
        <time>2021-10-31T09:41:09.457Z</time>
      </trkpt>
      <trkpt lat="44.01476" lon="2.58001">
        <ele>533</ele>
        <time>2021-10-31T09:41:10.457Z</time>
      </trkpt>
      <trkpt lat="44.01476" lon="2.57999">
        <ele>533</ele>
        <time>2021-10-31T09:41:11.457Z</time>
      </trkpt>
      <trkpt lat="44.01476" lon="2.57998">
        <ele>533</ele>
        <time>2021-10-31T09:41:12.457Z</time>
      </trkpt>
      <trkpt lat="44.01475" lon="2.57996">
        <ele>533</ele>
        <time>2021-10-31T09:41:13.457Z</time>
      </trkpt>
      <trkpt lat="44.01475" lon="2.57995">
        <ele>533</ele>
        <time>2021-10-31T09:41:14.457Z</time>
      </trkpt>
      <trkpt lat="44.01475" lon="2.57993">
        <ele>533</ele>
        <time>2021-10-31T09:41:15.457Z</time>
      </trkpt>
      <trkpt lat="44.01475" lon="2.57992">
        <ele>533</ele>
        <time>2021-10-31T09:41:16.457Z</time>
      </trkpt>
      <trkpt lat="44.01475" lon="2.5799">
        <ele>533</ele>
        <time>2021-10-31T09:41:17.457Z</time>
      </trkpt>
      <trkpt lat="44.01475" lon="2.57989">
        <ele>533</ele>
        <time>2021-10-31T09:41:18.457Z</time>
      </trkpt>
      <trkpt lat="44.01475" lon="2.57988">
        <ele>533</ele>
        <time>2021-10-31T09:41:19.457Z</time>
      </trkpt>
      <trkpt lat="44.01475" lon="2.57986">
        <ele>533</ele>
        <time>2021-10-31T09:41:20.457Z</time>
      </trkpt>
      <trkpt lat="44.01474" lon="2.57985">
        <ele>533</ele>
        <time>2021-10-31T09:41:21.457Z</time>
      </trkpt>
      <trkpt lat="44.01474" lon="2.57983">
        <ele>533</ele>
        <time>2021-10-31T09:41:22.457Z</time>
      </trkpt>
      <trkpt lat="44.01474" lon="2.57982">
        <ele>533</ele>
        <time>2021-10-31T09:41:23.457Z</time>
      </trkpt>
      <trkpt lat="44.01474" lon="2.57981">
        <ele>532</ele>
        <time>2021-10-31T09:41:24.457Z</time>
      </trkpt>
      <trkpt lat="44.01474" lon="2.5798">
        <ele>532</ele>
        <time>2021-10-31T09:41:25.457Z</time>
      </trkpt>
      <trkpt lat="44.01474" lon="2.57978">
        <ele>532</ele>
        <time>2021-10-31T09:41:26.457Z</time>
      </trkpt>
      <trkpt lat="44.01474" lon="2.57978">
        <ele>532</ele>
        <time>2021-10-31T09:41:27.457Z</time>
      </trkpt>
      <trkpt lat="44.01474" lon="2.57977">
        <ele>532</ele>
        <time>2021-10-31T09:41:28.457Z</time>
      </trkpt>
      <trkpt lat="44.01473" lon="2.57976">
        <ele>532</ele>
        <time>2021-10-31T09:41:29.457Z</time>
      </trkpt>
      <trkpt lat="44.01473" lon="2.57974">
        <ele>532</ele>
        <time>2021-10-31T09:41:30.457Z</time>
      </trkpt>
      <trkpt lat="44.01473" lon="2.57973">
        <ele>532</ele>
        <time>2021-10-31T09:41:31.457Z</time>
      </trkpt>
      <trkpt lat="44.01473" lon="2.57971">
        <ele>532</ele>
        <time>2021-10-31T09:41:32.457Z</time>
      </trkpt>
      <trkpt lat="44.01473" lon="2.57969">
        <ele>532</ele>
        <time>2021-10-31T09:41:33.457Z</time>
      </trkpt>
      <trkpt lat="44.01473" lon="2.57968">
        <ele>532</ele>
        <time>2021-10-31T09:41:34.457Z</time>
      </trkpt>
      <trkpt lat="44.01472" lon="2.57966">
        <ele>532</ele>
        <time>2021-10-31T09:41:35.457Z</time>
      </trkpt>
      <trkpt lat="44.01472" lon="2.57965">
        <ele>532</ele>
        <time>2021-10-31T09:41:36.457Z</time>
      </trkpt>
      <trkpt lat="44.01472" lon="2.57963">
        <ele>532</ele>
        <time>2021-10-31T09:41:37.457Z</time>
      </trkpt>
      <trkpt lat="44.01472" lon="2.57962">
        <ele>532</ele>
        <time>2021-10-31T09:41:38.457Z</time>
      </trkpt>
      <trkpt lat="44.01471" lon="2.5796">
        <ele>532</ele>
        <time>2021-10-31T09:41:39.457Z</time>
      </trkpt>
      <trkpt lat="44.01471" lon="2.57958">
        <ele>532</ele>
        <time>2021-10-31T09:41:40.457Z</time>
      </trkpt>
      <trkpt lat="44.01471" lon="2.57957">
        <ele>532</ele>
        <time>2021-10-31T09:41:41.457Z</time>
      </trkpt>
      <trkpt lat="44.01471" lon="2.57955">
        <ele>532</ele>
        <time>2021-10-31T09:41:42.457Z</time>
      </trkpt>
      <trkpt lat="44.01471" lon="2.57953">
        <ele>532</ele>
        <time>2021-10-31T09:41:43.457Z</time>
      </trkpt>
      <trkpt lat="44.01471" lon="2.57951">
        <ele>532</ele>
        <time>2021-10-31T09:41:44.457Z</time>
      </trkpt>
      <trkpt lat="44.01471" lon="2.5795">
        <ele>532</ele>
        <time>2021-10-31T09:41:45.457Z</time>
      </trkpt>
      <trkpt lat="44.0147" lon="2.57949">
        <ele>532</ele>
        <time>2021-10-31T09:41:46.457Z</time>
      </trkpt>
      <trkpt lat="44.0147" lon="2.57948">
        <ele>532</ele>
        <time>2021-10-31T09:41:47.457Z</time>
      </trkpt>
      <trkpt lat="44.0147" lon="2.57946">
        <ele>532</ele>
        <time>2021-10-31T09:41:48.457Z</time>
      </trkpt>
      <trkpt lat="44.0147" lon="2.57945">
        <ele>532</ele>
        <time>2021-10-31T09:41:49.457Z</time>
      </trkpt>
      <trkpt lat="44.0147" lon="2.57943">
        <ele>532</ele>
        <time>2021-10-31T09:41:50.457Z</time>
      </trkpt>
      <trkpt lat="44.0147" lon="2.57942">
        <ele>532</ele>
        <time>2021-10-31T09:41:51.457Z</time>
      </trkpt>
      <trkpt lat="44.0147" lon="2.57941">
        <ele>531</ele>
        <time>2021-10-31T09:41:52.457Z</time>
      </trkpt>
      <trkpt lat="44.01469" lon="2.57939">
        <ele>531</ele>
        <time>2021-10-31T09:41:53.457Z</time>
      </trkpt>
      <trkpt lat="44.01469" lon="2.57938">
        <ele>531</ele>
        <time>2021-10-31T09:41:54.457Z</time>
      </trkpt>
      <trkpt lat="44.01469" lon="2.57936">
        <ele>531</ele>
        <time>2021-10-31T09:41:55.457Z</time>
      </trkpt>
      <trkpt lat="44.01469" lon="2.57935">
        <ele>531</ele>
        <time>2021-10-31T09:41:56.457Z</time>
      </trkpt>
      <trkpt lat="44.01469" lon="2.57933">
        <ele>531</ele>
        <time>2021-10-31T09:41:57.457Z</time>
      </trkpt>
      <trkpt lat="44.01469" lon="2.57932">
        <ele>531</ele>
        <time>2021-10-31T09:41:58.457Z</time>
      </trkpt>
      <trkpt lat="44.01469" lon="2.57931">
        <ele>532</ele>
        <time>2021-10-31T09:41:59.457Z</time>
      </trkpt>
      <trkpt lat="44.01469" lon="2.57929">
        <ele>532</ele>
        <time>2021-10-31T09:42:00.457Z</time>
      </trkpt>
      <trkpt lat="44.01469" lon="2.57928">
        <ele>532</ele>
        <time>2021-10-31T09:42:01.457Z</time>
      </trkpt>
      <trkpt lat="44.01469" lon="2.57926">
        <ele>532</ele>
        <time>2021-10-31T09:42:02.457Z</time>
      </trkpt>
      <trkpt lat="44.01469" lon="2.57925">
        <ele>532</ele>
        <time>2021-10-31T09:42:03.457Z</time>
      </trkpt>
      <trkpt lat="44.01469" lon="2.57924">
        <ele>532</ele>
        <time>2021-10-31T09:42:04.457Z</time>
      </trkpt>
      <trkpt lat="44.01469" lon="2.57922">
        <ele>532</ele>
        <time>2021-10-31T09:42:05.457Z</time>
      </trkpt>
      <trkpt lat="44.01469" lon="2.5792">
        <ele>532</ele>
        <time>2021-10-31T09:42:06.457Z</time>
      </trkpt>
      <trkpt lat="44.01469" lon="2.57919">
        <ele>532</ele>
        <time>2021-10-31T09:42:07.457Z</time>
      </trkpt>
      <trkpt lat="44.01469" lon="2.57917">
        <ele>532</ele>
        <time>2021-10-31T09:42:08.457Z</time>
      </trkpt>
      <trkpt lat="44.01469" lon="2.57916">
        <ele>532</ele>
        <time>2021-10-31T09:42:09.457Z</time>
      </trkpt>
      <trkpt lat="44.01469" lon="2.57914">
        <ele>532</ele>
        <time>2021-10-31T09:42:10.457Z</time>
      </trkpt>
      <trkpt lat="44.01469" lon="2.57912">
        <ele>532</ele>
        <time>2021-10-31T09:42:11.457Z</time>
      </trkpt>
      <trkpt lat="44.01469" lon="2.57911">
        <ele>532</ele>
        <time>2021-10-31T09:42:12.457Z</time>
      </trkpt>
      <trkpt lat="44.01469" lon="2.57909">
        <ele>532</ele>
        <time>2021-10-31T09:42:13.457Z</time>
      </trkpt>
      <trkpt lat="44.01469" lon="2.57908">
        <ele>532</ele>
        <time>2021-10-31T09:42:14.457Z</time>
      </trkpt>
      <trkpt lat="44.01469" lon="2.57906">
        <ele>532</ele>
        <time>2021-10-31T09:42:15.457Z</time>
      </trkpt>
      <trkpt lat="44.01469" lon="2.57905">
        <ele>532</ele>
        <time>2021-10-31T09:42:16.457Z</time>
      </trkpt>
      <trkpt lat="44.01469" lon="2.57903">
        <ele>532</ele>
        <time>2021-10-31T09:42:17.457Z</time>
      </trkpt>
      <trkpt lat="44.01469" lon="2.57901">
        <ele>532</ele>
        <time>2021-10-31T09:42:18.457Z</time>
      </trkpt>
      <trkpt lat="44.01469" lon="2.579">
        <ele>532</ele>
        <time>2021-10-31T09:42:19.457Z</time>
      </trkpt>
      <trkpt lat="44.01469" lon="2.57898">
        <ele>532</ele>
        <time>2021-10-31T09:42:20.457Z</time>
      </trkpt>
      <trkpt lat="44.01469" lon="2.57897">
        <ele>532</ele>
        <time>2021-10-31T09:42:21.457Z</time>
      </trkpt>
      <trkpt lat="44.01469" lon="2.57895">
        <ele>532</ele>
        <time>2021-10-31T09:42:22.457Z</time>
      </trkpt>
      <trkpt lat="44.01469" lon="2.57894">
        <ele>532</ele>
        <time>2021-10-31T09:42:23.457Z</time>
      </trkpt>
      <trkpt lat="44.01469" lon="2.57893">
        <ele>531</ele>
        <time>2021-10-31T09:42:24.457Z</time>
      </trkpt>
      <trkpt lat="44.01469" lon="2.57892">
        <ele>531</ele>
        <time>2021-10-31T09:42:25.457Z</time>
      </trkpt>
      <trkpt lat="44.01469" lon="2.57891">
        <ele>531</ele>
        <time>2021-10-31T09:42:26.457Z</time>
      </trkpt>
      <trkpt lat="44.01469" lon="2.57889">
        <ele>531</ele>
        <time>2021-10-31T09:42:27.457Z</time>
      </trkpt>
      <trkpt lat="44.01469" lon="2.57887">
        <ele>531</ele>
        <time>2021-10-31T09:42:28.457Z</time>
      </trkpt>
      <trkpt lat="44.01469" lon="2.57886">
        <ele>531</ele>
        <time>2021-10-31T09:42:29.457Z</time>
      </trkpt>
      <trkpt lat="44.01469" lon="2.57884">
        <ele>531</ele>
        <time>2021-10-31T09:42:30.457Z</time>
      </trkpt>
      <trkpt lat="44.01469" lon="2.57882">
        <ele>532</ele>
        <time>2021-10-31T09:42:31.457Z</time>
      </trkpt>
      <trkpt lat="44.01469" lon="2.57881">
        <ele>532</ele>
        <time>2021-10-31T09:42:32.457Z</time>
      </trkpt>
      <trkpt lat="44.01469" lon="2.57879">
        <ele>532</ele>
        <time>2021-10-31T09:42:33.457Z</time>
      </trkpt>
      <trkpt lat="44.01469" lon="2.57877">
        <ele>532</ele>
        <time>2021-10-31T09:42:34.457Z</time>
      </trkpt>
      <trkpt lat="44.01469" lon="2.57876">
        <ele>532</ele>
        <time>2021-10-31T09:42:35.457Z</time>
      </trkpt>
      <trkpt lat="44.01469" lon="2.57874">
        <ele>532</ele>
        <time>2021-10-31T09:42:36.457Z</time>
      </trkpt>
      <trkpt lat="44.01468" lon="2.57872">
        <ele>532</ele>
        <time>2021-10-31T09:42:37.457Z</time>
      </trkpt>
      <trkpt lat="44.01468" lon="2.57871">
        <ele>532</ele>
        <time>2021-10-31T09:42:38.457Z</time>
      </trkpt>
      <trkpt lat="44.01469" lon="2.57869">
        <ele>532</ele>
        <time>2021-10-31T09:42:39.457Z</time>
      </trkpt>
      <trkpt lat="44.01469" lon="2.57868">
        <ele>532</ele>
        <time>2021-10-31T09:42:40.457Z</time>
      </trkpt>
      <trkpt lat="44.01469" lon="2.57866">
        <ele>532</ele>
        <time>2021-10-31T09:42:41.457Z</time>
      </trkpt>
      <trkpt lat="44.01469" lon="2.57865">
        <ele>532</ele>
        <time>2021-10-31T09:42:42.457Z</time>
      </trkpt>
      <trkpt lat="44.01469" lon="2.57863">
        <ele>532</ele>
        <time>2021-10-31T09:42:43.457Z</time>
      </trkpt>
      <trkpt lat="44.01469" lon="2.57861">
        <ele>532</ele>
        <time>2021-10-31T09:42:44.457Z</time>
      </trkpt>
      <trkpt lat="44.01469" lon="2.57859">
        <ele>532</ele>
        <time>2021-10-31T09:42:45.457Z</time>
      </trkpt>
      <trkpt lat="44.01469" lon="2.57857">
        <ele>532</ele>
        <time>2021-10-31T09:42:46.457Z</time>
      </trkpt>
      <trkpt lat="44.01469" lon="2.57856">
        <ele>532</ele>
        <time>2021-10-31T09:42:47.457Z</time>
      </trkpt>
      <trkpt lat="44.01468" lon="2.57854">
        <ele>532</ele>
        <time>2021-10-31T09:42:48.457Z</time>
      </trkpt>
      <trkpt lat="44.01469" lon="2.57852">
        <ele>532</ele>
        <time>2021-10-31T09:42:49.457Z</time>
      </trkpt>
      <trkpt lat="44.01469" lon="2.57851">
        <ele>532</ele>
        <time>2021-10-31T09:42:50.457Z</time>
      </trkpt>
      <trkpt lat="44.01469" lon="2.57849">
        <ele>532</ele>
        <time>2021-10-31T09:42:51.457Z</time>
      </trkpt>
      <trkpt lat="44.01469" lon="2.57848">
        <ele>532</ele>
        <time>2021-10-31T09:42:52.457Z</time>
      </trkpt>
      <trkpt lat="44.01469" lon="2.57846">
        <ele>532</ele>
        <time>2021-10-31T09:42:53.457Z</time>
      </trkpt>
      <trkpt lat="44.01469" lon="2.57844">
        <ele>532</ele>
        <time>2021-10-31T09:42:54.457Z</time>
      </trkpt>
      <trkpt lat="44.01469" lon="2.57843">
        <ele>532</ele>
        <time>2021-10-31T09:42:55.457Z</time>
      </trkpt>
      <trkpt lat="44.01469" lon="2.57841">
        <ele>532</ele>
        <time>2021-10-31T09:42:56.457Z</time>
      </trkpt>
      <trkpt lat="44.01469" lon="2.5784">
        <ele>532</ele>
        <time>2021-10-31T09:42:57.457Z</time>
      </trkpt>
      <trkpt lat="44.01469" lon="2.57838">
        <ele>532</ele>
        <time>2021-10-31T09:42:58.457Z</time>
      </trkpt>
      <trkpt lat="44.01469" lon="2.57836">
        <ele>532</ele>
        <time>2021-10-31T09:42:59.457Z</time>
      </trkpt>
      <trkpt lat="44.01469" lon="2.57835">
        <ele>532</ele>
        <time>2021-10-31T09:43:00.457Z</time>
      </trkpt>
      <trkpt lat="44.01469" lon="2.57833">
        <ele>532</ele>
        <time>2021-10-31T09:43:01.457Z</time>
      </trkpt>
      <trkpt lat="44.01469" lon="2.57832">
        <ele>532</ele>
        <time>2021-10-31T09:43:02.457Z</time>
      </trkpt>
      <trkpt lat="44.01469" lon="2.5783">
        <ele>532</ele>
        <time>2021-10-31T09:43:03.457Z</time>
      </trkpt>
      <trkpt lat="44.01469" lon="2.57829">
        <ele>532</ele>
        <time>2021-10-31T09:43:04.457Z</time>
      </trkpt>
      <trkpt lat="44.01469" lon="2.57827">
        <ele>531</ele>
        <time>2021-10-31T09:43:05.457Z</time>
      </trkpt>
      <trkpt lat="44.01469" lon="2.57826">
        <ele>531</ele>
        <time>2021-10-31T09:43:06.457Z</time>
      </trkpt>
      <trkpt lat="44.01469" lon="2.57824">
        <ele>531</ele>
        <time>2021-10-31T09:43:07.457Z</time>
      </trkpt>
      <trkpt lat="44.01469" lon="2.57823">
        <ele>531</ele>
        <time>2021-10-31T09:43:08.457Z</time>
      </trkpt>
      <trkpt lat="44.01469" lon="2.57821">
        <ele>531</ele>
        <time>2021-10-31T09:43:09.457Z</time>
      </trkpt>
      <trkpt lat="44.01469" lon="2.57819">
        <ele>531</ele>
        <time>2021-10-31T09:43:10.457Z</time>
      </trkpt>
      <trkpt lat="44.01469" lon="2.57817">
        <ele>531</ele>
        <time>2021-10-31T09:43:11.457Z</time>
      </trkpt>
      <trkpt lat="44.01469" lon="2.57816">
        <ele>531</ele>
        <time>2021-10-31T09:43:12.457Z</time>
      </trkpt>
      <trkpt lat="44.0147" lon="2.57814">
        <ele>532</ele>
        <time>2021-10-31T09:43:13.457Z</time>
      </trkpt>
      <trkpt lat="44.0147" lon="2.57813">
        <ele>532</ele>
        <time>2021-10-31T09:43:14.457Z</time>
      </trkpt>
      <trkpt lat="44.0147" lon="2.57811">
        <ele>532</ele>
        <time>2021-10-31T09:43:15.457Z</time>
      </trkpt>
      <trkpt lat="44.0147" lon="2.57809">
        <ele>532</ele>
        <time>2021-10-31T09:43:16.457Z</time>
      </trkpt>
      <trkpt lat="44.0147" lon="2.57808">
        <ele>532</ele>
        <time>2021-10-31T09:43:17.457Z</time>
      </trkpt>
      <trkpt lat="44.0147" lon="2.57806">
        <ele>532</ele>
        <time>2021-10-31T09:43:18.457Z</time>
      </trkpt>
      <trkpt lat="44.0147" lon="2.57805">
        <ele>532</ele>
        <time>2021-10-31T09:43:19.457Z</time>
      </trkpt>
      <trkpt lat="44.0147" lon="2.57803">
        <ele>532</ele>
        <time>2021-10-31T09:43:20.457Z</time>
      </trkpt>
      <trkpt lat="44.0147" lon="2.57802">
        <ele>532</ele>
        <time>2021-10-31T09:43:21.457Z</time>
      </trkpt>
      <trkpt lat="44.0147" lon="2.578">
        <ele>532</ele>
        <time>2021-10-31T09:43:22.457Z</time>
      </trkpt>
      <trkpt lat="44.0147" lon="2.57798">
        <ele>532</ele>
        <time>2021-10-31T09:43:23.457Z</time>
      </trkpt>
      <trkpt lat="44.0147" lon="2.57797">
        <ele>532</ele>
        <time>2021-10-31T09:43:24.457Z</time>
      </trkpt>
      <trkpt lat="44.0147" lon="2.57795">
        <ele>532</ele>
        <time>2021-10-31T09:43:25.457Z</time>
      </trkpt>
      <trkpt lat="44.0147" lon="2.57794">
        <ele>532</ele>
        <time>2021-10-31T09:43:26.457Z</time>
      </trkpt>
      <trkpt lat="44.0147" lon="2.57792">
        <ele>532</ele>
        <time>2021-10-31T09:43:27.457Z</time>
      </trkpt>
      <trkpt lat="44.0147" lon="2.57791">
        <ele>532</ele>
        <time>2021-10-31T09:43:28.457Z</time>
      </trkpt>
      <trkpt lat="44.01471" lon="2.5779">
        <ele>532</ele>
        <time>2021-10-31T09:43:29.457Z</time>
      </trkpt>
      <trkpt lat="44.01471" lon="2.57788">
        <ele>532</ele>
        <time>2021-10-31T09:43:30.457Z</time>
      </trkpt>
      <trkpt lat="44.01471" lon="2.57787">
        <ele>532</ele>
        <time>2021-10-31T09:43:31.457Z</time>
      </trkpt>
      <trkpt lat="44.01471" lon="2.57785">
        <ele>532</ele>
        <time>2021-10-31T09:43:32.457Z</time>
      </trkpt>
      <trkpt lat="44.01471" lon="2.57784">
        <ele>532</ele>
        <time>2021-10-31T09:43:33.457Z</time>
      </trkpt>
      <trkpt lat="44.01471" lon="2.57782">
        <ele>532</ele>
        <time>2021-10-31T09:43:34.457Z</time>
      </trkpt>
      <trkpt lat="44.01471" lon="2.57781">
        <ele>532</ele>
        <time>2021-10-31T09:43:35.457Z</time>
      </trkpt>
      <trkpt lat="44.01471" lon="2.57779">
        <ele>532</ele>
        <time>2021-10-31T09:43:36.457Z</time>
      </trkpt>
      <trkpt lat="44.01471" lon="2.57778">
        <ele>532</ele>
        <time>2021-10-31T09:43:37.457Z</time>
      </trkpt>
      <trkpt lat="44.01471" lon="2.57776">
        <ele>532</ele>
        <time>2021-10-31T09:43:38.457Z</time>
      </trkpt>
      <trkpt lat="44.01471" lon="2.57774">
        <ele>532</ele>
        <time>2021-10-31T09:43:39.457Z</time>
      </trkpt>
      <trkpt lat="44.01472" lon="2.57773">
        <ele>532</ele>
        <time>2021-10-31T09:43:40.457Z</time>
      </trkpt>
      <trkpt lat="44.01472" lon="2.57771">
        <ele>532</ele>
        <time>2021-10-31T09:43:41.457Z</time>
      </trkpt>
      <trkpt lat="44.01472" lon="2.57769">
        <ele>532</ele>
        <time>2021-10-31T09:43:42.457Z</time>
      </trkpt>
      <trkpt lat="44.01472" lon="2.57768">
        <ele>532</ele>
        <time>2021-10-31T09:43:43.457Z</time>
      </trkpt>
      <trkpt lat="44.01472" lon="2.57766">
        <ele>532</ele>
        <time>2021-10-31T09:43:44.457Z</time>
      </trkpt>
      <trkpt lat="44.01472" lon="2.57764">
        <ele>532</ele>
        <time>2021-10-31T09:43:45.457Z</time>
      </trkpt>
      <trkpt lat="44.01472" lon="2.57762">
        <ele>532</ele>
        <time>2021-10-31T09:43:46.457Z</time>
      </trkpt>
      <trkpt lat="44.01473" lon="2.57761">
        <ele>532</ele>
        <time>2021-10-31T09:43:47.457Z</time>
      </trkpt>
      <trkpt lat="44.01473" lon="2.57759">
        <ele>532</ele>
        <time>2021-10-31T09:43:48.457Z</time>
      </trkpt>
      <trkpt lat="44.01473" lon="2.57758">
        <ele>532</ele>
        <time>2021-10-31T09:43:49.457Z</time>
      </trkpt>
      <trkpt lat="44.01473" lon="2.57756">
        <ele>532</ele>
        <time>2021-10-31T09:43:50.457Z</time>
      </trkpt>
      <trkpt lat="44.01473" lon="2.57755">
        <ele>532</ele>
        <time>2021-10-31T09:43:51.457Z</time>
      </trkpt>
      <trkpt lat="44.01473" lon="2.57753">
        <ele>532</ele>
        <time>2021-10-31T09:43:52.457Z</time>
      </trkpt>
      <trkpt lat="44.01473" lon="2.57751">
        <ele>532</ele>
        <time>2021-10-31T09:43:53.457Z</time>
      </trkpt>
      <trkpt lat="44.01473" lon="2.5775">
        <ele>532</ele>
        <time>2021-10-31T09:43:54.457Z</time>
      </trkpt>
      <trkpt lat="44.01474" lon="2.57748">
        <ele>532</ele>
        <time>2021-10-31T09:43:55.457Z</time>
      </trkpt>
      <trkpt lat="44.01474" lon="2.57747">
        <ele>532</ele>
        <time>2021-10-31T09:43:56.457Z</time>
      </trkpt>
      <trkpt lat="44.01474" lon="2.57745">
        <ele>532</ele>
        <time>2021-10-31T09:43:57.457Z</time>
      </trkpt>
      <trkpt lat="44.01474" lon="2.57743">
        <ele>532</ele>
        <time>2021-10-31T09:43:58.457Z</time>
      </trkpt>
      <trkpt lat="44.01474" lon="2.57742">
        <ele>532</ele>
        <time>2021-10-31T09:43:59.457Z</time>
      </trkpt>
      <trkpt lat="44.01474" lon="2.5774">
        <ele>532</ele>
        <time>2021-10-31T09:44:00.457Z</time>
      </trkpt>
      <trkpt lat="44.01474" lon="2.57738">
        <ele>532</ele>
        <time>2021-10-31T09:44:01.457Z</time>
      </trkpt>
      <trkpt lat="44.01474" lon="2.57737">
        <ele>531</ele>
        <time>2021-10-31T09:44:02.457Z</time>
      </trkpt>
      <trkpt lat="44.01475" lon="2.57735">
        <ele>531</ele>
        <time>2021-10-31T09:44:03.457Z</time>
      </trkpt>
      <trkpt lat="44.01475" lon="2.57734">
        <ele>531</ele>
        <time>2021-10-31T09:44:04.457Z</time>
      </trkpt>
      <trkpt lat="44.01475" lon="2.57732">
        <ele>531</ele>
        <time>2021-10-31T09:44:05.457Z</time>
      </trkpt>
      <trkpt lat="44.01475" lon="2.5773">
        <ele>531</ele>
        <time>2021-10-31T09:44:06.457Z</time>
      </trkpt>
      <trkpt lat="44.01475" lon="2.57729">
        <ele>531</ele>
        <time>2021-10-31T09:44:07.457Z</time>
      </trkpt>
      <trkpt lat="44.01475" lon="2.57727">
        <ele>531</ele>
        <time>2021-10-31T09:44:08.457Z</time>
      </trkpt>
      <trkpt lat="44.01475" lon="2.57726">
        <ele>531</ele>
        <time>2021-10-31T09:44:09.457Z</time>
      </trkpt>
      <trkpt lat="44.01475" lon="2.57724">
        <ele>531</ele>
        <time>2021-10-31T09:44:10.457Z</time>
      </trkpt>
      <trkpt lat="44.01475" lon="2.57722">
        <ele>531</ele>
        <time>2021-10-31T09:44:11.457Z</time>
      </trkpt>
      <trkpt lat="44.01475" lon="2.57721">
        <ele>531</ele>
        <time>2021-10-31T09:44:12.457Z</time>
      </trkpt>
      <trkpt lat="44.01475" lon="2.57719">
        <ele>531</ele>
        <time>2021-10-31T09:44:13.457Z</time>
      </trkpt>
      <trkpt lat="44.01475" lon="2.57718">
        <ele>531</ele>
        <time>2021-10-31T09:44:14.457Z</time>
      </trkpt>
      <trkpt lat="44.01476" lon="2.57716">
        <ele>531</ele>
        <time>2021-10-31T09:44:15.457Z</time>
      </trkpt>
      <trkpt lat="44.01476" lon="2.57715">
        <ele>531</ele>
        <time>2021-10-31T09:44:16.457Z</time>
      </trkpt>
      <trkpt lat="44.01476" lon="2.57713">
        <ele>531</ele>
        <time>2021-10-31T09:44:17.457Z</time>
      </trkpt>
      <trkpt lat="44.01476" lon="2.57711">
        <ele>531</ele>
        <time>2021-10-31T09:44:18.457Z</time>
      </trkpt>
      <trkpt lat="44.01476" lon="2.57709">
        <ele>531</ele>
        <time>2021-10-31T09:44:19.457Z</time>
      </trkpt>
      <trkpt lat="44.01476" lon="2.57708">
        <ele>531</ele>
        <time>2021-10-31T09:44:38.455Z</time>
      </trkpt>
      <trkpt lat="44.01476" lon="2.57706">
        <ele>531</ele>
        <time>2021-10-31T09:44:39.455Z</time>
      </trkpt>
      <trkpt lat="44.01476" lon="2.57704">
        <ele>531</ele>
        <time>2021-10-31T09:44:40.455Z</time>
      </trkpt>
      <trkpt lat="44.01476" lon="2.57703">
        <ele>531</ele>
        <time>2021-10-31T09:44:41.455Z</time>
      </trkpt>
      <trkpt lat="44.01476" lon="2.57701">
        <ele>531</ele>
        <time>2021-10-31T09:44:42.455Z</time>
      </trkpt>
      <trkpt lat="44.01476" lon="2.57699">
        <ele>530</ele>
        <time>2021-10-31T09:44:43.455Z</time>
      </trkpt>
      <trkpt lat="44.01477" lon="2.57697">
        <ele>530</ele>
        <time>2021-10-31T09:44:44.455Z</time>
      </trkpt>
      <trkpt lat="44.01477" lon="2.57696">
        <ele>530</ele>
        <time>2021-10-31T09:44:51.470Z</time>
      </trkpt>
      <trkpt lat="44.01477" lon="2.57694">
        <ele>530</ele>
        <time>2021-10-31T09:44:52.470Z</time>
      </trkpt>
      <trkpt lat="44.01477" lon="2.57692">
        <ele>530</ele>
        <time>2021-10-31T09:44:53.470Z</time>
      </trkpt>
      <trkpt lat="44.01477" lon="2.5769">
        <ele>530</ele>
        <time>2021-10-31T09:44:54.470Z</time>
      </trkpt>
      <trkpt lat="44.01477" lon="2.57688">
        <ele>530</ele>
        <time>2021-10-31T09:44:55.470Z</time>
      </trkpt>
      <trkpt lat="44.01477" lon="2.57687">
        <ele>530</ele>
        <time>2021-10-31T09:44:56.470Z</time>
      </trkpt>
      <trkpt lat="44.01477" lon="2.57685">
        <ele>531</ele>
        <time>2021-10-31T09:44:57.470Z</time>
      </trkpt>
      <trkpt lat="44.01477" lon="2.57683">
        <ele>531</ele>
        <time>2021-10-31T09:44:58.470Z</time>
      </trkpt>
      <trkpt lat="44.01477" lon="2.57682">
        <ele>531</ele>
        <time>2021-10-31T09:45:24.470Z</time>
      </trkpt>
      <trkpt lat="44.01477" lon="2.5768">
        <ele>531</ele>
        <time>2021-10-31T09:45:25.470Z</time>
      </trkpt>
      <trkpt lat="44.01477" lon="2.57678">
        <ele>531</ele>
        <time>2021-10-31T09:45:26.470Z</time>
      </trkpt>
      <trkpt lat="44.01477" lon="2.57677">
        <ele>531</ele>
        <time>2021-10-31T09:45:27.470Z</time>
      </trkpt>
      <trkpt lat="44.01477" lon="2.57675">
        <ele>531</ele>
        <time>2021-10-31T09:45:28.470Z</time>
      </trkpt>
      <trkpt lat="44.01477" lon="2.57674">
        <ele>531</ele>
        <time>2021-10-31T09:45:29.470Z</time>
      </trkpt>
      <trkpt lat="44.01477" lon="2.57672">
        <ele>531</ele>
        <time>2021-10-31T09:45:30.470Z</time>
      </trkpt>
      <trkpt lat="44.01477" lon="2.57671">
        <ele>531</ele>
        <time>2021-10-31T09:45:31.470Z</time>
      </trkpt>
      <trkpt lat="44.01477" lon="2.57669">
        <ele>531</ele>
        <time>2021-10-31T09:46:36.472Z</time>
      </trkpt>
      <trkpt lat="44.01477" lon="2.57667">
        <ele>531</ele>
        <time>2021-10-31T09:46:37.472Z</time>
      </trkpt>
      <trkpt lat="44.01477" lon="2.57665">
        <ele>531</ele>
        <time>2021-10-31T09:46:38.472Z</time>
      </trkpt>
      <trkpt lat="44.01477" lon="2.57664">
        <ele>531</ele>
        <time>2021-10-31T09:46:39.472Z</time>
      </trkpt>
      <trkpt lat="44.01477" lon="2.57663">
        <ele>530</ele>
        <time>2021-10-31T09:46:40.472Z</time>
      </trkpt>
      <trkpt lat="44.01477" lon="2.57661">
        <ele>530</ele>
        <time>2021-10-31T09:46:41.472Z</time>
      </trkpt>
      <trkpt lat="44.01477" lon="2.57659">
        <ele>530</ele>
        <time>2021-10-31T09:46:42.472Z</time>
      </trkpt>
      <trkpt lat="44.01477" lon="2.57658">
        <ele>530</ele>
        <time>2021-10-31T09:46:43.472Z</time>
      </trkpt>
      <trkpt lat="44.01478" lon="2.57656">
        <ele>530</ele>
        <time>2021-10-31T09:46:44.472Z</time>
      </trkpt>
      <trkpt lat="44.01478" lon="2.57655">
        <ele>531</ele>
        <time>2021-10-31T09:46:45.472Z</time>
      </trkpt>
      <trkpt lat="44.01478" lon="2.57654">
        <ele>531</ele>
        <time>2021-10-31T09:46:46.472Z</time>
      </trkpt>
      <trkpt lat="44.01478" lon="2.57653">
        <ele>531</ele>
        <time>2021-10-31T09:46:47.472Z</time>
      </trkpt>
      <trkpt lat="44.01479" lon="2.57652">
        <ele>531</ele>
        <time>2021-10-31T09:46:48.472Z</time>
      </trkpt>
      <trkpt lat="44.01479" lon="2.57651">
        <ele>531</ele>
        <time>2021-10-31T09:46:49.472Z</time>
      </trkpt>
      <trkpt lat="44.0148" lon="2.5765">
        <ele>531</ele>
        <time>2021-10-31T09:46:50.472Z</time>
      </trkpt>
      <trkpt lat="44.0148" lon="2.57649">
        <ele>531</ele>
        <time>2021-10-31T09:46:51.472Z</time>
      </trkpt>
      <trkpt lat="44.01481" lon="2.57648">
        <ele>531</ele>
        <time>2021-10-31T09:46:52.472Z</time>
      </trkpt>
      <trkpt lat="44.01482" lon="2.57647">
        <ele>531</ele>
        <time>2021-10-31T09:46:53.472Z</time>
      </trkpt>
      <trkpt lat="44.01482" lon="2.57646">
        <ele>531</ele>
        <time>2021-10-31T09:46:54.472Z</time>
      </trkpt>
      <trkpt lat="44.01483" lon="2.57646">
        <ele>531</ele>
        <time>2021-10-31T09:46:55.472Z</time>
      </trkpt>
      <trkpt lat="44.01484" lon="2.57646">
        <ele>530</ele>
        <time>2021-10-31T09:46:56.472Z</time>
      </trkpt>
      <trkpt lat="44.01485" lon="2.57646">
        <ele>530</ele>
        <time>2021-10-31T09:46:57.472Z</time>
      </trkpt>
      <trkpt lat="44.01486" lon="2.57646">
        <ele>530</ele>
        <time>2021-10-31T09:46:58.472Z</time>
      </trkpt>
      <trkpt lat="44.01487" lon="2.57646">
        <ele>530</ele>
        <time>2021-10-31T09:46:59.472Z</time>
      </trkpt>
      <trkpt lat="44.01489" lon="2.57646">
        <ele>530</ele>
        <time>2021-10-31T09:47:00.472Z</time>
      </trkpt>
      <trkpt lat="44.0149" lon="2.57646">
        <ele>530</ele>
        <time>2021-10-31T09:47:01.472Z</time>
      </trkpt>
      <trkpt lat="44.01491" lon="2.57646">
        <ele>530</ele>
        <time>2021-10-31T09:47:02.472Z</time>
      </trkpt>
      <trkpt lat="44.01492" lon="2.57646">
        <ele>531</ele>
        <time>2021-10-31T09:47:03.472Z</time>
      </trkpt>
      <trkpt lat="44.01493" lon="2.57646">
        <ele>531</ele>
        <time>2021-10-31T09:47:04.472Z</time>
      </trkpt>
      <trkpt lat="44.01494" lon="2.57647">
        <ele>531</ele>
        <time>2021-10-31T09:47:05.472Z</time>
      </trkpt>
      <trkpt lat="44.01495" lon="2.57647">
        <ele>531</ele>
        <time>2021-10-31T09:47:06.472Z</time>
      </trkpt>
      <trkpt lat="44.01496" lon="2.57648">
        <ele>531</ele>
        <time>2021-10-31T09:47:07.472Z</time>
      </trkpt>
      <trkpt lat="44.01497" lon="2.57648">
        <ele>531</ele>
        <time>2021-10-31T09:47:08.472Z</time>
      </trkpt>
      <trkpt lat="44.01498" lon="2.57648">
        <ele>531</ele>
        <time>2021-10-31T09:47:09.472Z</time>
      </trkpt>
      <trkpt lat="44.015" lon="2.57649">
        <ele>531</ele>
        <time>2021-10-31T09:47:10.472Z</time>
      </trkpt>
      <trkpt lat="44.01501" lon="2.57649">
        <ele>531</ele>
        <time>2021-10-31T09:47:11.472Z</time>
      </trkpt>
      <trkpt lat="44.01502" lon="2.57649">
        <ele>531</ele>
        <time>2021-10-31T09:47:12.472Z</time>
      </trkpt>
      <trkpt lat="44.01503" lon="2.5765">
        <ele>531</ele>
        <time>2021-10-31T09:47:13.472Z</time>
      </trkpt>
      <trkpt lat="44.01504" lon="2.5765">
        <ele>531</ele>
        <time>2021-10-31T09:47:14.472Z</time>
      </trkpt>
      <trkpt lat="44.01505" lon="2.57651">
        <ele>531</ele>
        <time>2021-10-31T09:47:15.472Z</time>
      </trkpt>
      <trkpt lat="44.01506" lon="2.57651">
        <ele>531</ele>
        <time>2021-10-31T09:47:16.472Z</time>
      </trkpt>
      <trkpt lat="44.01507" lon="2.57651">
        <ele>531</ele>
        <time>2021-10-31T09:47:17.472Z</time>
      </trkpt>
      <trkpt lat="44.01508" lon="2.57651">
        <ele>531</ele>
        <time>2021-10-31T09:47:18.472Z</time>
      </trkpt>
      <trkpt lat="44.01509" lon="2.57652">
        <ele>531</ele>
        <time>2021-10-31T09:47:19.472Z</time>
      </trkpt>
      <trkpt lat="44.0151" lon="2.57652">
        <ele>531</ele>
        <time>2021-10-31T09:47:20.472Z</time>
      </trkpt>
      <trkpt lat="44.01512" lon="2.57653">
        <ele>531</ele>
        <time>2021-10-31T09:47:21.472Z</time>
      </trkpt>
      <trkpt lat="44.01513" lon="2.57653">
        <ele>531</ele>
        <time>2021-10-31T09:47:22.472Z</time>
      </trkpt>
      <trkpt lat="44.01514" lon="2.57653">
        <ele>532</ele>
        <time>2021-10-31T09:47:23.472Z</time>
      </trkpt>
      <trkpt lat="44.01515" lon="2.57654">
        <ele>532</ele>
        <time>2021-10-31T09:47:24.472Z</time>
      </trkpt>
      <trkpt lat="44.01516" lon="2.57654">
        <ele>532</ele>
        <time>2021-10-31T09:47:25.472Z</time>
      </trkpt>
      <trkpt lat="44.01517" lon="2.57655">
        <ele>532</ele>
        <time>2021-10-31T09:47:26.472Z</time>
      </trkpt>
      <trkpt lat="44.01518" lon="2.57655">
        <ele>532</ele>
        <time>2021-10-31T09:47:27.472Z</time>
      </trkpt>
      <trkpt lat="44.01519" lon="2.57656">
        <ele>532</ele>
        <time>2021-10-31T09:47:28.472Z</time>
      </trkpt>
      <trkpt lat="44.0152" lon="2.57656">
        <ele>532</ele>
        <time>2021-10-31T09:47:29.472Z</time>
      </trkpt>
      <trkpt lat="44.01521" lon="2.57657">
        <ele>532</ele>
        <time>2021-10-31T09:47:30.472Z</time>
      </trkpt>
      <trkpt lat="44.01522" lon="2.57657">
        <ele>532</ele>
        <time>2021-10-31T09:47:31.472Z</time>
      </trkpt>
      <trkpt lat="44.01523" lon="2.57658">
        <ele>532</ele>
        <time>2021-10-31T09:47:32.472Z</time>
      </trkpt>
      <trkpt lat="44.01524" lon="2.57658">
        <ele>532</ele>
        <time>2021-10-31T09:47:33.472Z</time>
      </trkpt>
      <trkpt lat="44.01525" lon="2.57659">
        <ele>532</ele>
        <time>2021-10-31T09:47:34.472Z</time>
      </trkpt>
      <trkpt lat="44.01526" lon="2.57659">
        <ele>532</ele>
        <time>2021-10-31T09:47:35.472Z</time>
      </trkpt>
      <trkpt lat="44.01527" lon="2.57659">
        <ele>532</ele>
        <time>2021-10-31T09:47:36.472Z</time>
      </trkpt>
      <trkpt lat="44.01528" lon="2.5766">
        <ele>532</ele>
        <time>2021-10-31T09:47:37.472Z</time>
      </trkpt>
      <trkpt lat="44.0153" lon="2.5766">
        <ele>532</ele>
        <time>2021-10-31T09:47:38.472Z</time>
      </trkpt>
      <trkpt lat="44.01531" lon="2.5766">
        <ele>532</ele>
        <time>2021-10-31T09:47:39.472Z</time>
      </trkpt>
      <trkpt lat="44.01532" lon="2.57661">
        <ele>532</ele>
        <time>2021-10-31T09:47:40.472Z</time>
      </trkpt>
      <trkpt lat="44.01533" lon="2.57661">
        <ele>532</ele>
        <time>2021-10-31T09:47:41.472Z</time>
      </trkpt>
      <trkpt lat="44.01534" lon="2.57662">
        <ele>532</ele>
        <time>2021-10-31T09:47:42.472Z</time>
      </trkpt>
      <trkpt lat="44.01535" lon="2.57662">
        <ele>532</ele>
        <time>2021-10-31T09:47:43.472Z</time>
      </trkpt>
      <trkpt lat="44.01536" lon="2.57662">
        <ele>532</ele>
        <time>2021-10-31T09:47:44.472Z</time>
      </trkpt>
      <trkpt lat="44.01537" lon="2.57662">
        <ele>532</ele>
        <time>2021-10-31T09:47:45.472Z</time>
      </trkpt>
      <trkpt lat="44.01538" lon="2.57662">
        <ele>532</ele>
        <time>2021-10-31T09:47:46.472Z</time>
      </trkpt>
      <trkpt lat="44.01539" lon="2.57662">
        <ele>533</ele>
        <time>2021-10-31T09:47:47.472Z</time>
      </trkpt>
      <trkpt lat="44.0154" lon="2.57662">
        <ele>533</ele>
        <time>2021-10-31T09:47:48.472Z</time>
      </trkpt>
      <trkpt lat="44.01541" lon="2.57662">
        <ele>533</ele>
        <time>2021-10-31T09:47:49.472Z</time>
      </trkpt>
      <trkpt lat="44.01542" lon="2.57662">
        <ele>533</ele>
        <time>2021-10-31T09:47:50.472Z</time>
      </trkpt>
      <trkpt lat="44.01543" lon="2.57662">
        <ele>533</ele>
        <time>2021-10-31T09:47:51.472Z</time>
      </trkpt>
      <trkpt lat="44.01544" lon="2.57662">
        <ele>533</ele>
        <time>2021-10-31T09:47:52.472Z</time>
      </trkpt>
      <trkpt lat="44.01545" lon="2.57661">
        <ele>533</ele>
        <time>2021-10-31T09:47:53.472Z</time>
      </trkpt>
      <trkpt lat="44.01546" lon="2.57661">
        <ele>533</ele>
        <time>2021-10-31T09:47:54.472Z</time>
      </trkpt>
      <trkpt lat="44.01547" lon="2.5766">
        <ele>533</ele>
        <time>2021-10-31T09:47:55.472Z</time>
      </trkpt>
      <trkpt lat="44.01547" lon="2.57659">
        <ele>533</ele>
        <time>2021-10-31T09:47:56.472Z</time>
      </trkpt>
      <trkpt lat="44.01547" lon="2.57658">
        <ele>533</ele>
        <time>2021-10-31T09:47:57.472Z</time>
      </trkpt>
      <trkpt lat="44.01547" lon="2.57658">
        <ele>532</ele>
        <time>2021-10-31T09:47:58.472Z</time>
      </trkpt>
      <trkpt lat="44.01546" lon="2.57657">
        <ele>532</ele>
        <time>2021-10-31T09:47:59.472Z</time>
      </trkpt>
      <trkpt lat="44.01546" lon="2.57657">
        <ele>532</ele>
        <time>2021-10-31T09:48:00.472Z</time>
      </trkpt>
      <trkpt lat="44.01546" lon="2.57656">
        <ele>532</ele>
        <time>2021-10-31T09:48:01.472Z</time>
      </trkpt>
      <trkpt lat="44.01545" lon="2.57656">
        <ele>532</ele>
        <time>2021-10-31T09:48:02.472Z</time>
      </trkpt>
      <trkpt lat="44.01545" lon="2.57656">
        <ele>532</ele>
        <time>2021-10-31T09:48:03.472Z</time>
      </trkpt>
      <trkpt lat="44.01545" lon="2.57655">
        <ele>532</ele>
        <time>2021-10-31T09:48:04.472Z</time>
      </trkpt>
      <trkpt lat="44.01542" lon="2.57654">
        <ele>530</ele>
        <time>2021-10-31T09:48:05.472Z</time>
      </trkpt>
      <trkpt lat="44.01542" lon="2.57653">
        <ele>530</ele>
        <time>2021-10-31T09:48:06.472Z</time>
      </trkpt>
      <trkpt lat="44.01542" lon="2.57653">
        <ele>530</ele>
        <time>2021-10-31T09:48:07.472Z</time>
      </trkpt>
      <trkpt lat="44.01542" lon="2.57652">
        <ele>530</ele>
        <time>2021-10-31T09:48:08.472Z</time>
      </trkpt>
      <trkpt lat="44.01542" lon="2.57652">
        <ele>530</ele>
        <time>2021-10-31T09:48:09.472Z</time>
      </trkpt>
      <trkpt lat="44.01542" lon="2.57651">
        <ele>530</ele>
        <time>2021-10-31T09:48:10.472Z</time>
      </trkpt>
      <trkpt lat="44.01542" lon="2.57649">
        <ele>529</ele>
        <time>2021-10-31T09:48:11.472Z</time>
      </trkpt>
      <trkpt lat="44.01542" lon="2.57648">
        <ele>529</ele>
        <time>2021-10-31T09:48:12.472Z</time>
      </trkpt>
      <trkpt lat="44.01544" lon="2.57651">
        <ele>529</ele>
        <time>2021-10-31T09:48:13.472Z</time>
      </trkpt>
      <trkpt lat="44.01544" lon="2.57652">
        <ele>530</ele>
        <time>2021-10-31T09:48:14.472Z</time>
      </trkpt>
      <trkpt lat="44.01544" lon="2.57652">
        <ele>530</ele>
        <time>2021-10-31T09:48:15.472Z</time>
      </trkpt>
      <trkpt lat="44.01543" lon="2.57653">
        <ele>530</ele>
        <time>2021-10-31T09:48:16.472Z</time>
      </trkpt>
      <trkpt lat="44.01543" lon="2.57653">
        <ele>530</ele>
        <time>2021-10-31T09:48:17.472Z</time>
      </trkpt>
      <trkpt lat="44.01543" lon="2.57653">
        <ele>530</ele>
        <time>2021-10-31T09:48:18.472Z</time>
      </trkpt>
      <trkpt lat="44.01544" lon="2.57654">
        <ele>530</ele>
        <time>2021-10-31T09:48:19.472Z</time>
      </trkpt>
      <trkpt lat="44.01545" lon="2.57654">
        <ele>530</ele>
        <time>2021-10-31T09:48:20.472Z</time>
      </trkpt>
      <trkpt lat="44.01546" lon="2.57653">
        <ele>530</ele>
        <time>2021-10-31T09:48:21.472Z</time>
      </trkpt>
      <trkpt lat="44.01547" lon="2.57654">
        <ele>530</ele>
        <time>2021-10-31T09:48:22.472Z</time>
      </trkpt>
      <trkpt lat="44.01547" lon="2.57654">
        <ele>530</ele>
        <time>2021-10-31T09:48:23.472Z</time>
      </trkpt>
      <trkpt lat="44.01548" lon="2.57655">
        <ele>531</ele>
        <time>2021-10-31T09:48:24.472Z</time>
      </trkpt>
      <trkpt lat="44.01548" lon="2.57655">
        <ele>531</ele>
        <time>2021-10-31T09:48:25.472Z</time>
      </trkpt>
      <trkpt lat="44.01548" lon="2.57655">
        <ele>531</ele>
        <time>2021-10-31T09:48:26.472Z</time>
      </trkpt>
      <trkpt lat="44.01549" lon="2.57656">
        <ele>531</ele>
        <time>2021-10-31T09:48:27.472Z</time>
      </trkpt>
      <trkpt lat="44.01549" lon="2.57657">
        <ele>531</ele>
        <time>2021-10-31T09:48:28.472Z</time>
      </trkpt>
      <trkpt lat="44.01549" lon="2.57657">
        <ele>531</ele>
        <time>2021-10-31T09:48:29.472Z</time>
      </trkpt>
      <trkpt lat="44.01549" lon="2.57657">
        <ele>531</ele>
        <time>2021-10-31T09:48:30.472Z</time>
      </trkpt>
      <trkpt lat="44.01549" lon="2.57657">
        <ele>531</ele>
        <time>2021-10-31T09:48:31.472Z</time>
      </trkpt>
      <trkpt lat="44.01549" lon="2.57657">
        <ele>531</ele>
        <time>2021-10-31T09:48:32.472Z</time>
      </trkpt>
      <trkpt lat="44.01551" lon="2.57658">
        <ele>531</ele>
        <time>2021-10-31T09:48:33.472Z</time>
      </trkpt>
      <trkpt lat="44.01551" lon="2.57658">
        <ele>531</ele>
        <time>2021-10-31T09:48:34.472Z</time>
      </trkpt>
      <trkpt lat="44.01552" lon="2.57659">
        <ele>531</ele>
        <time>2021-10-31T09:48:35.472Z</time>
      </trkpt>
      <trkpt lat="44.01553" lon="2.57659">
        <ele>531</ele>
        <time>2021-10-31T09:48:36.472Z</time>
      </trkpt>
      <trkpt lat="44.01553" lon="2.57659">
        <ele>531</ele>
        <time>2021-10-31T09:48:37.472Z</time>
      </trkpt>
      <trkpt lat="44.01554" lon="2.57659">
        <ele>531</ele>
        <time>2021-10-31T09:48:38.472Z</time>
      </trkpt>
      <trkpt lat="44.01555" lon="2.5766">
        <ele>531</ele>
        <time>2021-10-31T09:48:39.472Z</time>
      </trkpt>
      <trkpt lat="44.01556" lon="2.5766">
        <ele>531</ele>
        <time>2021-10-31T09:48:40.472Z</time>
      </trkpt>
      <trkpt lat="44.01557" lon="2.5766">
        <ele>531</ele>
        <time>2021-10-31T09:48:41.472Z</time>
      </trkpt>
      <trkpt lat="44.01559" lon="2.5766">
        <ele>531</ele>
        <time>2021-10-31T09:48:42.472Z</time>
      </trkpt>
      <trkpt lat="44.0156" lon="2.5766">
        <ele>531</ele>
        <time>2021-10-31T09:48:43.472Z</time>
      </trkpt>
      <trkpt lat="44.01561" lon="2.5766">
        <ele>531</ele>
        <time>2021-10-31T09:48:44.472Z</time>
      </trkpt>
      <trkpt lat="44.01562" lon="2.5766">
        <ele>531</ele>
        <time>2021-10-31T09:48:45.472Z</time>
      </trkpt>
      <trkpt lat="44.01563" lon="2.5766">
        <ele>531</ele>
        <time>2021-10-31T09:48:46.472Z</time>
      </trkpt>
      <trkpt lat="44.01564" lon="2.5766">
        <ele>531</ele>
        <time>2021-10-31T09:48:47.472Z</time>
      </trkpt>
      <trkpt lat="44.01564" lon="2.5766">
        <ele>531</ele>
        <time>2021-10-31T09:48:48.472Z</time>
      </trkpt>
      <trkpt lat="44.01565" lon="2.5766">
        <ele>531</ele>
        <time>2021-10-31T09:48:49.472Z</time>
      </trkpt>
      <trkpt lat="44.01566" lon="2.57659">
        <ele>531</ele>
        <time>2021-10-31T09:48:50.472Z</time>
      </trkpt>
      <trkpt lat="44.01567" lon="2.57659">
        <ele>531</ele>
        <time>2021-10-31T09:48:51.472Z</time>
      </trkpt>
      <trkpt lat="44.01568" lon="2.57659">
        <ele>532</ele>
        <time>2021-10-31T09:48:52.472Z</time>
      </trkpt>
      <trkpt lat="44.0157" lon="2.57659">
        <ele>532</ele>
        <time>2021-10-31T09:48:53.472Z</time>
      </trkpt>
      <trkpt lat="44.01571" lon="2.57659">
        <ele>532</ele>
        <time>2021-10-31T09:48:54.472Z</time>
      </trkpt>
      <trkpt lat="44.01572" lon="2.57658">
        <ele>532</ele>
        <time>2021-10-31T09:48:55.472Z</time>
      </trkpt>
      <trkpt lat="44.01573" lon="2.57658">
        <ele>532</ele>
        <time>2021-10-31T09:48:56.472Z</time>
      </trkpt>
      <trkpt lat="44.01574" lon="2.57658">
        <ele>532</ele>
        <time>2021-10-31T09:48:57.472Z</time>
      </trkpt>
      <trkpt lat="44.01575" lon="2.57657">
        <ele>532</ele>
        <time>2021-10-31T09:48:58.472Z</time>
      </trkpt>
      <trkpt lat="44.01576" lon="2.57657">
        <ele>532</ele>
        <time>2021-10-31T09:48:59.472Z</time>
      </trkpt>
      <trkpt lat="44.01577" lon="2.57657">
        <ele>532</ele>
        <time>2021-10-31T09:49:00.472Z</time>
      </trkpt>
      <trkpt lat="44.01578" lon="2.57656">
        <ele>532</ele>
        <time>2021-10-31T09:49:01.472Z</time>
      </trkpt>
      <trkpt lat="44.01579" lon="2.57656">
        <ele>532</ele>
        <time>2021-10-31T09:49:02.472Z</time>
      </trkpt>
      <trkpt lat="44.0158" lon="2.57655">
        <ele>532</ele>
        <time>2021-10-31T09:49:03.472Z</time>
      </trkpt>
      <trkpt lat="44.01581" lon="2.57655">
        <ele>532</ele>
        <time>2021-10-31T09:49:04.472Z</time>
      </trkpt>
      <trkpt lat="44.01582" lon="2.57654">
        <ele>532</ele>
        <time>2021-10-31T09:49:05.472Z</time>
      </trkpt>
      <trkpt lat="44.01583" lon="2.57654">
        <ele>532</ele>
        <time>2021-10-31T09:49:06.472Z</time>
      </trkpt>
      <trkpt lat="44.01584" lon="2.57653">
        <ele>532</ele>
        <time>2021-10-31T09:49:07.472Z</time>
      </trkpt>
      <trkpt lat="44.01585" lon="2.57653">
        <ele>532</ele>
        <time>2021-10-31T09:49:08.472Z</time>
      </trkpt>
      <trkpt lat="44.01586" lon="2.57653">
        <ele>533</ele>
        <time>2021-10-31T09:49:09.472Z</time>
      </trkpt>
      <trkpt lat="44.01587" lon="2.57652">
        <ele>532</ele>
        <time>2021-10-31T09:49:10.472Z</time>
      </trkpt>
      <trkpt lat="44.01588" lon="2.57652">
        <ele>532</ele>
        <time>2021-10-31T09:49:11.472Z</time>
      </trkpt>
      <trkpt lat="44.01589" lon="2.57651">
        <ele>532</ele>
        <time>2021-10-31T09:49:12.472Z</time>
      </trkpt>
      <trkpt lat="44.0159" lon="2.57651">
        <ele>532</ele>
        <time>2021-10-31T09:49:13.472Z</time>
      </trkpt>
      <trkpt lat="44.01591" lon="2.5765">
        <ele>532</ele>
        <time>2021-10-31T09:49:14.472Z</time>
      </trkpt>
      <trkpt lat="44.01592" lon="2.57649">
        <ele>533</ele>
        <time>2021-10-31T09:49:15.472Z</time>
      </trkpt>
      <trkpt lat="44.01594" lon="2.57649">
        <ele>533</ele>
        <time>2021-10-31T09:49:16.472Z</time>
      </trkpt>
      <trkpt lat="44.01596" lon="2.57648">
        <ele>533</ele>
        <time>2021-10-31T09:49:17.472Z</time>
      </trkpt>
      <trkpt lat="44.01596" lon="2.57648">
        <ele>533</ele>
        <time>2021-10-31T09:49:18.472Z</time>
      </trkpt>
      <trkpt lat="44.01597" lon="2.57647">
        <ele>533</ele>
        <time>2021-10-31T09:49:19.472Z</time>
      </trkpt>
      <trkpt lat="44.01598" lon="2.57646">
        <ele>533</ele>
        <time>2021-10-31T09:49:20.472Z</time>
      </trkpt>
      <trkpt lat="44.01599" lon="2.57645">
        <ele>533</ele>
        <time>2021-10-31T09:49:21.472Z</time>
      </trkpt>
      <trkpt lat="44.01601" lon="2.57644">
        <ele>533</ele>
        <time>2021-10-31T09:49:22.472Z</time>
      </trkpt>
      <trkpt lat="44.01601" lon="2.57643">
        <ele>533</ele>
        <time>2021-10-31T09:49:23.472Z</time>
      </trkpt>
      <trkpt lat="44.01601" lon="2.57643">
        <ele>533</ele>
        <time>2021-10-31T09:49:24.472Z</time>
      </trkpt>
      <trkpt lat="44.01602" lon="2.57642">
        <ele>533</ele>
        <time>2021-10-31T09:49:25.472Z</time>
      </trkpt>
      <trkpt lat="44.01603" lon="2.57641">
        <ele>533</ele>
        <time>2021-10-31T09:49:26.472Z</time>
      </trkpt>
      <trkpt lat="44.01604" lon="2.57641">
        <ele>533</ele>
        <time>2021-10-31T09:49:27.472Z</time>
      </trkpt>
      <trkpt lat="44.01605" lon="2.5764">
        <ele>533</ele>
        <time>2021-10-31T09:49:28.472Z</time>
      </trkpt>
      <trkpt lat="44.01606" lon="2.57639">
        <ele>533</ele>
        <time>2021-10-31T09:49:29.472Z</time>
      </trkpt>
      <trkpt lat="44.01607" lon="2.57638">
        <ele>533</ele>
        <time>2021-10-31T09:49:30.472Z</time>
      </trkpt>
      <trkpt lat="44.01608" lon="2.57637">
        <ele>533</ele>
        <time>2021-10-31T09:49:31.472Z</time>
      </trkpt>
      <trkpt lat="44.01609" lon="2.57636">
        <ele>533</ele>
        <time>2021-10-31T09:49:32.472Z</time>
      </trkpt>
      <trkpt lat="44.0161" lon="2.57635">
        <ele>533</ele>
        <time>2021-10-31T09:49:33.472Z</time>
      </trkpt>
      <trkpt lat="44.01611" lon="2.57635">
        <ele>533</ele>
        <time>2021-10-31T09:49:34.472Z</time>
      </trkpt>
      <trkpt lat="44.01612" lon="2.57634">
        <ele>533</ele>
        <time>2021-10-31T09:49:35.472Z</time>
      </trkpt>
      <trkpt lat="44.01613" lon="2.57633">
        <ele>533</ele>
        <time>2021-10-31T09:49:36.472Z</time>
      </trkpt>
      <trkpt lat="44.01614" lon="2.57632">
        <ele>533</ele>
        <time>2021-10-31T09:49:37.472Z</time>
      </trkpt>
      <trkpt lat="44.01614" lon="2.57631">
        <ele>533</ele>
        <time>2021-10-31T09:49:38.472Z</time>
      </trkpt>
      <trkpt lat="44.01615" lon="2.5763">
        <ele>533</ele>
        <time>2021-10-31T09:49:39.472Z</time>
      </trkpt>
      <trkpt lat="44.01616" lon="2.57629">
        <ele>532</ele>
        <time>2021-10-31T09:49:40.472Z</time>
      </trkpt>
      <trkpt lat="44.01617" lon="2.57629">
        <ele>532</ele>
        <time>2021-10-31T09:49:41.472Z</time>
      </trkpt>
      <trkpt lat="44.01618" lon="2.57628">
        <ele>532</ele>
        <time>2021-10-31T09:49:42.472Z</time>
      </trkpt>
      <trkpt lat="44.01619" lon="2.57628">
        <ele>532</ele>
        <time>2021-10-31T09:49:43.472Z</time>
      </trkpt>
      <trkpt lat="44.0162" lon="2.57627">
        <ele>532</ele>
        <time>2021-10-31T09:49:44.472Z</time>
      </trkpt>
      <trkpt lat="44.01621" lon="2.57626">
        <ele>532</ele>
        <time>2021-10-31T09:49:45.472Z</time>
      </trkpt>
      <trkpt lat="44.01621" lon="2.57626">
        <ele>532</ele>
        <time>2021-10-31T09:49:46.472Z</time>
      </trkpt>
      <trkpt lat="44.01622" lon="2.57625">
        <ele>532</ele>
        <time>2021-10-31T09:49:47.472Z</time>
      </trkpt>
      <trkpt lat="44.01623" lon="2.57624">
        <ele>532</ele>
        <time>2021-10-31T09:50:15.475Z</time>
      </trkpt>
      <trkpt lat="44.01625" lon="2.57623">
        <ele>532</ele>
        <time>2021-10-31T09:50:16.475Z</time>
      </trkpt>
      <trkpt lat="44.01627" lon="2.57622">
        <ele>532</ele>
        <time>2021-10-31T09:50:17.475Z</time>
      </trkpt>
      <trkpt lat="44.01628" lon="2.57621">
        <ele>531</ele>
        <time>2021-10-31T09:50:18.475Z</time>
      </trkpt>
      <trkpt lat="44.01628" lon="2.57621">
        <ele>531</ele>
        <time>2021-10-31T09:50:19.475Z</time>
      </trkpt>
      <trkpt lat="44.01629" lon="2.5762">
        <ele>531</ele>
        <time>2021-10-31T09:50:20.475Z</time>
      </trkpt>
      <trkpt lat="44.0163" lon="2.57619">
        <ele>531</ele>
        <time>2021-10-31T09:50:21.475Z</time>
      </trkpt>
      <trkpt lat="44.01631" lon="2.57619">
        <ele>531</ele>
        <time>2021-10-31T09:50:22.475Z</time>
      </trkpt>
      <trkpt lat="44.01632" lon="2.57618">
        <ele>531</ele>
        <time>2021-10-31T09:50:23.475Z</time>
      </trkpt>
      <trkpt lat="44.01633" lon="2.57617">
        <ele>531</ele>
        <time>2021-10-31T09:50:24.475Z</time>
      </trkpt>
      <trkpt lat="44.01634" lon="2.57616">
        <ele>531</ele>
        <time>2021-10-31T09:50:25.475Z</time>
      </trkpt>
      <trkpt lat="44.01635" lon="2.57615">
        <ele>531</ele>
        <time>2021-10-31T09:50:26.475Z</time>
      </trkpt>
      <trkpt lat="44.01636" lon="2.57614">
        <ele>531</ele>
        <time>2021-10-31T09:50:27.475Z</time>
      </trkpt>
      <trkpt lat="44.01638" lon="2.57613">
        <ele>531</ele>
        <time>2021-10-31T09:50:28.475Z</time>
      </trkpt>
      <trkpt lat="44.01638" lon="2.57613">
        <ele>531</ele>
        <time>2021-10-31T09:50:29.475Z</time>
      </trkpt>
      <trkpt lat="44.01639" lon="2.57612">
        <ele>531</ele>
        <time>2021-10-31T09:50:30.475Z</time>
      </trkpt>
      <trkpt lat="44.01641" lon="2.57612">
        <ele>530</ele>
        <time>2021-10-31T09:50:31.475Z</time>
      </trkpt>
      <trkpt lat="44.01642" lon="2.57611">
        <ele>530</ele>
        <time>2021-10-31T09:50:32.475Z</time>
      </trkpt>
      <trkpt lat="44.01643" lon="2.5761">
        <ele>530</ele>
        <time>2021-10-31T09:50:33.475Z</time>
      </trkpt>
      <trkpt lat="44.01644" lon="2.57609">
        <ele>530</ele>
        <time>2021-10-31T09:50:34.475Z</time>
      </trkpt>
      <trkpt lat="44.01645" lon="2.57609">
        <ele>530</ele>
        <time>2021-10-31T09:50:35.475Z</time>
      </trkpt>
      <trkpt lat="44.01646" lon="2.57608">
        <ele>530</ele>
        <time>2021-10-31T09:50:36.475Z</time>
      </trkpt>
      <trkpt lat="44.01647" lon="2.57607">
        <ele>530</ele>
        <time>2021-10-31T09:50:37.475Z</time>
      </trkpt>
      <trkpt lat="44.01648" lon="2.57606">
        <ele>530</ele>
        <time>2021-10-31T09:50:38.475Z</time>
      </trkpt>
      <trkpt lat="44.01649" lon="2.57605">
        <ele>529</ele>
        <time>2021-10-31T09:50:39.475Z</time>
      </trkpt>
      <trkpt lat="44.0165" lon="2.57604">
        <ele>529</ele>
        <time>2021-10-31T09:50:40.475Z</time>
      </trkpt>
      <trkpt lat="44.0165" lon="2.57601">
        <ele>529</ele>
        <time>2021-10-31T09:50:41.475Z</time>
      </trkpt>
      <trkpt lat="44.01649" lon="2.576">
        <ele>529</ele>
        <time>2021-10-31T09:50:42.475Z</time>
      </trkpt>
      <trkpt lat="44.01648" lon="2.57599">
        <ele>529</ele>
        <time>2021-10-31T09:50:43.475Z</time>
      </trkpt>
      <trkpt lat="44.01647" lon="2.57599">
        <ele>529</ele>
        <time>2021-10-31T09:50:44.475Z</time>
      </trkpt>
      <trkpt lat="44.01646" lon="2.57598">
        <ele>528</ele>
        <time>2021-10-31T09:50:45.475Z</time>
      </trkpt>
      <trkpt lat="44.01646" lon="2.57598">
        <ele>528</ele>
        <time>2021-10-31T09:50:46.475Z</time>
      </trkpt>
      <trkpt lat="44.01645" lon="2.57598">
        <ele>528</ele>
        <time>2021-10-31T09:50:47.475Z</time>
      </trkpt>
      <trkpt lat="44.01644" lon="2.57599">
        <ele>528</ele>
        <time>2021-10-31T09:50:48.475Z</time>
      </trkpt>
      <trkpt lat="44.01642" lon="2.57599">
        <ele>528</ele>
        <time>2021-10-31T09:50:49.475Z</time>
      </trkpt>
      <trkpt lat="44.01641" lon="2.57599">
        <ele>527</ele>
        <time>2021-10-31T09:50:50.475Z</time>
      </trkpt>
      <trkpt lat="44.0164" lon="2.57599">
        <ele>527</ele>
        <time>2021-10-31T09:50:51.475Z</time>
      </trkpt>
      <trkpt lat="44.01637" lon="2.57599">
        <ele>527</ele>
        <time>2021-10-31T09:50:52.475Z</time>
      </trkpt>
      <trkpt lat="44.01636" lon="2.57599">
        <ele>526</ele>
        <time>2021-10-31T09:50:53.475Z</time>
      </trkpt>
      <trkpt lat="44.01635" lon="2.57598">
        <ele>526</ele>
        <time>2021-10-31T09:50:54.475Z</time>
      </trkpt>
      <trkpt lat="44.01634" lon="2.57598">
        <ele>526</ele>
        <time>2021-10-31T09:50:55.475Z</time>
      </trkpt>
      <trkpt lat="44.01632" lon="2.57598">
        <ele>526</ele>
        <time>2021-10-31T09:50:56.475Z</time>
      </trkpt>
      <trkpt lat="44.01631" lon="2.57598">
        <ele>525</ele>
        <time>2021-10-31T09:50:57.475Z</time>
      </trkpt>
      <trkpt lat="44.0163" lon="2.57597">
        <ele>525</ele>
        <time>2021-10-31T09:50:58.475Z</time>
      </trkpt>
      <trkpt lat="44.01629" lon="2.57597">
        <ele>525</ele>
        <time>2021-10-31T09:50:59.475Z</time>
      </trkpt>
      <trkpt lat="44.01627" lon="2.57597">
        <ele>525</ele>
        <time>2021-10-31T09:51:00.475Z</time>
      </trkpt>
      <trkpt lat="44.01627" lon="2.57597">
        <ele>525</ele>
        <time>2021-10-31T09:51:01.475Z</time>
      </trkpt>
      <trkpt lat="44.01626" lon="2.57596">
        <ele>524</ele>
        <time>2021-10-31T09:51:02.475Z</time>
      </trkpt>
      <trkpt lat="44.01625" lon="2.57596">
        <ele>524</ele>
        <time>2021-10-31T09:51:03.475Z</time>
      </trkpt>
      <trkpt lat="44.01624" lon="2.57596">
        <ele>524</ele>
        <time>2021-10-31T09:51:04.475Z</time>
      </trkpt>
      <trkpt lat="44.01623" lon="2.57596">
        <ele>524</ele>
        <time>2021-10-31T09:51:05.475Z</time>
      </trkpt>
      <trkpt lat="44.0162" lon="2.57595">
        <ele>524</ele>
        <time>2021-10-31T09:51:06.475Z</time>
      </trkpt>
      <trkpt lat="44.01619" lon="2.57595">
        <ele>524</ele>
        <time>2021-10-31T09:51:07.475Z</time>
      </trkpt>
      <trkpt lat="44.01618" lon="2.57594">
        <ele>523</ele>
        <time>2021-10-31T09:51:08.475Z</time>
      </trkpt>
      <trkpt lat="44.01617" lon="2.57594">
        <ele>523</ele>
        <time>2021-10-31T09:51:09.475Z</time>
      </trkpt>
      <trkpt lat="44.01616" lon="2.57593">
        <ele>523</ele>
        <time>2021-10-31T09:51:10.475Z</time>
      </trkpt>
      <trkpt lat="44.01614" lon="2.57593">
        <ele>523</ele>
        <time>2021-10-31T09:51:11.475Z</time>
      </trkpt>
      <trkpt lat="44.01613" lon="2.57593">
        <ele>523</ele>
        <time>2021-10-31T09:51:12.475Z</time>
      </trkpt>
      <trkpt lat="44.01613" lon="2.57593">
        <ele>523</ele>
        <time>2021-10-31T09:51:13.475Z</time>
      </trkpt>
      <trkpt lat="44.01612" lon="2.57593">
        <ele>523</ele>
        <time>2021-10-31T09:51:14.475Z</time>
      </trkpt>
      <trkpt lat="44.01611" lon="2.57593">
        <ele>522</ele>
        <time>2021-10-31T09:51:15.475Z</time>
      </trkpt>
      <trkpt lat="44.01609" lon="2.57593">
        <ele>522</ele>
        <time>2021-10-31T09:51:16.475Z</time>
      </trkpt>
      <trkpt lat="44.01608" lon="2.57592">
        <ele>522</ele>
        <time>2021-10-31T09:51:17.475Z</time>
      </trkpt>
      <trkpt lat="44.01607" lon="2.57592">
        <ele>522</ele>
        <time>2021-10-31T09:51:18.475Z</time>
      </trkpt>
      <trkpt lat="44.01606" lon="2.57592">
        <ele>522</ele>
        <time>2021-10-31T09:51:19.475Z</time>
      </trkpt>
      <trkpt lat="44.01603" lon="2.57591">
        <ele>522</ele>
        <time>2021-10-31T09:51:20.475Z</time>
      </trkpt>
      <trkpt lat="44.01602" lon="2.57591">
        <ele>522</ele>
        <time>2021-10-31T09:51:21.475Z</time>
      </trkpt>
      <trkpt lat="44.01601" lon="2.57591">
        <ele>522</ele>
        <time>2021-10-31T09:51:22.475Z</time>
      </trkpt>
      <trkpt lat="44.01601" lon="2.57591">
        <ele>522</ele>
        <time>2021-10-31T09:51:23.475Z</time>
      </trkpt>
      <trkpt lat="44.01599" lon="2.5759">
        <ele>522</ele>
        <time>2021-10-31T09:51:24.475Z</time>
      </trkpt>
      <trkpt lat="44.01599" lon="2.5759">
        <ele>522</ele>
        <time>2021-10-31T09:51:25.475Z</time>
      </trkpt>
      <trkpt lat="44.01597" lon="2.57589">
        <ele>522</ele>
        <time>2021-10-31T09:51:26.475Z</time>
      </trkpt>
      <trkpt lat="44.01597" lon="2.57589">
        <ele>522</ele>
        <time>2021-10-31T09:51:27.475Z</time>
      </trkpt>
      <trkpt lat="44.01594" lon="2.57588">
        <ele>522</ele>
        <time>2021-10-31T09:51:28.475Z</time>
      </trkpt>
      <trkpt lat="44.01594" lon="2.57588">
        <ele>522</ele>
        <time>2021-10-31T09:51:29.475Z</time>
      </trkpt>
      <trkpt lat="44.01593" lon="2.57588">
        <ele>522</ele>
        <time>2021-10-31T09:51:30.475Z</time>
      </trkpt>
      <trkpt lat="44.0159" lon="2.57587">
        <ele>521</ele>
        <time>2021-10-31T09:51:31.475Z</time>
      </trkpt>
      <trkpt lat="44.01588" lon="2.57587">
        <ele>521</ele>
        <time>2021-10-31T09:51:32.475Z</time>
      </trkpt>
      <trkpt lat="44.01587" lon="2.57586">
        <ele>521</ele>
        <time>2021-10-31T09:51:33.475Z</time>
      </trkpt>
      <trkpt lat="44.01585" lon="2.57586">
        <ele>521</ele>
        <time>2021-10-31T09:51:34.475Z</time>
      </trkpt>
      <trkpt lat="44.01584" lon="2.57586">
        <ele>521</ele>
        <time>2021-10-31T09:51:35.475Z</time>
      </trkpt>
      <trkpt lat="44.01584" lon="2.57586">
        <ele>521</ele>
        <time>2021-10-31T09:51:36.475Z</time>
      </trkpt>
      <trkpt lat="44.01583" lon="2.57585">
        <ele>521</ele>
        <time>2021-10-31T09:51:37.475Z</time>
      </trkpt>
      <trkpt lat="44.0158" lon="2.57584">
        <ele>521</ele>
        <time>2021-10-31T09:51:38.475Z</time>
      </trkpt>
      <trkpt lat="44.0158" lon="2.57584">
        <ele>521</ele>
        <time>2021-10-31T09:51:39.475Z</time>
      </trkpt>
      <trkpt lat="44.01577" lon="2.57583">
        <ele>521</ele>
        <time>2021-10-31T09:51:40.475Z</time>
      </trkpt>
      <trkpt lat="44.01577" lon="2.57583">
        <ele>521</ele>
        <time>2021-10-31T09:51:41.475Z</time>
      </trkpt>
      <trkpt lat="44.01574" lon="2.57582">
        <ele>521</ele>
        <time>2021-10-31T09:51:42.475Z</time>
      </trkpt>
      <trkpt lat="44.01573" lon="2.57581">
        <ele>521</ele>
        <time>2021-10-31T09:51:43.475Z</time>
      </trkpt>
      <trkpt lat="44.01573" lon="2.57581">
        <ele>521</ele>
        <time>2021-10-31T09:51:44.475Z</time>
      </trkpt>
      <trkpt lat="44.01572" lon="2.57581">
        <ele>521</ele>
        <time>2021-10-31T09:51:45.475Z</time>
      </trkpt>
      <trkpt lat="44.01571" lon="2.5758">
        <ele>521</ele>
        <time>2021-10-31T09:51:46.475Z</time>
      </trkpt>
      <trkpt lat="44.01571" lon="2.5758">
        <ele>521</ele>
        <time>2021-10-31T09:51:47.475Z</time>
      </trkpt>
      <trkpt lat="44.01569" lon="2.57579">
        <ele>521</ele>
        <time>2021-10-31T09:51:48.475Z</time>
      </trkpt>
      <trkpt lat="44.01568" lon="2.57578">
        <ele>521</ele>
        <time>2021-10-31T09:51:49.475Z</time>
      </trkpt>
      <trkpt lat="44.01568" lon="2.57578">
        <ele>521</ele>
        <time>2021-10-31T09:51:50.475Z</time>
      </trkpt>
      <trkpt lat="44.01566" lon="2.57577">
        <ele>521</ele>
        <time>2021-10-31T09:51:51.475Z</time>
      </trkpt>
      <trkpt lat="44.01566" lon="2.57577">
        <ele>521</ele>
        <time>2021-10-31T09:51:52.475Z</time>
      </trkpt>
      <trkpt lat="44.01564" lon="2.57576">
        <ele>521</ele>
        <time>2021-10-31T09:51:53.475Z</time>
      </trkpt>
      <trkpt lat="44.01564" lon="2.57576">
        <ele>521</ele>
        <time>2021-10-31T09:51:54.475Z</time>
      </trkpt>
      <trkpt lat="44.01563" lon="2.57575">
        <ele>521</ele>
        <time>2021-10-31T09:51:55.475Z</time>
      </trkpt>
      <trkpt lat="44.01562" lon="2.57575">
        <ele>521</ele>
        <time>2021-10-31T09:51:56.475Z</time>
      </trkpt>
      <trkpt lat="44.01561" lon="2.57574">
        <ele>521</ele>
        <time>2021-10-31T09:51:57.475Z</time>
      </trkpt>
      <trkpt lat="44.01559" lon="2.57574">
        <ele>521</ele>
        <time>2021-10-31T09:52:36.485Z</time>
      </trkpt>
      <trkpt lat="44.01559" lon="2.57574">
        <ele>521</ele>
        <time>2021-10-31T09:52:37.485Z</time>
      </trkpt>
      <trkpt lat="44.01556" lon="2.57573">
        <ele>521</ele>
        <time>2021-10-31T09:52:38.485Z</time>
      </trkpt>
      <trkpt lat="44.01556" lon="2.57573">
        <ele>521</ele>
        <time>2021-10-31T09:52:39.485Z</time>
      </trkpt>
      <trkpt lat="44.01555" lon="2.57572">
        <ele>521</ele>
        <time>2021-10-31T09:52:40.485Z</time>
      </trkpt>
      <trkpt lat="44.01554" lon="2.57572">
        <ele>521</ele>
        <time>2021-10-31T09:52:41.485Z</time>
      </trkpt>
      <trkpt lat="44.01553" lon="2.57571">
        <ele>521</ele>
        <time>2021-10-31T09:52:42.485Z</time>
      </trkpt>
      <trkpt lat="44.01552" lon="2.5757">
        <ele>521</ele>
        <time>2021-10-31T09:53:02.490Z</time>
      </trkpt>
      <trkpt lat="44.01551" lon="2.57569">
        <ele>521</ele>
        <time>2021-10-31T09:53:03.490Z</time>
      </trkpt>
      <trkpt lat="44.0155" lon="2.57568">
        <ele>521</ele>
        <time>2021-10-31T09:53:04.490Z</time>
      </trkpt>
      <trkpt lat="44.01549" lon="2.57568">
        <ele>521</ele>
        <time>2021-10-31T09:53:05.490Z</time>
      </trkpt>
      <trkpt lat="44.01548" lon="2.57567">
        <ele>520</ele>
        <time>2021-10-31T09:53:06.490Z</time>
      </trkpt>
      <trkpt lat="44.01547" lon="2.57566">
        <ele>520</ele>
        <time>2021-10-31T09:53:07.490Z</time>
      </trkpt>
      <trkpt lat="44.01546" lon="2.57565">
        <ele>520</ele>
        <time>2021-10-31T09:53:08.490Z</time>
      </trkpt>
      <trkpt lat="44.01545" lon="2.57564">
        <ele>520</ele>
        <time>2021-10-31T09:53:09.490Z</time>
      </trkpt>
      <trkpt lat="44.01544" lon="2.57564">
        <ele>520</ele>
        <time>2021-10-31T09:53:10.490Z</time>
      </trkpt>
      <trkpt lat="44.01543" lon="2.57563">
        <ele>520</ele>
        <time>2021-10-31T09:53:11.490Z</time>
      </trkpt>
      <trkpt lat="44.01542" lon="2.57562">
        <ele>520</ele>
        <time>2021-10-31T09:53:12.490Z</time>
      </trkpt>
      <trkpt lat="44.01541" lon="2.57561">
        <ele>520</ele>
        <time>2021-10-31T09:53:13.490Z</time>
      </trkpt>
      <trkpt lat="44.01541" lon="2.57561">
        <ele>520</ele>
        <time>2021-10-31T09:53:14.490Z</time>
      </trkpt>
      <trkpt lat="44.0154" lon="2.5756">
        <ele>520</ele>
        <time>2021-10-31T09:53:15.490Z</time>
      </trkpt>
      <trkpt lat="44.01539" lon="2.57559">
        <ele>520</ele>
        <time>2021-10-31T09:53:16.490Z</time>
      </trkpt>
      <trkpt lat="44.01538" lon="2.57558">
        <ele>520</ele>
        <time>2021-10-31T09:53:17.490Z</time>
      </trkpt>
      <trkpt lat="44.01538" lon="2.57557">
        <ele>520</ele>
        <time>2021-10-31T09:53:18.490Z</time>
      </trkpt>
      <trkpt lat="44.01537" lon="2.57556">
        <ele>520</ele>
        <time>2021-10-31T09:53:19.490Z</time>
      </trkpt>
      <trkpt lat="44.01536" lon="2.57556">
        <ele>520</ele>
        <time>2021-10-31T09:53:20.490Z</time>
      </trkpt>
      <trkpt lat="44.01535" lon="2.57554">
        <ele>520</ele>
        <time>2021-10-31T09:53:21.490Z</time>
      </trkpt>
      <trkpt lat="44.01535" lon="2.57553">
        <ele>520</ele>
        <time>2021-10-31T09:53:22.490Z</time>
      </trkpt>
      <trkpt lat="44.01534" lon="2.57552">
        <ele>520</ele>
        <time>2021-10-31T09:53:23.490Z</time>
      </trkpt>
      <trkpt lat="44.01534" lon="2.57551">
        <ele>520</ele>
        <time>2021-10-31T09:53:24.490Z</time>
      </trkpt>
      <trkpt lat="44.01533" lon="2.5755">
        <ele>520</ele>
        <time>2021-10-31T09:53:25.490Z</time>
      </trkpt>
      <trkpt lat="44.01533" lon="2.57548">
        <ele>520</ele>
        <time>2021-10-31T09:53:26.490Z</time>
      </trkpt>
      <trkpt lat="44.01533" lon="2.57547">
        <ele>520</ele>
        <time>2021-10-31T09:53:27.490Z</time>
      </trkpt>
      <trkpt lat="44.01532" lon="2.57546">
        <ele>520</ele>
        <time>2021-10-31T09:53:28.490Z</time>
      </trkpt>
      <trkpt lat="44.01532" lon="2.57545">
        <ele>520</ele>
        <time>2021-10-31T09:53:29.490Z</time>
      </trkpt>
      <trkpt lat="44.01531" lon="2.57543">
        <ele>520</ele>
        <time>2021-10-31T09:53:30.490Z</time>
      </trkpt>
      <trkpt lat="44.01531" lon="2.57542">
        <ele>520</ele>
        <time>2021-10-31T09:53:31.490Z</time>
      </trkpt>
      <trkpt lat="44.0153" lon="2.57541">
        <ele>520</ele>
        <time>2021-10-31T09:53:32.490Z</time>
      </trkpt>
      <trkpt lat="44.01529" lon="2.5754">
        <ele>520</ele>
        <time>2021-10-31T09:53:33.490Z</time>
      </trkpt>
      <trkpt lat="44.01528" lon="2.57539">
        <ele>520</ele>
        <time>2021-10-31T09:53:34.490Z</time>
      </trkpt>
      <trkpt lat="44.01527" lon="2.57537">
        <ele>519</ele>
        <time>2021-10-31T09:53:35.490Z</time>
      </trkpt>
      <trkpt lat="44.01526" lon="2.57536">
        <ele>519</ele>
        <time>2021-10-31T09:53:36.490Z</time>
      </trkpt>
      <trkpt lat="44.01525" lon="2.57535">
        <ele>519</ele>
        <time>2021-10-31T09:53:37.490Z</time>
      </trkpt>
      <trkpt lat="44.01525" lon="2.57534">
        <ele>519</ele>
        <time>2021-10-31T09:53:38.490Z</time>
      </trkpt>
      <trkpt lat="44.01524" lon="2.57532">
        <ele>519</ele>
        <time>2021-10-31T09:53:39.490Z</time>
      </trkpt>
      <trkpt lat="44.01523" lon="2.57531">
        <ele>519</ele>
        <time>2021-10-31T09:53:40.490Z</time>
      </trkpt>
      <trkpt lat="44.01523" lon="2.5753">
        <ele>519</ele>
        <time>2021-10-31T09:53:41.490Z</time>
      </trkpt>
      <trkpt lat="44.01522" lon="2.57528">
        <ele>519</ele>
        <time>2021-10-31T09:53:42.490Z</time>
      </trkpt>
      <trkpt lat="44.01521" lon="2.57527">
        <ele>519</ele>
        <time>2021-10-31T09:53:43.490Z</time>
      </trkpt>
      <trkpt lat="44.01521" lon="2.57525">
        <ele>518</ele>
        <time>2021-10-31T09:53:44.490Z</time>
      </trkpt>
      <trkpt lat="44.0152" lon="2.57523">
        <ele>518</ele>
        <time>2021-10-31T09:53:45.490Z</time>
      </trkpt>
      <trkpt lat="44.01519" lon="2.57522">
        <ele>518</ele>
        <time>2021-10-31T09:53:46.490Z</time>
      </trkpt>
      <trkpt lat="44.01519" lon="2.5752">
        <ele>518</ele>
        <time>2021-10-31T09:53:47.490Z</time>
      </trkpt>
      <trkpt lat="44.01518" lon="2.57519">
        <ele>518</ele>
        <time>2021-10-31T09:53:48.490Z</time>
      </trkpt>
      <trkpt lat="44.01517" lon="2.57517">
        <ele>518</ele>
        <time>2021-10-31T09:53:49.490Z</time>
      </trkpt>
      <trkpt lat="44.01517" lon="2.57516">
        <ele>518</ele>
        <time>2021-10-31T09:53:50.490Z</time>
      </trkpt>
      <trkpt lat="44.01516" lon="2.57515">
        <ele>518</ele>
        <time>2021-10-31T09:53:51.490Z</time>
      </trkpt>
      <trkpt lat="44.01516" lon="2.57514">
        <ele>518</ele>
        <time>2021-10-31T09:53:52.490Z</time>
      </trkpt>
      <trkpt lat="44.01515" lon="2.57513">
        <ele>518</ele>
        <time>2021-10-31T09:53:53.490Z</time>
      </trkpt>
      <trkpt lat="44.01514" lon="2.57511">
        <ele>517</ele>
        <time>2021-10-31T09:53:54.490Z</time>
      </trkpt>
      <trkpt lat="44.01514" lon="2.5751">
        <ele>517</ele>
        <time>2021-10-31T09:53:55.490Z</time>
      </trkpt>
      <trkpt lat="44.01513" lon="2.57509">
        <ele>517</ele>
        <time>2021-10-31T09:53:56.490Z</time>
      </trkpt>
      <trkpt lat="44.01513" lon="2.57507">
        <ele>517</ele>
        <time>2021-10-31T09:53:57.490Z</time>
      </trkpt>
      <trkpt lat="44.01512" lon="2.57506">
        <ele>517</ele>
        <time>2021-10-31T09:53:58.490Z</time>
      </trkpt>
      <trkpt lat="44.01512" lon="2.57505">
        <ele>517</ele>
        <time>2021-10-31T09:53:59.490Z</time>
      </trkpt>
      <trkpt lat="44.01511" lon="2.57503">
        <ele>517</ele>
        <time>2021-10-31T09:54:00.490Z</time>
      </trkpt>
      <trkpt lat="44.0151" lon="2.57502">
        <ele>517</ele>
        <time>2021-10-31T09:54:01.490Z</time>
      </trkpt>
      <trkpt lat="44.0151" lon="2.57501">
        <ele>517</ele>
        <time>2021-10-31T09:54:02.490Z</time>
      </trkpt>
      <trkpt lat="44.0151" lon="2.57499">
        <ele>516</ele>
        <time>2021-10-31T09:54:03.490Z</time>
      </trkpt>
      <trkpt lat="44.01509" lon="2.57498">
        <ele>516</ele>
        <time>2021-10-31T09:54:04.490Z</time>
      </trkpt>
      <trkpt lat="44.01508" lon="2.57496">
        <ele>516</ele>
        <time>2021-10-31T09:54:05.490Z</time>
      </trkpt>
      <trkpt lat="44.01508" lon="2.57495">
        <ele>516</ele>
        <time>2021-10-31T09:54:06.490Z</time>
      </trkpt>
      <trkpt lat="44.01508" lon="2.57494">
        <ele>516</ele>
        <time>2021-10-31T09:54:07.490Z</time>
      </trkpt>
      <trkpt lat="44.01507" lon="2.57492">
        <ele>516</ele>
        <time>2021-10-31T09:54:08.490Z</time>
      </trkpt>
      <trkpt lat="44.01506" lon="2.57491">
        <ele>516</ele>
        <time>2021-10-31T09:54:09.490Z</time>
      </trkpt>
      <trkpt lat="44.01506" lon="2.5749">
        <ele>516</ele>
        <time>2021-10-31T09:54:10.490Z</time>
      </trkpt>
      <trkpt lat="44.01505" lon="2.57488">
        <ele>516</ele>
        <time>2021-10-31T09:54:11.490Z</time>
      </trkpt>
      <trkpt lat="44.01504" lon="2.57487">
        <ele>516</ele>
        <time>2021-10-31T09:54:12.490Z</time>
      </trkpt>
      <trkpt lat="44.01503" lon="2.57485">
        <ele>516</ele>
        <time>2021-10-31T09:54:13.490Z</time>
      </trkpt>
      <trkpt lat="44.01503" lon="2.57484">
        <ele>515</ele>
        <time>2021-10-31T09:54:14.490Z</time>
      </trkpt>
      <trkpt lat="44.01502" lon="2.57483">
        <ele>515</ele>
        <time>2021-10-31T09:54:15.490Z</time>
      </trkpt>
      <trkpt lat="44.01501" lon="2.57482">
        <ele>515</ele>
        <time>2021-10-31T09:54:16.490Z</time>
      </trkpt>
      <trkpt lat="44.015" lon="2.5748">
        <ele>515</ele>
        <time>2021-10-31T09:54:17.490Z</time>
      </trkpt>
      <trkpt lat="44.01499" lon="2.57479">
        <ele>515</ele>
        <time>2021-10-31T09:54:18.490Z</time>
      </trkpt>
      <trkpt lat="44.01499" lon="2.57478">
        <ele>515</ele>
        <time>2021-10-31T09:54:19.490Z</time>
      </trkpt>
      <trkpt lat="44.01498" lon="2.57477">
        <ele>514</ele>
        <time>2021-10-31T09:54:20.490Z</time>
      </trkpt>
      <trkpt lat="44.01497" lon="2.57476">
        <ele>514</ele>
        <time>2021-10-31T09:54:21.490Z</time>
      </trkpt>
      <trkpt lat="44.01496" lon="2.57475">
        <ele>514</ele>
        <time>2021-10-31T09:54:22.490Z</time>
      </trkpt>
      <trkpt lat="44.01495" lon="2.57474">
        <ele>514</ele>
        <time>2021-10-31T09:54:23.490Z</time>
      </trkpt>
      <trkpt lat="44.01494" lon="2.57473">
        <ele>514</ele>
        <time>2021-10-31T09:54:24.490Z</time>
      </trkpt>
      <trkpt lat="44.01493" lon="2.57471">
        <ele>514</ele>
        <time>2021-10-31T09:54:25.490Z</time>
      </trkpt>
      <trkpt lat="44.01493" lon="2.5747">
        <ele>514</ele>
        <time>2021-10-31T09:54:26.490Z</time>
      </trkpt>
      <trkpt lat="44.01492" lon="2.57469">
        <ele>514</ele>
        <time>2021-10-31T09:54:27.490Z</time>
      </trkpt>
      <trkpt lat="44.01491" lon="2.57468">
        <ele>513</ele>
        <time>2021-10-31T09:54:28.490Z</time>
      </trkpt>
      <trkpt lat="44.0149" lon="2.57467">
        <ele>513</ele>
        <time>2021-10-31T09:54:29.490Z</time>
      </trkpt>
      <trkpt lat="44.0149" lon="2.57465">
        <ele>513</ele>
        <time>2021-10-31T09:54:30.490Z</time>
      </trkpt>
      <trkpt lat="44.01488" lon="2.57464">
        <ele>513</ele>
        <time>2021-10-31T09:54:31.490Z</time>
      </trkpt>
      <trkpt lat="44.01487" lon="2.57463">
        <ele>513</ele>
        <time>2021-10-31T09:54:32.490Z</time>
      </trkpt>
      <trkpt lat="44.01487" lon="2.57462">
        <ele>513</ele>
        <time>2021-10-31T09:54:33.490Z</time>
      </trkpt>
      <trkpt lat="44.01486" lon="2.57461">
        <ele>513</ele>
        <time>2021-10-31T09:54:34.490Z</time>
      </trkpt>
      <trkpt lat="44.01485" lon="2.57459">
        <ele>513</ele>
        <time>2021-10-31T09:54:35.490Z</time>
      </trkpt>
      <trkpt lat="44.01484" lon="2.57458">
        <ele>513</ele>
        <time>2021-10-31T09:54:36.490Z</time>
      </trkpt>
      <trkpt lat="44.01483" lon="2.57457">
        <ele>513</ele>
        <time>2021-10-31T09:54:37.490Z</time>
      </trkpt>
      <trkpt lat="44.01483" lon="2.57456">
        <ele>512</ele>
        <time>2021-10-31T09:54:38.490Z</time>
      </trkpt>
      <trkpt lat="44.01482" lon="2.57455">
        <ele>512</ele>
        <time>2021-10-31T09:54:39.490Z</time>
      </trkpt>
      <trkpt lat="44.01481" lon="2.57453">
        <ele>512</ele>
        <time>2021-10-31T09:54:40.490Z</time>
      </trkpt>
      <trkpt lat="44.0148" lon="2.57452">
        <ele>512</ele>
        <time>2021-10-31T09:54:41.490Z</time>
      </trkpt>
      <trkpt lat="44.01479" lon="2.57451">
        <ele>512</ele>
        <time>2021-10-31T09:54:42.490Z</time>
      </trkpt>
      <trkpt lat="44.01478" lon="2.57449">
        <ele>512</ele>
        <time>2021-10-31T09:54:43.490Z</time>
      </trkpt>
      <trkpt lat="44.01478" lon="2.57448">
        <ele>511</ele>
        <time>2021-10-31T09:54:44.490Z</time>
      </trkpt>
      <trkpt lat="44.01477" lon="2.57447">
        <ele>511</ele>
        <time>2021-10-31T09:54:45.490Z</time>
      </trkpt>
      <trkpt lat="44.01476" lon="2.57446">
        <ele>511</ele>
        <time>2021-10-31T09:54:46.490Z</time>
      </trkpt>
      <trkpt lat="44.01475" lon="2.57444">
        <ele>511</ele>
        <time>2021-10-31T09:54:47.490Z</time>
      </trkpt>
      <trkpt lat="44.01474" lon="2.57443">
        <ele>511</ele>
        <time>2021-10-31T09:54:48.490Z</time>
      </trkpt>
      <trkpt lat="44.01474" lon="2.57442">
        <ele>511</ele>
        <time>2021-10-31T09:54:49.490Z</time>
      </trkpt>
      <trkpt lat="44.01473" lon="2.57441">
        <ele>511</ele>
        <time>2021-10-31T09:54:50.490Z</time>
      </trkpt>
      <trkpt lat="44.01472" lon="2.57439">
        <ele>510</ele>
        <time>2021-10-31T09:54:51.490Z</time>
      </trkpt>
      <trkpt lat="44.01472" lon="2.57438">
        <ele>510</ele>
        <time>2021-10-31T09:54:52.490Z</time>
      </trkpt>
      <trkpt lat="44.01471" lon="2.57437">
        <ele>510</ele>
        <time>2021-10-31T09:54:53.490Z</time>
      </trkpt>
      <trkpt lat="44.0147" lon="2.57436">
        <ele>510</ele>
        <time>2021-10-31T09:54:54.490Z</time>
      </trkpt>
      <trkpt lat="44.0147" lon="2.57435">
        <ele>510</ele>
        <time>2021-10-31T09:54:55.490Z</time>
      </trkpt>
      <trkpt lat="44.01469" lon="2.57434">
        <ele>510</ele>
        <time>2021-10-31T09:54:56.490Z</time>
      </trkpt>
      <trkpt lat="44.01468" lon="2.57433">
        <ele>510</ele>
        <time>2021-10-31T09:54:57.490Z</time>
      </trkpt>
      <trkpt lat="44.01468" lon="2.57432">
        <ele>510</ele>
        <time>2021-10-31T09:54:58.490Z</time>
      </trkpt>
      <trkpt lat="44.01467" lon="2.57431">
        <ele>510</ele>
        <time>2021-10-31T09:54:59.490Z</time>
      </trkpt>
      <trkpt lat="44.01466" lon="2.57429">
        <ele>510</ele>
        <time>2021-10-31T09:55:00.490Z</time>
      </trkpt>
      <trkpt lat="44.01465" lon="2.57428">
        <ele>510</ele>
        <time>2021-10-31T09:55:01.490Z</time>
      </trkpt>
      <trkpt lat="44.01465" lon="2.57427">
        <ele>510</ele>
        <time>2021-10-31T09:55:02.490Z</time>
      </trkpt>
      <trkpt lat="44.01464" lon="2.57425">
        <ele>509</ele>
        <time>2021-10-31T09:55:03.490Z</time>
      </trkpt>
      <trkpt lat="44.01463" lon="2.57424">
        <ele>509</ele>
        <time>2021-10-31T09:55:04.490Z</time>
      </trkpt>
      <trkpt lat="44.01462" lon="2.57422">
        <ele>509</ele>
        <time>2021-10-31T09:55:05.490Z</time>
      </trkpt>
      <trkpt lat="44.01461" lon="2.57421">
        <ele>509</ele>
        <time>2021-10-31T09:55:06.490Z</time>
      </trkpt>
      <trkpt lat="44.01461" lon="2.5742">
        <ele>509</ele>
        <time>2021-10-31T09:55:07.490Z</time>
      </trkpt>
      <trkpt lat="44.0146" lon="2.57418">
        <ele>509</ele>
        <time>2021-10-31T09:55:08.490Z</time>
      </trkpt>
      <trkpt lat="44.01459" lon="2.57417">
        <ele>509</ele>
        <time>2021-10-31T09:55:09.490Z</time>
      </trkpt>
      <trkpt lat="44.01458" lon="2.57416">
        <ele>509</ele>
        <time>2021-10-31T09:55:10.490Z</time>
      </trkpt>
      <trkpt lat="44.01458" lon="2.57415">
        <ele>509</ele>
        <time>2021-10-31T09:55:11.490Z</time>
      </trkpt>
      <trkpt lat="44.01457" lon="2.57414">
        <ele>509</ele>
        <time>2021-10-31T09:55:12.490Z</time>
      </trkpt>
      <trkpt lat="44.01456" lon="2.57412">
        <ele>509</ele>
        <time>2021-10-31T09:55:13.490Z</time>
      </trkpt>
      <trkpt lat="44.01456" lon="2.57411">
        <ele>509</ele>
        <time>2021-10-31T09:55:14.490Z</time>
      </trkpt>
      <trkpt lat="44.01455" lon="2.5741">
        <ele>509</ele>
        <time>2021-10-31T09:55:15.490Z</time>
      </trkpt>
      <trkpt lat="44.01455" lon="2.57409">
        <ele>509</ele>
        <time>2021-10-31T09:55:16.490Z</time>
      </trkpt>
      <trkpt lat="44.01454" lon="2.57408">
        <ele>509</ele>
        <time>2021-10-31T09:55:17.490Z</time>
      </trkpt>
      <trkpt lat="44.01454" lon="2.57407">
        <ele>508</ele>
        <time>2021-10-31T09:55:18.490Z</time>
      </trkpt>
      <trkpt lat="44.01453" lon="2.57406">
        <ele>508</ele>
        <time>2021-10-31T09:55:19.490Z</time>
      </trkpt>
      <trkpt lat="44.01452" lon="2.57404">
        <ele>508</ele>
        <time>2021-10-31T09:55:20.490Z</time>
      </trkpt>
      <trkpt lat="44.01452" lon="2.57403">
        <ele>508</ele>
        <time>2021-10-31T09:55:21.490Z</time>
      </trkpt>
      <trkpt lat="44.01451" lon="2.57402">
        <ele>508</ele>
        <time>2021-10-31T09:55:22.490Z</time>
      </trkpt>
      <trkpt lat="44.0145" lon="2.57401">
        <ele>508</ele>
        <time>2021-10-31T09:55:23.490Z</time>
      </trkpt>
      <trkpt lat="44.0145" lon="2.574">
        <ele>507</ele>
        <time>2021-10-31T09:55:24.490Z</time>
      </trkpt>
      <trkpt lat="44.01449" lon="2.57398">
        <ele>507</ele>
        <time>2021-10-31T09:55:25.490Z</time>
      </trkpt>
      <trkpt lat="44.01449" lon="2.57397">
        <ele>507</ele>
        <time>2021-10-31T09:55:26.490Z</time>
      </trkpt>
      <trkpt lat="44.01448" lon="2.57395">
        <ele>507</ele>
        <time>2021-10-31T09:55:27.490Z</time>
      </trkpt>
      <trkpt lat="44.01447" lon="2.57394">
        <ele>507</ele>
        <time>2021-10-31T09:55:28.490Z</time>
      </trkpt>
      <trkpt lat="44.01447" lon="2.57392">
        <ele>506</ele>
        <time>2021-10-31T09:55:29.490Z</time>
      </trkpt>
      <trkpt lat="44.01446" lon="2.57391">
        <ele>506</ele>
        <time>2021-10-31T09:55:30.490Z</time>
      </trkpt>
      <trkpt lat="44.01446" lon="2.5739">
        <ele>506</ele>
        <time>2021-10-31T09:55:31.490Z</time>
      </trkpt>
      <trkpt lat="44.01445" lon="2.57389">
        <ele>506</ele>
        <time>2021-10-31T09:55:32.490Z</time>
      </trkpt>
      <trkpt lat="44.01445" lon="2.57388">
        <ele>506</ele>
        <time>2021-10-31T09:55:33.490Z</time>
      </trkpt>
      <trkpt lat="44.01444" lon="2.57387">
        <ele>506</ele>
        <time>2021-10-31T09:55:34.490Z</time>
      </trkpt>
      <trkpt lat="44.01443" lon="2.57386">
        <ele>506</ele>
        <time>2021-10-31T09:55:35.490Z</time>
      </trkpt>
      <trkpt lat="44.01442" lon="2.57385">
        <ele>506</ele>
        <time>2021-10-31T09:55:36.490Z</time>
      </trkpt>
      <trkpt lat="44.01442" lon="2.57383">
        <ele>505</ele>
        <time>2021-10-31T09:55:37.490Z</time>
      </trkpt>
      <trkpt lat="44.01441" lon="2.57382">
        <ele>505</ele>
        <time>2021-10-31T09:55:38.490Z</time>
      </trkpt>
      <trkpt lat="44.01441" lon="2.57381">
        <ele>505</ele>
        <time>2021-10-31T09:55:39.490Z</time>
      </trkpt>
      <trkpt lat="44.0144" lon="2.5738">
        <ele>505</ele>
        <time>2021-10-31T09:55:40.490Z</time>
      </trkpt>
      <trkpt lat="44.01439" lon="2.57379">
        <ele>505</ele>
        <time>2021-10-31T09:55:41.490Z</time>
      </trkpt>
      <trkpt lat="44.01439" lon="2.57378">
        <ele>505</ele>
        <time>2021-10-31T09:55:42.490Z</time>
      </trkpt>
      <trkpt lat="44.01438" lon="2.57378">
        <ele>505</ele>
        <time>2021-10-31T09:55:43.490Z</time>
      </trkpt>
      <trkpt lat="44.01437" lon="2.57377">
        <ele>505</ele>
        <time>2021-10-31T09:55:44.490Z</time>
      </trkpt>
      <trkpt lat="44.01437" lon="2.57376">
        <ele>504</ele>
        <time>2021-10-31T09:55:45.490Z</time>
      </trkpt>
      <trkpt lat="44.01436" lon="2.57375">
        <ele>504</ele>
        <time>2021-10-31T09:55:46.490Z</time>
      </trkpt>
      <trkpt lat="44.01436" lon="2.57374">
        <ele>504</ele>
        <time>2021-10-31T09:55:47.490Z</time>
      </trkpt>
      <trkpt lat="44.01435" lon="2.57373">
        <ele>504</ele>
        <time>2021-10-31T09:55:48.490Z</time>
      </trkpt>
      <trkpt lat="44.01435" lon="2.57372">
        <ele>504</ele>
        <time>2021-10-31T09:55:49.490Z</time>
      </trkpt>
      <trkpt lat="44.01434" lon="2.57371">
        <ele>504</ele>
        <time>2021-10-31T09:55:50.490Z</time>
      </trkpt>
      <trkpt lat="44.01433" lon="2.57371">
        <ele>504</ele>
        <time>2021-10-31T09:55:51.490Z</time>
      </trkpt>
      <trkpt lat="44.01432" lon="2.5737">
        <ele>504</ele>
        <time>2021-10-31T09:55:52.490Z</time>
      </trkpt>
      <trkpt lat="44.01431" lon="2.57369">
        <ele>504</ele>
        <time>2021-10-31T09:55:53.490Z</time>
      </trkpt>
      <trkpt lat="44.0143" lon="2.57368">
        <ele>504</ele>
        <time>2021-10-31T09:55:54.490Z</time>
      </trkpt>
      <trkpt lat="44.01429" lon="2.57367">
        <ele>504</ele>
        <time>2021-10-31T09:55:55.490Z</time>
      </trkpt>
      <trkpt lat="44.01428" lon="2.57367">
        <ele>504</ele>
        <time>2021-10-31T09:55:56.490Z</time>
      </trkpt>
      <trkpt lat="44.01428" lon="2.57366">
        <ele>504</ele>
        <time>2021-10-31T09:55:57.490Z</time>
      </trkpt>
      <trkpt lat="44.01427" lon="2.57365">
        <ele>504</ele>
        <time>2021-10-31T09:55:58.490Z</time>
      </trkpt>
      <trkpt lat="44.01426" lon="2.57365">
        <ele>504</ele>
        <time>2021-10-31T09:55:59.490Z</time>
      </trkpt>
      <trkpt lat="44.01425" lon="2.57364">
        <ele>504</ele>
        <time>2021-10-31T09:56:00.490Z</time>
      </trkpt>
      <trkpt lat="44.01424" lon="2.57363">
        <ele>504</ele>
        <time>2021-10-31T09:56:01.490Z</time>
      </trkpt>
      <trkpt lat="44.01424" lon="2.57363">
        <ele>503</ele>
        <time>2021-10-31T09:56:02.490Z</time>
      </trkpt>
      <trkpt lat="44.01423" lon="2.57362">
        <ele>503</ele>
        <time>2021-10-31T09:56:03.490Z</time>
      </trkpt>
      <trkpt lat="44.01422" lon="2.57362">
        <ele>503</ele>
        <time>2021-10-31T09:56:04.490Z</time>
      </trkpt>
      <trkpt lat="44.01421" lon="2.57361">
        <ele>503</ele>
        <time>2021-10-31T09:56:05.490Z</time>
      </trkpt>
      <trkpt lat="44.0142" lon="2.57361">
        <ele>503</ele>
        <time>2021-10-31T09:56:06.490Z</time>
      </trkpt>
      <trkpt lat="44.0142" lon="2.5736">
        <ele>503</ele>
        <time>2021-10-31T09:56:07.490Z</time>
      </trkpt>
      <trkpt lat="44.01419" lon="2.5736">
        <ele>503</ele>
        <time>2021-10-31T09:56:08.490Z</time>
      </trkpt>
      <trkpt lat="44.01419" lon="2.5736">
        <ele>502</ele>
        <time>2021-10-31T09:56:09.490Z</time>
      </trkpt>
      <trkpt lat="44.01418" lon="2.5736">
        <ele>502</ele>
        <time>2021-10-31T09:56:10.490Z</time>
      </trkpt>
      <trkpt lat="44.01417" lon="2.57359">
        <ele>502</ele>
        <time>2021-10-31T09:56:11.490Z</time>
      </trkpt>
      <trkpt lat="44.01416" lon="2.57359">
        <ele>502</ele>
        <time>2021-10-31T09:56:12.490Z</time>
      </trkpt>
      <trkpt lat="44.01415" lon="2.57358">
        <ele>502</ele>
        <time>2021-10-31T09:56:13.490Z</time>
      </trkpt>
      <trkpt lat="44.01414" lon="2.57358">
        <ele>502</ele>
        <time>2021-10-31T09:56:14.490Z</time>
      </trkpt>
      <trkpt lat="44.01413" lon="2.57358">
        <ele>502</ele>
        <time>2021-10-31T09:56:15.490Z</time>
      </trkpt>
      <trkpt lat="44.01412" lon="2.57357">
        <ele>501</ele>
        <time>2021-10-31T09:56:16.490Z</time>
      </trkpt>
      <trkpt lat="44.01411" lon="2.57356">
        <ele>501</ele>
        <time>2021-10-31T09:56:17.490Z</time>
      </trkpt>
      <trkpt lat="44.0141" lon="2.57356">
        <ele>501</ele>
        <time>2021-10-31T09:56:18.490Z</time>
      </trkpt>
      <trkpt lat="44.01409" lon="2.57355">
        <ele>500</ele>
        <time>2021-10-31T09:56:19.490Z</time>
      </trkpt>
      <trkpt lat="44.01408" lon="2.57355">
        <ele>500</ele>
        <time>2021-10-31T09:56:20.490Z</time>
      </trkpt>
      <trkpt lat="44.01407" lon="2.57354">
        <ele>500</ele>
        <time>2021-10-31T09:56:21.490Z</time>
      </trkpt>
      <trkpt lat="44.01406" lon="2.57354">
        <ele>500</ele>
        <time>2021-10-31T09:56:22.490Z</time>
      </trkpt>
      <trkpt lat="44.01405" lon="2.57353">
        <ele>499</ele>
        <time>2021-10-31T09:56:23.490Z</time>
      </trkpt>
      <trkpt lat="44.01404" lon="2.57353">
        <ele>499</ele>
        <time>2021-10-31T09:56:24.490Z</time>
      </trkpt>
      <trkpt lat="44.01403" lon="2.57353">
        <ele>499</ele>
        <time>2021-10-31T09:56:25.490Z</time>
      </trkpt>
      <trkpt lat="44.01402" lon="2.57352">
        <ele>499</ele>
        <time>2021-10-31T09:56:26.490Z</time>
      </trkpt>
      <trkpt lat="44.01401" lon="2.57352">
        <ele>498</ele>
        <time>2021-10-31T09:56:27.490Z</time>
      </trkpt>
      <trkpt lat="44.014" lon="2.57351">
        <ele>498</ele>
        <time>2021-10-31T09:56:28.490Z</time>
      </trkpt>
      <trkpt lat="44.01399" lon="2.57351">
        <ele>498</ele>
        <time>2021-10-31T09:56:29.490Z</time>
      </trkpt>
      <trkpt lat="44.01398" lon="2.5735">
        <ele>497</ele>
        <time>2021-10-31T09:56:30.490Z</time>
      </trkpt>
      <trkpt lat="44.01397" lon="2.5735">
        <ele>497</ele>
        <time>2021-10-31T09:56:31.490Z</time>
      </trkpt>
      <trkpt lat="44.01396" lon="2.5735">
        <ele>497</ele>
        <time>2021-10-31T09:56:32.490Z</time>
      </trkpt>
      <trkpt lat="44.01395" lon="2.57349">
        <ele>497</ele>
        <time>2021-10-31T09:56:33.490Z</time>
      </trkpt>
      <trkpt lat="44.01394" lon="2.57348">
        <ele>496</ele>
        <time>2021-10-31T09:56:34.490Z</time>
      </trkpt>
      <trkpt lat="44.01393" lon="2.57348">
        <ele>496</ele>
        <time>2021-10-31T09:56:35.490Z</time>
      </trkpt>
      <trkpt lat="44.01392" lon="2.57348">
        <ele>496</ele>
        <time>2021-10-31T09:56:36.490Z</time>
      </trkpt>
      <trkpt lat="44.01391" lon="2.57348">
        <ele>496</ele>
        <time>2021-10-31T09:56:37.490Z</time>
      </trkpt>
      <trkpt lat="44.0139" lon="2.57348">
        <ele>495</ele>
        <time>2021-10-31T09:56:38.490Z</time>
      </trkpt>
      <trkpt lat="44.01389" lon="2.57348">
        <ele>495</ele>
        <time>2021-10-31T09:56:39.490Z</time>
      </trkpt>
      <trkpt lat="44.01388" lon="2.57347">
        <ele>495</ele>
        <time>2021-10-31T09:56:40.490Z</time>
      </trkpt>
      <trkpt lat="44.01387" lon="2.57347">
        <ele>495</ele>
        <time>2021-10-31T09:56:41.490Z</time>
      </trkpt>
      <trkpt lat="44.01386" lon="2.57347">
        <ele>494</ele>
        <time>2021-10-31T09:56:42.490Z</time>
      </trkpt>
      <trkpt lat="44.01385" lon="2.57347">
        <ele>494</ele>
        <time>2021-10-31T09:56:43.490Z</time>
      </trkpt>
      <trkpt lat="44.01384" lon="2.57347">
        <ele>494</ele>
        <time>2021-10-31T09:56:44.490Z</time>
      </trkpt>
      <trkpt lat="44.01382" lon="2.57347">
        <ele>494</ele>
        <time>2021-10-31T09:56:45.490Z</time>
      </trkpt>
      <trkpt lat="44.01381" lon="2.57347">
        <ele>494</ele>
        <time>2021-10-31T09:56:46.490Z</time>
      </trkpt>
      <trkpt lat="44.0138" lon="2.57346">
        <ele>493</ele>
        <time>2021-10-31T09:56:47.490Z</time>
      </trkpt>
      <trkpt lat="44.01379" lon="2.57346">
        <ele>493</ele>
        <time>2021-10-31T09:56:48.490Z</time>
      </trkpt>
      <trkpt lat="44.01378" lon="2.57346">
        <ele>493</ele>
        <time>2021-10-31T09:56:49.490Z</time>
      </trkpt>
      <trkpt lat="44.01377" lon="2.57346">
        <ele>493</ele>
        <time>2021-10-31T09:56:50.490Z</time>
      </trkpt>
      <trkpt lat="44.01376" lon="2.57346">
        <ele>493</ele>
        <time>2021-10-31T09:56:51.490Z</time>
      </trkpt>
      <trkpt lat="44.01375" lon="2.57346">
        <ele>492</ele>
        <time>2021-10-31T09:56:52.490Z</time>
      </trkpt>
      <trkpt lat="44.01374" lon="2.57345">
        <ele>492</ele>
        <time>2021-10-31T09:56:53.490Z</time>
      </trkpt>
      <trkpt lat="44.01373" lon="2.57345">
        <ele>492</ele>
        <time>2021-10-31T09:56:54.490Z</time>
      </trkpt>
      <trkpt lat="44.01371" lon="2.57344">
        <ele>492</ele>
        <time>2021-10-31T09:56:55.490Z</time>
      </trkpt>
      <trkpt lat="44.0137" lon="2.57344">
        <ele>492</ele>
        <time>2021-10-31T09:56:56.490Z</time>
      </trkpt>
      <trkpt lat="44.01369" lon="2.57343">
        <ele>491</ele>
        <time>2021-10-31T09:56:57.490Z</time>
      </trkpt>
      <trkpt lat="44.01368" lon="2.57343">
        <ele>491</ele>
        <time>2021-10-31T09:56:58.490Z</time>
      </trkpt>
      <trkpt lat="44.01366" lon="2.57342">
        <ele>491</ele>
        <time>2021-10-31T09:56:59.490Z</time>
      </trkpt>
      <trkpt lat="44.01365" lon="2.57341">
        <ele>491</ele>
        <time>2021-10-31T09:57:00.490Z</time>
      </trkpt>
      <trkpt lat="44.01364" lon="2.5734">
        <ele>491</ele>
        <time>2021-10-31T09:57:01.490Z</time>
      </trkpt>
      <trkpt lat="44.01363" lon="2.57339">
        <ele>491</ele>
        <time>2021-10-31T09:57:02.490Z</time>
      </trkpt>
      <trkpt lat="44.01362" lon="2.57338">
        <ele>490</ele>
        <time>2021-10-31T09:57:03.490Z</time>
      </trkpt>
      <trkpt lat="44.01361" lon="2.57338">
        <ele>490</ele>
        <time>2021-10-31T09:57:04.490Z</time>
      </trkpt>
      <trkpt lat="44.0136" lon="2.57337">
        <ele>490</ele>
        <time>2021-10-31T09:57:05.490Z</time>
      </trkpt>
      <trkpt lat="44.01359" lon="2.57336">
        <ele>490</ele>
        <time>2021-10-31T09:57:06.490Z</time>
      </trkpt>
      <trkpt lat="44.01358" lon="2.57336">
        <ele>490</ele>
        <time>2021-10-31T09:57:07.490Z</time>
      </trkpt>
      <trkpt lat="44.01357" lon="2.57336">
        <ele>490</ele>
        <time>2021-10-31T09:57:08.490Z</time>
      </trkpt>
      <trkpt lat="44.01356" lon="2.57336">
        <ele>490</ele>
        <time>2021-10-31T09:57:09.490Z</time>
      </trkpt>
      <trkpt lat="44.01354" lon="2.57335">
        <ele>489</ele>
        <time>2021-10-31T09:57:10.490Z</time>
      </trkpt>
      <trkpt lat="44.01353" lon="2.57335">
        <ele>489</ele>
        <time>2021-10-31T09:57:11.490Z</time>
      </trkpt>
      <trkpt lat="44.01352" lon="2.57334">
        <ele>489</ele>
        <time>2021-10-31T09:57:12.490Z</time>
      </trkpt>
      <trkpt lat="44.01351" lon="2.57334">
        <ele>489</ele>
        <time>2021-10-31T09:57:13.490Z</time>
      </trkpt>
      <trkpt lat="44.0135" lon="2.57334">
        <ele>489</ele>
        <time>2021-10-31T09:57:14.490Z</time>
      </trkpt>
      <trkpt lat="44.01348" lon="2.57333">
        <ele>489</ele>
        <time>2021-10-31T09:57:15.490Z</time>
      </trkpt>
      <trkpt lat="44.01347" lon="2.57333">
        <ele>489</ele>
        <time>2021-10-31T09:57:16.490Z</time>
      </trkpt>
      <trkpt lat="44.01346" lon="2.57333">
        <ele>489</ele>
        <time>2021-10-31T09:57:17.490Z</time>
      </trkpt>
      <trkpt lat="44.01344" lon="2.57333">
        <ele>488</ele>
        <time>2021-10-31T09:57:18.490Z</time>
      </trkpt>
      <trkpt lat="44.01343" lon="2.57332">
        <ele>488</ele>
        <time>2021-10-31T09:57:19.490Z</time>
      </trkpt>
      <trkpt lat="44.01342" lon="2.57332">
        <ele>488</ele>
        <time>2021-10-31T09:57:20.490Z</time>
      </trkpt>
      <trkpt lat="44.01341" lon="2.57332">
        <ele>488</ele>
        <time>2021-10-31T09:57:21.490Z</time>
      </trkpt>
      <trkpt lat="44.01339" lon="2.57332">
        <ele>488</ele>
        <time>2021-10-31T09:57:22.490Z</time>
      </trkpt>
      <trkpt lat="44.01338" lon="2.57331">
        <ele>487</ele>
        <time>2021-10-31T09:57:23.490Z</time>
      </trkpt>
      <trkpt lat="44.01337" lon="2.57331">
        <ele>487</ele>
        <time>2021-10-31T09:57:24.490Z</time>
      </trkpt>
      <trkpt lat="44.01336" lon="2.5733">
        <ele>487</ele>
        <time>2021-10-31T09:57:25.490Z</time>
      </trkpt>
      <trkpt lat="44.01335" lon="2.5733">
        <ele>487</ele>
        <time>2021-10-31T09:57:26.490Z</time>
      </trkpt>
      <trkpt lat="44.01334" lon="2.57329">
        <ele>486</ele>
        <time>2021-10-31T09:57:27.490Z</time>
      </trkpt>
      <trkpt lat="44.01332" lon="2.57329">
        <ele>486</ele>
        <time>2021-10-31T09:57:28.490Z</time>
      </trkpt>
      <trkpt lat="44.01331" lon="2.57328">
        <ele>486</ele>
        <time>2021-10-31T09:57:29.490Z</time>
      </trkpt>
      <trkpt lat="44.0133" lon="2.57327">
        <ele>486</ele>
        <time>2021-10-31T09:57:30.490Z</time>
      </trkpt>
      <trkpt lat="44.01329" lon="2.57326">
        <ele>485</ele>
        <time>2021-10-31T09:57:31.490Z</time>
      </trkpt>
      <trkpt lat="44.01328" lon="2.57326">
        <ele>485</ele>
        <time>2021-10-31T09:57:32.490Z</time>
      </trkpt>
      <trkpt lat="44.01327" lon="2.57325">
        <ele>485</ele>
        <time>2021-10-31T09:57:33.490Z</time>
      </trkpt>
      <trkpt lat="44.01325" lon="2.57324">
        <ele>485</ele>
        <time>2021-10-31T09:57:34.490Z</time>
      </trkpt>
      <trkpt lat="44.01324" lon="2.57324">
        <ele>485</ele>
        <time>2021-10-31T09:57:35.490Z</time>
      </trkpt>
      <trkpt lat="44.01323" lon="2.57323">
        <ele>484</ele>
        <time>2021-10-31T09:57:36.490Z</time>
      </trkpt>
      <trkpt lat="44.01322" lon="2.57322">
        <ele>484</ele>
        <time>2021-10-31T09:57:37.490Z</time>
      </trkpt>
      <trkpt lat="44.01321" lon="2.57321">
        <ele>484</ele>
        <time>2021-10-31T09:57:38.490Z</time>
      </trkpt>
      <trkpt lat="44.0132" lon="2.5732">
        <ele>484</ele>
        <time>2021-10-31T09:57:39.490Z</time>
      </trkpt>
      <trkpt lat="44.01319" lon="2.57319">
        <ele>484</ele>
        <time>2021-10-31T09:57:40.490Z</time>
      </trkpt>
      <trkpt lat="44.01318" lon="2.57319">
        <ele>483</ele>
        <time>2021-10-31T09:57:41.490Z</time>
      </trkpt>
      <trkpt lat="44.01317" lon="2.57318">
        <ele>483</ele>
        <time>2021-10-31T09:57:42.490Z</time>
      </trkpt>
      <trkpt lat="44.01316" lon="2.57317">
        <ele>483</ele>
        <time>2021-10-31T09:57:43.490Z</time>
      </trkpt>
      <trkpt lat="44.01314" lon="2.57317">
        <ele>483</ele>
        <time>2021-10-31T09:57:44.490Z</time>
      </trkpt>
      <trkpt lat="44.01313" lon="2.57316">
        <ele>483</ele>
        <time>2021-10-31T09:57:45.490Z</time>
      </trkpt>
      <trkpt lat="44.01312" lon="2.57315">
        <ele>482</ele>
        <time>2021-10-31T09:57:46.490Z</time>
      </trkpt>
      <trkpt lat="44.01311" lon="2.57314">
        <ele>482</ele>
        <time>2021-10-31T09:57:47.490Z</time>
      </trkpt>
      <trkpt lat="44.0131" lon="2.57314">
        <ele>482</ele>
        <time>2021-10-31T09:57:48.490Z</time>
      </trkpt>
      <trkpt lat="44.01309" lon="2.57313">
        <ele>482</ele>
        <time>2021-10-31T09:57:49.490Z</time>
      </trkpt>
      <trkpt lat="44.01308" lon="2.57313">
        <ele>482</ele>
        <time>2021-10-31T09:57:50.490Z</time>
      </trkpt>
      <trkpt lat="44.01307" lon="2.57313">
        <ele>482</ele>
        <time>2021-10-31T09:57:51.490Z</time>
      </trkpt>
      <trkpt lat="44.01305" lon="2.57312">
        <ele>482</ele>
        <time>2021-10-31T09:57:52.490Z</time>
      </trkpt>
      <trkpt lat="44.01304" lon="2.57312">
        <ele>482</ele>
        <time>2021-10-31T09:57:53.490Z</time>
      </trkpt>
      <trkpt lat="44.01303" lon="2.57311">
        <ele>482</ele>
        <time>2021-10-31T09:57:54.490Z</time>
      </trkpt>
      <trkpt lat="44.01302" lon="2.57311">
        <ele>482</ele>
        <time>2021-10-31T09:57:55.490Z</time>
      </trkpt>
      <trkpt lat="44.01301" lon="2.57311">
        <ele>482</ele>
        <time>2021-10-31T09:57:58.771Z</time>
      </trkpt>
      <trkpt lat="44.013" lon="2.57311">
        <ele>482</ele>
        <time>2021-10-31T09:57:59.771Z</time>
      </trkpt>
      <trkpt lat="44.01298" lon="2.5731">
        <ele>482</ele>
        <time>2021-10-31T09:58:00.771Z</time>
      </trkpt>
      <trkpt lat="44.01297" lon="2.5731">
        <ele>482</ele>
        <time>2021-10-31T09:58:01.771Z</time>
      </trkpt>
      <trkpt lat="44.01296" lon="2.57309">
        <ele>482</ele>
        <time>2021-10-31T09:58:02.771Z</time>
      </trkpt>
      <trkpt lat="44.01295" lon="2.57309">
        <ele>482</ele>
        <time>2021-10-31T09:58:03.771Z</time>
      </trkpt>
      <trkpt lat="44.01294" lon="2.57309">
        <ele>482</ele>
        <time>2021-10-31T09:58:04.771Z</time>
      </trkpt>
      <trkpt lat="44.01293" lon="2.57308">
        <ele>482</ele>
        <time>2021-10-31T09:58:05.771Z</time>
      </trkpt>
      <trkpt lat="44.01292" lon="2.57308">
        <ele>482</ele>
        <time>2021-10-31T09:58:06.771Z</time>
      </trkpt>
      <trkpt lat="44.0129" lon="2.57308">
        <ele>482</ele>
        <time>2021-10-31T09:58:07.771Z</time>
      </trkpt>
      <trkpt lat="44.01289" lon="2.57308">
        <ele>481</ele>
        <time>2021-10-31T09:58:08.771Z</time>
      </trkpt>
      <trkpt lat="44.01288" lon="2.57308">
        <ele>481</ele>
        <time>2021-10-31T09:58:09.771Z</time>
      </trkpt>
      <trkpt lat="44.01287" lon="2.57308">
        <ele>481</ele>
        <time>2021-10-31T09:58:10.771Z</time>
      </trkpt>
      <trkpt lat="44.01286" lon="2.57307">
        <ele>481</ele>
        <time>2021-10-31T09:58:11.771Z</time>
      </trkpt>
      <trkpt lat="44.01284" lon="2.57307">
        <ele>481</ele>
        <time>2021-10-31T09:58:12.771Z</time>
      </trkpt>
      <trkpt lat="44.01282" lon="2.57307">
        <ele>481</ele>
        <time>2021-10-31T09:58:13.771Z</time>
      </trkpt>
      <trkpt lat="44.01281" lon="2.57307">
        <ele>481</ele>
        <time>2021-10-31T09:58:14.771Z</time>
      </trkpt>
      <trkpt lat="44.0128" lon="2.57307">
        <ele>481</ele>
        <time>2021-10-31T09:58:15.771Z</time>
      </trkpt>
      <trkpt lat="44.01279" lon="2.57307">
        <ele>481</ele>
        <time>2021-10-31T09:58:16.771Z</time>
      </trkpt>
      <trkpt lat="44.01277" lon="2.57306">
        <ele>480</ele>
        <time>2021-10-31T09:58:17.771Z</time>
      </trkpt>
      <trkpt lat="44.01276" lon="2.57306">
        <ele>480</ele>
        <time>2021-10-31T09:58:18.771Z</time>
      </trkpt>
      <trkpt lat="44.01275" lon="2.57306">
        <ele>480</ele>
        <time>2021-10-31T09:58:19.771Z</time>
      </trkpt>
      <trkpt lat="44.01274" lon="2.57307">
        <ele>480</ele>
        <time>2021-10-31T09:58:20.771Z</time>
      </trkpt>
      <trkpt lat="44.01272" lon="2.57307">
        <ele>480</ele>
        <time>2021-10-31T09:58:21.771Z</time>
      </trkpt>
      <trkpt lat="44.01271" lon="2.57307">
        <ele>480</ele>
        <time>2021-10-31T09:58:22.771Z</time>
      </trkpt>
      <trkpt lat="44.0127" lon="2.57307">
        <ele>480</ele>
        <time>2021-10-31T09:58:23.771Z</time>
      </trkpt>
      <trkpt lat="44.01269" lon="2.57307">
        <ele>480</ele>
        <time>2021-10-31T09:58:24.771Z</time>
      </trkpt>
      <trkpt lat="44.01268" lon="2.57307">
        <ele>480</ele>
        <time>2021-10-31T09:58:25.771Z</time>
      </trkpt>
      <trkpt lat="44.01266" lon="2.57307">
        <ele>480</ele>
        <time>2021-10-31T09:58:26.771Z</time>
      </trkpt>
      <trkpt lat="44.01265" lon="2.57307">
        <ele>479</ele>
        <time>2021-10-31T09:58:27.771Z</time>
      </trkpt>
      <trkpt lat="44.01264" lon="2.57307">
        <ele>479</ele>
        <time>2021-10-31T09:58:28.771Z</time>
      </trkpt>
      <trkpt lat="44.01263" lon="2.57307">
        <ele>479</ele>
        <time>2021-10-31T09:58:29.771Z</time>
      </trkpt>
      <trkpt lat="44.01261" lon="2.57307">
        <ele>479</ele>
        <time>2021-10-31T09:58:30.771Z</time>
      </trkpt>
      <trkpt lat="44.0126" lon="2.57307">
        <ele>479</ele>
        <time>2021-10-31T09:58:31.771Z</time>
      </trkpt>
      <trkpt lat="44.01259" lon="2.57307">
        <ele>479</ele>
        <time>2021-10-31T09:58:32.771Z</time>
      </trkpt>
      <trkpt lat="44.01258" lon="2.57307">
        <ele>479</ele>
        <time>2021-10-31T09:58:33.771Z</time>
      </trkpt>
      <trkpt lat="44.01256" lon="2.57307">
        <ele>479</ele>
        <time>2021-10-31T09:58:34.771Z</time>
      </trkpt>
      <trkpt lat="44.01255" lon="2.57307">
        <ele>479</ele>
        <time>2021-10-31T09:58:35.771Z</time>
      </trkpt>
      <trkpt lat="44.01254" lon="2.57307">
        <ele>479</ele>
        <time>2021-10-31T09:58:36.771Z</time>
      </trkpt>
      <trkpt lat="44.01253" lon="2.57307">
        <ele>479</ele>
        <time>2021-10-31T09:58:37.771Z</time>
      </trkpt>
      <trkpt lat="44.01251" lon="2.57307">
        <ele>479</ele>
        <time>2021-10-31T09:58:38.771Z</time>
      </trkpt>
      <trkpt lat="44.0125" lon="2.57307">
        <ele>478</ele>
        <time>2021-10-31T09:58:39.771Z</time>
      </trkpt>
      <trkpt lat="44.01249" lon="2.57306">
        <ele>478</ele>
        <time>2021-10-31T09:58:40.771Z</time>
      </trkpt>
      <trkpt lat="44.01248" lon="2.57306">
        <ele>478</ele>
        <time>2021-10-31T09:58:41.771Z</time>
      </trkpt>
      <trkpt lat="44.01247" lon="2.57306">
        <ele>478</ele>
        <time>2021-10-31T09:58:42.771Z</time>
      </trkpt>
      <trkpt lat="44.01246" lon="2.57305">
        <ele>478</ele>
        <time>2021-10-31T09:58:43.771Z</time>
      </trkpt>
      <trkpt lat="44.01245" lon="2.57305">
        <ele>478</ele>
        <time>2021-10-31T09:58:44.771Z</time>
      </trkpt>
      <trkpt lat="44.01244" lon="2.57305">
        <ele>478</ele>
        <time>2021-10-31T09:58:45.771Z</time>
      </trkpt>
      <trkpt lat="44.01243" lon="2.57305">
        <ele>478</ele>
        <time>2021-10-31T09:58:46.771Z</time>
      </trkpt>
      <trkpt lat="44.01242" lon="2.57304">
        <ele>478</ele>
        <time>2021-10-31T09:58:47.771Z</time>
      </trkpt>
      <trkpt lat="44.01241" lon="2.57303">
        <ele>478</ele>
        <time>2021-10-31T09:58:48.771Z</time>
      </trkpt>
      <trkpt lat="44.0124" lon="2.57303">
        <ele>478</ele>
        <time>2021-10-31T09:58:49.771Z</time>
      </trkpt>
      <trkpt lat="44.01239" lon="2.57302">
        <ele>478</ele>
        <time>2021-10-31T09:58:50.771Z</time>
      </trkpt>
      <trkpt lat="44.01238" lon="2.57301">
        <ele>478</ele>
        <time>2021-10-31T09:58:51.771Z</time>
      </trkpt>
      <trkpt lat="44.01237" lon="2.573">
        <ele>478</ele>
        <time>2021-10-31T09:58:52.771Z</time>
      </trkpt>
      <trkpt lat="44.01236" lon="2.57299">
        <ele>478</ele>
        <time>2021-10-31T09:58:53.771Z</time>
      </trkpt>
      <trkpt lat="44.01235" lon="2.57298">
        <ele>479</ele>
        <time>2021-10-31T09:58:54.771Z</time>
      </trkpt>
      <trkpt lat="44.01234" lon="2.57297">
        <ele>479</ele>
        <time>2021-10-31T09:58:55.771Z</time>
      </trkpt>
      <trkpt lat="44.01233" lon="2.57296">
        <ele>479</ele>
        <time>2021-10-31T09:58:56.771Z</time>
      </trkpt>
      <trkpt lat="44.01233" lon="2.57295">
        <ele>479</ele>
        <time>2021-10-31T09:58:57.771Z</time>
      </trkpt>
      <trkpt lat="44.01232" lon="2.57294">
        <ele>479</ele>
        <time>2021-10-31T09:58:58.771Z</time>
      </trkpt>
      <trkpt lat="44.01231" lon="2.57293">
        <ele>479</ele>
        <time>2021-10-31T09:58:59.771Z</time>
      </trkpt>
      <trkpt lat="44.0123" lon="2.57292">
        <ele>479</ele>
        <time>2021-10-31T09:59:00.771Z</time>
      </trkpt>
      <trkpt lat="44.01229" lon="2.57291">
        <ele>479</ele>
        <time>2021-10-31T09:59:01.771Z</time>
      </trkpt>
      <trkpt lat="44.01228" lon="2.5729">
        <ele>479</ele>
        <time>2021-10-31T09:59:02.771Z</time>
      </trkpt>
      <trkpt lat="44.01227" lon="2.57289">
        <ele>479</ele>
        <time>2021-10-31T09:59:03.771Z</time>
      </trkpt>
      <trkpt lat="44.01226" lon="2.57288">
        <ele>479</ele>
        <time>2021-10-31T09:59:04.771Z</time>
      </trkpt>
      <trkpt lat="44.01225" lon="2.57287">
        <ele>479</ele>
        <time>2021-10-31T09:59:05.771Z</time>
      </trkpt>
      <trkpt lat="44.01224" lon="2.57286">
        <ele>479</ele>
        <time>2021-10-31T09:59:06.771Z</time>
      </trkpt>
      <trkpt lat="44.01223" lon="2.57285">
        <ele>479</ele>
        <time>2021-10-31T09:59:07.771Z</time>
      </trkpt>
      <trkpt lat="44.01223" lon="2.57283">
        <ele>479</ele>
        <time>2021-10-31T09:59:08.771Z</time>
      </trkpt>
      <trkpt lat="44.01222" lon="2.57282">
        <ele>479</ele>
        <time>2021-10-31T09:59:09.771Z</time>
      </trkpt>
      <trkpt lat="44.01221" lon="2.57281">
        <ele>479</ele>
        <time>2021-10-31T09:59:10.771Z</time>
      </trkpt>
      <trkpt lat="44.0122" lon="2.5728">
        <ele>479</ele>
        <time>2021-10-31T09:59:11.771Z</time>
      </trkpt>
      <trkpt lat="44.01219" lon="2.57279">
        <ele>479</ele>
        <time>2021-10-31T09:59:12.771Z</time>
      </trkpt>
      <trkpt lat="44.01218" lon="2.57278">
        <ele>479</ele>
        <time>2021-10-31T09:59:13.771Z</time>
      </trkpt>
      <trkpt lat="44.01217" lon="2.57277">
        <ele>479</ele>
        <time>2021-10-31T09:59:14.771Z</time>
      </trkpt>
      <trkpt lat="44.01217" lon="2.57276">
        <ele>479</ele>
        <time>2021-10-31T09:59:15.771Z</time>
      </trkpt>
      <trkpt lat="44.01216" lon="2.57275">
        <ele>479</ele>
        <time>2021-10-31T09:59:16.771Z</time>
      </trkpt>
      <trkpt lat="44.01215" lon="2.57274">
        <ele>479</ele>
        <time>2021-10-31T09:59:17.771Z</time>
      </trkpt>
      <trkpt lat="44.01214" lon="2.57273">
        <ele>479</ele>
        <time>2021-10-31T09:59:18.771Z</time>
      </trkpt>
      <trkpt lat="44.01213" lon="2.57272">
        <ele>479</ele>
        <time>2021-10-31T09:59:19.771Z</time>
      </trkpt>
      <trkpt lat="44.01212" lon="2.57271">
        <ele>479</ele>
        <time>2021-10-31T09:59:20.771Z</time>
      </trkpt>
      <trkpt lat="44.01211" lon="2.5727">
        <ele>478</ele>
        <time>2021-10-31T09:59:21.771Z</time>
      </trkpt>
      <trkpt lat="44.0121" lon="2.57269">
        <ele>478</ele>
        <time>2021-10-31T09:59:22.771Z</time>
      </trkpt>
      <trkpt lat="44.01209" lon="2.57268">
        <ele>478</ele>
        <time>2021-10-31T09:59:23.771Z</time>
      </trkpt>
      <trkpt lat="44.01208" lon="2.57267">
        <ele>478</ele>
        <time>2021-10-31T09:59:24.771Z</time>
      </trkpt>
      <trkpt lat="44.01207" lon="2.57266">
        <ele>478</ele>
        <time>2021-10-31T09:59:25.771Z</time>
      </trkpt>
      <trkpt lat="44.01206" lon="2.57265">
        <ele>478</ele>
        <time>2021-10-31T09:59:26.771Z</time>
      </trkpt>
      <trkpt lat="44.01205" lon="2.57264">
        <ele>478</ele>
        <time>2021-10-31T09:59:27.771Z</time>
      </trkpt>
      <trkpt lat="44.01204" lon="2.57263">
        <ele>478</ele>
        <time>2021-10-31T09:59:28.771Z</time>
      </trkpt>
      <trkpt lat="44.01203" lon="2.57262">
        <ele>478</ele>
        <time>2021-10-31T09:59:29.771Z</time>
      </trkpt>
      <trkpt lat="44.01202" lon="2.57261">
        <ele>478</ele>
        <time>2021-10-31T09:59:30.771Z</time>
      </trkpt>
      <trkpt lat="44.01201" lon="2.5726">
        <ele>478</ele>
        <time>2021-10-31T09:59:31.771Z</time>
      </trkpt>
      <trkpt lat="44.012" lon="2.57259">
        <ele>478</ele>
        <time>2021-10-31T09:59:32.771Z</time>
      </trkpt>
      <trkpt lat="44.01199" lon="2.57258">
        <ele>478</ele>
        <time>2021-10-31T09:59:33.771Z</time>
      </trkpt>
      <trkpt lat="44.01198" lon="2.57257">
        <ele>478</ele>
        <time>2021-10-31T09:59:34.771Z</time>
      </trkpt>
      <trkpt lat="44.01197" lon="2.57256">
        <ele>478</ele>
        <time>2021-10-31T09:59:35.771Z</time>
      </trkpt>
      <trkpt lat="44.01196" lon="2.57255">
        <ele>478</ele>
        <time>2021-10-31T09:59:36.771Z</time>
      </trkpt>
      <trkpt lat="44.01195" lon="2.57254">
        <ele>478</ele>
        <time>2021-10-31T09:59:37.771Z</time>
      </trkpt>
      <trkpt lat="44.01194" lon="2.57253">
        <ele>478</ele>
        <time>2021-10-31T09:59:38.771Z</time>
      </trkpt>
      <trkpt lat="44.01194" lon="2.57252">
        <ele>477</ele>
        <time>2021-10-31T09:59:39.771Z</time>
      </trkpt>
      <trkpt lat="44.01193" lon="2.57252">
        <ele>477</ele>
        <time>2021-10-31T09:59:40.771Z</time>
      </trkpt>
      <trkpt lat="44.01192" lon="2.57251">
        <ele>477</ele>
        <time>2021-10-31T09:59:41.771Z</time>
      </trkpt>
      <trkpt lat="44.01191" lon="2.57251">
        <ele>477</ele>
        <time>2021-10-31T09:59:42.771Z</time>
      </trkpt>
      <trkpt lat="44.0119" lon="2.5725">
        <ele>477</ele>
        <time>2021-10-31T09:59:43.771Z</time>
      </trkpt>
      <trkpt lat="44.01189" lon="2.57249">
        <ele>477</ele>
        <time>2021-10-31T09:59:44.771Z</time>
      </trkpt>
      <trkpt lat="44.01188" lon="2.57248">
        <ele>477</ele>
        <time>2021-10-31T09:59:45.771Z</time>
      </trkpt>
      <trkpt lat="44.01188" lon="2.57248">
        <ele>476</ele>
        <time>2021-10-31T09:59:46.771Z</time>
      </trkpt>
      <trkpt lat="44.01187" lon="2.57247">
        <ele>476</ele>
        <time>2021-10-31T09:59:47.771Z</time>
      </trkpt>
      <trkpt lat="44.01186" lon="2.57246">
        <ele>476</ele>
        <time>2021-10-31T09:59:48.771Z</time>
      </trkpt>
      <trkpt lat="44.01186" lon="2.57246">
        <ele>476</ele>
        <time>2021-10-31T09:59:49.771Z</time>
      </trkpt>
      <trkpt lat="44.01185" lon="2.57245">
        <ele>476</ele>
        <time>2021-10-31T09:59:50.771Z</time>
      </trkpt>
      <trkpt lat="44.01184" lon="2.57245">
        <ele>475</ele>
        <time>2021-10-31T09:59:51.771Z</time>
      </trkpt>
      <trkpt lat="44.01184" lon="2.57245">
        <ele>475</ele>
        <time>2021-10-31T09:59:52.771Z</time>
      </trkpt>
      <trkpt lat="44.01183" lon="2.57244">
        <ele>475</ele>
        <time>2021-10-31T09:59:53.771Z</time>
      </trkpt>
      <trkpt lat="44.01183" lon="2.57244">
        <ele>475</ele>
        <time>2021-10-31T09:59:54.771Z</time>
      </trkpt>
      <trkpt lat="44.01182" lon="2.57244">
        <ele>475</ele>
        <time>2021-10-31T09:59:55.771Z</time>
      </trkpt>
      <trkpt lat="44.01182" lon="2.57243">
        <ele>475</ele>
        <time>2021-10-31T09:59:56.771Z</time>
      </trkpt>
      <trkpt lat="44.01181" lon="2.57243">
        <ele>475</ele>
        <time>2021-10-31T09:59:57.771Z</time>
      </trkpt>
      <trkpt lat="44.01181" lon="2.57243">
        <ele>475</ele>
        <time>2021-10-31T09:59:58.771Z</time>
      </trkpt>
      <trkpt lat="44.0118" lon="2.57242">
        <ele>475</ele>
        <time>2021-10-31T09:59:59.771Z</time>
      </trkpt>
      <trkpt lat="44.0118" lon="2.57241">
        <ele>475</ele>
        <time>2021-10-31T10:00:00.771Z</time>
      </trkpt>
      <trkpt lat="44.01179" lon="2.5724">
        <ele>475</ele>
        <time>2021-10-31T10:00:01.771Z</time>
      </trkpt>
      <trkpt lat="44.01178" lon="2.57239">
        <ele>475</ele>
        <time>2021-10-31T10:00:02.771Z</time>
      </trkpt>
      <trkpt lat="44.01177" lon="2.57238">
        <ele>475</ele>
        <time>2021-10-31T10:00:03.771Z</time>
      </trkpt>
      <trkpt lat="44.01177" lon="2.57237">
        <ele>475</ele>
        <time>2021-10-31T10:00:04.771Z</time>
      </trkpt>
      <trkpt lat="44.01176" lon="2.57236">
        <ele>475</ele>
        <time>2021-10-31T10:00:05.771Z</time>
      </trkpt>
      <trkpt lat="44.01175" lon="2.57235">
        <ele>475</ele>
        <time>2021-10-31T10:00:06.771Z</time>
      </trkpt>
      <trkpt lat="44.01174" lon="2.57235">
        <ele>474</ele>
        <time>2021-10-31T10:00:07.771Z</time>
      </trkpt>
      <trkpt lat="44.01173" lon="2.57234">
        <ele>474</ele>
        <time>2021-10-31T10:00:08.771Z</time>
      </trkpt>
      <trkpt lat="44.01172" lon="2.57233">
        <ele>474</ele>
        <time>2021-10-31T10:00:09.771Z</time>
      </trkpt>
      <trkpt lat="44.01171" lon="2.57233">
        <ele>474</ele>
        <time>2021-10-31T10:00:10.771Z</time>
      </trkpt>
      <trkpt lat="44.0117" lon="2.57233">
        <ele>474</ele>
        <time>2021-10-31T10:00:11.771Z</time>
      </trkpt>
      <trkpt lat="44.01169" lon="2.57233">
        <ele>474</ele>
        <time>2021-10-31T10:00:12.771Z</time>
      </trkpt>
      <trkpt lat="44.01168" lon="2.57232">
        <ele>474</ele>
        <time>2021-10-31T10:00:13.771Z</time>
      </trkpt>
      <trkpt lat="44.01167" lon="2.57232">
        <ele>474</ele>
        <time>2021-10-31T10:00:14.771Z</time>
      </trkpt>
      <trkpt lat="44.01166" lon="2.57231">
        <ele>474</ele>
        <time>2021-10-31T10:00:15.771Z</time>
      </trkpt>
      <trkpt lat="44.01165" lon="2.57231">
        <ele>474</ele>
        <time>2021-10-31T10:00:16.771Z</time>
      </trkpt>
      <trkpt lat="44.01164" lon="2.57231">
        <ele>473</ele>
        <time>2021-10-31T10:00:17.771Z</time>
      </trkpt>
      <trkpt lat="44.01163" lon="2.57231">
        <ele>473</ele>
        <time>2021-10-31T10:00:18.771Z</time>
      </trkpt>
      <trkpt lat="44.01162" lon="2.5723">
        <ele>473</ele>
        <time>2021-10-31T10:00:19.771Z</time>
      </trkpt>
      <trkpt lat="44.01161" lon="2.5723">
        <ele>473</ele>
        <time>2021-10-31T10:00:20.771Z</time>
      </trkpt>
      <trkpt lat="44.0116" lon="2.57229">
        <ele>473</ele>
        <time>2021-10-31T10:00:21.771Z</time>
      </trkpt>
      <trkpt lat="44.01159" lon="2.57229">
        <ele>472</ele>
        <time>2021-10-31T10:00:22.771Z</time>
      </trkpt>
      <trkpt lat="44.01158" lon="2.57228">
        <ele>472</ele>
        <time>2021-10-31T10:00:23.771Z</time>
      </trkpt>
      <trkpt lat="44.01157" lon="2.57227">
        <ele>472</ele>
        <time>2021-10-31T10:00:24.771Z</time>
      </trkpt>
      <trkpt lat="44.01156" lon="2.57227">
        <ele>471</ele>
        <time>2021-10-31T10:00:25.771Z</time>
      </trkpt>
      <trkpt lat="44.01155" lon="2.57226">
        <ele>471</ele>
        <time>2021-10-31T10:00:26.771Z</time>
      </trkpt>
      <trkpt lat="44.01154" lon="2.57225">
        <ele>471</ele>
        <time>2021-10-31T10:00:27.771Z</time>
      </trkpt>
      <trkpt lat="44.01154" lon="2.57224">
        <ele>471</ele>
        <time>2021-10-31T10:00:28.771Z</time>
      </trkpt>
      <trkpt lat="44.01153" lon="2.57223">
        <ele>471</ele>
        <time>2021-10-31T10:00:29.771Z</time>
      </trkpt>
      <trkpt lat="44.01152" lon="2.57223">
        <ele>471</ele>
        <time>2021-10-31T10:00:30.771Z</time>
      </trkpt>
      <trkpt lat="44.01151" lon="2.57223">
        <ele>470</ele>
        <time>2021-10-31T10:00:31.771Z</time>
      </trkpt>
      <trkpt lat="44.0115" lon="2.57222">
        <ele>470</ele>
        <time>2021-10-31T10:00:32.771Z</time>
      </trkpt>
      <trkpt lat="44.01149" lon="2.57221">
        <ele>470</ele>
        <time>2021-10-31T10:00:33.771Z</time>
      </trkpt>
      <trkpt lat="44.01148" lon="2.57221">
        <ele>470</ele>
        <time>2021-10-31T10:00:34.771Z</time>
      </trkpt>
      <trkpt lat="44.01147" lon="2.57221">
        <ele>470</ele>
        <time>2021-10-31T10:00:35.771Z</time>
      </trkpt>
      <trkpt lat="44.01146" lon="2.5722">
        <ele>469</ele>
        <time>2021-10-31T10:00:36.771Z</time>
      </trkpt>
      <trkpt lat="44.01145" lon="2.57219">
        <ele>469</ele>
        <time>2021-10-31T10:00:37.771Z</time>
      </trkpt>
      <trkpt lat="44.01144" lon="2.57219">
        <ele>469</ele>
        <time>2021-10-31T10:00:38.771Z</time>
      </trkpt>
      <trkpt lat="44.01143" lon="2.57218">
        <ele>469</ele>
        <time>2021-10-31T10:00:39.771Z</time>
      </trkpt>
      <trkpt lat="44.01142" lon="2.57218">
        <ele>469</ele>
        <time>2021-10-31T10:00:40.771Z</time>
      </trkpt>
      <trkpt lat="44.01141" lon="2.57217">
        <ele>469</ele>
        <time>2021-10-31T10:00:41.771Z</time>
      </trkpt>
      <trkpt lat="44.0114" lon="2.57217">
        <ele>468</ele>
        <time>2021-10-31T10:00:42.771Z</time>
      </trkpt>
      <trkpt lat="44.01139" lon="2.57216">
        <ele>468</ele>
        <time>2021-10-31T10:00:43.771Z</time>
      </trkpt>
      <trkpt lat="44.01138" lon="2.57216">
        <ele>468</ele>
        <time>2021-10-31T10:00:44.771Z</time>
      </trkpt>
      <trkpt lat="44.01138" lon="2.57215">
        <ele>468</ele>
        <time>2021-10-31T10:00:45.771Z</time>
      </trkpt>
      <trkpt lat="44.01137" lon="2.57215">
        <ele>468</ele>
        <time>2021-10-31T10:00:51.803Z</time>
      </trkpt>
      <trkpt lat="44.01136" lon="2.57214">
        <ele>468</ele>
        <time>2021-10-31T10:00:52.803Z</time>
      </trkpt>
      <trkpt lat="44.01135" lon="2.57214">
        <ele>468</ele>
        <time>2021-10-31T10:00:53.803Z</time>
      </trkpt>
      <trkpt lat="44.01134" lon="2.57213">
        <ele>467</ele>
        <time>2021-10-31T10:00:54.803Z</time>
      </trkpt>
      <trkpt lat="44.01133" lon="2.57212">
        <ele>467</ele>
        <time>2021-10-31T10:00:55.803Z</time>
      </trkpt>
      <trkpt lat="44.01132" lon="2.57212">
        <ele>467</ele>
        <time>2021-10-31T10:00:56.803Z</time>
      </trkpt>
      <trkpt lat="44.01131" lon="2.57211">
        <ele>467</ele>
        <time>2021-10-31T10:00:57.803Z</time>
      </trkpt>
      <trkpt lat="44.0113" lon="2.57211">
        <ele>467</ele>
        <time>2021-10-31T10:00:58.803Z</time>
      </trkpt>
      <trkpt lat="44.01129" lon="2.5721">
        <ele>467</ele>
        <time>2021-10-31T10:00:59.803Z</time>
      </trkpt>
      <trkpt lat="44.01128" lon="2.5721">
        <ele>467</ele>
        <time>2021-10-31T10:01:00.803Z</time>
      </trkpt>
      <trkpt lat="44.01128" lon="2.57209">
        <ele>467</ele>
        <time>2021-10-31T10:01:01.803Z</time>
      </trkpt>
      <trkpt lat="44.01127" lon="2.57209">
        <ele>467</ele>
        <time>2021-10-31T10:01:02.803Z</time>
      </trkpt>
      <trkpt lat="44.01126" lon="2.57208">
        <ele>467</ele>
        <time>2021-10-31T10:01:03.803Z</time>
      </trkpt>
      <trkpt lat="44.01125" lon="2.57207">
        <ele>466</ele>
        <time>2021-10-31T10:01:04.803Z</time>
      </trkpt>
      <trkpt lat="44.01124" lon="2.57207">
        <ele>466</ele>
        <time>2021-10-31T10:01:05.803Z</time>
      </trkpt>
      <trkpt lat="44.01123" lon="2.57206">
        <ele>466</ele>
        <time>2021-10-31T10:01:06.803Z</time>
      </trkpt>
      <trkpt lat="44.01122" lon="2.57205">
        <ele>466</ele>
        <time>2021-10-31T10:01:07.803Z</time>
      </trkpt>
      <trkpt lat="44.01121" lon="2.57205">
        <ele>466</ele>
        <time>2021-10-31T10:01:08.803Z</time>
      </trkpt>
      <trkpt lat="44.0112" lon="2.57204">
        <ele>466</ele>
        <time>2021-10-31T10:01:09.803Z</time>
      </trkpt>
      <trkpt lat="44.01119" lon="2.57204">
        <ele>466</ele>
        <time>2021-10-31T10:01:10.803Z</time>
      </trkpt>
      <trkpt lat="44.01118" lon="2.57203">
        <ele>466</ele>
        <time>2021-10-31T10:01:11.803Z</time>
      </trkpt>
      <trkpt lat="44.01117" lon="2.57203">
        <ele>465</ele>
        <time>2021-10-31T10:01:12.803Z</time>
      </trkpt>
      <trkpt lat="44.01116" lon="2.57202">
        <ele>465</ele>
        <time>2021-10-31T10:01:13.803Z</time>
      </trkpt>
      <trkpt lat="44.01115" lon="2.57201">
        <ele>465</ele>
        <time>2021-10-31T10:01:14.803Z</time>
      </trkpt>
      <trkpt lat="44.01114" lon="2.572">
        <ele>465</ele>
        <time>2021-10-31T10:01:15.803Z</time>
      </trkpt>
      <trkpt lat="44.01113" lon="2.57199">
        <ele>465</ele>
        <time>2021-10-31T10:01:16.803Z</time>
      </trkpt>
      <trkpt lat="44.01112" lon="2.57198">
        <ele>465</ele>
        <time>2021-10-31T10:01:17.803Z</time>
      </trkpt>
      <trkpt lat="44.01111" lon="2.57197">
        <ele>465</ele>
        <time>2021-10-31T10:01:18.803Z</time>
      </trkpt>
      <trkpt lat="44.0111" lon="2.57196">
        <ele>465</ele>
        <time>2021-10-31T10:01:19.803Z</time>
      </trkpt>
      <trkpt lat="44.01109" lon="2.57195">
        <ele>465</ele>
        <time>2021-10-31T10:01:20.803Z</time>
      </trkpt>
      <trkpt lat="44.01108" lon="2.57194">
        <ele>465</ele>
        <time>2021-10-31T10:01:21.803Z</time>
      </trkpt>
      <trkpt lat="44.01107" lon="2.57193">
        <ele>465</ele>
        <time>2021-10-31T10:01:22.803Z</time>
      </trkpt>
      <trkpt lat="44.01106" lon="2.57192">
        <ele>464</ele>
        <time>2021-10-31T10:01:23.803Z</time>
      </trkpt>
      <trkpt lat="44.01105" lon="2.57191">
        <ele>464</ele>
        <time>2021-10-31T10:01:24.803Z</time>
      </trkpt>
      <trkpt lat="44.01105" lon="2.5719">
        <ele>464</ele>
        <time>2021-10-31T10:01:25.803Z</time>
      </trkpt>
      <trkpt lat="44.01103" lon="2.57189">
        <ele>464</ele>
        <time>2021-10-31T10:01:26.803Z</time>
      </trkpt>
      <trkpt lat="44.01103" lon="2.57189">
        <ele>464</ele>
        <time>2021-10-31T10:01:27.803Z</time>
      </trkpt>
      <trkpt lat="44.01101" lon="2.57188">
        <ele>464</ele>
        <time>2021-10-31T10:01:28.803Z</time>
      </trkpt>
      <trkpt lat="44.011" lon="2.57187">
        <ele>464</ele>
        <time>2021-10-31T10:01:29.803Z</time>
      </trkpt>
      <trkpt lat="44.01099" lon="2.57186">
        <ele>464</ele>
        <time>2021-10-31T10:01:30.803Z</time>
      </trkpt>
      <trkpt lat="44.01099" lon="2.57186">
        <ele>464</ele>
        <time>2021-10-31T10:01:31.803Z</time>
      </trkpt>
      <trkpt lat="44.01098" lon="2.57185">
        <ele>464</ele>
        <time>2021-10-31T10:01:32.803Z</time>
      </trkpt>
      <trkpt lat="44.01097" lon="2.57185">
        <ele>464</ele>
        <time>2021-10-31T10:01:33.803Z</time>
      </trkpt>
      <trkpt lat="44.01096" lon="2.57184">
        <ele>464</ele>
        <time>2021-10-31T10:01:34.803Z</time>
      </trkpt>
      <trkpt lat="44.01095" lon="2.57183">
        <ele>464</ele>
        <time>2021-10-31T10:01:35.803Z</time>
      </trkpt>
      <trkpt lat="44.01095" lon="2.57182">
        <ele>464</ele>
        <time>2021-10-31T10:01:36.803Z</time>
      </trkpt>
      <trkpt lat="44.01094" lon="2.57182">
        <ele>464</ele>
        <time>2021-10-31T10:01:37.803Z</time>
      </trkpt>
      <trkpt lat="44.01093" lon="2.57181">
        <ele>464</ele>
        <time>2021-10-31T10:01:38.803Z</time>
      </trkpt>
      <trkpt lat="44.01092" lon="2.5718">
        <ele>464</ele>
        <time>2021-10-31T10:01:39.803Z</time>
      </trkpt>
      <trkpt lat="44.01091" lon="2.5718">
        <ele>464</ele>
        <time>2021-10-31T10:01:40.803Z</time>
      </trkpt>
      <trkpt lat="44.0109" lon="2.57179">
        <ele>464</ele>
        <time>2021-10-31T10:01:41.803Z</time>
      </trkpt>
      <trkpt lat="44.01089" lon="2.57178">
        <ele>464</ele>
        <time>2021-10-31T10:01:42.803Z</time>
      </trkpt>
      <trkpt lat="44.01088" lon="2.57177">
        <ele>464</ele>
        <time>2021-10-31T10:01:43.803Z</time>
      </trkpt>
      <trkpt lat="44.01087" lon="2.57177">
        <ele>464</ele>
        <time>2021-10-31T10:01:44.803Z</time>
      </trkpt>
      <trkpt lat="44.01086" lon="2.57176">
        <ele>464</ele>
        <time>2021-10-31T10:01:45.803Z</time>
      </trkpt>
      <trkpt lat="44.01085" lon="2.57176">
        <ele>464</ele>
        <time>2021-10-31T10:01:46.803Z</time>
      </trkpt>
      <trkpt lat="44.01084" lon="2.57175">
        <ele>463</ele>
        <time>2021-10-31T10:01:47.803Z</time>
      </trkpt>
      <trkpt lat="44.01083" lon="2.57174">
        <ele>463</ele>
        <time>2021-10-31T10:01:48.803Z</time>
      </trkpt>
      <trkpt lat="44.01082" lon="2.57174">
        <ele>463</ele>
        <time>2021-10-31T10:01:49.803Z</time>
      </trkpt>
      <trkpt lat="44.01081" lon="2.57173">
        <ele>463</ele>
        <time>2021-10-31T10:01:50.803Z</time>
      </trkpt>
      <trkpt lat="44.0108" lon="2.57172">
        <ele>463</ele>
        <time>2021-10-31T10:01:51.803Z</time>
      </trkpt>
      <trkpt lat="44.01079" lon="2.57171">
        <ele>463</ele>
        <time>2021-10-31T10:01:52.803Z</time>
      </trkpt>
      <trkpt lat="44.01078" lon="2.5717">
        <ele>462</ele>
        <time>2021-10-31T10:01:53.803Z</time>
      </trkpt>
      <trkpt lat="44.01078" lon="2.57169">
        <ele>462</ele>
        <time>2021-10-31T10:01:54.803Z</time>
      </trkpt>
      <trkpt lat="44.01077" lon="2.57168">
        <ele>462</ele>
        <time>2021-10-31T10:01:55.803Z</time>
      </trkpt>
      <trkpt lat="44.01076" lon="2.57167">
        <ele>462</ele>
        <time>2021-10-31T10:01:56.803Z</time>
      </trkpt>
      <trkpt lat="44.01075" lon="2.57166">
        <ele>462</ele>
        <time>2021-10-31T10:01:57.803Z</time>
      </trkpt>
      <trkpt lat="44.01075" lon="2.57165">
        <ele>462</ele>
        <time>2021-10-31T10:01:58.803Z</time>
      </trkpt>
      <trkpt lat="44.01074" lon="2.57164">
        <ele>462</ele>
        <time>2021-10-31T10:01:59.803Z</time>
      </trkpt>
      <trkpt lat="44.01073" lon="2.57164">
        <ele>462</ele>
        <time>2021-10-31T10:02:00.803Z</time>
      </trkpt>
      <trkpt lat="44.01072" lon="2.57163">
        <ele>462</ele>
        <time>2021-10-31T10:02:01.803Z</time>
      </trkpt>
      <trkpt lat="44.01071" lon="2.57162">
        <ele>462</ele>
        <time>2021-10-31T10:02:02.803Z</time>
      </trkpt>
      <trkpt lat="44.0107" lon="2.57161">
        <ele>462</ele>
        <time>2021-10-31T10:02:03.803Z</time>
      </trkpt>
      <trkpt lat="44.01069" lon="2.5716">
        <ele>462</ele>
        <time>2021-10-31T10:02:04.803Z</time>
      </trkpt>
      <trkpt lat="44.01068" lon="2.5716">
        <ele>462</ele>
        <time>2021-10-31T10:02:05.803Z</time>
      </trkpt>
      <trkpt lat="44.01067" lon="2.57159">
        <ele>462</ele>
        <time>2021-10-31T10:02:06.803Z</time>
      </trkpt>
      <trkpt lat="44.01066" lon="2.57157">
        <ele>462</ele>
        <time>2021-10-31T10:02:07.803Z</time>
      </trkpt>
      <trkpt lat="44.01065" lon="2.57156">
        <ele>462</ele>
        <time>2021-10-31T10:02:08.803Z</time>
      </trkpt>
      <trkpt lat="44.01064" lon="2.57156">
        <ele>462</ele>
        <time>2021-10-31T10:02:09.803Z</time>
      </trkpt>
      <trkpt lat="44.01063" lon="2.57155">
        <ele>462</ele>
        <time>2021-10-31T10:02:10.803Z</time>
      </trkpt>
      <trkpt lat="44.01062" lon="2.57154">
        <ele>462</ele>
        <time>2021-10-31T10:02:11.803Z</time>
      </trkpt>
      <trkpt lat="44.01061" lon="2.57153">
        <ele>462</ele>
        <time>2021-10-31T10:02:12.803Z</time>
      </trkpt>
      <trkpt lat="44.0106" lon="2.57152">
        <ele>462</ele>
        <time>2021-10-31T10:02:13.803Z</time>
      </trkpt>
      <trkpt lat="44.01059" lon="2.57151">
        <ele>462</ele>
        <time>2021-10-31T10:02:14.803Z</time>
      </trkpt>
      <trkpt lat="44.01058" lon="2.5715">
        <ele>462</ele>
        <time>2021-10-31T10:02:15.803Z</time>
      </trkpt>
      <trkpt lat="44.01057" lon="2.57149">
        <ele>462</ele>
        <time>2021-10-31T10:02:16.803Z</time>
      </trkpt>
      <trkpt lat="44.01056" lon="2.57148">
        <ele>462</ele>
        <time>2021-10-31T10:02:17.803Z</time>
      </trkpt>
      <trkpt lat="44.01055" lon="2.57147">
        <ele>462</ele>
        <time>2021-10-31T10:02:18.803Z</time>
      </trkpt>
      <trkpt lat="44.01054" lon="2.57146">
        <ele>461</ele>
        <time>2021-10-31T10:02:19.803Z</time>
      </trkpt>
      <trkpt lat="44.01053" lon="2.57146">
        <ele>461</ele>
        <time>2021-10-31T10:02:20.803Z</time>
      </trkpt>
      <trkpt lat="44.01052" lon="2.57145">
        <ele>461</ele>
        <time>2021-10-31T10:02:21.803Z</time>
      </trkpt>
      <trkpt lat="44.01051" lon="2.57144">
        <ele>461</ele>
        <time>2021-10-31T10:02:22.803Z</time>
      </trkpt>
      <trkpt lat="44.01049" lon="2.57143">
        <ele>461</ele>
        <time>2021-10-31T10:02:23.803Z</time>
      </trkpt>
      <trkpt lat="44.01048" lon="2.57143">
        <ele>461</ele>
        <time>2021-10-31T10:02:24.803Z</time>
      </trkpt>
      <trkpt lat="44.01047" lon="2.57142">
        <ele>461</ele>
        <time>2021-10-31T10:02:25.803Z</time>
      </trkpt>
      <trkpt lat="44.01047" lon="2.57141">
        <ele>461</ele>
        <time>2021-10-31T10:02:26.803Z</time>
      </trkpt>
      <trkpt lat="44.01045" lon="2.57141">
        <ele>460</ele>
        <time>2021-10-31T10:02:27.803Z</time>
      </trkpt>
      <trkpt lat="44.01044" lon="2.57141">
        <ele>460</ele>
        <time>2021-10-31T10:02:28.803Z</time>
      </trkpt>
      <trkpt lat="44.01043" lon="2.5714">
        <ele>460</ele>
        <time>2021-10-31T10:02:29.803Z</time>
      </trkpt>
      <trkpt lat="44.01042" lon="2.5714">
        <ele>460</ele>
        <time>2021-10-31T10:02:30.803Z</time>
      </trkpt>
      <trkpt lat="44.01041" lon="2.5714">
        <ele>460</ele>
        <time>2021-10-31T10:02:31.803Z</time>
      </trkpt>
      <trkpt lat="44.0104" lon="2.57139">
        <ele>460</ele>
        <time>2021-10-31T10:02:32.803Z</time>
      </trkpt>
      <trkpt lat="44.01039" lon="2.57139">
        <ele>460</ele>
        <time>2021-10-31T10:02:33.803Z</time>
      </trkpt>
      <trkpt lat="44.01038" lon="2.57138">
        <ele>460</ele>
        <time>2021-10-31T10:02:34.803Z</time>
      </trkpt>
      <trkpt lat="44.01037" lon="2.57138">
        <ele>460</ele>
        <time>2021-10-31T10:02:35.803Z</time>
      </trkpt>
      <trkpt lat="44.01036" lon="2.57137">
        <ele>460</ele>
        <time>2021-10-31T10:02:36.803Z</time>
      </trkpt>
      <trkpt lat="44.01035" lon="2.57137">
        <ele>459</ele>
        <time>2021-10-31T10:02:37.803Z</time>
      </trkpt>
      <trkpt lat="44.01034" lon="2.57136">
        <ele>459</ele>
        <time>2021-10-31T10:02:38.803Z</time>
      </trkpt>
      <trkpt lat="44.01033" lon="2.57135">
        <ele>459</ele>
        <time>2021-10-31T10:02:39.803Z</time>
      </trkpt>
      <trkpt lat="44.01032" lon="2.57135">
        <ele>459</ele>
        <time>2021-10-31T10:02:40.803Z</time>
      </trkpt>
      <trkpt lat="44.01031" lon="2.57134">
        <ele>459</ele>
        <time>2021-10-31T10:02:41.803Z</time>
      </trkpt>
      <trkpt lat="44.0103" lon="2.57133">
        <ele>458</ele>
        <time>2021-10-31T10:02:42.803Z</time>
      </trkpt>
      <trkpt lat="44.0103" lon="2.57132">
        <ele>458</ele>
        <time>2021-10-31T10:02:43.803Z</time>
      </trkpt>
      <trkpt lat="44.01029" lon="2.57131">
        <ele>458</ele>
        <time>2021-10-31T10:02:44.803Z</time>
      </trkpt>
      <trkpt lat="44.01028" lon="2.5713">
        <ele>458</ele>
        <time>2021-10-31T10:02:45.803Z</time>
      </trkpt>
      <trkpt lat="44.01027" lon="2.57129">
        <ele>457</ele>
        <time>2021-10-31T10:02:46.803Z</time>
      </trkpt>
      <trkpt lat="44.01027" lon="2.57128">
        <ele>457</ele>
        <time>2021-10-31T10:02:47.803Z</time>
      </trkpt>
      <trkpt lat="44.01026" lon="2.57127">
        <ele>457</ele>
        <time>2021-10-31T10:02:48.803Z</time>
      </trkpt>
      <trkpt lat="44.01025" lon="2.57126">
        <ele>456</ele>
        <time>2021-10-31T10:02:49.803Z</time>
      </trkpt>
      <trkpt lat="44.01025" lon="2.57125">
        <ele>456</ele>
        <time>2021-10-31T10:02:50.803Z</time>
      </trkpt>
      <trkpt lat="44.01024" lon="2.57124">
        <ele>456</ele>
        <time>2021-10-31T10:02:51.803Z</time>
      </trkpt>
      <trkpt lat="44.01024" lon="2.57123">
        <ele>455</ele>
        <time>2021-10-31T10:02:52.803Z</time>
      </trkpt>
      <trkpt lat="44.01023" lon="2.57122">
        <ele>455</ele>
        <time>2021-10-31T10:02:53.803Z</time>
      </trkpt>
      <trkpt lat="44.01022" lon="2.57121">
        <ele>455</ele>
        <time>2021-10-31T10:02:54.803Z</time>
      </trkpt>
      <trkpt lat="44.01022" lon="2.5712">
        <ele>455</ele>
        <time>2021-10-31T10:02:55.803Z</time>
      </trkpt>
      <trkpt lat="44.01022" lon="2.57119">
        <ele>455</ele>
        <time>2021-10-31T10:02:56.803Z</time>
      </trkpt>
      <trkpt lat="44.01021" lon="2.57118">
        <ele>455</ele>
        <time>2021-10-31T10:02:57.803Z</time>
      </trkpt>
      <trkpt lat="44.01021" lon="2.57116">
        <ele>454</ele>
        <time>2021-10-31T10:02:58.803Z</time>
      </trkpt>
      <trkpt lat="44.01021" lon="2.57115">
        <ele>454</ele>
        <time>2021-10-31T10:02:59.803Z</time>
      </trkpt>
      <trkpt lat="44.0102" lon="2.57115">
        <ele>454</ele>
        <time>2021-10-31T10:03:00.803Z</time>
      </trkpt>
      <trkpt lat="44.0102" lon="2.57113">
        <ele>454</ele>
        <time>2021-10-31T10:03:01.803Z</time>
      </trkpt>
      <trkpt lat="44.01019" lon="2.57112">
        <ele>454</ele>
        <time>2021-10-31T10:03:02.803Z</time>
      </trkpt>
      <trkpt lat="44.01019" lon="2.57111">
        <ele>453</ele>
        <time>2021-10-31T10:03:03.803Z</time>
      </trkpt>
      <trkpt lat="44.01019" lon="2.57109">
        <ele>453</ele>
        <time>2021-10-31T10:03:04.803Z</time>
      </trkpt>
      <trkpt lat="44.01019" lon="2.57108">
        <ele>453</ele>
        <time>2021-10-31T10:03:05.803Z</time>
      </trkpt>
      <trkpt lat="44.01018" lon="2.57106">
        <ele>453</ele>
        <time>2021-10-31T10:03:06.803Z</time>
      </trkpt>
      <trkpt lat="44.01018" lon="2.57105">
        <ele>453</ele>
        <time>2021-10-31T10:03:07.803Z</time>
      </trkpt>
      <trkpt lat="44.01018" lon="2.57103">
        <ele>453</ele>
        <time>2021-10-31T10:03:08.803Z</time>
      </trkpt>
      <trkpt lat="44.01018" lon="2.57102">
        <ele>453</ele>
        <time>2021-10-31T10:03:09.803Z</time>
      </trkpt>
      <trkpt lat="44.01017" lon="2.57101">
        <ele>453</ele>
        <time>2021-10-31T10:03:10.803Z</time>
      </trkpt>
      <trkpt lat="44.01017" lon="2.57099">
        <ele>453</ele>
        <time>2021-10-31T10:03:11.803Z</time>
      </trkpt>
      <trkpt lat="44.01017" lon="2.57098">
        <ele>453</ele>
        <time>2021-10-31T10:03:12.803Z</time>
      </trkpt>
      <trkpt lat="44.01017" lon="2.57096">
        <ele>453</ele>
        <time>2021-10-31T10:03:13.803Z</time>
      </trkpt>
      <trkpt lat="44.01017" lon="2.57095">
        <ele>453</ele>
        <time>2021-10-31T10:03:14.803Z</time>
      </trkpt>
      <trkpt lat="44.01016" lon="2.57093">
        <ele>453</ele>
        <time>2021-10-31T10:03:15.803Z</time>
      </trkpt>
      <trkpt lat="44.01016" lon="2.57091">
        <ele>453</ele>
        <time>2021-10-31T10:03:16.803Z</time>
      </trkpt>
      <trkpt lat="44.01015" lon="2.5709">
        <ele>453</ele>
        <time>2021-10-31T10:03:17.803Z</time>
      </trkpt>
      <trkpt lat="44.01015" lon="2.57088">
        <ele>453</ele>
        <time>2021-10-31T10:03:18.803Z</time>
      </trkpt>
      <trkpt lat="44.01014" lon="2.57086">
        <ele>453</ele>
        <time>2021-10-31T10:03:19.803Z</time>
      </trkpt>
      <trkpt lat="44.01014" lon="2.57085">
        <ele>453</ele>
        <time>2021-10-31T10:03:20.803Z</time>
      </trkpt>
      <trkpt lat="44.01013" lon="2.57083">
        <ele>453</ele>
        <time>2021-10-31T10:03:21.803Z</time>
      </trkpt>
      <trkpt lat="44.01013" lon="2.57081">
        <ele>453</ele>
        <time>2021-10-31T10:03:22.803Z</time>
      </trkpt>
      <trkpt lat="44.01013" lon="2.5708">
        <ele>452</ele>
        <time>2021-10-31T10:03:23.803Z</time>
      </trkpt>
      <trkpt lat="44.01012" lon="2.57078">
        <ele>452</ele>
        <time>2021-10-31T10:03:24.803Z</time>
      </trkpt>
      <trkpt lat="44.01012" lon="2.57077">
        <ele>452</ele>
        <time>2021-10-31T10:03:25.803Z</time>
      </trkpt>
      <trkpt lat="44.01012" lon="2.57075">
        <ele>452</ele>
        <time>2021-10-31T10:03:26.803Z</time>
      </trkpt>
      <trkpt lat="44.01012" lon="2.57074">
        <ele>452</ele>
        <time>2021-10-31T10:03:27.803Z</time>
      </trkpt>
      <trkpt lat="44.01012" lon="2.57073">
        <ele>452</ele>
        <time>2021-10-31T10:03:28.803Z</time>
      </trkpt>
      <trkpt lat="44.01012" lon="2.57071">
        <ele>452</ele>
        <time>2021-10-31T10:03:29.803Z</time>
      </trkpt>
      <trkpt lat="44.01012" lon="2.5707">
        <ele>452</ele>
        <time>2021-10-31T10:03:30.803Z</time>
      </trkpt>
      <trkpt lat="44.01012" lon="2.57068">
        <ele>452</ele>
        <time>2021-10-31T10:03:31.803Z</time>
      </trkpt>
      <trkpt lat="44.01012" lon="2.57067">
        <ele>452</ele>
        <time>2021-10-31T10:03:32.803Z</time>
      </trkpt>
      <trkpt lat="44.01011" lon="2.57065">
        <ele>452</ele>
        <time>2021-10-31T10:03:33.803Z</time>
      </trkpt>
      <trkpt lat="44.01011" lon="2.57064">
        <ele>452</ele>
        <time>2021-10-31T10:03:34.803Z</time>
      </trkpt>
      <trkpt lat="44.01011" lon="2.57062">
        <ele>452</ele>
        <time>2021-10-31T10:03:35.803Z</time>
      </trkpt>
      <trkpt lat="44.01011" lon="2.5706">
        <ele>451</ele>
        <time>2021-10-31T10:03:36.803Z</time>
      </trkpt>
      <trkpt lat="44.01011" lon="2.57059">
        <ele>451</ele>
        <time>2021-10-31T10:03:37.803Z</time>
      </trkpt>
      <trkpt lat="44.0101" lon="2.57058">
        <ele>451</ele>
        <time>2021-10-31T10:03:38.803Z</time>
      </trkpt>
      <trkpt lat="44.0101" lon="2.57056">
        <ele>451</ele>
        <time>2021-10-31T10:03:39.803Z</time>
      </trkpt>
      <trkpt lat="44.0101" lon="2.57055">
        <ele>451</ele>
        <time>2021-10-31T10:03:40.803Z</time>
      </trkpt>
      <trkpt lat="44.0101" lon="2.57054">
        <ele>451</ele>
        <time>2021-10-31T10:03:41.803Z</time>
      </trkpt>
      <trkpt lat="44.01009" lon="2.57052">
        <ele>451</ele>
        <time>2021-10-31T10:03:42.803Z</time>
      </trkpt>
      <trkpt lat="44.01009" lon="2.57051">
        <ele>451</ele>
        <time>2021-10-31T10:03:43.803Z</time>
      </trkpt>
      <trkpt lat="44.01008" lon="2.5705">
        <ele>450</ele>
        <time>2021-10-31T10:03:44.803Z</time>
      </trkpt>
      <trkpt lat="44.01008" lon="2.57049">
        <ele>450</ele>
        <time>2021-10-31T10:03:45.803Z</time>
      </trkpt>
      <trkpt lat="44.01008" lon="2.57048">
        <ele>450</ele>
        <time>2021-10-31T10:03:46.803Z</time>
      </trkpt>
      <trkpt lat="44.01008" lon="2.57046">
        <ele>450</ele>
        <time>2021-10-31T10:03:47.803Z</time>
      </trkpt>
      <trkpt lat="44.01008" lon="2.57045">
        <ele>450</ele>
        <time>2021-10-31T10:03:48.803Z</time>
      </trkpt>
      <trkpt lat="44.01008" lon="2.57043">
        <ele>450</ele>
        <time>2021-10-31T10:03:49.803Z</time>
      </trkpt>
      <trkpt lat="44.01008" lon="2.57042">
        <ele>450</ele>
        <time>2021-10-31T10:03:50.803Z</time>
      </trkpt>
      <trkpt lat="44.01007" lon="2.5704">
        <ele>450</ele>
        <time>2021-10-31T10:03:51.803Z</time>
      </trkpt>
      <trkpt lat="44.01007" lon="2.57039">
        <ele>450</ele>
        <time>2021-10-31T10:03:52.803Z</time>
      </trkpt>
      <trkpt lat="44.01007" lon="2.57038">
        <ele>450</ele>
        <time>2021-10-31T10:03:53.803Z</time>
      </trkpt>
      <trkpt lat="44.01006" lon="2.57036">
        <ele>450</ele>
        <time>2021-10-31T10:03:54.803Z</time>
      </trkpt>
      <trkpt lat="44.01006" lon="2.57035">
        <ele>450</ele>
        <time>2021-10-31T10:03:55.803Z</time>
      </trkpt>
      <trkpt lat="44.01006" lon="2.57033">
        <ele>450</ele>
        <time>2021-10-31T10:03:56.803Z</time>
      </trkpt>
      <trkpt lat="44.01006" lon="2.57031">
        <ele>449</ele>
        <time>2021-10-31T10:03:57.803Z</time>
      </trkpt>
      <trkpt lat="44.01007" lon="2.5703">
        <ele>449</ele>
        <time>2021-10-31T10:03:58.803Z</time>
      </trkpt>
      <trkpt lat="44.01007" lon="2.57028">
        <ele>449</ele>
        <time>2021-10-31T10:03:59.803Z</time>
      </trkpt>
      <trkpt lat="44.01007" lon="2.57027">
        <ele>449</ele>
        <time>2021-10-31T10:04:00.803Z</time>
      </trkpt>
      <trkpt lat="44.01007" lon="2.57025">
        <ele>449</ele>
        <time>2021-10-31T10:04:01.803Z</time>
      </trkpt>
      <trkpt lat="44.01007" lon="2.57023">
        <ele>449</ele>
        <time>2021-10-31T10:04:02.803Z</time>
      </trkpt>
      <trkpt lat="44.01007" lon="2.57022">
        <ele>449</ele>
        <time>2021-10-31T10:04:03.803Z</time>
      </trkpt>
      <trkpt lat="44.01007" lon="2.57021">
        <ele>449</ele>
        <time>2021-10-31T10:04:04.803Z</time>
      </trkpt>
      <trkpt lat="44.01007" lon="2.57019">
        <ele>449</ele>
        <time>2021-10-31T10:04:05.803Z</time>
      </trkpt>
      <trkpt lat="44.01007" lon="2.57017">
        <ele>448</ele>
        <time>2021-10-31T10:04:06.803Z</time>
      </trkpt>
      <trkpt lat="44.01007" lon="2.57016">
        <ele>448</ele>
        <time>2021-10-31T10:04:07.803Z</time>
      </trkpt>
      <trkpt lat="44.01007" lon="2.57014">
        <ele>448</ele>
        <time>2021-10-31T10:04:08.803Z</time>
      </trkpt>
      <trkpt lat="44.01008" lon="2.57012">
        <ele>448</ele>
        <time>2021-10-31T10:04:09.803Z</time>
      </trkpt>
      <trkpt lat="44.01007" lon="2.57011">
        <ele>447</ele>
        <time>2021-10-31T10:04:10.803Z</time>
      </trkpt>
      <trkpt lat="44.01007" lon="2.57009">
        <ele>447</ele>
        <time>2021-10-31T10:04:11.803Z</time>
      </trkpt>
      <trkpt lat="44.01007" lon="2.57007">
        <ele>447</ele>
        <time>2021-10-31T10:04:12.803Z</time>
      </trkpt>
      <trkpt lat="44.01007" lon="2.57006">
        <ele>447</ele>
        <time>2021-10-31T10:04:13.803Z</time>
      </trkpt>
      <trkpt lat="44.01008" lon="2.57004">
        <ele>446</ele>
        <time>2021-10-31T10:04:14.803Z</time>
      </trkpt>
      <trkpt lat="44.01008" lon="2.57002">
        <ele>446</ele>
        <time>2021-10-31T10:04:15.803Z</time>
      </trkpt>
      <trkpt lat="44.01008" lon="2.57001">
        <ele>446</ele>
        <time>2021-10-31T10:04:16.803Z</time>
      </trkpt>
      <trkpt lat="44.01008" lon="2.56999">
        <ele>446</ele>
        <time>2021-10-31T10:04:17.803Z</time>
      </trkpt>
      <trkpt lat="44.01008" lon="2.56998">
        <ele>446</ele>
        <time>2021-10-31T10:04:18.803Z</time>
      </trkpt>
      <trkpt lat="44.01008" lon="2.56996">
        <ele>445</ele>
        <time>2021-10-31T10:04:19.803Z</time>
      </trkpt>
      <trkpt lat="44.01008" lon="2.56994">
        <ele>445</ele>
        <time>2021-10-31T10:04:20.803Z</time>
      </trkpt>
      <trkpt lat="44.01008" lon="2.56992">
        <ele>445</ele>
        <time>2021-10-31T10:04:21.803Z</time>
      </trkpt>
      <trkpt lat="44.01008" lon="2.56991">
        <ele>445</ele>
        <time>2021-10-31T10:04:22.803Z</time>
      </trkpt>
      <trkpt lat="44.01008" lon="2.56989">
        <ele>445</ele>
        <time>2021-10-31T10:04:23.803Z</time>
      </trkpt>
      <trkpt lat="44.01008" lon="2.56988">
        <ele>445</ele>
        <time>2021-10-31T10:04:24.803Z</time>
      </trkpt>
      <trkpt lat="44.01008" lon="2.56986">
        <ele>444</ele>
        <time>2021-10-31T10:04:25.803Z</time>
      </trkpt>
      <trkpt lat="44.01008" lon="2.56985">
        <ele>444</ele>
        <time>2021-10-31T10:04:26.803Z</time>
      </trkpt>
      <trkpt lat="44.01008" lon="2.56983">
        <ele>444</ele>
        <time>2021-10-31T10:04:27.803Z</time>
      </trkpt>
      <trkpt lat="44.01008" lon="2.56981">
        <ele>444</ele>
        <time>2021-10-31T10:04:28.803Z</time>
      </trkpt>
      <trkpt lat="44.01007" lon="2.5698">
        <ele>444</ele>
        <time>2021-10-31T10:04:29.803Z</time>
      </trkpt>
      <trkpt lat="44.01007" lon="2.56978">
        <ele>444</ele>
        <time>2021-10-31T10:04:30.803Z</time>
      </trkpt>
      <trkpt lat="44.01007" lon="2.56976">
        <ele>443</ele>
        <time>2021-10-31T10:04:31.803Z</time>
      </trkpt>
      <trkpt lat="44.01007" lon="2.56973">
        <ele>443</ele>
        <time>2021-10-31T10:04:32.803Z</time>
      </trkpt>
      <trkpt lat="44.01006" lon="2.56971">
        <ele>443</ele>
        <time>2021-10-31T10:04:33.803Z</time>
      </trkpt>
      <trkpt lat="44.01006" lon="2.5697">
        <ele>443</ele>
        <time>2021-10-31T10:04:34.803Z</time>
      </trkpt>
      <trkpt lat="44.01006" lon="2.56968">
        <ele>443</ele>
        <time>2021-10-31T10:04:35.803Z</time>
      </trkpt>
      <trkpt lat="44.01006" lon="2.56966">
        <ele>442</ele>
        <time>2021-10-31T10:04:36.803Z</time>
      </trkpt>
      <trkpt lat="44.01005" lon="2.56964">
        <ele>442</ele>
        <time>2021-10-31T10:04:37.803Z</time>
      </trkpt>
      <trkpt lat="44.01005" lon="2.56962">
        <ele>441</ele>
        <time>2021-10-31T10:04:38.803Z</time>
      </trkpt>
      <trkpt lat="44.01005" lon="2.56961">
        <ele>441</ele>
        <time>2021-10-31T10:04:39.803Z</time>
      </trkpt>
      <trkpt lat="44.01004" lon="2.56959">
        <ele>441</ele>
        <time>2021-10-31T10:04:40.803Z</time>
      </trkpt>
      <trkpt lat="44.01004" lon="2.56957">
        <ele>440</ele>
        <time>2021-10-31T10:04:41.803Z</time>
      </trkpt>
      <trkpt lat="44.01004" lon="2.56956">
        <ele>440</ele>
        <time>2021-10-31T10:04:42.803Z</time>
      </trkpt>
      <trkpt lat="44.01004" lon="2.56954">
        <ele>440</ele>
        <time>2021-10-31T10:04:43.803Z</time>
      </trkpt>
      <trkpt lat="44.01003" lon="2.56953">
        <ele>440</ele>
        <time>2021-10-31T10:04:44.803Z</time>
      </trkpt>
      <trkpt lat="44.01003" lon="2.56951">
        <ele>440</ele>
        <time>2021-10-31T10:04:45.803Z</time>
      </trkpt>
      <trkpt lat="44.01003" lon="2.5695">
        <ele>439</ele>
        <time>2021-10-31T10:04:46.803Z</time>
      </trkpt>
      <trkpt lat="44.01003" lon="2.56948">
        <ele>439</ele>
        <time>2021-10-31T10:04:47.803Z</time>
      </trkpt>
      <trkpt lat="44.01002" lon="2.56947">
        <ele>439</ele>
        <time>2021-10-31T10:04:48.803Z</time>
      </trkpt>
      <trkpt lat="44.01002" lon="2.56946">
        <ele>439</ele>
        <time>2021-10-31T10:04:49.803Z</time>
      </trkpt>
      <trkpt lat="44.01002" lon="2.56944">
        <ele>438</ele>
        <time>2021-10-31T10:04:50.803Z</time>
      </trkpt>
      <trkpt lat="44.01001" lon="2.56943">
        <ele>438</ele>
        <time>2021-10-31T10:04:51.803Z</time>
      </trkpt>
      <trkpt lat="44.01001" lon="2.56942">
        <ele>438</ele>
        <time>2021-10-31T10:04:52.803Z</time>
      </trkpt>
      <trkpt lat="44.01001" lon="2.56941">
        <ele>437</ele>
        <time>2021-10-31T10:04:53.803Z</time>
      </trkpt>
      <trkpt lat="44.01" lon="2.5694">
        <ele>437</ele>
        <time>2021-10-31T10:04:54.803Z</time>
      </trkpt>
      <trkpt lat="44.01" lon="2.56939">
        <ele>437</ele>
        <time>2021-10-31T10:04:55.803Z</time>
      </trkpt>
      <trkpt lat="44.01" lon="2.56938">
        <ele>437</ele>
        <time>2021-10-31T10:04:56.803Z</time>
      </trkpt>
      <trkpt lat="44.00999" lon="2.56937">
        <ele>437</ele>
        <time>2021-10-31T10:04:57.803Z</time>
      </trkpt>
      <trkpt lat="44.00999" lon="2.56935">
        <ele>436</ele>
        <time>2021-10-31T10:04:58.803Z</time>
      </trkpt>
      <trkpt lat="44.00998" lon="2.56934">
        <ele>436</ele>
        <time>2021-10-31T10:04:59.803Z</time>
      </trkpt>
      <trkpt lat="44.00998" lon="2.56933">
        <ele>436</ele>
        <time>2021-10-31T10:05:00.803Z</time>
      </trkpt>
      <trkpt lat="44.00998" lon="2.56932">
        <ele>436</ele>
        <time>2021-10-31T10:05:01.803Z</time>
      </trkpt>
      <trkpt lat="44.00998" lon="2.56931">
        <ele>435</ele>
        <time>2021-10-31T10:05:02.803Z</time>
      </trkpt>
      <trkpt lat="44.00997" lon="2.5693">
        <ele>435</ele>
        <time>2021-10-31T10:05:03.803Z</time>
      </trkpt>
      <trkpt lat="44.00997" lon="2.56929">
        <ele>435</ele>
        <time>2021-10-31T10:05:04.803Z</time>
      </trkpt>
      <trkpt lat="44.00997" lon="2.56928">
        <ele>435</ele>
        <time>2021-10-31T10:05:05.803Z</time>
      </trkpt>
      <trkpt lat="44.00997" lon="2.56927">
        <ele>434</ele>
        <time>2021-10-31T10:05:06.803Z</time>
      </trkpt>
      <trkpt lat="44.00996" lon="2.56926">
        <ele>434</ele>
        <time>2021-10-31T10:05:07.803Z</time>
      </trkpt>
      <trkpt lat="44.00996" lon="2.56925">
        <ele>434</ele>
        <time>2021-10-31T10:05:08.803Z</time>
      </trkpt>
      <trkpt lat="44.00996" lon="2.56923">
        <ele>434</ele>
        <time>2021-10-31T10:05:09.803Z</time>
      </trkpt>
      <trkpt lat="44.00995" lon="2.56922">
        <ele>433</ele>
        <time>2021-10-31T10:05:10.803Z</time>
      </trkpt>
      <trkpt lat="44.00995" lon="2.56921">
        <ele>433</ele>
        <time>2021-10-31T10:05:11.803Z</time>
      </trkpt>
      <trkpt lat="44.00995" lon="2.56919">
        <ele>433</ele>
        <time>2021-10-31T10:05:12.803Z</time>
      </trkpt>
      <trkpt lat="44.00995" lon="2.56918">
        <ele>433</ele>
        <time>2021-10-31T10:05:13.803Z</time>
      </trkpt>
      <trkpt lat="44.00994" lon="2.56917">
        <ele>433</ele>
        <time>2021-10-31T10:05:14.803Z</time>
      </trkpt>
      <trkpt lat="44.00994" lon="2.56915">
        <ele>433</ele>
        <time>2021-10-31T10:05:15.803Z</time>
      </trkpt>
      <trkpt lat="44.00994" lon="2.56914">
        <ele>432</ele>
        <time>2021-10-31T10:05:16.803Z</time>
      </trkpt>
      <trkpt lat="44.00993" lon="2.56913">
        <ele>432</ele>
        <time>2021-10-31T10:05:17.803Z</time>
      </trkpt>
      <trkpt lat="44.00993" lon="2.56912">
        <ele>432</ele>
        <time>2021-10-31T10:05:18.803Z</time>
      </trkpt>
      <trkpt lat="44.00992" lon="2.56911">
        <ele>432</ele>
        <time>2021-10-31T10:05:19.803Z</time>
      </trkpt>
      <trkpt lat="44.00992" lon="2.56909">
        <ele>432</ele>
        <time>2021-10-31T10:05:20.803Z</time>
      </trkpt>
      <trkpt lat="44.00992" lon="2.56908">
        <ele>432</ele>
        <time>2021-10-31T10:05:21.803Z</time>
      </trkpt>
      <trkpt lat="44.00991" lon="2.56907">
        <ele>432</ele>
        <time>2021-10-31T10:05:22.803Z</time>
      </trkpt>
      <trkpt lat="44.0099" lon="2.56906">
        <ele>431</ele>
        <time>2021-10-31T10:05:23.803Z</time>
      </trkpt>
      <trkpt lat="44.0099" lon="2.56905">
        <ele>431</ele>
        <time>2021-10-31T10:05:24.803Z</time>
      </trkpt>
      <trkpt lat="44.00989" lon="2.56903">
        <ele>431</ele>
        <time>2021-10-31T10:05:25.803Z</time>
      </trkpt>
      <trkpt lat="44.00989" lon="2.56902">
        <ele>431</ele>
        <time>2021-10-31T10:05:26.803Z</time>
      </trkpt>
      <trkpt lat="44.00988" lon="2.56901">
        <ele>431</ele>
        <time>2021-10-31T10:05:27.803Z</time>
      </trkpt>
      <trkpt lat="44.00987" lon="2.569">
        <ele>431</ele>
        <time>2021-10-31T10:05:28.803Z</time>
      </trkpt>
      <trkpt lat="44.00987" lon="2.56899">
        <ele>431</ele>
        <time>2021-10-31T10:05:29.803Z</time>
      </trkpt>
      <trkpt lat="44.00986" lon="2.56898">
        <ele>431</ele>
        <time>2021-10-31T10:05:30.803Z</time>
      </trkpt>
      <trkpt lat="44.00985" lon="2.56897">
        <ele>431</ele>
        <time>2021-10-31T10:05:31.803Z</time>
      </trkpt>
      <trkpt lat="44.00985" lon="2.56896">
        <ele>431</ele>
        <time>2021-10-31T10:05:32.803Z</time>
      </trkpt>
      <trkpt lat="44.00984" lon="2.56895">
        <ele>431</ele>
        <time>2021-10-31T10:05:33.803Z</time>
      </trkpt>
      <trkpt lat="44.00983" lon="2.56894">
        <ele>430</ele>
        <time>2021-10-31T10:05:34.803Z</time>
      </trkpt>
      <trkpt lat="44.00983" lon="2.56893">
        <ele>430</ele>
        <time>2021-10-31T10:05:35.803Z</time>
      </trkpt>
      <trkpt lat="44.00982" lon="2.56892">
        <ele>430</ele>
        <time>2021-10-31T10:05:36.803Z</time>
      </trkpt>
      <trkpt lat="44.00981" lon="2.56891">
        <ele>430</ele>
        <time>2021-10-31T10:05:37.803Z</time>
      </trkpt>
      <trkpt lat="44.0098" lon="2.5689">
        <ele>430</ele>
        <time>2021-10-31T10:05:38.803Z</time>
      </trkpt>
      <trkpt lat="44.0098" lon="2.56888">
        <ele>430</ele>
        <time>2021-10-31T10:05:39.803Z</time>
      </trkpt>
      <trkpt lat="44.00979" lon="2.56887">
        <ele>430</ele>
        <time>2021-10-31T10:05:40.803Z</time>
      </trkpt>
      <trkpt lat="44.00978" lon="2.56886">
        <ele>430</ele>
        <time>2021-10-31T10:05:41.803Z</time>
      </trkpt>
      <trkpt lat="44.00978" lon="2.56885">
        <ele>430</ele>
        <time>2021-10-31T10:05:42.803Z</time>
      </trkpt>
      <trkpt lat="44.00977" lon="2.56884">
        <ele>430</ele>
        <time>2021-10-31T10:05:43.803Z</time>
      </trkpt>
      <trkpt lat="44.00976" lon="2.56883">
        <ele>430</ele>
        <time>2021-10-31T10:05:44.803Z</time>
      </trkpt>
      <trkpt lat="44.00975" lon="2.56882">
        <ele>430</ele>
        <time>2021-10-31T10:05:45.803Z</time>
      </trkpt>
      <trkpt lat="44.00974" lon="2.56881">
        <ele>430</ele>
        <time>2021-10-31T10:05:46.803Z</time>
      </trkpt>
      <trkpt lat="44.00973" lon="2.5688">
        <ele>430</ele>
        <time>2021-10-31T10:05:47.803Z</time>
      </trkpt>
      <trkpt lat="44.00973" lon="2.5688">
        <ele>429</ele>
        <time>2021-10-31T10:05:48.803Z</time>
      </trkpt>
      <trkpt lat="44.00972" lon="2.56879">
        <ele>429</ele>
        <time>2021-10-31T10:05:49.803Z</time>
      </trkpt>
      <trkpt lat="44.00971" lon="2.56878">
        <ele>429</ele>
        <time>2021-10-31T10:05:50.803Z</time>
      </trkpt>
      <trkpt lat="44.0097" lon="2.56877">
        <ele>429</ele>
        <time>2021-10-31T10:05:51.803Z</time>
      </trkpt>
      <trkpt lat="44.00969" lon="2.56876">
        <ele>429</ele>
        <time>2021-10-31T10:05:52.803Z</time>
      </trkpt>
      <trkpt lat="44.00968" lon="2.56876">
        <ele>429</ele>
        <time>2021-10-31T10:05:53.803Z</time>
      </trkpt>
      <trkpt lat="44.00967" lon="2.56875">
        <ele>429</ele>
        <time>2021-10-31T10:05:54.803Z</time>
      </trkpt>
      <trkpt lat="44.00966" lon="2.56874">
        <ele>429</ele>
        <time>2021-10-31T10:05:55.803Z</time>
      </trkpt>
      <trkpt lat="44.00965" lon="2.56873">
        <ele>429</ele>
        <time>2021-10-31T10:05:56.803Z</time>
      </trkpt>
      <trkpt lat="44.00965" lon="2.56872">
        <ele>429</ele>
        <time>2021-10-31T10:05:57.803Z</time>
      </trkpt>
      <trkpt lat="44.00964" lon="2.56871">
        <ele>429</ele>
        <time>2021-10-31T10:05:58.803Z</time>
      </trkpt>
      <trkpt lat="44.00963" lon="2.5687">
        <ele>429</ele>
        <time>2021-10-31T10:05:59.803Z</time>
      </trkpt>
      <trkpt lat="44.00962" lon="2.5687">
        <ele>429</ele>
        <time>2021-10-31T10:06:00.803Z</time>
      </trkpt>
      <trkpt lat="44.00961" lon="2.56869">
        <ele>429</ele>
        <time>2021-10-31T10:06:01.803Z</time>
      </trkpt>
      <trkpt lat="44.00961" lon="2.56868">
        <ele>429</ele>
        <time>2021-10-31T10:06:02.803Z</time>
      </trkpt>
      <trkpt lat="44.0096" lon="2.56868">
        <ele>429</ele>
        <time>2021-10-31T10:06:03.803Z</time>
      </trkpt>
      <trkpt lat="44.00959" lon="2.56867">
        <ele>429</ele>
        <time>2021-10-31T10:06:04.803Z</time>
      </trkpt>
      <trkpt lat="44.00959" lon="2.56867">
        <ele>429</ele>
        <time>2021-10-31T10:06:05.803Z</time>
      </trkpt>
      <trkpt lat="44.00958" lon="2.56866">
        <ele>429</ele>
        <time>2021-10-31T10:06:06.803Z</time>
      </trkpt>
      <trkpt lat="44.00958" lon="2.56866">
        <ele>429</ele>
        <time>2021-10-31T10:06:07.803Z</time>
      </trkpt>
      <trkpt lat="44.00957" lon="2.56865">
        <ele>429</ele>
        <time>2021-10-31T10:06:08.803Z</time>
      </trkpt>
      <trkpt lat="44.00957" lon="2.56865">
        <ele>429</ele>
        <time>2021-10-31T10:06:09.803Z</time>
      </trkpt>
      <trkpt lat="44.00956" lon="2.56864">
        <ele>429</ele>
        <time>2021-10-31T10:06:10.803Z</time>
      </trkpt>
      <trkpt lat="44.00955" lon="2.56864">
        <ele>429</ele>
        <time>2021-10-31T10:06:11.803Z</time>
      </trkpt>
      <trkpt lat="44.00954" lon="2.56863">
        <ele>429</ele>
        <time>2021-10-31T10:06:12.803Z</time>
      </trkpt>
      <trkpt lat="44.00954" lon="2.56862">
        <ele>429</ele>
        <time>2021-10-31T10:06:13.803Z</time>
      </trkpt>
      <trkpt lat="44.00953" lon="2.56862">
        <ele>428</ele>
        <time>2021-10-31T10:06:14.803Z</time>
      </trkpt>
      <trkpt lat="44.00952" lon="2.56861">
        <ele>428</ele>
        <time>2021-10-31T10:06:15.803Z</time>
      </trkpt>
      <trkpt lat="44.00952" lon="2.5686">
        <ele>428</ele>
        <time>2021-10-31T10:06:16.803Z</time>
      </trkpt>
      <trkpt lat="44.00951" lon="2.5686">
        <ele>428</ele>
        <time>2021-10-31T10:06:17.803Z</time>
      </trkpt>
      <trkpt lat="44.0095" lon="2.56859">
        <ele>428</ele>
        <time>2021-10-31T10:06:18.803Z</time>
      </trkpt>
      <trkpt lat="44.00949" lon="2.56859">
        <ele>428</ele>
        <time>2021-10-31T10:06:19.803Z</time>
      </trkpt>
      <trkpt lat="44.00949" lon="2.56858">
        <ele>427</ele>
        <time>2021-10-31T10:06:20.803Z</time>
      </trkpt>
      <trkpt lat="44.00948" lon="2.56858">
        <ele>427</ele>
        <time>2021-10-31T10:06:21.803Z</time>
      </trkpt>
      <trkpt lat="44.00947" lon="2.56857">
        <ele>427</ele>
        <time>2021-10-31T10:06:22.803Z</time>
      </trkpt>
      <trkpt lat="44.00947" lon="2.56856">
        <ele>427</ele>
        <time>2021-10-31T10:06:23.803Z</time>
      </trkpt>
      <trkpt lat="44.00946" lon="2.56856">
        <ele>426</ele>
        <time>2021-10-31T10:06:24.803Z</time>
      </trkpt>
      <trkpt lat="44.00945" lon="2.56855">
        <ele>426</ele>
        <time>2021-10-31T10:06:25.803Z</time>
      </trkpt>
      <trkpt lat="44.00944" lon="2.56854">
        <ele>426</ele>
        <time>2021-10-31T10:06:26.803Z</time>
      </trkpt>
      <trkpt lat="44.00944" lon="2.56853">
        <ele>426</ele>
        <time>2021-10-31T10:06:27.803Z</time>
      </trkpt>
      <trkpt lat="44.00943" lon="2.56852">
        <ele>425</ele>
        <time>2021-10-31T10:06:28.803Z</time>
      </trkpt>
      <trkpt lat="44.00943" lon="2.56851">
        <ele>425</ele>
        <time>2021-10-31T10:06:29.803Z</time>
      </trkpt>
      <trkpt lat="44.00942" lon="2.5685">
        <ele>425</ele>
        <time>2021-10-31T10:06:30.803Z</time>
      </trkpt>
      <trkpt lat="44.00942" lon="2.56849">
        <ele>425</ele>
        <time>2021-10-31T10:06:31.803Z</time>
      </trkpt>
      <trkpt lat="44.00941" lon="2.56848">
        <ele>425</ele>
        <time>2021-10-31T10:06:32.803Z</time>
      </trkpt>
      <trkpt lat="44.00941" lon="2.56847">
        <ele>424</ele>
        <time>2021-10-31T10:06:33.803Z</time>
      </trkpt>
      <trkpt lat="44.00941" lon="2.56846">
        <ele>424</ele>
        <time>2021-10-31T10:06:34.803Z</time>
      </trkpt>
      <trkpt lat="44.0094" lon="2.56845">
        <ele>424</ele>
        <time>2021-10-31T10:06:35.803Z</time>
      </trkpt>
      <trkpt lat="44.0094" lon="2.56844">
        <ele>424</ele>
        <time>2021-10-31T10:06:36.803Z</time>
      </trkpt>
      <trkpt lat="44.00939" lon="2.56843">
        <ele>424</ele>
        <time>2021-10-31T10:06:37.803Z</time>
      </trkpt>
      <trkpt lat="44.00939" lon="2.56842">
        <ele>423</ele>
        <time>2021-10-31T10:06:38.803Z</time>
      </trkpt>
      <trkpt lat="44.00939" lon="2.56841">
        <ele>423</ele>
        <time>2021-10-31T10:06:39.803Z</time>
      </trkpt>
      <trkpt lat="44.00938" lon="2.5684">
        <ele>423</ele>
        <time>2021-10-31T10:06:40.803Z</time>
      </trkpt>
      <trkpt lat="44.00938" lon="2.56839">
        <ele>423</ele>
        <time>2021-10-31T10:06:41.803Z</time>
      </trkpt>
      <trkpt lat="44.00938" lon="2.56837">
        <ele>423</ele>
        <time>2021-10-31T10:06:42.803Z</time>
      </trkpt>
      <trkpt lat="44.00937" lon="2.56836">
        <ele>423</ele>
        <time>2021-10-31T10:06:43.803Z</time>
      </trkpt>
      <trkpt lat="44.00937" lon="2.56834">
        <ele>423</ele>
        <time>2021-10-31T10:06:44.803Z</time>
      </trkpt>
      <trkpt lat="44.00937" lon="2.56833">
        <ele>423</ele>
        <time>2021-10-31T10:06:45.803Z</time>
      </trkpt>
      <trkpt lat="44.00936" lon="2.56832">
        <ele>423</ele>
        <time>2021-10-31T10:06:46.803Z</time>
      </trkpt>
      <trkpt lat="44.00936" lon="2.5683">
        <ele>423</ele>
        <time>2021-10-31T10:06:47.803Z</time>
      </trkpt>
      <trkpt lat="44.00936" lon="2.56829">
        <ele>423</ele>
        <time>2021-10-31T10:06:48.803Z</time>
      </trkpt>
      <trkpt lat="44.00936" lon="2.56828">
        <ele>422</ele>
        <time>2021-10-31T10:06:49.803Z</time>
      </trkpt>
      <trkpt lat="44.00935" lon="2.56827">
        <ele>422</ele>
        <time>2021-10-31T10:06:50.803Z</time>
      </trkpt>
      <trkpt lat="44.00935" lon="2.56825">
        <ele>422</ele>
        <time>2021-10-31T10:06:51.803Z</time>
      </trkpt>
      <trkpt lat="44.00934" lon="2.56824">
        <ele>422</ele>
        <time>2021-10-31T10:06:52.803Z</time>
      </trkpt>
      <trkpt lat="44.00934" lon="2.56823">
        <ele>422</ele>
        <time>2021-10-31T10:06:53.803Z</time>
      </trkpt>
      <trkpt lat="44.00933" lon="2.56821">
        <ele>422</ele>
        <time>2021-10-31T10:06:54.803Z</time>
      </trkpt>
      <trkpt lat="44.00933" lon="2.5682">
        <ele>421</ele>
        <time>2021-10-31T10:06:55.803Z</time>
      </trkpt>
      <trkpt lat="44.00932" lon="2.56819">
        <ele>421</ele>
        <time>2021-10-31T10:06:56.803Z</time>
      </trkpt>
      <trkpt lat="44.00932" lon="2.56818">
        <ele>421</ele>
        <time>2021-10-31T10:06:57.803Z</time>
      </trkpt>
      <trkpt lat="44.00931" lon="2.56817">
        <ele>421</ele>
        <time>2021-10-31T10:06:58.803Z</time>
      </trkpt>
      <trkpt lat="44.00931" lon="2.56816">
        <ele>421</ele>
        <time>2021-10-31T10:06:59.803Z</time>
      </trkpt>
      <trkpt lat="44.0093" lon="2.56815">
        <ele>421</ele>
        <time>2021-10-31T10:07:00.803Z</time>
      </trkpt>
      <trkpt lat="44.0093" lon="2.56814">
        <ele>420</ele>
        <time>2021-10-31T10:07:01.803Z</time>
      </trkpt>
      <trkpt lat="44.0093" lon="2.56812">
        <ele>420</ele>
        <time>2021-10-31T10:07:02.803Z</time>
      </trkpt>
      <trkpt lat="44.00929" lon="2.56811">
        <ele>420</ele>
        <time>2021-10-31T10:07:03.803Z</time>
      </trkpt>
      <trkpt lat="44.00929" lon="2.56809">
        <ele>420</ele>
        <time>2021-10-31T10:07:04.803Z</time>
      </trkpt>
      <trkpt lat="44.00928" lon="2.56808">
        <ele>419</ele>
        <time>2021-10-31T10:07:05.803Z</time>
      </trkpt>
      <trkpt lat="44.00928" lon="2.56807">
        <ele>419</ele>
        <time>2021-10-31T10:07:06.803Z</time>
      </trkpt>
      <trkpt lat="44.00927" lon="2.56806">
        <ele>419</ele>
        <time>2021-10-31T10:07:07.803Z</time>
      </trkpt>
      <trkpt lat="44.00927" lon="2.56804">
        <ele>418</ele>
        <time>2021-10-31T10:07:08.803Z</time>
      </trkpt>
      <trkpt lat="44.00926" lon="2.56803">
        <ele>418</ele>
        <time>2021-10-31T10:07:09.803Z</time>
      </trkpt>
      <trkpt lat="44.00926" lon="2.56802">
        <ele>418</ele>
        <time>2021-10-31T10:07:10.803Z</time>
      </trkpt>
      <trkpt lat="44.00925" lon="2.568">
        <ele>418</ele>
        <time>2021-10-31T10:07:11.803Z</time>
      </trkpt>
      <trkpt lat="44.00924" lon="2.56799">
        <ele>417</ele>
        <time>2021-10-31T10:07:12.803Z</time>
      </trkpt>
      <trkpt lat="44.00924" lon="2.56798">
        <ele>417</ele>
        <time>2021-10-31T10:07:13.803Z</time>
      </trkpt>
      <trkpt lat="44.00923" lon="2.56796">
        <ele>417</ele>
        <time>2021-10-31T10:07:14.803Z</time>
      </trkpt>
      <trkpt lat="44.00923" lon="2.56795">
        <ele>417</ele>
        <time>2021-10-31T10:07:15.803Z</time>
      </trkpt>
      <trkpt lat="44.00922" lon="2.56794">
        <ele>416</ele>
        <time>2021-10-31T10:07:16.803Z</time>
      </trkpt>
      <trkpt lat="44.00921" lon="2.56793">
        <ele>416</ele>
        <time>2021-10-31T10:07:17.803Z</time>
      </trkpt>
      <trkpt lat="44.00921" lon="2.56792">
        <ele>416</ele>
        <time>2021-10-31T10:07:18.803Z</time>
      </trkpt>
      <trkpt lat="44.0092" lon="2.56791">
        <ele>416</ele>
        <time>2021-10-31T10:07:19.803Z</time>
      </trkpt>
      <trkpt lat="44.0092" lon="2.56789">
        <ele>416</ele>
        <time>2021-10-31T10:07:20.803Z</time>
      </trkpt>
      <trkpt lat="44.00919" lon="2.56788">
        <ele>415</ele>
        <time>2021-10-31T10:07:21.803Z</time>
      </trkpt>
      <trkpt lat="44.00919" lon="2.56787">
        <ele>415</ele>
        <time>2021-10-31T10:07:22.803Z</time>
      </trkpt>
      <trkpt lat="44.00918" lon="2.56786">
        <ele>415</ele>
        <time>2021-10-31T10:07:23.803Z</time>
      </trkpt>
      <trkpt lat="44.00917" lon="2.56785">
        <ele>415</ele>
        <time>2021-10-31T10:07:24.803Z</time>
      </trkpt>
      <trkpt lat="44.00916" lon="2.56784">
        <ele>415</ele>
        <time>2021-10-31T10:07:25.803Z</time>
      </trkpt>
      <trkpt lat="44.00916" lon="2.56782">
        <ele>415</ele>
        <time>2021-10-31T10:07:26.803Z</time>
      </trkpt>
      <trkpt lat="44.00915" lon="2.56781">
        <ele>415</ele>
        <time>2021-10-31T10:07:27.803Z</time>
      </trkpt>
      <trkpt lat="44.00914" lon="2.5678">
        <ele>414</ele>
        <time>2021-10-31T10:07:28.803Z</time>
      </trkpt>
      <trkpt lat="44.00914" lon="2.56778">
        <ele>414</ele>
        <time>2021-10-31T10:07:29.803Z</time>
      </trkpt>
      <trkpt lat="44.00913" lon="2.56777">
        <ele>414</ele>
        <time>2021-10-31T10:07:30.803Z</time>
      </trkpt>
      <trkpt lat="44.00912" lon="2.56776">
        <ele>414</ele>
        <time>2021-10-31T10:07:31.803Z</time>
      </trkpt>
      <trkpt lat="44.00912" lon="2.56774">
        <ele>414</ele>
        <time>2021-10-31T10:07:32.803Z</time>
      </trkpt>
      <trkpt lat="44.00911" lon="2.56773">
        <ele>414</ele>
        <time>2021-10-31T10:07:33.803Z</time>
      </trkpt>
      <trkpt lat="44.0091" lon="2.56772">
        <ele>414</ele>
        <time>2021-10-31T10:07:34.803Z</time>
      </trkpt>
      <trkpt lat="44.00909" lon="2.56772">
        <ele>414</ele>
        <time>2021-10-31T10:07:35.803Z</time>
      </trkpt>
      <trkpt lat="44.00908" lon="2.56771">
        <ele>414</ele>
        <time>2021-10-31T10:07:36.803Z</time>
      </trkpt>
      <trkpt lat="44.00908" lon="2.5677">
        <ele>413</ele>
        <time>2021-10-31T10:07:37.803Z</time>
      </trkpt>
      <trkpt lat="44.00907" lon="2.56769">
        <ele>413</ele>
        <time>2021-10-31T10:07:38.803Z</time>
      </trkpt>
      <trkpt lat="44.00906" lon="2.56768">
        <ele>413</ele>
        <time>2021-10-31T10:07:39.803Z</time>
      </trkpt>
      <trkpt lat="44.00905" lon="2.56767">
        <ele>413</ele>
        <time>2021-10-31T10:07:40.803Z</time>
      </trkpt>
      <trkpt lat="44.00905" lon="2.56765">
        <ele>413</ele>
        <time>2021-10-31T10:07:41.803Z</time>
      </trkpt>
      <trkpt lat="44.00904" lon="2.56764">
        <ele>413</ele>
        <time>2021-10-31T10:07:42.803Z</time>
      </trkpt>
      <trkpt lat="44.00903" lon="2.56763">
        <ele>413</ele>
        <time>2021-10-31T10:07:43.803Z</time>
      </trkpt>
      <trkpt lat="44.00902" lon="2.56762">
        <ele>413</ele>
        <time>2021-10-31T10:07:44.803Z</time>
      </trkpt>
      <trkpt lat="44.00902" lon="2.56761">
        <ele>413</ele>
        <time>2021-10-31T10:07:45.803Z</time>
      </trkpt>
      <trkpt lat="44.00901" lon="2.5676">
        <ele>413</ele>
        <time>2021-10-31T10:07:46.803Z</time>
      </trkpt>
      <trkpt lat="44.009" lon="2.56759">
        <ele>413</ele>
        <time>2021-10-31T10:07:47.803Z</time>
      </trkpt>
      <trkpt lat="44.00899" lon="2.56758">
        <ele>413</ele>
        <time>2021-10-31T10:07:48.803Z</time>
      </trkpt>
      <trkpt lat="44.00899" lon="2.56757">
        <ele>413</ele>
        <time>2021-10-31T10:07:49.803Z</time>
      </trkpt>
      <trkpt lat="44.00898" lon="2.56756">
        <ele>413</ele>
        <time>2021-10-31T10:07:50.803Z</time>
      </trkpt>
      <trkpt lat="44.00897" lon="2.56755">
        <ele>412</ele>
        <time>2021-10-31T10:07:51.803Z</time>
      </trkpt>
      <trkpt lat="44.00897" lon="2.56754">
        <ele>412</ele>
        <time>2021-10-31T10:07:52.803Z</time>
      </trkpt>
      <trkpt lat="44.00896" lon="2.56753">
        <ele>412</ele>
        <time>2021-10-31T10:07:53.803Z</time>
      </trkpt>
      <trkpt lat="44.00895" lon="2.56752">
        <ele>412</ele>
        <time>2021-10-31T10:07:54.803Z</time>
      </trkpt>
      <trkpt lat="44.00894" lon="2.56751">
        <ele>412</ele>
        <time>2021-10-31T10:07:55.803Z</time>
      </trkpt>
      <trkpt lat="44.00893" lon="2.5675">
        <ele>412</ele>
        <time>2021-10-31T10:07:56.803Z</time>
      </trkpt>
      <trkpt lat="44.00893" lon="2.5675">
        <ele>412</ele>
        <time>2021-10-31T10:07:57.803Z</time>
      </trkpt>
      <trkpt lat="44.00892" lon="2.56749">
        <ele>412</ele>
        <time>2021-10-31T10:07:58.803Z</time>
      </trkpt>
      <trkpt lat="44.00891" lon="2.56748">
        <ele>412</ele>
        <time>2021-10-31T10:07:59.803Z</time>
      </trkpt>
      <trkpt lat="44.0089" lon="2.56747">
        <ele>411</ele>
        <time>2021-10-31T10:08:00.803Z</time>
      </trkpt>
      <trkpt lat="44.00889" lon="2.56746">
        <ele>411</ele>
        <time>2021-10-31T10:08:01.803Z</time>
      </trkpt>
      <trkpt lat="44.00888" lon="2.56745">
        <ele>411</ele>
        <time>2021-10-31T10:08:02.803Z</time>
      </trkpt>
      <trkpt lat="44.00888" lon="2.56744">
        <ele>411</ele>
        <time>2021-10-31T10:08:03.803Z</time>
      </trkpt>
      <trkpt lat="44.00887" lon="2.56743">
        <ele>411</ele>
        <time>2021-10-31T10:08:04.803Z</time>
      </trkpt>
      <trkpt lat="44.00886" lon="2.56742">
        <ele>411</ele>
        <time>2021-10-31T10:08:05.803Z</time>
      </trkpt>
      <trkpt lat="44.00885" lon="2.56741">
        <ele>411</ele>
        <time>2021-10-31T10:08:06.803Z</time>
      </trkpt>
      <trkpt lat="44.00884" lon="2.5674">
        <ele>411</ele>
        <time>2021-10-31T10:08:07.803Z</time>
      </trkpt>
      <trkpt lat="44.00884" lon="2.56739">
        <ele>411</ele>
        <time>2021-10-31T10:08:08.803Z</time>
      </trkpt>
      <trkpt lat="44.00883" lon="2.56738">
        <ele>410</ele>
        <time>2021-10-31T10:08:09.803Z</time>
      </trkpt>
      <trkpt lat="44.00882" lon="2.56737">
        <ele>410</ele>
        <time>2021-10-31T10:08:10.803Z</time>
      </trkpt>
      <trkpt lat="44.00881" lon="2.56736">
        <ele>410</ele>
        <time>2021-10-31T10:08:11.803Z</time>
      </trkpt>
      <trkpt lat="44.00881" lon="2.56735">
        <ele>410</ele>
        <time>2021-10-31T10:08:12.803Z</time>
      </trkpt>
      <trkpt lat="44.0088" lon="2.56735">
        <ele>410</ele>
        <time>2021-10-31T10:08:13.803Z</time>
      </trkpt>
      <trkpt lat="44.00879" lon="2.56734">
        <ele>410</ele>
        <time>2021-10-31T10:08:14.803Z</time>
      </trkpt>
      <trkpt lat="44.00878" lon="2.56733">
        <ele>409</ele>
        <time>2021-10-31T10:08:15.803Z</time>
      </trkpt>
      <trkpt lat="44.00878" lon="2.56732">
        <ele>409</ele>
        <time>2021-10-31T10:08:16.803Z</time>
      </trkpt>
      <trkpt lat="44.00877" lon="2.56731">
        <ele>409</ele>
        <time>2021-10-31T10:08:17.803Z</time>
      </trkpt>
      <trkpt lat="44.00876" lon="2.56731">
        <ele>409</ele>
        <time>2021-10-31T10:08:18.803Z</time>
      </trkpt>
      <trkpt lat="44.00875" lon="2.5673">
        <ele>409</ele>
        <time>2021-10-31T10:08:19.803Z</time>
      </trkpt>
      <trkpt lat="44.00875" lon="2.56729">
        <ele>409</ele>
        <time>2021-10-31T10:08:20.803Z</time>
      </trkpt>
      <trkpt lat="44.00874" lon="2.56728">
        <ele>409</ele>
        <time>2021-10-31T10:08:21.803Z</time>
      </trkpt>
      <trkpt lat="44.00873" lon="2.56727">
        <ele>408</ele>
        <time>2021-10-31T10:08:22.803Z</time>
      </trkpt>
      <trkpt lat="44.00873" lon="2.56726">
        <ele>408</ele>
        <time>2021-10-31T10:08:23.803Z</time>
      </trkpt>
      <trkpt lat="44.00872" lon="2.56725">
        <ele>408</ele>
        <time>2021-10-31T10:08:24.803Z</time>
      </trkpt>
      <trkpt lat="44.00872" lon="2.56725">
        <ele>408</ele>
        <time>2021-10-31T10:08:25.803Z</time>
      </trkpt>
      <trkpt lat="44.00871" lon="2.56724">
        <ele>408</ele>
        <time>2021-10-31T10:08:26.803Z</time>
      </trkpt>
      <trkpt lat="44.0087" lon="2.56723">
        <ele>408</ele>
        <time>2021-10-31T10:08:27.803Z</time>
      </trkpt>
      <trkpt lat="44.0087" lon="2.56722">
        <ele>408</ele>
        <time>2021-10-31T10:08:28.803Z</time>
      </trkpt>
      <trkpt lat="44.00869" lon="2.56721">
        <ele>408</ele>
        <time>2021-10-31T10:08:29.803Z</time>
      </trkpt>
      <trkpt lat="44.00868" lon="2.5672">
        <ele>408</ele>
        <time>2021-10-31T10:08:30.803Z</time>
      </trkpt>
      <trkpt lat="44.00867" lon="2.5672">
        <ele>408</ele>
        <time>2021-10-31T10:08:31.803Z</time>
      </trkpt>
      <trkpt lat="44.00867" lon="2.56719">
        <ele>408</ele>
        <time>2021-10-31T10:08:32.803Z</time>
      </trkpt>
      <trkpt lat="44.00866" lon="2.56718">
        <ele>408</ele>
        <time>2021-10-31T10:08:33.803Z</time>
      </trkpt>
      <trkpt lat="44.00866" lon="2.56717">
        <ele>408</ele>
        <time>2021-10-31T10:08:34.803Z</time>
      </trkpt>
      <trkpt lat="44.00865" lon="2.56716">
        <ele>408</ele>
        <time>2021-10-31T10:08:35.803Z</time>
      </trkpt>
      <trkpt lat="44.00864" lon="2.56715">
        <ele>408</ele>
        <time>2021-10-31T10:08:36.803Z</time>
      </trkpt>
      <trkpt lat="44.00864" lon="2.56714">
        <ele>408</ele>
        <time>2021-10-31T10:08:37.803Z</time>
      </trkpt>
      <trkpt lat="44.00863" lon="2.56713">
        <ele>408</ele>
        <time>2021-10-31T10:08:38.803Z</time>
      </trkpt>
      <trkpt lat="44.00863" lon="2.56712">
        <ele>408</ele>
        <time>2021-10-31T10:08:39.803Z</time>
      </trkpt>
      <trkpt lat="44.00862" lon="2.56711">
        <ele>408</ele>
        <time>2021-10-31T10:08:40.803Z</time>
      </trkpt>
      <trkpt lat="44.00862" lon="2.5671">
        <ele>407</ele>
        <time>2021-10-31T10:08:41.803Z</time>
      </trkpt>
      <trkpt lat="44.00861" lon="2.56709">
        <ele>407</ele>
        <time>2021-10-31T10:08:42.803Z</time>
      </trkpt>
      <trkpt lat="44.00861" lon="2.56708">
        <ele>407</ele>
        <time>2021-10-31T10:08:43.803Z</time>
      </trkpt>
      <trkpt lat="44.0086" lon="2.56707">
        <ele>407</ele>
        <time>2021-10-31T10:08:44.803Z</time>
      </trkpt>
      <trkpt lat="44.0086" lon="2.56706">
        <ele>407</ele>
        <time>2021-10-31T10:08:45.803Z</time>
      </trkpt>
      <trkpt lat="44.0086" lon="2.56705">
        <ele>407</ele>
        <time>2021-10-31T10:08:46.803Z</time>
      </trkpt>
      <trkpt lat="44.00859" lon="2.56705">
        <ele>407</ele>
        <time>2021-10-31T10:08:47.803Z</time>
      </trkpt>
      <trkpt lat="44.00859" lon="2.56704">
        <ele>406</ele>
        <time>2021-10-31T10:08:48.803Z</time>
      </trkpt>
      <trkpt lat="44.00859" lon="2.56703">
        <ele>406</ele>
        <time>2021-10-31T10:08:49.803Z</time>
      </trkpt>
      <trkpt lat="44.00859" lon="2.56701">
        <ele>406</ele>
        <time>2021-10-31T10:08:50.803Z</time>
      </trkpt>
      <trkpt lat="44.00859" lon="2.567">
        <ele>406</ele>
        <time>2021-10-31T10:08:51.803Z</time>
      </trkpt>
      <trkpt lat="44.00858" lon="2.56699">
        <ele>406</ele>
        <time>2021-10-31T10:08:52.803Z</time>
      </trkpt>
      <trkpt lat="44.00858" lon="2.56698">
        <ele>406</ele>
        <time>2021-10-31T10:08:53.803Z</time>
      </trkpt>
      <trkpt lat="44.00858" lon="2.56697">
        <ele>406</ele>
        <time>2021-10-31T10:08:54.803Z</time>
      </trkpt>
      <trkpt lat="44.00857" lon="2.56696">
        <ele>406</ele>
        <time>2021-10-31T10:08:55.803Z</time>
      </trkpt>
      <trkpt lat="44.00857" lon="2.56694">
        <ele>406</ele>
        <time>2021-10-31T10:08:56.803Z</time>
      </trkpt>
      <trkpt lat="44.00857" lon="2.56693">
        <ele>405</ele>
        <time>2021-10-31T10:08:57.803Z</time>
      </trkpt>
      <trkpt lat="44.00857" lon="2.56692">
        <ele>405</ele>
        <time>2021-10-31T10:08:58.803Z</time>
      </trkpt>
      <trkpt lat="44.00857" lon="2.56691">
        <ele>405</ele>
        <time>2021-10-31T10:08:59.803Z</time>
      </trkpt>
      <trkpt lat="44.00857" lon="2.5669">
        <ele>405</ele>
        <time>2021-10-31T10:09:00.803Z</time>
      </trkpt>
      <trkpt lat="44.00856" lon="2.56689">
        <ele>405</ele>
        <time>2021-10-31T10:09:01.803Z</time>
      </trkpt>
      <trkpt lat="44.00856" lon="2.56688">
        <ele>405</ele>
        <time>2021-10-31T10:09:02.803Z</time>
      </trkpt>
      <trkpt lat="44.00855" lon="2.56687">
        <ele>405</ele>
        <time>2021-10-31T10:09:03.803Z</time>
      </trkpt>
      <trkpt lat="44.00855" lon="2.56686">
        <ele>405</ele>
        <time>2021-10-31T10:09:04.803Z</time>
      </trkpt>
      <trkpt lat="44.00855" lon="2.56684">
        <ele>405</ele>
        <time>2021-10-31T10:09:05.803Z</time>
      </trkpt>
      <trkpt lat="44.00854" lon="2.56683">
        <ele>405</ele>
        <time>2021-10-31T10:09:06.803Z</time>
      </trkpt>
      <trkpt lat="44.00854" lon="2.56682">
        <ele>405</ele>
        <time>2021-10-31T10:09:07.803Z</time>
      </trkpt>
      <trkpt lat="44.00854" lon="2.56681">
        <ele>405</ele>
        <time>2021-10-31T10:09:08.803Z</time>
      </trkpt>
      <trkpt lat="44.00853" lon="2.5668">
        <ele>405</ele>
        <time>2021-10-31T10:09:09.803Z</time>
      </trkpt>
      <trkpt lat="44.00853" lon="2.56679">
        <ele>405</ele>
        <time>2021-10-31T10:09:10.803Z</time>
      </trkpt>
      <trkpt lat="44.00852" lon="2.56677">
        <ele>404</ele>
        <time>2021-10-31T10:09:11.803Z</time>
      </trkpt>
      <trkpt lat="44.00852" lon="2.56676">
        <ele>404</ele>
        <time>2021-10-31T10:09:12.803Z</time>
      </trkpt>
      <trkpt lat="44.00852" lon="2.56675">
        <ele>404</ele>
        <time>2021-10-31T10:09:13.803Z</time>
      </trkpt>
      <trkpt lat="44.00852" lon="2.56674">
        <ele>404</ele>
        <time>2021-10-31T10:09:14.803Z</time>
      </trkpt>
      <trkpt lat="44.00851" lon="2.56672">
        <ele>404</ele>
        <time>2021-10-31T10:09:15.803Z</time>
      </trkpt>
      <trkpt lat="44.00851" lon="2.56671">
        <ele>404</ele>
        <time>2021-10-31T10:09:16.803Z</time>
      </trkpt>
      <trkpt lat="44.0085" lon="2.5667">
        <ele>404</ele>
        <time>2021-10-31T10:09:17.803Z</time>
      </trkpt>
      <trkpt lat="44.0085" lon="2.56668">
        <ele>403</ele>
        <time>2021-10-31T10:09:18.803Z</time>
      </trkpt>
      <trkpt lat="44.00849" lon="2.56667">
        <ele>403</ele>
        <time>2021-10-31T10:09:19.803Z</time>
      </trkpt>
      <trkpt lat="44.00849" lon="2.56666">
        <ele>403</ele>
        <time>2021-10-31T10:09:20.803Z</time>
      </trkpt>
      <trkpt lat="44.00849" lon="2.56664">
        <ele>403</ele>
        <time>2021-10-31T10:09:21.803Z</time>
      </trkpt>
      <trkpt lat="44.00848" lon="2.56663">
        <ele>403</ele>
        <time>2021-10-31T10:09:22.803Z</time>
      </trkpt>
      <trkpt lat="44.00848" lon="2.56662">
        <ele>403</ele>
        <time>2021-10-31T10:09:23.803Z</time>
      </trkpt>
      <trkpt lat="44.00848" lon="2.56661">
        <ele>403</ele>
        <time>2021-10-31T10:09:24.803Z</time>
      </trkpt>
      <trkpt lat="44.00848" lon="2.5666">
        <ele>403</ele>
        <time>2021-10-31T10:09:25.803Z</time>
      </trkpt>
      <trkpt lat="44.00847" lon="2.56659">
        <ele>403</ele>
        <time>2021-10-31T10:09:26.803Z</time>
      </trkpt>
      <trkpt lat="44.00847" lon="2.56658">
        <ele>403</ele>
        <time>2021-10-31T10:09:27.803Z</time>
      </trkpt>
      <trkpt lat="44.00847" lon="2.56657">
        <ele>403</ele>
        <time>2021-10-31T10:09:28.803Z</time>
      </trkpt>
      <trkpt lat="44.00847" lon="2.56655">
        <ele>403</ele>
        <time>2021-10-31T10:09:29.803Z</time>
      </trkpt>
      <trkpt lat="44.00847" lon="2.56654">
        <ele>403</ele>
        <time>2021-10-31T10:09:30.803Z</time>
      </trkpt>
      <trkpt lat="44.00846" lon="2.56653">
        <ele>403</ele>
        <time>2021-10-31T10:09:31.803Z</time>
      </trkpt>
      <trkpt lat="44.00846" lon="2.56652">
        <ele>403</ele>
        <time>2021-10-31T10:09:32.803Z</time>
      </trkpt>
      <trkpt lat="44.00846" lon="2.56651">
        <ele>403</ele>
        <time>2021-10-31T10:09:33.803Z</time>
      </trkpt>
      <trkpt lat="44.00846" lon="2.56649">
        <ele>403</ele>
        <time>2021-10-31T10:09:34.803Z</time>
      </trkpt>
      <trkpt lat="44.00846" lon="2.56648">
        <ele>402</ele>
        <time>2021-10-31T10:09:35.803Z</time>
      </trkpt>
      <trkpt lat="44.00846" lon="2.56647">
        <ele>402</ele>
        <time>2021-10-31T10:09:36.803Z</time>
      </trkpt>
      <trkpt lat="44.00845" lon="2.56646">
        <ele>402</ele>
        <time>2021-10-31T10:09:37.803Z</time>
      </trkpt>
      <trkpt lat="44.00845" lon="2.56645">
        <ele>402</ele>
        <time>2021-10-31T10:09:38.803Z</time>
      </trkpt>
      <trkpt lat="44.00845" lon="2.56644">
        <ele>402</ele>
        <time>2021-10-31T10:09:39.803Z</time>
      </trkpt>
      <trkpt lat="44.00845" lon="2.56643">
        <ele>402</ele>
        <time>2021-10-31T10:09:40.803Z</time>
      </trkpt>
      <trkpt lat="44.00845" lon="2.56642">
        <ele>401</ele>
        <time>2021-10-31T10:09:41.803Z</time>
      </trkpt>
      <trkpt lat="44.00845" lon="2.56641">
        <ele>401</ele>
        <time>2021-10-31T10:09:42.803Z</time>
      </trkpt>
      <trkpt lat="44.00845" lon="2.5664">
        <ele>401</ele>
        <time>2021-10-31T10:09:43.803Z</time>
      </trkpt>
      <trkpt lat="44.00844" lon="2.56639">
        <ele>401</ele>
        <time>2021-10-31T10:09:44.803Z</time>
      </trkpt>
      <trkpt lat="44.00844" lon="2.56638">
        <ele>401</ele>
        <time>2021-10-31T10:09:45.803Z</time>
      </trkpt>
      <trkpt lat="44.00844" lon="2.56636">
        <ele>401</ele>
        <time>2021-10-31T10:09:46.803Z</time>
      </trkpt>
      <trkpt lat="44.00844" lon="2.56635">
        <ele>401</ele>
        <time>2021-10-31T10:09:47.803Z</time>
      </trkpt>
      <trkpt lat="44.00844" lon="2.56634">
        <ele>401</ele>
        <time>2021-10-31T10:09:48.803Z</time>
      </trkpt>
      <trkpt lat="44.00844" lon="2.56633">
        <ele>401</ele>
        <time>2021-10-31T10:09:49.803Z</time>
      </trkpt>
      <trkpt lat="44.00844" lon="2.56631">
        <ele>400</ele>
        <time>2021-10-31T10:09:50.803Z</time>
      </trkpt>
      <trkpt lat="44.00844" lon="2.5663">
        <ele>400</ele>
        <time>2021-10-31T10:09:51.803Z</time>
      </trkpt>
      <trkpt lat="44.00844" lon="2.56629">
        <ele>400</ele>
        <time>2021-10-31T10:09:52.803Z</time>
      </trkpt>
      <trkpt lat="44.00843" lon="2.56628">
        <ele>400</ele>
        <time>2021-10-31T10:09:53.803Z</time>
      </trkpt>
      <trkpt lat="44.00843" lon="2.56627">
        <ele>400</ele>
        <time>2021-10-31T10:09:54.803Z</time>
      </trkpt>
      <trkpt lat="44.00843" lon="2.56626">
        <ele>400</ele>
        <time>2021-10-31T10:09:55.803Z</time>
      </trkpt>
      <trkpt lat="44.00843" lon="2.56625">
        <ele>400</ele>
        <time>2021-10-31T10:09:56.803Z</time>
      </trkpt>
      <trkpt lat="44.00843" lon="2.56624">
        <ele>400</ele>
        <time>2021-10-31T10:09:57.803Z</time>
      </trkpt>
      <trkpt lat="44.00843" lon="2.56623">
        <ele>400</ele>
        <time>2021-10-31T10:09:58.803Z</time>
      </trkpt>
      <trkpt lat="44.00843" lon="2.56622">
        <ele>400</ele>
        <time>2021-10-31T10:09:59.803Z</time>
      </trkpt>
      <trkpt lat="44.00843" lon="2.56621">
        <ele>400</ele>
        <time>2021-10-31T10:10:00.803Z</time>
      </trkpt>
      <trkpt lat="44.00843" lon="2.5662">
        <ele>400</ele>
        <time>2021-10-31T10:10:01.803Z</time>
      </trkpt>
      <trkpt lat="44.00843" lon="2.56619">
        <ele>400</ele>
        <time>2021-10-31T10:10:02.803Z</time>
      </trkpt>
      <trkpt lat="44.00842" lon="2.56617">
        <ele>400</ele>
        <time>2021-10-31T10:10:03.803Z</time>
      </trkpt>
      <trkpt lat="44.00842" lon="2.56616">
        <ele>400</ele>
        <time>2021-10-31T10:10:04.803Z</time>
      </trkpt>
      <trkpt lat="44.00842" lon="2.56615">
        <ele>399</ele>
        <time>2021-10-31T10:10:05.803Z</time>
      </trkpt>
      <trkpt lat="44.00842" lon="2.56613">
        <ele>399</ele>
        <time>2021-10-31T10:10:06.803Z</time>
      </trkpt>
      <trkpt lat="44.00842" lon="2.56611">
        <ele>399</ele>
        <time>2021-10-31T10:10:07.803Z</time>
      </trkpt>
      <trkpt lat="44.00842" lon="2.5661">
        <ele>399</ele>
        <time>2021-10-31T10:10:08.803Z</time>
      </trkpt>
      <trkpt lat="44.00842" lon="2.56609">
        <ele>399</ele>
        <time>2021-10-31T10:10:09.803Z</time>
      </trkpt>
      <trkpt lat="44.00842" lon="2.56607">
        <ele>399</ele>
        <time>2021-10-31T10:10:10.803Z</time>
      </trkpt>
      <trkpt lat="44.00842" lon="2.56606">
        <ele>399</ele>
        <time>2021-10-31T10:10:11.803Z</time>
      </trkpt>
      <trkpt lat="44.00842" lon="2.56605">
        <ele>399</ele>
        <time>2021-10-31T10:10:12.803Z</time>
      </trkpt>
      <trkpt lat="44.00842" lon="2.56603">
        <ele>399</ele>
        <time>2021-10-31T10:10:13.803Z</time>
      </trkpt>
      <trkpt lat="44.00841" lon="2.56602">
        <ele>399</ele>
        <time>2021-10-31T10:10:14.803Z</time>
      </trkpt>
      <trkpt lat="44.00841" lon="2.56601">
        <ele>399</ele>
        <time>2021-10-31T10:10:15.803Z</time>
      </trkpt>
      <trkpt lat="44.00841" lon="2.56599">
        <ele>399</ele>
        <time>2021-10-31T10:10:16.803Z</time>
      </trkpt>
      <trkpt lat="44.0084" lon="2.56598">
        <ele>399</ele>
        <time>2021-10-31T10:10:17.803Z</time>
      </trkpt>
      <trkpt lat="44.0084" lon="2.56596">
        <ele>399</ele>
        <time>2021-10-31T10:10:18.803Z</time>
      </trkpt>
      <trkpt lat="44.00839" lon="2.56595">
        <ele>399</ele>
        <time>2021-10-31T10:10:19.803Z</time>
      </trkpt>
      <trkpt lat="44.00839" lon="2.56594">
        <ele>399</ele>
        <time>2021-10-31T10:10:20.803Z</time>
      </trkpt>
      <trkpt lat="44.00838" lon="2.56593">
        <ele>399</ele>
        <time>2021-10-31T10:10:21.803Z</time>
      </trkpt>
      <trkpt lat="44.00838" lon="2.56592">
        <ele>399</ele>
        <time>2021-10-31T10:10:22.803Z</time>
      </trkpt>
      <trkpt lat="44.00837" lon="2.56591">
        <ele>399</ele>
        <time>2021-10-31T10:10:23.803Z</time>
      </trkpt>
      <trkpt lat="44.00836" lon="2.56589">
        <ele>399</ele>
        <time>2021-10-31T10:10:24.803Z</time>
      </trkpt>
      <trkpt lat="44.00836" lon="2.56588">
        <ele>399</ele>
        <time>2021-10-31T10:10:25.803Z</time>
      </trkpt>
      <trkpt lat="44.00835" lon="2.56586">
        <ele>399</ele>
        <time>2021-10-31T10:10:26.803Z</time>
      </trkpt>
      <trkpt lat="44.00834" lon="2.56585">
        <ele>399</ele>
        <time>2021-10-31T10:10:27.803Z</time>
      </trkpt>
      <trkpt lat="44.00834" lon="2.56583">
        <ele>399</ele>
        <time>2021-10-31T10:10:28.803Z</time>
      </trkpt>
      <trkpt lat="44.00833" lon="2.56582">
        <ele>399</ele>
        <time>2021-10-31T10:10:29.803Z</time>
      </trkpt>
      <trkpt lat="44.00832" lon="2.56581">
        <ele>399</ele>
        <time>2021-10-31T10:10:30.803Z</time>
      </trkpt>
      <trkpt lat="44.00831" lon="2.5658">
        <ele>398</ele>
        <time>2021-10-31T10:10:31.803Z</time>
      </trkpt>
      <trkpt lat="44.00831" lon="2.56579">
        <ele>398</ele>
        <time>2021-10-31T10:10:32.803Z</time>
      </trkpt>
      <trkpt lat="44.0083" lon="2.56578">
        <ele>398</ele>
        <time>2021-10-31T10:10:33.803Z</time>
      </trkpt>
      <trkpt lat="44.00829" lon="2.56577">
        <ele>397</ele>
        <time>2021-10-31T10:10:34.803Z</time>
      </trkpt>
      <trkpt lat="44.00828" lon="2.56576">
        <ele>397</ele>
        <time>2021-10-31T10:10:35.803Z</time>
      </trkpt>
      <trkpt lat="44.00827" lon="2.56576">
        <ele>397</ele>
        <time>2021-10-31T10:10:36.803Z</time>
      </trkpt>
      <trkpt lat="44.00826" lon="2.56575">
        <ele>397</ele>
        <time>2021-10-31T10:10:37.803Z</time>
      </trkpt>
      <trkpt lat="44.00825" lon="2.56574">
        <ele>396</ele>
        <time>2021-10-31T10:10:38.803Z</time>
      </trkpt>
      <trkpt lat="44.00824" lon="2.56573">
        <ele>396</ele>
        <time>2021-10-31T10:10:39.803Z</time>
      </trkpt>
      <trkpt lat="44.00823" lon="2.56572">
        <ele>396</ele>
        <time>2021-10-31T10:10:40.803Z</time>
      </trkpt>
      <trkpt lat="44.00822" lon="2.56571">
        <ele>396</ele>
        <time>2021-10-31T10:10:41.803Z</time>
      </trkpt>
      <trkpt lat="44.00822" lon="2.56571">
        <ele>396</ele>
        <time>2021-10-31T10:10:42.803Z</time>
      </trkpt>
      <trkpt lat="44.0082" lon="2.5657">
        <ele>396</ele>
        <time>2021-10-31T10:10:43.803Z</time>
      </trkpt>
      <trkpt lat="44.0082" lon="2.56569">
        <ele>396</ele>
        <time>2021-10-31T10:10:44.803Z</time>
      </trkpt>
      <trkpt lat="44.00819" lon="2.56569">
        <ele>396</ele>
        <time>2021-10-31T10:10:45.803Z</time>
      </trkpt>
      <trkpt lat="44.00818" lon="2.56568">
        <ele>396</ele>
        <time>2021-10-31T10:10:46.803Z</time>
      </trkpt>
      <trkpt lat="44.00817" lon="2.56567">
        <ele>395</ele>
        <time>2021-10-31T10:10:47.803Z</time>
      </trkpt>
      <trkpt lat="44.00816" lon="2.56566">
        <ele>395</ele>
        <time>2021-10-31T10:10:48.803Z</time>
      </trkpt>
      <trkpt lat="44.00815" lon="2.56566">
        <ele>395</ele>
        <time>2021-10-31T10:10:49.803Z</time>
      </trkpt>
      <trkpt lat="44.00814" lon="2.56565">
        <ele>395</ele>
        <time>2021-10-31T10:10:50.803Z</time>
      </trkpt>
      <trkpt lat="44.00813" lon="2.56564">
        <ele>395</ele>
        <time>2021-10-31T10:10:51.803Z</time>
      </trkpt>
      <trkpt lat="44.00812" lon="2.56564">
        <ele>395</ele>
        <time>2021-10-31T10:10:52.803Z</time>
      </trkpt>
      <trkpt lat="44.00811" lon="2.56563">
        <ele>395</ele>
        <time>2021-10-31T10:10:53.803Z</time>
      </trkpt>
      <trkpt lat="44.0081" lon="2.56563">
        <ele>395</ele>
        <time>2021-10-31T10:10:54.803Z</time>
      </trkpt>
      <trkpt lat="44.0081" lon="2.56562">
        <ele>395</ele>
        <time>2021-10-31T10:10:55.803Z</time>
      </trkpt>
      <trkpt lat="44.00809" lon="2.56561">
        <ele>395</ele>
        <time>2021-10-31T10:10:56.803Z</time>
      </trkpt>
      <trkpt lat="44.00808" lon="2.56561">
        <ele>395</ele>
        <time>2021-10-31T10:10:57.803Z</time>
      </trkpt>
      <trkpt lat="44.00807" lon="2.5656">
        <ele>395</ele>
        <time>2021-10-31T10:10:58.803Z</time>
      </trkpt>
      <trkpt lat="44.00806" lon="2.56559">
        <ele>395</ele>
        <time>2021-10-31T10:10:59.803Z</time>
      </trkpt>
      <trkpt lat="44.00805" lon="2.56559">
        <ele>396</ele>
        <time>2021-10-31T10:11:00.803Z</time>
      </trkpt>
      <trkpt lat="44.00804" lon="2.56558">
        <ele>395</ele>
        <time>2021-10-31T10:11:01.803Z</time>
      </trkpt>
      <trkpt lat="44.00803" lon="2.56558">
        <ele>395</ele>
        <time>2021-10-31T10:11:02.803Z</time>
      </trkpt>
      <trkpt lat="44.00802" lon="2.56557">
        <ele>395</ele>
        <time>2021-10-31T10:11:03.803Z</time>
      </trkpt>
      <trkpt lat="44.00801" lon="2.56557">
        <ele>395</ele>
        <time>2021-10-31T10:11:04.803Z</time>
      </trkpt>
      <trkpt lat="44.008" lon="2.56557">
        <ele>395</ele>
        <time>2021-10-31T10:11:05.803Z</time>
      </trkpt>
      <trkpt lat="44.00799" lon="2.56556">
        <ele>395</ele>
        <time>2021-10-31T10:11:06.803Z</time>
      </trkpt>
      <trkpt lat="44.00798" lon="2.56556">
        <ele>395</ele>
        <time>2021-10-31T10:11:07.803Z</time>
      </trkpt>
      <trkpt lat="44.00797" lon="2.56556">
        <ele>395</ele>
        <time>2021-10-31T10:11:08.803Z</time>
      </trkpt>
      <trkpt lat="44.00796" lon="2.56555">
        <ele>395</ele>
        <time>2021-10-31T10:11:09.803Z</time>
      </trkpt>
      <trkpt lat="44.00795" lon="2.56555">
        <ele>395</ele>
        <time>2021-10-31T10:11:10.803Z</time>
      </trkpt>
      <trkpt lat="44.00794" lon="2.56555">
        <ele>395</ele>
        <time>2021-10-31T10:11:11.803Z</time>
      </trkpt>
      <trkpt lat="44.00793" lon="2.56555">
        <ele>395</ele>
        <time>2021-10-31T10:11:12.803Z</time>
      </trkpt>
      <trkpt lat="44.00792" lon="2.56554">
        <ele>395</ele>
        <time>2021-10-31T10:11:13.803Z</time>
      </trkpt>
      <trkpt lat="44.00791" lon="2.56554">
        <ele>395</ele>
        <time>2021-10-31T10:11:14.803Z</time>
      </trkpt>
      <trkpt lat="44.0079" lon="2.56554">
        <ele>395</ele>
        <time>2021-10-31T10:11:15.803Z</time>
      </trkpt>
      <trkpt lat="44.00789" lon="2.56554">
        <ele>395</ele>
        <time>2021-10-31T10:11:16.803Z</time>
      </trkpt>
      <trkpt lat="44.00788" lon="2.56553">
        <ele>395</ele>
        <time>2021-10-31T10:11:17.803Z</time>
      </trkpt>
      <trkpt lat="44.00787" lon="2.56553">
        <ele>395</ele>
        <time>2021-10-31T10:11:18.803Z</time>
      </trkpt>
      <trkpt lat="44.00786" lon="2.56553">
        <ele>395</ele>
        <time>2021-10-31T10:11:19.803Z</time>
      </trkpt>
      <trkpt lat="44.00785" lon="2.56552">
        <ele>395</ele>
        <time>2021-10-31T10:11:20.803Z</time>
      </trkpt>
      <trkpt lat="44.00784" lon="2.56552">
        <ele>395</ele>
        <time>2021-10-31T10:11:21.803Z</time>
      </trkpt>
      <trkpt lat="44.00783" lon="2.56551">
        <ele>395</ele>
        <time>2021-10-31T10:11:22.803Z</time>
      </trkpt>
      <trkpt lat="44.00782" lon="2.56551">
        <ele>395</ele>
        <time>2021-10-31T10:11:23.803Z</time>
      </trkpt>
      <trkpt lat="44.00781" lon="2.5655">
        <ele>395</ele>
        <time>2021-10-31T10:11:24.803Z</time>
      </trkpt>
      <trkpt lat="44.0078" lon="2.56549">
        <ele>395</ele>
        <time>2021-10-31T10:11:25.803Z</time>
      </trkpt>
      <trkpt lat="44.00779" lon="2.56548">
        <ele>395</ele>
        <time>2021-10-31T10:11:26.803Z</time>
      </trkpt>
      <trkpt lat="44.00778" lon="2.56548">
        <ele>395</ele>
        <time>2021-10-31T10:11:27.803Z</time>
      </trkpt>
      <trkpt lat="44.00778" lon="2.56547">
        <ele>395</ele>
        <time>2021-10-31T10:11:28.803Z</time>
      </trkpt>
      <trkpt lat="44.00777" lon="2.56546">
        <ele>395</ele>
        <time>2021-10-31T10:11:29.803Z</time>
      </trkpt>
      <trkpt lat="44.00776" lon="2.56546">
        <ele>395</ele>
        <time>2021-10-31T10:11:30.803Z</time>
      </trkpt>
      <trkpt lat="44.00775" lon="2.56545">
        <ele>395</ele>
        <time>2021-10-31T10:11:31.803Z</time>
      </trkpt>
      <trkpt lat="44.00774" lon="2.56544">
        <ele>395</ele>
        <time>2021-10-31T10:11:32.803Z</time>
      </trkpt>
      <trkpt lat="44.00773" lon="2.56543">
        <ele>395</ele>
        <time>2021-10-31T10:11:33.803Z</time>
      </trkpt>
      <trkpt lat="44.00772" lon="2.56542">
        <ele>395</ele>
        <time>2021-10-31T10:11:34.803Z</time>
      </trkpt>
      <trkpt lat="44.00771" lon="2.56542">
        <ele>395</ele>
        <time>2021-10-31T10:11:35.803Z</time>
      </trkpt>
      <trkpt lat="44.0077" lon="2.56541">
        <ele>395</ele>
        <time>2021-10-31T10:11:36.803Z</time>
      </trkpt>
      <trkpt lat="44.00769" lon="2.5654">
        <ele>395</ele>
        <time>2021-10-31T10:11:37.803Z</time>
      </trkpt>
      <trkpt lat="44.00768" lon="2.5654">
        <ele>395</ele>
        <time>2021-10-31T10:11:38.803Z</time>
      </trkpt>
      <trkpt lat="44.00767" lon="2.56539">
        <ele>395</ele>
        <time>2021-10-31T10:11:39.803Z</time>
      </trkpt>
      <trkpt lat="44.00766" lon="2.56538">
        <ele>395</ele>
        <time>2021-10-31T10:11:40.803Z</time>
      </trkpt>
      <trkpt lat="44.00765" lon="2.56537">
        <ele>395</ele>
        <time>2021-10-31T10:11:41.803Z</time>
      </trkpt>
      <trkpt lat="44.00764" lon="2.56537">
        <ele>395</ele>
        <time>2021-10-31T10:11:42.803Z</time>
      </trkpt>
      <trkpt lat="44.00763" lon="2.56536">
        <ele>395</ele>
        <time>2021-10-31T10:11:43.803Z</time>
      </trkpt>
      <trkpt lat="44.00763" lon="2.56535">
        <ele>394</ele>
        <time>2021-10-31T10:11:44.803Z</time>
      </trkpt>
      <trkpt lat="44.00762" lon="2.56535">
        <ele>394</ele>
        <time>2021-10-31T10:11:45.803Z</time>
      </trkpt>
      <trkpt lat="44.00761" lon="2.56534">
        <ele>394</ele>
        <time>2021-10-31T10:11:46.803Z</time>
      </trkpt>
      <trkpt lat="44.0076" lon="2.56534">
        <ele>394</ele>
        <time>2021-10-31T10:11:47.803Z</time>
      </trkpt>
      <trkpt lat="44.00759" lon="2.56534">
        <ele>394</ele>
        <time>2021-10-31T10:11:48.803Z</time>
      </trkpt>
      <trkpt lat="44.00758" lon="2.56533">
        <ele>393</ele>
        <time>2021-10-31T10:11:49.803Z</time>
      </trkpt>
      <trkpt lat="44.00757" lon="2.56533">
        <ele>393</ele>
        <time>2021-10-31T10:11:50.803Z</time>
      </trkpt>
      <trkpt lat="44.00757" lon="2.56533">
        <ele>393</ele>
        <time>2021-10-31T10:11:51.803Z</time>
      </trkpt>
      <trkpt lat="44.00757" lon="2.56533">
        <ele>393</ele>
        <time>2021-10-31T10:11:52.803Z</time>
      </trkpt>
      <trkpt lat="44.00754" lon="2.56531">
        <ele>392</ele>
        <time>2021-10-31T10:11:53.803Z</time>
      </trkpt>
      <trkpt lat="44.00754" lon="2.56531">
        <ele>392</ele>
        <time>2021-10-31T10:11:54.803Z</time>
      </trkpt>
      <trkpt lat="44.00753" lon="2.5653">
        <ele>392</ele>
        <time>2021-10-31T10:11:55.803Z</time>
      </trkpt>
      <trkpt lat="44.00752" lon="2.5653">
        <ele>391</ele>
        <time>2021-10-31T10:11:56.803Z</time>
      </trkpt>
      <trkpt lat="44.00751" lon="2.56529">
        <ele>391</ele>
        <time>2021-10-31T10:11:57.803Z</time>
      </trkpt>
      <trkpt lat="44.0075" lon="2.5653">
        <ele>391</ele>
        <time>2021-10-31T10:11:58.803Z</time>
      </trkpt>
      <trkpt lat="44.00749" lon="2.5653">
        <ele>391</ele>
        <time>2021-10-31T10:11:59.803Z</time>
      </trkpt>
      <trkpt lat="44.00748" lon="2.5653">
        <ele>391</ele>
        <time>2021-10-31T10:12:00.803Z</time>
      </trkpt>
      <trkpt lat="44.00747" lon="2.56529">
        <ele>390</ele>
        <time>2021-10-31T10:12:01.803Z</time>
      </trkpt>
      <trkpt lat="44.00746" lon="2.56529">
        <ele>390</ele>
        <time>2021-10-31T10:12:02.803Z</time>
      </trkpt>
      <trkpt lat="44.00746" lon="2.56529">
        <ele>390</ele>
        <time>2021-10-31T10:12:03.803Z</time>
      </trkpt>
      <trkpt lat="44.00744" lon="2.56528">
        <ele>390</ele>
        <time>2021-10-31T10:12:04.803Z</time>
      </trkpt>
      <trkpt lat="44.00743" lon="2.56528">
        <ele>390</ele>
        <time>2021-10-31T10:12:05.803Z</time>
      </trkpt>
      <trkpt lat="44.00742" lon="2.56528">
        <ele>390</ele>
        <time>2021-10-31T10:12:06.803Z</time>
      </trkpt>
      <trkpt lat="44.00741" lon="2.56528">
        <ele>389</ele>
        <time>2021-10-31T10:12:07.803Z</time>
      </trkpt>
      <trkpt lat="44.0074" lon="2.56528">
        <ele>389</ele>
        <time>2021-10-31T10:12:08.803Z</time>
      </trkpt>
      <trkpt lat="44.00739" lon="2.56528">
        <ele>389</ele>
        <time>2021-10-31T10:12:09.803Z</time>
      </trkpt>
      <trkpt lat="44.00738" lon="2.56528">
        <ele>389</ele>
        <time>2021-10-31T10:12:10.803Z</time>
      </trkpt>
      <trkpt lat="44.00737" lon="2.56527">
        <ele>389</ele>
        <time>2021-10-31T10:12:11.803Z</time>
      </trkpt>
      <trkpt lat="44.00736" lon="2.56527">
        <ele>388</ele>
        <time>2021-10-31T10:12:12.803Z</time>
      </trkpt>
      <trkpt lat="44.00735" lon="2.56527">
        <ele>388</ele>
        <time>2021-10-31T10:12:13.803Z</time>
      </trkpt>
      <trkpt lat="44.00734" lon="2.56526">
        <ele>388</ele>
        <time>2021-10-31T10:12:14.803Z</time>
      </trkpt>
      <trkpt lat="44.00732" lon="2.56526">
        <ele>388</ele>
        <time>2021-10-31T10:12:15.803Z</time>
      </trkpt>
      <trkpt lat="44.00732" lon="2.56526">
        <ele>387</ele>
        <time>2021-10-31T10:12:16.803Z</time>
      </trkpt>
      <trkpt lat="44.00731" lon="2.56525">
        <ele>387</ele>
        <time>2021-10-31T10:12:17.803Z</time>
      </trkpt>
      <trkpt lat="44.0073" lon="2.56525">
        <ele>387</ele>
        <time>2021-10-31T10:12:18.803Z</time>
      </trkpt>
      <trkpt lat="44.0073" lon="2.56525">
        <ele>387</ele>
        <time>2021-10-31T10:12:19.803Z</time>
      </trkpt>
      <trkpt lat="44.00729" lon="2.56525">
        <ele>387</ele>
        <time>2021-10-31T10:12:20.803Z</time>
      </trkpt>
      <trkpt lat="44.00728" lon="2.56525">
        <ele>387</ele>
        <time>2021-10-31T10:12:21.803Z</time>
      </trkpt>
      <trkpt lat="44.00726" lon="2.56525">
        <ele>387</ele>
        <time>2021-10-31T10:12:22.803Z</time>
      </trkpt>
      <trkpt lat="44.00725" lon="2.56525">
        <ele>386</ele>
        <time>2021-10-31T10:12:23.803Z</time>
      </trkpt>
      <trkpt lat="44.00724" lon="2.56525">
        <ele>386</ele>
        <time>2021-10-31T10:12:24.803Z</time>
      </trkpt>
      <trkpt lat="44.00723" lon="2.56525">
        <ele>386</ele>
        <time>2021-10-31T10:12:25.803Z</time>
      </trkpt>
      <trkpt lat="44.00722" lon="2.56525">
        <ele>386</ele>
        <time>2021-10-31T10:12:26.803Z</time>
      </trkpt>
      <trkpt lat="44.00721" lon="2.56525">
        <ele>386</ele>
        <time>2021-10-31T10:12:27.803Z</time>
      </trkpt>
      <trkpt lat="44.00721" lon="2.56525">
        <ele>386</ele>
        <time>2021-10-31T10:12:28.803Z</time>
      </trkpt>
      <trkpt lat="44.0072" lon="2.56525">
        <ele>386</ele>
        <time>2021-10-31T10:12:29.803Z</time>
      </trkpt>
      <trkpt lat="44.00719" lon="2.56525">
        <ele>386</ele>
        <time>2021-10-31T10:12:30.803Z</time>
      </trkpt>
      <trkpt lat="44.00718" lon="2.56525">
        <ele>386</ele>
        <time>2021-10-31T10:12:31.803Z</time>
      </trkpt>
      <trkpt lat="44.00718" lon="2.56525">
        <ele>386</ele>
        <time>2021-10-31T10:12:32.803Z</time>
      </trkpt>
      <trkpt lat="44.00717" lon="2.56525">
        <ele>386</ele>
        <time>2021-10-31T10:12:33.803Z</time>
      </trkpt>
      <trkpt lat="44.00716" lon="2.56525">
        <ele>386</ele>
        <time>2021-10-31T10:12:34.803Z</time>
      </trkpt>
      <trkpt lat="44.00715" lon="2.56525">
        <ele>385</ele>
        <time>2021-10-31T10:12:35.803Z</time>
      </trkpt>
      <trkpt lat="44.00714" lon="2.56524">
        <ele>385</ele>
        <time>2021-10-31T10:12:36.803Z</time>
      </trkpt>
      <trkpt lat="44.00713" lon="2.56524">
        <ele>385</ele>
        <time>2021-10-31T10:12:37.803Z</time>
      </trkpt>
      <trkpt lat="44.00712" lon="2.56524">
        <ele>385</ele>
        <time>2021-10-31T10:12:38.803Z</time>
      </trkpt>
      <trkpt lat="44.00711" lon="2.56523">
        <ele>385</ele>
        <time>2021-10-31T10:12:39.803Z</time>
      </trkpt>
      <trkpt lat="44.0071" lon="2.56523">
        <ele>385</ele>
        <time>2021-10-31T10:12:40.803Z</time>
      </trkpt>
      <trkpt lat="44.0071" lon="2.56523">
        <ele>385</ele>
        <time>2021-10-31T10:12:41.803Z</time>
      </trkpt>
      <trkpt lat="44.00709" lon="2.56523">
        <ele>385</ele>
        <time>2021-10-31T10:12:42.803Z</time>
      </trkpt>
      <trkpt lat="44.00708" lon="2.56523">
        <ele>385</ele>
        <time>2021-10-31T10:12:43.803Z</time>
      </trkpt>
      <trkpt lat="44.00707" lon="2.56523">
        <ele>385</ele>
        <time>2021-10-31T10:12:44.803Z</time>
      </trkpt>
      <trkpt lat="44.00706" lon="2.56522">
        <ele>385</ele>
        <time>2021-10-31T10:12:45.803Z</time>
      </trkpt>
      <trkpt lat="44.00705" lon="2.56522">
        <ele>385</ele>
        <time>2021-10-31T10:12:46.803Z</time>
      </trkpt>
      <trkpt lat="44.00704" lon="2.56522">
        <ele>385</ele>
        <time>2021-10-31T10:12:47.803Z</time>
      </trkpt>
      <trkpt lat="44.00703" lon="2.56522">
        <ele>385</ele>
        <time>2021-10-31T10:12:48.803Z</time>
      </trkpt>
      <trkpt lat="44.00702" lon="2.56521">
        <ele>385</ele>
        <time>2021-10-31T10:12:49.803Z</time>
      </trkpt>
      <trkpt lat="44.00701" lon="2.56521">
        <ele>385</ele>
        <time>2021-10-31T10:12:50.803Z</time>
      </trkpt>
      <trkpt lat="44.007" lon="2.5652">
        <ele>385</ele>
        <time>2021-10-31T10:12:51.803Z</time>
      </trkpt>
      <trkpt lat="44.007" lon="2.56519">
        <ele>385</ele>
        <time>2021-10-31T10:12:52.803Z</time>
      </trkpt>
      <trkpt lat="44.00699" lon="2.56518">
        <ele>385</ele>
        <time>2021-10-31T10:12:53.803Z</time>
      </trkpt>
      <trkpt lat="44.00699" lon="2.56518">
        <ele>384</ele>
        <time>2021-10-31T10:12:54.803Z</time>
      </trkpt>
      <trkpt lat="44.00698" lon="2.56517">
        <ele>384</ele>
        <time>2021-10-31T10:12:55.803Z</time>
      </trkpt>
      <trkpt lat="44.00698" lon="2.56517">
        <ele>384</ele>
        <time>2021-10-31T10:12:56.803Z</time>
      </trkpt>
      <trkpt lat="44.00698" lon="2.56517">
        <ele>384</ele>
        <time>2021-10-31T10:12:57.803Z</time>
      </trkpt>
      <trkpt lat="44.00698" lon="2.56516">
        <ele>384</ele>
        <time>2021-10-31T10:12:58.803Z</time>
      </trkpt>
      <trkpt lat="44.00694" lon="2.5651">
        <ele>380</ele>
        <time>2021-10-31T10:12:59.803Z</time>
      </trkpt>
      <trkpt lat="44.00694" lon="2.56509">
        <ele>380</ele>
        <time>2021-10-31T10:13:00.803Z</time>
      </trkpt>
      <trkpt lat="44.00694" lon="2.56509">
        <ele>380</ele>
        <time>2021-10-31T10:13:01.803Z</time>
      </trkpt>
      <trkpt lat="44.00694" lon="2.56508">
        <ele>380</ele>
        <time>2021-10-31T10:13:02.803Z</time>
      </trkpt>
      <trkpt lat="44.00694" lon="2.56508">
        <ele>380</ele>
        <time>2021-10-31T10:13:03.803Z</time>
      </trkpt>
      <trkpt lat="44.00693" lon="2.56508">
        <ele>381</ele>
        <time>2021-10-31T10:13:04.803Z</time>
      </trkpt>
      <trkpt lat="44.00692" lon="2.56507">
        <ele>381</ele>
        <time>2021-10-31T10:13:05.803Z</time>
      </trkpt>
      <trkpt lat="44.00692" lon="2.56507">
        <ele>381</ele>
        <time>2021-10-31T10:13:06.803Z</time>
      </trkpt>
      <trkpt lat="44.00691" lon="2.56507">
        <ele>381</ele>
        <time>2021-10-31T10:13:07.803Z</time>
      </trkpt>
      <trkpt lat="44.0069" lon="2.56506">
        <ele>381</ele>
        <time>2021-10-31T10:13:08.803Z</time>
      </trkpt>
      <trkpt lat="44.00689" lon="2.56506">
        <ele>381</ele>
        <time>2021-10-31T10:13:09.803Z</time>
      </trkpt>
      <trkpt lat="44.00689" lon="2.56506">
        <ele>381</ele>
        <time>2021-10-31T10:13:10.803Z</time>
      </trkpt>
      <trkpt lat="44.00688" lon="2.56506">
        <ele>381</ele>
        <time>2021-10-31T10:13:11.803Z</time>
      </trkpt>
      <trkpt lat="44.00687" lon="2.56507">
        <ele>381</ele>
        <time>2021-10-31T10:13:12.803Z</time>
      </trkpt>
      <trkpt lat="44.00687" lon="2.56507">
        <ele>381</ele>
        <time>2021-10-31T10:13:13.803Z</time>
      </trkpt>
      <trkpt lat="44.00686" lon="2.56507">
        <ele>381</ele>
        <time>2021-10-31T10:13:14.803Z</time>
      </trkpt>
      <trkpt lat="44.00685" lon="2.56507">
        <ele>381</ele>
        <time>2021-10-31T10:13:15.803Z</time>
      </trkpt>
      <trkpt lat="44.00685" lon="2.56507">
        <ele>381</ele>
        <time>2021-10-31T10:13:16.803Z</time>
      </trkpt>
      <trkpt lat="44.00684" lon="2.56507">
        <ele>380</ele>
        <time>2021-10-31T10:13:17.803Z</time>
      </trkpt>
      <trkpt lat="44.00683" lon="2.56506">
        <ele>380</ele>
        <time>2021-10-31T10:13:18.803Z</time>
      </trkpt>
      <trkpt lat="44.00682" lon="2.56506">
        <ele>380</ele>
        <time>2021-10-31T10:13:19.803Z</time>
      </trkpt>
      <trkpt lat="44.00681" lon="2.56505">
        <ele>380</ele>
        <time>2021-10-31T10:13:20.803Z</time>
      </trkpt>
      <trkpt lat="44.00681" lon="2.56505">
        <ele>380</ele>
        <time>2021-10-31T10:13:21.803Z</time>
      </trkpt>
      <trkpt lat="44.0068" lon="2.56504">
        <ele>380</ele>
        <time>2021-10-31T10:13:22.803Z</time>
      </trkpt>
      <trkpt lat="44.00679" lon="2.56504">
        <ele>380</ele>
        <time>2021-10-31T10:13:23.803Z</time>
      </trkpt>
      <trkpt lat="44.00678" lon="2.56504">
        <ele>380</ele>
        <time>2021-10-31T10:13:24.803Z</time>
      </trkpt>
      <trkpt lat="44.00677" lon="2.56503">
        <ele>380</ele>
        <time>2021-10-31T10:13:25.803Z</time>
      </trkpt>
      <trkpt lat="44.00676" lon="2.56502">
        <ele>380</ele>
        <time>2021-10-31T10:13:26.803Z</time>
      </trkpt>
      <trkpt lat="44.00675" lon="2.56502">
        <ele>380</ele>
        <time>2021-10-31T10:13:27.803Z</time>
      </trkpt>
      <trkpt lat="44.00674" lon="2.56502">
        <ele>380</ele>
        <time>2021-10-31T10:13:28.803Z</time>
      </trkpt>
      <trkpt lat="44.00673" lon="2.56502">
        <ele>380</ele>
        <time>2021-10-31T10:13:29.803Z</time>
      </trkpt>
      <trkpt lat="44.00672" lon="2.56501">
        <ele>380</ele>
        <time>2021-10-31T10:13:30.803Z</time>
      </trkpt>
      <trkpt lat="44.00671" lon="2.56501">
        <ele>380</ele>
        <time>2021-10-31T10:13:31.803Z</time>
      </trkpt>
      <trkpt lat="44.0067" lon="2.565">
        <ele>380</ele>
        <time>2021-10-31T10:13:32.803Z</time>
      </trkpt>
      <trkpt lat="44.00669" lon="2.565">
        <ele>380</ele>
        <time>2021-10-31T10:13:33.803Z</time>
      </trkpt>
      <trkpt lat="44.00668" lon="2.56499">
        <ele>380</ele>
        <time>2021-10-31T10:13:34.803Z</time>
      </trkpt>
      <trkpt lat="44.00667" lon="2.56499">
        <ele>380</ele>
        <time>2021-10-31T10:13:35.803Z</time>
      </trkpt>
      <trkpt lat="44.00666" lon="2.56499">
        <ele>380</ele>
        <time>2021-10-31T10:13:36.803Z</time>
      </trkpt>
      <trkpt lat="44.00665" lon="2.56498">
        <ele>380</ele>
        <time>2021-10-31T10:13:37.803Z</time>
      </trkpt>
      <trkpt lat="44.00664" lon="2.56498">
        <ele>380</ele>
        <time>2021-10-31T10:13:38.803Z</time>
      </trkpt>
      <trkpt lat="44.00663" lon="2.56497">
        <ele>380</ele>
        <time>2021-10-31T10:13:39.803Z</time>
      </trkpt>
      <trkpt lat="44.00662" lon="2.56497">
        <ele>380</ele>
        <time>2021-10-31T10:13:40.803Z</time>
      </trkpt>
      <trkpt lat="44.00661" lon="2.56496">
        <ele>380</ele>
        <time>2021-10-31T10:13:41.803Z</time>
      </trkpt>
      <trkpt lat="44.0066" lon="2.56496">
        <ele>380</ele>
        <time>2021-10-31T10:13:42.803Z</time>
      </trkpt>
      <trkpt lat="44.00659" lon="2.56495">
        <ele>380</ele>
        <time>2021-10-31T10:13:43.803Z</time>
      </trkpt>
      <trkpt lat="44.00658" lon="2.56495">
        <ele>380</ele>
        <time>2021-10-31T10:13:44.803Z</time>
      </trkpt>
      <trkpt lat="44.00657" lon="2.56494">
        <ele>380</ele>
        <time>2021-10-31T10:13:45.803Z</time>
      </trkpt>
      <trkpt lat="44.00656" lon="2.56494">
        <ele>380</ele>
        <time>2021-10-31T10:13:46.803Z</time>
      </trkpt>
      <trkpt lat="44.00655" lon="2.56493">
        <ele>380</ele>
        <time>2021-10-31T10:13:47.803Z</time>
      </trkpt>
      <trkpt lat="44.00654" lon="2.56493">
        <ele>380</ele>
        <time>2021-10-31T10:13:48.803Z</time>
      </trkpt>
      <trkpt lat="44.00653" lon="2.56492">
        <ele>380</ele>
        <time>2021-10-31T10:13:49.803Z</time>
      </trkpt>
      <trkpt lat="44.00652" lon="2.56491">
        <ele>380</ele>
        <time>2021-10-31T10:13:50.803Z</time>
      </trkpt>
      <trkpt lat="44.00652" lon="2.56491">
        <ele>380</ele>
        <time>2021-10-31T10:13:51.803Z</time>
      </trkpt>
      <trkpt lat="44.00651" lon="2.5649">
        <ele>380</ele>
        <time>2021-10-31T10:13:52.803Z</time>
      </trkpt>
      <trkpt lat="44.00649" lon="2.56489">
        <ele>380</ele>
        <time>2021-10-31T10:13:53.803Z</time>
      </trkpt>
      <trkpt lat="44.00648" lon="2.56488">
        <ele>380</ele>
        <time>2021-10-31T10:13:54.803Z</time>
      </trkpt>
      <trkpt lat="44.00648" lon="2.56487">
        <ele>380</ele>
        <time>2021-10-31T10:13:55.803Z</time>
      </trkpt>
      <trkpt lat="44.00647" lon="2.56486">
        <ele>380</ele>
        <time>2021-10-31T10:13:56.803Z</time>
      </trkpt>
      <trkpt lat="44.00646" lon="2.56485">
        <ele>380</ele>
        <time>2021-10-31T10:13:57.803Z</time>
      </trkpt>
      <trkpt lat="44.00645" lon="2.56485">
        <ele>381</ele>
        <time>2021-10-31T10:13:58.803Z</time>
      </trkpt>
      <trkpt lat="44.00644" lon="2.56484">
        <ele>381</ele>
        <time>2021-10-31T10:13:59.803Z</time>
      </trkpt>
      <trkpt lat="44.00643" lon="2.56484">
        <ele>381</ele>
        <time>2021-10-31T10:14:00.803Z</time>
      </trkpt>
      <trkpt lat="44.00642" lon="2.56483">
        <ele>381</ele>
        <time>2021-10-31T10:14:01.803Z</time>
      </trkpt>
      <trkpt lat="44.00641" lon="2.56483">
        <ele>381</ele>
        <time>2021-10-31T10:14:02.803Z</time>
      </trkpt>
      <trkpt lat="44.0064" lon="2.56482">
        <ele>381</ele>
        <time>2021-10-31T10:14:03.803Z</time>
      </trkpt>
      <trkpt lat="44.00639" lon="2.56481">
        <ele>381</ele>
        <time>2021-10-31T10:14:04.803Z</time>
      </trkpt>
      <trkpt lat="44.00638" lon="2.5648">
        <ele>381</ele>
        <time>2021-10-31T10:14:05.803Z</time>
      </trkpt>
      <trkpt lat="44.00637" lon="2.56479">
        <ele>381</ele>
        <time>2021-10-31T10:14:06.803Z</time>
      </trkpt>
      <trkpt lat="44.00636" lon="2.56479">
        <ele>381</ele>
        <time>2021-10-31T10:14:07.803Z</time>
      </trkpt>
      <trkpt lat="44.00634" lon="2.56478">
        <ele>381</ele>
        <time>2021-10-31T10:14:08.803Z</time>
      </trkpt>
      <trkpt lat="44.00633" lon="2.56477">
        <ele>381</ele>
        <time>2021-10-31T10:14:09.803Z</time>
      </trkpt>
      <trkpt lat="44.00632" lon="2.56476">
        <ele>381</ele>
        <time>2021-10-31T10:14:10.803Z</time>
      </trkpt>
      <trkpt lat="44.00631" lon="2.56474">
        <ele>381</ele>
        <time>2021-10-31T10:14:11.803Z</time>
      </trkpt>
      <trkpt lat="44.0063" lon="2.56473">
        <ele>381</ele>
        <time>2021-10-31T10:14:12.803Z</time>
      </trkpt>
      <trkpt lat="44.00628" lon="2.56472">
        <ele>381</ele>
        <time>2021-10-31T10:14:13.803Z</time>
      </trkpt>
      <trkpt lat="44.00627" lon="2.56472">
        <ele>381</ele>
        <time>2021-10-31T10:14:14.803Z</time>
      </trkpt>
      <trkpt lat="44.00626" lon="2.56471">
        <ele>381</ele>
        <time>2021-10-31T10:14:15.803Z</time>
      </trkpt>
      <trkpt lat="44.00625" lon="2.5647">
        <ele>381</ele>
        <time>2021-10-31T10:14:16.803Z</time>
      </trkpt>
      <trkpt lat="44.00624" lon="2.56469">
        <ele>381</ele>
        <time>2021-10-31T10:14:17.803Z</time>
      </trkpt>
      <trkpt lat="44.00622" lon="2.56469">
        <ele>381</ele>
        <time>2021-10-31T10:14:18.803Z</time>
      </trkpt>
      <trkpt lat="44.00621" lon="2.56468">
        <ele>381</ele>
        <time>2021-10-31T10:14:19.803Z</time>
      </trkpt>
      <trkpt lat="44.0062" lon="2.56468">
        <ele>381</ele>
        <time>2021-10-31T10:14:20.803Z</time>
      </trkpt>
      <trkpt lat="44.00619" lon="2.56467">
        <ele>381</ele>
        <time>2021-10-31T10:14:21.803Z</time>
      </trkpt>
      <trkpt lat="44.00618" lon="2.56467">
        <ele>381</ele>
        <time>2021-10-31T10:14:22.803Z</time>
      </trkpt>
      <trkpt lat="44.00617" lon="2.56466">
        <ele>381</ele>
        <time>2021-10-31T10:14:23.803Z</time>
      </trkpt>
      <trkpt lat="44.00616" lon="2.56466">
        <ele>381</ele>
        <time>2021-10-31T10:14:24.803Z</time>
      </trkpt>
      <trkpt lat="44.00615" lon="2.56465">
        <ele>381</ele>
        <time>2021-10-31T10:14:25.803Z</time>
      </trkpt>
      <trkpt lat="44.00615" lon="2.56465">
        <ele>381</ele>
        <time>2021-10-31T10:14:26.803Z</time>
      </trkpt>
      <trkpt lat="44.00614" lon="2.56464">
        <ele>381</ele>
        <time>2021-10-31T10:14:27.803Z</time>
      </trkpt>
      <trkpt lat="44.00614" lon="2.56463">
        <ele>381</ele>
        <time>2021-10-31T10:14:28.803Z</time>
      </trkpt>
      <trkpt lat="44.00613" lon="2.56462">
        <ele>381</ele>
        <time>2021-10-31T10:14:29.803Z</time>
      </trkpt>
      <trkpt lat="44.00614" lon="2.56462">
        <ele>380</ele>
        <time>2021-10-31T10:14:30.803Z</time>
      </trkpt>
      <trkpt lat="44.00614" lon="2.56461">
        <ele>380</ele>
        <time>2021-10-31T10:14:31.803Z</time>
      </trkpt>
      <trkpt lat="44.00614" lon="2.5646">
        <ele>380</ele>
        <time>2021-10-31T10:14:32.803Z</time>
      </trkpt>
      <trkpt lat="44.00615" lon="2.56459">
        <ele>380</ele>
        <time>2021-10-31T10:14:33.803Z</time>
      </trkpt>
      <trkpt lat="44.00615" lon="2.56458">
        <ele>379</ele>
        <time>2021-10-31T10:14:34.803Z</time>
      </trkpt>
      <trkpt lat="44.00616" lon="2.56457">
        <ele>379</ele>
        <time>2021-10-31T10:14:35.803Z</time>
      </trkpt>
      <trkpt lat="44.00617" lon="2.56457">
        <ele>379</ele>
        <time>2021-10-31T10:14:36.803Z</time>
      </trkpt>
      <trkpt lat="44.00617" lon="2.56456">
        <ele>379</ele>
        <time>2021-10-31T10:14:37.803Z</time>
      </trkpt>
      <trkpt lat="44.00618" lon="2.56456">
        <ele>378</ele>
        <time>2021-10-31T10:14:38.803Z</time>
      </trkpt>
      <trkpt lat="44.00619" lon="2.56456">
        <ele>378</ele>
        <time>2021-10-31T10:14:39.803Z</time>
      </trkpt>
      <trkpt lat="44.0062" lon="2.56455">
        <ele>378</ele>
        <time>2021-10-31T10:14:40.803Z</time>
      </trkpt>
      <trkpt lat="44.0062" lon="2.56454">
        <ele>377</ele>
        <time>2021-10-31T10:14:41.803Z</time>
      </trkpt>
      <trkpt lat="44.00621" lon="2.56454">
        <ele>377</ele>
        <time>2021-10-31T10:14:42.803Z</time>
      </trkpt>
      <trkpt lat="44.00622" lon="2.56453">
        <ele>376</ele>
        <time>2021-10-31T10:14:43.803Z</time>
      </trkpt>
      <trkpt lat="44.00623" lon="2.56453">
        <ele>376</ele>
        <time>2021-10-31T10:14:44.803Z</time>
      </trkpt>
      <trkpt lat="44.00624" lon="2.56453">
        <ele>376</ele>
        <time>2021-10-31T10:14:45.803Z</time>
      </trkpt>
      <trkpt lat="44.00625" lon="2.56453">
        <ele>375</ele>
        <time>2021-10-31T10:14:46.803Z</time>
      </trkpt>
      <trkpt lat="44.00626" lon="2.56452">
        <ele>375</ele>
        <time>2021-10-31T10:14:47.803Z</time>
      </trkpt>
      <trkpt lat="44.00627" lon="2.56452">
        <ele>375</ele>
        <time>2021-10-31T10:14:48.803Z</time>
      </trkpt>
      <trkpt lat="44.00627" lon="2.56452">
        <ele>374</ele>
        <time>2021-10-31T10:14:49.803Z</time>
      </trkpt>
      <trkpt lat="44.00628" lon="2.56452">
        <ele>374</ele>
        <time>2021-10-31T10:14:50.803Z</time>
      </trkpt>
      <trkpt lat="44.00629" lon="2.56451">
        <ele>374</ele>
        <time>2021-10-31T10:14:51.803Z</time>
      </trkpt>
      <trkpt lat="44.0063" lon="2.56451">
        <ele>374</ele>
        <time>2021-10-31T10:14:52.803Z</time>
      </trkpt>
      <trkpt lat="44.0063" lon="2.56451">
        <ele>373</ele>
        <time>2021-10-31T10:14:53.803Z</time>
      </trkpt>
      <trkpt lat="44.00631" lon="2.56451">
        <ele>373</ele>
        <time>2021-10-31T10:14:54.803Z</time>
      </trkpt>
      <trkpt lat="44.00632" lon="2.5645">
        <ele>373</ele>
        <time>2021-10-31T10:14:55.803Z</time>
      </trkpt>
      <trkpt lat="44.00633" lon="2.5645">
        <ele>373</ele>
        <time>2021-10-31T10:14:56.803Z</time>
      </trkpt>
      <trkpt lat="44.00633" lon="2.5645">
        <ele>372</ele>
        <time>2021-10-31T10:14:57.803Z</time>
      </trkpt>
      <trkpt lat="44.00634" lon="2.5645">
        <ele>372</ele>
        <time>2021-10-31T10:14:58.803Z</time>
      </trkpt>
      <trkpt lat="44.00634" lon="2.56449">
        <ele>372</ele>
        <time>2021-10-31T10:14:59.803Z</time>
      </trkpt>
      <trkpt lat="44.00635" lon="2.56449">
        <ele>372</ele>
        <time>2021-10-31T10:15:00.803Z</time>
      </trkpt>
      <trkpt lat="44.00636" lon="2.56449">
        <ele>372</ele>
        <time>2021-10-31T10:15:01.803Z</time>
      </trkpt>
      <trkpt lat="44.00637" lon="2.56448">
        <ele>371</ele>
        <time>2021-10-31T10:15:02.803Z</time>
      </trkpt>
      <trkpt lat="44.00638" lon="2.56448">
        <ele>371</ele>
        <time>2021-10-31T10:15:03.803Z</time>
      </trkpt>
      <trkpt lat="44.00639" lon="2.56447">
        <ele>371</ele>
        <time>2021-10-31T10:15:04.803Z</time>
      </trkpt>
      <trkpt lat="44.00639" lon="2.56447">
        <ele>371</ele>
        <time>2021-10-31T10:15:05.803Z</time>
      </trkpt>
      <trkpt lat="44.00641" lon="2.56446">
        <ele>370</ele>
        <time>2021-10-31T10:15:06.803Z</time>
      </trkpt>
      <trkpt lat="44.00642" lon="2.56446">
        <ele>370</ele>
        <time>2021-10-31T10:15:07.803Z</time>
      </trkpt>
      <trkpt lat="44.00643" lon="2.56446">
        <ele>370</ele>
        <time>2021-10-31T10:15:08.803Z</time>
      </trkpt>
      <trkpt lat="44.00644" lon="2.56445">
        <ele>370</ele>
        <time>2021-10-31T10:15:09.803Z</time>
      </trkpt>
      <trkpt lat="44.00644" lon="2.56445">
        <ele>370</ele>
        <time>2021-10-31T10:15:10.803Z</time>
      </trkpt>
      <trkpt lat="44.00645" lon="2.56445">
        <ele>369</ele>
        <time>2021-10-31T10:15:11.803Z</time>
      </trkpt>
      <trkpt lat="44.00646" lon="2.56445">
        <ele>369</ele>
        <time>2021-10-31T10:15:12.803Z</time>
      </trkpt>
      <trkpt lat="44.00647" lon="2.56445">
        <ele>369</ele>
        <time>2021-10-31T10:15:13.803Z</time>
      </trkpt>
      <trkpt lat="44.00648" lon="2.56444">
        <ele>369</ele>
        <time>2021-10-31T10:15:14.803Z</time>
      </trkpt>
      <trkpt lat="44.00649" lon="2.56444">
        <ele>369</ele>
        <time>2021-10-31T10:15:15.803Z</time>
      </trkpt>
      <trkpt lat="44.0065" lon="2.56444">
        <ele>369</ele>
        <time>2021-10-31T10:15:16.803Z</time>
      </trkpt>
      <trkpt lat="44.00651" lon="2.56443">
        <ele>369</ele>
        <time>2021-10-31T10:15:17.803Z</time>
      </trkpt>
      <trkpt lat="44.00652" lon="2.56443">
        <ele>369</ele>
        <time>2021-10-31T10:15:18.803Z</time>
      </trkpt>
      <trkpt lat="44.00653" lon="2.56443">
        <ele>369</ele>
        <time>2021-10-31T10:15:19.803Z</time>
      </trkpt>
      <trkpt lat="44.00654" lon="2.56443">
        <ele>368</ele>
        <time>2021-10-31T10:15:23.058Z</time>
      </trkpt>
      <trkpt lat="44.00655" lon="2.56443">
        <ele>368</ele>
        <time>2021-10-31T10:15:24.058Z</time>
      </trkpt>
      <trkpt lat="44.00656" lon="2.56443">
        <ele>368</ele>
        <time>2021-10-31T10:15:25.058Z</time>
      </trkpt>
      <trkpt lat="44.00657" lon="2.56442">
        <ele>368</ele>
        <time>2021-10-31T10:15:26.058Z</time>
      </trkpt>
      <trkpt lat="44.00658" lon="2.56442">
        <ele>368</ele>
        <time>2021-10-31T10:15:27.058Z</time>
      </trkpt>
      <trkpt lat="44.00659" lon="2.56442">
        <ele>367</ele>
        <time>2021-10-31T10:15:28.058Z</time>
      </trkpt>
      <trkpt lat="44.00659" lon="2.56441">
        <ele>367</ele>
        <time>2021-10-31T10:15:29.058Z</time>
      </trkpt>
      <trkpt lat="44.0066" lon="2.56441">
        <ele>367</ele>
        <time>2021-10-31T10:15:30.058Z</time>
      </trkpt>
      <trkpt lat="44.00661" lon="2.56441">
        <ele>367</ele>
        <time>2021-10-31T10:15:31.058Z</time>
      </trkpt>
      <trkpt lat="44.00662" lon="2.56441">
        <ele>366</ele>
        <time>2021-10-31T10:15:32.058Z</time>
      </trkpt>
      <trkpt lat="44.00663" lon="2.56441">
        <ele>366</ele>
        <time>2021-10-31T10:15:33.058Z</time>
      </trkpt>
      <trkpt lat="44.00663" lon="2.56441">
        <ele>366</ele>
        <time>2021-10-31T10:15:34.058Z</time>
      </trkpt>
      <trkpt lat="44.00664" lon="2.5644">
        <ele>365</ele>
        <time>2021-10-31T10:15:35.058Z</time>
      </trkpt>
      <trkpt lat="44.00665" lon="2.56439">
        <ele>365</ele>
        <time>2021-10-31T10:15:36.058Z</time>
      </trkpt>
      <trkpt lat="44.00665" lon="2.56439">
        <ele>365</ele>
        <time>2021-10-31T10:15:37.058Z</time>
      </trkpt>
      <trkpt lat="44.00665" lon="2.56438">
        <ele>365</ele>
        <time>2021-10-31T10:15:38.058Z</time>
      </trkpt>
      <trkpt lat="44.00665" lon="2.56437">
        <ele>365</ele>
        <time>2021-10-31T10:15:39.058Z</time>
      </trkpt>
      <trkpt lat="44.00665" lon="2.56437">
        <ele>365</ele>
        <time>2021-10-31T10:15:40.058Z</time>
      </trkpt>
      <trkpt lat="44.00665" lon="2.56436">
        <ele>364</ele>
        <time>2021-10-31T10:15:41.058Z</time>
      </trkpt>
      <trkpt lat="44.00665" lon="2.56435">
        <ele>364</ele>
        <time>2021-10-31T10:15:42.058Z</time>
      </trkpt>
      <trkpt lat="44.00664" lon="2.56434">
        <ele>364</ele>
        <time>2021-10-31T10:15:43.058Z</time>
      </trkpt>
      <trkpt lat="44.00664" lon="2.56433">
        <ele>364</ele>
        <time>2021-10-31T10:15:44.058Z</time>
      </trkpt>
      <trkpt lat="44.00663" lon="2.56432">
        <ele>364</ele>
        <time>2021-10-31T10:15:45.058Z</time>
      </trkpt>
      <trkpt lat="44.00663" lon="2.56431">
        <ele>364</ele>
        <time>2021-10-31T10:15:46.058Z</time>
      </trkpt>
      <trkpt lat="44.00662" lon="2.56431">
        <ele>364</ele>
        <time>2021-10-31T10:15:47.058Z</time>
      </trkpt>
      <trkpt lat="44.00662" lon="2.5643">
        <ele>363</ele>
        <time>2021-10-31T10:15:48.058Z</time>
      </trkpt>
      <trkpt lat="44.00661" lon="2.56429">
        <ele>363</ele>
        <time>2021-10-31T10:15:49.058Z</time>
      </trkpt>
      <trkpt lat="44.00661" lon="2.56429">
        <ele>363</ele>
        <time>2021-10-31T10:15:50.058Z</time>
      </trkpt>
      <trkpt lat="44.0066" lon="2.56428">
        <ele>363</ele>
        <time>2021-10-31T10:15:51.058Z</time>
      </trkpt>
      <trkpt lat="44.0066" lon="2.56428">
        <ele>363</ele>
        <time>2021-10-31T10:15:52.058Z</time>
      </trkpt>
      <trkpt lat="44.0066" lon="2.56428">
        <ele>363</ele>
        <time>2021-10-31T10:15:53.058Z</time>
      </trkpt>
      <trkpt lat="44.00659" lon="2.56427">
        <ele>363</ele>
        <time>2021-10-31T10:15:54.058Z</time>
      </trkpt>
      <trkpt lat="44.00659" lon="2.56427">
        <ele>363</ele>
        <time>2021-10-31T10:15:55.058Z</time>
      </trkpt>
      <trkpt lat="44.00659" lon="2.56427">
        <ele>363</ele>
        <time>2021-10-31T10:15:56.058Z</time>
      </trkpt>
      <trkpt lat="44.00658" lon="2.56426">
        <ele>362</ele>
        <time>2021-10-31T10:15:57.058Z</time>
      </trkpt>
      <trkpt lat="44.00659" lon="2.56426">
        <ele>362</ele>
        <time>2021-10-31T10:15:58.058Z</time>
      </trkpt>
      <trkpt lat="44.00658" lon="2.56426">
        <ele>362</ele>
        <time>2021-10-31T10:15:59.058Z</time>
      </trkpt>
      <trkpt lat="44.00658" lon="2.56425">
        <ele>362</ele>
        <time>2021-10-31T10:16:00.058Z</time>
      </trkpt>
      <trkpt lat="44.00657" lon="2.56425">
        <ele>362</ele>
        <time>2021-10-31T10:16:01.058Z</time>
      </trkpt>
      <trkpt lat="44.00657" lon="2.56425">
        <ele>362</ele>
        <time>2021-10-31T10:16:02.058Z</time>
      </trkpt>
      <trkpt lat="44.00657" lon="2.56425">
        <ele>362</ele>
        <time>2021-10-31T10:16:03.058Z</time>
      </trkpt>
      <trkpt lat="44.00656" lon="2.56424">
        <ele>361</ele>
        <time>2021-10-31T10:16:04.058Z</time>
      </trkpt>
      <trkpt lat="44.00656" lon="2.56424">
        <ele>361</ele>
        <time>2021-10-31T10:16:05.058Z</time>
      </trkpt>
      <trkpt lat="44.00656" lon="2.56423">
        <ele>361</ele>
        <time>2021-10-31T10:16:06.058Z</time>
      </trkpt>
      <trkpt lat="44.00656" lon="2.56423">
        <ele>361</ele>
        <time>2021-10-31T10:16:07.058Z</time>
      </trkpt>
      <trkpt lat="44.00655" lon="2.56422">
        <ele>361</ele>
        <time>2021-10-31T10:16:08.058Z</time>
      </trkpt>
      <trkpt lat="44.00655" lon="2.56421">
        <ele>361</ele>
        <time>2021-10-31T10:16:09.058Z</time>
      </trkpt>
      <trkpt lat="44.00654" lon="2.5642">
        <ele>361</ele>
        <time>2021-10-31T10:16:12.313Z</time>
      </trkpt>
      <trkpt lat="44.00654" lon="2.56419">
        <ele>361</ele>
        <time>2021-10-31T10:16:13.313Z</time>
      </trkpt>
      <trkpt lat="44.00654" lon="2.56418">
        <ele>361</ele>
        <time>2021-10-31T10:16:14.313Z</time>
      </trkpt>
      <trkpt lat="44.00654" lon="2.56418">
        <ele>361</ele>
        <time>2021-10-31T10:16:15.313Z</time>
      </trkpt>
      <trkpt lat="44.00654" lon="2.56417">
        <ele>361</ele>
        <time>2021-10-31T10:16:16.313Z</time>
      </trkpt>
      <trkpt lat="44.00654" lon="2.56416">
        <ele>361</ele>
        <time>2021-10-31T10:16:17.313Z</time>
      </trkpt>
      <trkpt lat="44.00654" lon="2.56415">
        <ele>361</ele>
        <time>2021-10-31T10:16:18.313Z</time>
      </trkpt>
      <trkpt lat="44.00654" lon="2.56414">
        <ele>361</ele>
        <time>2021-10-31T10:16:19.313Z</time>
      </trkpt>
      <trkpt lat="44.00654" lon="2.56413">
        <ele>361</ele>
        <time>2021-10-31T10:16:20.313Z</time>
      </trkpt>
      <trkpt lat="44.00654" lon="2.56412">
        <ele>361</ele>
        <time>2021-10-31T10:16:21.313Z</time>
      </trkpt>
      <trkpt lat="44.00654" lon="2.56411">
        <ele>360</ele>
        <time>2021-10-31T10:16:22.313Z</time>
      </trkpt>
      <trkpt lat="44.00654" lon="2.56411">
        <ele>360</ele>
        <time>2021-10-31T10:16:23.313Z</time>
      </trkpt>
      <trkpt lat="44.00654" lon="2.56409">
        <ele>360</ele>
        <time>2021-10-31T10:16:24.313Z</time>
      </trkpt>
      <trkpt lat="44.00653" lon="2.56408">
        <ele>360</ele>
        <time>2021-10-31T10:16:25.313Z</time>
      </trkpt>
      <trkpt lat="44.00653" lon="2.56407">
        <ele>360</ele>
        <time>2021-10-31T10:16:26.313Z</time>
      </trkpt>
      <trkpt lat="44.00653" lon="2.56405">
        <ele>360</ele>
        <time>2021-10-31T10:16:27.313Z</time>
      </trkpt>
      <trkpt lat="44.00652" lon="2.56404">
        <ele>360</ele>
        <time>2021-10-31T10:16:28.313Z</time>
      </trkpt>
      <trkpt lat="44.00652" lon="2.56402">
        <ele>360</ele>
        <time>2021-10-31T10:16:29.313Z</time>
      </trkpt>
      <trkpt lat="44.00651" lon="2.56401">
        <ele>360</ele>
        <time>2021-10-31T10:16:30.313Z</time>
      </trkpt>
      <trkpt lat="44.0065" lon="2.56399">
        <ele>359</ele>
        <time>2021-10-31T10:16:31.313Z</time>
      </trkpt>
      <trkpt lat="44.00649" lon="2.56398">
        <ele>359</ele>
        <time>2021-10-31T10:16:32.313Z</time>
      </trkpt>
      <trkpt lat="44.00649" lon="2.56397">
        <ele>359</ele>
        <time>2021-10-31T10:16:33.313Z</time>
      </trkpt>
      <trkpt lat="44.00648" lon="2.56395">
        <ele>359</ele>
        <time>2021-10-31T10:16:34.313Z</time>
      </trkpt>
      <trkpt lat="44.00648" lon="2.56393">
        <ele>359</ele>
        <time>2021-10-31T10:16:35.313Z</time>
      </trkpt>
      <trkpt lat="44.00647" lon="2.56392">
        <ele>359</ele>
        <time>2021-10-31T10:16:36.313Z</time>
      </trkpt>
      <trkpt lat="44.00647" lon="2.5639">
        <ele>359</ele>
        <time>2021-10-31T10:16:37.313Z</time>
      </trkpt>
      <trkpt lat="44.00646" lon="2.56388">
        <ele>359</ele>
        <time>2021-10-31T10:16:38.313Z</time>
      </trkpt>
      <trkpt lat="44.00645" lon="2.56387">
        <ele>359</ele>
        <time>2021-10-31T10:16:39.313Z</time>
      </trkpt>
      <trkpt lat="44.00645" lon="2.56385">
        <ele>358</ele>
        <time>2021-10-31T10:16:40.313Z</time>
      </trkpt>
      <trkpt lat="44.00644" lon="2.56384">
        <ele>358</ele>
        <time>2021-10-31T10:16:41.313Z</time>
      </trkpt>
      <trkpt lat="44.00644" lon="2.56383">
        <ele>358</ele>
        <time>2021-10-31T10:16:42.313Z</time>
      </trkpt>
      <trkpt lat="44.00643" lon="2.56382">
        <ele>358</ele>
        <time>2021-10-31T10:16:43.313Z</time>
      </trkpt>
      <trkpt lat="44.00642" lon="2.56382">
        <ele>358</ele>
        <time>2021-10-31T10:16:44.313Z</time>
      </trkpt>
      <trkpt lat="44.00642" lon="2.56381">
        <ele>358</ele>
        <time>2021-10-31T10:16:45.313Z</time>
      </trkpt>
      <trkpt lat="44.00641" lon="2.56381">
        <ele>358</ele>
        <time>2021-10-31T10:16:46.313Z</time>
      </trkpt>
      <trkpt lat="44.00641" lon="2.56381">
        <ele>358</ele>
        <time>2021-10-31T10:16:47.313Z</time>
      </trkpt>
      <trkpt lat="44.0064" lon="2.5638">
        <ele>357</ele>
        <time>2021-10-31T10:16:48.313Z</time>
      </trkpt>
      <trkpt lat="44.0064" lon="2.5638">
        <ele>357</ele>
        <time>2021-10-31T10:16:49.313Z</time>
      </trkpt>
      <trkpt lat="44.00639" lon="2.56379">
        <ele>357</ele>
        <time>2021-10-31T10:16:50.313Z</time>
      </trkpt>
      <trkpt lat="44.00639" lon="2.56379">
        <ele>357</ele>
        <time>2021-10-31T10:16:51.313Z</time>
      </trkpt>
      <trkpt lat="44.00638" lon="2.56379">
        <ele>357</ele>
        <time>2021-10-31T10:16:52.313Z</time>
      </trkpt>
      <trkpt lat="44.00638" lon="2.56379">
        <ele>356</ele>
        <time>2021-10-31T10:16:53.313Z</time>
      </trkpt>
      <trkpt lat="44.00637" lon="2.56379">
        <ele>356</ele>
        <time>2021-10-31T10:16:54.313Z</time>
      </trkpt>
      <trkpt lat="44.00636" lon="2.56378">
        <ele>356</ele>
        <time>2021-10-31T10:16:55.313Z</time>
      </trkpt>
      <trkpt lat="44.00636" lon="2.56378">
        <ele>356</ele>
        <time>2021-10-31T10:16:56.313Z</time>
      </trkpt>
      <trkpt lat="44.00635" lon="2.56378">
        <ele>355</ele>
        <time>2021-10-31T10:16:57.313Z</time>
      </trkpt>
      <trkpt lat="44.00635" lon="2.56378">
        <ele>355</ele>
        <time>2021-10-31T10:16:58.313Z</time>
      </trkpt>
      <trkpt lat="44.00634" lon="2.56378">
        <ele>355</ele>
        <time>2021-10-31T10:16:59.313Z</time>
      </trkpt>
      <trkpt lat="44.00634" lon="2.56378">
        <ele>355</ele>
        <time>2021-10-31T10:17:00.313Z</time>
      </trkpt>
      <trkpt lat="44.00633" lon="2.56378">
        <ele>354</ele>
        <time>2021-10-31T10:17:01.313Z</time>
      </trkpt>
      <trkpt lat="44.00633" lon="2.56378">
        <ele>354</ele>
        <time>2021-10-31T10:17:02.313Z</time>
      </trkpt>
      <trkpt lat="44.00632" lon="2.56379">
        <ele>354</ele>
        <time>2021-10-31T10:17:03.313Z</time>
      </trkpt>
      <trkpt lat="44.00632" lon="2.56379">
        <ele>354</ele>
        <time>2021-10-31T10:17:04.313Z</time>
      </trkpt>
      <trkpt lat="44.00631" lon="2.56379">
        <ele>353</ele>
        <time>2021-10-31T10:17:05.313Z</time>
      </trkpt>
      <trkpt lat="44.0063" lon="2.56379">
        <ele>353</ele>
        <time>2021-10-31T10:17:06.313Z</time>
      </trkpt>
      <trkpt lat="44.0063" lon="2.56379">
        <ele>353</ele>
        <time>2021-10-31T10:17:07.313Z</time>
      </trkpt>
      <trkpt lat="44.00629" lon="2.56378">
        <ele>353</ele>
        <time>2021-10-31T10:17:08.313Z</time>
      </trkpt>
      <trkpt lat="44.00629" lon="2.56378">
        <ele>352</ele>
        <time>2021-10-31T10:17:09.313Z</time>
      </trkpt>
      <trkpt lat="44.00628" lon="2.56378">
        <ele>352</ele>
        <time>2021-10-31T10:17:10.313Z</time>
      </trkpt>
      <trkpt lat="44.00627" lon="2.56376">
        <ele>352</ele>
        <time>2021-10-31T10:17:11.313Z</time>
      </trkpt>
      <trkpt lat="44.00626" lon="2.56375">
        <ele>351</ele>
        <time>2021-10-31T10:17:12.313Z</time>
      </trkpt>
      <trkpt lat="44.00625" lon="2.56374">
        <ele>351</ele>
        <time>2021-10-31T10:17:13.313Z</time>
      </trkpt>
      <trkpt lat="44.00624" lon="2.56374">
        <ele>351</ele>
        <time>2021-10-31T10:17:14.313Z</time>
      </trkpt>
      <trkpt lat="44.00623" lon="2.56373">
        <ele>351</ele>
        <time>2021-10-31T10:17:15.313Z</time>
      </trkpt>
      <trkpt lat="44.00622" lon="2.56372">
        <ele>350</ele>
        <time>2021-10-31T10:17:16.313Z</time>
      </trkpt>
      <trkpt lat="44.00621" lon="2.56371">
        <ele>350</ele>
        <time>2021-10-31T10:17:17.313Z</time>
      </trkpt>
      <trkpt lat="44.00619" lon="2.56371">
        <ele>349</ele>
        <time>2021-10-31T10:17:18.313Z</time>
      </trkpt>
      <trkpt lat="44.00618" lon="2.56371">
        <ele>349</ele>
        <time>2021-10-31T10:17:19.313Z</time>
      </trkpt>
      <trkpt lat="44.00617" lon="2.56371">
        <ele>349</ele>
        <time>2021-10-31T10:17:20.313Z</time>
      </trkpt>
      <trkpt lat="44.00616" lon="2.56371">
        <ele>348</ele>
        <time>2021-10-31T10:17:21.313Z</time>
      </trkpt>
      <trkpt lat="44.00615" lon="2.56371">
        <ele>348</ele>
        <time>2021-10-31T10:17:22.313Z</time>
      </trkpt>
      <trkpt lat="44.00614" lon="2.56371">
        <ele>347</ele>
        <time>2021-10-31T10:17:23.313Z</time>
      </trkpt>
      <trkpt lat="44.00614" lon="2.56371">
        <ele>347</ele>
        <time>2021-10-31T10:17:24.313Z</time>
      </trkpt>
      <trkpt lat="44.00613" lon="2.56371">
        <ele>347</ele>
        <time>2021-10-31T10:17:25.313Z</time>
      </trkpt>
      <trkpt lat="44.00612" lon="2.56371">
        <ele>346</ele>
        <time>2021-10-31T10:17:26.313Z</time>
      </trkpt>
      <trkpt lat="44.00612" lon="2.56371">
        <ele>346</ele>
        <time>2021-10-31T10:17:27.313Z</time>
      </trkpt>
      <trkpt lat="44.00611" lon="2.5637">
        <ele>346</ele>
        <time>2021-10-31T10:17:28.313Z</time>
      </trkpt>
      <trkpt lat="44.00611" lon="2.5637">
        <ele>345</ele>
        <time>2021-10-31T10:17:29.313Z</time>
      </trkpt>
      <trkpt lat="44.00611" lon="2.5637">
        <ele>345</ele>
        <time>2021-10-31T10:17:30.313Z</time>
      </trkpt>
      <trkpt lat="44.0061" lon="2.5637">
        <ele>345</ele>
        <time>2021-10-31T10:17:31.313Z</time>
      </trkpt>
      <trkpt lat="44.00609" lon="2.5637">
        <ele>345</ele>
        <time>2021-10-31T10:17:32.313Z</time>
      </trkpt>
      <trkpt lat="44.00609" lon="2.56369">
        <ele>344</ele>
        <time>2021-10-31T10:17:33.313Z</time>
      </trkpt>
      <trkpt lat="44.00608" lon="2.56369">
        <ele>344</ele>
        <time>2021-10-31T10:17:34.313Z</time>
      </trkpt>
      <trkpt lat="44.00608" lon="2.56369">
        <ele>344</ele>
        <time>2021-10-31T10:17:35.313Z</time>
      </trkpt>
      <trkpt lat="44.00607" lon="2.56369">
        <ele>343</ele>
        <time>2021-10-31T10:17:36.313Z</time>
      </trkpt>
      <trkpt lat="44.00606" lon="2.56368">
        <ele>343</ele>
        <time>2021-10-31T10:17:37.313Z</time>
      </trkpt>
      <trkpt lat="44.00605" lon="2.56368">
        <ele>343</ele>
        <time>2021-10-31T10:17:38.313Z</time>
      </trkpt>
      <trkpt lat="44.00604" lon="2.56368">
        <ele>343</ele>
        <time>2021-10-31T10:17:39.313Z</time>
      </trkpt>
      <trkpt lat="44.00603" lon="2.56367">
        <ele>342</ele>
        <time>2021-10-31T10:17:40.313Z</time>
      </trkpt>
      <trkpt lat="44.00602" lon="2.56367">
        <ele>342</ele>
        <time>2021-10-31T10:17:41.313Z</time>
      </trkpt>
      <trkpt lat="44.00601" lon="2.56367">
        <ele>342</ele>
        <time>2021-10-31T10:17:42.313Z</time>
      </trkpt>
      <trkpt lat="44.006" lon="2.56367">
        <ele>341</ele>
        <time>2021-10-31T10:17:43.313Z</time>
      </trkpt>
      <trkpt lat="44.00599" lon="2.56366">
        <ele>341</ele>
        <time>2021-10-31T10:17:44.313Z</time>
      </trkpt>
      <trkpt lat="44.00598" lon="2.56365">
        <ele>341</ele>
        <time>2021-10-31T10:17:45.313Z</time>
      </trkpt>
      <trkpt lat="44.00596" lon="2.56365">
        <ele>341</ele>
        <time>2021-10-31T10:17:46.313Z</time>
      </trkpt>
      <trkpt lat="44.00595" lon="2.56365">
        <ele>341</ele>
        <time>2021-10-31T10:17:47.313Z</time>
      </trkpt>
      <trkpt lat="44.00594" lon="2.56365">
        <ele>341</ele>
        <time>2021-10-31T10:17:48.313Z</time>
      </trkpt>
      <trkpt lat="44.00593" lon="2.56365">
        <ele>340</ele>
        <time>2021-10-31T10:17:49.313Z</time>
      </trkpt>
      <trkpt lat="44.00592" lon="2.56365">
        <ele>340</ele>
        <time>2021-10-31T10:17:50.313Z</time>
      </trkpt>
      <trkpt lat="44.00591" lon="2.56365">
        <ele>340</ele>
        <time>2021-10-31T10:17:51.313Z</time>
      </trkpt>
      <trkpt lat="44.00591" lon="2.56365">
        <ele>340</ele>
        <time>2021-10-31T10:17:52.313Z</time>
      </trkpt>
      <trkpt lat="44.0059" lon="2.56366">
        <ele>340</ele>
        <time>2021-10-31T10:17:53.313Z</time>
      </trkpt>
      <trkpt lat="44.0059" lon="2.56366">
        <ele>339</ele>
        <time>2021-10-31T10:17:54.313Z</time>
      </trkpt>
      <trkpt lat="44.0059" lon="2.56366">
        <ele>339</ele>
        <time>2021-10-31T10:17:55.313Z</time>
      </trkpt>
      <trkpt lat="44.00589" lon="2.56366">
        <ele>339</ele>
        <time>2021-10-31T10:17:56.313Z</time>
      </trkpt>
      <trkpt lat="44.00588" lon="2.56366">
        <ele>338</ele>
        <time>2021-10-31T10:17:57.313Z</time>
      </trkpt>
      <trkpt lat="44.00588" lon="2.56365">
        <ele>338</ele>
        <time>2021-10-31T10:17:58.313Z</time>
      </trkpt>
      <trkpt lat="44.00587" lon="2.56365">
        <ele>338</ele>
        <time>2021-10-31T10:17:59.313Z</time>
      </trkpt>
      <trkpt lat="44.00585" lon="2.56364">
        <ele>337</ele>
        <time>2021-10-31T10:18:00.313Z</time>
      </trkpt>
      <trkpt lat="44.00585" lon="2.56364">
        <ele>337</ele>
        <time>2021-10-31T10:18:01.313Z</time>
      </trkpt>
      <trkpt lat="44.00584" lon="2.56364">
        <ele>336</ele>
        <time>2021-10-31T10:18:02.313Z</time>
      </trkpt>
      <trkpt lat="44.00583" lon="2.56364">
        <ele>336</ele>
        <time>2021-10-31T10:18:03.313Z</time>
      </trkpt>
      <trkpt lat="44.00583" lon="2.56364">
        <ele>336</ele>
        <time>2021-10-31T10:18:04.313Z</time>
      </trkpt>
      <trkpt lat="44.00582" lon="2.56364">
        <ele>336</ele>
        <time>2021-10-31T10:18:05.313Z</time>
      </trkpt>
      <trkpt lat="44.00582" lon="2.56364">
        <ele>336</ele>
        <time>2021-10-31T10:18:06.313Z</time>
      </trkpt>
      <trkpt lat="44.00581" lon="2.56363">
        <ele>335</ele>
        <time>2021-10-31T10:18:07.313Z</time>
      </trkpt>
      <trkpt lat="44.00581" lon="2.56363">
        <ele>335</ele>
        <time>2021-10-31T10:18:08.313Z</time>
      </trkpt>
      <trkpt lat="44.0058" lon="2.56363">
        <ele>335</ele>
        <time>2021-10-31T10:18:09.313Z</time>
      </trkpt>
      <trkpt lat="44.0058" lon="2.56363">
        <ele>335</ele>
        <time>2021-10-31T10:18:10.313Z</time>
      </trkpt>
      <trkpt lat="44.0058" lon="2.56363">
        <ele>335</ele>
        <time>2021-10-31T10:18:11.313Z</time>
      </trkpt>
      <trkpt lat="44.00579" lon="2.56363">
        <ele>335</ele>
        <time>2021-10-31T10:18:12.313Z</time>
      </trkpt>
      <trkpt lat="44.00578" lon="2.56363">
        <ele>335</ele>
        <time>2021-10-31T10:18:13.313Z</time>
      </trkpt>
      <trkpt lat="44.00578" lon="2.56363">
        <ele>334</ele>
        <time>2021-10-31T10:18:14.313Z</time>
      </trkpt>
      <trkpt lat="44.00577" lon="2.56363">
        <ele>334</ele>
        <time>2021-10-31T10:18:15.313Z</time>
      </trkpt>
      <trkpt lat="44.00576" lon="2.56362">
        <ele>334</ele>
        <time>2021-10-31T10:18:16.313Z</time>
      </trkpt>
      <trkpt lat="44.00575" lon="2.56362">
        <ele>334</ele>
        <time>2021-10-31T10:18:17.313Z</time>
      </trkpt>
      <trkpt lat="44.00575" lon="2.56361">
        <ele>334</ele>
        <time>2021-10-31T10:18:18.313Z</time>
      </trkpt>
      <trkpt lat="44.00574" lon="2.5636">
        <ele>334</ele>
        <time>2021-10-31T10:18:19.313Z</time>
      </trkpt>
      <trkpt lat="44.00573" lon="2.56359">
        <ele>334</ele>
        <time>2021-10-31T10:18:20.313Z</time>
      </trkpt>
      <trkpt lat="44.00572" lon="2.56358">
        <ele>334</ele>
        <time>2021-10-31T10:18:21.313Z</time>
      </trkpt>
      <trkpt lat="44.00571" lon="2.56357">
        <ele>334</ele>
        <time>2021-10-31T10:18:22.313Z</time>
      </trkpt>
      <trkpt lat="44.0057" lon="2.56356">
        <ele>333</ele>
        <time>2021-10-31T10:18:23.313Z</time>
      </trkpt>
      <trkpt lat="44.00569" lon="2.56356">
        <ele>333</ele>
        <time>2021-10-31T10:18:24.313Z</time>
      </trkpt>
      <trkpt lat="44.00568" lon="2.56355">
        <ele>333</ele>
        <time>2021-10-31T10:18:25.313Z</time>
      </trkpt>
      <trkpt lat="44.00568" lon="2.56354">
        <ele>333</ele>
        <time>2021-10-31T10:18:26.313Z</time>
      </trkpt>
      <trkpt lat="44.00566" lon="2.56354">
        <ele>333</ele>
        <time>2021-10-31T10:18:27.313Z</time>
      </trkpt>
      <trkpt lat="44.00565" lon="2.56353">
        <ele>333</ele>
        <time>2021-10-31T10:18:28.313Z</time>
      </trkpt>
      <trkpt lat="44.00565" lon="2.56352">
        <ele>333</ele>
        <time>2021-10-31T10:18:29.313Z</time>
      </trkpt>
      <trkpt lat="44.00563" lon="2.56351">
        <ele>333</ele>
        <time>2021-10-31T10:18:30.313Z</time>
      </trkpt>
      <trkpt lat="44.00562" lon="2.5635">
        <ele>332</ele>
        <time>2021-10-31T10:18:31.313Z</time>
      </trkpt>
      <trkpt lat="44.00561" lon="2.56349">
        <ele>332</ele>
        <time>2021-10-31T10:18:32.313Z</time>
      </trkpt>
      <trkpt lat="44.0056" lon="2.56349">
        <ele>332</ele>
        <time>2021-10-31T10:18:33.313Z</time>
      </trkpt>
      <trkpt lat="44.00559" lon="2.56349">
        <ele>332</ele>
        <time>2021-10-31T10:18:34.313Z</time>
      </trkpt>
      <trkpt lat="44.00558" lon="2.56349">
        <ele>332</ele>
        <time>2021-10-31T10:18:35.313Z</time>
      </trkpt>
      <trkpt lat="44.00557" lon="2.56349">
        <ele>332</ele>
        <time>2021-10-31T10:18:36.313Z</time>
      </trkpt>
      <trkpt lat="44.00556" lon="2.56349">
        <ele>332</ele>
        <time>2021-10-31T10:18:37.313Z</time>
      </trkpt>
      <trkpt lat="44.00556" lon="2.56349">
        <ele>332</ele>
        <time>2021-10-31T10:18:38.313Z</time>
      </trkpt>
      <trkpt lat="44.00556" lon="2.56349">
        <ele>331</ele>
        <time>2021-10-31T10:18:39.313Z</time>
      </trkpt>
      <trkpt lat="44.00555" lon="2.56349">
        <ele>331</ele>
        <time>2021-10-31T10:18:40.313Z</time>
      </trkpt>
      <trkpt lat="44.00555" lon="2.56349">
        <ele>331</ele>
        <time>2021-10-31T10:18:41.313Z</time>
      </trkpt>
      <trkpt lat="44.00549" lon="2.56348">
        <ele>329</ele>
        <time>2021-10-31T10:18:42.313Z</time>
      </trkpt>
      <trkpt lat="44.00548" lon="2.56348">
        <ele>329</ele>
        <time>2021-10-31T10:18:43.313Z</time>
      </trkpt>
      <trkpt lat="44.00548" lon="2.56348">
        <ele>329</ele>
        <time>2021-10-31T10:18:44.313Z</time>
      </trkpt>
      <trkpt lat="44.00547" lon="2.56347">
        <ele>329</ele>
        <time>2021-10-31T10:18:45.313Z</time>
      </trkpt>
      <trkpt lat="44.00546" lon="2.56346">
        <ele>329</ele>
        <time>2021-10-31T10:18:46.313Z</time>
      </trkpt>
      <trkpt lat="44.00546" lon="2.56345">
        <ele>328</ele>
        <time>2021-10-31T10:18:47.313Z</time>
      </trkpt>
      <trkpt lat="44.00545" lon="2.56345">
        <ele>328</ele>
        <time>2021-10-31T10:18:48.313Z</time>
      </trkpt>
      <trkpt lat="44.00545" lon="2.56344">
        <ele>328</ele>
        <time>2021-10-31T10:18:49.313Z</time>
      </trkpt>
      <trkpt lat="44.00544" lon="2.56344">
        <ele>328</ele>
        <time>2021-10-31T10:18:50.313Z</time>
      </trkpt>
      <trkpt lat="44.00543" lon="2.56343">
        <ele>328</ele>
        <time>2021-10-31T10:18:51.313Z</time>
      </trkpt>
      <trkpt lat="44.00543" lon="2.56343">
        <ele>328</ele>
        <time>2021-10-31T10:18:52.313Z</time>
      </trkpt>
      <trkpt lat="44.00542" lon="2.56342">
        <ele>328</ele>
        <time>2021-10-31T10:18:53.313Z</time>
      </trkpt>
      <trkpt lat="44.00541" lon="2.56341">
        <ele>328</ele>
        <time>2021-10-31T10:18:54.313Z</time>
      </trkpt>
      <trkpt lat="44.0054" lon="2.56341">
        <ele>328</ele>
        <time>2021-10-31T10:18:55.313Z</time>
      </trkpt>
      <trkpt lat="44.00539" lon="2.5634">
        <ele>328</ele>
        <time>2021-10-31T10:18:56.313Z</time>
      </trkpt>
      <trkpt lat="44.00538" lon="2.5634">
        <ele>328</ele>
        <time>2021-10-31T10:18:57.313Z</time>
      </trkpt>
      <trkpt lat="44.00537" lon="2.56339">
        <ele>328</ele>
        <time>2021-10-31T10:18:58.313Z</time>
      </trkpt>
      <trkpt lat="44.00537" lon="2.56339">
        <ele>327</ele>
        <time>2021-10-31T10:18:59.313Z</time>
      </trkpt>
      <trkpt lat="44.00536" lon="2.56339">
        <ele>327</ele>
        <time>2021-10-31T10:19:00.313Z</time>
      </trkpt>
      <trkpt lat="44.00535" lon="2.56339">
        <ele>327</ele>
        <time>2021-10-31T10:19:01.313Z</time>
      </trkpt>
      <trkpt lat="44.00534" lon="2.56338">
        <ele>327</ele>
        <time>2021-10-31T10:19:02.313Z</time>
      </trkpt>
      <trkpt lat="44.00534" lon="2.56337">
        <ele>327</ele>
        <time>2021-10-31T10:19:03.313Z</time>
      </trkpt>
      <trkpt lat="44.00533" lon="2.56337">
        <ele>327</ele>
        <time>2021-10-31T10:19:04.313Z</time>
      </trkpt>
      <trkpt lat="44.00532" lon="2.56336">
        <ele>327</ele>
        <time>2021-10-31T10:19:05.313Z</time>
      </trkpt>
      <trkpt lat="44.00532" lon="2.56335">
        <ele>327</ele>
        <time>2021-10-31T10:19:06.313Z</time>
      </trkpt>
      <trkpt lat="44.00531" lon="2.56335">
        <ele>327</ele>
        <time>2021-10-31T10:19:07.313Z</time>
      </trkpt>
      <trkpt lat="44.0053" lon="2.56334">
        <ele>327</ele>
        <time>2021-10-31T10:19:08.313Z</time>
      </trkpt>
      <trkpt lat="44.00529" lon="2.56333">
        <ele>327</ele>
        <time>2021-10-31T10:19:09.313Z</time>
      </trkpt>
      <trkpt lat="44.00528" lon="2.56333">
        <ele>327</ele>
        <time>2021-10-31T10:19:10.313Z</time>
      </trkpt>
      <trkpt lat="44.00527" lon="2.56332">
        <ele>327</ele>
        <time>2021-10-31T10:25:12.329Z</time>
      </trkpt>
      <trkpt lat="44.00527" lon="2.56332">
        <ele>327</ele>
        <time>2021-10-31T10:25:13.329Z</time>
      </trkpt>
      <trkpt lat="44.00526" lon="2.56332">
        <ele>327</ele>
        <time>2021-10-31T10:25:14.329Z</time>
      </trkpt>
      <trkpt lat="44.00525" lon="2.56331">
        <ele>327</ele>
        <time>2021-10-31T10:25:15.329Z</time>
      </trkpt>
      <trkpt lat="44.00524" lon="2.56331">
        <ele>327</ele>
        <time>2021-10-31T10:25:16.329Z</time>
      </trkpt>
      <trkpt lat="44.00524" lon="2.56331">
        <ele>327</ele>
        <time>2021-10-31T10:25:17.329Z</time>
      </trkpt>
      <trkpt lat="44.00523" lon="2.56331">
        <ele>327</ele>
        <time>2021-10-31T10:25:18.329Z</time>
      </trkpt>
      <trkpt lat="44.00522" lon="2.56331">
        <ele>327</ele>
        <time>2021-10-31T10:25:19.329Z</time>
      </trkpt>
      <trkpt lat="44.00522" lon="2.5633">
        <ele>327</ele>
        <time>2021-10-31T10:25:20.329Z</time>
      </trkpt>
      <trkpt lat="44.00521" lon="2.5633">
        <ele>327</ele>
        <time>2021-10-31T10:25:21.329Z</time>
      </trkpt>
      <trkpt lat="44.0052" lon="2.56329">
        <ele>327</ele>
        <time>2021-10-31T10:25:22.329Z</time>
      </trkpt>
      <trkpt lat="44.0052" lon="2.5633">
        <ele>327</ele>
        <time>2021-10-31T10:25:23.329Z</time>
      </trkpt>
      <trkpt lat="44.00519" lon="2.56329">
        <ele>326</ele>
        <time>2021-10-31T10:25:24.329Z</time>
      </trkpt>
      <trkpt lat="44.00518" lon="2.56329">
        <ele>326</ele>
        <time>2021-10-31T10:25:25.329Z</time>
      </trkpt>
      <trkpt lat="44.00518" lon="2.56329">
        <ele>326</ele>
        <time>2021-10-31T10:25:26.329Z</time>
      </trkpt>
      <trkpt lat="44.00517" lon="2.56328">
        <ele>326</ele>
        <time>2021-10-31T10:25:27.329Z</time>
      </trkpt>
      <trkpt lat="44.00517" lon="2.56328">
        <ele>326</ele>
        <time>2021-10-31T10:25:28.329Z</time>
      </trkpt>
      <trkpt lat="44.00516" lon="2.56327">
        <ele>326</ele>
        <time>2021-10-31T10:25:29.329Z</time>
      </trkpt>
      <trkpt lat="44.00516" lon="2.56327">
        <ele>326</ele>
        <time>2021-10-31T10:25:30.329Z</time>
      </trkpt>
      <trkpt lat="44.00516" lon="2.56326">
        <ele>326</ele>
        <time>2021-10-31T10:25:31.329Z</time>
      </trkpt>
      <trkpt lat="44.00515" lon="2.56326">
        <ele>326</ele>
        <time>2021-10-31T10:25:35.350Z</time>
      </trkpt>
      <trkpt lat="44.00514" lon="2.56325">
        <ele>326</ele>
        <time>2021-10-31T10:25:36.350Z</time>
      </trkpt>
      <trkpt lat="44.00514" lon="2.56325">
        <ele>326</ele>
        <time>2021-10-31T10:25:37.350Z</time>
      </trkpt>
      <trkpt lat="44.00513" lon="2.56325">
        <ele>325</ele>
        <time>2021-10-31T10:25:38.350Z</time>
      </trkpt>
      <trkpt lat="44.00513" lon="2.56324">
        <ele>325</ele>
        <time>2021-10-31T10:25:39.350Z</time>
      </trkpt>
      <trkpt lat="44.00512" lon="2.56324">
        <ele>325</ele>
        <time>2021-10-31T10:25:40.350Z</time>
      </trkpt>
      <trkpt lat="44.00511" lon="2.56324">
        <ele>325</ele>
        <time>2021-10-31T10:25:41.350Z</time>
      </trkpt>
      <trkpt lat="44.00511" lon="2.56324">
        <ele>325</ele>
        <time>2021-10-31T10:25:42.350Z</time>
      </trkpt>
      <trkpt lat="44.00511" lon="2.56324">
        <ele>325</ele>
        <time>2021-10-31T10:25:43.350Z</time>
      </trkpt>
      <trkpt lat="44.0051" lon="2.56323">
        <ele>325</ele>
        <time>2021-10-31T10:25:44.350Z</time>
      </trkpt>
      <trkpt lat="44.0051" lon="2.56323">
        <ele>325</ele>
        <time>2021-10-31T10:25:45.350Z</time>
      </trkpt>
      <trkpt lat="44.00509" lon="2.56323">
        <ele>325</ele>
        <time>2021-10-31T10:25:46.350Z</time>
      </trkpt>
      <trkpt lat="44.00509" lon="2.56323">
        <ele>325</ele>
        <time>2021-10-31T10:25:47.350Z</time>
      </trkpt>
      <trkpt lat="44.00508" lon="2.56323">
        <ele>325</ele>
        <time>2021-10-31T10:25:48.350Z</time>
      </trkpt>
      <trkpt lat="44.00508" lon="2.56323">
        <ele>325</ele>
        <time>2021-10-31T10:25:49.350Z</time>
      </trkpt>
      <trkpt lat="44.00505" lon="2.56323">
        <ele>325</ele>
        <time>2021-10-31T10:25:50.350Z</time>
      </trkpt>
      <trkpt lat="44.00505" lon="2.56323">
        <ele>325</ele>
        <time>2021-10-31T10:25:51.350Z</time>
      </trkpt>
      <trkpt lat="44.00504" lon="2.56321">
        <ele>325</ele>
        <time>2021-10-31T10:25:52.350Z</time>
      </trkpt>
      <trkpt lat="44.00504" lon="2.5632">
        <ele>325</ele>
        <time>2021-10-31T10:25:53.350Z</time>
      </trkpt>
      <trkpt lat="44.00503" lon="2.56319">
        <ele>325</ele>
        <time>2021-10-31T10:25:54.350Z</time>
      </trkpt>
      <trkpt lat="44.00503" lon="2.56319">
        <ele>325</ele>
        <time>2021-10-31T10:25:55.350Z</time>
      </trkpt>
      <trkpt lat="44.00502" lon="2.56318">
        <ele>325</ele>
        <time>2021-10-31T10:25:56.350Z</time>
      </trkpt>
      <trkpt lat="44.00501" lon="2.56317">
        <ele>325</ele>
        <time>2021-10-31T10:25:57.350Z</time>
      </trkpt>
      <trkpt lat="44.00501" lon="2.56317">
        <ele>325</ele>
        <time>2021-10-31T10:25:58.350Z</time>
      </trkpt>
      <trkpt lat="44.005" lon="2.56316">
        <ele>325</ele>
        <time>2021-10-31T10:25:59.350Z</time>
      </trkpt>
      <trkpt lat="44.00499" lon="2.56316">
        <ele>324</ele>
        <time>2021-10-31T10:26:00.350Z</time>
      </trkpt>
      <trkpt lat="44.00499" lon="2.56316">
        <ele>324</ele>
        <time>2021-10-31T10:26:01.350Z</time>
      </trkpt>
      <trkpt lat="44.00498" lon="2.56316">
        <ele>324</ele>
        <time>2021-10-31T10:26:02.350Z</time>
      </trkpt>
      <trkpt lat="44.00498" lon="2.56315">
        <ele>324</ele>
        <time>2021-10-31T10:26:03.350Z</time>
      </trkpt>
      <trkpt lat="44.00497" lon="2.56315">
        <ele>323</ele>
        <time>2021-10-31T10:26:04.350Z</time>
      </trkpt>
      <trkpt lat="44.00496" lon="2.56315">
        <ele>323</ele>
        <time>2021-10-31T10:26:05.350Z</time>
      </trkpt>
      <trkpt lat="44.00495" lon="2.56315">
        <ele>323</ele>
        <time>2021-10-31T10:26:06.350Z</time>
      </trkpt>
      <trkpt lat="44.00494" lon="2.56314">
        <ele>323</ele>
        <time>2021-10-31T10:26:07.350Z</time>
      </trkpt>
      <trkpt lat="44.00493" lon="2.56314">
        <ele>323</ele>
        <time>2021-10-31T10:26:08.350Z</time>
      </trkpt>
      <trkpt lat="44.00493" lon="2.56313">
        <ele>323</ele>
        <time>2021-10-31T10:26:09.350Z</time>
      </trkpt>
      <trkpt lat="44.00492" lon="2.56313">
        <ele>322</ele>
        <time>2021-10-31T10:26:10.350Z</time>
      </trkpt>
      <trkpt lat="44.00491" lon="2.56313">
        <ele>322</ele>
        <time>2021-10-31T10:26:11.350Z</time>
      </trkpt>
      <trkpt lat="44.0049" lon="2.56312">
        <ele>322</ele>
        <time>2021-10-31T10:26:12.350Z</time>
      </trkpt>
      <trkpt lat="44.00489" lon="2.56312">
        <ele>322</ele>
        <time>2021-10-31T10:26:13.350Z</time>
      </trkpt>
      <trkpt lat="44.00488" lon="2.56311">
        <ele>322</ele>
        <time>2021-10-31T10:26:14.350Z</time>
      </trkpt>
      <trkpt lat="44.00488" lon="2.56311">
        <ele>322</ele>
        <time>2021-10-31T10:26:15.350Z</time>
      </trkpt>
      <trkpt lat="44.00487" lon="2.56311">
        <ele>322</ele>
        <time>2021-10-31T10:26:16.350Z</time>
      </trkpt>
      <trkpt lat="44.00486" lon="2.56311">
        <ele>321</ele>
        <time>2021-10-31T10:26:17.350Z</time>
      </trkpt>
      <trkpt lat="44.00486" lon="2.5631">
        <ele>321</ele>
        <time>2021-10-31T10:26:18.350Z</time>
      </trkpt>
      <trkpt lat="44.00485" lon="2.5631">
        <ele>321</ele>
        <time>2021-10-31T10:26:19.350Z</time>
      </trkpt>
      <trkpt lat="44.00484" lon="2.56309">
        <ele>321</ele>
        <time>2021-10-31T10:26:20.350Z</time>
      </trkpt>
      <trkpt lat="44.00484" lon="2.56309">
        <ele>321</ele>
        <time>2021-10-31T10:26:21.350Z</time>
      </trkpt>
      <trkpt lat="44.00483" lon="2.56309">
        <ele>321</ele>
        <time>2021-10-31T10:26:22.350Z</time>
      </trkpt>
      <trkpt lat="44.00482" lon="2.56308">
        <ele>321</ele>
        <time>2021-10-31T10:26:23.350Z</time>
      </trkpt>
      <trkpt lat="44.00482" lon="2.56307">
        <ele>321</ele>
        <time>2021-10-31T10:26:24.350Z</time>
      </trkpt>
      <trkpt lat="44.00481" lon="2.56307">
        <ele>320</ele>
        <time>2021-10-31T10:26:25.350Z</time>
      </trkpt>
      <trkpt lat="44.00481" lon="2.56306">
        <ele>320</ele>
        <time>2021-10-31T10:26:26.350Z</time>
      </trkpt>
      <trkpt lat="44.0048" lon="2.56306">
        <ele>320</ele>
        <time>2021-10-31T10:26:27.350Z</time>
      </trkpt>
      <trkpt lat="44.0048" lon="2.56305">
        <ele>320</ele>
        <time>2021-10-31T10:26:28.350Z</time>
      </trkpt>
      <trkpt lat="44.00479" lon="2.56305">
        <ele>320</ele>
        <time>2021-10-31T10:26:29.350Z</time>
      </trkpt>
      <trkpt lat="44.00479" lon="2.56304">
        <ele>320</ele>
        <time>2021-10-31T10:26:30.350Z</time>
      </trkpt>
      <trkpt lat="44.00478" lon="2.56304">
        <ele>320</ele>
        <time>2021-10-31T10:26:31.350Z</time>
      </trkpt>
      <trkpt lat="44.00477" lon="2.56303">
        <ele>320</ele>
        <time>2021-10-31T10:26:32.350Z</time>
      </trkpt>
      <trkpt lat="44.00476" lon="2.56303">
        <ele>319</ele>
        <time>2021-10-31T10:26:33.350Z</time>
      </trkpt>
      <trkpt lat="44.00476" lon="2.56302">
        <ele>319</ele>
        <time>2021-10-31T10:26:34.350Z</time>
      </trkpt>
      <trkpt lat="44.00475" lon="2.56301">
        <ele>319</ele>
        <time>2021-10-31T10:26:35.350Z</time>
      </trkpt>
      <trkpt lat="44.00475" lon="2.563">
        <ele>319</ele>
        <time>2021-10-31T10:26:36.350Z</time>
      </trkpt>
      <trkpt lat="44.00474" lon="2.563">
        <ele>319</ele>
        <time>2021-10-31T10:26:37.350Z</time>
      </trkpt>
      <trkpt lat="44.00473" lon="2.56299">
        <ele>319</ele>
        <time>2021-10-31T10:26:38.350Z</time>
      </trkpt>
      <trkpt lat="44.00472" lon="2.56298">
        <ele>318</ele>
        <time>2021-10-31T10:26:39.350Z</time>
      </trkpt>
      <trkpt lat="44.00471" lon="2.56298">
        <ele>318</ele>
        <time>2021-10-31T10:26:40.350Z</time>
      </trkpt>
      <trkpt lat="44.0047" lon="2.56297">
        <ele>318</ele>
        <time>2021-10-31T10:26:41.350Z</time>
      </trkpt>
      <trkpt lat="44.00469" lon="2.56296">
        <ele>318</ele>
        <time>2021-10-31T10:26:42.350Z</time>
      </trkpt>
      <trkpt lat="44.00468" lon="2.56295">
        <ele>317</ele>
        <time>2021-10-31T10:26:43.350Z</time>
      </trkpt>
      <trkpt lat="44.00467" lon="2.56294">
        <ele>317</ele>
        <time>2021-10-31T10:26:44.350Z</time>
      </trkpt>
      <trkpt lat="44.00466" lon="2.56294">
        <ele>317</ele>
        <time>2021-10-31T10:26:45.350Z</time>
      </trkpt>
      <trkpt lat="44.00465" lon="2.56293">
        <ele>317</ele>
        <time>2021-10-31T10:26:46.350Z</time>
      </trkpt>
      <trkpt lat="44.00464" lon="2.56292">
        <ele>316</ele>
        <time>2021-10-31T10:26:47.350Z</time>
      </trkpt>
      <trkpt lat="44.00463" lon="2.56291">
        <ele>316</ele>
        <time>2021-10-31T10:26:48.350Z</time>
      </trkpt>
      <trkpt lat="44.00463" lon="2.5629">
        <ele>316</ele>
        <time>2021-10-31T10:26:49.350Z</time>
      </trkpt>
      <trkpt lat="44.00462" lon="2.56289">
        <ele>316</ele>
        <time>2021-10-31T10:26:50.350Z</time>
      </trkpt>
      <trkpt lat="44.00461" lon="2.56288">
        <ele>316</ele>
        <time>2021-10-31T10:26:51.350Z</time>
      </trkpt>
      <trkpt lat="44.0046" lon="2.56288">
        <ele>315</ele>
        <time>2021-10-31T10:26:52.350Z</time>
      </trkpt>
      <trkpt lat="44.00459" lon="2.56287">
        <ele>315</ele>
        <time>2021-10-31T10:26:53.350Z</time>
      </trkpt>
      <trkpt lat="44.00458" lon="2.56286">
        <ele>315</ele>
        <time>2021-10-31T10:26:54.350Z</time>
      </trkpt>
      <trkpt lat="44.00458" lon="2.56286">
        <ele>315</ele>
        <time>2021-10-31T10:26:55.350Z</time>
      </trkpt>
      <trkpt lat="44.00457" lon="2.56285">
        <ele>315</ele>
        <time>2021-10-31T10:26:56.350Z</time>
      </trkpt>
      <trkpt lat="44.00457" lon="2.56284">
        <ele>314</ele>
        <time>2021-10-31T10:26:57.350Z</time>
      </trkpt>
      <trkpt lat="44.00456" lon="2.56283">
        <ele>314</ele>
        <time>2021-10-31T10:26:58.350Z</time>
      </trkpt>
      <trkpt lat="44.00455" lon="2.56283">
        <ele>314</ele>
        <time>2021-10-31T10:26:59.350Z</time>
      </trkpt>
      <trkpt lat="44.00455" lon="2.56282">
        <ele>314</ele>
        <time>2021-10-31T10:27:00.350Z</time>
      </trkpt>
      <trkpt lat="44.00454" lon="2.56281">
        <ele>314</ele>
        <time>2021-10-31T10:27:01.350Z</time>
      </trkpt>
      <trkpt lat="44.00454" lon="2.5628">
        <ele>314</ele>
        <time>2021-10-31T10:27:02.350Z</time>
      </trkpt>
      <trkpt lat="44.00453" lon="2.5628">
        <ele>313</ele>
        <time>2021-10-31T10:27:03.350Z</time>
      </trkpt>
      <trkpt lat="44.00453" lon="2.5628">
        <ele>313</ele>
        <time>2021-10-31T10:27:04.350Z</time>
      </trkpt>
      <trkpt lat="44.00452" lon="2.56279">
        <ele>313</ele>
        <time>2021-10-31T10:27:05.350Z</time>
      </trkpt>
      <trkpt lat="44.00452" lon="2.56279">
        <ele>313</ele>
        <time>2021-10-31T10:27:06.350Z</time>
      </trkpt>
      <trkpt lat="44.00451" lon="2.56278">
        <ele>313</ele>
        <time>2021-10-31T10:27:07.350Z</time>
      </trkpt>
      <trkpt lat="44.00451" lon="2.56277">
        <ele>313</ele>
        <time>2021-10-31T10:27:08.350Z</time>
      </trkpt>
      <trkpt lat="44.0045" lon="2.56277">
        <ele>312</ele>
        <time>2021-10-31T10:27:09.350Z</time>
      </trkpt>
      <trkpt lat="44.0045" lon="2.56276">
        <ele>312</ele>
        <time>2021-10-31T10:27:10.350Z</time>
      </trkpt>
      <trkpt lat="44.00449" lon="2.56276">
        <ele>312</ele>
        <time>2021-10-31T10:27:11.350Z</time>
      </trkpt>
      <trkpt lat="44.00448" lon="2.56275">
        <ele>312</ele>
        <time>2021-10-31T10:27:12.350Z</time>
      </trkpt>
      <trkpt lat="44.00448" lon="2.56274">
        <ele>312</ele>
        <time>2021-10-31T10:27:13.350Z</time>
      </trkpt>
      <trkpt lat="44.00447" lon="2.56273">
        <ele>311</ele>
        <time>2021-10-31T10:27:14.350Z</time>
      </trkpt>
      <trkpt lat="44.00446" lon="2.56272">
        <ele>311</ele>
        <time>2021-10-31T10:27:15.350Z</time>
      </trkpt>
      <trkpt lat="44.00445" lon="2.56271">
        <ele>311</ele>
        <time>2021-10-31T10:27:16.350Z</time>
      </trkpt>
      <trkpt lat="44.00445" lon="2.56271">
        <ele>311</ele>
        <time>2021-10-31T10:27:17.350Z</time>
      </trkpt>
      <trkpt lat="44.00444" lon="2.5627">
        <ele>310</ele>
        <time>2021-10-31T10:27:18.350Z</time>
      </trkpt>
      <trkpt lat="44.00443" lon="2.5627">
        <ele>310</ele>
        <time>2021-10-31T10:27:19.350Z</time>
      </trkpt>
      <trkpt lat="44.00442" lon="2.56269">
        <ele>310</ele>
        <time>2021-10-31T10:27:20.350Z</time>
      </trkpt>
      <trkpt lat="44.00441" lon="2.56268">
        <ele>310</ele>
        <time>2021-10-31T10:27:21.350Z</time>
      </trkpt>
      <trkpt lat="44.0044" lon="2.56267">
        <ele>309</ele>
        <time>2021-10-31T10:27:22.350Z</time>
      </trkpt>
      <trkpt lat="44.00439" lon="2.56267">
        <ele>309</ele>
        <time>2021-10-31T10:27:23.350Z</time>
      </trkpt>
      <trkpt lat="44.00439" lon="2.56266">
        <ele>309</ele>
        <time>2021-10-31T10:27:24.350Z</time>
      </trkpt>
      <trkpt lat="44.00438" lon="2.56266">
        <ele>309</ele>
        <time>2021-10-31T10:27:25.350Z</time>
      </trkpt>
      <trkpt lat="44.00437" lon="2.56265">
        <ele>308</ele>
        <time>2021-10-31T10:27:26.350Z</time>
      </trkpt>
      <trkpt lat="44.00436" lon="2.56265">
        <ele>308</ele>
        <time>2021-10-31T10:27:27.350Z</time>
      </trkpt>
      <trkpt lat="44.00435" lon="2.56264">
        <ele>307</ele>
        <time>2021-10-31T10:27:28.350Z</time>
      </trkpt>
      <trkpt lat="44.00434" lon="2.56264">
        <ele>307</ele>
        <time>2021-10-31T10:27:29.350Z</time>
      </trkpt>
      <trkpt lat="44.00433" lon="2.56263">
        <ele>307</ele>
        <time>2021-10-31T10:27:30.350Z</time>
      </trkpt>
      <trkpt lat="44.00432" lon="2.56262">
        <ele>306</ele>
        <time>2021-10-31T10:27:31.350Z</time>
      </trkpt>
      <trkpt lat="44.00431" lon="2.56261">
        <ele>306</ele>
        <time>2021-10-31T10:27:32.350Z</time>
      </trkpt>
      <trkpt lat="44.0043" lon="2.5626">
        <ele>305</ele>
        <time>2021-10-31T10:27:33.350Z</time>
      </trkpt>
      <trkpt lat="44.00429" lon="2.56259">
        <ele>305</ele>
        <time>2021-10-31T10:27:34.350Z</time>
      </trkpt>
      <trkpt lat="44.00429" lon="2.56259">
        <ele>305</ele>
        <time>2021-10-31T10:27:35.350Z</time>
      </trkpt>
      <trkpt lat="44.00428" lon="2.56258">
        <ele>305</ele>
        <time>2021-10-31T10:27:36.350Z</time>
      </trkpt>
      <trkpt lat="44.00427" lon="2.56257">
        <ele>304</ele>
        <time>2021-10-31T10:27:37.350Z</time>
      </trkpt>
      <trkpt lat="44.00426" lon="2.56257">
        <ele>304</ele>
        <time>2021-10-31T10:27:38.350Z</time>
      </trkpt>
      <trkpt lat="44.00425" lon="2.56256">
        <ele>304</ele>
        <time>2021-10-31T10:27:39.350Z</time>
      </trkpt>
      <trkpt lat="44.00424" lon="2.56256">
        <ele>303</ele>
        <time>2021-10-31T10:27:40.350Z</time>
      </trkpt>
      <trkpt lat="44.00423" lon="2.56255">
        <ele>303</ele>
        <time>2021-10-31T10:27:41.350Z</time>
      </trkpt>
      <trkpt lat="44.00422" lon="2.56255">
        <ele>303</ele>
        <time>2021-10-31T10:27:42.350Z</time>
      </trkpt>
      <trkpt lat="44.00421" lon="2.56254">
        <ele>303</ele>
        <time>2021-10-31T10:27:43.350Z</time>
      </trkpt>
      <trkpt lat="44.0042" lon="2.56254">
        <ele>302</ele>
        <time>2021-10-31T10:27:44.350Z</time>
      </trkpt>
      <trkpt lat="44.0042" lon="2.56253">
        <ele>302</ele>
        <time>2021-10-31T10:27:45.350Z</time>
      </trkpt>
      <trkpt lat="44.00419" lon="2.56252">
        <ele>302</ele>
        <time>2021-10-31T10:27:46.350Z</time>
      </trkpt>
      <trkpt lat="44.00418" lon="2.56252">
        <ele>301</ele>
        <time>2021-10-31T10:27:47.350Z</time>
      </trkpt>
      <trkpt lat="44.00418" lon="2.56252">
        <ele>301</ele>
        <time>2021-10-31T10:27:48.350Z</time>
      </trkpt>
      <trkpt lat="44.00417" lon="2.56252">
        <ele>301</ele>
        <time>2021-10-31T10:27:49.350Z</time>
      </trkpt>
      <trkpt lat="44.00416" lon="2.56251">
        <ele>300</ele>
        <time>2021-10-31T10:27:50.350Z</time>
      </trkpt>
      <trkpt lat="44.00415" lon="2.56251">
        <ele>300</ele>
        <time>2021-10-31T10:27:51.350Z</time>
      </trkpt>
      <trkpt lat="44.00415" lon="2.56251">
        <ele>299</ele>
        <time>2021-10-31T10:27:52.350Z</time>
      </trkpt>
      <trkpt lat="44.00414" lon="2.56251">
        <ele>299</ele>
        <time>2021-10-31T10:27:53.350Z</time>
      </trkpt>
      <trkpt lat="44.00414" lon="2.5625">
        <ele>299</ele>
        <time>2021-10-31T10:27:54.350Z</time>
      </trkpt>
      <trkpt lat="44.00413" lon="2.5625">
        <ele>298</ele>
        <time>2021-10-31T10:27:55.350Z</time>
      </trkpt>
      <trkpt lat="44.00413" lon="2.5625">
        <ele>298</ele>
        <time>2021-10-31T10:27:56.350Z</time>
      </trkpt>
      <trkpt lat="44.00412" lon="2.5625">
        <ele>297</ele>
        <time>2021-10-31T10:27:57.350Z</time>
      </trkpt>
      <trkpt lat="44.00412" lon="2.56249">
        <ele>297</ele>
        <time>2021-10-31T10:27:58.350Z</time>
      </trkpt>
      <trkpt lat="44.00411" lon="2.56249">
        <ele>297</ele>
        <time>2021-10-31T10:27:59.350Z</time>
      </trkpt>
      <trkpt lat="44.0041" lon="2.56249">
        <ele>297</ele>
        <time>2021-10-31T10:28:00.350Z</time>
      </trkpt>
      <trkpt lat="44.0041" lon="2.56248">
        <ele>296</ele>
        <time>2021-10-31T10:28:01.350Z</time>
      </trkpt>
      <trkpt lat="44.0041" lon="2.56248">
        <ele>296</ele>
        <time>2021-10-31T10:28:02.350Z</time>
      </trkpt>
      <trkpt lat="44.00409" lon="2.56247">
        <ele>296</ele>
        <time>2021-10-31T10:28:03.350Z</time>
      </trkpt>
      <trkpt lat="44.00409" lon="2.56247">
        <ele>296</ele>
        <time>2021-10-31T10:28:04.350Z</time>
      </trkpt>
      <trkpt lat="44.00408" lon="2.56246">
        <ele>295</ele>
        <time>2021-10-31T10:28:05.350Z</time>
      </trkpt>
      <trkpt lat="44.00407" lon="2.56246">
        <ele>295</ele>
        <time>2021-10-31T10:28:06.350Z</time>
      </trkpt>
      <trkpt lat="44.00407" lon="2.56245">
        <ele>295</ele>
        <time>2021-10-31T10:28:07.350Z</time>
      </trkpt>
      <trkpt lat="44.00406" lon="2.56245">
        <ele>295</ele>
        <time>2021-10-31T10:28:08.350Z</time>
      </trkpt>
      <trkpt lat="44.00405" lon="2.56245">
        <ele>294</ele>
        <time>2021-10-31T10:28:09.350Z</time>
      </trkpt>
      <trkpt lat="44.00404" lon="2.56245">
        <ele>294</ele>
        <time>2021-10-31T10:28:10.350Z</time>
      </trkpt>
      <trkpt lat="44.00403" lon="2.56245">
        <ele>294</ele>
        <time>2021-10-31T10:28:11.350Z</time>
      </trkpt>
      <trkpt lat="44.00402" lon="2.56245">
        <ele>293</ele>
        <time>2021-10-31T10:28:12.350Z</time>
      </trkpt>
      <trkpt lat="44.00402" lon="2.56245">
        <ele>293</ele>
        <time>2021-10-31T10:28:13.350Z</time>
      </trkpt>
      <trkpt lat="44.00401" lon="2.56245">
        <ele>293</ele>
        <time>2021-10-31T10:28:14.350Z</time>
      </trkpt>
      <trkpt lat="44.004" lon="2.56244">
        <ele>293</ele>
        <time>2021-10-31T10:28:15.350Z</time>
      </trkpt>
      <trkpt lat="44.004" lon="2.56244">
        <ele>292</ele>
        <time>2021-10-31T10:28:16.350Z</time>
      </trkpt>
      <trkpt lat="44.00399" lon="2.56244">
        <ele>292</ele>
        <time>2021-10-31T10:28:17.350Z</time>
      </trkpt>
      <trkpt lat="44.00399" lon="2.56243">
        <ele>292</ele>
        <time>2021-10-31T10:28:18.350Z</time>
      </trkpt>
      <trkpt lat="44.00399" lon="2.56243">
        <ele>292</ele>
        <time>2021-10-31T10:28:19.350Z</time>
      </trkpt>
      <trkpt lat="44.00398" lon="2.56243">
        <ele>292</ele>
        <time>2021-10-31T10:28:20.350Z</time>
      </trkpt>
      <trkpt lat="44.00397" lon="2.56243">
        <ele>291</ele>
        <time>2021-10-31T10:28:21.350Z</time>
      </trkpt>
      <trkpt lat="44.00397" lon="2.56243">
        <ele>291</ele>
        <time>2021-10-31T10:28:22.350Z</time>
      </trkpt>
      <trkpt lat="44.00396" lon="2.56243">
        <ele>291</ele>
        <time>2021-10-31T10:28:23.350Z</time>
      </trkpt>
      <trkpt lat="44.00395" lon="2.56243">
        <ele>291</ele>
        <time>2021-10-31T10:28:24.350Z</time>
      </trkpt>
      <trkpt lat="44.00395" lon="2.56243">
        <ele>291</ele>
        <time>2021-10-31T10:28:25.350Z</time>
      </trkpt>
      <trkpt lat="44.00394" lon="2.56243">
        <ele>290</ele>
        <time>2021-10-31T10:28:26.350Z</time>
      </trkpt>
      <trkpt lat="44.00393" lon="2.56242">
        <ele>290</ele>
        <time>2021-10-31T10:28:27.350Z</time>
      </trkpt>
      <trkpt lat="44.00392" lon="2.56242">
        <ele>290</ele>
        <time>2021-10-31T10:28:28.350Z</time>
      </trkpt>
      <trkpt lat="44.00392" lon="2.56242">
        <ele>290</ele>
        <time>2021-10-31T10:28:29.350Z</time>
      </trkpt>
      <trkpt lat="44.00391" lon="2.56242">
        <ele>290</ele>
        <time>2021-10-31T10:28:30.350Z</time>
      </trkpt>
      <trkpt lat="44.00391" lon="2.56242">
        <ele>290</ele>
        <time>2021-10-31T10:28:31.350Z</time>
      </trkpt>
      <trkpt lat="44.0039" lon="2.56242">
        <ele>289</ele>
        <time>2021-10-31T10:28:32.350Z</time>
      </trkpt>
      <trkpt lat="44.00387" lon="2.56242">
        <ele>288</ele>
        <time>2021-10-31T10:28:33.350Z</time>
      </trkpt>
      <trkpt lat="44.00387" lon="2.56242">
        <ele>288</ele>
        <time>2021-10-31T10:28:34.350Z</time>
      </trkpt>
      <trkpt lat="44.00386" lon="2.56242">
        <ele>288</ele>
        <time>2021-10-31T10:28:35.350Z</time>
      </trkpt>
      <trkpt lat="44.00386" lon="2.56242">
        <ele>287</ele>
        <time>2021-10-31T10:28:36.350Z</time>
      </trkpt>
      <trkpt lat="44.00384" lon="2.56243">
        <ele>286</ele>
        <time>2021-10-31T10:28:37.350Z</time>
      </trkpt>
      <trkpt lat="44.00383" lon="2.56243">
        <ele>286</ele>
        <time>2021-10-31T10:28:38.350Z</time>
      </trkpt>
      <trkpt lat="44.00383" lon="2.56242">
        <ele>286</ele>
        <time>2021-10-31T10:28:39.350Z</time>
      </trkpt>
      <trkpt lat="44.00382" lon="2.56242">
        <ele>286</ele>
        <time>2021-10-31T10:28:40.350Z</time>
      </trkpt>
      <trkpt lat="44.00381" lon="2.56242">
        <ele>286</ele>
        <time>2021-10-31T10:28:41.350Z</time>
      </trkpt>
      <trkpt lat="44.0038" lon="2.56242">
        <ele>286</ele>
        <time>2021-10-31T10:28:42.350Z</time>
      </trkpt>
      <trkpt lat="44.00379" lon="2.56241">
        <ele>285</ele>
        <time>2021-10-31T10:28:43.350Z</time>
      </trkpt>
      <trkpt lat="44.00379" lon="2.56241">
        <ele>285</ele>
        <time>2021-10-31T10:28:44.350Z</time>
      </trkpt>
      <trkpt lat="44.00378" lon="2.56241">
        <ele>285</ele>
        <time>2021-10-31T10:28:45.350Z</time>
      </trkpt>
      <trkpt lat="44.00377" lon="2.56241">
        <ele>285</ele>
        <time>2021-10-31T10:28:46.350Z</time>
      </trkpt>
      <trkpt lat="44.00376" lon="2.56241">
        <ele>285</ele>
        <time>2021-10-31T10:28:47.350Z</time>
      </trkpt>
      <trkpt lat="44.00375" lon="2.56241">
        <ele>285</ele>
        <time>2021-10-31T10:28:48.350Z</time>
      </trkpt>
      <trkpt lat="44.00375" lon="2.5624">
        <ele>285</ele>
        <time>2021-10-31T10:28:49.350Z</time>
      </trkpt>
      <trkpt lat="44.00375" lon="2.5624">
        <ele>284</ele>
        <time>2021-10-31T10:28:50.350Z</time>
      </trkpt>
      <trkpt lat="44.00374" lon="2.5624">
        <ele>284</ele>
        <time>2021-10-31T10:28:51.350Z</time>
      </trkpt>
      <trkpt lat="44.00373" lon="2.5624">
        <ele>284</ele>
        <time>2021-10-31T10:28:52.350Z</time>
      </trkpt>
      <trkpt lat="44.00372" lon="2.5624">
        <ele>284</ele>
        <time>2021-10-31T10:28:53.350Z</time>
      </trkpt>
      <trkpt lat="44.00372" lon="2.5624">
        <ele>284</ele>
        <time>2021-10-31T10:28:54.350Z</time>
      </trkpt>
      <trkpt lat="44.00371" lon="2.5624">
        <ele>284</ele>
        <time>2021-10-31T10:28:55.350Z</time>
      </trkpt>
      <trkpt lat="44.0037" lon="2.5624">
        <ele>284</ele>
        <time>2021-10-31T10:28:56.350Z</time>
      </trkpt>
      <trkpt lat="44.0037" lon="2.5624">
        <ele>284</ele>
        <time>2021-10-31T10:28:57.350Z</time>
      </trkpt>
      <trkpt lat="44.00369" lon="2.5624">
        <ele>284</ele>
        <time>2021-10-31T10:28:58.350Z</time>
      </trkpt>
      <trkpt lat="44.00368" lon="2.5624">
        <ele>283</ele>
        <time>2021-10-31T10:28:59.350Z</time>
      </trkpt>
      <trkpt lat="44.00367" lon="2.5624">
        <ele>283</ele>
        <time>2021-10-31T10:29:00.350Z</time>
      </trkpt>
      <trkpt lat="44.00366" lon="2.5624">
        <ele>283</ele>
        <time>2021-10-31T10:29:01.350Z</time>
      </trkpt>
      <trkpt lat="44.00365" lon="2.56239">
        <ele>283</ele>
        <time>2021-10-31T10:29:02.350Z</time>
      </trkpt>
      <trkpt lat="44.00364" lon="2.56239">
        <ele>283</ele>
        <time>2021-10-31T10:29:03.350Z</time>
      </trkpt>
      <trkpt lat="44.00363" lon="2.56238">
        <ele>283</ele>
        <time>2021-10-31T10:29:04.350Z</time>
      </trkpt>
      <trkpt lat="44.00363" lon="2.56238">
        <ele>283</ele>
        <time>2021-10-31T10:29:05.350Z</time>
      </trkpt>
      <trkpt lat="44.00362" lon="2.56237">
        <ele>283</ele>
        <time>2021-10-31T10:29:06.350Z</time>
      </trkpt>
      <trkpt lat="44.00361" lon="2.56237">
        <ele>283</ele>
        <time>2021-10-31T10:29:07.350Z</time>
      </trkpt>
      <trkpt lat="44.0036" lon="2.56237">
        <ele>282</ele>
        <time>2021-10-31T10:29:08.350Z</time>
      </trkpt>
      <trkpt lat="44.0036" lon="2.56237">
        <ele>282</ele>
        <time>2021-10-31T10:29:09.350Z</time>
      </trkpt>
      <trkpt lat="44.00359" lon="2.56237">
        <ele>282</ele>
        <time>2021-10-31T10:29:10.350Z</time>
      </trkpt>
      <trkpt lat="44.00359" lon="2.56236">
        <ele>282</ele>
        <time>2021-10-31T10:29:11.350Z</time>
      </trkpt>
      <trkpt lat="44.00358" lon="2.56236">
        <ele>282</ele>
        <time>2021-10-31T10:29:12.350Z</time>
      </trkpt>
      <trkpt lat="44.00357" lon="2.56236">
        <ele>282</ele>
        <time>2021-10-31T10:29:13.350Z</time>
      </trkpt>
      <trkpt lat="44.00357" lon="2.56236">
        <ele>282</ele>
        <time>2021-10-31T10:29:14.350Z</time>
      </trkpt>
      <trkpt lat="44.00356" lon="2.56236">
        <ele>281</ele>
        <time>2021-10-31T10:29:15.350Z</time>
      </trkpt>
      <trkpt lat="44.00355" lon="2.56236">
        <ele>281</ele>
        <time>2021-10-31T10:29:16.350Z</time>
      </trkpt>
      <trkpt lat="44.00355" lon="2.56236">
        <ele>281</ele>
        <time>2021-10-31T10:29:17.350Z</time>
      </trkpt>
      <trkpt lat="44.00354" lon="2.56236">
        <ele>281</ele>
        <time>2021-10-31T10:29:18.350Z</time>
      </trkpt>
      <trkpt lat="44.00353" lon="2.56236">
        <ele>281</ele>
        <time>2021-10-31T10:29:19.350Z</time>
      </trkpt>
      <trkpt lat="44.00352" lon="2.56236">
        <ele>281</ele>
        <time>2021-10-31T10:29:20.350Z</time>
      </trkpt>
      <trkpt lat="44.00351" lon="2.56236">
        <ele>280</ele>
        <time>2021-10-31T10:29:21.350Z</time>
      </trkpt>
      <trkpt lat="44.0035" lon="2.56236">
        <ele>280</ele>
        <time>2021-10-31T10:29:22.350Z</time>
      </trkpt>
      <trkpt lat="44.00349" lon="2.56236">
        <ele>280</ele>
        <time>2021-10-31T10:29:23.350Z</time>
      </trkpt>
      <trkpt lat="44.00348" lon="2.56236">
        <ele>279</ele>
        <time>2021-10-31T10:29:24.350Z</time>
      </trkpt>
      <trkpt lat="44.00347" lon="2.56236">
        <ele>279</ele>
        <time>2021-10-31T10:29:25.350Z</time>
      </trkpt>
      <trkpt lat="44.00346" lon="2.56236">
        <ele>279</ele>
        <time>2021-10-31T10:29:26.350Z</time>
      </trkpt>
      <trkpt lat="44.00345" lon="2.56236">
        <ele>279</ele>
        <time>2021-10-31T10:29:27.350Z</time>
      </trkpt>
      <trkpt lat="44.00345" lon="2.56237">
        <ele>278</ele>
        <time>2021-10-31T10:29:28.350Z</time>
      </trkpt>
      <trkpt lat="44.00344" lon="2.56237">
        <ele>278</ele>
        <time>2021-10-31T10:29:29.350Z</time>
      </trkpt>
      <trkpt lat="44.00343" lon="2.56237">
        <ele>278</ele>
        <time>2021-10-31T10:29:30.350Z</time>
      </trkpt>
      <trkpt lat="44.00343" lon="2.56237">
        <ele>278</ele>
        <time>2021-10-31T10:29:31.350Z</time>
      </trkpt>
      <trkpt lat="44.00342" lon="2.56237">
        <ele>277</ele>
        <time>2021-10-31T10:29:32.350Z</time>
      </trkpt>
      <trkpt lat="44.00341" lon="2.56237">
        <ele>277</ele>
        <time>2021-10-31T10:29:33.350Z</time>
      </trkpt>
      <trkpt lat="44.0034" lon="2.56237">
        <ele>277</ele>
        <time>2021-10-31T10:29:34.350Z</time>
      </trkpt>
      <trkpt lat="44.0034" lon="2.56237">
        <ele>277</ele>
        <time>2021-10-31T10:29:35.350Z</time>
      </trkpt>
      <trkpt lat="44.00339" lon="2.56238">
        <ele>277</ele>
        <time>2021-10-31T10:29:36.350Z</time>
      </trkpt>
      <trkpt lat="44.00338" lon="2.56238">
        <ele>276</ele>
        <time>2021-10-31T10:29:37.350Z</time>
      </trkpt>
      <trkpt lat="44.00337" lon="2.56238">
        <ele>276</ele>
        <time>2021-10-31T10:29:38.350Z</time>
      </trkpt>
      <trkpt lat="44.00336" lon="2.56238">
        <ele>276</ele>
        <time>2021-10-31T10:29:39.350Z</time>
      </trkpt>
      <trkpt lat="44.00336" lon="2.56238">
        <ele>276</ele>
        <time>2021-10-31T10:29:40.350Z</time>
      </trkpt>
      <trkpt lat="44.00335" lon="2.56238">
        <ele>276</ele>
        <time>2021-10-31T10:29:41.350Z</time>
      </trkpt>
      <trkpt lat="44.00335" lon="2.56238">
        <ele>275</ele>
        <time>2021-10-31T10:29:42.350Z</time>
      </trkpt>
      <trkpt lat="44.00335" lon="2.56238">
        <ele>275</ele>
        <time>2021-10-31T10:29:43.350Z</time>
      </trkpt>
      <trkpt lat="44.00333" lon="2.56238">
        <ele>275</ele>
        <time>2021-10-31T10:29:44.350Z</time>
      </trkpt>
      <trkpt lat="44.00333" lon="2.56237">
        <ele>274</ele>
        <time>2021-10-31T10:29:45.350Z</time>
      </trkpt>
      <trkpt lat="44.00332" lon="2.56237">
        <ele>274</ele>
        <time>2021-10-31T10:29:46.350Z</time>
      </trkpt>
      <trkpt lat="44.00332" lon="2.56237">
        <ele>274</ele>
        <time>2021-10-31T10:29:47.350Z</time>
      </trkpt>
      <trkpt lat="44.00332" lon="2.56237">
        <ele>274</ele>
        <time>2021-10-31T10:29:48.350Z</time>
      </trkpt>
      <trkpt lat="44.00332" lon="2.56237">
        <ele>274</ele>
        <time>2021-10-31T10:29:49.350Z</time>
      </trkpt>
      <trkpt lat="44.00332" lon="2.56237">
        <ele>274</ele>
        <time>2021-10-31T10:29:50.350Z</time>
      </trkpt>
      <trkpt lat="44.0033" lon="2.56237">
        <ele>274</ele>
        <time>2021-10-31T10:29:51.350Z</time>
      </trkpt>
      <trkpt lat="44.00329" lon="2.56237">
        <ele>274</ele>
        <time>2021-10-31T10:29:52.350Z</time>
      </trkpt>
      <trkpt lat="44.00328" lon="2.56236">
        <ele>274</ele>
        <time>2021-10-31T10:29:53.350Z</time>
      </trkpt>
      <trkpt lat="44.00327" lon="2.56236">
        <ele>274</ele>
        <time>2021-10-31T10:29:54.350Z</time>
      </trkpt>
      <trkpt lat="44.00326" lon="2.56236">
        <ele>274</ele>
        <time>2021-10-31T10:29:55.350Z</time>
      </trkpt>
      <trkpt lat="44.00325" lon="2.56235">
        <ele>273</ele>
        <time>2021-10-31T10:29:56.350Z</time>
      </trkpt>
      <trkpt lat="44.00324" lon="2.56235">
        <ele>273</ele>
        <time>2021-10-31T10:29:57.350Z</time>
      </trkpt>
      <trkpt lat="44.00323" lon="2.56234">
        <ele>273</ele>
        <time>2021-10-31T10:29:58.350Z</time>
      </trkpt>
      <trkpt lat="44.00322" lon="2.56234">
        <ele>273</ele>
        <time>2021-10-31T10:29:59.350Z</time>
      </trkpt>
      <trkpt lat="44.00321" lon="2.56233">
        <ele>273</ele>
        <time>2021-10-31T10:30:00.350Z</time>
      </trkpt>
      <trkpt lat="44.00319" lon="2.56232">
        <ele>273</ele>
        <time>2021-10-31T10:30:01.350Z</time>
      </trkpt>
      <trkpt lat="44.00319" lon="2.56232">
        <ele>273</ele>
        <time>2021-10-31T10:30:02.350Z</time>
      </trkpt>
      <trkpt lat="44.00317" lon="2.5623">
        <ele>273</ele>
        <time>2021-10-31T10:30:03.350Z</time>
      </trkpt>
      <trkpt lat="44.00317" lon="2.5623">
        <ele>273</ele>
        <time>2021-10-31T10:30:04.350Z</time>
      </trkpt>
      <trkpt lat="44.00316" lon="2.56229">
        <ele>273</ele>
        <time>2021-10-31T10:30:05.350Z</time>
      </trkpt>
      <trkpt lat="44.00315" lon="2.56229">
        <ele>273</ele>
        <time>2021-10-31T10:30:06.350Z</time>
      </trkpt>
      <trkpt lat="44.00314" lon="2.56228">
        <ele>273</ele>
        <time>2021-10-31T10:30:07.350Z</time>
      </trkpt>
      <trkpt lat="44.00314" lon="2.56228">
        <ele>273</ele>
        <time>2021-10-31T10:30:08.350Z</time>
      </trkpt>
      <trkpt lat="44.00313" lon="2.56228">
        <ele>273</ele>
        <time>2021-10-31T10:30:09.350Z</time>
      </trkpt>
      <trkpt lat="44.00312" lon="2.56227">
        <ele>273</ele>
        <time>2021-10-31T10:30:10.350Z</time>
      </trkpt>
      <trkpt lat="44.00311" lon="2.56226">
        <ele>273</ele>
        <time>2021-10-31T10:30:11.350Z</time>
      </trkpt>
      <trkpt lat="44.0031" lon="2.56225">
        <ele>273</ele>
        <time>2021-10-31T10:30:12.350Z</time>
      </trkpt>
      <trkpt lat="44.00309" lon="2.56225">
        <ele>273</ele>
        <time>2021-10-31T10:30:13.350Z</time>
      </trkpt>
      <trkpt lat="44.00307" lon="2.56224">
        <ele>273</ele>
        <time>2021-10-31T10:30:14.350Z</time>
      </trkpt>
      <trkpt lat="44.00307" lon="2.56224">
        <ele>273</ele>
        <time>2021-10-31T10:30:15.350Z</time>
      </trkpt>
      <trkpt lat="44.00305" lon="2.56223">
        <ele>273</ele>
        <time>2021-10-31T10:30:16.350Z</time>
      </trkpt>
      <trkpt lat="44.00304" lon="2.56223">
        <ele>273</ele>
        <time>2021-10-31T10:30:17.350Z</time>
      </trkpt>
      <trkpt lat="44.00303" lon="2.56222">
        <ele>273</ele>
        <time>2021-10-31T10:30:18.350Z</time>
      </trkpt>
      <trkpt lat="44.00302" lon="2.56222">
        <ele>273</ele>
        <time>2021-10-31T10:30:19.350Z</time>
      </trkpt>
      <trkpt lat="44.00301" lon="2.56222">
        <ele>272</ele>
        <time>2021-10-31T10:30:20.350Z</time>
      </trkpt>
      <trkpt lat="44.00301" lon="2.56222">
        <ele>272</ele>
        <time>2021-10-31T10:30:21.350Z</time>
      </trkpt>
      <trkpt lat="44.003" lon="2.56221">
        <ele>272</ele>
        <time>2021-10-31T10:30:22.350Z</time>
      </trkpt>
      <trkpt lat="44.00299" lon="2.56221">
        <ele>272</ele>
        <time>2021-10-31T10:30:23.350Z</time>
      </trkpt>
      <trkpt lat="44.00298" lon="2.56221">
        <ele>272</ele>
        <time>2021-10-31T10:30:24.350Z</time>
      </trkpt>
      <trkpt lat="44.00297" lon="2.56221">
        <ele>272</ele>
        <time>2021-10-31T10:30:25.350Z</time>
      </trkpt>
      <trkpt lat="44.00296" lon="2.56221">
        <ele>271</ele>
        <time>2021-10-31T10:30:26.350Z</time>
      </trkpt>
      <trkpt lat="44.00295" lon="2.56221">
        <ele>271</ele>
        <time>2021-10-31T10:30:27.350Z</time>
      </trkpt>
      <trkpt lat="44.00295" lon="2.56221">
        <ele>271</ele>
        <time>2021-10-31T10:30:28.350Z</time>
      </trkpt>
      <trkpt lat="44.00295" lon="2.56221">
        <ele>271</ele>
        <time>2021-10-31T10:30:29.350Z</time>
      </trkpt>
      <trkpt lat="44.00294" lon="2.56221">
        <ele>271</ele>
        <time>2021-10-31T10:30:30.350Z</time>
      </trkpt>
      <trkpt lat="44.0029" lon="2.56222">
        <ele>270</ele>
        <time>2021-10-31T10:30:31.350Z</time>
      </trkpt>
      <trkpt lat="44.0029" lon="2.56222">
        <ele>270</ele>
        <time>2021-10-31T10:30:32.350Z</time>
      </trkpt>
      <trkpt lat="44.00289" lon="2.56222">
        <ele>269</ele>
        <time>2021-10-31T10:30:33.350Z</time>
      </trkpt>
      <trkpt lat="44.00288" lon="2.56221">
        <ele>269</ele>
        <time>2021-10-31T10:30:34.350Z</time>
      </trkpt>
      <trkpt lat="44.00288" lon="2.56221">
        <ele>269</ele>
        <time>2021-10-31T10:30:35.350Z</time>
      </trkpt>
      <trkpt lat="44.00287" lon="2.56221">
        <ele>269</ele>
        <time>2021-10-31T10:30:36.350Z</time>
      </trkpt>
      <trkpt lat="44.00287" lon="2.56221">
        <ele>269</ele>
        <time>2021-10-31T10:30:37.350Z</time>
      </trkpt>
      <trkpt lat="44.00286" lon="2.56221">
        <ele>268</ele>
        <time>2021-10-31T10:30:39.350Z</time>
      </trkpt>
      <trkpt lat="44.00285" lon="2.56221">
        <ele>268</ele>
        <time>2021-10-31T10:30:40.350Z</time>
      </trkpt>
      <trkpt lat="44.00284" lon="2.5622">
        <ele>268</ele>
        <time>2021-10-31T10:30:41.350Z</time>
      </trkpt>
      <trkpt lat="44.00283" lon="2.5622">
        <ele>268</ele>
        <time>2021-10-31T10:30:42.350Z</time>
      </trkpt>
      <trkpt lat="44.00283" lon="2.5622">
        <ele>268</ele>
        <time>2021-10-31T10:30:43.350Z</time>
      </trkpt>
      <trkpt lat="44.00282" lon="2.5622">
        <ele>268</ele>
        <time>2021-10-31T10:30:44.350Z</time>
      </trkpt>
      <trkpt lat="44.00281" lon="2.5622">
        <ele>267</ele>
        <time>2021-10-31T10:30:45.350Z</time>
      </trkpt>
      <trkpt lat="44.00281" lon="2.5622">
        <ele>267</ele>
        <time>2021-10-31T10:30:46.350Z</time>
      </trkpt>
      <trkpt lat="44.0028" lon="2.5622">
        <ele>267</ele>
        <time>2021-10-31T10:30:47.350Z</time>
      </trkpt>
      <trkpt lat="44.00279" lon="2.5622">
        <ele>267</ele>
        <time>2021-10-31T10:30:48.350Z</time>
      </trkpt>
      <trkpt lat="44.00278" lon="2.56221">
        <ele>267</ele>
        <time>2021-10-31T10:30:49.350Z</time>
      </trkpt>
      <trkpt lat="44.00277" lon="2.56221">
        <ele>267</ele>
        <time>2021-10-31T10:30:50.350Z</time>
      </trkpt>
      <trkpt lat="44.00275" lon="2.56222">
        <ele>267</ele>
        <time>2021-10-31T10:30:51.350Z</time>
      </trkpt>
      <trkpt lat="44.00275" lon="2.56222">
        <ele>267</ele>
        <time>2021-10-31T10:30:52.350Z</time>
      </trkpt>
      <trkpt lat="44.00274" lon="2.56222">
        <ele>266</ele>
        <time>2021-10-31T10:30:53.350Z</time>
      </trkpt>
      <trkpt lat="44.00273" lon="2.56222">
        <ele>266</ele>
        <time>2021-10-31T10:30:54.350Z</time>
      </trkpt>
      <trkpt lat="44.00271" lon="2.56223">
        <ele>266</ele>
        <time>2021-10-31T10:30:55.350Z</time>
      </trkpt>
      <trkpt lat="44.0027" lon="2.56223">
        <ele>266</ele>
        <time>2021-10-31T10:30:56.350Z</time>
      </trkpt>
      <trkpt lat="44.00269" lon="2.56224">
        <ele>265</ele>
        <time>2021-10-31T10:30:57.350Z</time>
      </trkpt>
      <trkpt lat="44.00268" lon="2.56224">
        <ele>265</ele>
        <time>2021-10-31T10:30:58.350Z</time>
      </trkpt>
      <trkpt lat="44.00267" lon="2.56225">
        <ele>265</ele>
        <time>2021-10-31T10:30:59.350Z</time>
      </trkpt>
      <trkpt lat="44.00265" lon="2.56225">
        <ele>265</ele>
        <time>2021-10-31T10:31:00.350Z</time>
      </trkpt>
      <trkpt lat="44.00264" lon="2.56225">
        <ele>264</ele>
        <time>2021-10-31T10:31:01.350Z</time>
      </trkpt>
      <trkpt lat="44.00263" lon="2.56225">
        <ele>264</ele>
        <time>2021-10-31T10:31:02.350Z</time>
      </trkpt>
      <trkpt lat="44.00261" lon="2.56225">
        <ele>264</ele>
        <time>2021-10-31T10:31:03.350Z</time>
      </trkpt>
      <trkpt lat="44.00261" lon="2.56225">
        <ele>264</ele>
        <time>2021-10-31T10:31:04.350Z</time>
      </trkpt>
      <trkpt lat="44.0026" lon="2.56225">
        <ele>263</ele>
        <time>2021-10-31T10:31:05.350Z</time>
      </trkpt>
      <trkpt lat="44.00259" lon="2.56226">
        <ele>263</ele>
        <time>2021-10-31T10:31:06.350Z</time>
      </trkpt>
      <trkpt lat="44.00257" lon="2.56225">
        <ele>263</ele>
        <time>2021-10-31T10:31:07.350Z</time>
      </trkpt>
      <trkpt lat="44.00256" lon="2.56225">
        <ele>263</ele>
        <time>2021-10-31T10:31:08.350Z</time>
      </trkpt>
      <trkpt lat="44.00256" lon="2.56225">
        <ele>263</ele>
        <time>2021-10-31T10:31:09.350Z</time>
      </trkpt>
      <trkpt lat="44.00255" lon="2.56225">
        <ele>263</ele>
        <time>2021-10-31T10:31:10.350Z</time>
      </trkpt>
      <trkpt lat="44.00255" lon="2.56225">
        <ele>263</ele>
        <time>2021-10-31T10:31:11.350Z</time>
      </trkpt>
      <trkpt lat="44.00255" lon="2.56226">
        <ele>263</ele>
        <time>2021-10-31T10:31:12.350Z</time>
      </trkpt>
      <trkpt lat="44.00253" lon="2.56225">
        <ele>262</ele>
        <time>2021-10-31T10:31:13.350Z</time>
      </trkpt>
      <trkpt lat="44.00252" lon="2.56225">
        <ele>262</ele>
        <time>2021-10-31T10:31:14.350Z</time>
      </trkpt>
      <trkpt lat="44.0025" lon="2.56226">
        <ele>262</ele>
        <time>2021-10-31T10:31:15.350Z</time>
      </trkpt>
      <trkpt lat="44.0025" lon="2.56226">
        <ele>262</ele>
        <time>2021-10-31T10:31:16.350Z</time>
      </trkpt>
      <trkpt lat="44.00249" lon="2.56226">
        <ele>262</ele>
        <time>2021-10-31T10:31:17.350Z</time>
      </trkpt>
      <trkpt lat="44.00248" lon="2.56226">
        <ele>262</ele>
        <time>2021-10-31T10:31:18.350Z</time>
      </trkpt>
      <trkpt lat="44.00247" lon="2.56226">
        <ele>261</ele>
        <time>2021-10-31T10:31:19.350Z</time>
      </trkpt>
      <trkpt lat="44.00247" lon="2.56226">
        <ele>261</ele>
        <time>2021-10-31T10:31:54.354Z</time>
      </trkpt>
      <trkpt lat="44.00246" lon="2.56226">
        <ele>261</ele>
        <time>2021-10-31T10:31:55.354Z</time>
      </trkpt>
      <trkpt lat="44.00246" lon="2.56226">
        <ele>261</ele>
        <time>2021-10-31T10:31:56.354Z</time>
      </trkpt>
      <trkpt lat="44.00246" lon="2.56226">
        <ele>261</ele>
        <time>2021-10-31T10:31:57.354Z</time>
      </trkpt>
      <trkpt lat="44.00243" lon="2.56227">
        <ele>260</ele>
        <time>2021-10-31T10:31:58.354Z</time>
      </trkpt>
      <trkpt lat="44.00242" lon="2.56226">
        <ele>260</ele>
        <time>2021-10-31T10:31:59.354Z</time>
      </trkpt>
      <trkpt lat="44.00241" lon="2.56226">
        <ele>260</ele>
        <time>2021-10-31T10:32:27.359Z</time>
      </trkpt>
      <trkpt lat="44.0024" lon="2.56226">
        <ele>260</ele>
        <time>2021-10-31T10:32:28.359Z</time>
      </trkpt>
      <trkpt lat="44.00239" lon="2.56226">
        <ele>260</ele>
        <time>2021-10-31T10:32:29.359Z</time>
      </trkpt>
      <trkpt lat="44.00238" lon="2.56226">
        <ele>259</ele>
        <time>2021-10-31T10:32:30.359Z</time>
      </trkpt>
      <trkpt lat="44.00237" lon="2.56226">
        <ele>259</ele>
        <time>2021-10-31T10:32:31.359Z</time>
      </trkpt>
      <trkpt lat="44.00236" lon="2.56226">
        <ele>259</ele>
        <time>2021-10-31T10:32:32.359Z</time>
      </trkpt>
      <trkpt lat="44.00235" lon="2.56226">
        <ele>259</ele>
        <time>2021-10-31T10:32:47.364Z</time>
      </trkpt>
      <trkpt lat="44.00234" lon="2.56226">
        <ele>259</ele>
        <time>2021-10-31T10:32:48.364Z</time>
      </trkpt>
      <trkpt lat="44.00233" lon="2.56225">
        <ele>259</ele>
        <time>2021-10-31T10:32:49.364Z</time>
      </trkpt>
      <trkpt lat="44.00231" lon="2.56225">
        <ele>259</ele>
        <time>2021-10-31T10:32:50.364Z</time>
      </trkpt>
      <trkpt lat="44.0023" lon="2.56225">
        <ele>259</ele>
        <time>2021-10-31T10:32:51.364Z</time>
      </trkpt>
      <trkpt lat="44.00229" lon="2.56226">
        <ele>259</ele>
        <time>2021-10-31T10:32:52.364Z</time>
      </trkpt>
      <trkpt lat="44.00228" lon="2.56226">
        <ele>258</ele>
        <time>2021-10-31T10:32:53.364Z</time>
      </trkpt>
      <trkpt lat="44.00226" lon="2.56227">
        <ele>258</ele>
        <time>2021-10-31T10:32:54.364Z</time>
      </trkpt>
      <trkpt lat="44.00225" lon="2.56227">
        <ele>258</ele>
        <time>2021-10-31T10:32:55.364Z</time>
      </trkpt>
      <trkpt lat="44.00224" lon="2.56227">
        <ele>258</ele>
        <time>2021-10-31T10:32:56.364Z</time>
      </trkpt>
      <trkpt lat="44.00222" lon="2.56227">
        <ele>258</ele>
        <time>2021-10-31T10:32:57.364Z</time>
      </trkpt>
      <trkpt lat="44.00221" lon="2.56227">
        <ele>258</ele>
        <time>2021-10-31T10:32:58.364Z</time>
      </trkpt>
      <trkpt lat="44.00219" lon="2.56228">
        <ele>257</ele>
        <time>2021-10-31T10:32:59.364Z</time>
      </trkpt>
      <trkpt lat="44.00218" lon="2.56228">
        <ele>257</ele>
        <time>2021-10-31T10:33:00.364Z</time>
      </trkpt>
      <trkpt lat="44.00217" lon="2.56228">
        <ele>257</ele>
        <time>2021-10-31T10:33:01.364Z</time>
      </trkpt>
      <trkpt lat="44.00215" lon="2.56228">
        <ele>257</ele>
        <time>2021-10-31T10:33:02.364Z</time>
      </trkpt>
      <trkpt lat="44.00214" lon="2.56228">
        <ele>257</ele>
        <time>2021-10-31T10:33:03.364Z</time>
      </trkpt>
      <trkpt lat="44.00213" lon="2.56228">
        <ele>256</ele>
        <time>2021-10-31T10:33:04.364Z</time>
      </trkpt>
      <trkpt lat="44.00211" lon="2.56228">
        <ele>256</ele>
        <time>2021-10-31T10:33:05.364Z</time>
      </trkpt>
      <trkpt lat="44.0021" lon="2.56229">
        <ele>256</ele>
        <time>2021-10-31T10:33:06.364Z</time>
      </trkpt>
      <trkpt lat="44.00209" lon="2.56229">
        <ele>256</ele>
        <time>2021-10-31T10:33:07.364Z</time>
      </trkpt>
      <trkpt lat="44.00208" lon="2.56229">
        <ele>256</ele>
        <time>2021-10-31T10:33:08.364Z</time>
      </trkpt>
      <trkpt lat="44.00206" lon="2.56229">
        <ele>256</ele>
        <time>2021-10-31T10:33:09.364Z</time>
      </trkpt>
      <trkpt lat="44.00205" lon="2.56229">
        <ele>256</ele>
        <time>2021-10-31T10:33:10.364Z</time>
      </trkpt>
      <trkpt lat="44.00204" lon="2.56229">
        <ele>255</ele>
        <time>2021-10-31T10:33:11.364Z</time>
      </trkpt>
      <trkpt lat="44.00203" lon="2.56229">
        <ele>255</ele>
        <time>2021-10-31T10:33:12.364Z</time>
      </trkpt>
      <trkpt lat="44.00202" lon="2.56229">
        <ele>255</ele>
        <time>2021-10-31T10:33:13.364Z</time>
      </trkpt>
      <trkpt lat="44.002" lon="2.56229">
        <ele>255</ele>
        <time>2021-10-31T10:33:14.364Z</time>
      </trkpt>
      <trkpt lat="44.00199" lon="2.56229">
        <ele>255</ele>
        <time>2021-10-31T10:33:15.364Z</time>
      </trkpt>
      <trkpt lat="44.00198" lon="2.56228">
        <ele>255</ele>
        <time>2021-10-31T10:33:16.364Z</time>
      </trkpt>
      <trkpt lat="44.00197" lon="2.56228">
        <ele>255</ele>
        <time>2021-10-31T10:33:17.364Z</time>
      </trkpt>
      <trkpt lat="44.00196" lon="2.56228">
        <ele>254</ele>
        <time>2021-10-31T10:33:18.364Z</time>
      </trkpt>
      <trkpt lat="44.00195" lon="2.56228">
        <ele>254</ele>
        <time>2021-10-31T10:33:19.364Z</time>
      </trkpt>
      <trkpt lat="44.00193" lon="2.56228">
        <ele>254</ele>
        <time>2021-10-31T10:33:20.364Z</time>
      </trkpt>
      <trkpt lat="44.00192" lon="2.56228">
        <ele>254</ele>
        <time>2021-10-31T10:33:21.364Z</time>
      </trkpt>
      <trkpt lat="44.00191" lon="2.56228">
        <ele>254</ele>
        <time>2021-10-31T10:33:22.364Z</time>
      </trkpt>
      <trkpt lat="44.0019" lon="2.56228">
        <ele>254</ele>
        <time>2021-10-31T10:33:23.364Z</time>
      </trkpt>
      <trkpt lat="44.00188" lon="2.56228">
        <ele>253</ele>
        <time>2021-10-31T10:33:24.364Z</time>
      </trkpt>
      <trkpt lat="44.00187" lon="2.56228">
        <ele>253</ele>
        <time>2021-10-31T10:33:25.364Z</time>
      </trkpt>
      <trkpt lat="44.00186" lon="2.56228">
        <ele>253</ele>
        <time>2021-10-31T10:33:26.364Z</time>
      </trkpt>
      <trkpt lat="44.00186" lon="2.56229">
        <ele>253</ele>
        <time>2021-10-31T10:33:27.364Z</time>
      </trkpt>
      <trkpt lat="44.00185" lon="2.56229">
        <ele>253</ele>
        <time>2021-10-31T10:33:28.364Z</time>
      </trkpt>
      <trkpt lat="44.00183" lon="2.5623">
        <ele>252</ele>
        <time>2021-10-31T10:33:29.364Z</time>
      </trkpt>
      <trkpt lat="44.00183" lon="2.5623">
        <ele>252</ele>
        <time>2021-10-31T10:33:30.364Z</time>
      </trkpt>
      <trkpt lat="44.00182" lon="2.5623">
        <ele>252</ele>
        <time>2021-10-31T10:33:31.364Z</time>
      </trkpt>
      <trkpt lat="44.00182" lon="2.5623">
        <ele>252</ele>
        <time>2021-10-31T10:33:32.364Z</time>
      </trkpt>
      <trkpt lat="44.00182" lon="2.5623">
        <ele>252</ele>
        <time>2021-10-31T10:33:33.364Z</time>
      </trkpt>
      <trkpt lat="44.00172" lon="2.56233">
        <ele>250</ele>
        <time>2021-10-31T10:33:34.364Z</time>
      </trkpt>
      <trkpt lat="44.00171" lon="2.56234">
        <ele>250</ele>
        <time>2021-10-31T10:33:35.364Z</time>
      </trkpt>
      <trkpt lat="44.0017" lon="2.56234">
        <ele>250</ele>
        <time>2021-10-31T10:33:36.364Z</time>
      </trkpt>
      <trkpt lat="44.0017" lon="2.56235">
        <ele>250</ele>
        <time>2021-10-31T10:33:37.364Z</time>
      </trkpt>
      <trkpt lat="44.00169" lon="2.56235">
        <ele>250</ele>
        <time>2021-10-31T10:33:38.364Z</time>
      </trkpt>
      <trkpt lat="44.00168" lon="2.56235">
        <ele>250</ele>
        <time>2021-10-31T10:33:39.364Z</time>
      </trkpt>
      <trkpt lat="44.00168" lon="2.56235">
        <ele>250</ele>
        <time>2021-10-31T10:33:40.364Z</time>
      </trkpt>
      <trkpt lat="44.00167" lon="2.56236">
        <ele>250</ele>
        <time>2021-10-31T10:33:41.364Z</time>
      </trkpt>
      <trkpt lat="44.00167" lon="2.56236">
        <ele>250</ele>
        <time>2021-10-31T10:33:42.364Z</time>
      </trkpt>
      <trkpt lat="44.00166" lon="2.56236">
        <ele>250</ele>
        <time>2021-10-31T10:33:43.364Z</time>
      </trkpt>
      <trkpt lat="44.00165" lon="2.56237">
        <ele>250</ele>
        <time>2021-10-31T10:33:44.364Z</time>
      </trkpt>
      <trkpt lat="44.00164" lon="2.56238">
        <ele>250</ele>
        <time>2021-10-31T10:33:45.364Z</time>
      </trkpt>
      <trkpt lat="44.00163" lon="2.56238">
        <ele>250</ele>
        <time>2021-10-31T10:33:46.364Z</time>
      </trkpt>
      <trkpt lat="44.00163" lon="2.56239">
        <ele>250</ele>
        <time>2021-10-31T10:33:47.364Z</time>
      </trkpt>
      <trkpt lat="44.00162" lon="2.56239">
        <ele>250</ele>
        <time>2021-10-31T10:33:48.364Z</time>
      </trkpt>
      <trkpt lat="44.00161" lon="2.5624">
        <ele>250</ele>
        <time>2021-10-31T10:33:49.364Z</time>
      </trkpt>
      <trkpt lat="44.0016" lon="2.5624">
        <ele>250</ele>
        <time>2021-10-31T10:33:50.364Z</time>
      </trkpt>
      <trkpt lat="44.0016" lon="2.5624">
        <ele>250</ele>
        <time>2021-10-31T10:33:51.364Z</time>
      </trkpt>
      <trkpt lat="44.00159" lon="2.5624">
        <ele>250</ele>
        <time>2021-10-31T10:33:52.364Z</time>
      </trkpt>
      <trkpt lat="44.00158" lon="2.56241">
        <ele>250</ele>
        <time>2021-10-31T10:33:53.364Z</time>
      </trkpt>
      <trkpt lat="44.00158" lon="2.56241">
        <ele>250</ele>
        <time>2021-10-31T10:33:54.364Z</time>
      </trkpt>
      <trkpt lat="44.00157" lon="2.56241">
        <ele>250</ele>
        <time>2021-10-31T10:33:55.364Z</time>
      </trkpt>
      <trkpt lat="44.00157" lon="2.56242">
        <ele>250</ele>
        <time>2021-10-31T10:33:56.364Z</time>
      </trkpt>
      <trkpt lat="44.00156" lon="2.56242">
        <ele>250</ele>
        <time>2021-10-31T10:33:57.364Z</time>
      </trkpt>
      <trkpt lat="44.00155" lon="2.56243">
        <ele>250</ele>
        <time>2021-10-31T10:33:58.364Z</time>
      </trkpt>
      <trkpt lat="44.00154" lon="2.56243">
        <ele>250</ele>
        <time>2021-10-31T10:33:59.364Z</time>
      </trkpt>
      <trkpt lat="44.00154" lon="2.56243">
        <ele>250</ele>
        <time>2021-10-31T10:34:00.364Z</time>
      </trkpt>
      <trkpt lat="44.00153" lon="2.56244">
        <ele>250</ele>
        <time>2021-10-31T10:34:01.364Z</time>
      </trkpt>
      <trkpt lat="44.00153" lon="2.56245">
        <ele>250</ele>
        <time>2021-10-31T10:34:02.364Z</time>
      </trkpt>
      <trkpt lat="44.00152" lon="2.56245">
        <ele>250</ele>
        <time>2021-10-31T10:34:03.364Z</time>
      </trkpt>
      <trkpt lat="44.00152" lon="2.56245">
        <ele>250</ele>
        <time>2021-10-31T10:34:04.364Z</time>
      </trkpt>
      <trkpt lat="44.00152" lon="2.56245">
        <ele>250</ele>
        <time>2021-10-31T10:34:05.364Z</time>
      </trkpt>
      <trkpt lat="44.00152" lon="2.56245">
        <ele>249</ele>
        <time>2021-10-31T10:34:06.364Z</time>
      </trkpt>
      <trkpt lat="44.00149" lon="2.56247">
        <ele>250</ele>
        <time>2021-10-31T10:34:07.364Z</time>
      </trkpt>
      <trkpt lat="44.00148" lon="2.56248">
        <ele>250</ele>
        <time>2021-10-31T10:34:08.364Z</time>
      </trkpt>
      <trkpt lat="44.00148" lon="2.56248">
        <ele>250</ele>
        <time>2021-10-31T10:34:09.364Z</time>
      </trkpt>
      <trkpt lat="44.00147" lon="2.56249">
        <ele>250</ele>
        <time>2021-10-31T10:34:10.364Z</time>
      </trkpt>
      <trkpt lat="44.00147" lon="2.5625">
        <ele>250</ele>
        <time>2021-10-31T10:34:11.364Z</time>
      </trkpt>
      <trkpt lat="44.00146" lon="2.56251">
        <ele>251</ele>
        <time>2021-10-31T10:34:12.364Z</time>
      </trkpt>
      <trkpt lat="44.00146" lon="2.56252">
        <ele>251</ele>
        <time>2021-10-31T10:34:22.359Z</time>
      </trkpt>
      <trkpt lat="44.00145" lon="2.56253">
        <ele>251</ele>
        <time>2021-10-31T10:34:23.359Z</time>
      </trkpt>
      <trkpt lat="44.00145" lon="2.56254">
        <ele>251</ele>
        <time>2021-10-31T10:34:24.359Z</time>
      </trkpt>
      <trkpt lat="44.00145" lon="2.56255">
        <ele>251</ele>
        <time>2021-10-31T10:34:25.359Z</time>
      </trkpt>
      <trkpt lat="44.00144" lon="2.56255">
        <ele>251</ele>
        <time>2021-10-31T10:34:26.359Z</time>
      </trkpt>
      <trkpt lat="44.00144" lon="2.56256">
        <ele>252</ele>
        <time>2021-10-31T10:34:33.368Z</time>
      </trkpt>
      <trkpt lat="44.00144" lon="2.56257">
        <ele>252</ele>
        <time>2021-10-31T10:34:34.368Z</time>
      </trkpt>
      <trkpt lat="44.00144" lon="2.56258">
        <ele>252</ele>
        <time>2021-10-31T10:34:35.368Z</time>
      </trkpt>
      <trkpt lat="44.00144" lon="2.56258">
        <ele>252</ele>
        <time>2021-10-31T10:34:36.368Z</time>
      </trkpt>
      <trkpt lat="44.00144" lon="2.56259">
        <ele>252</ele>
        <time>2021-10-31T10:34:37.368Z</time>
      </trkpt>
      <trkpt lat="44.00144" lon="2.56259">
        <ele>253</ele>
        <time>2021-10-31T10:34:38.368Z</time>
      </trkpt>
      <trkpt lat="44.00143" lon="2.5626">
        <ele>253</ele>
        <time>2021-10-31T10:34:39.368Z</time>
      </trkpt>
      <trkpt lat="44.00143" lon="2.56261">
        <ele>253</ele>
        <time>2021-10-31T10:34:40.368Z</time>
      </trkpt>
      <trkpt lat="44.00143" lon="2.56262">
        <ele>253</ele>
        <time>2021-10-31T10:34:41.368Z</time>
      </trkpt>
      <trkpt lat="44.00144" lon="2.56263">
        <ele>253</ele>
        <time>2021-10-31T10:34:42.368Z</time>
      </trkpt>
      <trkpt lat="44.00144" lon="2.56264">
        <ele>253</ele>
        <time>2021-10-31T10:34:43.368Z</time>
      </trkpt>
      <trkpt lat="44.00144" lon="2.56264">
        <ele>253</ele>
        <time>2021-10-31T10:34:44.368Z</time>
      </trkpt>
      <trkpt lat="44.00144" lon="2.56265">
        <ele>254</ele>
        <time>2021-10-31T10:34:45.368Z</time>
      </trkpt>
      <trkpt lat="44.00144" lon="2.56266">
        <ele>254</ele>
        <time>2021-10-31T10:34:46.368Z</time>
      </trkpt>
      <trkpt lat="44.00144" lon="2.56266">
        <ele>254</ele>
        <time>2021-10-31T10:34:47.368Z</time>
      </trkpt>
      <trkpt lat="44.00144" lon="2.56267">
        <ele>254</ele>
        <time>2021-10-31T10:34:48.368Z</time>
      </trkpt>
      <trkpt lat="44.00144" lon="2.56267">
        <ele>254</ele>
        <time>2021-10-31T10:34:49.368Z</time>
      </trkpt>
      <trkpt lat="44.00144" lon="2.56268">
        <ele>254</ele>
        <time>2021-10-31T10:34:50.368Z</time>
      </trkpt>
      <trkpt lat="44.00144" lon="2.56269">
        <ele>254</ele>
        <time>2021-10-31T10:34:51.368Z</time>
      </trkpt>
      <trkpt lat="44.00144" lon="2.56269">
        <ele>254</ele>
        <time>2021-10-31T10:34:52.368Z</time>
      </trkpt>
      <trkpt lat="44.00144" lon="2.5627">
        <ele>254</ele>
        <time>2021-10-31T10:35:59.383Z</time>
      </trkpt>
      <trkpt lat="44.00144" lon="2.56271">
        <ele>254</ele>
        <time>2021-10-31T10:36:00.383Z</time>
      </trkpt>
      <trkpt lat="44.00143" lon="2.56271">
        <ele>255</ele>
        <time>2021-10-31T10:36:01.383Z</time>
      </trkpt>
      <trkpt lat="44.00143" lon="2.56272">
        <ele>255</ele>
        <time>2021-10-31T10:36:02.383Z</time>
      </trkpt>
      <trkpt lat="44.00143" lon="2.56272">
        <ele>255</ele>
        <time>2021-10-31T10:36:03.383Z</time>
      </trkpt>
      <trkpt lat="44.00141" lon="2.56274">
        <ele>256</ele>
        <time>2021-10-31T10:36:04.383Z</time>
      </trkpt>
      <trkpt lat="44.0014" lon="2.56275">
        <ele>256</ele>
        <time>2021-10-31T10:36:05.383Z</time>
      </trkpt>
      <trkpt lat="44.0014" lon="2.56275">
        <ele>256</ele>
        <time>2021-10-31T10:36:06.383Z</time>
      </trkpt>
      <trkpt lat="44.0014" lon="2.56276">
        <ele>256</ele>
        <time>2021-10-31T10:36:07.383Z</time>
      </trkpt>
      <trkpt lat="44.00139" lon="2.56277">
        <ele>256</ele>
        <time>2021-10-31T10:36:08.383Z</time>
      </trkpt>
      <trkpt lat="44.00139" lon="2.56278">
        <ele>256</ele>
        <time>2021-10-31T10:36:09.383Z</time>
      </trkpt>
      <trkpt lat="44.00138" lon="2.56279">
        <ele>256</ele>
        <time>2021-10-31T10:36:10.383Z</time>
      </trkpt>
      <trkpt lat="44.00138" lon="2.5628">
        <ele>256</ele>
        <time>2021-10-31T10:36:11.383Z</time>
      </trkpt>
      <trkpt lat="44.00138" lon="2.56281">
        <ele>257</ele>
        <time>2021-10-31T10:36:12.383Z</time>
      </trkpt>
      <trkpt lat="44.00137" lon="2.56282">
        <ele>257</ele>
        <time>2021-10-31T10:36:13.383Z</time>
      </trkpt>
      <trkpt lat="44.00137" lon="2.56282">
        <ele>257</ele>
        <time>2021-10-31T10:36:14.383Z</time>
      </trkpt>
      <trkpt lat="44.00137" lon="2.56283">
        <ele>257</ele>
        <time>2021-10-31T10:36:15.383Z</time>
      </trkpt>
      <trkpt lat="44.00137" lon="2.56283">
        <ele>257</ele>
        <time>2021-10-31T10:36:16.383Z</time>
      </trkpt>
      <trkpt lat="44.00137" lon="2.56284">
        <ele>257</ele>
        <time>2021-10-31T10:36:17.383Z</time>
      </trkpt>
      <trkpt lat="44.00137" lon="2.56285">
        <ele>257</ele>
        <time>2021-10-31T10:36:18.383Z</time>
      </trkpt>
      <trkpt lat="44.00136" lon="2.56285">
        <ele>257</ele>
        <time>2021-10-31T10:36:19.383Z</time>
      </trkpt>
      <trkpt lat="44.00136" lon="2.56286">
        <ele>257</ele>
        <time>2021-10-31T10:36:20.383Z</time>
      </trkpt>
      <trkpt lat="44.00136" lon="2.56287">
        <ele>257</ele>
        <time>2021-10-31T10:36:21.383Z</time>
      </trkpt>
      <trkpt lat="44.00136" lon="2.56287">
        <ele>257</ele>
        <time>2021-10-31T10:36:22.383Z</time>
      </trkpt>
      <trkpt lat="44.00135" lon="2.56288">
        <ele>257</ele>
        <time>2021-10-31T10:36:23.383Z</time>
      </trkpt>
      <trkpt lat="44.00135" lon="2.56289">
        <ele>257</ele>
        <time>2021-10-31T10:36:24.383Z</time>
      </trkpt>
      <trkpt lat="44.00135" lon="2.5629">
        <ele>257</ele>
        <time>2021-10-31T10:36:25.383Z</time>
      </trkpt>
      <trkpt lat="44.00134" lon="2.5629">
        <ele>257</ele>
        <time>2021-10-31T10:36:26.383Z</time>
      </trkpt>
      <trkpt lat="44.00134" lon="2.56291">
        <ele>257</ele>
        <time>2021-10-31T10:36:27.383Z</time>
      </trkpt>
      <trkpt lat="44.00134" lon="2.56292">
        <ele>257</ele>
        <time>2021-10-31T10:36:28.383Z</time>
      </trkpt>
      <trkpt lat="44.00133" lon="2.56293">
        <ele>257</ele>
        <time>2021-10-31T10:36:29.383Z</time>
      </trkpt>
      <trkpt lat="44.00133" lon="2.56293">
        <ele>257</ele>
        <time>2021-10-31T10:36:30.383Z</time>
      </trkpt>
      <trkpt lat="44.00132" lon="2.56294">
        <ele>257</ele>
        <time>2021-10-31T10:36:31.383Z</time>
      </trkpt>
      <trkpt lat="44.00132" lon="2.56295">
        <ele>257</ele>
        <time>2021-10-31T10:36:32.383Z</time>
      </trkpt>
      <trkpt lat="44.00132" lon="2.56296">
        <ele>257</ele>
        <time>2021-10-31T10:36:33.383Z</time>
      </trkpt>
      <trkpt lat="44.00132" lon="2.56297">
        <ele>257</ele>
        <time>2021-10-31T10:36:34.383Z</time>
      </trkpt>
      <trkpt lat="44.00132" lon="2.56298">
        <ele>257</ele>
        <time>2021-10-31T10:36:35.383Z</time>
      </trkpt>
      <trkpt lat="44.00132" lon="2.56298">
        <ele>257</ele>
        <time>2021-10-31T10:36:36.383Z</time>
      </trkpt>
      <trkpt lat="44.00131" lon="2.56299">
        <ele>257</ele>
        <time>2021-10-31T10:36:37.383Z</time>
      </trkpt>
      <trkpt lat="44.00131" lon="2.56299">
        <ele>257</ele>
        <time>2021-10-31T10:36:38.383Z</time>
      </trkpt>
      <trkpt lat="44.00131" lon="2.56299">
        <ele>256</ele>
        <time>2021-10-31T10:36:39.383Z</time>
      </trkpt>
      <trkpt lat="44.00131" lon="2.563">
        <ele>256</ele>
        <time>2021-10-31T10:36:40.383Z</time>
      </trkpt>
      <trkpt lat="44.00131" lon="2.563">
        <ele>256</ele>
        <time>2021-10-31T10:36:41.383Z</time>
      </trkpt>
      <trkpt lat="44.00131" lon="2.56301">
        <ele>256</ele>
        <time>2021-10-31T10:36:42.383Z</time>
      </trkpt>
      <trkpt lat="44.0013" lon="2.56302">
        <ele>256</ele>
        <time>2021-10-31T10:36:43.383Z</time>
      </trkpt>
      <trkpt lat="44.0013" lon="2.56303">
        <ele>256</ele>
        <time>2021-10-31T10:36:44.383Z</time>
      </trkpt>
      <trkpt lat="44.0013" lon="2.56304">
        <ele>256</ele>
        <time>2021-10-31T10:36:45.383Z</time>
      </trkpt>
      <trkpt lat="44.0013" lon="2.56304">
        <ele>256</ele>
        <time>2021-10-31T10:36:46.383Z</time>
      </trkpt>
      <trkpt lat="44.0013" lon="2.56304">
        <ele>256</ele>
        <time>2021-10-31T10:36:47.383Z</time>
      </trkpt>
      <trkpt lat="44.0013" lon="2.56304">
        <ele>256</ele>
        <time>2021-10-31T10:36:48.383Z</time>
      </trkpt>
      <trkpt lat="44.0013" lon="2.56305">
        <ele>255</ele>
        <time>2021-10-31T10:36:49.383Z</time>
      </trkpt>
      <trkpt lat="44.00129" lon="2.56305">
        <ele>255</ele>
        <time>2021-10-31T10:36:50.383Z</time>
      </trkpt>
      <trkpt lat="44.00129" lon="2.56306">
        <ele>255</ele>
        <time>2021-10-31T10:36:51.383Z</time>
      </trkpt>
      <trkpt lat="44.00129" lon="2.56306">
        <ele>255</ele>
        <time>2021-10-31T10:36:52.383Z</time>
      </trkpt>
      <trkpt lat="44.00129" lon="2.56306">
        <ele>255</ele>
        <time>2021-10-31T10:36:53.383Z</time>
      </trkpt>
      <trkpt lat="44.00128" lon="2.56305">
        <ele>255</ele>
        <time>2021-10-31T10:36:54.383Z</time>
      </trkpt>
      <trkpt lat="44.00127" lon="2.56304">
        <ele>255</ele>
        <time>2021-10-31T10:36:55.383Z</time>
      </trkpt>
      <trkpt lat="44.00127" lon="2.56304">
        <ele>255</ele>
        <time>2021-10-31T10:36:56.383Z</time>
      </trkpt>
      <trkpt lat="44.00126" lon="2.56303">
        <ele>255</ele>
        <time>2021-10-31T10:36:57.383Z</time>
      </trkpt>
      <trkpt lat="44.00126" lon="2.56303">
        <ele>255</ele>
        <time>2021-10-31T10:36:58.383Z</time>
      </trkpt>
      <trkpt lat="44.00125" lon="2.56303">
        <ele>255</ele>
        <time>2021-10-31T10:36:59.383Z</time>
      </trkpt>
      <trkpt lat="44.00124" lon="2.56303">
        <ele>255</ele>
        <time>2021-10-31T10:37:00.383Z</time>
      </trkpt>
      <trkpt lat="44.00123" lon="2.56302">
        <ele>255</ele>
        <time>2021-10-31T10:37:01.383Z</time>
      </trkpt>
      <trkpt lat="44.00123" lon="2.56302">
        <ele>255</ele>
        <time>2021-10-31T10:37:02.383Z</time>
      </trkpt>
      <trkpt lat="44.00122" lon="2.56301">
        <ele>255</ele>
        <time>2021-10-31T10:37:03.383Z</time>
      </trkpt>
      <trkpt lat="44.00121" lon="2.563">
        <ele>255</ele>
        <time>2021-10-31T10:37:04.383Z</time>
      </trkpt>
      <trkpt lat="44.0012" lon="2.56299">
        <ele>255</ele>
        <time>2021-10-31T10:37:05.383Z</time>
      </trkpt>
      <trkpt lat="44.00119" lon="2.56298">
        <ele>255</ele>
        <time>2021-10-31T10:37:06.383Z</time>
      </trkpt>
      <trkpt lat="44.00118" lon="2.56298">
        <ele>255</ele>
        <time>2021-10-31T10:37:09.638Z</time>
      </trkpt>
      <trkpt lat="44.00117" lon="2.56297">
        <ele>255</ele>
        <time>2021-10-31T10:37:10.638Z</time>
      </trkpt>
      <trkpt lat="44.00116" lon="2.56297">
        <ele>255</ele>
        <time>2021-10-31T10:37:11.638Z</time>
      </trkpt>
      <trkpt lat="44.00114" lon="2.56297">
        <ele>255</ele>
        <time>2021-10-31T10:37:12.638Z</time>
      </trkpt>
      <trkpt lat="44.00113" lon="2.56296">
        <ele>255</ele>
        <time>2021-10-31T10:37:13.638Z</time>
      </trkpt>
      <trkpt lat="44.00112" lon="2.56295">
        <ele>255</ele>
        <time>2021-10-31T10:37:14.638Z</time>
      </trkpt>
      <trkpt lat="44.0011" lon="2.56295">
        <ele>255</ele>
        <time>2021-10-31T10:37:15.638Z</time>
      </trkpt>
      <trkpt lat="44.00109" lon="2.56294">
        <ele>255</ele>
        <time>2021-10-31T10:37:16.638Z</time>
      </trkpt>
      <trkpt lat="44.00108" lon="2.56294">
        <ele>255</ele>
        <time>2021-10-31T10:37:17.638Z</time>
      </trkpt>
      <trkpt lat="44.00107" lon="2.56293">
        <ele>255</ele>
        <time>2021-10-31T10:37:18.638Z</time>
      </trkpt>
      <trkpt lat="44.00106" lon="2.56293">
        <ele>255</ele>
        <time>2021-10-31T10:37:19.638Z</time>
      </trkpt>
      <trkpt lat="44.00105" lon="2.56293">
        <ele>255</ele>
        <time>2021-10-31T10:37:20.638Z</time>
      </trkpt>
      <trkpt lat="44.00103" lon="2.56293">
        <ele>255</ele>
        <time>2021-10-31T10:37:21.638Z</time>
      </trkpt>
      <trkpt lat="44.00102" lon="2.56292">
        <ele>255</ele>
        <time>2021-10-31T10:37:22.638Z</time>
      </trkpt>
      <trkpt lat="44.00101" lon="2.56292">
        <ele>255</ele>
        <time>2021-10-31T10:37:23.638Z</time>
      </trkpt>
      <trkpt lat="44.001" lon="2.56291">
        <ele>255</ele>
        <time>2021-10-31T10:37:24.638Z</time>
      </trkpt>
      <trkpt lat="44.00099" lon="2.56291">
        <ele>255</ele>
        <time>2021-10-31T10:37:25.638Z</time>
      </trkpt>
      <trkpt lat="44.00098" lon="2.5629">
        <ele>254</ele>
        <time>2021-10-31T10:37:26.638Z</time>
      </trkpt>
      <trkpt lat="44.00097" lon="2.5629">
        <ele>254</ele>
        <time>2021-10-31T10:37:27.638Z</time>
      </trkpt>
      <trkpt lat="44.00096" lon="2.5629">
        <ele>254</ele>
        <time>2021-10-31T10:37:28.638Z</time>
      </trkpt>
      <trkpt lat="44.00095" lon="2.56289">
        <ele>254</ele>
        <time>2021-10-31T10:37:29.638Z</time>
      </trkpt>
      <trkpt lat="44.00094" lon="2.56289">
        <ele>254</ele>
        <time>2021-10-31T10:37:30.638Z</time>
      </trkpt>
      <trkpt lat="44.00093" lon="2.56289">
        <ele>254</ele>
        <time>2021-10-31T10:37:31.638Z</time>
      </trkpt>
      <trkpt lat="44.00092" lon="2.56288">
        <ele>254</ele>
        <time>2021-10-31T10:37:32.638Z</time>
      </trkpt>
      <trkpt lat="44.00091" lon="2.56288">
        <ele>254</ele>
        <time>2021-10-31T10:37:33.638Z</time>
      </trkpt>
      <trkpt lat="44.0009" lon="2.56288">
        <ele>254</ele>
        <time>2021-10-31T10:37:34.638Z</time>
      </trkpt>
      <trkpt lat="44.00088" lon="2.56288">
        <ele>254</ele>
        <time>2021-10-31T10:37:35.638Z</time>
      </trkpt>
      <trkpt lat="44.00087" lon="2.56288">
        <ele>254</ele>
        <time>2021-10-31T10:37:36.638Z</time>
      </trkpt>
      <trkpt lat="44.00086" lon="2.56288">
        <ele>254</ele>
        <time>2021-10-31T10:37:37.638Z</time>
      </trkpt>
      <trkpt lat="44.00085" lon="2.56288">
        <ele>254</ele>
        <time>2021-10-31T10:37:38.638Z</time>
      </trkpt>
      <trkpt lat="44.00084" lon="2.56288">
        <ele>255</ele>
        <time>2021-10-31T10:37:39.638Z</time>
      </trkpt>
      <trkpt lat="44.00083" lon="2.56288">
        <ele>255</ele>
        <time>2021-10-31T10:37:40.638Z</time>
      </trkpt>
      <trkpt lat="44.00081" lon="2.56287">
        <ele>255</ele>
        <time>2021-10-31T10:37:41.638Z</time>
      </trkpt>
      <trkpt lat="44.0008" lon="2.56287">
        <ele>255</ele>
        <time>2021-10-31T10:37:42.638Z</time>
      </trkpt>
      <trkpt lat="44.00079" lon="2.56287">
        <ele>254</ele>
        <time>2021-10-31T10:37:43.638Z</time>
      </trkpt>
      <trkpt lat="44.00079" lon="2.56286">
        <ele>254</ele>
        <time>2021-10-31T10:37:44.638Z</time>
      </trkpt>
      <trkpt lat="44.00078" lon="2.56286">
        <ele>254</ele>
        <time>2021-10-31T10:37:45.638Z</time>
      </trkpt>
      <trkpt lat="44.00076" lon="2.56287">
        <ele>254</ele>
        <time>2021-10-31T10:37:46.638Z</time>
      </trkpt>
      <trkpt lat="44.00075" lon="2.56287">
        <ele>255</ele>
        <time>2021-10-31T10:37:47.638Z</time>
      </trkpt>
      <trkpt lat="44.00075" lon="2.56287">
        <ele>255</ele>
        <time>2021-10-31T10:37:48.638Z</time>
      </trkpt>
      <trkpt lat="44.00074" lon="2.56288">
        <ele>255</ele>
        <time>2021-10-31T10:37:49.638Z</time>
      </trkpt>
      <trkpt lat="44.00072" lon="2.56288">
        <ele>255</ele>
        <time>2021-10-31T10:37:50.638Z</time>
      </trkpt>
      <trkpt lat="44.00071" lon="2.56288">
        <ele>255</ele>
        <time>2021-10-31T10:37:51.638Z</time>
      </trkpt>
      <trkpt lat="44.0007" lon="2.56288">
        <ele>255</ele>
        <time>2021-10-31T10:37:52.638Z</time>
      </trkpt>
      <trkpt lat="44.00069" lon="2.56289">
        <ele>255</ele>
        <time>2021-10-31T10:37:53.638Z</time>
      </trkpt>
      <trkpt lat="44.00068" lon="2.56289">
        <ele>255</ele>
        <time>2021-10-31T10:37:54.638Z</time>
      </trkpt>
      <trkpt lat="44.00067" lon="2.5629">
        <ele>256</ele>
        <time>2021-10-31T10:37:55.638Z</time>
      </trkpt>
      <trkpt lat="44.00066" lon="2.5629">
        <ele>256</ele>
        <time>2021-10-31T10:37:56.638Z</time>
      </trkpt>
      <trkpt lat="44.00065" lon="2.5629">
        <ele>256</ele>
        <time>2021-10-31T10:37:57.638Z</time>
      </trkpt>
      <trkpt lat="44.00064" lon="2.5629">
        <ele>256</ele>
        <time>2021-10-31T10:37:58.638Z</time>
      </trkpt>
      <trkpt lat="44.00063" lon="2.56289">
        <ele>256</ele>
        <time>2021-10-31T10:37:59.638Z</time>
      </trkpt>
      <trkpt lat="44.00062" lon="2.56289">
        <ele>257</ele>
        <time>2021-10-31T10:38:00.638Z</time>
      </trkpt>
      <trkpt lat="44.00061" lon="2.56289">
        <ele>257</ele>
        <time>2021-10-31T10:38:01.638Z</time>
      </trkpt>
      <trkpt lat="44.0006" lon="2.56289">
        <ele>257</ele>
        <time>2021-10-31T10:38:02.638Z</time>
      </trkpt>
      <trkpt lat="44.00059" lon="2.56289">
        <ele>257</ele>
        <time>2021-10-31T10:38:03.638Z</time>
      </trkpt>
      <trkpt lat="44.00058" lon="2.56288">
        <ele>258</ele>
        <time>2021-10-31T10:38:04.638Z</time>
      </trkpt>
      <trkpt lat="44.00057" lon="2.56288">
        <ele>258</ele>
        <time>2021-10-31T10:38:05.638Z</time>
      </trkpt>
      <trkpt lat="44.00056" lon="2.56288">
        <ele>258</ele>
        <time>2021-10-31T10:38:06.638Z</time>
      </trkpt>
      <trkpt lat="44.00055" lon="2.56288">
        <ele>258</ele>
        <time>2021-10-31T10:38:07.638Z</time>
      </trkpt>
      <trkpt lat="44.00054" lon="2.56287">
        <ele>258</ele>
        <time>2021-10-31T10:38:08.638Z</time>
      </trkpt>
      <trkpt lat="44.00054" lon="2.56287">
        <ele>258</ele>
        <time>2021-10-31T10:38:09.638Z</time>
      </trkpt>
      <trkpt lat="44.00053" lon="2.56286">
        <ele>258</ele>
        <time>2021-10-31T10:38:10.638Z</time>
      </trkpt>
      <trkpt lat="44.00052" lon="2.56286">
        <ele>259</ele>
        <time>2021-10-31T10:38:11.638Z</time>
      </trkpt>
      <trkpt lat="44.00051" lon="2.56286">
        <ele>259</ele>
        <time>2021-10-31T10:38:12.638Z</time>
      </trkpt>
      <trkpt lat="44.0005" lon="2.56285">
        <ele>259</ele>
        <time>2021-10-31T10:38:13.638Z</time>
      </trkpt>
      <trkpt lat="44.00049" lon="2.56284">
        <ele>259</ele>
        <time>2021-10-31T10:38:14.638Z</time>
      </trkpt>
      <trkpt lat="44.00048" lon="2.56284">
        <ele>259</ele>
        <time>2021-10-31T10:38:15.638Z</time>
      </trkpt>
      <trkpt lat="44.00047" lon="2.56283">
        <ele>259</ele>
        <time>2021-10-31T10:38:16.638Z</time>
      </trkpt>
      <trkpt lat="44.00046" lon="2.56283">
        <ele>259</ele>
        <time>2021-10-31T10:38:17.638Z</time>
      </trkpt>
      <trkpt lat="44.00045" lon="2.56282">
        <ele>260</ele>
        <time>2021-10-31T10:38:27.640Z</time>
      </trkpt>
      <trkpt lat="44.00044" lon="2.56282">
        <ele>260</ele>
        <time>2021-10-31T10:38:28.640Z</time>
      </trkpt>
      <trkpt lat="44.00044" lon="2.56282">
        <ele>260</ele>
        <time>2021-10-31T10:38:29.640Z</time>
      </trkpt>
      <trkpt lat="44.00043" lon="2.56281">
        <ele>260</ele>
        <time>2021-10-31T10:38:30.640Z</time>
      </trkpt>
      <trkpt lat="44.00042" lon="2.56281">
        <ele>260</ele>
        <time>2021-10-31T10:38:31.640Z</time>
      </trkpt>
      <trkpt lat="44.00041" lon="2.56281">
        <ele>260</ele>
        <time>2021-10-31T10:38:32.640Z</time>
      </trkpt>
      <trkpt lat="44.0004" lon="2.5628">
        <ele>261</ele>
        <time>2021-10-31T10:38:33.640Z</time>
      </trkpt>
      <trkpt lat="44.00039" lon="2.5628">
        <ele>261</ele>
        <time>2021-10-31T10:38:34.640Z</time>
      </trkpt>
      <trkpt lat="44.00038" lon="2.5628">
        <ele>261</ele>
        <time>2021-10-31T10:38:35.640Z</time>
      </trkpt>
      <trkpt lat="44.00037" lon="2.5628">
        <ele>261</ele>
        <time>2021-10-31T10:38:36.640Z</time>
      </trkpt>
      <trkpt lat="44.00036" lon="2.5628">
        <ele>262</ele>
        <time>2021-10-31T10:38:37.640Z</time>
      </trkpt>
      <trkpt lat="44.00035" lon="2.5628">
        <ele>262</ele>
        <time>2021-10-31T10:38:38.640Z</time>
      </trkpt>
      <trkpt lat="44.00035" lon="2.56279">
        <ele>262</ele>
        <time>2021-10-31T10:38:39.640Z</time>
      </trkpt>
      <trkpt lat="44.00034" lon="2.56279">
        <ele>262</ele>
        <time>2021-10-31T10:38:40.640Z</time>
      </trkpt>
      <trkpt lat="44.00033" lon="2.56279">
        <ele>263</ele>
        <time>2021-10-31T10:38:43.896Z</time>
      </trkpt>
      <trkpt lat="44.00032" lon="2.56279">
        <ele>263</ele>
        <time>2021-10-31T10:38:44.896Z</time>
      </trkpt>
      <trkpt lat="44.00031" lon="2.56278">
        <ele>263</ele>
        <time>2021-10-31T10:38:45.896Z</time>
      </trkpt>
      <trkpt lat="44.0003" lon="2.56278">
        <ele>263</ele>
        <time>2021-10-31T10:38:46.896Z</time>
      </trkpt>
      <trkpt lat="44.00029" lon="2.56278">
        <ele>264</ele>
        <time>2021-10-31T10:38:47.896Z</time>
      </trkpt>
      <trkpt lat="44.00028" lon="2.56278">
        <ele>264</ele>
        <time>2021-10-31T10:38:48.896Z</time>
      </trkpt>
      <trkpt lat="44.00027" lon="2.56277">
        <ele>265</ele>
        <time>2021-10-31T10:38:49.896Z</time>
      </trkpt>
      <trkpt lat="44.00026" lon="2.56277">
        <ele>265</ele>
        <time>2021-10-31T10:38:50.896Z</time>
      </trkpt>
      <trkpt lat="44.00026" lon="2.56277">
        <ele>265</ele>
        <time>2021-10-31T10:38:51.896Z</time>
      </trkpt>
      <trkpt lat="44.00025" lon="2.56277">
        <ele>265</ele>
        <time>2021-10-31T10:38:52.896Z</time>
      </trkpt>
      <trkpt lat="44.00024" lon="2.56277">
        <ele>266</ele>
        <time>2021-10-31T10:38:53.896Z</time>
      </trkpt>
      <trkpt lat="44.00023" lon="2.56277">
        <ele>266</ele>
        <time>2021-10-31T10:38:54.896Z</time>
      </trkpt>
      <trkpt lat="44.00023" lon="2.56277">
        <ele>266</ele>
        <time>2021-10-31T10:38:55.896Z</time>
      </trkpt>
      <trkpt lat="44.00022" lon="2.56276">
        <ele>266</ele>
        <time>2021-10-31T10:38:56.896Z</time>
      </trkpt>
      <trkpt lat="44.00021" lon="2.56276">
        <ele>266</ele>
        <time>2021-10-31T10:38:57.896Z</time>
      </trkpt>
      <trkpt lat="44.0002" lon="2.56276">
        <ele>267</ele>
        <time>2021-10-31T10:38:58.896Z</time>
      </trkpt>
      <trkpt lat="44.00019" lon="2.56275">
        <ele>267</ele>
        <time>2021-10-31T10:38:59.896Z</time>
      </trkpt>
      <trkpt lat="44.00019" lon="2.56275">
        <ele>267</ele>
        <time>2021-10-31T10:39:00.896Z</time>
      </trkpt>
      <trkpt lat="44.00018" lon="2.56274">
        <ele>267</ele>
        <time>2021-10-31T10:39:01.896Z</time>
      </trkpt>
      <trkpt lat="44.00017" lon="2.56274">
        <ele>267</ele>
        <time>2021-10-31T10:39:02.896Z</time>
      </trkpt>
      <trkpt lat="44.00016" lon="2.56273">
        <ele>267</ele>
        <time>2021-10-31T10:39:03.896Z</time>
      </trkpt>
      <trkpt lat="44.00015" lon="2.56273">
        <ele>267</ele>
        <time>2021-10-31T10:39:04.896Z</time>
      </trkpt>
      <trkpt lat="44.00015" lon="2.56273">
        <ele>267</ele>
        <time>2021-10-31T10:39:05.896Z</time>
      </trkpt>
      <trkpt lat="44.00014" lon="2.56273">
        <ele>267</ele>
        <time>2021-10-31T10:39:06.896Z</time>
      </trkpt>
      <trkpt lat="44.00013" lon="2.56273">
        <ele>267</ele>
        <time>2021-10-31T10:39:10.884Z</time>
      </trkpt>
      <trkpt lat="44.00012" lon="2.56273">
        <ele>267</ele>
        <time>2021-10-31T10:39:11.884Z</time>
      </trkpt>
      <trkpt lat="44.00012" lon="2.56273">
        <ele>267</ele>
        <time>2021-10-31T10:39:12.884Z</time>
      </trkpt>
      <trkpt lat="44.00011" lon="2.56273">
        <ele>267</ele>
        <time>2021-10-31T10:39:13.884Z</time>
      </trkpt>
      <trkpt lat="44.0001" lon="2.56273">
        <ele>267</ele>
        <time>2021-10-31T10:39:14.884Z</time>
      </trkpt>
      <trkpt lat="44.00009" lon="2.56273">
        <ele>267</ele>
        <time>2021-10-31T10:39:29.889Z</time>
      </trkpt>
      <trkpt lat="44.00009" lon="2.56273">
        <ele>267</ele>
        <time>2021-10-31T10:39:30.889Z</time>
      </trkpt>
      <trkpt lat="44.00008" lon="2.56273">
        <ele>267</ele>
        <time>2021-10-31T10:39:31.889Z</time>
      </trkpt>
      <trkpt lat="44.00007" lon="2.56273">
        <ele>267</ele>
        <time>2021-10-31T10:39:32.889Z</time>
      </trkpt>
      <trkpt lat="44.00007" lon="2.56273">
        <ele>266</ele>
        <time>2021-10-31T10:39:33.889Z</time>
      </trkpt>
      <trkpt lat="44.00006" lon="2.56273">
        <ele>266</ele>
        <time>2021-10-31T10:39:34.889Z</time>
      </trkpt>
      <trkpt lat="44.00006" lon="2.56272">
        <ele>266</ele>
        <time>2021-10-31T10:39:35.889Z</time>
      </trkpt>
      <trkpt lat="44.00005" lon="2.56272">
        <ele>266</ele>
        <time>2021-10-31T10:39:36.889Z</time>
      </trkpt>
      <trkpt lat="44.00004" lon="2.56272">
        <ele>266</ele>
        <time>2021-10-31T10:39:37.889Z</time>
      </trkpt>
      <trkpt lat="44.00004" lon="2.56271">
        <ele>266</ele>
        <time>2021-10-31T10:39:38.889Z</time>
      </trkpt>
      <trkpt lat="44.00003" lon="2.56271">
        <ele>266</ele>
        <time>2021-10-31T10:39:39.889Z</time>
      </trkpt>
      <trkpt lat="44.00002" lon="2.56271">
        <ele>266</ele>
        <time>2021-10-31T10:39:40.889Z</time>
      </trkpt>
      <trkpt lat="44.00001" lon="2.5627">
        <ele>266</ele>
        <time>2021-10-31T10:39:41.889Z</time>
      </trkpt>
      <trkpt lat="44" lon="2.5627">
        <ele>266</ele>
        <time>2021-10-31T10:39:42.889Z</time>
      </trkpt>
      <trkpt lat="43.99999" lon="2.56269">
        <ele>266</ele>
        <time>2021-10-31T10:39:43.889Z</time>
      </trkpt>
      <trkpt lat="43.99998" lon="2.56269">
        <ele>266</ele>
        <time>2021-10-31T10:40:30.894Z</time>
      </trkpt>
      <trkpt lat="43.99997" lon="2.56269">
        <ele>266</ele>
        <time>2021-10-31T10:40:31.894Z</time>
      </trkpt>
      <trkpt lat="43.99996" lon="2.56269">
        <ele>266</ele>
        <time>2021-10-31T10:40:32.894Z</time>
      </trkpt>
      <trkpt lat="43.99995" lon="2.56268">
        <ele>266</ele>
        <time>2021-10-31T10:40:33.894Z</time>
      </trkpt>
      <trkpt lat="43.99994" lon="2.56268">
        <ele>265</ele>
        <time>2021-10-31T10:40:34.894Z</time>
      </trkpt>
      <trkpt lat="43.99993" lon="2.56268">
        <ele>265</ele>
        <time>2021-10-31T10:40:35.894Z</time>
      </trkpt>
      <trkpt lat="43.99992" lon="2.56267">
        <ele>265</ele>
        <time>2021-10-31T10:40:36.894Z</time>
      </trkpt>
      <trkpt lat="43.99991" lon="2.56266">
        <ele>265</ele>
        <time>2021-10-31T10:40:37.894Z</time>
      </trkpt>
      <trkpt lat="43.99991" lon="2.56266">
        <ele>265</ele>
        <time>2021-10-31T10:40:38.894Z</time>
      </trkpt>
      <trkpt lat="43.9999" lon="2.56264">
        <ele>265</ele>
        <time>2021-10-31T10:40:39.894Z</time>
      </trkpt>
      <trkpt lat="43.99989" lon="2.56264">
        <ele>265</ele>
        <time>2021-10-31T10:40:40.894Z</time>
      </trkpt>
      <trkpt lat="43.99988" lon="2.56263">
        <ele>265</ele>
        <time>2021-10-31T10:40:41.894Z</time>
      </trkpt>
      <trkpt lat="43.99987" lon="2.56262">
        <ele>265</ele>
        <time>2021-10-31T10:40:42.894Z</time>
      </trkpt>
      <trkpt lat="43.99986" lon="2.56261">
        <ele>265</ele>
        <time>2021-10-31T10:40:43.894Z</time>
      </trkpt>
      <trkpt lat="43.99986" lon="2.5626">
        <ele>265</ele>
        <time>2021-10-31T10:40:44.894Z</time>
      </trkpt>
      <trkpt lat="43.99985" lon="2.5626">
        <ele>265</ele>
        <time>2021-10-31T10:40:45.894Z</time>
      </trkpt>
      <trkpt lat="43.99984" lon="2.56259">
        <ele>265</ele>
        <time>2021-10-31T10:40:46.894Z</time>
      </trkpt>
      <trkpt lat="43.99983" lon="2.56259">
        <ele>265</ele>
        <time>2021-10-31T10:40:47.894Z</time>
      </trkpt>
      <trkpt lat="43.99983" lon="2.56258">
        <ele>265</ele>
        <time>2021-10-31T10:40:48.894Z</time>
      </trkpt>
      <trkpt lat="43.99982" lon="2.56258">
        <ele>264</ele>
        <time>2021-10-31T10:40:49.894Z</time>
      </trkpt>
      <trkpt lat="43.99982" lon="2.56257">
        <ele>264</ele>
        <time>2021-10-31T10:40:50.894Z</time>
      </trkpt>
      <trkpt lat="43.99981" lon="2.56256">
        <ele>264</ele>
        <time>2021-10-31T10:40:51.894Z</time>
      </trkpt>
      <trkpt lat="43.99981" lon="2.56256">
        <ele>264</ele>
        <time>2021-10-31T10:40:52.894Z</time>
      </trkpt>
      <trkpt lat="43.99981" lon="2.56256">
        <ele>264</ele>
        <time>2021-10-31T10:40:53.894Z</time>
      </trkpt>
      <trkpt lat="43.99981" lon="2.56257">
        <ele>264</ele>
        <time>2021-10-31T10:40:54.894Z</time>
      </trkpt>
      <trkpt lat="43.9998" lon="2.56257">
        <ele>264</ele>
        <time>2021-10-31T10:40:55.894Z</time>
      </trkpt>
      <trkpt lat="43.99979" lon="2.56256">
        <ele>264</ele>
        <time>2021-10-31T10:40:56.894Z</time>
      </trkpt>
      <trkpt lat="43.99978" lon="2.56255">
        <ele>264</ele>
        <time>2021-10-31T10:40:57.894Z</time>
      </trkpt>
      <trkpt lat="43.99978" lon="2.56254">
        <ele>264</ele>
        <time>2021-10-31T10:40:58.894Z</time>
      </trkpt>
      <trkpt lat="43.99978" lon="2.56253">
        <ele>264</ele>
        <time>2021-10-31T10:40:59.894Z</time>
      </trkpt>
      <trkpt lat="43.99977" lon="2.56252">
        <ele>263</ele>
        <time>2021-10-31T10:41:00.894Z</time>
      </trkpt>
      <trkpt lat="43.99976" lon="2.56251">
        <ele>263</ele>
        <time>2021-10-31T10:41:01.894Z</time>
      </trkpt>
      <trkpt lat="43.99975" lon="2.5625">
        <ele>263</ele>
        <time>2021-10-31T10:41:02.894Z</time>
      </trkpt>
      <trkpt lat="43.99974" lon="2.56249">
        <ele>263</ele>
        <time>2021-10-31T10:41:03.894Z</time>
      </trkpt>
      <trkpt lat="43.99974" lon="2.56248">
        <ele>263</ele>
        <time>2021-10-31T10:41:04.894Z</time>
      </trkpt>
      <trkpt lat="43.99973" lon="2.56247">
        <ele>263</ele>
        <time>2021-10-31T10:41:05.894Z</time>
      </trkpt>
      <trkpt lat="43.99972" lon="2.56247">
        <ele>263</ele>
        <time>2021-10-31T10:41:06.894Z</time>
      </trkpt>
      <trkpt lat="43.99971" lon="2.56247">
        <ele>263</ele>
        <time>2021-10-31T10:41:07.894Z</time>
      </trkpt>
      <trkpt lat="43.9997" lon="2.56246">
        <ele>263</ele>
        <time>2021-10-31T10:41:08.894Z</time>
      </trkpt>
      <trkpt lat="43.9997" lon="2.56246">
        <ele>263</ele>
        <time>2021-10-31T10:41:09.894Z</time>
      </trkpt>
      <trkpt lat="43.99969" lon="2.56246">
        <ele>263</ele>
        <time>2021-10-31T10:41:10.894Z</time>
      </trkpt>
      <trkpt lat="43.99968" lon="2.56246">
        <ele>263</ele>
        <time>2021-10-31T10:41:11.894Z</time>
      </trkpt>
      <trkpt lat="43.99967" lon="2.56245">
        <ele>263</ele>
        <time>2021-10-31T10:41:12.894Z</time>
      </trkpt>
      <trkpt lat="43.99967" lon="2.56245">
        <ele>263</ele>
        <time>2021-10-31T10:41:13.894Z</time>
      </trkpt>
      <trkpt lat="43.99967" lon="2.56245">
        <ele>263</ele>
        <time>2021-10-31T10:41:14.894Z</time>
      </trkpt>
      <trkpt lat="43.99967" lon="2.56244">
        <ele>263</ele>
        <time>2021-10-31T10:41:15.894Z</time>
      </trkpt>
      <trkpt lat="43.99966" lon="2.56244">
        <ele>263</ele>
        <time>2021-10-31T10:41:16.894Z</time>
      </trkpt>
      <trkpt lat="43.99966" lon="2.56243">
        <ele>263</ele>
        <time>2021-10-31T10:41:17.894Z</time>
      </trkpt>
      <trkpt lat="43.99966" lon="2.56242">
        <ele>263</ele>
        <time>2021-10-31T10:41:18.894Z</time>
      </trkpt>
      <trkpt lat="43.99966" lon="2.56242">
        <ele>263</ele>
        <time>2021-10-31T10:41:19.894Z</time>
      </trkpt>
      <trkpt lat="43.99966" lon="2.56241">
        <ele>263</ele>
        <time>2021-10-31T10:41:20.894Z</time>
      </trkpt>
      <trkpt lat="43.99966" lon="2.56241">
        <ele>263</ele>
        <time>2021-10-31T10:41:21.894Z</time>
      </trkpt>
      <trkpt lat="43.99966" lon="2.5624">
        <ele>263</ele>
        <time>2021-10-31T10:41:22.894Z</time>
      </trkpt>
      <trkpt lat="43.99966" lon="2.56239">
        <ele>263</ele>
        <time>2021-10-31T10:41:23.894Z</time>
      </trkpt>
      <trkpt lat="43.99966" lon="2.56239">
        <ele>263</ele>
        <time>2021-10-31T10:41:24.894Z</time>
      </trkpt>
      <trkpt lat="43.99966" lon="2.56238">
        <ele>263</ele>
        <time>2021-10-31T10:41:25.894Z</time>
      </trkpt>
      <trkpt lat="43.99966" lon="2.56238">
        <ele>263</ele>
        <time>2021-10-31T10:41:26.894Z</time>
      </trkpt>
      <trkpt lat="43.99966" lon="2.56238">
        <ele>263</ele>
        <time>2021-10-31T10:41:27.894Z</time>
      </trkpt>
      <trkpt lat="43.99963" lon="2.56238">
        <ele>263</ele>
        <time>2021-10-31T10:41:28.894Z</time>
      </trkpt>
      <trkpt lat="43.99963" lon="2.56238">
        <ele>263</ele>
        <time>2021-10-31T10:41:29.894Z</time>
      </trkpt>
      <trkpt lat="43.99963" lon="2.56238">
        <ele>263</ele>
        <time>2021-10-31T10:41:30.894Z</time>
      </trkpt>
      <trkpt lat="43.99963" lon="2.56238">
        <ele>263</ele>
        <time>2021-10-31T10:41:31.894Z</time>
      </trkpt>
      <trkpt lat="43.99964" lon="2.56238">
        <ele>263</ele>
        <time>2021-10-31T10:41:32.894Z</time>
      </trkpt>
      <trkpt lat="43.99964" lon="2.56238">
        <ele>263</ele>
        <time>2021-10-31T10:41:33.894Z</time>
      </trkpt>
      <trkpt lat="43.99964" lon="2.56238">
        <ele>263</ele>
        <time>2021-10-31T10:41:34.894Z</time>
      </trkpt>
      <trkpt lat="43.99965" lon="2.56238">
        <ele>263</ele>
        <time>2021-10-31T10:41:35.894Z</time>
      </trkpt>
      <trkpt lat="43.99966" lon="2.56239">
        <ele>263</ele>
        <time>2021-10-31T10:41:36.894Z</time>
      </trkpt>
      <trkpt lat="43.99966" lon="2.5624">
        <ele>263</ele>
        <time>2021-10-31T10:41:37.894Z</time>
      </trkpt>
      <trkpt lat="43.99966" lon="2.5624">
        <ele>263</ele>
        <time>2021-10-31T10:41:38.894Z</time>
      </trkpt>
      <trkpt lat="43.99966" lon="2.5624">
        <ele>263</ele>
        <time>2021-10-31T10:41:39.894Z</time>
      </trkpt>
      <trkpt lat="43.99967" lon="2.5624">
        <ele>263</ele>
        <time>2021-10-31T10:41:40.894Z</time>
      </trkpt>
      <trkpt lat="43.99968" lon="2.56239">
        <ele>263</ele>
        <time>2021-10-31T10:41:41.894Z</time>
      </trkpt>
      <trkpt lat="43.99968" lon="2.56239">
        <ele>263</ele>
        <time>2021-10-31T10:41:42.894Z</time>
      </trkpt>
      <trkpt lat="43.99969" lon="2.56238">
        <ele>263</ele>
        <time>2021-10-31T10:41:43.894Z</time>
      </trkpt>
      <trkpt lat="43.99969" lon="2.56238">
        <ele>263</ele>
        <time>2021-10-31T10:41:44.894Z</time>
      </trkpt>
      <trkpt lat="43.9997" lon="2.56238">
        <ele>263</ele>
        <time>2021-10-31T10:41:45.894Z</time>
      </trkpt>
      <trkpt lat="43.9997" lon="2.56238">
        <ele>263</ele>
        <time>2021-10-31T10:41:46.894Z</time>
      </trkpt>
      <trkpt lat="43.99975" lon="2.5624">
        <ele>268</ele>
        <time>2021-10-31T10:41:47.894Z</time>
      </trkpt>
      <trkpt lat="43.99975" lon="2.5624">
        <ele>268</ele>
        <time>2021-10-31T10:41:48.894Z</time>
      </trkpt>
      <trkpt lat="43.99975" lon="2.5624">
        <ele>268</ele>
        <time>2021-10-31T10:41:49.894Z</time>
      </trkpt>
      <trkpt lat="43.99976" lon="2.56238">
        <ele>266</ele>
        <time>2021-10-31T10:41:50.894Z</time>
      </trkpt>
      <trkpt lat="43.99976" lon="2.56238">
        <ele>266</ele>
        <time>2021-10-31T10:41:51.894Z</time>
      </trkpt>
      <trkpt lat="43.99976" lon="2.56238">
        <ele>266</ele>
        <time>2021-10-31T10:41:52.894Z</time>
      </trkpt>
      <trkpt lat="43.99976" lon="2.56238">
        <ele>266</ele>
        <time>2021-10-31T10:41:53.894Z</time>
      </trkpt>
      <trkpt lat="43.99976" lon="2.56238">
        <ele>266</ele>
        <time>2021-10-31T10:41:54.894Z</time>
      </trkpt>
      <trkpt lat="43.99972" lon="2.56239">
        <ele>266</ele>
        <time>2021-10-31T10:41:55.894Z</time>
      </trkpt>
      <trkpt lat="43.99972" lon="2.5624">
        <ele>266</ele>
        <time>2021-10-31T10:41:56.894Z</time>
      </trkpt>
      <trkpt lat="43.99971" lon="2.5624">
        <ele>266</ele>
        <time>2021-10-31T10:41:57.894Z</time>
      </trkpt>
      <trkpt lat="43.99971" lon="2.5624">
        <ele>266</ele>
        <time>2021-10-31T10:41:58.894Z</time>
      </trkpt>
      <trkpt lat="43.99971" lon="2.5624">
        <ele>266</ele>
        <time>2021-10-31T10:41:59.894Z</time>
      </trkpt>
      <trkpt lat="43.99971" lon="2.5624">
        <ele>266</ele>
        <time>2021-10-31T10:42:00.894Z</time>
      </trkpt>
      <trkpt lat="43.99972" lon="2.56239">
        <ele>265</ele>
        <time>2021-10-31T10:42:01.894Z</time>
      </trkpt>
      <trkpt lat="43.99972" lon="2.56239">
        <ele>265</ele>
        <time>2021-10-31T10:42:02.894Z</time>
      </trkpt>
      <trkpt lat="43.99973" lon="2.56238">
        <ele>265</ele>
        <time>2021-10-31T10:42:03.894Z</time>
      </trkpt>
      <trkpt lat="43.99973" lon="2.56238">
        <ele>265</ele>
        <time>2021-10-31T10:42:04.894Z</time>
      </trkpt>
      <trkpt lat="43.99974" lon="2.56238">
        <ele>265</ele>
        <time>2021-10-31T10:42:05.894Z</time>
      </trkpt>
      <trkpt lat="43.99974" lon="2.56238">
        <ele>265</ele>
        <time>2021-10-31T10:42:06.894Z</time>
      </trkpt>
      <trkpt lat="43.99974" lon="2.56238">
        <ele>265</ele>
        <time>2021-10-31T10:42:07.894Z</time>
      </trkpt>
      <trkpt lat="43.99974" lon="2.56238">
        <ele>265</ele>
        <time>2021-10-31T10:42:08.894Z</time>
      </trkpt>
      <trkpt lat="43.99974" lon="2.56238">
        <ele>265</ele>
        <time>2021-10-31T10:42:09.894Z</time>
      </trkpt>
      <trkpt lat="43.99974" lon="2.56238">
        <ele>265</ele>
        <time>2021-10-31T10:42:10.894Z</time>
      </trkpt>
      <trkpt lat="43.99974" lon="2.56238">
        <ele>264</ele>
        <time>2021-10-31T10:42:11.894Z</time>
      </trkpt>
      <trkpt lat="43.99974" lon="2.56238">
        <ele>264</ele>
        <time>2021-10-31T10:42:12.894Z</time>
      </trkpt>
      <trkpt lat="43.99974" lon="2.56238">
        <ele>264</ele>
        <time>2021-10-31T10:42:13.894Z</time>
      </trkpt>
      <trkpt lat="43.99974" lon="2.56238">
        <ele>264</ele>
        <time>2021-10-31T10:42:14.894Z</time>
      </trkpt>
      <trkpt lat="43.99974" lon="2.56238">
        <ele>264</ele>
        <time>2021-10-31T10:42:15.894Z</time>
      </trkpt>
      <trkpt lat="43.99974" lon="2.56238">
        <ele>264</ele>
        <time>2021-10-31T10:42:16.894Z</time>
      </trkpt>
      <trkpt lat="43.99974" lon="2.56237">
        <ele>264</ele>
        <time>2021-10-31T10:42:17.894Z</time>
      </trkpt>
      <trkpt lat="43.99975" lon="2.56237">
        <ele>264</ele>
        <time>2021-10-31T10:42:18.894Z</time>
      </trkpt>
      <trkpt lat="43.99975" lon="2.56237">
        <ele>264</ele>
        <time>2021-10-31T10:42:19.894Z</time>
      </trkpt>
      <trkpt lat="43.99975" lon="2.56237">
        <ele>264</ele>
        <time>2021-10-31T10:42:20.894Z</time>
      </trkpt>
      <trkpt lat="43.99974" lon="2.56238">
        <ele>263</ele>
        <time>2021-10-31T10:42:21.894Z</time>
      </trkpt>
      <trkpt lat="43.99975" lon="2.56238">
        <ele>263</ele>
        <time>2021-10-31T10:42:22.894Z</time>
      </trkpt>
      <trkpt lat="43.99975" lon="2.56238">
        <ele>263</ele>
        <time>2021-10-31T10:42:23.894Z</time>
      </trkpt>
      <trkpt lat="43.99975" lon="2.56238">
        <ele>263</ele>
        <time>2021-10-31T10:42:24.894Z</time>
      </trkpt>
      <trkpt lat="43.99975" lon="2.56238">
        <ele>263</ele>
        <time>2021-10-31T10:42:25.894Z</time>
      </trkpt>
      <trkpt lat="43.99975" lon="2.5624">
        <ele>263</ele>
        <time>2021-10-31T10:42:26.894Z</time>
      </trkpt>
      <trkpt lat="43.99975" lon="2.56241">
        <ele>263</ele>
        <time>2021-10-31T10:42:27.894Z</time>
      </trkpt>
      <trkpt lat="43.99975" lon="2.56241">
        <ele>263</ele>
        <time>2021-10-31T10:42:28.894Z</time>
      </trkpt>
      <trkpt lat="43.99975" lon="2.56242">
        <ele>263</ele>
        <time>2021-10-31T10:42:29.894Z</time>
      </trkpt>
      <trkpt lat="43.99975" lon="2.56242">
        <ele>263</ele>
        <time>2021-10-31T10:42:30.894Z</time>
      </trkpt>
      <trkpt lat="43.99974" lon="2.56241">
        <ele>263</ele>
        <time>2021-10-31T10:42:31.894Z</time>
      </trkpt>
      <trkpt lat="43.99974" lon="2.5624">
        <ele>263</ele>
        <time>2021-10-31T10:42:32.894Z</time>
      </trkpt>
      <trkpt lat="43.99974" lon="2.56239">
        <ele>263</ele>
        <time>2021-10-31T10:42:33.894Z</time>
      </trkpt>
      <trkpt lat="43.99974" lon="2.56239">
        <ele>263</ele>
        <time>2021-10-31T10:42:34.894Z</time>
      </trkpt>
      <trkpt lat="43.99974" lon="2.56239">
        <ele>263</ele>
        <time>2021-10-31T10:42:35.894Z</time>
      </trkpt>
      <trkpt lat="43.99974" lon="2.56239">
        <ele>263</ele>
        <time>2021-10-31T10:42:36.894Z</time>
      </trkpt>
      <trkpt lat="43.99974" lon="2.5624">
        <ele>262</ele>
        <time>2021-10-31T10:42:37.894Z</time>
      </trkpt>
      <trkpt lat="43.99974" lon="2.5624">
        <ele>262</ele>
        <time>2021-10-31T10:42:38.894Z</time>
      </trkpt>
      <trkpt lat="43.99974" lon="2.5624">
        <ele>262</ele>
        <time>2021-10-31T10:42:39.894Z</time>
      </trkpt>
      <trkpt lat="43.99974" lon="2.5624">
        <ele>262</ele>
        <time>2021-10-31T10:42:40.894Z</time>
      </trkpt>
      <trkpt lat="43.99974" lon="2.5624">
        <ele>262</ele>
        <time>2021-10-31T10:42:41.894Z</time>
      </trkpt>
      <trkpt lat="43.99974" lon="2.56239">
        <ele>262</ele>
        <time>2021-10-31T10:42:42.894Z</time>
      </trkpt>
      <trkpt lat="43.99974" lon="2.56239">
        <ele>262</ele>
        <time>2021-10-31T10:42:43.894Z</time>
      </trkpt>
      <trkpt lat="43.99974" lon="2.56239">
        <ele>262</ele>
        <time>2021-10-31T10:42:44.894Z</time>
      </trkpt>
      <trkpt lat="43.99975" lon="2.56239">
        <ele>262</ele>
        <time>2021-10-31T10:42:45.894Z</time>
      </trkpt>
      <trkpt lat="43.99975" lon="2.56239">
        <ele>262</ele>
        <time>2021-10-31T10:42:46.894Z</time>
      </trkpt>
      <trkpt lat="43.99977" lon="2.56242">
        <ele>263</ele>
        <time>2021-10-31T10:42:47.894Z</time>
      </trkpt>
      <trkpt lat="43.99977" lon="2.56242">
        <ele>263</ele>
        <time>2021-10-31T10:42:48.894Z</time>
      </trkpt>
      <trkpt lat="43.99977" lon="2.56242">
        <ele>263</ele>
        <time>2021-10-31T10:42:49.894Z</time>
      </trkpt>
      <trkpt lat="43.99977" lon="2.56242">
        <ele>263</ele>
        <time>2021-10-31T10:42:50.894Z</time>
      </trkpt>
      <trkpt lat="43.99974" lon="2.56241">
        <ele>264</ele>
        <time>2021-10-31T10:42:51.894Z</time>
      </trkpt>
      <trkpt lat="43.99974" lon="2.56241">
        <ele>264</ele>
        <time>2021-10-31T10:42:52.894Z</time>
      </trkpt>
      <trkpt lat="43.99974" lon="2.56241">
        <ele>264</ele>
        <time>2021-10-31T10:42:53.894Z</time>
      </trkpt>
      <trkpt lat="43.99972" lon="2.56239">
        <ele>264</ele>
        <time>2021-10-31T10:42:54.894Z</time>
      </trkpt>
      <trkpt lat="43.99972" lon="2.56239">
        <ele>264</ele>
        <time>2021-10-31T10:42:55.894Z</time>
      </trkpt>
      <trkpt lat="43.99972" lon="2.56239">
        <ele>264</ele>
        <time>2021-10-31T10:42:56.894Z</time>
      </trkpt>
      <trkpt lat="43.99972" lon="2.56239">
        <ele>264</ele>
        <time>2021-10-31T10:42:57.894Z</time>
      </trkpt>
      <trkpt lat="43.99974" lon="2.56239">
        <ele>264</ele>
        <time>2021-10-31T10:42:58.894Z</time>
      </trkpt>
      <trkpt lat="43.99974" lon="2.5624">
        <ele>264</ele>
        <time>2021-10-31T10:42:59.894Z</time>
      </trkpt>
      <trkpt lat="43.99974" lon="2.5624">
        <ele>264</ele>
        <time>2021-10-31T10:43:00.894Z</time>
      </trkpt>
      <trkpt lat="43.99974" lon="2.5624">
        <ele>265</ele>
        <time>2021-10-31T10:43:01.894Z</time>
      </trkpt>
      <trkpt lat="43.99973" lon="2.5624">
        <ele>264</ele>
        <time>2021-10-31T10:43:02.894Z</time>
      </trkpt>
      <trkpt lat="43.99973" lon="2.5624">
        <ele>264</ele>
        <time>2021-10-31T10:43:03.894Z</time>
      </trkpt>
      <trkpt lat="43.99972" lon="2.5624">
        <ele>264</ele>
        <time>2021-10-31T10:43:04.894Z</time>
      </trkpt>
      <trkpt lat="43.99972" lon="2.5624">
        <ele>264</ele>
        <time>2021-10-31T10:43:05.894Z</time>
      </trkpt>
      <trkpt lat="43.99972" lon="2.5624">
        <ele>264</ele>
        <time>2021-10-31T10:43:06.894Z</time>
      </trkpt>
      <trkpt lat="43.99971" lon="2.5624">
        <ele>264</ele>
        <time>2021-10-31T10:43:07.894Z</time>
      </trkpt>
      <trkpt lat="43.99971" lon="2.5624">
        <ele>264</ele>
        <time>2021-10-31T10:43:08.894Z</time>
      </trkpt>
      <trkpt lat="43.99971" lon="2.5624">
        <ele>264</ele>
        <time>2021-10-31T10:43:09.894Z</time>
      </trkpt>
      <trkpt lat="43.9997" lon="2.5624">
        <ele>264</ele>
        <time>2021-10-31T10:43:10.894Z</time>
      </trkpt>
      <trkpt lat="43.9997" lon="2.5624">
        <ele>264</ele>
        <time>2021-10-31T10:43:11.894Z</time>
      </trkpt>
      <trkpt lat="43.99969" lon="2.56239">
        <ele>264</ele>
        <time>2021-10-31T10:43:12.894Z</time>
      </trkpt>
      <trkpt lat="43.99969" lon="2.56238">
        <ele>264</ele>
        <time>2021-10-31T10:43:13.894Z</time>
      </trkpt>
      <trkpt lat="43.99969" lon="2.56238">
        <ele>264</ele>
        <time>2021-10-31T10:43:14.894Z</time>
      </trkpt>
      <trkpt lat="43.99968" lon="2.56238">
        <ele>264</ele>
        <time>2021-10-31T10:43:15.894Z</time>
      </trkpt>
      <trkpt lat="43.99968" lon="2.56237">
        <ele>264</ele>
        <time>2021-10-31T10:43:16.894Z</time>
      </trkpt>
      <trkpt lat="43.99968" lon="2.56237">
        <ele>264</ele>
        <time>2021-10-31T10:43:17.894Z</time>
      </trkpt>
      <trkpt lat="43.99968" lon="2.56237">
        <ele>264</ele>
        <time>2021-10-31T10:43:18.894Z</time>
      </trkpt>
      <trkpt lat="43.99967" lon="2.56236">
        <ele>264</ele>
        <time>2021-10-31T10:43:19.894Z</time>
      </trkpt>
      <trkpt lat="43.99967" lon="2.56236">
        <ele>264</ele>
        <time>2021-10-31T10:43:20.894Z</time>
      </trkpt>
      <trkpt lat="43.99966" lon="2.56236">
        <ele>263</ele>
        <time>2021-10-31T10:43:21.894Z</time>
      </trkpt>
      <trkpt lat="43.99965" lon="2.56237">
        <ele>263</ele>
        <time>2021-10-31T10:43:22.894Z</time>
      </trkpt>
      <trkpt lat="43.99965" lon="2.56237">
        <ele>263</ele>
        <time>2021-10-31T10:43:23.894Z</time>
      </trkpt>
      <trkpt lat="43.99965" lon="2.56237">
        <ele>263</ele>
        <time>2021-10-31T10:43:24.894Z</time>
      </trkpt>
      <trkpt lat="43.99965" lon="2.56237">
        <ele>263</ele>
        <time>2021-10-31T10:43:25.894Z</time>
      </trkpt>
      <trkpt lat="43.99964" lon="2.56238">
        <ele>263</ele>
        <time>2021-10-31T10:43:26.894Z</time>
      </trkpt>
      <trkpt lat="43.99964" lon="2.56238">
        <ele>263</ele>
        <time>2021-10-31T10:43:27.894Z</time>
      </trkpt>
      <trkpt lat="43.99964" lon="2.56238">
        <ele>263</ele>
        <time>2021-10-31T10:43:28.894Z</time>
      </trkpt>
      <trkpt lat="43.99964" lon="2.56238">
        <ele>263</ele>
        <time>2021-10-31T10:43:29.894Z</time>
      </trkpt>
      <trkpt lat="43.99964" lon="2.56238">
        <ele>263</ele>
        <time>2021-10-31T10:43:30.894Z</time>
      </trkpt>
      <trkpt lat="43.99963" lon="2.56237">
        <ele>263</ele>
        <time>2021-10-31T10:43:31.894Z</time>
      </trkpt>
      <trkpt lat="43.99963" lon="2.56237">
        <ele>263</ele>
        <time>2021-10-31T10:43:32.894Z</time>
      </trkpt>
      <trkpt lat="43.99962" lon="2.56237">
        <ele>263</ele>
        <time>2021-10-31T10:43:33.894Z</time>
      </trkpt>
      <trkpt lat="43.99962" lon="2.56237">
        <ele>263</ele>
        <time>2021-10-31T10:43:34.894Z</time>
      </trkpt>
      <trkpt lat="43.99962" lon="2.56237">
        <ele>263</ele>
        <time>2021-10-31T10:43:35.894Z</time>
      </trkpt>
      <trkpt lat="43.99963" lon="2.56238">
        <ele>263</ele>
        <time>2021-10-31T10:43:36.894Z</time>
      </trkpt>
      <trkpt lat="43.99963" lon="2.56238">
        <ele>263</ele>
        <time>2021-10-31T10:43:37.894Z</time>
      </trkpt>
      <trkpt lat="43.99963" lon="2.56238">
        <ele>263</ele>
        <time>2021-10-31T10:43:38.894Z</time>
      </trkpt>
      <trkpt lat="43.99963" lon="2.56238">
        <ele>263</ele>
        <time>2021-10-31T10:43:39.894Z</time>
      </trkpt>
      <trkpt lat="43.99963" lon="2.56238">
        <ele>263</ele>
        <time>2021-10-31T10:43:40.894Z</time>
      </trkpt>
      <trkpt lat="43.99964" lon="2.5624">
        <ele>263</ele>
        <time>2021-10-31T10:43:41.894Z</time>
      </trkpt>
      <trkpt lat="43.99964" lon="2.56241">
        <ele>263</ele>
        <time>2021-10-31T10:43:42.894Z</time>
      </trkpt>
      <trkpt lat="43.99964" lon="2.56241">
        <ele>263</ele>
        <time>2021-10-31T10:43:43.894Z</time>
      </trkpt>
      <trkpt lat="43.99964" lon="2.56242">
        <ele>263</ele>
        <time>2021-10-31T10:43:44.894Z</time>
      </trkpt>
      <trkpt lat="43.99964" lon="2.56242">
        <ele>263</ele>
        <time>2021-10-31T10:43:45.894Z</time>
      </trkpt>
      <trkpt lat="43.99964" lon="2.56245">
        <ele>262</ele>
        <time>2021-10-31T10:43:46.894Z</time>
      </trkpt>
      <trkpt lat="43.99964" lon="2.56245">
        <ele>262</ele>
        <time>2021-10-31T10:43:47.894Z</time>
      </trkpt>
      <trkpt lat="43.99964" lon="2.56246">
        <ele>262</ele>
        <time>2021-10-31T10:43:48.894Z</time>
      </trkpt>
      <trkpt lat="43.99964" lon="2.56246">
        <ele>262</ele>
        <time>2021-10-31T10:43:49.894Z</time>
      </trkpt>
      <trkpt lat="43.99964" lon="2.56248">
        <ele>261</ele>
        <time>2021-10-31T10:43:50.894Z</time>
      </trkpt>
      <trkpt lat="43.99963" lon="2.56247">
        <ele>261</ele>
        <time>2021-10-31T10:43:51.894Z</time>
      </trkpt>
      <trkpt lat="43.99963" lon="2.56247">
        <ele>261</ele>
        <time>2021-10-31T10:43:52.894Z</time>
      </trkpt>
      <trkpt lat="43.99962" lon="2.56246">
        <ele>260</ele>
        <time>2021-10-31T10:43:53.894Z</time>
      </trkpt>
      <trkpt lat="43.99962" lon="2.56246">
        <ele>260</ele>
        <time>2021-10-31T10:43:54.894Z</time>
      </trkpt>
      <trkpt lat="43.99962" lon="2.56246">
        <ele>260</ele>
        <time>2021-10-31T10:43:55.894Z</time>
      </trkpt>
      <trkpt lat="43.99962" lon="2.56246">
        <ele>260</ele>
        <time>2021-10-31T10:43:56.894Z</time>
      </trkpt>
      <trkpt lat="43.99962" lon="2.56246">
        <ele>260</ele>
        <time>2021-10-31T10:43:57.894Z</time>
      </trkpt>
      <trkpt lat="43.99961" lon="2.56245">
        <ele>260</ele>
        <time>2021-10-31T10:43:58.894Z</time>
      </trkpt>
      <trkpt lat="43.9996" lon="2.56245">
        <ele>260</ele>
        <time>2021-10-31T10:43:59.894Z</time>
      </trkpt>
      <trkpt lat="43.99959" lon="2.56244">
        <ele>260</ele>
        <time>2021-10-31T10:44:00.894Z</time>
      </trkpt>
      <trkpt lat="43.99958" lon="2.56244">
        <ele>260</ele>
        <time>2021-10-31T10:44:01.894Z</time>
      </trkpt>
      <trkpt lat="43.99957" lon="2.56244">
        <ele>260</ele>
        <time>2021-10-31T10:44:02.894Z</time>
      </trkpt>
      <trkpt lat="43.99957" lon="2.56244">
        <ele>260</ele>
        <time>2021-10-31T10:44:03.894Z</time>
      </trkpt>
      <trkpt lat="43.99956" lon="2.56244">
        <ele>260</ele>
        <time>2021-10-31T10:44:04.894Z</time>
      </trkpt>
      <trkpt lat="43.99956" lon="2.56244">
        <ele>260</ele>
        <time>2021-10-31T10:44:05.894Z</time>
      </trkpt>
      <trkpt lat="43.99956" lon="2.56245">
        <ele>259</ele>
        <time>2021-10-31T10:44:06.894Z</time>
      </trkpt>
      <trkpt lat="43.99956" lon="2.56245">
        <ele>259</ele>
        <time>2021-10-31T10:44:07.894Z</time>
      </trkpt>
      <trkpt lat="43.99956" lon="2.56246">
        <ele>259</ele>
        <time>2021-10-31T10:44:08.894Z</time>
      </trkpt>
      <trkpt lat="43.99956" lon="2.56247">
        <ele>259</ele>
        <time>2021-10-31T10:44:09.894Z</time>
      </trkpt>
      <trkpt lat="43.99957" lon="2.56247">
        <ele>259</ele>
        <time>2021-10-31T10:44:10.894Z</time>
      </trkpt>
      <trkpt lat="43.99957" lon="2.56248">
        <ele>259</ele>
        <time>2021-10-31T10:44:11.894Z</time>
      </trkpt>
      <trkpt lat="43.99958" lon="2.56248">
        <ele>259</ele>
        <time>2021-10-31T10:44:12.894Z</time>
      </trkpt>
      <trkpt lat="43.99959" lon="2.56249">
        <ele>259</ele>
        <time>2021-10-31T10:44:13.894Z</time>
      </trkpt>
      <trkpt lat="43.99959" lon="2.56249">
        <ele>259</ele>
        <time>2021-10-31T10:44:14.894Z</time>
      </trkpt>
      <trkpt lat="43.99959" lon="2.5625">
        <ele>259</ele>
        <time>2021-10-31T10:44:15.894Z</time>
      </trkpt>
      <trkpt lat="43.99959" lon="2.5625">
        <ele>259</ele>
        <time>2021-10-31T10:44:16.894Z</time>
      </trkpt>
      <trkpt lat="43.99958" lon="2.5625">
        <ele>259</ele>
        <time>2021-10-31T10:44:17.894Z</time>
      </trkpt>
      <trkpt lat="43.99957" lon="2.5625">
        <ele>259</ele>
        <time>2021-10-31T10:44:18.894Z</time>
      </trkpt>
      <trkpt lat="43.99956" lon="2.5625">
        <ele>259</ele>
        <time>2021-10-31T10:44:19.894Z</time>
      </trkpt>
      <trkpt lat="43.99956" lon="2.5625">
        <ele>259</ele>
        <time>2021-10-31T10:44:20.894Z</time>
      </trkpt>
      <trkpt lat="43.99955" lon="2.5625">
        <ele>259</ele>
        <time>2021-10-31T10:44:21.894Z</time>
      </trkpt>
      <trkpt lat="43.99955" lon="2.56249">
        <ele>259</ele>
        <time>2021-10-31T10:44:22.894Z</time>
      </trkpt>
      <trkpt lat="43.99955" lon="2.56249">
        <ele>259</ele>
        <time>2021-10-31T10:44:23.894Z</time>
      </trkpt>
      <trkpt lat="43.99954" lon="2.56249">
        <ele>258</ele>
        <time>2021-10-31T10:44:24.894Z</time>
      </trkpt>
      <trkpt lat="43.99953" lon="2.56248">
        <ele>258</ele>
        <time>2021-10-31T10:44:25.894Z</time>
      </trkpt>
      <trkpt lat="43.99953" lon="2.56248">
        <ele>258</ele>
        <time>2021-10-31T10:44:26.894Z</time>
      </trkpt>
      <trkpt lat="43.99952" lon="2.56248">
        <ele>258</ele>
        <time>2021-10-31T10:44:27.894Z</time>
      </trkpt>
      <trkpt lat="43.99952" lon="2.56248">
        <ele>258</ele>
        <time>2021-10-31T10:44:28.894Z</time>
      </trkpt>
      <trkpt lat="43.99951" lon="2.56249">
        <ele>258</ele>
        <time>2021-10-31T10:44:29.894Z</time>
      </trkpt>
      <trkpt lat="43.9995" lon="2.56249">
        <ele>258</ele>
        <time>2021-10-31T10:44:30.894Z</time>
      </trkpt>
      <trkpt lat="43.9995" lon="2.56249">
        <ele>257</ele>
        <time>2021-10-31T10:44:31.894Z</time>
      </trkpt>
      <trkpt lat="43.99949" lon="2.56249">
        <ele>257</ele>
        <time>2021-10-31T10:44:32.894Z</time>
      </trkpt>
      <trkpt lat="43.99948" lon="2.56248">
        <ele>257</ele>
        <time>2021-10-31T10:44:33.894Z</time>
      </trkpt>
      <trkpt lat="43.99948" lon="2.56248">
        <ele>257</ele>
        <time>2021-10-31T10:44:34.894Z</time>
      </trkpt>
      <trkpt lat="43.99947" lon="2.56248">
        <ele>257</ele>
        <time>2021-10-31T10:44:35.894Z</time>
      </trkpt>
      <trkpt lat="43.99946" lon="2.56247">
        <ele>256</ele>
        <time>2021-10-31T10:44:36.894Z</time>
      </trkpt>
      <trkpt lat="43.99946" lon="2.56247">
        <ele>256</ele>
        <time>2021-10-31T10:44:37.894Z</time>
      </trkpt>
      <trkpt lat="43.99946" lon="2.56246">
        <ele>256</ele>
        <time>2021-10-31T10:44:38.894Z</time>
      </trkpt>
      <trkpt lat="43.99946" lon="2.56246">
        <ele>256</ele>
        <time>2021-10-31T10:44:39.894Z</time>
      </trkpt>
      <trkpt lat="43.99945" lon="2.56246">
        <ele>256</ele>
        <time>2021-10-31T10:44:40.894Z</time>
      </trkpt>
      <trkpt lat="43.99945" lon="2.56245">
        <ele>256</ele>
        <time>2021-10-31T10:44:41.894Z</time>
      </trkpt>
      <trkpt lat="43.99945" lon="2.56245">
        <ele>255</ele>
        <time>2021-10-31T10:44:42.894Z</time>
      </trkpt>
      <trkpt lat="43.99944" lon="2.56245">
        <ele>255</ele>
        <time>2021-10-31T10:44:43.894Z</time>
      </trkpt>
      <trkpt lat="43.99944" lon="2.56245">
        <ele>255</ele>
        <time>2021-10-31T10:44:44.894Z</time>
      </trkpt>
      <trkpt lat="43.99943" lon="2.56245">
        <ele>255</ele>
        <time>2021-10-31T10:44:45.894Z</time>
      </trkpt>
      <trkpt lat="43.99943" lon="2.56245">
        <ele>255</ele>
        <time>2021-10-31T10:44:46.894Z</time>
      </trkpt>
      <trkpt lat="43.99942" lon="2.56245">
        <ele>255</ele>
        <time>2021-10-31T10:44:47.894Z</time>
      </trkpt>
      <trkpt lat="43.99942" lon="2.56244">
        <ele>255</ele>
        <time>2021-10-31T10:44:48.894Z</time>
      </trkpt>
      <trkpt lat="43.99942" lon="2.56244">
        <ele>254</ele>
        <time>2021-10-31T10:44:49.894Z</time>
      </trkpt>
      <trkpt lat="43.99942" lon="2.56244">
        <ele>254</ele>
        <time>2021-10-31T10:44:50.894Z</time>
      </trkpt>
      <trkpt lat="43.99942" lon="2.56244">
        <ele>254</ele>
        <time>2021-10-31T10:44:51.894Z</time>
      </trkpt>
      <trkpt lat="43.99939" lon="2.56244">
        <ele>254</ele>
        <time>2021-10-31T10:44:52.894Z</time>
      </trkpt>
      <trkpt lat="43.99939" lon="2.56244">
        <ele>254</ele>
        <time>2021-10-31T10:44:53.894Z</time>
      </trkpt>
      <trkpt lat="43.99938" lon="2.56245">
        <ele>254</ele>
        <time>2021-10-31T10:44:54.894Z</time>
      </trkpt>
      <trkpt lat="43.99938" lon="2.56245">
        <ele>254</ele>
        <time>2021-10-31T10:44:55.894Z</time>
      </trkpt>
      <trkpt lat="43.99938" lon="2.56245">
        <ele>254</ele>
        <time>2021-10-31T10:44:56.894Z</time>
      </trkpt>
      <trkpt lat="43.99936" lon="2.56244">
        <ele>253</ele>
        <time>2021-10-31T10:44:57.894Z</time>
      </trkpt>
      <trkpt lat="43.99936" lon="2.56244">
        <ele>253</ele>
        <time>2021-10-31T10:44:58.894Z</time>
      </trkpt>
      <trkpt lat="43.99931" lon="2.56243">
        <ele>253</ele>
        <time>2021-10-31T10:44:59.894Z</time>
      </trkpt>
      <trkpt lat="43.99931" lon="2.56243">
        <ele>253</ele>
        <time>2021-10-31T10:45:00.894Z</time>
      </trkpt>
      <trkpt lat="43.99929" lon="2.56243">
        <ele>252</ele>
        <time>2021-10-31T10:45:01.894Z</time>
      </trkpt>
      <trkpt lat="43.99928" lon="2.56242">
        <ele>252</ele>
        <time>2021-10-31T10:45:02.894Z</time>
      </trkpt>
      <trkpt lat="43.99928" lon="2.56242">
        <ele>252</ele>
        <time>2021-10-31T10:45:03.894Z</time>
      </trkpt>
      <trkpt lat="43.99928" lon="2.56241">
        <ele>252</ele>
        <time>2021-10-31T10:45:04.894Z</time>
      </trkpt>
      <trkpt lat="43.99927" lon="2.5624">
        <ele>252</ele>
        <time>2021-10-31T10:45:05.894Z</time>
      </trkpt>
      <trkpt lat="43.99927" lon="2.56239">
        <ele>252</ele>
        <time>2021-10-31T10:45:06.894Z</time>
      </trkpt>
      <trkpt lat="43.99926" lon="2.56238">
        <ele>252</ele>
        <time>2021-10-31T10:45:07.894Z</time>
      </trkpt>
      <trkpt lat="43.99926" lon="2.56237">
        <ele>252</ele>
        <time>2021-10-31T10:45:08.894Z</time>
      </trkpt>
      <trkpt lat="43.99925" lon="2.56235">
        <ele>252</ele>
        <time>2021-10-31T10:45:09.894Z</time>
      </trkpt>
      <trkpt lat="43.99926" lon="2.56234">
        <ele>252</ele>
        <time>2021-10-31T10:45:10.894Z</time>
      </trkpt>
      <trkpt lat="43.99926" lon="2.56234">
        <ele>251</ele>
        <time>2021-10-31T10:45:11.894Z</time>
      </trkpt>
      <trkpt lat="43.99926" lon="2.56234">
        <ele>251</ele>
        <time>2021-10-31T10:45:12.894Z</time>
      </trkpt>
      <trkpt lat="43.99926" lon="2.56234">
        <ele>251</ele>
        <time>2021-10-31T10:45:13.894Z</time>
      </trkpt>
      <trkpt lat="43.99926" lon="2.56233">
        <ele>251</ele>
        <time>2021-10-31T10:45:14.894Z</time>
      </trkpt>
      <trkpt lat="43.99926" lon="2.56229">
        <ele>250</ele>
        <time>2021-10-31T10:45:15.894Z</time>
      </trkpt>
      <trkpt lat="43.99926" lon="2.56228">
        <ele>250</ele>
        <time>2021-10-31T10:45:16.894Z</time>
      </trkpt>
      <trkpt lat="43.99926" lon="2.56227">
        <ele>250</ele>
        <time>2021-10-31T10:45:17.894Z</time>
      </trkpt>
      <trkpt lat="43.99927" lon="2.56226">
        <ele>250</ele>
        <time>2021-10-31T10:45:18.894Z</time>
      </trkpt>
      <trkpt lat="43.99927" lon="2.56225">
        <ele>250</ele>
        <time>2021-10-31T10:45:31.908Z</time>
      </trkpt>
      <trkpt lat="43.99927" lon="2.56224">
        <ele>250</ele>
        <time>2021-10-31T10:45:32.908Z</time>
      </trkpt>
      <trkpt lat="43.99928" lon="2.56223">
        <ele>249</ele>
        <time>2021-10-31T10:45:33.908Z</time>
      </trkpt>
      <trkpt lat="43.99928" lon="2.56223">
        <ele>249</ele>
        <time>2021-10-31T10:45:34.908Z</time>
      </trkpt>
      <trkpt lat="43.99928" lon="2.56222">
        <ele>249</ele>
        <time>2021-10-31T10:45:35.908Z</time>
      </trkpt>
      <trkpt lat="43.99928" lon="2.56222">
        <ele>249</ele>
        <time>2021-10-31T10:45:36.908Z</time>
      </trkpt>
      <trkpt lat="43.9993" lon="2.56215">
        <ele>246</ele>
        <time>2021-10-31T10:45:37.908Z</time>
      </trkpt>
      <trkpt lat="43.9993" lon="2.56214">
        <ele>246</ele>
        <time>2021-10-31T10:45:38.908Z</time>
      </trkpt>
      <trkpt lat="43.99931" lon="2.56213">
        <ele>246</ele>
        <time>2021-10-31T10:45:39.908Z</time>
      </trkpt>
      <trkpt lat="43.99931" lon="2.56212">
        <ele>246</ele>
        <time>2021-10-31T10:45:40.908Z</time>
      </trkpt>
      <trkpt lat="43.99931" lon="2.56212">
        <ele>246</ele>
        <time>2021-10-31T10:45:41.908Z</time>
      </trkpt>
      <trkpt lat="43.99932" lon="2.56211">
        <ele>246</ele>
        <time>2021-10-31T10:45:42.908Z</time>
      </trkpt>
      <trkpt lat="43.99932" lon="2.5621">
        <ele>246</ele>
        <time>2021-10-31T10:45:43.908Z</time>
      </trkpt>
      <trkpt lat="43.99932" lon="2.5621">
        <ele>246</ele>
        <time>2021-10-31T10:45:44.908Z</time>
      </trkpt>
      <trkpt lat="43.99932" lon="2.56209">
        <ele>246</ele>
        <time>2021-10-31T10:45:45.908Z</time>
      </trkpt>
      <trkpt lat="43.99932" lon="2.56208">
        <ele>246</ele>
        <time>2021-10-31T10:45:46.908Z</time>
      </trkpt>
      <trkpt lat="43.99932" lon="2.56208">
        <ele>245</ele>
        <time>2021-10-31T10:45:47.908Z</time>
      </trkpt>
      <trkpt lat="43.99932" lon="2.56207">
        <ele>245</ele>
        <time>2021-10-31T10:45:48.908Z</time>
      </trkpt>
      <trkpt lat="43.99932" lon="2.56207">
        <ele>245</ele>
        <time>2021-10-31T10:45:49.908Z</time>
      </trkpt>
      <trkpt lat="43.99932" lon="2.56207">
        <ele>245</ele>
        <time>2021-10-31T10:45:50.908Z</time>
      </trkpt>
      <trkpt lat="43.99932" lon="2.56207">
        <ele>245</ele>
        <time>2021-10-31T10:45:51.908Z</time>
      </trkpt>
      <trkpt lat="43.99931" lon="2.56208">
        <ele>245</ele>
        <time>2021-10-31T10:45:52.908Z</time>
      </trkpt>
      <trkpt lat="43.99931" lon="2.56208">
        <ele>245</ele>
        <time>2021-10-31T10:45:53.908Z</time>
      </trkpt>
      <trkpt lat="43.9993" lon="2.56209">
        <ele>245</ele>
        <time>2021-10-31T10:45:54.908Z</time>
      </trkpt>
      <trkpt lat="43.9993" lon="2.56209">
        <ele>245</ele>
        <time>2021-10-31T10:45:55.908Z</time>
      </trkpt>
      <trkpt lat="43.99929" lon="2.5621">
        <ele>245</ele>
        <time>2021-10-31T10:45:56.908Z</time>
      </trkpt>
      <trkpt lat="43.99929" lon="2.56211">
        <ele>245</ele>
        <time>2021-10-31T10:45:57.908Z</time>
      </trkpt>
      <trkpt lat="43.99928" lon="2.56212">
        <ele>245</ele>
        <time>2021-10-31T10:45:58.908Z</time>
      </trkpt>
      <trkpt lat="43.99927" lon="2.56212">
        <ele>245</ele>
        <time>2021-10-31T10:45:59.908Z</time>
      </trkpt>
      <trkpt lat="43.99927" lon="2.56213">
        <ele>245</ele>
        <time>2021-10-31T10:46:00.908Z</time>
      </trkpt>
      <trkpt lat="43.99926" lon="2.56214">
        <ele>245</ele>
        <time>2021-10-31T10:46:01.908Z</time>
      </trkpt>
      <trkpt lat="43.99926" lon="2.56215">
        <ele>245</ele>
        <time>2021-10-31T10:46:02.908Z</time>
      </trkpt>
      <trkpt lat="43.99925" lon="2.56215">
        <ele>245</ele>
        <time>2021-10-31T10:46:03.908Z</time>
      </trkpt>
      <trkpt lat="43.99925" lon="2.56216">
        <ele>245</ele>
        <time>2021-10-31T10:46:04.908Z</time>
      </trkpt>
      <trkpt lat="43.99924" lon="2.56217">
        <ele>245</ele>
        <time>2021-10-31T10:46:05.908Z</time>
      </trkpt>
      <trkpt lat="43.99924" lon="2.56217">
        <ele>245</ele>
        <time>2021-10-31T10:46:06.908Z</time>
      </trkpt>
      <trkpt lat="43.99924" lon="2.56218">
        <ele>245</ele>
        <time>2021-10-31T10:46:07.908Z</time>
      </trkpt>
      <trkpt lat="43.99923" lon="2.56218">
        <ele>245</ele>
        <time>2021-10-31T10:46:08.908Z</time>
      </trkpt>
      <trkpt lat="43.99923" lon="2.56218">
        <ele>245</ele>
        <time>2021-10-31T10:46:09.908Z</time>
      </trkpt>
      <trkpt lat="43.99923" lon="2.5622">
        <ele>244</ele>
        <time>2021-10-31T10:46:10.908Z</time>
      </trkpt>
      <trkpt lat="43.99923" lon="2.5622">
        <ele>244</ele>
        <time>2021-10-31T10:46:11.908Z</time>
      </trkpt>
      <trkpt lat="43.99923" lon="2.56221">
        <ele>244</ele>
        <time>2021-10-31T10:46:12.908Z</time>
      </trkpt>
      <trkpt lat="43.99923" lon="2.56221">
        <ele>244</ele>
        <time>2021-10-31T10:46:13.908Z</time>
      </trkpt>
      <trkpt lat="43.99923" lon="2.56221">
        <ele>244</ele>
        <time>2021-10-31T10:46:14.908Z</time>
      </trkpt>
      <trkpt lat="43.99921" lon="2.56221">
        <ele>243</ele>
        <time>2021-10-31T10:46:15.908Z</time>
      </trkpt>
      <trkpt lat="43.99921" lon="2.56222">
        <ele>243</ele>
        <time>2021-10-31T10:46:16.908Z</time>
      </trkpt>
      <trkpt lat="43.99921" lon="2.56222">
        <ele>243</ele>
        <time>2021-10-31T10:46:17.908Z</time>
      </trkpt>
      <trkpt lat="43.9992" lon="2.56223">
        <ele>243</ele>
        <time>2021-10-31T10:46:18.908Z</time>
      </trkpt>
      <trkpt lat="43.9992" lon="2.56224">
        <ele>243</ele>
        <time>2021-10-31T10:46:19.908Z</time>
      </trkpt>
      <trkpt lat="43.99919" lon="2.56224">
        <ele>243</ele>
        <time>2021-10-31T10:46:20.908Z</time>
      </trkpt>
      <trkpt lat="43.99918" lon="2.56224">
        <ele>243</ele>
        <time>2021-10-31T10:46:21.908Z</time>
      </trkpt>
      <trkpt lat="43.99918" lon="2.56224">
        <ele>243</ele>
        <time>2021-10-31T10:46:22.908Z</time>
      </trkpt>
      <trkpt lat="43.99918" lon="2.56224">
        <ele>242</ele>
        <time>2021-10-31T10:46:23.908Z</time>
      </trkpt>
      <trkpt lat="43.99917" lon="2.56224">
        <ele>242</ele>
        <time>2021-10-31T10:46:24.908Z</time>
      </trkpt>
      <trkpt lat="43.99917" lon="2.56224">
        <ele>242</ele>
        <time>2021-10-31T10:46:25.908Z</time>
      </trkpt>
      <trkpt lat="43.99916" lon="2.56225">
        <ele>242</ele>
        <time>2021-10-31T10:46:26.908Z</time>
      </trkpt>
      <trkpt lat="43.99916" lon="2.56226">
        <ele>242</ele>
        <time>2021-10-31T10:46:27.908Z</time>
      </trkpt>
      <trkpt lat="43.99916" lon="2.56227">
        <ele>242</ele>
        <time>2021-10-31T10:46:28.908Z</time>
      </trkpt>
      <trkpt lat="43.99916" lon="2.56227">
        <ele>242</ele>
        <time>2021-10-31T10:46:29.908Z</time>
      </trkpt>
      <trkpt lat="43.99916" lon="2.56228">
        <ele>242</ele>
        <time>2021-10-31T10:46:30.908Z</time>
      </trkpt>
      <trkpt lat="43.99916" lon="2.56228">
        <ele>242</ele>
        <time>2021-10-31T10:46:31.908Z</time>
      </trkpt>
      <trkpt lat="43.99916" lon="2.56228">
        <ele>242</ele>
        <time>2021-10-31T10:46:32.908Z</time>
      </trkpt>
      <trkpt lat="43.99917" lon="2.5623">
        <ele>242</ele>
        <time>2021-10-31T10:46:33.908Z</time>
      </trkpt>
      <trkpt lat="43.99917" lon="2.5623">
        <ele>242</ele>
        <time>2021-10-31T10:46:34.908Z</time>
      </trkpt>
      <trkpt lat="43.99917" lon="2.56231">
        <ele>242</ele>
        <time>2021-10-31T10:46:35.908Z</time>
      </trkpt>
      <trkpt lat="43.99917" lon="2.56232">
        <ele>242</ele>
        <time>2021-10-31T10:46:36.908Z</time>
      </trkpt>
      <trkpt lat="43.99917" lon="2.56233">
        <ele>242</ele>
        <time>2021-10-31T10:46:37.908Z</time>
      </trkpt>
      <trkpt lat="43.99917" lon="2.56233">
        <ele>242</ele>
        <time>2021-10-31T10:46:38.908Z</time>
      </trkpt>
      <trkpt lat="43.99917" lon="2.56234">
        <ele>242</ele>
        <time>2021-10-31T10:46:39.908Z</time>
      </trkpt>
      <trkpt lat="43.99917" lon="2.56234">
        <ele>242</ele>
        <time>2021-10-31T10:46:40.908Z</time>
      </trkpt>
      <trkpt lat="43.99917" lon="2.56235">
        <ele>242</ele>
        <time>2021-10-31T10:46:41.908Z</time>
      </trkpt>
      <trkpt lat="43.99917" lon="2.56236">
        <ele>242</ele>
        <time>2021-10-31T10:46:42.908Z</time>
      </trkpt>
      <trkpt lat="43.99916" lon="2.56236">
        <ele>242</ele>
        <time>2021-10-31T10:46:43.908Z</time>
      </trkpt>
      <trkpt lat="43.99915" lon="2.56238">
        <ele>242</ele>
        <time>2021-10-31T10:46:44.908Z</time>
      </trkpt>
      <trkpt lat="43.99915" lon="2.56238">
        <ele>242</ele>
        <time>2021-10-31T10:46:45.908Z</time>
      </trkpt>
      <trkpt lat="43.99914" lon="2.56238">
        <ele>242</ele>
        <time>2021-10-31T10:46:46.908Z</time>
      </trkpt>
      <trkpt lat="43.99914" lon="2.56242">
        <ele>243</ele>
        <time>2021-10-31T10:46:47.908Z</time>
      </trkpt>
      <trkpt lat="43.99914" lon="2.56242">
        <ele>243</ele>
        <time>2021-10-31T10:46:48.908Z</time>
      </trkpt>
      <trkpt lat="43.99914" lon="2.56243">
        <ele>243</ele>
        <time>2021-10-31T10:46:49.908Z</time>
      </trkpt>
      <trkpt lat="43.99914" lon="2.56244">
        <ele>243</ele>
        <time>2021-10-31T10:46:50.908Z</time>
      </trkpt>
      <trkpt lat="43.99914" lon="2.56245">
        <ele>243</ele>
        <time>2021-10-31T10:46:51.908Z</time>
      </trkpt>
      <trkpt lat="43.99914" lon="2.56245">
        <ele>243</ele>
        <time>2021-10-31T10:46:52.908Z</time>
      </trkpt>
      <trkpt lat="43.99914" lon="2.56245">
        <ele>243</ele>
        <time>2021-10-31T10:46:53.908Z</time>
      </trkpt>
      <trkpt lat="43.99914" lon="2.56245">
        <ele>243</ele>
        <time>2021-10-31T10:46:54.908Z</time>
      </trkpt>
      <trkpt lat="43.99914" lon="2.56247">
        <ele>243</ele>
        <time>2021-10-31T10:46:55.908Z</time>
      </trkpt>
      <trkpt lat="43.99914" lon="2.56248">
        <ele>243</ele>
        <time>2021-10-31T10:46:56.908Z</time>
      </trkpt>
      <trkpt lat="43.99914" lon="2.56248">
        <ele>243</ele>
        <time>2021-10-31T10:46:57.908Z</time>
      </trkpt>
      <trkpt lat="43.99913" lon="2.56252">
        <ele>243</ele>
        <time>2021-10-31T10:46:58.908Z</time>
      </trkpt>
      <trkpt lat="43.99913" lon="2.56253">
        <ele>242</ele>
        <time>2021-10-31T10:46:59.908Z</time>
      </trkpt>
      <trkpt lat="43.99912" lon="2.56253">
        <ele>242</ele>
        <time>2021-10-31T10:47:00.908Z</time>
      </trkpt>
      <trkpt lat="43.99912" lon="2.56253">
        <ele>242</ele>
        <time>2021-10-31T10:47:01.908Z</time>
      </trkpt>
      <trkpt lat="43.99912" lon="2.56253">
        <ele>242</ele>
        <time>2021-10-31T10:47:02.908Z</time>
      </trkpt>
      <trkpt lat="43.99912" lon="2.56253">
        <ele>242</ele>
        <time>2021-10-31T10:47:03.908Z</time>
      </trkpt>
      <trkpt lat="43.99912" lon="2.56255">
        <ele>239</ele>
        <time>2021-10-31T10:47:04.908Z</time>
      </trkpt>
      <trkpt lat="43.99912" lon="2.56256">
        <ele>239</ele>
        <time>2021-10-31T10:47:05.908Z</time>
      </trkpt>
      <trkpt lat="43.99913" lon="2.56256">
        <ele>239</ele>
        <time>2021-10-31T10:47:06.908Z</time>
      </trkpt>
      <trkpt lat="43.99913" lon="2.56257">
        <ele>239</ele>
        <time>2021-10-31T10:47:07.908Z</time>
      </trkpt>
      <trkpt lat="43.99913" lon="2.56257">
        <ele>238</ele>
        <time>2021-10-31T10:47:08.908Z</time>
      </trkpt>
      <trkpt lat="43.99913" lon="2.56258">
        <ele>238</ele>
        <time>2021-10-31T10:47:09.908Z</time>
      </trkpt>
      <trkpt lat="43.99913" lon="2.56258">
        <ele>238</ele>
        <time>2021-10-31T10:47:10.908Z</time>
      </trkpt>
      <trkpt lat="43.99913" lon="2.56258">
        <ele>238</ele>
        <time>2021-10-31T10:47:11.908Z</time>
      </trkpt>
      <trkpt lat="43.99913" lon="2.56259">
        <ele>238</ele>
        <time>2021-10-31T10:47:12.908Z</time>
      </trkpt>
      <trkpt lat="43.99912" lon="2.56258">
        <ele>238</ele>
        <time>2021-10-31T10:47:13.908Z</time>
      </trkpt>
      <trkpt lat="43.99912" lon="2.56257">
        <ele>237</ele>
        <time>2021-10-31T10:47:14.908Z</time>
      </trkpt>
      <trkpt lat="43.99912" lon="2.56256">
        <ele>237</ele>
        <time>2021-10-31T10:47:15.908Z</time>
      </trkpt>
      <trkpt lat="43.99912" lon="2.56254">
        <ele>237</ele>
        <time>2021-10-31T10:47:16.908Z</time>
      </trkpt>
      <trkpt lat="43.99912" lon="2.56253">
        <ele>237</ele>
        <time>2021-10-31T10:47:17.908Z</time>
      </trkpt>
      <trkpt lat="43.99913" lon="2.56251">
        <ele>237</ele>
        <time>2021-10-31T10:47:18.908Z</time>
      </trkpt>
      <trkpt lat="43.99913" lon="2.5625">
        <ele>237</ele>
        <time>2021-10-31T10:47:19.908Z</time>
      </trkpt>
      <trkpt lat="43.99913" lon="2.56248">
        <ele>237</ele>
        <time>2021-10-31T10:47:20.908Z</time>
      </trkpt>
      <trkpt lat="43.99914" lon="2.56247">
        <ele>237</ele>
        <time>2021-10-31T10:47:21.908Z</time>
      </trkpt>
      <trkpt lat="43.99914" lon="2.56245">
        <ele>237</ele>
        <time>2021-10-31T10:47:22.908Z</time>
      </trkpt>
      <trkpt lat="43.99914" lon="2.56244">
        <ele>237</ele>
        <time>2021-10-31T10:47:23.908Z</time>
      </trkpt>
      <trkpt lat="43.99914" lon="2.56242">
        <ele>237</ele>
        <time>2021-10-31T10:47:24.908Z</time>
      </trkpt>
      <trkpt lat="43.99915" lon="2.5624">
        <ele>237</ele>
        <time>2021-10-31T10:47:25.908Z</time>
      </trkpt>
      <trkpt lat="43.99915" lon="2.56239">
        <ele>237</ele>
        <time>2021-10-31T10:47:26.908Z</time>
      </trkpt>
      <trkpt lat="43.99915" lon="2.56237">
        <ele>237</ele>
        <time>2021-10-31T10:47:27.908Z</time>
      </trkpt>
      <trkpt lat="43.99915" lon="2.56235">
        <ele>237</ele>
        <time>2021-10-31T10:47:28.908Z</time>
      </trkpt>
      <trkpt lat="43.99915" lon="2.56233">
        <ele>237</ele>
        <time>2021-10-31T10:47:29.908Z</time>
      </trkpt>
      <trkpt lat="43.99915" lon="2.56232">
        <ele>237</ele>
        <time>2021-10-31T10:47:30.908Z</time>
      </trkpt>
      <trkpt lat="43.99915" lon="2.5623">
        <ele>237</ele>
        <time>2021-10-31T10:47:31.908Z</time>
      </trkpt>
      <trkpt lat="43.99916" lon="2.56228">
        <ele>237</ele>
        <time>2021-10-31T10:47:32.908Z</time>
      </trkpt>
      <trkpt lat="43.99916" lon="2.56226">
        <ele>237</ele>
        <time>2021-10-31T10:47:33.908Z</time>
      </trkpt>
      <trkpt lat="43.99915" lon="2.56224">
        <ele>237</ele>
        <time>2021-10-31T10:47:34.908Z</time>
      </trkpt>
      <trkpt lat="43.99915" lon="2.56223">
        <ele>237</ele>
        <time>2021-10-31T10:47:35.908Z</time>
      </trkpt>
      <trkpt lat="43.99915" lon="2.56221">
        <ele>237</ele>
        <time>2021-10-31T10:47:36.908Z</time>
      </trkpt>
      <trkpt lat="43.99915" lon="2.5622">
        <ele>237</ele>
        <time>2021-10-31T10:47:37.908Z</time>
      </trkpt>
      <trkpt lat="43.99914" lon="2.56219">
        <ele>237</ele>
        <time>2021-10-31T10:47:38.908Z</time>
      </trkpt>
      <trkpt lat="43.99913" lon="2.56218">
        <ele>237</ele>
        <time>2021-10-31T10:47:39.908Z</time>
      </trkpt>
      <trkpt lat="43.99913" lon="2.56217">
        <ele>237</ele>
        <time>2021-10-31T10:47:40.908Z</time>
      </trkpt>
      <trkpt lat="43.99912" lon="2.56217">
        <ele>237</ele>
        <time>2021-10-31T10:47:41.908Z</time>
      </trkpt>
      <trkpt lat="43.99911" lon="2.56216">
        <ele>237</ele>
        <time>2021-10-31T10:47:42.908Z</time>
      </trkpt>
      <trkpt lat="43.99911" lon="2.56215">
        <ele>237</ele>
        <time>2021-10-31T10:47:43.908Z</time>
      </trkpt>
      <trkpt lat="43.9991" lon="2.56215">
        <ele>237</ele>
        <time>2021-10-31T10:47:44.908Z</time>
      </trkpt>
      <trkpt lat="43.9991" lon="2.56215">
        <ele>237</ele>
        <time>2021-10-31T10:47:45.908Z</time>
      </trkpt>
      <trkpt lat="43.99909" lon="2.56215">
        <ele>237</ele>
        <time>2021-10-31T10:47:46.908Z</time>
      </trkpt>
      <trkpt lat="43.99909" lon="2.56215">
        <ele>237</ele>
        <time>2021-10-31T10:47:47.908Z</time>
      </trkpt>
      <trkpt lat="43.99908" lon="2.56215">
        <ele>237</ele>
        <time>2021-10-31T10:47:48.908Z</time>
      </trkpt>
      <trkpt lat="43.99905" lon="2.56211">
        <ele>239</ele>
        <time>2021-10-31T10:47:49.908Z</time>
      </trkpt>
      <trkpt lat="43.99905" lon="2.56211">
        <ele>239</ele>
        <time>2021-10-31T10:47:50.908Z</time>
      </trkpt>
      <trkpt lat="43.99904" lon="2.56211">
        <ele>239</ele>
        <time>2021-10-31T10:47:51.908Z</time>
      </trkpt>
      <trkpt lat="43.99904" lon="2.56211">
        <ele>239</ele>
        <time>2021-10-31T10:47:52.908Z</time>
      </trkpt>
      <trkpt lat="43.99903" lon="2.56211">
        <ele>239</ele>
        <time>2021-10-31T10:47:53.908Z</time>
      </trkpt>
      <trkpt lat="43.99903" lon="2.56213">
        <ele>239</ele>
        <time>2021-10-31T10:47:54.908Z</time>
      </trkpt>
      <trkpt lat="43.99903" lon="2.56214">
        <ele>238</ele>
        <time>2021-10-31T10:47:55.908Z</time>
      </trkpt>
      <trkpt lat="43.99902" lon="2.56216">
        <ele>238</ele>
        <time>2021-10-31T10:47:56.908Z</time>
      </trkpt>
      <trkpt lat="43.99902" lon="2.56217">
        <ele>238</ele>
        <time>2021-10-31T10:47:57.908Z</time>
      </trkpt>
      <trkpt lat="43.99901" lon="2.56219">
        <ele>238</ele>
        <time>2021-10-31T10:47:58.908Z</time>
      </trkpt>
      <trkpt lat="43.99901" lon="2.5622">
        <ele>238</ele>
        <time>2021-10-31T10:47:59.908Z</time>
      </trkpt>
      <trkpt lat="43.99901" lon="2.5622">
        <ele>238</ele>
        <time>2021-10-31T10:48:00.908Z</time>
      </trkpt>
      <trkpt lat="43.99901" lon="2.56221">
        <ele>238</ele>
        <time>2021-10-31T10:48:01.908Z</time>
      </trkpt>
      <trkpt lat="43.99901" lon="2.56221">
        <ele>238</ele>
        <time>2021-10-31T10:48:02.908Z</time>
      </trkpt>
      <trkpt lat="43.99902" lon="2.56223">
        <ele>238</ele>
        <time>2021-10-31T10:48:03.908Z</time>
      </trkpt>
      <trkpt lat="43.99902" lon="2.56224">
        <ele>237</ele>
        <time>2021-10-31T10:48:04.908Z</time>
      </trkpt>
      <trkpt lat="43.99901" lon="2.56225">
        <ele>237</ele>
        <time>2021-10-31T10:48:05.908Z</time>
      </trkpt>
      <trkpt lat="43.99901" lon="2.56226">
        <ele>237</ele>
        <time>2021-10-31T10:48:06.908Z</time>
      </trkpt>
      <trkpt lat="43.99901" lon="2.56228">
        <ele>237</ele>
        <time>2021-10-31T10:48:07.908Z</time>
      </trkpt>
      <trkpt lat="43.999" lon="2.56228">
        <ele>237</ele>
        <time>2021-10-31T10:48:08.908Z</time>
      </trkpt>
      <trkpt lat="43.99901" lon="2.56229">
        <ele>237</ele>
        <time>2021-10-31T10:48:09.908Z</time>
      </trkpt>
      <trkpt lat="43.99901" lon="2.5623">
        <ele>236</ele>
        <time>2021-10-31T10:48:10.908Z</time>
      </trkpt>
      <trkpt lat="43.99901" lon="2.56231">
        <ele>236</ele>
        <time>2021-10-31T10:48:11.908Z</time>
      </trkpt>
      <trkpt lat="43.99901" lon="2.56233">
        <ele>236</ele>
        <time>2021-10-31T10:48:12.908Z</time>
      </trkpt>
      <trkpt lat="43.99901" lon="2.56234">
        <ele>236</ele>
        <time>2021-10-31T10:48:13.908Z</time>
      </trkpt>
      <trkpt lat="43.99901" lon="2.56235">
        <ele>236</ele>
        <time>2021-10-31T10:48:14.908Z</time>
      </trkpt>
      <trkpt lat="43.999" lon="2.56237">
        <ele>236</ele>
        <time>2021-10-31T10:48:15.908Z</time>
      </trkpt>
      <trkpt lat="43.999" lon="2.56238">
        <ele>236</ele>
        <time>2021-10-31T10:48:16.908Z</time>
      </trkpt>
      <trkpt lat="43.99899" lon="2.5624">
        <ele>236</ele>
        <time>2021-10-31T10:48:17.908Z</time>
      </trkpt>
      <trkpt lat="43.99899" lon="2.56241">
        <ele>236</ele>
        <time>2021-10-31T10:48:18.908Z</time>
      </trkpt>
      <trkpt lat="43.99899" lon="2.56242">
        <ele>235</ele>
        <time>2021-10-31T10:48:19.908Z</time>
      </trkpt>
      <trkpt lat="43.99898" lon="2.56244">
        <ele>235</ele>
        <time>2021-10-31T10:48:20.908Z</time>
      </trkpt>
      <trkpt lat="43.99898" lon="2.56245">
        <ele>235</ele>
        <time>2021-10-31T10:48:21.908Z</time>
      </trkpt>
      <trkpt lat="43.99897" lon="2.56246">
        <ele>235</ele>
        <time>2021-10-31T10:48:22.908Z</time>
      </trkpt>
      <trkpt lat="43.99897" lon="2.56248">
        <ele>235</ele>
        <time>2021-10-31T10:48:23.908Z</time>
      </trkpt>
      <trkpt lat="43.99896" lon="2.56249">
        <ele>235</ele>
        <time>2021-10-31T10:48:24.908Z</time>
      </trkpt>
      <trkpt lat="43.99896" lon="2.5625">
        <ele>235</ele>
        <time>2021-10-31T10:48:25.908Z</time>
      </trkpt>
      <trkpt lat="43.99895" lon="2.56251">
        <ele>235</ele>
        <time>2021-10-31T10:48:26.908Z</time>
      </trkpt>
      <trkpt lat="43.99895" lon="2.56252">
        <ele>235</ele>
        <time>2021-10-31T10:48:27.908Z</time>
      </trkpt>
      <trkpt lat="43.99894" lon="2.56253">
        <ele>235</ele>
        <time>2021-10-31T10:48:28.908Z</time>
      </trkpt>
      <trkpt lat="43.99893" lon="2.56255">
        <ele>234</ele>
        <time>2021-10-31T10:48:29.908Z</time>
      </trkpt>
      <trkpt lat="43.99893" lon="2.56256">
        <ele>234</ele>
        <time>2021-10-31T10:48:30.908Z</time>
      </trkpt>
      <trkpt lat="43.99892" lon="2.56258">
        <ele>234</ele>
        <time>2021-10-31T10:48:31.908Z</time>
      </trkpt>
      <trkpt lat="43.99892" lon="2.56259">
        <ele>234</ele>
        <time>2021-10-31T10:48:32.908Z</time>
      </trkpt>
      <trkpt lat="43.99891" lon="2.5626">
        <ele>234</ele>
        <time>2021-10-31T10:48:33.908Z</time>
      </trkpt>
      <trkpt lat="43.9989" lon="2.56262">
        <ele>234</ele>
        <time>2021-10-31T10:48:34.908Z</time>
      </trkpt>
      <trkpt lat="43.9989" lon="2.56263">
        <ele>234</ele>
        <time>2021-10-31T10:48:35.908Z</time>
      </trkpt>
      <trkpt lat="43.9989" lon="2.56265">
        <ele>234</ele>
        <time>2021-10-31T10:48:36.908Z</time>
      </trkpt>
      <trkpt lat="43.99889" lon="2.56266">
        <ele>234</ele>
        <time>2021-10-31T10:48:37.908Z</time>
      </trkpt>
      <trkpt lat="43.99889" lon="2.56268">
        <ele>234</ele>
        <time>2021-10-31T10:48:41.165Z</time>
      </trkpt>
      <trkpt lat="43.99888" lon="2.56269">
        <ele>234</ele>
        <time>2021-10-31T10:48:42.165Z</time>
      </trkpt>
      <trkpt lat="43.99888" lon="2.56271">
        <ele>234</ele>
        <time>2021-10-31T10:48:43.165Z</time>
      </trkpt>
      <trkpt lat="43.99887" lon="2.56272">
        <ele>234</ele>
        <time>2021-10-31T10:48:44.165Z</time>
      </trkpt>
      <trkpt lat="43.99887" lon="2.56273">
        <ele>234</ele>
        <time>2021-10-31T10:48:45.165Z</time>
      </trkpt>
      <trkpt lat="43.99887" lon="2.56274">
        <ele>234</ele>
        <time>2021-10-31T10:48:46.165Z</time>
      </trkpt>
      <trkpt lat="43.99886" lon="2.56275">
        <ele>234</ele>
        <time>2021-10-31T10:49:03.152Z</time>
      </trkpt>
      <trkpt lat="43.99885" lon="2.56275">
        <ele>234</ele>
        <time>2021-10-31T10:49:04.152Z</time>
      </trkpt>
      <trkpt lat="43.99885" lon="2.56276">
        <ele>234</ele>
        <time>2021-10-31T10:49:05.152Z</time>
      </trkpt>
      <trkpt lat="43.99885" lon="2.56276">
        <ele>234</ele>
        <time>2021-10-31T10:49:06.152Z</time>
      </trkpt>
      <trkpt lat="43.99884" lon="2.56276">
        <ele>234</ele>
        <time>2021-10-31T10:49:07.152Z</time>
      </trkpt>
      <trkpt lat="43.99884" lon="2.56276">
        <ele>234</ele>
        <time>2021-10-31T10:49:08.152Z</time>
      </trkpt>
      <trkpt lat="43.99884" lon="2.56276">
        <ele>234</ele>
        <time>2021-10-31T10:49:09.152Z</time>
      </trkpt>
      <trkpt lat="43.99884" lon="2.56278">
        <ele>234</ele>
        <time>2021-10-31T10:49:10.152Z</time>
      </trkpt>
      <trkpt lat="43.99884" lon="2.56279">
        <ele>234</ele>
        <time>2021-10-31T10:49:11.152Z</time>
      </trkpt>
      <trkpt lat="43.99884" lon="2.5628">
        <ele>234</ele>
        <time>2021-10-31T10:49:12.152Z</time>
      </trkpt>
      <trkpt lat="43.99883" lon="2.5628">
        <ele>234</ele>
        <time>2021-10-31T10:49:13.152Z</time>
      </trkpt>
      <trkpt lat="43.99883" lon="2.5628">
        <ele>234</ele>
        <time>2021-10-31T10:49:14.152Z</time>
      </trkpt>
      <trkpt lat="43.99884" lon="2.5628">
        <ele>234</ele>
        <time>2021-10-31T10:49:15.152Z</time>
      </trkpt>
      <trkpt lat="43.99884" lon="2.5628">
        <ele>234</ele>
        <time>2021-10-31T10:49:16.152Z</time>
      </trkpt>
      <trkpt lat="43.99884" lon="2.56282">
        <ele>234</ele>
        <time>2021-10-31T10:49:17.152Z</time>
      </trkpt>
      <trkpt lat="43.99884" lon="2.56283">
        <ele>233</ele>
        <time>2021-10-31T10:49:18.152Z</time>
      </trkpt>
      <trkpt lat="43.99884" lon="2.56285">
        <ele>233</ele>
        <time>2021-10-31T10:49:19.152Z</time>
      </trkpt>
      <trkpt lat="43.99884" lon="2.56286">
        <ele>233</ele>
        <time>2021-10-31T10:49:20.152Z</time>
      </trkpt>
      <trkpt lat="43.99883" lon="2.56287">
        <ele>233</ele>
        <time>2021-10-31T10:49:21.152Z</time>
      </trkpt>
      <trkpt lat="43.99884" lon="2.56289">
        <ele>233</ele>
        <time>2021-10-31T10:49:22.152Z</time>
      </trkpt>
      <trkpt lat="43.99884" lon="2.56291">
        <ele>233</ele>
        <time>2021-10-31T10:49:23.152Z</time>
      </trkpt>
      <trkpt lat="43.99884" lon="2.56292">
        <ele>233</ele>
        <time>2021-10-31T10:49:24.152Z</time>
      </trkpt>
      <trkpt lat="43.99883" lon="2.56294">
        <ele>233</ele>
        <time>2021-10-31T10:49:25.152Z</time>
      </trkpt>
      <trkpt lat="43.99883" lon="2.56295">
        <ele>233</ele>
        <time>2021-10-31T10:49:26.152Z</time>
      </trkpt>
      <trkpt lat="43.99883" lon="2.56297">
        <ele>233</ele>
        <time>2021-10-31T10:49:27.152Z</time>
      </trkpt>
      <trkpt lat="43.99884" lon="2.56298">
        <ele>233</ele>
        <time>2021-10-31T10:49:28.152Z</time>
      </trkpt>
      <trkpt lat="43.99884" lon="2.563">
        <ele>233</ele>
        <time>2021-10-31T10:49:29.152Z</time>
      </trkpt>
      <trkpt lat="43.99884" lon="2.56301">
        <ele>233</ele>
        <time>2021-10-31T10:49:30.152Z</time>
      </trkpt>
      <trkpt lat="43.99885" lon="2.56302">
        <ele>233</ele>
        <time>2021-10-31T10:49:31.152Z</time>
      </trkpt>
      <trkpt lat="43.99885" lon="2.56303">
        <ele>233</ele>
        <time>2021-10-31T10:49:32.152Z</time>
      </trkpt>
      <trkpt lat="43.99885" lon="2.56303">
        <ele>233</ele>
        <time>2021-10-31T10:49:33.152Z</time>
      </trkpt>
      <trkpt lat="43.99886" lon="2.56304">
        <ele>233</ele>
        <time>2021-10-31T10:49:34.152Z</time>
      </trkpt>
      <trkpt lat="43.99886" lon="2.56304">
        <ele>233</ele>
        <time>2021-10-31T10:49:35.152Z</time>
      </trkpt>
      <trkpt lat="43.99886" lon="2.56305">
        <ele>233</ele>
        <time>2021-10-31T10:49:36.152Z</time>
      </trkpt>
      <trkpt lat="43.99886" lon="2.56305">
        <ele>232</ele>
        <time>2021-10-31T10:49:37.152Z</time>
      </trkpt>
      <trkpt lat="43.99886" lon="2.56305">
        <ele>232</ele>
        <time>2021-10-31T10:49:38.152Z</time>
      </trkpt>
      <trkpt lat="43.99886" lon="2.56307">
        <ele>232</ele>
        <time>2021-10-31T10:49:39.152Z</time>
      </trkpt>
      <trkpt lat="43.99886" lon="2.56307">
        <ele>232</ele>
        <time>2021-10-31T10:49:40.152Z</time>
      </trkpt>
      <trkpt lat="43.99887" lon="2.56307">
        <ele>232</ele>
        <time>2021-10-31T10:49:41.152Z</time>
      </trkpt>
      <trkpt lat="43.99887" lon="2.56307">
        <ele>232</ele>
        <time>2021-10-31T10:49:42.152Z</time>
      </trkpt>
      <trkpt lat="43.99888" lon="2.56307">
        <ele>232</ele>
        <time>2021-10-31T10:49:43.152Z</time>
      </trkpt>
      <trkpt lat="43.99889" lon="2.56307">
        <ele>232</ele>
        <time>2021-10-31T10:49:44.152Z</time>
      </trkpt>
      <trkpt lat="43.9989" lon="2.56307">
        <ele>232</ele>
        <time>2021-10-31T10:49:45.152Z</time>
      </trkpt>
      <trkpt lat="43.99891" lon="2.56307">
        <ele>232</ele>
        <time>2021-10-31T10:49:46.152Z</time>
      </trkpt>
      <trkpt lat="43.99892" lon="2.56307">
        <ele>232</ele>
        <time>2021-10-31T10:49:47.152Z</time>
      </trkpt>
      <trkpt lat="43.99893" lon="2.56307">
        <ele>232</ele>
        <time>2021-10-31T10:49:48.152Z</time>
      </trkpt>
      <trkpt lat="43.99894" lon="2.56307">
        <ele>232</ele>
        <time>2021-10-31T10:49:49.152Z</time>
      </trkpt>
      <trkpt lat="43.99895" lon="2.56307">
        <ele>232</ele>
        <time>2021-10-31T10:49:50.152Z</time>
      </trkpt>
      <trkpt lat="43.99896" lon="2.56307">
        <ele>232</ele>
        <time>2021-10-31T10:49:51.152Z</time>
      </trkpt>
      <trkpt lat="43.99896" lon="2.56307">
        <ele>232</ele>
        <time>2021-10-31T10:49:52.152Z</time>
      </trkpt>
      <trkpt lat="43.99897" lon="2.56306">
        <ele>232</ele>
        <time>2021-10-31T10:49:53.152Z</time>
      </trkpt>
      <trkpt lat="43.99898" lon="2.56306">
        <ele>232</ele>
        <time>2021-10-31T10:49:54.152Z</time>
      </trkpt>
      <trkpt lat="43.99899" lon="2.56306">
        <ele>231</ele>
        <time>2021-10-31T10:49:55.152Z</time>
      </trkpt>
      <trkpt lat="43.999" lon="2.56306">
        <ele>231</ele>
        <time>2021-10-31T10:49:56.152Z</time>
      </trkpt>
      <trkpt lat="43.99901" lon="2.56306">
        <ele>231</ele>
        <time>2021-10-31T10:49:57.152Z</time>
      </trkpt>
      <trkpt lat="43.99902" lon="2.56306">
        <ele>231</ele>
        <time>2021-10-31T10:49:58.152Z</time>
      </trkpt>
      <trkpt lat="43.99903" lon="2.56306">
        <ele>231</ele>
        <time>2021-10-31T10:49:59.152Z</time>
      </trkpt>
      <trkpt lat="43.99904" lon="2.56306">
        <ele>231</ele>
        <time>2021-10-31T10:50:00.152Z</time>
      </trkpt>
      <trkpt lat="43.99905" lon="2.56306">
        <ele>231</ele>
        <time>2021-10-31T10:50:01.152Z</time>
      </trkpt>
      <trkpt lat="43.99906" lon="2.56306">
        <ele>231</ele>
        <time>2021-10-31T10:50:02.152Z</time>
      </trkpt>
      <trkpt lat="43.99907" lon="2.56306">
        <ele>231</ele>
        <time>2021-10-31T10:50:03.152Z</time>
      </trkpt>
      <trkpt lat="43.99908" lon="2.56306">
        <ele>231</ele>
        <time>2021-10-31T10:50:04.152Z</time>
      </trkpt>
      <trkpt lat="43.99909" lon="2.56306">
        <ele>231</ele>
        <time>2021-10-31T10:50:05.152Z</time>
      </trkpt>
      <trkpt lat="43.9991" lon="2.56306">
        <ele>231</ele>
        <time>2021-10-31T10:50:06.152Z</time>
      </trkpt>
      <trkpt lat="43.99911" lon="2.56306">
        <ele>231</ele>
        <time>2021-10-31T10:50:07.152Z</time>
      </trkpt>
      <trkpt lat="43.99912" lon="2.56306">
        <ele>231</ele>
        <time>2021-10-31T10:50:08.152Z</time>
      </trkpt>
      <trkpt lat="43.99913" lon="2.56306">
        <ele>231</ele>
        <time>2021-10-31T10:50:09.152Z</time>
      </trkpt>
      <trkpt lat="43.99914" lon="2.56306">
        <ele>231</ele>
        <time>2021-10-31T10:50:10.152Z</time>
      </trkpt>
      <trkpt lat="43.99915" lon="2.56306">
        <ele>231</ele>
        <time>2021-10-31T10:50:11.152Z</time>
      </trkpt>
      <trkpt lat="43.99916" lon="2.56305">
        <ele>231</ele>
        <time>2021-10-31T10:50:12.152Z</time>
      </trkpt>
      <trkpt lat="43.99917" lon="2.56305">
        <ele>231</ele>
        <time>2021-10-31T10:50:13.152Z</time>
      </trkpt>
      <trkpt lat="43.99918" lon="2.56304">
        <ele>231</ele>
        <time>2021-10-31T10:50:14.152Z</time>
      </trkpt>
      <trkpt lat="43.99918" lon="2.56304">
        <ele>231</ele>
        <time>2021-10-31T10:50:15.152Z</time>
      </trkpt>
      <trkpt lat="43.99919" lon="2.56304">
        <ele>231</ele>
        <time>2021-10-31T10:50:16.152Z</time>
      </trkpt>
      <trkpt lat="43.9992" lon="2.56304">
        <ele>231</ele>
        <time>2021-10-31T10:50:17.152Z</time>
      </trkpt>
      <trkpt lat="43.9992" lon="2.56304">
        <ele>231</ele>
        <time>2021-10-31T10:50:18.152Z</time>
      </trkpt>
      <trkpt lat="43.99921" lon="2.56303">
        <ele>231</ele>
        <time>2021-10-31T10:50:19.152Z</time>
      </trkpt>
      <trkpt lat="43.99921" lon="2.56303">
        <ele>231</ele>
        <time>2021-10-31T10:50:20.152Z</time>
      </trkpt>
      <trkpt lat="43.99922" lon="2.56303">
        <ele>231</ele>
        <time>2021-10-31T10:50:21.152Z</time>
      </trkpt>
      <trkpt lat="43.99922" lon="2.56303">
        <ele>231</ele>
        <time>2021-10-31T10:50:22.152Z</time>
      </trkpt>
      <trkpt lat="43.99923" lon="2.56303">
        <ele>231</ele>
        <time>2021-10-31T10:50:23.152Z</time>
      </trkpt>
      <trkpt lat="43.99923" lon="2.56303">
        <ele>231</ele>
        <time>2021-10-31T10:50:24.152Z</time>
      </trkpt>
      <trkpt lat="43.99924" lon="2.56303">
        <ele>231</ele>
        <time>2021-10-31T10:50:25.152Z</time>
      </trkpt>
      <trkpt lat="43.99925" lon="2.56302">
        <ele>231</ele>
        <time>2021-10-31T10:50:26.152Z</time>
      </trkpt>
      <trkpt lat="43.99926" lon="2.56302">
        <ele>231</ele>
        <time>2021-10-31T10:50:27.152Z</time>
      </trkpt>
      <trkpt lat="43.99927" lon="2.56303">
        <ele>231</ele>
        <time>2021-10-31T10:50:28.152Z</time>
      </trkpt>
      <trkpt lat="43.99928" lon="2.56303">
        <ele>231</ele>
        <time>2021-10-31T10:50:29.152Z</time>
      </trkpt>
      <trkpt lat="43.99929" lon="2.56303">
        <ele>231</ele>
        <time>2021-10-31T10:50:30.152Z</time>
      </trkpt>
      <trkpt lat="43.9993" lon="2.56303">
        <ele>231</ele>
        <time>2021-10-31T10:50:31.152Z</time>
      </trkpt>
      <trkpt lat="43.99931" lon="2.56303">
        <ele>231</ele>
        <time>2021-10-31T10:50:32.152Z</time>
      </trkpt>
      <trkpt lat="43.99932" lon="2.56303">
        <ele>231</ele>
        <time>2021-10-31T10:50:33.152Z</time>
      </trkpt>
      <trkpt lat="43.99933" lon="2.56303">
        <ele>231</ele>
        <time>2021-10-31T10:50:34.152Z</time>
      </trkpt>
      <trkpt lat="43.99934" lon="2.56303">
        <ele>231</ele>
        <time>2021-10-31T10:50:35.152Z</time>
      </trkpt>
      <trkpt lat="43.99935" lon="2.56303">
        <ele>232</ele>
        <time>2021-10-31T10:50:36.152Z</time>
      </trkpt>
      <trkpt lat="43.99935" lon="2.56303">
        <ele>232</ele>
        <time>2021-10-31T10:50:37.152Z</time>
      </trkpt>
      <trkpt lat="43.99935" lon="2.56303">
        <ele>232</ele>
        <time>2021-10-31T10:50:38.152Z</time>
      </trkpt>
      <trkpt lat="43.99936" lon="2.56303">
        <ele>232</ele>
        <time>2021-10-31T10:50:39.152Z</time>
      </trkpt>
      <trkpt lat="43.99936" lon="2.56303">
        <ele>232</ele>
        <time>2021-10-31T10:50:40.152Z</time>
      </trkpt>
      <trkpt lat="43.99937" lon="2.56303">
        <ele>232</ele>
        <time>2021-10-31T10:50:41.152Z</time>
      </trkpt>
      <trkpt lat="43.99938" lon="2.56303">
        <ele>232</ele>
        <time>2021-10-31T10:50:42.152Z</time>
      </trkpt>
      <trkpt lat="43.99939" lon="2.56303">
        <ele>232</ele>
        <time>2021-10-31T10:50:43.152Z</time>
      </trkpt>
      <trkpt lat="43.9994" lon="2.56304">
        <ele>232</ele>
        <time>2021-10-31T10:50:44.152Z</time>
      </trkpt>
      <trkpt lat="43.99941" lon="2.56304">
        <ele>232</ele>
        <time>2021-10-31T10:50:45.152Z</time>
      </trkpt>
      <trkpt lat="43.99942" lon="2.56304">
        <ele>232</ele>
        <time>2021-10-31T10:50:46.152Z</time>
      </trkpt>
      <trkpt lat="43.99943" lon="2.56304">
        <ele>232</ele>
        <time>2021-10-31T10:50:47.152Z</time>
      </trkpt>
      <trkpt lat="43.99944" lon="2.56304">
        <ele>232</ele>
        <time>2021-10-31T10:50:48.152Z</time>
      </trkpt>
      <trkpt lat="43.99945" lon="2.56304">
        <ele>232</ele>
        <time>2021-10-31T10:50:49.152Z</time>
      </trkpt>
      <trkpt lat="43.99945" lon="2.56304">
        <ele>232</ele>
        <time>2021-10-31T10:50:50.152Z</time>
      </trkpt>
      <trkpt lat="43.99946" lon="2.56304">
        <ele>232</ele>
        <time>2021-10-31T10:50:51.152Z</time>
      </trkpt>
      <trkpt lat="43.99947" lon="2.56304">
        <ele>232</ele>
        <time>2021-10-31T10:50:52.152Z</time>
      </trkpt>
      <trkpt lat="43.99948" lon="2.56305">
        <ele>232</ele>
        <time>2021-10-31T10:50:53.152Z</time>
      </trkpt>
      <trkpt lat="43.99949" lon="2.56305">
        <ele>232</ele>
        <time>2021-10-31T10:50:54.152Z</time>
      </trkpt>
      <trkpt lat="43.9995" lon="2.56305">
        <ele>232</ele>
        <time>2021-10-31T10:50:55.152Z</time>
      </trkpt>
      <trkpt lat="43.9995" lon="2.56305">
        <ele>232</ele>
        <time>2021-10-31T10:50:56.152Z</time>
      </trkpt>
      <trkpt lat="43.99951" lon="2.56305">
        <ele>232</ele>
        <time>2021-10-31T10:50:57.152Z</time>
      </trkpt>
      <trkpt lat="43.99952" lon="2.56305">
        <ele>232</ele>
        <time>2021-10-31T10:50:58.152Z</time>
      </trkpt>
      <trkpt lat="43.99952" lon="2.56305">
        <ele>232</ele>
        <time>2021-10-31T10:50:59.152Z</time>
      </trkpt>
      <trkpt lat="43.99954" lon="2.56305">
        <ele>232</ele>
        <time>2021-10-31T10:51:00.152Z</time>
      </trkpt>
      <trkpt lat="43.99955" lon="2.56305">
        <ele>232</ele>
        <time>2021-10-31T10:51:01.152Z</time>
      </trkpt>
      <trkpt lat="43.99956" lon="2.56305">
        <ele>232</ele>
        <time>2021-10-31T10:51:02.152Z</time>
      </trkpt>
      <trkpt lat="43.99957" lon="2.56305">
        <ele>232</ele>
        <time>2021-10-31T10:51:03.152Z</time>
      </trkpt>
      <trkpt lat="43.99958" lon="2.56306">
        <ele>232</ele>
        <time>2021-10-31T10:51:04.152Z</time>
      </trkpt>
      <trkpt lat="43.99959" lon="2.56306">
        <ele>232</ele>
        <time>2021-10-31T10:51:05.152Z</time>
      </trkpt>
      <trkpt lat="43.99959" lon="2.56306">
        <ele>232</ele>
        <time>2021-10-31T10:51:06.152Z</time>
      </trkpt>
      <trkpt lat="43.9996" lon="2.56307">
        <ele>232</ele>
        <time>2021-10-31T10:51:07.152Z</time>
      </trkpt>
      <trkpt lat="43.99961" lon="2.56307">
        <ele>232</ele>
        <time>2021-10-31T10:51:08.152Z</time>
      </trkpt>
      <trkpt lat="43.99962" lon="2.56307">
        <ele>232</ele>
        <time>2021-10-31T10:51:09.152Z</time>
      </trkpt>
      <trkpt lat="43.99963" lon="2.56307">
        <ele>232</ele>
        <time>2021-10-31T10:51:10.152Z</time>
      </trkpt>
      <trkpt lat="43.99964" lon="2.56307">
        <ele>232</ele>
        <time>2021-10-31T10:51:11.152Z</time>
      </trkpt>
      <trkpt lat="43.99965" lon="2.56308">
        <ele>232</ele>
        <time>2021-10-31T10:51:12.152Z</time>
      </trkpt>
      <trkpt lat="43.99966" lon="2.56308">
        <ele>232</ele>
        <time>2021-10-31T10:51:13.152Z</time>
      </trkpt>
      <trkpt lat="43.99967" lon="2.56308">
        <ele>232</ele>
        <time>2021-10-31T10:51:14.152Z</time>
      </trkpt>
      <trkpt lat="43.99968" lon="2.56308">
        <ele>232</ele>
        <time>2021-10-31T10:51:15.152Z</time>
      </trkpt>
      <trkpt lat="43.9997" lon="2.56308">
        <ele>232</ele>
        <time>2021-10-31T10:51:16.152Z</time>
      </trkpt>
      <trkpt lat="43.99971" lon="2.56308">
        <ele>232</ele>
        <time>2021-10-31T10:51:17.152Z</time>
      </trkpt>
      <trkpt lat="43.99971" lon="2.56308">
        <ele>232</ele>
        <time>2021-10-31T10:51:18.152Z</time>
      </trkpt>
      <trkpt lat="43.99972" lon="2.56308">
        <ele>232</ele>
        <time>2021-10-31T10:51:19.152Z</time>
      </trkpt>
      <trkpt lat="43.99973" lon="2.56307">
        <ele>232</ele>
        <time>2021-10-31T10:51:20.152Z</time>
      </trkpt>
      <trkpt lat="43.99974" lon="2.56307">
        <ele>232</ele>
        <time>2021-10-31T10:51:21.152Z</time>
      </trkpt>
      <trkpt lat="43.99975" lon="2.56307">
        <ele>232</ele>
        <time>2021-10-31T10:51:22.152Z</time>
      </trkpt>
      <trkpt lat="43.99976" lon="2.56306">
        <ele>232</ele>
        <time>2021-10-31T10:51:23.152Z</time>
      </trkpt>
      <trkpt lat="43.99977" lon="2.56306">
        <ele>232</ele>
        <time>2021-10-31T10:51:24.152Z</time>
      </trkpt>
      <trkpt lat="43.99978" lon="2.56306">
        <ele>232</ele>
        <time>2021-10-31T10:51:25.152Z</time>
      </trkpt>
      <trkpt lat="43.99979" lon="2.56305">
        <ele>232</ele>
        <time>2021-10-31T10:51:26.152Z</time>
      </trkpt>
      <trkpt lat="43.9998" lon="2.56305">
        <ele>232</ele>
        <time>2021-10-31T10:51:27.152Z</time>
      </trkpt>
      <trkpt lat="43.99981" lon="2.56305">
        <ele>232</ele>
        <time>2021-10-31T10:51:28.152Z</time>
      </trkpt>
      <trkpt lat="43.99982" lon="2.56304">
        <ele>232</ele>
        <time>2021-10-31T10:51:29.152Z</time>
      </trkpt>
      <trkpt lat="43.99983" lon="2.56304">
        <ele>232</ele>
        <time>2021-10-31T10:51:30.152Z</time>
      </trkpt>
      <trkpt lat="43.99985" lon="2.56305">
        <ele>232</ele>
        <time>2021-10-31T10:51:31.152Z</time>
      </trkpt>
      <trkpt lat="43.99986" lon="2.56305">
        <ele>232</ele>
        <time>2021-10-31T10:51:32.152Z</time>
      </trkpt>
      <trkpt lat="43.99987" lon="2.56305">
        <ele>232</ele>
        <time>2021-10-31T10:51:33.152Z</time>
      </trkpt>
      <trkpt lat="43.99987" lon="2.56305">
        <ele>232</ele>
        <time>2021-10-31T10:51:34.152Z</time>
      </trkpt>
      <trkpt lat="43.99988" lon="2.56306">
        <ele>232</ele>
        <time>2021-10-31T10:51:35.152Z</time>
      </trkpt>
      <trkpt lat="43.99989" lon="2.56306">
        <ele>232</ele>
        <time>2021-10-31T10:51:36.152Z</time>
      </trkpt>
      <trkpt lat="43.9999" lon="2.56306">
        <ele>232</ele>
        <time>2021-10-31T10:51:37.152Z</time>
      </trkpt>
      <trkpt lat="43.9999" lon="2.56306">
        <ele>232</ele>
        <time>2021-10-31T10:51:38.152Z</time>
      </trkpt>
      <trkpt lat="43.99992" lon="2.56306">
        <ele>232</ele>
        <time>2021-10-31T10:51:39.152Z</time>
      </trkpt>
      <trkpt lat="43.99993" lon="2.56307">
        <ele>232</ele>
        <time>2021-10-31T10:51:40.152Z</time>
      </trkpt>
      <trkpt lat="43.99994" lon="2.56307">
        <ele>232</ele>
        <time>2021-10-31T10:51:41.152Z</time>
      </trkpt>
      <trkpt lat="43.99994" lon="2.56307">
        <ele>232</ele>
        <time>2021-10-31T10:51:42.152Z</time>
      </trkpt>
      <trkpt lat="43.99996" lon="2.56307">
        <ele>232</ele>
        <time>2021-10-31T10:51:43.152Z</time>
      </trkpt>
      <trkpt lat="43.99996" lon="2.56307">
        <ele>232</ele>
        <time>2021-10-31T10:51:44.152Z</time>
      </trkpt>
      <trkpt lat="43.99998" lon="2.56307">
        <ele>232</ele>
        <time>2021-10-31T10:51:45.152Z</time>
      </trkpt>
      <trkpt lat="43.99999" lon="2.56308">
        <ele>232</ele>
        <time>2021-10-31T10:51:46.152Z</time>
      </trkpt>
      <trkpt lat="44" lon="2.56308">
        <ele>232</ele>
        <time>2021-10-31T10:51:47.152Z</time>
      </trkpt>
      <trkpt lat="44.00001" lon="2.56308">
        <ele>232</ele>
        <time>2021-10-31T10:51:48.152Z</time>
      </trkpt>
      <trkpt lat="44.00002" lon="2.56308">
        <ele>232</ele>
        <time>2021-10-31T10:51:49.152Z</time>
      </trkpt>
      <trkpt lat="44.00003" lon="2.56309">
        <ele>232</ele>
        <time>2021-10-31T10:51:50.152Z</time>
      </trkpt>
      <trkpt lat="44.00004" lon="2.56309">
        <ele>232</ele>
        <time>2021-10-31T10:51:51.152Z</time>
      </trkpt>
      <trkpt lat="44.00005" lon="2.56309">
        <ele>232</ele>
        <time>2021-10-31T10:51:52.152Z</time>
      </trkpt>
      <trkpt lat="44.00005" lon="2.56309">
        <ele>232</ele>
        <time>2021-10-31T10:51:53.152Z</time>
      </trkpt>
      <trkpt lat="44.00008" lon="2.5631">
        <ele>232</ele>
        <time>2021-10-31T10:51:54.152Z</time>
      </trkpt>
      <trkpt lat="44.00009" lon="2.5631">
        <ele>232</ele>
        <time>2021-10-31T10:51:55.152Z</time>
      </trkpt>
      <trkpt lat="44.00009" lon="2.5631">
        <ele>232</ele>
        <time>2021-10-31T10:51:56.152Z</time>
      </trkpt>
      <trkpt lat="44.00009" lon="2.5631">
        <ele>232</ele>
        <time>2021-10-31T10:51:57.152Z</time>
      </trkpt>
      <trkpt lat="44.00011" lon="2.56311">
        <ele>232</ele>
        <time>2021-10-31T10:51:58.152Z</time>
      </trkpt>
      <trkpt lat="44.00012" lon="2.56311">
        <ele>232</ele>
        <time>2021-10-31T10:51:59.152Z</time>
      </trkpt>
      <trkpt lat="44.00013" lon="2.56312">
        <ele>233</ele>
        <time>2021-10-31T10:52:00.152Z</time>
      </trkpt>
      <trkpt lat="44.00013" lon="2.56312">
        <ele>233</ele>
        <time>2021-10-31T10:52:01.152Z</time>
      </trkpt>
      <trkpt lat="44.00016" lon="2.56313">
        <ele>233</ele>
        <time>2021-10-31T10:52:02.152Z</time>
      </trkpt>
      <trkpt lat="44.00016" lon="2.56313">
        <ele>233</ele>
        <time>2021-10-31T10:52:03.152Z</time>
      </trkpt>
      <trkpt lat="44.00017" lon="2.56313">
        <ele>233</ele>
        <time>2021-10-31T10:52:04.152Z</time>
      </trkpt>
      <trkpt lat="44.00017" lon="2.56314">
        <ele>233</ele>
        <time>2021-10-31T10:52:05.152Z</time>
      </trkpt>
      <trkpt lat="44.00018" lon="2.56314">
        <ele>233</ele>
        <time>2021-10-31T10:52:06.152Z</time>
      </trkpt>
      <trkpt lat="44.00019" lon="2.56315">
        <ele>233</ele>
        <time>2021-10-31T10:52:07.152Z</time>
      </trkpt>
      <trkpt lat="44.0002" lon="2.56315">
        <ele>233</ele>
        <time>2021-10-31T10:52:08.152Z</time>
      </trkpt>
      <trkpt lat="44.00021" lon="2.56316">
        <ele>233</ele>
        <time>2021-10-31T10:52:09.152Z</time>
      </trkpt>
      <trkpt lat="44.00022" lon="2.56316">
        <ele>233</ele>
        <time>2021-10-31T10:52:10.152Z</time>
      </trkpt>
      <trkpt lat="44.00023" lon="2.56317">
        <ele>233</ele>
        <time>2021-10-31T10:52:11.152Z</time>
      </trkpt>
      <trkpt lat="44.00024" lon="2.56318">
        <ele>233</ele>
        <time>2021-10-31T10:52:12.152Z</time>
      </trkpt>
      <trkpt lat="44.00025" lon="2.56318">
        <ele>233</ele>
        <time>2021-10-31T10:52:13.152Z</time>
      </trkpt>
      <trkpt lat="44.00026" lon="2.56319">
        <ele>233</ele>
        <time>2021-10-31T10:52:14.152Z</time>
      </trkpt>
      <trkpt lat="44.00027" lon="2.5632">
        <ele>233</ele>
        <time>2021-10-31T10:52:15.152Z</time>
      </trkpt>
      <trkpt lat="44.00027" lon="2.5632">
        <ele>233</ele>
        <time>2021-10-31T10:52:16.152Z</time>
      </trkpt>
      <trkpt lat="44.00028" lon="2.56321">
        <ele>233</ele>
        <time>2021-10-31T10:52:17.152Z</time>
      </trkpt>
      <trkpt lat="44.00029" lon="2.56321">
        <ele>234</ele>
        <time>2021-10-31T10:52:18.152Z</time>
      </trkpt>
      <trkpt lat="44.00031" lon="2.56322">
        <ele>234</ele>
        <time>2021-10-31T10:52:19.152Z</time>
      </trkpt>
      <trkpt lat="44.00032" lon="2.56322">
        <ele>234</ele>
        <time>2021-10-31T10:52:20.152Z</time>
      </trkpt>
      <trkpt lat="44.00033" lon="2.56323">
        <ele>234</ele>
        <time>2021-10-31T10:52:21.152Z</time>
      </trkpt>
      <trkpt lat="44.00035" lon="2.56323">
        <ele>234</ele>
        <time>2021-10-31T10:52:22.152Z</time>
      </trkpt>
      <trkpt lat="44.00036" lon="2.56323">
        <ele>234</ele>
        <time>2021-10-31T10:52:23.152Z</time>
      </trkpt>
      <trkpt lat="44.00037" lon="2.56323">
        <ele>234</ele>
        <time>2021-10-31T10:52:24.152Z</time>
      </trkpt>
      <trkpt lat="44.00037" lon="2.56323">
        <ele>234</ele>
        <time>2021-10-31T10:52:25.152Z</time>
      </trkpt>
      <trkpt lat="44.00038" lon="2.56324">
        <ele>234</ele>
        <time>2021-10-31T10:52:26.152Z</time>
      </trkpt>
      <trkpt lat="44.00039" lon="2.56324">
        <ele>234</ele>
        <time>2021-10-31T10:52:27.152Z</time>
      </trkpt>
      <trkpt lat="44.0004" lon="2.56324">
        <ele>234</ele>
        <time>2021-10-31T10:52:28.152Z</time>
      </trkpt>
      <trkpt lat="44.0004" lon="2.56324">
        <ele>234</ele>
        <time>2021-10-31T10:52:29.152Z</time>
      </trkpt>
      <trkpt lat="44.00041" lon="2.56324">
        <ele>234</ele>
        <time>2021-10-31T10:52:30.152Z</time>
      </trkpt>
      <trkpt lat="44.00042" lon="2.56325">
        <ele>234</ele>
        <time>2021-10-31T10:52:31.152Z</time>
      </trkpt>
      <trkpt lat="44.00043" lon="2.56325">
        <ele>234</ele>
        <time>2021-10-31T10:52:42.157Z</time>
      </trkpt>
      <trkpt lat="44.00043" lon="2.56325">
        <ele>234</ele>
        <time>2021-10-31T10:52:43.157Z</time>
      </trkpt>
      <trkpt lat="44.00044" lon="2.56325">
        <ele>234</ele>
        <time>2021-10-31T10:52:44.157Z</time>
      </trkpt>
      <trkpt lat="44.00046" lon="2.56326">
        <ele>234</ele>
        <time>2021-10-31T10:52:45.157Z</time>
      </trkpt>
      <trkpt lat="44.00047" lon="2.56326">
        <ele>234</ele>
        <time>2021-10-31T10:52:46.157Z</time>
      </trkpt>
      <trkpt lat="44.00049" lon="2.56326">
        <ele>234</ele>
        <time>2021-10-31T10:52:47.157Z</time>
      </trkpt>
      <trkpt lat="44.0005" lon="2.56326">
        <ele>234</ele>
        <time>2021-10-31T10:52:48.157Z</time>
      </trkpt>
      <trkpt lat="44.00051" lon="2.56326">
        <ele>234</ele>
        <time>2021-10-31T10:52:49.157Z</time>
      </trkpt>
      <trkpt lat="44.00052" lon="2.56327">
        <ele>234</ele>
        <time>2021-10-31T10:52:50.157Z</time>
      </trkpt>
      <trkpt lat="44.00053" lon="2.56327">
        <ele>234</ele>
        <time>2021-10-31T10:52:51.157Z</time>
      </trkpt>
      <trkpt lat="44.00055" lon="2.56327">
        <ele>234</ele>
        <time>2021-10-31T10:52:52.157Z</time>
      </trkpt>
      <trkpt lat="44.00055" lon="2.56327">
        <ele>234</ele>
        <time>2021-10-31T10:52:53.157Z</time>
      </trkpt>
      <trkpt lat="44.00056" lon="2.56328">
        <ele>235</ele>
        <time>2021-10-31T10:52:54.157Z</time>
      </trkpt>
      <trkpt lat="44.00058" lon="2.56329">
        <ele>235</ele>
        <time>2021-10-31T10:52:55.157Z</time>
      </trkpt>
      <trkpt lat="44.00059" lon="2.56329">
        <ele>235</ele>
        <time>2021-10-31T10:52:56.157Z</time>
      </trkpt>
      <trkpt lat="44.00059" lon="2.56329">
        <ele>235</ele>
        <time>2021-10-31T10:53:25.165Z</time>
      </trkpt>
      <trkpt lat="44.00061" lon="2.5633">
        <ele>235</ele>
        <time>2021-10-31T10:53:26.165Z</time>
      </trkpt>
      <trkpt lat="44.00062" lon="2.56331">
        <ele>235</ele>
        <time>2021-10-31T10:53:27.165Z</time>
      </trkpt>
      <trkpt lat="44.00063" lon="2.56331">
        <ele>235</ele>
        <time>2021-10-31T10:53:28.165Z</time>
      </trkpt>
      <trkpt lat="44.00063" lon="2.56331">
        <ele>235</ele>
        <time>2021-10-31T10:53:29.165Z</time>
      </trkpt>
      <trkpt lat="44.00065" lon="2.56333">
        <ele>235</ele>
        <time>2021-10-31T10:53:30.165Z</time>
      </trkpt>
      <trkpt lat="44.00066" lon="2.56333">
        <ele>235</ele>
        <time>2021-10-31T10:53:31.165Z</time>
      </trkpt>
      <trkpt lat="44.00068" lon="2.56333">
        <ele>236</ele>
        <time>2021-10-31T10:53:32.165Z</time>
      </trkpt>
      <trkpt lat="44.00069" lon="2.56334">
        <ele>236</ele>
        <time>2021-10-31T10:53:33.165Z</time>
      </trkpt>
      <trkpt lat="44.0007" lon="2.56334">
        <ele>236</ele>
        <time>2021-10-31T10:53:34.165Z</time>
      </trkpt>
      <trkpt lat="44.00071" lon="2.56334">
        <ele>236</ele>
        <time>2021-10-31T10:53:35.165Z</time>
      </trkpt>
      <trkpt lat="44.00072" lon="2.56334">
        <ele>236</ele>
        <time>2021-10-31T10:53:36.165Z</time>
      </trkpt>
      <trkpt lat="44.00073" lon="2.56334">
        <ele>236</ele>
        <time>2021-10-31T10:53:37.165Z</time>
      </trkpt>
      <trkpt lat="44.00074" lon="2.56334">
        <ele>236</ele>
        <time>2021-10-31T10:53:38.165Z</time>
      </trkpt>
      <trkpt lat="44.00076" lon="2.56334">
        <ele>236</ele>
        <time>2021-10-31T10:53:39.165Z</time>
      </trkpt>
      <trkpt lat="44.00077" lon="2.56334">
        <ele>236</ele>
        <time>2021-10-31T10:53:40.165Z</time>
      </trkpt>
      <trkpt lat="44.00078" lon="2.56334">
        <ele>237</ele>
        <time>2021-10-31T10:53:41.165Z</time>
      </trkpt>
      <trkpt lat="44.00079" lon="2.56334">
        <ele>237</ele>
        <time>2021-10-31T10:53:42.165Z</time>
      </trkpt>
      <trkpt lat="44.0008" lon="2.56334">
        <ele>237</ele>
        <time>2021-10-31T10:53:43.165Z</time>
      </trkpt>
      <trkpt lat="44.00082" lon="2.56334">
        <ele>237</ele>
        <time>2021-10-31T10:53:44.165Z</time>
      </trkpt>
      <trkpt lat="44.00082" lon="2.56334">
        <ele>237</ele>
        <time>2021-10-31T10:53:45.165Z</time>
      </trkpt>
      <trkpt lat="44.00083" lon="2.56334">
        <ele>237</ele>
        <time>2021-10-31T10:53:46.165Z</time>
      </trkpt>
      <trkpt lat="44.00084" lon="2.56334">
        <ele>237</ele>
        <time>2021-10-31T10:53:47.165Z</time>
      </trkpt>
      <trkpt lat="44.00085" lon="2.56334">
        <ele>237</ele>
        <time>2021-10-31T10:53:48.165Z</time>
      </trkpt>
      <trkpt lat="44.00087" lon="2.56334">
        <ele>237</ele>
        <time>2021-10-31T10:53:49.165Z</time>
      </trkpt>
      <trkpt lat="44.00089" lon="2.56335">
        <ele>237</ele>
        <time>2021-10-31T10:53:50.165Z</time>
      </trkpt>
      <trkpt lat="44.0009" lon="2.56335">
        <ele>237</ele>
        <time>2021-10-31T10:53:51.165Z</time>
      </trkpt>
      <trkpt lat="44.00091" lon="2.56335">
        <ele>237</ele>
        <time>2021-10-31T10:53:52.165Z</time>
      </trkpt>
      <trkpt lat="44.00092" lon="2.56336">
        <ele>238</ele>
        <time>2021-10-31T10:53:53.165Z</time>
      </trkpt>
      <trkpt lat="44.00092" lon="2.56336">
        <ele>238</ele>
        <time>2021-10-31T10:53:54.165Z</time>
      </trkpt>
      <trkpt lat="44.00094" lon="2.56337">
        <ele>238</ele>
        <time>2021-10-31T10:53:55.165Z</time>
      </trkpt>
      <trkpt lat="44.00095" lon="2.56337">
        <ele>238</ele>
        <time>2021-10-31T10:53:56.165Z</time>
      </trkpt>
      <trkpt lat="44.00096" lon="2.56337">
        <ele>238</ele>
        <time>2021-10-31T10:53:57.165Z</time>
      </trkpt>
      <trkpt lat="44.00097" lon="2.56337">
        <ele>238</ele>
        <time>2021-10-31T10:53:58.165Z</time>
      </trkpt>
      <trkpt lat="44.00099" lon="2.56337">
        <ele>238</ele>
        <time>2021-10-31T10:53:59.165Z</time>
      </trkpt>
      <trkpt lat="44.001" lon="2.56337">
        <ele>238</ele>
        <time>2021-10-31T10:54:00.165Z</time>
      </trkpt>
      <trkpt lat="44.00101" lon="2.56337">
        <ele>238</ele>
        <time>2021-10-31T10:54:01.165Z</time>
      </trkpt>
      <trkpt lat="44.00102" lon="2.56337">
        <ele>238</ele>
        <time>2021-10-31T10:54:02.165Z</time>
      </trkpt>
      <trkpt lat="44.00103" lon="2.56337">
        <ele>238</ele>
        <time>2021-10-31T10:54:03.165Z</time>
      </trkpt>
      <trkpt lat="44.00104" lon="2.56337">
        <ele>238</ele>
        <time>2021-10-31T10:54:04.165Z</time>
      </trkpt>
      <trkpt lat="44.00105" lon="2.56337">
        <ele>238</ele>
        <time>2021-10-31T10:54:05.165Z</time>
      </trkpt>
      <trkpt lat="44.00105" lon="2.56337">
        <ele>238</ele>
        <time>2021-10-31T10:54:06.165Z</time>
      </trkpt>
      <trkpt lat="44.00105" lon="2.56337">
        <ele>238</ele>
        <time>2021-10-31T10:54:07.165Z</time>
      </trkpt>
      <trkpt lat="44.00105" lon="2.56337">
        <ele>238</ele>
        <time>2021-10-31T10:54:08.165Z</time>
      </trkpt>
      <trkpt lat="44.00106" lon="2.56337">
        <ele>238</ele>
        <time>2021-10-31T10:54:09.165Z</time>
      </trkpt>
      <trkpt lat="44.00107" lon="2.56338">
        <ele>238</ele>
        <time>2021-10-31T10:54:10.165Z</time>
      </trkpt>
      <trkpt lat="44.00108" lon="2.56338">
        <ele>238</ele>
        <time>2021-10-31T10:54:11.165Z</time>
      </trkpt>
      <trkpt lat="44.00109" lon="2.56338">
        <ele>238</ele>
        <time>2021-10-31T10:54:12.165Z</time>
      </trkpt>
      <trkpt lat="44.0011" lon="2.56338">
        <ele>238</ele>
        <time>2021-10-31T10:54:13.165Z</time>
      </trkpt>
      <trkpt lat="44.00111" lon="2.56338">
        <ele>238</ele>
        <time>2021-10-31T10:54:14.165Z</time>
      </trkpt>
      <trkpt lat="44.00112" lon="2.56338">
        <ele>238</ele>
        <time>2021-10-31T10:54:15.165Z</time>
      </trkpt>
      <trkpt lat="44.00113" lon="2.56338">
        <ele>238</ele>
        <time>2021-10-31T10:54:16.165Z</time>
      </trkpt>
      <trkpt lat="44.00114" lon="2.56339">
        <ele>238</ele>
        <time>2021-10-31T10:54:17.165Z</time>
      </trkpt>
      <trkpt lat="44.00115" lon="2.56339">
        <ele>238</ele>
        <time>2021-10-31T10:54:18.165Z</time>
      </trkpt>
      <trkpt lat="44.00116" lon="2.56339">
        <ele>237</ele>
        <time>2021-10-31T10:54:19.165Z</time>
      </trkpt>
      <trkpt lat="44.00118" lon="2.5634">
        <ele>237</ele>
        <time>2021-10-31T10:54:20.165Z</time>
      </trkpt>
      <trkpt lat="44.00118" lon="2.5634">
        <ele>237</ele>
        <time>2021-10-31T10:54:21.165Z</time>
      </trkpt>
      <trkpt lat="44.00118" lon="2.5634">
        <ele>237</ele>
        <time>2021-10-31T10:54:22.165Z</time>
      </trkpt>
      <trkpt lat="44.00119" lon="2.56341">
        <ele>237</ele>
        <time>2021-10-31T10:54:23.165Z</time>
      </trkpt>
      <trkpt lat="44.0012" lon="2.56341">
        <ele>237</ele>
        <time>2021-10-31T10:54:24.165Z</time>
      </trkpt>
      <trkpt lat="44.00121" lon="2.56342">
        <ele>237</ele>
        <time>2021-10-31T10:54:25.165Z</time>
      </trkpt>
      <trkpt lat="44.00122" lon="2.56342">
        <ele>238</ele>
        <time>2021-10-31T10:54:26.165Z</time>
      </trkpt>
      <trkpt lat="44.00123" lon="2.56343">
        <ele>238</ele>
        <time>2021-10-31T10:54:27.165Z</time>
      </trkpt>
      <trkpt lat="44.00124" lon="2.56343">
        <ele>238</ele>
        <time>2021-10-31T10:54:28.165Z</time>
      </trkpt>
      <trkpt lat="44.00125" lon="2.56344">
        <ele>238</ele>
        <time>2021-10-31T10:54:29.165Z</time>
      </trkpt>
      <trkpt lat="44.00127" lon="2.56344">
        <ele>238</ele>
        <time>2021-10-31T10:54:30.165Z</time>
      </trkpt>
      <trkpt lat="44.00128" lon="2.56345">
        <ele>238</ele>
        <time>2021-10-31T10:54:31.165Z</time>
      </trkpt>
      <trkpt lat="44.00129" lon="2.56345">
        <ele>238</ele>
        <time>2021-10-31T10:54:32.165Z</time>
      </trkpt>
      <trkpt lat="44.00131" lon="2.56346">
        <ele>238</ele>
        <time>2021-10-31T10:54:33.165Z</time>
      </trkpt>
      <trkpt lat="44.00132" lon="2.56346">
        <ele>238</ele>
        <time>2021-10-31T10:54:34.165Z</time>
      </trkpt>
      <trkpt lat="44.00133" lon="2.56347">
        <ele>238</ele>
        <time>2021-10-31T10:54:35.165Z</time>
      </trkpt>
      <trkpt lat="44.00135" lon="2.56348">
        <ele>239</ele>
        <time>2021-10-31T10:54:36.165Z</time>
      </trkpt>
      <trkpt lat="44.00136" lon="2.56348">
        <ele>239</ele>
        <time>2021-10-31T10:54:37.165Z</time>
      </trkpt>
      <trkpt lat="44.00137" lon="2.56349">
        <ele>239</ele>
        <time>2021-10-31T10:54:38.165Z</time>
      </trkpt>
      <trkpt lat="44.00138" lon="2.5635">
        <ele>239</ele>
        <time>2021-10-31T10:54:39.165Z</time>
      </trkpt>
      <trkpt lat="44.00139" lon="2.56351">
        <ele>239</ele>
        <time>2021-10-31T10:54:40.165Z</time>
      </trkpt>
      <trkpt lat="44.0014" lon="2.56352">
        <ele>239</ele>
        <time>2021-10-31T10:54:41.165Z</time>
      </trkpt>
      <trkpt lat="44.00141" lon="2.56352">
        <ele>239</ele>
        <time>2021-10-31T10:54:42.165Z</time>
      </trkpt>
      <trkpt lat="44.00143" lon="2.56353">
        <ele>239</ele>
        <time>2021-10-31T10:54:43.165Z</time>
      </trkpt>
      <trkpt lat="44.00143" lon="2.56353">
        <ele>239</ele>
        <time>2021-10-31T10:54:44.165Z</time>
      </trkpt>
      <trkpt lat="44.00144" lon="2.56354">
        <ele>239</ele>
        <time>2021-10-31T10:54:45.165Z</time>
      </trkpt>
      <trkpt lat="44.00145" lon="2.56355">
        <ele>239</ele>
        <time>2021-10-31T10:54:46.165Z</time>
      </trkpt>
      <trkpt lat="44.00146" lon="2.56356">
        <ele>239</ele>
        <time>2021-10-31T10:54:47.165Z</time>
      </trkpt>
      <trkpt lat="44.00147" lon="2.56357">
        <ele>239</ele>
        <time>2021-10-31T10:54:48.165Z</time>
      </trkpt>
      <trkpt lat="44.00148" lon="2.56357">
        <ele>239</ele>
        <time>2021-10-31T10:54:49.165Z</time>
      </trkpt>
      <trkpt lat="44.00149" lon="2.56358">
        <ele>239</ele>
        <time>2021-10-31T10:54:50.165Z</time>
      </trkpt>
      <trkpt lat="44.0015" lon="2.56359">
        <ele>239</ele>
        <time>2021-10-31T10:54:51.165Z</time>
      </trkpt>
      <trkpt lat="44.00152" lon="2.5636">
        <ele>239</ele>
        <time>2021-10-31T10:54:52.165Z</time>
      </trkpt>
      <trkpt lat="44.00153" lon="2.5636">
        <ele>239</ele>
        <time>2021-10-31T10:54:53.165Z</time>
      </trkpt>
      <trkpt lat="44.00154" lon="2.56361">
        <ele>239</ele>
        <time>2021-10-31T10:54:54.165Z</time>
      </trkpt>
      <trkpt lat="44.00156" lon="2.56363">
        <ele>239</ele>
        <time>2021-10-31T10:54:55.165Z</time>
      </trkpt>
      <trkpt lat="44.00156" lon="2.56363">
        <ele>239</ele>
        <time>2021-10-31T10:54:56.165Z</time>
      </trkpt>
      <trkpt lat="44.00156" lon="2.56364">
        <ele>239</ele>
        <time>2021-10-31T10:54:57.165Z</time>
      </trkpt>
      <trkpt lat="44.00157" lon="2.56365">
        <ele>239</ele>
        <time>2021-10-31T10:54:58.165Z</time>
      </trkpt>
      <trkpt lat="44.00158" lon="2.56365">
        <ele>239</ele>
        <time>2021-10-31T10:54:59.165Z</time>
      </trkpt>
      <trkpt lat="44.00159" lon="2.56366">
        <ele>239</ele>
        <time>2021-10-31T10:55:00.165Z</time>
      </trkpt>
      <trkpt lat="44.0016" lon="2.56367">
        <ele>239</ele>
        <time>2021-10-31T10:55:01.165Z</time>
      </trkpt>
      <trkpt lat="44.00161" lon="2.56367">
        <ele>239</ele>
        <time>2021-10-31T10:55:02.165Z</time>
      </trkpt>
      <trkpt lat="44.00162" lon="2.56368">
        <ele>239</ele>
        <time>2021-10-31T10:55:03.165Z</time>
      </trkpt>
      <trkpt lat="44.00163" lon="2.56369">
        <ele>239</ele>
        <time>2021-10-31T10:55:04.165Z</time>
      </trkpt>
      <trkpt lat="44.00164" lon="2.5637">
        <ele>239</ele>
        <time>2021-10-31T10:55:05.165Z</time>
      </trkpt>
      <trkpt lat="44.00165" lon="2.5637">
        <ele>239</ele>
        <time>2021-10-31T10:55:06.165Z</time>
      </trkpt>
      <trkpt lat="44.00166" lon="2.56371">
        <ele>239</ele>
        <time>2021-10-31T10:55:07.165Z</time>
      </trkpt>
      <trkpt lat="44.00167" lon="2.56371">
        <ele>239</ele>
        <time>2021-10-31T10:55:08.165Z</time>
      </trkpt>
      <trkpt lat="44.00168" lon="2.56372">
        <ele>239</ele>
        <time>2021-10-31T10:55:09.165Z</time>
      </trkpt>
      <trkpt lat="44.00168" lon="2.56372">
        <ele>239</ele>
        <time>2021-10-31T10:55:10.165Z</time>
      </trkpt>
      <trkpt lat="44.00169" lon="2.56373">
        <ele>239</ele>
        <time>2021-10-31T10:55:11.165Z</time>
      </trkpt>
      <trkpt lat="44.0017" lon="2.56373">
        <ele>239</ele>
        <time>2021-10-31T10:55:12.165Z</time>
      </trkpt>
      <trkpt lat="44.00171" lon="2.56373">
        <ele>238</ele>
        <time>2021-10-31T10:55:13.165Z</time>
      </trkpt>
      <trkpt lat="44.00172" lon="2.56373">
        <ele>238</ele>
        <time>2021-10-31T10:55:14.165Z</time>
      </trkpt>
      <trkpt lat="44.00173" lon="2.56373">
        <ele>238</ele>
        <time>2021-10-31T10:55:15.165Z</time>
      </trkpt>
      <trkpt lat="44.00174" lon="2.56374">
        <ele>238</ele>
        <time>2021-10-31T10:55:16.165Z</time>
      </trkpt>
      <trkpt lat="44.00175" lon="2.56374">
        <ele>238</ele>
        <time>2021-10-31T10:55:17.165Z</time>
      </trkpt>
      <trkpt lat="44.00176" lon="2.56374">
        <ele>238</ele>
        <time>2021-10-31T10:55:18.165Z</time>
      </trkpt>
      <trkpt lat="44.00177" lon="2.56374">
        <ele>238</ele>
        <time>2021-10-31T10:55:19.165Z</time>
      </trkpt>
      <trkpt lat="44.00178" lon="2.56374">
        <ele>238</ele>
        <time>2021-10-31T10:55:20.165Z</time>
      </trkpt>
      <trkpt lat="44.00179" lon="2.56375">
        <ele>238</ele>
        <time>2021-10-31T10:55:21.165Z</time>
      </trkpt>
      <trkpt lat="44.0018" lon="2.56375">
        <ele>238</ele>
        <time>2021-10-31T10:55:22.165Z</time>
      </trkpt>
      <trkpt lat="44.00181" lon="2.56375">
        <ele>238</ele>
        <time>2021-10-31T10:55:23.165Z</time>
      </trkpt>
      <trkpt lat="44.00182" lon="2.56375">
        <ele>238</ele>
        <time>2021-10-31T10:55:24.165Z</time>
      </trkpt>
      <trkpt lat="44.00184" lon="2.56376">
        <ele>238</ele>
        <time>2021-10-31T10:55:25.165Z</time>
      </trkpt>
      <trkpt lat="44.00185" lon="2.56376">
        <ele>238</ele>
        <time>2021-10-31T10:55:26.165Z</time>
      </trkpt>
      <trkpt lat="44.00188" lon="2.56377">
        <ele>238</ele>
        <time>2021-10-31T10:55:27.165Z</time>
      </trkpt>
      <trkpt lat="44.00188" lon="2.56377">
        <ele>238</ele>
        <time>2021-10-31T10:55:28.165Z</time>
      </trkpt>
      <trkpt lat="44.00189" lon="2.56377">
        <ele>238</ele>
        <time>2021-10-31T10:55:29.165Z</time>
      </trkpt>
      <trkpt lat="44.0019" lon="2.56377">
        <ele>238</ele>
        <time>2021-10-31T10:55:30.165Z</time>
      </trkpt>
      <trkpt lat="44.00191" lon="2.56378">
        <ele>239</ele>
        <time>2021-10-31T10:55:31.165Z</time>
      </trkpt>
      <trkpt lat="44.00192" lon="2.56378">
        <ele>239</ele>
        <time>2021-10-31T10:55:32.165Z</time>
      </trkpt>
      <trkpt lat="44.00194" lon="2.56379">
        <ele>239</ele>
        <time>2021-10-31T10:55:33.165Z</time>
      </trkpt>
      <trkpt lat="44.00195" lon="2.56379">
        <ele>239</ele>
        <time>2021-10-31T10:55:34.165Z</time>
      </trkpt>
      <trkpt lat="44.00196" lon="2.56379">
        <ele>239</ele>
        <time>2021-10-31T10:55:35.165Z</time>
      </trkpt>
      <trkpt lat="44.00197" lon="2.5638">
        <ele>239</ele>
        <time>2021-10-31T10:55:36.165Z</time>
      </trkpt>
      <trkpt lat="44.00198" lon="2.56381">
        <ele>239</ele>
        <time>2021-10-31T10:55:37.165Z</time>
      </trkpt>
      <trkpt lat="44.002" lon="2.56381">
        <ele>239</ele>
        <time>2021-10-31T10:55:38.165Z</time>
      </trkpt>
      <trkpt lat="44.00201" lon="2.56382">
        <ele>239</ele>
        <time>2021-10-31T10:55:39.165Z</time>
      </trkpt>
      <trkpt lat="44.00202" lon="2.56382">
        <ele>239</ele>
        <time>2021-10-31T10:55:40.165Z</time>
      </trkpt>
      <trkpt lat="44.00203" lon="2.56383">
        <ele>239</ele>
        <time>2021-10-31T10:55:41.165Z</time>
      </trkpt>
      <trkpt lat="44.00204" lon="2.56383">
        <ele>239</ele>
        <time>2021-10-31T10:55:42.165Z</time>
      </trkpt>
      <trkpt lat="44.00205" lon="2.56384">
        <ele>239</ele>
        <time>2021-10-31T10:55:43.165Z</time>
      </trkpt>
      <trkpt lat="44.00206" lon="2.56384">
        <ele>239</ele>
        <time>2021-10-31T10:55:44.165Z</time>
      </trkpt>
      <trkpt lat="44.00207" lon="2.56385">
        <ele>239</ele>
        <time>2021-10-31T10:55:45.165Z</time>
      </trkpt>
      <trkpt lat="44.00208" lon="2.56385">
        <ele>239</ele>
        <time>2021-10-31T10:55:46.165Z</time>
      </trkpt>
      <trkpt lat="44.00209" lon="2.56386">
        <ele>239</ele>
        <time>2021-10-31T10:55:47.165Z</time>
      </trkpt>
      <trkpt lat="44.0021" lon="2.56387">
        <ele>239</ele>
        <time>2021-10-31T10:55:48.165Z</time>
      </trkpt>
      <trkpt lat="44.00211" lon="2.56387">
        <ele>239</ele>
        <time>2021-10-31T10:55:49.165Z</time>
      </trkpt>
      <trkpt lat="44.00212" lon="2.56388">
        <ele>239</ele>
        <time>2021-10-31T10:55:50.165Z</time>
      </trkpt>
      <trkpt lat="44.00213" lon="2.56389">
        <ele>239</ele>
        <time>2021-10-31T10:55:51.165Z</time>
      </trkpt>
      <trkpt lat="44.00214" lon="2.5639">
        <ele>239</ele>
        <time>2021-10-31T10:55:52.165Z</time>
      </trkpt>
      <trkpt lat="44.00215" lon="2.5639">
        <ele>239</ele>
        <time>2021-10-31T10:55:53.165Z</time>
      </trkpt>
      <trkpt lat="44.00216" lon="2.56391">
        <ele>239</ele>
        <time>2021-10-31T10:55:54.165Z</time>
      </trkpt>
      <trkpt lat="44.00217" lon="2.56392">
        <ele>238</ele>
        <time>2021-10-31T10:55:55.165Z</time>
      </trkpt>
      <trkpt lat="44.00218" lon="2.56393">
        <ele>238</ele>
        <time>2021-10-31T10:55:56.165Z</time>
      </trkpt>
      <trkpt lat="44.00219" lon="2.56393">
        <ele>238</ele>
        <time>2021-10-31T10:55:57.165Z</time>
      </trkpt>
      <trkpt lat="44.0022" lon="2.56394">
        <ele>238</ele>
        <time>2021-10-31T10:55:58.165Z</time>
      </trkpt>
      <trkpt lat="44.0022" lon="2.56395">
        <ele>238</ele>
        <time>2021-10-31T10:55:59.165Z</time>
      </trkpt>
      <trkpt lat="44.00221" lon="2.56396">
        <ele>238</ele>
        <time>2021-10-31T10:56:00.165Z</time>
      </trkpt>
      <trkpt lat="44.00222" lon="2.56397">
        <ele>238</ele>
        <time>2021-10-31T10:56:01.165Z</time>
      </trkpt>
      <trkpt lat="44.00223" lon="2.56398">
        <ele>237</ele>
        <time>2021-10-31T10:56:02.165Z</time>
      </trkpt>
      <trkpt lat="44.00224" lon="2.56399">
        <ele>237</ele>
        <time>2021-10-31T10:56:03.165Z</time>
      </trkpt>
      <trkpt lat="44.00225" lon="2.564">
        <ele>237</ele>
        <time>2021-10-31T10:56:04.165Z</time>
      </trkpt>
      <trkpt lat="44.00226" lon="2.56401">
        <ele>237</ele>
        <time>2021-10-31T10:56:05.165Z</time>
      </trkpt>
      <trkpt lat="44.00227" lon="2.56402">
        <ele>237</ele>
        <time>2021-10-31T10:56:06.165Z</time>
      </trkpt>
      <trkpt lat="44.00228" lon="2.56403">
        <ele>237</ele>
        <time>2021-10-31T10:56:07.165Z</time>
      </trkpt>
      <trkpt lat="44.00229" lon="2.56404">
        <ele>237</ele>
        <time>2021-10-31T10:56:08.165Z</time>
      </trkpt>
      <trkpt lat="44.00229" lon="2.56404">
        <ele>237</ele>
        <time>2021-10-31T10:56:09.165Z</time>
      </trkpt>
      <trkpt lat="44.0023" lon="2.56406">
        <ele>236</ele>
        <time>2021-10-31T10:56:10.165Z</time>
      </trkpt>
      <trkpt lat="44.00231" lon="2.56407">
        <ele>236</ele>
        <time>2021-10-31T10:56:11.165Z</time>
      </trkpt>
      <trkpt lat="44.00232" lon="2.56408">
        <ele>236</ele>
        <time>2021-10-31T10:56:12.165Z</time>
      </trkpt>
      <trkpt lat="44.00232" lon="2.56409">
        <ele>236</ele>
        <time>2021-10-31T10:56:13.165Z</time>
      </trkpt>
      <trkpt lat="44.00233" lon="2.5641">
        <ele>236</ele>
        <time>2021-10-31T10:56:14.165Z</time>
      </trkpt>
      <trkpt lat="44.00234" lon="2.56411">
        <ele>236</ele>
        <time>2021-10-31T10:56:15.165Z</time>
      </trkpt>
      <trkpt lat="44.00235" lon="2.56412">
        <ele>235</ele>
        <time>2021-10-31T10:56:16.165Z</time>
      </trkpt>
      <trkpt lat="44.00236" lon="2.56413">
        <ele>235</ele>
        <time>2021-10-31T10:56:17.165Z</time>
      </trkpt>
      <trkpt lat="44.00236" lon="2.56414">
        <ele>235</ele>
        <time>2021-10-31T10:56:18.165Z</time>
      </trkpt>
      <trkpt lat="44.00237" lon="2.56415">
        <ele>234</ele>
        <time>2021-10-31T10:56:19.165Z</time>
      </trkpt>
      <trkpt lat="44.00238" lon="2.56417">
        <ele>234</ele>
        <time>2021-10-31T10:56:20.165Z</time>
      </trkpt>
      <trkpt lat="44.00238" lon="2.56418">
        <ele>234</ele>
        <time>2021-10-31T10:56:21.165Z</time>
      </trkpt>
      <trkpt lat="44.00239" lon="2.56419">
        <ele>234</ele>
        <time>2021-10-31T10:56:22.165Z</time>
      </trkpt>
      <trkpt lat="44.0024" lon="2.5642">
        <ele>233</ele>
        <time>2021-10-31T10:56:23.165Z</time>
      </trkpt>
      <trkpt lat="44.00241" lon="2.56421">
        <ele>233</ele>
        <time>2021-10-31T10:56:24.165Z</time>
      </trkpt>
      <trkpt lat="44.00242" lon="2.56422">
        <ele>233</ele>
        <time>2021-10-31T10:56:25.165Z</time>
      </trkpt>
      <trkpt lat="44.00242" lon="2.56424">
        <ele>233</ele>
        <time>2021-10-31T10:56:26.165Z</time>
      </trkpt>
      <trkpt lat="44.00243" lon="2.56425">
        <ele>233</ele>
        <time>2021-10-31T10:56:55.173Z</time>
      </trkpt>
      <trkpt lat="44.00244" lon="2.56426">
        <ele>233</ele>
        <time>2021-10-31T10:56:56.173Z</time>
      </trkpt>
      <trkpt lat="44.00244" lon="2.56427">
        <ele>233</ele>
        <time>2021-10-31T10:56:57.173Z</time>
      </trkpt>
      <trkpt lat="44.00245" lon="2.56428">
        <ele>233</ele>
        <time>2021-10-31T10:56:58.173Z</time>
      </trkpt>
      <trkpt lat="44.00245" lon="2.5643">
        <ele>233</ele>
        <time>2021-10-31T10:56:59.173Z</time>
      </trkpt>
      <trkpt lat="44.00246" lon="2.56431">
        <ele>233</ele>
        <time>2021-10-31T10:57:02.428Z</time>
      </trkpt>
      <trkpt lat="44.00247" lon="2.56432">
        <ele>232</ele>
        <time>2021-10-31T10:57:03.428Z</time>
      </trkpt>
      <trkpt lat="44.00247" lon="2.56433">
        <ele>232</ele>
        <time>2021-10-31T10:57:04.428Z</time>
      </trkpt>
      <trkpt lat="44.00248" lon="2.56434">
        <ele>232</ele>
        <time>2021-10-31T10:57:05.428Z</time>
      </trkpt>
      <trkpt lat="44.00248" lon="2.56435">
        <ele>232</ele>
        <time>2021-10-31T10:57:06.428Z</time>
      </trkpt>
      <trkpt lat="44.00249" lon="2.56436">
        <ele>232</ele>
        <time>2021-10-31T10:57:07.428Z</time>
      </trkpt>
      <trkpt lat="44.0025" lon="2.56437">
        <ele>232</ele>
        <time>2021-10-31T10:57:08.428Z</time>
      </trkpt>
      <trkpt lat="44.0025" lon="2.56438">
        <ele>232</ele>
        <time>2021-10-31T10:57:09.428Z</time>
      </trkpt>
      <trkpt lat="44.00251" lon="2.56439">
        <ele>232</ele>
        <time>2021-10-31T10:57:10.428Z</time>
      </trkpt>
      <trkpt lat="44.00252" lon="2.56441">
        <ele>232</ele>
        <time>2021-10-31T10:57:11.428Z</time>
      </trkpt>
      <trkpt lat="44.00252" lon="2.56442">
        <ele>232</ele>
        <time>2021-10-31T10:57:12.428Z</time>
      </trkpt>
      <trkpt lat="44.00253" lon="2.56443">
        <ele>232</ele>
        <time>2021-10-31T10:57:13.428Z</time>
      </trkpt>
      <trkpt lat="44.00254" lon="2.56444">
        <ele>232</ele>
        <time>2021-10-31T10:57:14.428Z</time>
      </trkpt>
      <trkpt lat="44.00254" lon="2.56445">
        <ele>232</ele>
        <time>2021-10-31T10:57:15.428Z</time>
      </trkpt>
      <trkpt lat="44.00255" lon="2.56446">
        <ele>232</ele>
        <time>2021-10-31T10:57:16.428Z</time>
      </trkpt>
      <trkpt lat="44.00255" lon="2.56447">
        <ele>232</ele>
        <time>2021-10-31T10:57:17.428Z</time>
      </trkpt>
      <trkpt lat="44.00256" lon="2.56449">
        <ele>231</ele>
        <time>2021-10-31T10:57:18.428Z</time>
      </trkpt>
      <trkpt lat="44.00256" lon="2.5645">
        <ele>231</ele>
        <time>2021-10-31T10:57:19.428Z</time>
      </trkpt>
      <trkpt lat="44.00256" lon="2.5645">
        <ele>231</ele>
        <time>2021-10-31T10:57:20.428Z</time>
      </trkpt>
      <trkpt lat="44.00256" lon="2.5645">
        <ele>231</ele>
        <time>2021-10-31T10:57:21.428Z</time>
      </trkpt>
      <trkpt lat="44.00256" lon="2.56449">
        <ele>231</ele>
        <time>2021-10-31T10:57:22.428Z</time>
      </trkpt>
      <trkpt lat="44.00256" lon="2.56449">
        <ele>231</ele>
        <time>2021-10-31T10:57:23.428Z</time>
      </trkpt>
      <trkpt lat="44.00256" lon="2.56449">
        <ele>231</ele>
        <time>2021-10-31T10:57:24.428Z</time>
      </trkpt>
      <trkpt lat="44.00257" lon="2.56452">
        <ele>231</ele>
        <time>2021-10-31T10:57:25.428Z</time>
      </trkpt>
      <trkpt lat="44.00257" lon="2.56453">
        <ele>231</ele>
        <time>2021-10-31T10:57:26.428Z</time>
      </trkpt>
      <trkpt lat="44.00258" lon="2.56454">
        <ele>231</ele>
        <time>2021-10-31T10:57:27.428Z</time>
      </trkpt>
      <trkpt lat="44.00258" lon="2.56454">
        <ele>232</ele>
        <time>2021-10-31T10:57:28.428Z</time>
      </trkpt>
      <trkpt lat="44.00258" lon="2.56454">
        <ele>232</ele>
        <time>2021-10-31T10:57:29.428Z</time>
      </trkpt>
      <trkpt lat="44.00259" lon="2.56455">
        <ele>232</ele>
        <time>2021-10-31T10:57:30.428Z</time>
      </trkpt>
      <trkpt lat="44.0026" lon="2.56456">
        <ele>232</ele>
        <time>2021-10-31T10:57:31.428Z</time>
      </trkpt>
      <trkpt lat="44.00261" lon="2.56457">
        <ele>232</ele>
        <time>2021-10-31T10:57:32.428Z</time>
      </trkpt>
      <trkpt lat="44.00261" lon="2.56459">
        <ele>231</ele>
        <time>2021-10-31T10:57:33.428Z</time>
      </trkpt>
      <trkpt lat="44.00262" lon="2.56461">
        <ele>231</ele>
        <time>2021-10-31T10:57:34.428Z</time>
      </trkpt>
      <trkpt lat="44.00262" lon="2.56463">
        <ele>231</ele>
        <time>2021-10-31T10:57:35.428Z</time>
      </trkpt>
      <trkpt lat="44.00263" lon="2.56464">
        <ele>231</ele>
        <time>2021-10-31T10:57:36.428Z</time>
      </trkpt>
      <trkpt lat="44.00264" lon="2.56466">
        <ele>231</ele>
        <time>2021-10-31T10:57:37.428Z</time>
      </trkpt>
      <trkpt lat="44.00264" lon="2.56467">
        <ele>231</ele>
        <time>2021-10-31T10:57:38.428Z</time>
      </trkpt>
      <trkpt lat="44.00265" lon="2.56469">
        <ele>231</ele>
        <time>2021-10-31T10:57:43.433Z</time>
      </trkpt>
      <trkpt lat="44.00266" lon="2.5647">
        <ele>231</ele>
        <time>2021-10-31T10:57:44.433Z</time>
      </trkpt>
      <trkpt lat="44.00266" lon="2.56472">
        <ele>231</ele>
        <time>2021-10-31T10:57:45.433Z</time>
      </trkpt>
      <trkpt lat="44.00267" lon="2.56474">
        <ele>231</ele>
        <time>2021-10-31T10:57:46.433Z</time>
      </trkpt>
      <trkpt lat="44.00267" lon="2.56475">
        <ele>231</ele>
        <time>2021-10-31T10:57:47.433Z</time>
      </trkpt>
      <trkpt lat="44.00268" lon="2.56477">
        <ele>231</ele>
        <time>2021-10-31T10:57:48.433Z</time>
      </trkpt>
      <trkpt lat="44.00269" lon="2.56479">
        <ele>231</ele>
        <time>2021-10-31T10:57:49.433Z</time>
      </trkpt>
      <trkpt lat="44.00269" lon="2.5648">
        <ele>231</ele>
        <time>2021-10-31T10:57:50.433Z</time>
      </trkpt>
      <trkpt lat="44.0027" lon="2.56482">
        <ele>231</ele>
        <time>2021-10-31T10:57:51.433Z</time>
      </trkpt>
      <trkpt lat="44.0027" lon="2.56483">
        <ele>231</ele>
        <time>2021-10-31T10:57:52.433Z</time>
      </trkpt>
      <trkpt lat="44.00271" lon="2.56485">
        <ele>231</ele>
        <time>2021-10-31T10:57:53.433Z</time>
      </trkpt>
      <trkpt lat="44.00272" lon="2.56486">
        <ele>231</ele>
        <time>2021-10-31T10:57:54.433Z</time>
      </trkpt>
      <trkpt lat="44.00273" lon="2.56488">
        <ele>231</ele>
        <time>2021-10-31T10:57:55.433Z</time>
      </trkpt>
      <trkpt lat="44.00273" lon="2.56489">
        <ele>231</ele>
        <time>2021-10-31T10:57:56.433Z</time>
      </trkpt>
      <trkpt lat="44.00274" lon="2.56491">
        <ele>231</ele>
        <time>2021-10-31T10:57:57.433Z</time>
      </trkpt>
      <trkpt lat="44.00275" lon="2.56492">
        <ele>231</ele>
        <time>2021-10-31T10:57:58.433Z</time>
      </trkpt>
      <trkpt lat="44.00275" lon="2.56494">
        <ele>231</ele>
        <time>2021-10-31T10:57:59.433Z</time>
      </trkpt>
      <trkpt lat="44.00276" lon="2.56495">
        <ele>231</ele>
        <time>2021-10-31T10:58:00.433Z</time>
      </trkpt>
      <trkpt lat="44.00277" lon="2.56497">
        <ele>231</ele>
        <time>2021-10-31T10:58:01.433Z</time>
      </trkpt>
      <trkpt lat="44.00278" lon="2.56498">
        <ele>231</ele>
        <time>2021-10-31T10:58:02.433Z</time>
      </trkpt>
      <trkpt lat="44.00278" lon="2.565">
        <ele>231</ele>
        <time>2021-10-31T10:58:03.433Z</time>
      </trkpt>
      <trkpt lat="44.00279" lon="2.56501">
        <ele>231</ele>
        <time>2021-10-31T10:58:04.433Z</time>
      </trkpt>
      <trkpt lat="44.00279" lon="2.56503">
        <ele>231</ele>
        <time>2021-10-31T10:58:05.433Z</time>
      </trkpt>
      <trkpt lat="44.0028" lon="2.56504">
        <ele>231</ele>
        <time>2021-10-31T10:58:06.433Z</time>
      </trkpt>
      <trkpt lat="44.0028" lon="2.56506">
        <ele>231</ele>
        <time>2021-10-31T10:58:07.433Z</time>
      </trkpt>
      <trkpt lat="44.00281" lon="2.56507">
        <ele>231</ele>
        <time>2021-10-31T10:58:08.433Z</time>
      </trkpt>
      <trkpt lat="44.00281" lon="2.56508">
        <ele>230</ele>
        <time>2021-10-31T10:58:09.433Z</time>
      </trkpt>
      <trkpt lat="44.00281" lon="2.56509">
        <ele>230</ele>
        <time>2021-10-31T10:58:10.433Z</time>
      </trkpt>
      <trkpt lat="44.00282" lon="2.56511">
        <ele>230</ele>
        <time>2021-10-31T10:58:11.433Z</time>
      </trkpt>
      <trkpt lat="44.00282" lon="2.56512">
        <ele>230</ele>
        <time>2021-10-31T10:58:12.433Z</time>
      </trkpt>
      <trkpt lat="44.00282" lon="2.56513">
        <ele>230</ele>
        <time>2021-10-31T10:58:13.433Z</time>
      </trkpt>
      <trkpt lat="44.00283" lon="2.56514">
        <ele>230</ele>
        <time>2021-10-31T10:58:14.433Z</time>
      </trkpt>
      <trkpt lat="44.00283" lon="2.56516">
        <ele>230</ele>
        <time>2021-10-31T10:58:15.433Z</time>
      </trkpt>
      <trkpt lat="44.00283" lon="2.56517">
        <ele>230</ele>
        <time>2021-10-31T10:58:16.433Z</time>
      </trkpt>
      <trkpt lat="44.00283" lon="2.56519">
        <ele>230</ele>
        <time>2021-10-31T10:58:17.433Z</time>
      </trkpt>
      <trkpt lat="44.00284" lon="2.56521">
        <ele>230</ele>
        <time>2021-10-31T10:58:18.433Z</time>
      </trkpt>
      <trkpt lat="44.00284" lon="2.56522">
        <ele>230</ele>
        <time>2021-10-31T10:58:19.433Z</time>
      </trkpt>
      <trkpt lat="44.00285" lon="2.56524">
        <ele>230</ele>
        <time>2021-10-31T10:58:20.433Z</time>
      </trkpt>
      <trkpt lat="44.00285" lon="2.56526">
        <ele>230</ele>
        <time>2021-10-31T10:58:21.433Z</time>
      </trkpt>
      <trkpt lat="44.00285" lon="2.56527">
        <ele>230</ele>
        <time>2021-10-31T10:58:22.433Z</time>
      </trkpt>
      <trkpt lat="44.00286" lon="2.56529">
        <ele>230</ele>
        <time>2021-10-31T10:58:23.433Z</time>
      </trkpt>
      <trkpt lat="44.00286" lon="2.56531">
        <ele>230</ele>
        <time>2021-10-31T10:58:50.439Z</time>
      </trkpt>
      <trkpt lat="44.00286" lon="2.56532">
        <ele>230</ele>
        <time>2021-10-31T10:58:51.439Z</time>
      </trkpt>
      <trkpt lat="44.00286" lon="2.56534">
        <ele>230</ele>
        <time>2021-10-31T10:58:52.439Z</time>
      </trkpt>
      <trkpt lat="44.00287" lon="2.56535">
        <ele>231</ele>
        <time>2021-10-31T10:58:53.439Z</time>
      </trkpt>
      <trkpt lat="44.00287" lon="2.56536">
        <ele>231</ele>
        <time>2021-10-31T10:58:54.439Z</time>
      </trkpt>
      <trkpt lat="44.00287" lon="2.56536">
        <ele>231</ele>
        <time>2021-10-31T10:58:55.439Z</time>
      </trkpt>
      <trkpt lat="44.00287" lon="2.56537">
        <ele>231</ele>
        <time>2021-10-31T10:58:56.439Z</time>
      </trkpt>
      <trkpt lat="44.00287" lon="2.56537">
        <ele>231</ele>
        <time>2021-10-31T10:59:12.465Z</time>
      </trkpt>
      <trkpt lat="44.00287" lon="2.56537">
        <ele>231</ele>
        <time>2021-10-31T10:59:13.465Z</time>
      </trkpt>
      <trkpt lat="44.00288" lon="2.56538">
        <ele>232</ele>
        <time>2021-10-31T10:59:14.465Z</time>
      </trkpt>
      <trkpt lat="44.00288" lon="2.56539">
        <ele>232</ele>
        <time>2021-10-31T10:59:15.465Z</time>
      </trkpt>
      <trkpt lat="44.00288" lon="2.5654">
        <ele>232</ele>
        <time>2021-10-31T10:59:16.465Z</time>
      </trkpt>
      <trkpt lat="44.00288" lon="2.56541">
        <ele>232</ele>
        <time>2021-10-31T10:59:17.465Z</time>
      </trkpt>
      <trkpt lat="44.00289" lon="2.56543">
        <ele>232</ele>
        <time>2021-10-31T10:59:18.465Z</time>
      </trkpt>
      <trkpt lat="44.00289" lon="2.56544">
        <ele>232</ele>
        <time>2021-10-31T10:59:19.465Z</time>
      </trkpt>
      <trkpt lat="44.0029" lon="2.56546">
        <ele>232</ele>
        <time>2021-10-31T10:59:20.465Z</time>
      </trkpt>
      <trkpt lat="44.0029" lon="2.56547">
        <ele>232</ele>
        <time>2021-10-31T10:59:21.465Z</time>
      </trkpt>
      <trkpt lat="44.00291" lon="2.56549">
        <ele>232</ele>
        <time>2021-10-31T10:59:22.465Z</time>
      </trkpt>
      <trkpt lat="44.00291" lon="2.5655">
        <ele>232</ele>
        <time>2021-10-31T10:59:23.465Z</time>
      </trkpt>
      <trkpt lat="44.00292" lon="2.56552">
        <ele>232</ele>
        <time>2021-10-31T10:59:24.465Z</time>
      </trkpt>
      <trkpt lat="44.00292" lon="2.56554">
        <ele>232</ele>
        <time>2021-10-31T10:59:25.465Z</time>
      </trkpt>
      <trkpt lat="44.00293" lon="2.56555">
        <ele>232</ele>
        <time>2021-10-31T10:59:26.465Z</time>
      </trkpt>
      <trkpt lat="44.00294" lon="2.56557">
        <ele>232</ele>
        <time>2021-10-31T11:00:20.472Z</time>
      </trkpt>
      <trkpt lat="44.00294" lon="2.56559">
        <ele>232</ele>
        <time>2021-10-31T11:00:21.472Z</time>
      </trkpt>
      <trkpt lat="44.00295" lon="2.5656">
        <ele>232</ele>
        <time>2021-10-31T11:00:22.472Z</time>
      </trkpt>
      <trkpt lat="44.00295" lon="2.56562">
        <ele>232</ele>
        <time>2021-10-31T11:00:23.472Z</time>
      </trkpt>
      <trkpt lat="44.00296" lon="2.56564">
        <ele>232</ele>
        <time>2021-10-31T11:00:24.472Z</time>
      </trkpt>
      <trkpt lat="44.00296" lon="2.56565">
        <ele>232</ele>
        <time>2021-10-31T11:00:25.472Z</time>
      </trkpt>
      <trkpt lat="44.00296" lon="2.56567">
        <ele>232</ele>
        <time>2021-10-31T11:00:26.472Z</time>
      </trkpt>
      <trkpt lat="44.00297" lon="2.56568">
        <ele>232</ele>
        <time>2021-10-31T11:00:27.472Z</time>
      </trkpt>
      <trkpt lat="44.00297" lon="2.5657">
        <ele>232</ele>
        <time>2021-10-31T11:00:28.472Z</time>
      </trkpt>
      <trkpt lat="44.00297" lon="2.56572">
        <ele>231</ele>
        <time>2021-10-31T11:00:29.472Z</time>
      </trkpt>
      <trkpt lat="44.00298" lon="2.56573">
        <ele>231</ele>
        <time>2021-10-31T11:00:30.472Z</time>
      </trkpt>
      <trkpt lat="44.00299" lon="2.56575">
        <ele>231</ele>
        <time>2021-10-31T11:00:34.499Z</time>
      </trkpt>
      <trkpt lat="44.00299" lon="2.56577">
        <ele>231</ele>
        <time>2021-10-31T11:00:35.499Z</time>
      </trkpt>
      <trkpt lat="44.00299" lon="2.56578">
        <ele>231</ele>
        <time>2021-10-31T11:00:36.499Z</time>
      </trkpt>
      <trkpt lat="44.003" lon="2.5658">
        <ele>231</ele>
        <time>2021-10-31T11:00:37.499Z</time>
      </trkpt>
      <trkpt lat="44.003" lon="2.56582">
        <ele>231</ele>
        <time>2021-10-31T11:00:38.499Z</time>
      </trkpt>
      <trkpt lat="44.00301" lon="2.56583">
        <ele>232</ele>
        <time>2021-10-31T11:00:39.499Z</time>
      </trkpt>
      <trkpt lat="44.00301" lon="2.56585">
        <ele>232</ele>
        <time>2021-10-31T11:00:49.491Z</time>
      </trkpt>
      <trkpt lat="44.00301" lon="2.56586">
        <ele>232</ele>
        <time>2021-10-31T11:00:50.491Z</time>
      </trkpt>
      <trkpt lat="44.00301" lon="2.56588">
        <ele>232</ele>
        <time>2021-10-31T11:00:51.491Z</time>
      </trkpt>
      <trkpt lat="44.00302" lon="2.5659">
        <ele>232</ele>
        <time>2021-10-31T11:00:52.491Z</time>
      </trkpt>
      <trkpt lat="44.00302" lon="2.56591">
        <ele>231</ele>
        <time>2021-10-31T11:00:53.491Z</time>
      </trkpt>
      <trkpt lat="44.00302" lon="2.56593">
        <ele>231</ele>
        <time>2021-10-31T11:00:54.491Z</time>
      </trkpt>
      <trkpt lat="44.00303" lon="2.56595">
        <ele>231</ele>
        <time>2021-10-31T11:00:55.491Z</time>
      </trkpt>
      <trkpt lat="44.00303" lon="2.56596">
        <ele>231</ele>
        <time>2021-10-31T11:00:56.491Z</time>
      </trkpt>
      <trkpt lat="44.00303" lon="2.56598">
        <ele>231</ele>
        <time>2021-10-31T11:00:57.491Z</time>
      </trkpt>
      <trkpt lat="44.00304" lon="2.56599">
        <ele>231</ele>
        <time>2021-10-31T11:00:58.491Z</time>
      </trkpt>
      <trkpt lat="44.00304" lon="2.56601">
        <ele>231</ele>
        <time>2021-10-31T11:00:59.491Z</time>
      </trkpt>
      <trkpt lat="44.00304" lon="2.56602">
        <ele>231</ele>
        <time>2021-10-31T11:01:00.491Z</time>
      </trkpt>
      <trkpt lat="44.00304" lon="2.56604">
        <ele>231</ele>
        <time>2021-10-31T11:01:01.491Z</time>
      </trkpt>
      <trkpt lat="44.00304" lon="2.56606">
        <ele>231</ele>
        <time>2021-10-31T11:01:02.491Z</time>
      </trkpt>
      <trkpt lat="44.00305" lon="2.56607">
        <ele>231</ele>
        <time>2021-10-31T11:01:03.491Z</time>
      </trkpt>
      <trkpt lat="44.00305" lon="2.56609">
        <ele>231</ele>
        <time>2021-10-31T11:01:06.773Z</time>
      </trkpt>
      <trkpt lat="44.00305" lon="2.56611">
        <ele>231</ele>
        <time>2021-10-31T11:01:07.773Z</time>
      </trkpt>
      <trkpt lat="44.00306" lon="2.56613">
        <ele>231</ele>
        <time>2021-10-31T11:01:08.773Z</time>
      </trkpt>
      <trkpt lat="44.00306" lon="2.56615">
        <ele>231</ele>
        <time>2021-10-31T11:01:09.773Z</time>
      </trkpt>
      <trkpt lat="44.00306" lon="2.56616">
        <ele>231</ele>
        <time>2021-10-31T11:01:10.773Z</time>
      </trkpt>
      <trkpt lat="44.00306" lon="2.56618">
        <ele>231</ele>
        <time>2021-10-31T11:01:11.773Z</time>
      </trkpt>
      <trkpt lat="44.00307" lon="2.56619">
        <ele>231</ele>
        <time>2021-10-31T11:01:12.773Z</time>
      </trkpt>
      <trkpt lat="44.00307" lon="2.56621">
        <ele>231</ele>
        <time>2021-10-31T11:01:13.773Z</time>
      </trkpt>
      <trkpt lat="44.00307" lon="2.56623">
        <ele>231</ele>
        <time>2021-10-31T11:01:23.781Z</time>
      </trkpt>
      <trkpt lat="44.00307" lon="2.56625">
        <ele>231</ele>
        <time>2021-10-31T11:01:24.781Z</time>
      </trkpt>
      <trkpt lat="44.00307" lon="2.56627">
        <ele>230</ele>
        <time>2021-10-31T11:01:25.781Z</time>
      </trkpt>
      <trkpt lat="44.00308" lon="2.56628">
        <ele>230</ele>
        <time>2021-10-31T11:01:26.781Z</time>
      </trkpt>
      <trkpt lat="44.00308" lon="2.5663">
        <ele>230</ele>
        <time>2021-10-31T11:01:27.781Z</time>
      </trkpt>
      <trkpt lat="44.00308" lon="2.56632">
        <ele>230</ele>
        <time>2021-10-31T11:01:28.781Z</time>
      </trkpt>
      <trkpt lat="44.00308" lon="2.56633">
        <ele>230</ele>
        <time>2021-10-31T11:01:29.781Z</time>
      </trkpt>
      <trkpt lat="44.00308" lon="2.56635">
        <ele>230</ele>
        <time>2021-10-31T11:01:30.781Z</time>
      </trkpt>
      <trkpt lat="44.00308" lon="2.56637">
        <ele>230</ele>
        <time>2021-10-31T11:01:31.781Z</time>
      </trkpt>
      <trkpt lat="44.00308" lon="2.56639">
        <ele>230</ele>
        <time>2021-10-31T11:01:32.781Z</time>
      </trkpt>
      <trkpt lat="44.00309" lon="2.5664">
        <ele>230</ele>
        <time>2021-10-31T11:01:33.781Z</time>
      </trkpt>
      <trkpt lat="44.00309" lon="2.56642">
        <ele>230</ele>
        <time>2021-10-31T11:01:34.781Z</time>
      </trkpt>
      <trkpt lat="44.00309" lon="2.56644">
        <ele>230</ele>
        <time>2021-10-31T11:01:35.781Z</time>
      </trkpt>
      <trkpt lat="44.00309" lon="2.56645">
        <ele>230</ele>
        <time>2021-10-31T11:01:36.781Z</time>
      </trkpt>
      <trkpt lat="44.00309" lon="2.56647">
        <ele>230</ele>
        <time>2021-10-31T11:01:37.781Z</time>
      </trkpt>
      <trkpt lat="44.00309" lon="2.56649">
        <ele>230</ele>
        <time>2021-10-31T11:01:38.781Z</time>
      </trkpt>
      <trkpt lat="44.00309" lon="2.56651">
        <ele>230</ele>
        <time>2021-10-31T11:01:39.781Z</time>
      </trkpt>
      <trkpt lat="44.00309" lon="2.56653">
        <ele>230</ele>
        <time>2021-10-31T11:01:40.781Z</time>
      </trkpt>
      <trkpt lat="44.00309" lon="2.56654">
        <ele>230</ele>
        <time>2021-10-31T11:01:41.781Z</time>
      </trkpt>
      <trkpt lat="44.00309" lon="2.56656">
        <ele>230</ele>
        <time>2021-10-31T11:01:42.781Z</time>
      </trkpt>
      <trkpt lat="44.00309" lon="2.56658">
        <ele>230</ele>
        <time>2021-10-31T11:01:43.781Z</time>
      </trkpt>
      <trkpt lat="44.00309" lon="2.56659">
        <ele>230</ele>
        <time>2021-10-31T11:01:44.781Z</time>
      </trkpt>
      <trkpt lat="44.00309" lon="2.56661">
        <ele>230</ele>
        <time>2021-10-31T11:01:45.781Z</time>
      </trkpt>
      <trkpt lat="44.00309" lon="2.56663">
        <ele>230</ele>
        <time>2021-10-31T11:01:46.781Z</time>
      </trkpt>
      <trkpt lat="44.00309" lon="2.56665">
        <ele>230</ele>
        <time>2021-10-31T11:01:50.037Z</time>
      </trkpt>
      <trkpt lat="44.00309" lon="2.56666">
        <ele>230</ele>
        <time>2021-10-31T11:01:51.037Z</time>
      </trkpt>
      <trkpt lat="44.00309" lon="2.56668">
        <ele>230</ele>
        <time>2021-10-31T11:01:52.037Z</time>
      </trkpt>
      <trkpt lat="44.00309" lon="2.5667">
        <ele>230</ele>
        <time>2021-10-31T11:01:53.037Z</time>
      </trkpt>
      <trkpt lat="44.00309" lon="2.56671">
        <ele>230</ele>
        <time>2021-10-31T11:01:54.037Z</time>
      </trkpt>
      <trkpt lat="44.00309" lon="2.56673">
        <ele>230</ele>
        <time>2021-10-31T11:01:55.037Z</time>
      </trkpt>
      <trkpt lat="44.00309" lon="2.56674">
        <ele>230</ele>
        <time>2021-10-31T11:01:56.037Z</time>
      </trkpt>
      <trkpt lat="44.00309" lon="2.56676">
        <ele>230</ele>
        <time>2021-10-31T11:01:57.037Z</time>
      </trkpt>
      <trkpt lat="44.00309" lon="2.56678">
        <ele>230</ele>
        <time>2021-10-31T11:01:58.037Z</time>
      </trkpt>
      <trkpt lat="44.00309" lon="2.5668">
        <ele>230</ele>
        <time>2021-10-31T11:01:59.037Z</time>
      </trkpt>
      <trkpt lat="44.00309" lon="2.56681">
        <ele>230</ele>
        <time>2021-10-31T11:02:00.037Z</time>
      </trkpt>
      <trkpt lat="44.00309" lon="2.56683">
        <ele>230</ele>
        <time>2021-10-31T11:02:01.037Z</time>
      </trkpt>
      <trkpt lat="44.00309" lon="2.56684">
        <ele>230</ele>
        <time>2021-10-31T11:02:02.037Z</time>
      </trkpt>
      <trkpt lat="44.00309" lon="2.56686">
        <ele>230</ele>
        <time>2021-10-31T11:02:03.037Z</time>
      </trkpt>
      <trkpt lat="44.00309" lon="2.56688">
        <ele>230</ele>
        <time>2021-10-31T11:02:04.037Z</time>
      </trkpt>
      <trkpt lat="44.00309" lon="2.5669">
        <ele>230</ele>
        <time>2021-10-31T11:02:05.037Z</time>
      </trkpt>
      <trkpt lat="44.00309" lon="2.56691">
        <ele>230</ele>
        <time>2021-10-31T11:02:06.037Z</time>
      </trkpt>
      <trkpt lat="44.00309" lon="2.56693">
        <ele>230</ele>
        <time>2021-10-31T11:02:07.037Z</time>
      </trkpt>
      <trkpt lat="44.00309" lon="2.56695">
        <ele>230</ele>
        <time>2021-10-31T11:02:08.037Z</time>
      </trkpt>
      <trkpt lat="44.00309" lon="2.56696">
        <ele>230</ele>
        <time>2021-10-31T11:02:09.037Z</time>
      </trkpt>
      <trkpt lat="44.00309" lon="2.56698">
        <ele>230</ele>
        <time>2021-10-31T11:02:10.037Z</time>
      </trkpt>
      <trkpt lat="44.00308" lon="2.567">
        <ele>230</ele>
        <time>2021-10-31T11:02:11.037Z</time>
      </trkpt>
      <trkpt lat="44.00308" lon="2.56701">
        <ele>230</ele>
        <time>2021-10-31T11:02:12.037Z</time>
      </trkpt>
      <trkpt lat="44.00308" lon="2.56703">
        <ele>230</ele>
        <time>2021-10-31T11:02:13.037Z</time>
      </trkpt>
      <trkpt lat="44.00308" lon="2.56704">
        <ele>230</ele>
        <time>2021-10-31T11:02:42.045Z</time>
      </trkpt>
      <trkpt lat="44.00308" lon="2.56706">
        <ele>230</ele>
        <time>2021-10-31T11:02:43.045Z</time>
      </trkpt>
      <trkpt lat="44.00308" lon="2.56707">
        <ele>230</ele>
        <time>2021-10-31T11:02:44.045Z</time>
      </trkpt>
      <trkpt lat="44.00308" lon="2.56709">
        <ele>230</ele>
        <time>2021-10-31T11:02:45.045Z</time>
      </trkpt>
      <trkpt lat="44.00308" lon="2.56711">
        <ele>230</ele>
        <time>2021-10-31T11:02:46.045Z</time>
      </trkpt>
      <trkpt lat="44.00308" lon="2.56712">
        <ele>230</ele>
        <time>2021-10-31T11:02:54.054Z</time>
      </trkpt>
      <trkpt lat="44.00308" lon="2.56714">
        <ele>230</ele>
        <time>2021-10-31T11:02:55.054Z</time>
      </trkpt>
      <trkpt lat="44.00308" lon="2.56716">
        <ele>230</ele>
        <time>2021-10-31T11:02:56.054Z</time>
      </trkpt>
      <trkpt lat="44.00308" lon="2.56717">
        <ele>230</ele>
        <time>2021-10-31T11:02:57.054Z</time>
      </trkpt>
      <trkpt lat="44.00308" lon="2.56719">
        <ele>230</ele>
        <time>2021-10-31T11:02:58.054Z</time>
      </trkpt>
      <trkpt lat="44.00308" lon="2.56721">
        <ele>230</ele>
        <time>2021-10-31T11:02:59.054Z</time>
      </trkpt>
      <trkpt lat="44.00308" lon="2.56723">
        <ele>230</ele>
        <time>2021-10-31T11:03:04.065Z</time>
      </trkpt>
      <trkpt lat="44.00308" lon="2.56724">
        <ele>230</ele>
        <time>2021-10-31T11:03:05.065Z</time>
      </trkpt>
      <trkpt lat="44.00308" lon="2.56726">
        <ele>230</ele>
        <time>2021-10-31T11:03:06.065Z</time>
      </trkpt>
      <trkpt lat="44.00307" lon="2.56727">
        <ele>230</ele>
        <time>2021-10-31T11:03:07.065Z</time>
      </trkpt>
      <trkpt lat="44.00307" lon="2.56729">
        <ele>230</ele>
        <time>2021-10-31T11:03:08.065Z</time>
      </trkpt>
      <trkpt lat="44.00307" lon="2.5673">
        <ele>230</ele>
        <time>2021-10-31T11:03:09.065Z</time>
      </trkpt>
      <trkpt lat="44.00307" lon="2.56732">
        <ele>230</ele>
        <time>2021-10-31T11:03:10.065Z</time>
      </trkpt>
      <trkpt lat="44.00307" lon="2.56734">
        <ele>230</ele>
        <time>2021-10-31T11:03:11.065Z</time>
      </trkpt>
      <trkpt lat="44.00307" lon="2.56735">
        <ele>230</ele>
        <time>2021-10-31T11:03:12.065Z</time>
      </trkpt>
      <trkpt lat="44.00307" lon="2.56736">
        <ele>230</ele>
        <time>2021-10-31T11:03:15.322Z</time>
      </trkpt>
      <trkpt lat="44.00307" lon="2.56738">
        <ele>230</ele>
        <time>2021-10-31T11:03:16.322Z</time>
      </trkpt>
      <trkpt lat="44.00307" lon="2.5674">
        <ele>230</ele>
        <time>2021-10-31T11:03:17.322Z</time>
      </trkpt>
      <trkpt lat="44.00307" lon="2.56742">
        <ele>230</ele>
        <time>2021-10-31T11:03:21.583Z</time>
      </trkpt>
      <trkpt lat="44.00306" lon="2.56743">
        <ele>230</ele>
        <time>2021-10-31T11:03:22.583Z</time>
      </trkpt>
      <trkpt lat="44.00306" lon="2.56745">
        <ele>230</ele>
        <time>2021-10-31T11:03:23.583Z</time>
      </trkpt>
      <trkpt lat="44.00306" lon="2.56746">
        <ele>230</ele>
        <time>2021-10-31T11:03:24.583Z</time>
      </trkpt>
      <trkpt lat="44.00306" lon="2.56748">
        <ele>230</ele>
        <time>2021-10-31T11:03:25.583Z</time>
      </trkpt>
      <trkpt lat="44.00306" lon="2.56749">
        <ele>230</ele>
        <time>2021-10-31T11:03:26.583Z</time>
      </trkpt>
      <trkpt lat="44.00306" lon="2.56751">
        <ele>230</ele>
        <time>2021-10-31T11:03:27.583Z</time>
      </trkpt>
      <trkpt lat="44.00306" lon="2.56753">
        <ele>230</ele>
        <time>2021-10-31T11:05:36.596Z</time>
      </trkpt>
      <trkpt lat="44.00305" lon="2.56754">
        <ele>230</ele>
        <time>2021-10-31T11:05:37.596Z</time>
      </trkpt>
      <trkpt lat="44.00305" lon="2.56756">
        <ele>230</ele>
        <time>2021-10-31T11:06:00.579Z</time>
      </trkpt>
      <trkpt lat="44.00305" lon="2.56758">
        <ele>230</ele>
        <time>2021-10-31T11:06:01.579Z</time>
      </trkpt>
      <trkpt lat="44.00305" lon="2.56759">
        <ele>230</ele>
        <time>2021-10-31T11:06:02.579Z</time>
      </trkpt>
      <trkpt lat="44.00305" lon="2.56761">
        <ele>230</ele>
        <time>2021-10-31T11:06:03.579Z</time>
      </trkpt>
      <trkpt lat="44.00305" lon="2.56763">
        <ele>230</ele>
        <time>2021-10-31T11:06:04.579Z</time>
      </trkpt>
      <trkpt lat="44.00305" lon="2.56765">
        <ele>230</ele>
        <time>2021-10-31T11:06:05.579Z</time>
      </trkpt>
      <trkpt lat="44.00305" lon="2.56766">
        <ele>230</ele>
        <time>2021-10-31T11:06:06.579Z</time>
      </trkpt>
      <trkpt lat="44.00305" lon="2.56768">
        <ele>230</ele>
        <time>2021-10-31T11:06:07.579Z</time>
      </trkpt>
      <trkpt lat="44.00305" lon="2.5677">
        <ele>230</ele>
        <time>2021-10-31T11:06:08.579Z</time>
      </trkpt>
      <trkpt lat="44.00305" lon="2.56771">
        <ele>230</ele>
        <time>2021-10-31T11:06:09.579Z</time>
      </trkpt>
      <trkpt lat="44.00305" lon="2.56773">
        <ele>230</ele>
        <time>2021-10-31T11:06:10.579Z</time>
      </trkpt>
      <trkpt lat="44.00305" lon="2.56775">
        <ele>230</ele>
        <time>2021-10-31T11:06:11.579Z</time>
      </trkpt>
      <trkpt lat="44.00305" lon="2.56777">
        <ele>230</ele>
        <time>2021-10-31T11:06:12.579Z</time>
      </trkpt>
      <trkpt lat="44.00305" lon="2.56778">
        <ele>230</ele>
        <time>2021-10-31T11:06:13.579Z</time>
      </trkpt>
      <trkpt lat="44.00305" lon="2.5678">
        <ele>230</ele>
        <time>2021-10-31T11:06:14.579Z</time>
      </trkpt>
      <trkpt lat="44.00305" lon="2.56781">
        <ele>230</ele>
        <time>2021-10-31T11:06:15.579Z</time>
      </trkpt>
      <trkpt lat="44.00305" lon="2.56783">
        <ele>230</ele>
        <time>2021-10-31T11:07:28.578Z</time>
      </trkpt>
      <trkpt lat="44.00305" lon="2.56784">
        <ele>230</ele>
        <time>2021-10-31T11:07:29.578Z</time>
      </trkpt>
      <trkpt lat="44.00305" lon="2.56786">
        <ele>230</ele>
        <time>2021-10-31T11:07:30.578Z</time>
      </trkpt>
      <trkpt lat="44.00305" lon="2.56788">
        <ele>230</ele>
        <time>2021-10-31T11:07:31.578Z</time>
      </trkpt>
      <trkpt lat="44.00305" lon="2.56789">
        <ele>230</ele>
        <time>2021-10-31T11:07:32.578Z</time>
      </trkpt>
      <trkpt lat="44.00305" lon="2.56791">
        <ele>230</ele>
        <time>2021-10-31T11:07:33.578Z</time>
      </trkpt>
      <trkpt lat="44.00305" lon="2.56792">
        <ele>230</ele>
        <time>2021-10-31T11:07:34.578Z</time>
      </trkpt>
      <trkpt lat="44.00305" lon="2.56794">
        <ele>230</ele>
        <time>2021-10-31T11:08:10.601Z</time>
      </trkpt>
      <trkpt lat="44.00305" lon="2.56795">
        <ele>230</ele>
        <time>2021-10-31T11:08:11.601Z</time>
      </trkpt>
      <trkpt lat="44.00305" lon="2.56797">
        <ele>230</ele>
        <time>2021-10-31T11:08:12.601Z</time>
      </trkpt>
      <trkpt lat="44.00305" lon="2.56799">
        <ele>230</ele>
        <time>2021-10-31T11:08:13.601Z</time>
      </trkpt>
      <trkpt lat="44.00305" lon="2.568">
        <ele>230</ele>
        <time>2021-10-31T11:08:14.601Z</time>
      </trkpt>
      <trkpt lat="44.00305" lon="2.56802">
        <ele>230</ele>
        <time>2021-10-31T11:08:15.601Z</time>
      </trkpt>
      <trkpt lat="44.00305" lon="2.56803">
        <ele>230</ele>
        <time>2021-10-31T11:08:16.601Z</time>
      </trkpt>
      <trkpt lat="44.00305" lon="2.56805">
        <ele>230</ele>
        <time>2021-10-31T11:08:17.601Z</time>
      </trkpt>
      <trkpt lat="44.00305" lon="2.56807">
        <ele>230</ele>
        <time>2021-10-31T11:08:18.601Z</time>
      </trkpt>
      <trkpt lat="44.00305" lon="2.56809">
        <ele>230</ele>
        <time>2021-10-31T11:08:19.601Z</time>
      </trkpt>
      <trkpt lat="44.00305" lon="2.5681">
        <ele>230</ele>
        <time>2021-10-31T11:08:20.601Z</time>
      </trkpt>
      <trkpt lat="44.00304" lon="2.56812">
        <ele>230</ele>
        <time>2021-10-31T11:08:21.601Z</time>
      </trkpt>
      <trkpt lat="44.00304" lon="2.56814">
        <ele>230</ele>
        <time>2021-10-31T11:08:22.601Z</time>
      </trkpt>
      <trkpt lat="44.00304" lon="2.56815">
        <ele>230</ele>
        <time>2021-10-31T11:08:23.601Z</time>
      </trkpt>
      <trkpt lat="44.00304" lon="2.56817">
        <ele>230</ele>
        <time>2021-10-31T11:08:24.601Z</time>
      </trkpt>
      <trkpt lat="44.00304" lon="2.56819">
        <ele>230</ele>
        <time>2021-10-31T11:08:25.601Z</time>
      </trkpt>
      <trkpt lat="44.00304" lon="2.5682">
        <ele>230</ele>
        <time>2021-10-31T11:08:26.601Z</time>
      </trkpt>
      <trkpt lat="44.00304" lon="2.56822">
        <ele>230</ele>
        <time>2021-10-31T11:08:27.601Z</time>
      </trkpt>
      <trkpt lat="44.00303" lon="2.56824">
        <ele>230</ele>
        <time>2021-10-31T11:08:28.601Z</time>
      </trkpt>
      <trkpt lat="44.00303" lon="2.56825">
        <ele>230</ele>
        <time>2021-10-31T11:08:29.601Z</time>
      </trkpt>
      <trkpt lat="44.00303" lon="2.56827">
        <ele>230</ele>
        <time>2021-10-31T11:08:30.601Z</time>
      </trkpt>
      <trkpt lat="44.00303" lon="2.56828">
        <ele>230</ele>
        <time>2021-10-31T11:08:31.601Z</time>
      </trkpt>
      <trkpt lat="44.00303" lon="2.5683">
        <ele>230</ele>
        <time>2021-10-31T11:08:32.601Z</time>
      </trkpt>
      <trkpt lat="44.00302" lon="2.56832">
        <ele>230</ele>
        <time>2021-10-31T11:08:33.601Z</time>
      </trkpt>
      <trkpt lat="44.00302" lon="2.56833">
        <ele>230</ele>
        <time>2021-10-31T11:08:34.601Z</time>
      </trkpt>
      <trkpt lat="44.00302" lon="2.56835">
        <ele>230</ele>
        <time>2021-10-31T11:08:35.601Z</time>
      </trkpt>
      <trkpt lat="44.00302" lon="2.56837">
        <ele>230</ele>
        <time>2021-10-31T11:08:36.601Z</time>
      </trkpt>
      <trkpt lat="44.00302" lon="2.56838">
        <ele>230</ele>
        <time>2021-10-31T11:08:37.601Z</time>
      </trkpt>
      <trkpt lat="44.00301" lon="2.5684">
        <ele>230</ele>
        <time>2021-10-31T11:08:38.601Z</time>
      </trkpt>
      <trkpt lat="44.00301" lon="2.56842">
        <ele>230</ele>
        <time>2021-10-31T11:08:39.601Z</time>
      </trkpt>
      <trkpt lat="44.00301" lon="2.56843">
        <ele>230</ele>
        <time>2021-10-31T11:09:20.624Z</time>
      </trkpt>
      <trkpt lat="44.00301" lon="2.56845">
        <ele>229</ele>
        <time>2021-10-31T11:09:21.624Z</time>
      </trkpt>
      <trkpt lat="44.003" lon="2.56847">
        <ele>229</ele>
        <time>2021-10-31T11:09:22.624Z</time>
      </trkpt>
      <trkpt lat="44.003" lon="2.56848">
        <ele>229</ele>
        <time>2021-10-31T11:09:23.624Z</time>
      </trkpt>
      <trkpt lat="44.003" lon="2.5685">
        <ele>229</ele>
        <time>2021-10-31T11:09:24.624Z</time>
      </trkpt>
      <trkpt lat="44.003" lon="2.56851">
        <ele>229</ele>
        <time>2021-10-31T11:09:25.624Z</time>
      </trkpt>
      <trkpt lat="44.003" lon="2.56853">
        <ele>229</ele>
        <time>2021-10-31T11:09:26.624Z</time>
      </trkpt>
      <trkpt lat="44.00299" lon="2.56854">
        <ele>230</ele>
        <time>2021-10-31T11:09:27.624Z</time>
      </trkpt>
      <trkpt lat="44.00299" lon="2.56856">
        <ele>230</ele>
        <time>2021-10-31T11:09:28.624Z</time>
      </trkpt>
      <trkpt lat="44.00299" lon="2.56858">
        <ele>230</ele>
        <time>2021-10-31T11:09:29.624Z</time>
      </trkpt>
      <trkpt lat="44.00299" lon="2.56859">
        <ele>230</ele>
        <time>2021-10-31T11:09:30.624Z</time>
      </trkpt>
      <trkpt lat="44.00298" lon="2.56861">
        <ele>230</ele>
        <time>2021-10-31T11:09:31.624Z</time>
      </trkpt>
      <trkpt lat="44.00298" lon="2.56862">
        <ele>230</ele>
        <time>2021-10-31T11:09:32.624Z</time>
      </trkpt>
      <trkpt lat="44.00298" lon="2.56864">
        <ele>230</ele>
        <time>2021-10-31T11:09:33.624Z</time>
      </trkpt>
      <trkpt lat="44.00298" lon="2.56866">
        <ele>230</ele>
        <time>2021-10-31T11:09:34.624Z</time>
      </trkpt>
      <trkpt lat="44.00297" lon="2.56867">
        <ele>230</ele>
        <time>2021-10-31T11:11:31.648Z</time>
      </trkpt>
      <trkpt lat="44.00297" lon="2.56869">
        <ele>230</ele>
        <time>2021-10-31T11:11:32.648Z</time>
      </trkpt>
      <trkpt lat="44.00297" lon="2.5687">
        <ele>230</ele>
        <time>2021-10-31T11:11:33.648Z</time>
      </trkpt>
      <trkpt lat="44.00296" lon="2.56872">
        <ele>230</ele>
        <time>2021-10-31T11:11:34.648Z</time>
      </trkpt>
      <trkpt lat="44.00296" lon="2.56873">
        <ele>230</ele>
        <time>2021-10-31T11:11:35.648Z</time>
      </trkpt>
      <trkpt lat="44.00296" lon="2.56875">
        <ele>230</ele>
        <time>2021-10-31T11:11:36.648Z</time>
      </trkpt>
      <trkpt lat="44.00296" lon="2.56876">
        <ele>231</ele>
        <time>2021-10-31T11:11:37.648Z</time>
      </trkpt>
      <trkpt lat="44.00296" lon="2.56878">
        <ele>231</ele>
        <time>2021-10-31T11:11:38.648Z</time>
      </trkpt>
      <trkpt lat="44.00295" lon="2.5688">
        <ele>231</ele>
        <time>2021-10-31T11:11:39.648Z</time>
      </trkpt>
      <trkpt lat="44.00295" lon="2.56881">
        <ele>231</ele>
        <time>2021-10-31T11:11:40.648Z</time>
      </trkpt>
      <trkpt lat="44.00294" lon="2.56882">
        <ele>231</ele>
        <time>2021-10-31T11:11:41.648Z</time>
      </trkpt>
      <trkpt lat="44.00294" lon="2.56884">
        <ele>231</ele>
        <time>2021-10-31T11:11:42.648Z</time>
      </trkpt>
      <trkpt lat="44.00294" lon="2.56885">
        <ele>231</ele>
        <time>2021-10-31T11:11:43.648Z</time>
      </trkpt>
      <trkpt lat="44.00293" lon="2.56887">
        <ele>231</ele>
        <time>2021-10-31T11:11:44.648Z</time>
      </trkpt>
      <trkpt lat="44.00293" lon="2.56888">
        <ele>231</ele>
        <time>2021-10-31T11:11:45.648Z</time>
      </trkpt>
      <trkpt lat="44.00293" lon="2.5689">
        <ele>232</ele>
        <time>2021-10-31T11:11:46.648Z</time>
      </trkpt>
      <trkpt lat="44.00293" lon="2.56891">
        <ele>232</ele>
        <time>2021-10-31T11:11:47.648Z</time>
      </trkpt>
      <trkpt lat="44.00292" lon="2.56892">
        <ele>232</ele>
        <time>2021-10-31T11:11:48.648Z</time>
      </trkpt>
      <trkpt lat="44.00292" lon="2.56894">
        <ele>232</ele>
        <time>2021-10-31T11:11:49.648Z</time>
      </trkpt>
      <trkpt lat="44.00292" lon="2.56896">
        <ele>232</ele>
        <time>2021-10-31T11:12:38.637Z</time>
      </trkpt>
      <trkpt lat="44.00292" lon="2.56897">
        <ele>232</ele>
        <time>2021-10-31T11:12:39.637Z</time>
      </trkpt>
      <trkpt lat="44.00291" lon="2.56898">
        <ele>232</ele>
        <time>2021-10-31T11:13:03.393Z</time>
      </trkpt>
      <trkpt lat="44.00291" lon="2.569">
        <ele>232</ele>
        <time>2021-10-31T11:13:04.393Z</time>
      </trkpt>
      <trkpt lat="44.00291" lon="2.56901">
        <ele>232</ele>
        <time>2021-10-31T11:13:05.393Z</time>
      </trkpt>
      <trkpt lat="44.0029" lon="2.56903">
        <ele>232</ele>
        <time>2021-10-31T11:13:06.393Z</time>
      </trkpt>
      <trkpt lat="44.0029" lon="2.56905">
        <ele>232</ele>
        <time>2021-10-31T11:13:07.393Z</time>
      </trkpt>
      <trkpt lat="44.00289" lon="2.56906">
        <ele>232</ele>
        <time>2021-10-31T11:13:08.393Z</time>
      </trkpt>
      <trkpt lat="44.00289" lon="2.56908">
        <ele>232</ele>
        <time>2021-10-31T11:13:09.393Z</time>
      </trkpt>
      <trkpt lat="44.00288" lon="2.56909">
        <ele>232</ele>
        <time>2021-10-31T11:13:10.393Z</time>
      </trkpt>
      <trkpt lat="44.00288" lon="2.56911">
        <ele>232</ele>
        <time>2021-10-31T11:13:11.393Z</time>
      </trkpt>
      <trkpt lat="44.00288" lon="2.56913">
        <ele>232</ele>
        <time>2021-10-31T11:13:12.393Z</time>
      </trkpt>
      <trkpt lat="44.00287" lon="2.56914">
        <ele>232</ele>
        <time>2021-10-31T11:13:13.393Z</time>
      </trkpt>
      <trkpt lat="44.00287" lon="2.56916">
        <ele>232</ele>
        <time>2021-10-31T11:13:14.393Z</time>
      </trkpt>
      <trkpt lat="44.00286" lon="2.56917">
        <ele>232</ele>
        <time>2021-10-31T11:13:15.393Z</time>
      </trkpt>
      <trkpt lat="44.00286" lon="2.56919">
        <ele>232</ele>
        <time>2021-10-31T11:13:16.393Z</time>
      </trkpt>
      <trkpt lat="44.00286" lon="2.5692">
        <ele>232</ele>
        <time>2021-10-31T11:13:17.393Z</time>
      </trkpt>
      <trkpt lat="44.00285" lon="2.56921">
        <ele>232</ele>
        <time>2021-10-31T11:13:18.393Z</time>
      </trkpt>
      <trkpt lat="44.00285" lon="2.56923">
        <ele>232</ele>
        <time>2021-10-31T11:13:19.393Z</time>
      </trkpt>
      <trkpt lat="44.00284" lon="2.56924">
        <ele>232</ele>
        <time>2021-10-31T11:13:20.393Z</time>
      </trkpt>
      <trkpt lat="44.00284" lon="2.56926">
        <ele>232</ele>
        <time>2021-10-31T11:13:21.393Z</time>
      </trkpt>
      <trkpt lat="44.00284" lon="2.56927">
        <ele>232</ele>
        <time>2021-10-31T11:13:22.393Z</time>
      </trkpt>
      <trkpt lat="44.00283" lon="2.56929">
        <ele>232</ele>
        <time>2021-10-31T11:13:23.393Z</time>
      </trkpt>
      <trkpt lat="44.00283" lon="2.5693">
        <ele>232</ele>
        <time>2021-10-31T11:13:24.393Z</time>
      </trkpt>
      <trkpt lat="44.00282" lon="2.56932">
        <ele>232</ele>
        <time>2021-10-31T11:13:25.393Z</time>
      </trkpt>
      <trkpt lat="44.00282" lon="2.56933">
        <ele>232</ele>
        <time>2021-10-31T11:13:26.393Z</time>
      </trkpt>
      <trkpt lat="44.00282" lon="2.56935">
        <ele>232</ele>
        <time>2021-10-31T11:13:27.393Z</time>
      </trkpt>
      <trkpt lat="44.00281" lon="2.56936">
        <ele>232</ele>
        <time>2021-10-31T11:13:28.393Z</time>
      </trkpt>
      <trkpt lat="44.00281" lon="2.56938">
        <ele>232</ele>
        <time>2021-10-31T11:13:29.393Z</time>
      </trkpt>
      <trkpt lat="44.00281" lon="2.56939">
        <ele>232</ele>
        <time>2021-10-31T11:13:30.393Z</time>
      </trkpt>
      <trkpt lat="44.0028" lon="2.56941">
        <ele>232</ele>
        <time>2021-10-31T11:13:38.398Z</time>
      </trkpt>
      <trkpt lat="44.0028" lon="2.56943">
        <ele>232</ele>
        <time>2021-10-31T11:13:39.398Z</time>
      </trkpt>
      <trkpt lat="44.0028" lon="2.56944">
        <ele>232</ele>
        <time>2021-10-31T11:13:40.398Z</time>
      </trkpt>
      <trkpt lat="44.00279" lon="2.56946">
        <ele>232</ele>
        <time>2021-10-31T11:13:41.398Z</time>
      </trkpt>
      <trkpt lat="44.00279" lon="2.56947">
        <ele>232</ele>
        <time>2021-10-31T11:13:42.398Z</time>
      </trkpt>
      <trkpt lat="44.00279" lon="2.56948">
        <ele>232</ele>
        <time>2021-10-31T11:13:43.398Z</time>
      </trkpt>
      <trkpt lat="44.00278" lon="2.5695">
        <ele>232</ele>
        <time>2021-10-31T11:13:44.398Z</time>
      </trkpt>
      <trkpt lat="44.00278" lon="2.56951">
        <ele>232</ele>
        <time>2021-10-31T11:13:45.398Z</time>
      </trkpt>
      <trkpt lat="44.00278" lon="2.56953">
        <ele>232</ele>
        <time>2021-10-31T11:13:46.398Z</time>
      </trkpt>
      <trkpt lat="44.00277" lon="2.56954">
        <ele>232</ele>
        <time>2021-10-31T11:13:47.398Z</time>
      </trkpt>
      <trkpt lat="44.00277" lon="2.56955">
        <ele>232</ele>
        <time>2021-10-31T11:13:48.398Z</time>
      </trkpt>
      <trkpt lat="44.00277" lon="2.56957">
        <ele>232</ele>
        <time>2021-10-31T11:13:49.398Z</time>
      </trkpt>
      <trkpt lat="44.00276" lon="2.56958">
        <ele>232</ele>
        <time>2021-10-31T11:13:50.398Z</time>
      </trkpt>
      <trkpt lat="44.00276" lon="2.5696">
        <ele>232</ele>
        <time>2021-10-31T11:13:51.398Z</time>
      </trkpt>
      <trkpt lat="44.00275" lon="2.56961">
        <ele>232</ele>
        <time>2021-10-31T11:13:52.398Z</time>
      </trkpt>
      <trkpt lat="44.00275" lon="2.56963">
        <ele>232</ele>
        <time>2021-10-31T11:13:53.398Z</time>
      </trkpt>
      <trkpt lat="44.00274" lon="2.56964">
        <ele>232</ele>
        <time>2021-10-31T11:13:54.398Z</time>
      </trkpt>
      <trkpt lat="44.00274" lon="2.56966">
        <ele>232</ele>
        <time>2021-10-31T11:13:55.398Z</time>
      </trkpt>
      <trkpt lat="44.00273" lon="2.56967">
        <ele>231</ele>
        <time>2021-10-31T11:13:56.398Z</time>
      </trkpt>
      <trkpt lat="44.00273" lon="2.56969">
        <ele>231</ele>
        <time>2021-10-31T11:13:57.398Z</time>
      </trkpt>
      <trkpt lat="44.00273" lon="2.56971">
        <ele>231</ele>
        <time>2021-10-31T11:13:58.398Z</time>
      </trkpt>
      <trkpt lat="44.00272" lon="2.56972">
        <ele>231</ele>
        <time>2021-10-31T11:13:59.398Z</time>
      </trkpt>
      <trkpt lat="44.00272" lon="2.56974">
        <ele>231</ele>
        <time>2021-10-31T11:14:00.398Z</time>
      </trkpt>
      <trkpt lat="44.00272" lon="2.56975">
        <ele>231</ele>
        <time>2021-10-31T11:14:01.398Z</time>
      </trkpt>
      <trkpt lat="44.00271" lon="2.56977">
        <ele>231</ele>
        <time>2021-10-31T11:14:02.398Z</time>
      </trkpt>
      <trkpt lat="44.00271" lon="2.56978">
        <ele>231</ele>
        <time>2021-10-31T11:14:03.398Z</time>
      </trkpt>
      <trkpt lat="44.00271" lon="2.5698">
        <ele>231</ele>
        <time>2021-10-31T11:14:04.398Z</time>
      </trkpt>
      <trkpt lat="44.0027" lon="2.56981">
        <ele>231</ele>
        <time>2021-10-31T11:14:05.398Z</time>
      </trkpt>
      <trkpt lat="44.0027" lon="2.56983">
        <ele>231</ele>
        <time>2021-10-31T11:14:06.398Z</time>
      </trkpt>
      <trkpt lat="44.0027" lon="2.56984">
        <ele>231</ele>
        <time>2021-10-31T11:14:07.398Z</time>
      </trkpt>
      <trkpt lat="44.00269" lon="2.56986">
        <ele>231</ele>
        <time>2021-10-31T11:14:08.398Z</time>
      </trkpt>
      <trkpt lat="44.00269" lon="2.56987">
        <ele>231</ele>
        <time>2021-10-31T11:14:09.398Z</time>
      </trkpt>
      <trkpt lat="44.00269" lon="2.56989">
        <ele>231</ele>
        <time>2021-10-31T11:14:10.398Z</time>
      </trkpt>
      <trkpt lat="44.00269" lon="2.5699">
        <ele>231</ele>
        <time>2021-10-31T11:14:11.398Z</time>
      </trkpt>
      <trkpt lat="44.00268" lon="2.56992">
        <ele>231</ele>
        <time>2021-10-31T11:14:12.398Z</time>
      </trkpt>
      <trkpt lat="44.00268" lon="2.56993">
        <ele>231</ele>
        <time>2021-10-31T11:14:13.398Z</time>
      </trkpt>
      <trkpt lat="44.00268" lon="2.56995">
        <ele>231</ele>
        <time>2021-10-31T11:14:14.398Z</time>
      </trkpt>
      <trkpt lat="44.00267" lon="2.56996">
        <ele>231</ele>
        <time>2021-10-31T11:14:15.398Z</time>
      </trkpt>
      <trkpt lat="44.00267" lon="2.56998">
        <ele>231</ele>
        <time>2021-10-31T11:14:16.398Z</time>
      </trkpt>
      <trkpt lat="44.00267" lon="2.56999">
        <ele>231</ele>
        <time>2021-10-31T11:14:17.398Z</time>
      </trkpt>
      <trkpt lat="44.00267" lon="2.57">
        <ele>231</ele>
        <time>2021-10-31T11:14:18.398Z</time>
      </trkpt>
      <trkpt lat="44.00267" lon="2.57002">
        <ele>231</ele>
        <time>2021-10-31T11:14:19.398Z</time>
      </trkpt>
      <trkpt lat="44.00266" lon="2.57004">
        <ele>231</ele>
        <time>2021-10-31T11:14:20.398Z</time>
      </trkpt>
      <trkpt lat="44.00266" lon="2.57005">
        <ele>231</ele>
        <time>2021-10-31T11:14:21.398Z</time>
      </trkpt>
      <trkpt lat="44.00266" lon="2.57006">
        <ele>230</ele>
        <time>2021-10-31T11:14:22.398Z</time>
      </trkpt>
      <trkpt lat="44.00266" lon="2.57008">
        <ele>230</ele>
        <time>2021-10-31T11:14:23.398Z</time>
      </trkpt>
      <trkpt lat="44.00265" lon="2.57009">
        <ele>230</ele>
        <time>2021-10-31T11:14:24.398Z</time>
      </trkpt>
      <trkpt lat="44.00265" lon="2.57011">
        <ele>230</ele>
        <time>2021-10-31T11:14:25.398Z</time>
      </trkpt>
      <trkpt lat="44.00265" lon="2.57012">
        <ele>230</ele>
        <time>2021-10-31T11:14:26.398Z</time>
      </trkpt>
      <trkpt lat="44.00265" lon="2.57014">
        <ele>230</ele>
        <time>2021-10-31T11:14:27.398Z</time>
      </trkpt>
      <trkpt lat="44.00264" lon="2.57015">
        <ele>230</ele>
        <time>2021-10-31T11:14:28.398Z</time>
      </trkpt>
      <trkpt lat="44.00264" lon="2.57017">
        <ele>230</ele>
        <time>2021-10-31T11:14:29.398Z</time>
      </trkpt>
      <trkpt lat="44.00264" lon="2.57018">
        <ele>230</ele>
        <time>2021-10-31T11:14:30.398Z</time>
      </trkpt>
      <trkpt lat="44.00263" lon="2.5702">
        <ele>231</ele>
        <time>2021-10-31T11:14:31.398Z</time>
      </trkpt>
      <trkpt lat="44.00263" lon="2.57021">
        <ele>231</ele>
        <time>2021-10-31T11:14:32.398Z</time>
      </trkpt>
      <trkpt lat="44.00263" lon="2.57022">
        <ele>231</ele>
        <time>2021-10-31T11:14:33.398Z</time>
      </trkpt>
      <trkpt lat="44.00262" lon="2.57023">
        <ele>231</ele>
        <time>2021-10-31T11:14:34.398Z</time>
      </trkpt>
      <trkpt lat="44.00262" lon="2.57025">
        <ele>231</ele>
        <time>2021-10-31T11:14:35.398Z</time>
      </trkpt>
      <trkpt lat="44.00261" lon="2.57027">
        <ele>231</ele>
        <time>2021-10-31T11:14:36.398Z</time>
      </trkpt>
      <trkpt lat="44.00261" lon="2.57028">
        <ele>231</ele>
        <time>2021-10-31T11:14:37.398Z</time>
      </trkpt>
      <trkpt lat="44.00261" lon="2.5703">
        <ele>231</ele>
        <time>2021-10-31T11:14:38.398Z</time>
      </trkpt>
      <trkpt lat="44.00261" lon="2.57031">
        <ele>231</ele>
        <time>2021-10-31T11:14:39.398Z</time>
      </trkpt>
      <trkpt lat="44.0026" lon="2.57032">
        <ele>230</ele>
        <time>2021-10-31T11:14:40.398Z</time>
      </trkpt>
      <trkpt lat="44.0026" lon="2.57032">
        <ele>230</ele>
        <time>2021-10-31T11:14:41.398Z</time>
      </trkpt>
      <trkpt lat="44.0026" lon="2.57034">
        <ele>230</ele>
        <time>2021-10-31T11:14:42.398Z</time>
      </trkpt>
      <trkpt lat="44.0026" lon="2.57035">
        <ele>230</ele>
        <time>2021-10-31T11:14:43.398Z</time>
      </trkpt>
      <trkpt lat="44.00259" lon="2.57037">
        <ele>230</ele>
        <time>2021-10-31T11:14:44.398Z</time>
      </trkpt>
      <trkpt lat="44.00259" lon="2.57039">
        <ele>230</ele>
        <time>2021-10-31T11:14:45.398Z</time>
      </trkpt>
      <trkpt lat="44.00258" lon="2.5704">
        <ele>230</ele>
        <time>2021-10-31T11:14:46.398Z</time>
      </trkpt>
      <trkpt lat="44.00258" lon="2.57042">
        <ele>230</ele>
        <time>2021-10-31T11:14:47.398Z</time>
      </trkpt>
      <trkpt lat="44.00257" lon="2.57044">
        <ele>230</ele>
        <time>2021-10-31T11:14:48.398Z</time>
      </trkpt>
      <trkpt lat="44.00257" lon="2.57046">
        <ele>230</ele>
        <time>2021-10-31T11:14:49.398Z</time>
      </trkpt>
      <trkpt lat="44.00257" lon="2.57047">
        <ele>229</ele>
        <time>2021-10-31T11:14:50.398Z</time>
      </trkpt>
      <trkpt lat="44.00256" lon="2.57049">
        <ele>229</ele>
        <time>2021-10-31T11:14:51.398Z</time>
      </trkpt>
      <trkpt lat="44.00256" lon="2.57051">
        <ele>229</ele>
        <time>2021-10-31T11:14:52.398Z</time>
      </trkpt>
      <trkpt lat="44.00255" lon="2.57052">
        <ele>229</ele>
        <time>2021-10-31T11:14:53.398Z</time>
      </trkpt>
      <trkpt lat="44.00255" lon="2.57054">
        <ele>229</ele>
        <time>2021-10-31T11:14:54.398Z</time>
      </trkpt>
      <trkpt lat="44.00255" lon="2.57055">
        <ele>229</ele>
        <time>2021-10-31T11:14:55.398Z</time>
      </trkpt>
      <trkpt lat="44.00254" lon="2.57057">
        <ele>229</ele>
        <time>2021-10-31T11:14:56.398Z</time>
      </trkpt>
      <trkpt lat="44.00254" lon="2.57058">
        <ele>229</ele>
        <time>2021-10-31T11:14:57.398Z</time>
      </trkpt>
      <trkpt lat="44.00253" lon="2.5706">
        <ele>229</ele>
        <time>2021-10-31T11:14:58.398Z</time>
      </trkpt>
      <trkpt lat="44.00253" lon="2.57061">
        <ele>229</ele>
        <time>2021-10-31T11:14:59.398Z</time>
      </trkpt>
      <trkpt lat="44.00253" lon="2.57063">
        <ele>229</ele>
        <time>2021-10-31T11:15:00.398Z</time>
      </trkpt>
      <trkpt lat="44.00253" lon="2.57064">
        <ele>229</ele>
        <time>2021-10-31T11:15:01.398Z</time>
      </trkpt>
      <trkpt lat="44.00252" lon="2.57066">
        <ele>229</ele>
        <time>2021-10-31T11:15:02.398Z</time>
      </trkpt>
      <trkpt lat="44.00252" lon="2.57067">
        <ele>229</ele>
        <time>2021-10-31T11:15:03.398Z</time>
      </trkpt>
      <trkpt lat="44.00252" lon="2.57069">
        <ele>229</ele>
        <time>2021-10-31T11:15:04.398Z</time>
      </trkpt>
      <trkpt lat="44.00251" lon="2.57071">
        <ele>229</ele>
        <time>2021-10-31T11:15:05.398Z</time>
      </trkpt>
      <trkpt lat="44.00251" lon="2.57072">
        <ele>229</ele>
        <time>2021-10-31T11:15:06.398Z</time>
      </trkpt>
      <trkpt lat="44.00251" lon="2.57074">
        <ele>229</ele>
        <time>2021-10-31T11:15:07.398Z</time>
      </trkpt>
      <trkpt lat="44.0025" lon="2.57075">
        <ele>230</ele>
        <time>2021-10-31T11:15:08.398Z</time>
      </trkpt>
      <trkpt lat="44.0025" lon="2.57076">
        <ele>230</ele>
        <time>2021-10-31T11:15:09.398Z</time>
      </trkpt>
      <trkpt lat="44.0025" lon="2.57078">
        <ele>230</ele>
        <time>2021-10-31T11:15:10.398Z</time>
      </trkpt>
      <trkpt lat="44.00249" lon="2.5708">
        <ele>230</ele>
        <time>2021-10-31T11:15:11.398Z</time>
      </trkpt>
      <trkpt lat="44.00249" lon="2.57081">
        <ele>230</ele>
        <time>2021-10-31T11:15:12.398Z</time>
      </trkpt>
      <trkpt lat="44.00249" lon="2.57083">
        <ele>230</ele>
        <time>2021-10-31T11:15:13.398Z</time>
      </trkpt>
      <trkpt lat="44.00249" lon="2.57084">
        <ele>230</ele>
        <time>2021-10-31T11:15:14.398Z</time>
      </trkpt>
      <trkpt lat="44.00249" lon="2.57086">
        <ele>230</ele>
        <time>2021-10-31T11:15:15.398Z</time>
      </trkpt>
      <trkpt lat="44.00248" lon="2.57087">
        <ele>230</ele>
        <time>2021-10-31T11:15:16.398Z</time>
      </trkpt>
      <trkpt lat="44.00248" lon="2.57089">
        <ele>230</ele>
        <time>2021-10-31T11:15:17.398Z</time>
      </trkpt>
      <trkpt lat="44.00248" lon="2.5709">
        <ele>230</ele>
        <time>2021-10-31T11:15:18.398Z</time>
      </trkpt>
      <trkpt lat="44.00248" lon="2.57092">
        <ele>230</ele>
        <time>2021-10-31T11:15:19.398Z</time>
      </trkpt>
      <trkpt lat="44.00247" lon="2.57093">
        <ele>230</ele>
        <time>2021-10-31T11:15:20.398Z</time>
      </trkpt>
      <trkpt lat="44.00247" lon="2.57094">
        <ele>230</ele>
        <time>2021-10-31T11:15:21.398Z</time>
      </trkpt>
      <trkpt lat="44.00247" lon="2.57096">
        <ele>230</ele>
        <time>2021-10-31T11:15:22.398Z</time>
      </trkpt>
      <trkpt lat="44.00246" lon="2.57098">
        <ele>231</ele>
        <time>2021-10-31T11:15:23.398Z</time>
      </trkpt>
      <trkpt lat="44.00246" lon="2.57099">
        <ele>231</ele>
        <time>2021-10-31T11:15:24.398Z</time>
      </trkpt>
      <trkpt lat="44.00246" lon="2.57101">
        <ele>231</ele>
        <time>2021-10-31T11:15:25.398Z</time>
      </trkpt>
      <trkpt lat="44.00246" lon="2.57102">
        <ele>231</ele>
        <time>2021-10-31T11:15:26.398Z</time>
      </trkpt>
      <trkpt lat="44.00245" lon="2.57103">
        <ele>231</ele>
        <time>2021-10-31T11:15:27.398Z</time>
      </trkpt>
      <trkpt lat="44.00245" lon="2.57105">
        <ele>231</ele>
        <time>2021-10-31T11:15:28.398Z</time>
      </trkpt>
      <trkpt lat="44.00244" lon="2.57106">
        <ele>231</ele>
        <time>2021-10-31T11:15:29.398Z</time>
      </trkpt>
      <trkpt lat="44.00244" lon="2.57108">
        <ele>231</ele>
        <time>2021-10-31T11:15:30.398Z</time>
      </trkpt>
      <trkpt lat="44.00244" lon="2.57109">
        <ele>231</ele>
        <time>2021-10-31T11:15:31.398Z</time>
      </trkpt>
      <trkpt lat="44.00244" lon="2.5711">
        <ele>231</ele>
        <time>2021-10-31T11:15:32.398Z</time>
      </trkpt>
      <trkpt lat="44.00243" lon="2.57112">
        <ele>231</ele>
        <time>2021-10-31T11:15:33.398Z</time>
      </trkpt>
      <trkpt lat="44.00243" lon="2.57113">
        <ele>231</ele>
        <time>2021-10-31T11:15:34.398Z</time>
      </trkpt>
      <trkpt lat="44.00243" lon="2.57115">
        <ele>231</ele>
        <time>2021-10-31T11:15:35.398Z</time>
      </trkpt>
      <trkpt lat="44.00243" lon="2.57116">
        <ele>231</ele>
        <time>2021-10-31T11:15:36.398Z</time>
      </trkpt>
      <trkpt lat="44.00243" lon="2.57118">
        <ele>231</ele>
        <time>2021-10-31T11:15:37.398Z</time>
      </trkpt>
      <trkpt lat="44.00243" lon="2.57119">
        <ele>231</ele>
        <time>2021-10-31T11:15:38.398Z</time>
      </trkpt>
      <trkpt lat="44.00243" lon="2.57121">
        <ele>232</ele>
        <time>2021-10-31T11:15:39.398Z</time>
      </trkpt>
      <trkpt lat="44.00242" lon="2.57122">
        <ele>232</ele>
        <time>2021-10-31T11:15:40.398Z</time>
      </trkpt>
      <trkpt lat="44.00242" lon="2.57124">
        <ele>232</ele>
        <time>2021-10-31T11:15:41.398Z</time>
      </trkpt>
      <trkpt lat="44.00242" lon="2.57125">
        <ele>232</ele>
        <time>2021-10-31T11:15:42.398Z</time>
      </trkpt>
      <trkpt lat="44.00242" lon="2.57126">
        <ele>232</ele>
        <time>2021-10-31T11:15:43.398Z</time>
      </trkpt>
      <trkpt lat="44.00242" lon="2.57128">
        <ele>232</ele>
        <time>2021-10-31T11:15:44.398Z</time>
      </trkpt>
      <trkpt lat="44.00242" lon="2.57129">
        <ele>232</ele>
        <time>2021-10-31T11:15:45.398Z</time>
      </trkpt>
      <trkpt lat="44.00242" lon="2.5713">
        <ele>232</ele>
        <time>2021-10-31T11:15:46.398Z</time>
      </trkpt>
      <trkpt lat="44.00241" lon="2.57131">
        <ele>232</ele>
        <time>2021-10-31T11:15:47.398Z</time>
      </trkpt>
      <trkpt lat="44.00241" lon="2.57133">
        <ele>232</ele>
        <time>2021-10-31T11:15:48.398Z</time>
      </trkpt>
      <trkpt lat="44.00241" lon="2.57134">
        <ele>232</ele>
        <time>2021-10-31T11:15:49.398Z</time>
      </trkpt>
      <trkpt lat="44.00241" lon="2.57135">
        <ele>232</ele>
        <time>2021-10-31T11:15:50.398Z</time>
      </trkpt>
      <trkpt lat="44.00241" lon="2.57137">
        <ele>232</ele>
        <time>2021-10-31T11:15:51.398Z</time>
      </trkpt>
      <trkpt lat="44.00241" lon="2.57138">
        <ele>232</ele>
        <time>2021-10-31T11:15:52.398Z</time>
      </trkpt>
      <trkpt lat="44.00241" lon="2.57139">
        <ele>232</ele>
        <time>2021-10-31T11:15:53.398Z</time>
      </trkpt>
      <trkpt lat="44.00241" lon="2.57141">
        <ele>232</ele>
        <time>2021-10-31T11:15:54.398Z</time>
      </trkpt>
      <trkpt lat="44.00241" lon="2.57142">
        <ele>232</ele>
        <time>2021-10-31T11:15:55.398Z</time>
      </trkpt>
      <trkpt lat="44.0024" lon="2.57143">
        <ele>232</ele>
        <time>2021-10-31T11:15:56.398Z</time>
      </trkpt>
      <trkpt lat="44.0024" lon="2.57145">
        <ele>232</ele>
        <time>2021-10-31T11:15:57.398Z</time>
      </trkpt>
      <trkpt lat="44.0024" lon="2.57146">
        <ele>232</ele>
        <time>2021-10-31T11:15:58.398Z</time>
      </trkpt>
      <trkpt lat="44.0024" lon="2.57148">
        <ele>232</ele>
        <time>2021-10-31T11:15:59.398Z</time>
      </trkpt>
      <trkpt lat="44.0024" lon="2.57149">
        <ele>232</ele>
        <time>2021-10-31T11:16:00.398Z</time>
      </trkpt>
      <trkpt lat="44.00239" lon="2.5715">
        <ele>232</ele>
        <time>2021-10-31T11:16:01.398Z</time>
      </trkpt>
      <trkpt lat="44.00239" lon="2.57151">
        <ele>232</ele>
        <time>2021-10-31T11:16:02.398Z</time>
      </trkpt>
      <trkpt lat="44.00239" lon="2.57153">
        <ele>232</ele>
        <time>2021-10-31T11:16:03.398Z</time>
      </trkpt>
      <trkpt lat="44.00239" lon="2.57154">
        <ele>232</ele>
        <time>2021-10-31T11:16:04.398Z</time>
      </trkpt>
      <trkpt lat="44.00238" lon="2.57155">
        <ele>232</ele>
        <time>2021-10-31T11:16:05.398Z</time>
      </trkpt>
      <trkpt lat="44.00238" lon="2.57157">
        <ele>232</ele>
        <time>2021-10-31T11:16:06.398Z</time>
      </trkpt>
      <trkpt lat="44.00238" lon="2.57158">
        <ele>232</ele>
        <time>2021-10-31T11:16:07.398Z</time>
      </trkpt>
      <trkpt lat="44.00238" lon="2.5716">
        <ele>232</ele>
        <time>2021-10-31T11:16:08.398Z</time>
      </trkpt>
      <trkpt lat="44.00237" lon="2.57161">
        <ele>232</ele>
        <time>2021-10-31T11:16:09.398Z</time>
      </trkpt>
      <trkpt lat="44.00237" lon="2.57163">
        <ele>232</ele>
        <time>2021-10-31T11:16:10.398Z</time>
      </trkpt>
      <trkpt lat="44.00237" lon="2.57164">
        <ele>232</ele>
        <time>2021-10-31T11:16:11.398Z</time>
      </trkpt>
      <trkpt lat="44.00236" lon="2.57165">
        <ele>232</ele>
        <time>2021-10-31T11:16:12.398Z</time>
      </trkpt>
      <trkpt lat="44.00236" lon="2.57167">
        <ele>232</ele>
        <time>2021-10-31T11:16:13.398Z</time>
      </trkpt>
      <trkpt lat="44.00236" lon="2.57168">
        <ele>232</ele>
        <time>2021-10-31T11:16:14.398Z</time>
      </trkpt>
      <trkpt lat="44.00235" lon="2.5717">
        <ele>232</ele>
        <time>2021-10-31T11:16:15.398Z</time>
      </trkpt>
      <trkpt lat="44.00235" lon="2.57171">
        <ele>232</ele>
        <time>2021-10-31T11:16:16.398Z</time>
      </trkpt>
      <trkpt lat="44.00235" lon="2.57173">
        <ele>232</ele>
        <time>2021-10-31T11:16:17.398Z</time>
      </trkpt>
      <trkpt lat="44.00235" lon="2.57174">
        <ele>232</ele>
        <time>2021-10-31T11:16:18.398Z</time>
      </trkpt>
      <trkpt lat="44.00234" lon="2.57176">
        <ele>232</ele>
        <time>2021-10-31T11:16:19.398Z</time>
      </trkpt>
      <trkpt lat="44.00234" lon="2.57177">
        <ele>232</ele>
        <time>2021-10-31T11:16:20.398Z</time>
      </trkpt>
      <trkpt lat="44.00234" lon="2.57178">
        <ele>232</ele>
        <time>2021-10-31T11:16:21.398Z</time>
      </trkpt>
      <trkpt lat="44.00233" lon="2.5718">
        <ele>232</ele>
        <time>2021-10-31T11:16:22.398Z</time>
      </trkpt>
      <trkpt lat="44.00233" lon="2.57181">
        <ele>232</ele>
        <time>2021-10-31T11:16:23.398Z</time>
      </trkpt>
      <trkpt lat="44.00233" lon="2.57183">
        <ele>232</ele>
        <time>2021-10-31T11:16:24.398Z</time>
      </trkpt>
      <trkpt lat="44.00232" lon="2.57184">
        <ele>232</ele>
        <time>2021-10-31T11:16:25.398Z</time>
      </trkpt>
      <trkpt lat="44.00232" lon="2.57185">
        <ele>232</ele>
        <time>2021-10-31T11:16:26.398Z</time>
      </trkpt>
      <trkpt lat="44.00232" lon="2.57187">
        <ele>232</ele>
        <time>2021-10-31T11:16:27.398Z</time>
      </trkpt>
      <trkpt lat="44.00231" lon="2.57188">
        <ele>232</ele>
        <time>2021-10-31T11:16:28.398Z</time>
      </trkpt>
      <trkpt lat="44.00231" lon="2.5719">
        <ele>232</ele>
        <time>2021-10-31T11:16:29.398Z</time>
      </trkpt>
      <trkpt lat="44.00231" lon="2.57191">
        <ele>232</ele>
        <time>2021-10-31T11:16:30.398Z</time>
      </trkpt>
      <trkpt lat="44.00231" lon="2.57193">
        <ele>232</ele>
        <time>2021-10-31T11:16:31.398Z</time>
      </trkpt>
      <trkpt lat="44.00231" lon="2.57194">
        <ele>232</ele>
        <time>2021-10-31T11:16:32.398Z</time>
      </trkpt>
      <trkpt lat="44.0023" lon="2.57195">
        <ele>232</ele>
        <time>2021-10-31T11:16:33.398Z</time>
      </trkpt>
      <trkpt lat="44.0023" lon="2.57196">
        <ele>232</ele>
        <time>2021-10-31T11:16:34.398Z</time>
      </trkpt>
      <trkpt lat="44.0023" lon="2.57198">
        <ele>232</ele>
        <time>2021-10-31T11:16:35.398Z</time>
      </trkpt>
      <trkpt lat="44.00229" lon="2.57199">
        <ele>232</ele>
        <time>2021-10-31T11:16:36.398Z</time>
      </trkpt>
      <trkpt lat="44.00229" lon="2.57201">
        <ele>232</ele>
        <time>2021-10-31T11:16:37.398Z</time>
      </trkpt>
      <trkpt lat="44.00229" lon="2.57202">
        <ele>232</ele>
        <time>2021-10-31T11:16:38.398Z</time>
      </trkpt>
      <trkpt lat="44.00228" lon="2.57203">
        <ele>232</ele>
        <time>2021-10-31T11:16:39.398Z</time>
      </trkpt>
      <trkpt lat="44.00228" lon="2.57205">
        <ele>232</ele>
        <time>2021-10-31T11:16:40.398Z</time>
      </trkpt>
      <trkpt lat="44.00228" lon="2.57206">
        <ele>232</ele>
        <time>2021-10-31T11:16:41.398Z</time>
      </trkpt>
      <trkpt lat="44.00228" lon="2.57207">
        <ele>232</ele>
        <time>2021-10-31T11:16:42.398Z</time>
      </trkpt>
      <trkpt lat="44.00228" lon="2.57209">
        <ele>232</ele>
        <time>2021-10-31T11:16:43.398Z</time>
      </trkpt>
      <trkpt lat="44.00228" lon="2.5721">
        <ele>232</ele>
        <time>2021-10-31T11:16:44.398Z</time>
      </trkpt>
      <trkpt lat="44.00227" lon="2.57211">
        <ele>232</ele>
        <time>2021-10-31T11:16:45.398Z</time>
      </trkpt>
      <trkpt lat="44.00227" lon="2.57212">
        <ele>232</ele>
        <time>2021-10-31T11:16:46.398Z</time>
      </trkpt>
      <trkpt lat="44.00227" lon="2.57213">
        <ele>232</ele>
        <time>2021-10-31T11:16:47.398Z</time>
      </trkpt>
      <trkpt lat="44.00227" lon="2.57214">
        <ele>232</ele>
        <time>2021-10-31T11:16:48.398Z</time>
      </trkpt>
      <trkpt lat="44.00226" lon="2.57215">
        <ele>232</ele>
        <time>2021-10-31T11:16:49.398Z</time>
      </trkpt>
      <trkpt lat="44.00226" lon="2.57216">
        <ele>232</ele>
        <time>2021-10-31T11:16:50.398Z</time>
      </trkpt>
      <trkpt lat="44.00227" lon="2.57218">
        <ele>232</ele>
        <time>2021-10-31T11:16:51.398Z</time>
      </trkpt>
      <trkpt lat="44.00227" lon="2.57219">
        <ele>232</ele>
        <time>2021-10-31T11:16:52.398Z</time>
      </trkpt>
      <trkpt lat="44.00227" lon="2.5722">
        <ele>232</ele>
        <time>2021-10-31T11:16:53.398Z</time>
      </trkpt>
      <trkpt lat="44.00227" lon="2.57221">
        <ele>232</ele>
        <time>2021-10-31T11:16:54.398Z</time>
      </trkpt>
      <trkpt lat="44.00227" lon="2.57221">
        <ele>232</ele>
        <time>2021-10-31T11:16:55.398Z</time>
      </trkpt>
      <trkpt lat="44.00226" lon="2.57222">
        <ele>232</ele>
        <time>2021-10-31T11:16:56.398Z</time>
      </trkpt>
      <trkpt lat="44.00226" lon="2.57223">
        <ele>232</ele>
        <time>2021-10-31T11:16:57.398Z</time>
      </trkpt>
      <trkpt lat="44.00226" lon="2.57224">
        <ele>232</ele>
        <time>2021-10-31T11:16:58.398Z</time>
      </trkpt>
      <trkpt lat="44.00226" lon="2.57225">
        <ele>232</ele>
        <time>2021-10-31T11:16:59.398Z</time>
      </trkpt>
      <trkpt lat="44.00226" lon="2.57226">
        <ele>232</ele>
        <time>2021-10-31T11:17:00.398Z</time>
      </trkpt>
      <trkpt lat="44.00226" lon="2.57227">
        <ele>233</ele>
        <time>2021-10-31T11:17:01.398Z</time>
      </trkpt>
      <trkpt lat="44.00226" lon="2.57228">
        <ele>233</ele>
        <time>2021-10-31T11:17:02.398Z</time>
      </trkpt>
      <trkpt lat="44.00226" lon="2.57229">
        <ele>233</ele>
        <time>2021-10-31T11:17:03.398Z</time>
      </trkpt>
      <trkpt lat="44.00226" lon="2.5723">
        <ele>233</ele>
        <time>2021-10-31T11:17:04.398Z</time>
      </trkpt>
      <trkpt lat="44.00226" lon="2.5723">
        <ele>233</ele>
        <time>2021-10-31T11:17:05.398Z</time>
      </trkpt>
      <trkpt lat="44.00226" lon="2.57231">
        <ele>233</ele>
        <time>2021-10-31T11:17:06.398Z</time>
      </trkpt>
      <trkpt lat="44.00227" lon="2.57231">
        <ele>233</ele>
        <time>2021-10-31T11:17:07.398Z</time>
      </trkpt>
      <trkpt lat="44.00227" lon="2.57232">
        <ele>233</ele>
        <time>2021-10-31T11:17:08.398Z</time>
      </trkpt>
      <trkpt lat="44.00227" lon="2.57232">
        <ele>233</ele>
        <time>2021-10-31T11:17:09.398Z</time>
      </trkpt>
      <trkpt lat="44.00227" lon="2.57232">
        <ele>233</ele>
        <time>2021-10-31T11:17:10.398Z</time>
      </trkpt>
      <trkpt lat="44.00227" lon="2.57232">
        <ele>233</ele>
        <time>2021-10-31T11:17:11.398Z</time>
      </trkpt>
      <trkpt lat="44.00226" lon="2.57235">
        <ele>233</ele>
        <time>2021-10-31T11:17:12.398Z</time>
      </trkpt>
      <trkpt lat="44.00226" lon="2.57235">
        <ele>233</ele>
        <time>2021-10-31T11:17:13.398Z</time>
      </trkpt>
      <trkpt lat="44.00226" lon="2.57236">
        <ele>233</ele>
        <time>2021-10-31T11:17:14.398Z</time>
      </trkpt>
      <trkpt lat="44.00225" lon="2.57236">
        <ele>233</ele>
        <time>2021-10-31T11:17:15.398Z</time>
      </trkpt>
      <trkpt lat="44.00225" lon="2.57236">
        <ele>233</ele>
        <time>2021-10-31T11:17:16.398Z</time>
      </trkpt>
      <trkpt lat="44.00225" lon="2.57236">
        <ele>233</ele>
        <time>2021-10-31T11:17:17.398Z</time>
      </trkpt>
      <trkpt lat="44.00225" lon="2.57237">
        <ele>234</ele>
        <time>2021-10-31T11:17:18.398Z</time>
      </trkpt>
      <trkpt lat="44.00225" lon="2.57237">
        <ele>234</ele>
        <time>2021-10-31T11:17:19.398Z</time>
      </trkpt>
      <trkpt lat="44.00225" lon="2.57237">
        <ele>234</ele>
        <time>2021-10-31T11:17:20.398Z</time>
      </trkpt>
      <trkpt lat="44.00225" lon="2.57237">
        <ele>234</ele>
        <time>2021-10-31T11:17:21.398Z</time>
      </trkpt>
      <trkpt lat="44.00224" lon="2.57237">
        <ele>234</ele>
        <time>2021-10-31T11:17:22.398Z</time>
      </trkpt>
      <trkpt lat="44.00224" lon="2.57239">
        <ele>234</ele>
        <time>2021-10-31T11:17:23.398Z</time>
      </trkpt>
      <trkpt lat="44.00224" lon="2.57239">
        <ele>234</ele>
        <time>2021-10-31T11:17:24.398Z</time>
      </trkpt>
      <trkpt lat="44.00223" lon="2.57239">
        <ele>234</ele>
        <time>2021-10-31T11:17:25.398Z</time>
      </trkpt>
      <trkpt lat="44.00223" lon="2.57239">
        <ele>234</ele>
        <time>2021-10-31T11:17:26.398Z</time>
      </trkpt>
      <trkpt lat="44.00223" lon="2.57239">
        <ele>234</ele>
        <time>2021-10-31T11:17:27.398Z</time>
      </trkpt>
      <trkpt lat="44.00222" lon="2.57237">
        <ele>234</ele>
        <time>2021-10-31T11:17:28.398Z</time>
      </trkpt>
      <trkpt lat="44.00222" lon="2.57236">
        <ele>234</ele>
        <time>2021-10-31T11:17:29.398Z</time>
      </trkpt>
      <trkpt lat="44.00221" lon="2.57235">
        <ele>234</ele>
        <time>2021-10-31T11:17:30.398Z</time>
      </trkpt>
      <trkpt lat="44.00221" lon="2.57234">
        <ele>234</ele>
        <time>2021-10-31T11:17:31.398Z</time>
      </trkpt>
      <trkpt lat="44.00221" lon="2.57234">
        <ele>234</ele>
        <time>2021-10-31T11:17:32.398Z</time>
      </trkpt>
      <trkpt lat="44.00221" lon="2.57234">
        <ele>234</ele>
        <time>2021-10-31T11:17:33.398Z</time>
      </trkpt>
      <trkpt lat="44.00221" lon="2.57234">
        <ele>234</ele>
        <time>2021-10-31T11:17:34.398Z</time>
      </trkpt>
      <trkpt lat="44.00221" lon="2.57234">
        <ele>234</ele>
        <time>2021-10-31T11:17:35.398Z</time>
      </trkpt>
      <trkpt lat="44.00221" lon="2.57233">
        <ele>233</ele>
        <time>2021-10-31T11:17:36.398Z</time>
      </trkpt>
      <trkpt lat="44.00221" lon="2.57233">
        <ele>233</ele>
        <time>2021-10-31T11:17:37.398Z</time>
      </trkpt>
      <trkpt lat="44.00221" lon="2.57233">
        <ele>233</ele>
        <time>2021-10-31T11:17:38.398Z</time>
      </trkpt>
      <trkpt lat="44.00221" lon="2.57233">
        <ele>233</ele>
        <time>2021-10-31T11:17:39.398Z</time>
      </trkpt>
      <trkpt lat="44.00221" lon="2.57233">
        <ele>233</ele>
        <time>2021-10-31T11:17:40.398Z</time>
      </trkpt>
      <trkpt lat="44.00221" lon="2.57235">
        <ele>233</ele>
        <time>2021-10-31T11:17:41.398Z</time>
      </trkpt>
      <trkpt lat="44.00221" lon="2.57236">
        <ele>233</ele>
        <time>2021-10-31T11:17:42.398Z</time>
      </trkpt>
      <trkpt lat="44.00221" lon="2.57237">
        <ele>233</ele>
        <time>2021-10-31T11:17:43.398Z</time>
      </trkpt>
      <trkpt lat="44.00221" lon="2.57238">
        <ele>233</ele>
        <time>2021-10-31T11:17:44.398Z</time>
      </trkpt>
      <trkpt lat="44.00221" lon="2.5724">
        <ele>233</ele>
        <time>2021-10-31T11:17:45.398Z</time>
      </trkpt>
      <trkpt lat="44.00221" lon="2.57241">
        <ele>233</ele>
        <time>2021-10-31T11:17:46.398Z</time>
      </trkpt>
      <trkpt lat="44.00221" lon="2.57242">
        <ele>233</ele>
        <time>2021-10-31T11:17:47.398Z</time>
      </trkpt>
      <trkpt lat="44.00221" lon="2.57244">
        <ele>234</ele>
        <time>2021-10-31T11:17:48.398Z</time>
      </trkpt>
      <trkpt lat="44.00222" lon="2.57245">
        <ele>234</ele>
        <time>2021-10-31T11:17:49.398Z</time>
      </trkpt>
      <trkpt lat="44.00221" lon="2.57246">
        <ele>234</ele>
        <time>2021-10-31T11:17:50.398Z</time>
      </trkpt>
      <trkpt lat="44.00221" lon="2.57248">
        <ele>234</ele>
        <time>2021-10-31T11:17:51.398Z</time>
      </trkpt>
      <trkpt lat="44.00221" lon="2.57249">
        <ele>234</ele>
        <time>2021-10-31T11:17:52.398Z</time>
      </trkpt>
      <trkpt lat="44.00221" lon="2.57251">
        <ele>234</ele>
        <time>2021-10-31T11:17:53.398Z</time>
      </trkpt>
      <trkpt lat="44.00221" lon="2.57252">
        <ele>234</ele>
        <time>2021-10-31T11:17:54.398Z</time>
      </trkpt>
      <trkpt lat="44.00221" lon="2.57253">
        <ele>234</ele>
        <time>2021-10-31T11:17:55.398Z</time>
      </trkpt>
      <trkpt lat="44.0022" lon="2.57255">
        <ele>234</ele>
        <time>2021-10-31T11:17:56.398Z</time>
      </trkpt>
      <trkpt lat="44.0022" lon="2.57257">
        <ele>234</ele>
        <time>2021-10-31T11:17:57.398Z</time>
      </trkpt>
      <trkpt lat="44.0022" lon="2.57258">
        <ele>234</ele>
        <time>2021-10-31T11:17:58.398Z</time>
      </trkpt>
      <trkpt lat="44.00219" lon="2.57259">
        <ele>234</ele>
        <time>2021-10-31T11:17:59.398Z</time>
      </trkpt>
      <trkpt lat="44.00219" lon="2.57261">
        <ele>234</ele>
        <time>2021-10-31T11:18:00.398Z</time>
      </trkpt>
      <trkpt lat="44.00218" lon="2.57262">
        <ele>234</ele>
        <time>2021-10-31T11:18:01.398Z</time>
      </trkpt>
      <trkpt lat="44.00218" lon="2.57264">
        <ele>234</ele>
        <time>2021-10-31T11:18:02.398Z</time>
      </trkpt>
      <trkpt lat="44.00218" lon="2.57266">
        <ele>234</ele>
        <time>2021-10-31T11:18:03.398Z</time>
      </trkpt>
      <trkpt lat="44.00218" lon="2.57268">
        <ele>234</ele>
        <time>2021-10-31T11:18:04.398Z</time>
      </trkpt>
      <trkpt lat="44.00218" lon="2.57269">
        <ele>234</ele>
        <time>2021-10-31T11:18:05.398Z</time>
      </trkpt>
      <trkpt lat="44.00218" lon="2.57271">
        <ele>234</ele>
        <time>2021-10-31T11:18:06.398Z</time>
      </trkpt>
      <trkpt lat="44.00218" lon="2.57273">
        <ele>234</ele>
        <time>2021-10-31T11:18:07.398Z</time>
      </trkpt>
      <trkpt lat="44.00218" lon="2.57274">
        <ele>234</ele>
        <time>2021-10-31T11:18:08.398Z</time>
      </trkpt>
      <trkpt lat="44.00218" lon="2.57276">
        <ele>234</ele>
        <time>2021-10-31T11:18:09.398Z</time>
      </trkpt>
      <trkpt lat="44.00218" lon="2.57277">
        <ele>234</ele>
        <time>2021-10-31T11:18:10.398Z</time>
      </trkpt>
      <trkpt lat="44.00218" lon="2.57279">
        <ele>234</ele>
        <time>2021-10-31T11:18:11.398Z</time>
      </trkpt>
      <trkpt lat="44.00218" lon="2.5728">
        <ele>234</ele>
        <time>2021-10-31T11:18:12.398Z</time>
      </trkpt>
      <trkpt lat="44.00218" lon="2.57282">
        <ele>234</ele>
        <time>2021-10-31T11:18:13.398Z</time>
      </trkpt>
      <trkpt lat="44.00218" lon="2.57283">
        <ele>234</ele>
        <time>2021-10-31T11:18:14.398Z</time>
      </trkpt>
      <trkpt lat="44.00218" lon="2.57285">
        <ele>234</ele>
        <time>2021-10-31T11:18:15.398Z</time>
      </trkpt>
      <trkpt lat="44.00218" lon="2.57286">
        <ele>234</ele>
        <time>2021-10-31T11:18:16.398Z</time>
      </trkpt>
      <trkpt lat="44.00219" lon="2.57288">
        <ele>234</ele>
        <time>2021-10-31T11:18:17.398Z</time>
      </trkpt>
      <trkpt lat="44.00219" lon="2.57289">
        <ele>234</ele>
        <time>2021-10-31T11:18:18.398Z</time>
      </trkpt>
      <trkpt lat="44.00219" lon="2.57291">
        <ele>234</ele>
        <time>2021-10-31T11:18:19.398Z</time>
      </trkpt>
      <trkpt lat="44.00219" lon="2.57292">
        <ele>234</ele>
        <time>2021-10-31T11:18:20.398Z</time>
      </trkpt>
      <trkpt lat="44.00218" lon="2.57293">
        <ele>234</ele>
        <time>2021-10-31T11:18:21.398Z</time>
      </trkpt>
      <trkpt lat="44.00219" lon="2.57294">
        <ele>234</ele>
        <time>2021-10-31T11:18:22.398Z</time>
      </trkpt>
      <trkpt lat="44.00219" lon="2.57296">
        <ele>234</ele>
        <time>2021-10-31T11:18:23.398Z</time>
      </trkpt>
      <trkpt lat="44.00219" lon="2.57297">
        <ele>234</ele>
        <time>2021-10-31T11:18:24.398Z</time>
      </trkpt>
      <trkpt lat="44.00219" lon="2.57298">
        <ele>234</ele>
        <time>2021-10-31T11:18:25.398Z</time>
      </trkpt>
      <trkpt lat="44.00219" lon="2.57299">
        <ele>235</ele>
        <time>2021-10-31T11:18:26.398Z</time>
      </trkpt>
      <trkpt lat="44.00218" lon="2.57301">
        <ele>235</ele>
        <time>2021-10-31T11:18:27.398Z</time>
      </trkpt>
      <trkpt lat="44.00218" lon="2.57302">
        <ele>235</ele>
        <time>2021-10-31T11:18:28.398Z</time>
      </trkpt>
      <trkpt lat="44.00218" lon="2.57303">
        <ele>235</ele>
        <time>2021-10-31T11:18:29.398Z</time>
      </trkpt>
      <trkpt lat="44.00219" lon="2.57305">
        <ele>235</ele>
        <time>2021-10-31T11:18:30.398Z</time>
      </trkpt>
      <trkpt lat="44.00219" lon="2.57306">
        <ele>235</ele>
        <time>2021-10-31T11:18:41.406Z</time>
      </trkpt>
      <trkpt lat="44.00218" lon="2.57308">
        <ele>235</ele>
        <time>2021-10-31T11:18:42.406Z</time>
      </trkpt>
      <trkpt lat="44.00218" lon="2.57309">
        <ele>235</ele>
        <time>2021-10-31T11:18:43.406Z</time>
      </trkpt>
      <trkpt lat="44.00218" lon="2.5731">
        <ele>235</ele>
        <time>2021-10-31T11:18:44.406Z</time>
      </trkpt>
      <trkpt lat="44.00218" lon="2.57311">
        <ele>235</ele>
        <time>2021-10-31T11:18:45.406Z</time>
      </trkpt>
      <trkpt lat="44.00218" lon="2.57312">
        <ele>235</ele>
        <time>2021-10-31T11:18:46.406Z</time>
      </trkpt>
      <trkpt lat="44.00218" lon="2.57314">
        <ele>235</ele>
        <time>2021-10-31T11:18:47.406Z</time>
      </trkpt>
      <trkpt lat="44.00218" lon="2.57315">
        <ele>235</ele>
        <time>2021-10-31T11:18:48.406Z</time>
      </trkpt>
      <trkpt lat="44.00218" lon="2.57316">
        <ele>235</ele>
        <time>2021-10-31T11:18:49.406Z</time>
      </trkpt>
      <trkpt lat="44.00218" lon="2.57317">
        <ele>235</ele>
        <time>2021-10-31T11:18:50.406Z</time>
      </trkpt>
      <trkpt lat="44.00219" lon="2.57318">
        <ele>236</ele>
        <time>2021-10-31T11:18:51.406Z</time>
      </trkpt>
      <trkpt lat="44.00219" lon="2.57319">
        <ele>236</ele>
        <time>2021-10-31T11:18:52.406Z</time>
      </trkpt>
      <trkpt lat="44.00219" lon="2.57319">
        <ele>236</ele>
        <time>2021-10-31T11:18:53.406Z</time>
      </trkpt>
      <trkpt lat="44.00219" lon="2.5732">
        <ele>236</ele>
        <time>2021-10-31T11:18:54.406Z</time>
      </trkpt>
      <trkpt lat="44.00219" lon="2.57321">
        <ele>236</ele>
        <time>2021-10-31T11:18:55.406Z</time>
      </trkpt>
      <trkpt lat="44.00219" lon="2.57322">
        <ele>236</ele>
        <time>2021-10-31T11:18:56.406Z</time>
      </trkpt>
      <trkpt lat="44.00219" lon="2.57324">
        <ele>237</ele>
        <time>2021-10-31T11:18:57.406Z</time>
      </trkpt>
      <trkpt lat="44.00219" lon="2.57325">
        <ele>237</ele>
        <time>2021-10-31T11:18:58.406Z</time>
      </trkpt>
      <trkpt lat="44.00219" lon="2.57327">
        <ele>237</ele>
        <time>2021-10-31T11:18:59.406Z</time>
      </trkpt>
      <trkpt lat="44.00219" lon="2.57328">
        <ele>237</ele>
        <time>2021-10-31T11:19:00.406Z</time>
      </trkpt>
      <trkpt lat="44.00219" lon="2.57328">
        <ele>237</ele>
        <time>2021-10-31T11:19:01.406Z</time>
      </trkpt>
      <trkpt lat="44.00219" lon="2.57329">
        <ele>237</ele>
        <time>2021-10-31T11:19:02.406Z</time>
      </trkpt>
      <trkpt lat="44.00219" lon="2.57331">
        <ele>238</ele>
        <time>2021-10-31T11:19:03.406Z</time>
      </trkpt>
      <trkpt lat="44.00219" lon="2.57332">
        <ele>238</ele>
        <time>2021-10-31T11:19:04.406Z</time>
      </trkpt>
      <trkpt lat="44.00219" lon="2.57334">
        <ele>238</ele>
        <time>2021-10-31T11:19:05.406Z</time>
      </trkpt>
      <trkpt lat="44.00219" lon="2.57335">
        <ele>238</ele>
        <time>2021-10-31T11:19:06.406Z</time>
      </trkpt>
      <trkpt lat="44.00219" lon="2.57336">
        <ele>238</ele>
        <time>2021-10-31T11:19:07.406Z</time>
      </trkpt>
      <trkpt lat="44.00219" lon="2.57338">
        <ele>238</ele>
        <time>2021-10-31T11:19:08.406Z</time>
      </trkpt>
      <trkpt lat="44.00219" lon="2.57339">
        <ele>238</ele>
        <time>2021-10-31T11:19:09.406Z</time>
      </trkpt>
      <trkpt lat="44.00218" lon="2.57341">
        <ele>238</ele>
        <time>2021-10-31T11:19:10.406Z</time>
      </trkpt>
      <trkpt lat="44.00218" lon="2.57342">
        <ele>238</ele>
        <time>2021-10-31T11:19:11.406Z</time>
      </trkpt>
      <trkpt lat="44.00218" lon="2.57343">
        <ele>238</ele>
        <time>2021-10-31T11:19:12.406Z</time>
      </trkpt>
      <trkpt lat="44.00217" lon="2.57344">
        <ele>238</ele>
        <time>2021-10-31T11:19:13.406Z</time>
      </trkpt>
      <trkpt lat="44.00217" lon="2.57346">
        <ele>238</ele>
        <time>2021-10-31T11:19:52.417Z</time>
      </trkpt>
      <trkpt lat="44.00217" lon="2.57347">
        <ele>238</ele>
        <time>2021-10-31T11:19:53.417Z</time>
      </trkpt>
      <trkpt lat="44.00216" lon="2.57349">
        <ele>238</ele>
        <time>2021-10-31T11:19:54.417Z</time>
      </trkpt>
      <trkpt lat="44.00216" lon="2.5735">
        <ele>237</ele>
        <time>2021-10-31T11:19:55.417Z</time>
      </trkpt>
      <trkpt lat="44.00216" lon="2.57351">
        <ele>237</ele>
        <time>2021-10-31T11:19:56.417Z</time>
      </trkpt>
      <trkpt lat="44.00216" lon="2.57353">
        <ele>237</ele>
        <time>2021-10-31T11:19:57.417Z</time>
      </trkpt>
      <trkpt lat="44.00216" lon="2.57354">
        <ele>237</ele>
        <time>2021-10-31T11:19:58.417Z</time>
      </trkpt>
      <trkpt lat="44.00216" lon="2.57356">
        <ele>237</ele>
        <time>2021-10-31T11:19:59.417Z</time>
      </trkpt>
      <trkpt lat="44.00216" lon="2.57357">
        <ele>237</ele>
        <time>2021-10-31T11:20:00.417Z</time>
      </trkpt>
      <trkpt lat="44.00216" lon="2.57358">
        <ele>237</ele>
        <time>2021-10-31T11:20:01.417Z</time>
      </trkpt>
      <trkpt lat="44.00216" lon="2.5736">
        <ele>237</ele>
        <time>2021-10-31T11:20:02.417Z</time>
      </trkpt>
      <trkpt lat="44.00216" lon="2.57361">
        <ele>236</ele>
        <time>2021-10-31T11:20:03.417Z</time>
      </trkpt>
      <trkpt lat="44.00216" lon="2.57363">
        <ele>236</ele>
        <time>2021-10-31T11:20:04.417Z</time>
      </trkpt>
      <trkpt lat="44.00216" lon="2.57364">
        <ele>236</ele>
        <time>2021-10-31T11:20:05.417Z</time>
      </trkpt>
      <trkpt lat="44.00216" lon="2.57366">
        <ele>236</ele>
        <time>2021-10-31T11:20:06.417Z</time>
      </trkpt>
      <trkpt lat="44.00216" lon="2.57367">
        <ele>236</ele>
        <time>2021-10-31T11:20:07.417Z</time>
      </trkpt>
      <trkpt lat="44.00216" lon="2.57368">
        <ele>235</ele>
        <time>2021-10-31T11:20:08.417Z</time>
      </trkpt>
      <trkpt lat="44.00216" lon="2.57369">
        <ele>235</ele>
        <time>2021-10-31T11:20:09.417Z</time>
      </trkpt>
      <trkpt lat="44.00216" lon="2.5737">
        <ele>235</ele>
        <time>2021-10-31T11:20:10.417Z</time>
      </trkpt>
      <trkpt lat="44.00216" lon="2.57371">
        <ele>235</ele>
        <time>2021-10-31T11:20:11.417Z</time>
      </trkpt>
      <trkpt lat="44.00215" lon="2.57373">
        <ele>235</ele>
        <time>2021-10-31T11:20:12.417Z</time>
      </trkpt>
      <trkpt lat="44.00215" lon="2.57374">
        <ele>234</ele>
        <time>2021-10-31T11:20:13.417Z</time>
      </trkpt>
      <trkpt lat="44.00216" lon="2.57375">
        <ele>234</ele>
        <time>2021-10-31T11:20:14.417Z</time>
      </trkpt>
      <trkpt lat="44.00216" lon="2.57377">
        <ele>234</ele>
        <time>2021-10-31T11:20:15.417Z</time>
      </trkpt>
      <trkpt lat="44.00216" lon="2.57378">
        <ele>235</ele>
        <time>2021-10-31T11:20:16.417Z</time>
      </trkpt>
      <trkpt lat="44.00216" lon="2.57379">
        <ele>235</ele>
        <time>2021-10-31T11:20:17.417Z</time>
      </trkpt>
      <trkpt lat="44.00216" lon="2.57381">
        <ele>235</ele>
        <time>2021-10-31T11:20:18.417Z</time>
      </trkpt>
      <trkpt lat="44.00216" lon="2.57382">
        <ele>235</ele>
        <time>2021-10-31T11:20:19.417Z</time>
      </trkpt>
      <trkpt lat="44.00216" lon="2.57383">
        <ele>235</ele>
        <time>2021-10-31T11:20:20.417Z</time>
      </trkpt>
      <trkpt lat="44.00217" lon="2.57384">
        <ele>235</ele>
        <time>2021-10-31T11:20:21.417Z</time>
      </trkpt>
      <trkpt lat="44.00217" lon="2.57385">
        <ele>235</ele>
        <time>2021-10-31T11:20:22.417Z</time>
      </trkpt>
      <trkpt lat="44.00217" lon="2.57386">
        <ele>235</ele>
        <time>2021-10-31T11:20:23.417Z</time>
      </trkpt>
      <trkpt lat="44.00217" lon="2.57387">
        <ele>235</ele>
        <time>2021-10-31T11:20:24.417Z</time>
      </trkpt>
      <trkpt lat="44.00218" lon="2.57388">
        <ele>235</ele>
        <time>2021-10-31T11:20:25.417Z</time>
      </trkpt>
      <trkpt lat="44.00218" lon="2.5739">
        <ele>234</ele>
        <time>2021-10-31T11:20:26.417Z</time>
      </trkpt>
      <trkpt lat="44.00218" lon="2.57391">
        <ele>234</ele>
        <time>2021-10-31T11:20:27.417Z</time>
      </trkpt>
      <trkpt lat="44.00218" lon="2.57392">
        <ele>234</ele>
        <time>2021-10-31T11:20:28.417Z</time>
      </trkpt>
      <trkpt lat="44.00219" lon="2.57393">
        <ele>234</ele>
        <time>2021-10-31T11:20:29.417Z</time>
      </trkpt>
      <trkpt lat="44.00219" lon="2.57394">
        <ele>235</ele>
        <time>2021-10-31T11:20:30.417Z</time>
      </trkpt>
      <trkpt lat="44.00219" lon="2.57395">
        <ele>234</ele>
        <time>2021-10-31T11:20:31.417Z</time>
      </trkpt>
      <trkpt lat="44.00219" lon="2.57397">
        <ele>234</ele>
        <time>2021-10-31T11:20:32.417Z</time>
      </trkpt>
      <trkpt lat="44.00219" lon="2.57398">
        <ele>234</ele>
        <time>2021-10-31T11:20:33.417Z</time>
      </trkpt>
      <trkpt lat="44.00219" lon="2.57399">
        <ele>234</ele>
        <time>2021-10-31T11:20:34.417Z</time>
      </trkpt>
      <trkpt lat="44.0022" lon="2.574">
        <ele>234</ele>
        <time>2021-10-31T11:20:35.417Z</time>
      </trkpt>
      <trkpt lat="44.0022" lon="2.57401">
        <ele>234</ele>
        <time>2021-10-31T11:20:36.417Z</time>
      </trkpt>
      <trkpt lat="44.0022" lon="2.57402">
        <ele>234</ele>
        <time>2021-10-31T11:20:37.417Z</time>
      </trkpt>
      <trkpt lat="44.0022" lon="2.57402">
        <ele>234</ele>
        <time>2021-10-31T11:20:38.417Z</time>
      </trkpt>
      <trkpt lat="44.0022" lon="2.57403">
        <ele>234</ele>
        <time>2021-10-31T11:20:39.417Z</time>
      </trkpt>
      <trkpt lat="44.0022" lon="2.57405">
        <ele>234</ele>
        <time>2021-10-31T11:20:40.417Z</time>
      </trkpt>
      <trkpt lat="44.0022" lon="2.57406">
        <ele>234</ele>
        <time>2021-10-31T11:20:41.417Z</time>
      </trkpt>
      <trkpt lat="44.0022" lon="2.57407">
        <ele>234</ele>
        <time>2021-10-31T11:20:42.417Z</time>
      </trkpt>
      <trkpt lat="44.00221" lon="2.57408">
        <ele>234</ele>
        <time>2021-10-31T11:20:43.417Z</time>
      </trkpt>
      <trkpt lat="44.00221" lon="2.57409">
        <ele>234</ele>
        <time>2021-10-31T11:20:44.417Z</time>
      </trkpt>
      <trkpt lat="44.00221" lon="2.5741">
        <ele>234</ele>
        <time>2021-10-31T11:20:45.417Z</time>
      </trkpt>
      <trkpt lat="44.00222" lon="2.57412">
        <ele>234</ele>
        <time>2021-10-31T11:20:46.417Z</time>
      </trkpt>
      <trkpt lat="44.00222" lon="2.57413">
        <ele>234</ele>
        <time>2021-10-31T11:20:47.417Z</time>
      </trkpt>
      <trkpt lat="44.00222" lon="2.57414">
        <ele>234</ele>
        <time>2021-10-31T11:20:48.417Z</time>
      </trkpt>
      <trkpt lat="44.00222" lon="2.57416">
        <ele>235</ele>
        <time>2021-10-31T11:20:49.417Z</time>
      </trkpt>
      <trkpt lat="44.00223" lon="2.57417">
        <ele>235</ele>
        <time>2021-10-31T11:20:50.417Z</time>
      </trkpt>
      <trkpt lat="44.00223" lon="2.57418">
        <ele>235</ele>
        <time>2021-10-31T11:20:51.417Z</time>
      </trkpt>
      <trkpt lat="44.00223" lon="2.57419">
        <ele>235</ele>
        <time>2021-10-31T11:20:52.417Z</time>
      </trkpt>
      <trkpt lat="44.00223" lon="2.5742">
        <ele>235</ele>
        <time>2021-10-31T11:20:53.417Z</time>
      </trkpt>
      <trkpt lat="44.00223" lon="2.57422">
        <ele>235</ele>
        <time>2021-10-31T11:20:54.417Z</time>
      </trkpt>
      <trkpt lat="44.00223" lon="2.57423">
        <ele>235</ele>
        <time>2021-10-31T11:20:55.417Z</time>
      </trkpt>
      <trkpt lat="44.00224" lon="2.57424">
        <ele>235</ele>
        <time>2021-10-31T11:20:56.417Z</time>
      </trkpt>
      <trkpt lat="44.00224" lon="2.57425">
        <ele>235</ele>
        <time>2021-10-31T11:20:57.417Z</time>
      </trkpt>
      <trkpt lat="44.00225" lon="2.57426">
        <ele>235</ele>
        <time>2021-10-31T11:20:58.417Z</time>
      </trkpt>
      <trkpt lat="44.00225" lon="2.57427">
        <ele>235</ele>
        <time>2021-10-31T11:20:59.417Z</time>
      </trkpt>
      <trkpt lat="44.00226" lon="2.57428">
        <ele>235</ele>
        <time>2021-10-31T11:21:00.417Z</time>
      </trkpt>
      <trkpt lat="44.00226" lon="2.57429">
        <ele>235</ele>
        <time>2021-10-31T11:21:01.417Z</time>
      </trkpt>
      <trkpt lat="44.00226" lon="2.5743">
        <ele>235</ele>
        <time>2021-10-31T11:21:02.417Z</time>
      </trkpt>
      <trkpt lat="44.00226" lon="2.57432">
        <ele>236</ele>
        <time>2021-10-31T11:21:03.417Z</time>
      </trkpt>
      <trkpt lat="44.00226" lon="2.57433">
        <ele>236</ele>
        <time>2021-10-31T11:21:04.417Z</time>
      </trkpt>
      <trkpt lat="44.00226" lon="2.57434">
        <ele>236</ele>
        <time>2021-10-31T11:21:05.417Z</time>
      </trkpt>
      <trkpt lat="44.00227" lon="2.57435">
        <ele>236</ele>
        <time>2021-10-31T11:21:06.417Z</time>
      </trkpt>
      <trkpt lat="44.00227" lon="2.57437">
        <ele>236</ele>
        <time>2021-10-31T11:21:07.417Z</time>
      </trkpt>
      <trkpt lat="44.00227" lon="2.57438">
        <ele>236</ele>
        <time>2021-10-31T11:21:08.417Z</time>
      </trkpt>
      <trkpt lat="44.00227" lon="2.57439">
        <ele>236</ele>
        <time>2021-10-31T11:21:09.417Z</time>
      </trkpt>
      <trkpt lat="44.00227" lon="2.57441">
        <ele>236</ele>
        <time>2021-10-31T11:21:10.417Z</time>
      </trkpt>
      <trkpt lat="44.00226" lon="2.57442">
        <ele>236</ele>
        <time>2021-10-31T11:21:11.417Z</time>
      </trkpt>
      <trkpt lat="44.00227" lon="2.57444">
        <ele>236</ele>
        <time>2021-10-31T11:21:12.417Z</time>
      </trkpt>
      <trkpt lat="44.00227" lon="2.57445">
        <ele>235</ele>
        <time>2021-10-31T11:21:13.417Z</time>
      </trkpt>
      <trkpt lat="44.00227" lon="2.57447">
        <ele>236</ele>
        <time>2021-10-31T11:21:14.417Z</time>
      </trkpt>
      <trkpt lat="44.00228" lon="2.57448">
        <ele>236</ele>
        <time>2021-10-31T11:21:15.417Z</time>
      </trkpt>
      <trkpt lat="44.00228" lon="2.57449">
        <ele>236</ele>
        <time>2021-10-31T11:21:16.417Z</time>
      </trkpt>
      <trkpt lat="44.00228" lon="2.5745">
        <ele>236</ele>
        <time>2021-10-31T11:21:17.417Z</time>
      </trkpt>
      <trkpt lat="44.00228" lon="2.57452">
        <ele>236</ele>
        <time>2021-10-31T11:21:18.417Z</time>
      </trkpt>
      <trkpt lat="44.00228" lon="2.57453">
        <ele>236</ele>
        <time>2021-10-31T11:21:19.417Z</time>
      </trkpt>
      <trkpt lat="44.00229" lon="2.57455">
        <ele>236</ele>
        <time>2021-10-31T11:21:20.417Z</time>
      </trkpt>
      <trkpt lat="44.00229" lon="2.57455">
        <ele>236</ele>
        <time>2021-10-31T11:21:21.417Z</time>
      </trkpt>
      <trkpt lat="44.00229" lon="2.57456">
        <ele>236</ele>
        <time>2021-10-31T11:21:22.417Z</time>
      </trkpt>
      <trkpt lat="44.00229" lon="2.57458">
        <ele>236</ele>
        <time>2021-10-31T11:21:23.417Z</time>
      </trkpt>
      <trkpt lat="44.00229" lon="2.57459">
        <ele>236</ele>
        <time>2021-10-31T11:21:24.417Z</time>
      </trkpt>
      <trkpt lat="44.00229" lon="2.57461">
        <ele>236</ele>
        <time>2021-10-31T11:21:25.417Z</time>
      </trkpt>
      <trkpt lat="44.00229" lon="2.57462">
        <ele>236</ele>
        <time>2021-10-31T11:21:26.417Z</time>
      </trkpt>
      <trkpt lat="44.00229" lon="2.57463">
        <ele>236</ele>
        <time>2021-10-31T11:21:27.417Z</time>
      </trkpt>
      <trkpt lat="44.00229" lon="2.57465">
        <ele>236</ele>
        <time>2021-10-31T11:21:28.417Z</time>
      </trkpt>
      <trkpt lat="44.0023" lon="2.57466">
        <ele>236</ele>
        <time>2021-10-31T11:21:29.417Z</time>
      </trkpt>
      <trkpt lat="44.0023" lon="2.57467">
        <ele>236</ele>
        <time>2021-10-31T11:21:30.417Z</time>
      </trkpt>
      <trkpt lat="44.0023" lon="2.57469">
        <ele>236</ele>
        <time>2021-10-31T11:21:31.417Z</time>
      </trkpt>
      <trkpt lat="44.0023" lon="2.5747">
        <ele>236</ele>
        <time>2021-10-31T11:21:32.417Z</time>
      </trkpt>
      <trkpt lat="44.0023" lon="2.57471">
        <ele>236</ele>
        <time>2021-10-31T11:21:33.417Z</time>
      </trkpt>
      <trkpt lat="44.0023" lon="2.57472">
        <ele>236</ele>
        <time>2021-10-31T11:21:34.417Z</time>
      </trkpt>
      <trkpt lat="44.0023" lon="2.57474">
        <ele>236</ele>
        <time>2021-10-31T11:21:35.417Z</time>
      </trkpt>
      <trkpt lat="44.00231" lon="2.57475">
        <ele>236</ele>
        <time>2021-10-31T11:21:36.417Z</time>
      </trkpt>
      <trkpt lat="44.00231" lon="2.57476">
        <ele>236</ele>
        <time>2021-10-31T11:21:37.417Z</time>
      </trkpt>
      <trkpt lat="44.00231" lon="2.57477">
        <ele>236</ele>
        <time>2021-10-31T11:21:38.417Z</time>
      </trkpt>
      <trkpt lat="44.00231" lon="2.57479">
        <ele>236</ele>
        <time>2021-10-31T11:21:39.417Z</time>
      </trkpt>
      <trkpt lat="44.00231" lon="2.5748">
        <ele>236</ele>
        <time>2021-10-31T11:21:40.417Z</time>
      </trkpt>
      <trkpt lat="44.00232" lon="2.57481">
        <ele>236</ele>
        <time>2021-10-31T11:21:41.417Z</time>
      </trkpt>
      <trkpt lat="44.00232" lon="2.57482">
        <ele>236</ele>
        <time>2021-10-31T11:21:42.417Z</time>
      </trkpt>
      <trkpt lat="44.00232" lon="2.57484">
        <ele>237</ele>
        <time>2021-10-31T11:21:43.417Z</time>
      </trkpt>
      <trkpt lat="44.00232" lon="2.57485">
        <ele>237</ele>
        <time>2021-10-31T11:21:44.417Z</time>
      </trkpt>
      <trkpt lat="44.00233" lon="2.57486">
        <ele>237</ele>
        <time>2021-10-31T11:21:45.417Z</time>
      </trkpt>
      <trkpt lat="44.00233" lon="2.57487">
        <ele>237</ele>
        <time>2021-10-31T11:21:46.417Z</time>
      </trkpt>
      <trkpt lat="44.00233" lon="2.57488">
        <ele>237</ele>
        <time>2021-10-31T11:21:47.417Z</time>
      </trkpt>
      <trkpt lat="44.00233" lon="2.5749">
        <ele>237</ele>
        <time>2021-10-31T11:21:48.417Z</time>
      </trkpt>
      <trkpt lat="44.00234" lon="2.57491">
        <ele>237</ele>
        <time>2021-10-31T11:21:49.417Z</time>
      </trkpt>
      <trkpt lat="44.00234" lon="2.57492">
        <ele>237</ele>
        <time>2021-10-31T11:21:50.417Z</time>
      </trkpt>
      <trkpt lat="44.00234" lon="2.57494">
        <ele>237</ele>
        <time>2021-10-31T11:21:51.417Z</time>
      </trkpt>
      <trkpt lat="44.00234" lon="2.57495">
        <ele>237</ele>
        <time>2021-10-31T11:21:52.417Z</time>
      </trkpt>
      <trkpt lat="44.00234" lon="2.57496">
        <ele>237</ele>
        <time>2021-10-31T11:21:53.417Z</time>
      </trkpt>
      <trkpt lat="44.00235" lon="2.57497">
        <ele>237</ele>
        <time>2021-10-31T11:21:54.417Z</time>
      </trkpt>
      <trkpt lat="44.00235" lon="2.57498">
        <ele>237</ele>
        <time>2021-10-31T11:21:55.417Z</time>
      </trkpt>
      <trkpt lat="44.00235" lon="2.57499">
        <ele>237</ele>
        <time>2021-10-31T11:21:56.417Z</time>
      </trkpt>
      <trkpt lat="44.00235" lon="2.575">
        <ele>237</ele>
        <time>2021-10-31T11:21:57.417Z</time>
      </trkpt>
      <trkpt lat="44.00235" lon="2.57501">
        <ele>237</ele>
        <time>2021-10-31T11:21:58.417Z</time>
      </trkpt>
      <trkpt lat="44.00236" lon="2.57502">
        <ele>237</ele>
        <time>2021-10-31T11:21:59.417Z</time>
      </trkpt>
      <trkpt lat="44.00236" lon="2.57503">
        <ele>237</ele>
        <time>2021-10-31T11:22:00.417Z</time>
      </trkpt>
      <trkpt lat="44.00236" lon="2.57503">
        <ele>237</ele>
        <time>2021-10-31T11:22:01.417Z</time>
      </trkpt>
      <trkpt lat="44.00236" lon="2.57504">
        <ele>237</ele>
        <time>2021-10-31T11:22:02.417Z</time>
      </trkpt>
      <trkpt lat="44.00237" lon="2.57505">
        <ele>237</ele>
        <time>2021-10-31T11:22:03.417Z</time>
      </trkpt>
      <trkpt lat="44.00237" lon="2.57506">
        <ele>237</ele>
        <time>2021-10-31T11:22:04.417Z</time>
      </trkpt>
      <trkpt lat="44.00237" lon="2.57507">
        <ele>236</ele>
        <time>2021-10-31T11:22:05.417Z</time>
      </trkpt>
      <trkpt lat="44.00237" lon="2.57509">
        <ele>236</ele>
        <time>2021-10-31T11:22:06.417Z</time>
      </trkpt>
      <trkpt lat="44.00237" lon="2.5751">
        <ele>236</ele>
        <time>2021-10-31T11:22:07.417Z</time>
      </trkpt>
      <trkpt lat="44.00237" lon="2.57511">
        <ele>236</ele>
        <time>2021-10-31T11:22:08.417Z</time>
      </trkpt>
      <trkpt lat="44.00237" lon="2.57512">
        <ele>236</ele>
        <time>2021-10-31T11:22:09.417Z</time>
      </trkpt>
      <trkpt lat="44.00237" lon="2.57513">
        <ele>236</ele>
        <time>2021-10-31T11:22:10.417Z</time>
      </trkpt>
      <trkpt lat="44.00237" lon="2.57515">
        <ele>236</ele>
        <time>2021-10-31T11:22:11.417Z</time>
      </trkpt>
      <trkpt lat="44.00237" lon="2.57516">
        <ele>236</ele>
        <time>2021-10-31T11:22:12.417Z</time>
      </trkpt>
      <trkpt lat="44.00237" lon="2.57517">
        <ele>236</ele>
        <time>2021-10-31T11:22:13.417Z</time>
      </trkpt>
      <trkpt lat="44.00238" lon="2.57518">
        <ele>236</ele>
        <time>2021-10-31T11:22:14.417Z</time>
      </trkpt>
      <trkpt lat="44.00238" lon="2.57519">
        <ele>236</ele>
        <time>2021-10-31T11:22:15.417Z</time>
      </trkpt>
      <trkpt lat="44.00239" lon="2.5752">
        <ele>236</ele>
        <time>2021-10-31T11:22:16.417Z</time>
      </trkpt>
      <trkpt lat="44.00239" lon="2.57522">
        <ele>236</ele>
        <time>2021-10-31T11:22:17.417Z</time>
      </trkpt>
      <trkpt lat="44.00239" lon="2.57523">
        <ele>236</ele>
        <time>2021-10-31T11:22:18.417Z</time>
      </trkpt>
      <trkpt lat="44.00239" lon="2.57524">
        <ele>236</ele>
        <time>2021-10-31T11:22:19.417Z</time>
      </trkpt>
      <trkpt lat="44.00239" lon="2.57525">
        <ele>236</ele>
        <time>2021-10-31T11:22:20.417Z</time>
      </trkpt>
      <trkpt lat="44.0024" lon="2.57526">
        <ele>236</ele>
        <time>2021-10-31T11:22:21.417Z</time>
      </trkpt>
      <trkpt lat="44.0024" lon="2.57527">
        <ele>236</ele>
        <time>2021-10-31T11:22:22.417Z</time>
      </trkpt>
      <trkpt lat="44.0024" lon="2.57528">
        <ele>236</ele>
        <time>2021-10-31T11:22:23.417Z</time>
      </trkpt>
      <trkpt lat="44.00241" lon="2.57529">
        <ele>236</ele>
        <time>2021-10-31T11:22:24.417Z</time>
      </trkpt>
      <trkpt lat="44.00241" lon="2.5753">
        <ele>236</ele>
        <time>2021-10-31T11:22:25.417Z</time>
      </trkpt>
      <trkpt lat="44.00241" lon="2.57531">
        <ele>236</ele>
        <time>2021-10-31T11:22:26.417Z</time>
      </trkpt>
      <trkpt lat="44.00242" lon="2.57532">
        <ele>236</ele>
        <time>2021-10-31T11:22:27.417Z</time>
      </trkpt>
      <trkpt lat="44.00242" lon="2.57533">
        <ele>236</ele>
        <time>2021-10-31T11:22:28.417Z</time>
      </trkpt>
      <trkpt lat="44.00243" lon="2.57535">
        <ele>236</ele>
        <time>2021-10-31T11:22:29.417Z</time>
      </trkpt>
      <trkpt lat="44.00244" lon="2.57536">
        <ele>236</ele>
        <time>2021-10-31T11:22:30.417Z</time>
      </trkpt>
      <trkpt lat="44.00244" lon="2.57538">
        <ele>236</ele>
        <time>2021-10-31T11:22:31.417Z</time>
      </trkpt>
      <trkpt lat="44.00245" lon="2.57539">
        <ele>236</ele>
        <time>2021-10-31T11:22:32.417Z</time>
      </trkpt>
      <trkpt lat="44.00246" lon="2.5754">
        <ele>236</ele>
        <time>2021-10-31T11:22:33.417Z</time>
      </trkpt>
      <trkpt lat="44.00247" lon="2.57541">
        <ele>236</ele>
        <time>2021-10-31T11:22:34.417Z</time>
      </trkpt>
      <trkpt lat="44.00247" lon="2.57542">
        <ele>236</ele>
        <time>2021-10-31T11:22:35.417Z</time>
      </trkpt>
      <trkpt lat="44.00248" lon="2.57543">
        <ele>236</ele>
        <time>2021-10-31T11:22:36.417Z</time>
      </trkpt>
      <trkpt lat="44.00249" lon="2.57544">
        <ele>236</ele>
        <time>2021-10-31T11:22:37.417Z</time>
      </trkpt>
      <trkpt lat="44.00249" lon="2.57545">
        <ele>235</ele>
        <time>2021-10-31T11:22:38.417Z</time>
      </trkpt>
      <trkpt lat="44.00249" lon="2.57546">
        <ele>235</ele>
        <time>2021-10-31T11:22:39.417Z</time>
      </trkpt>
      <trkpt lat="44.0025" lon="2.57547">
        <ele>235</ele>
        <time>2021-10-31T11:22:40.417Z</time>
      </trkpt>
      <trkpt lat="44.0025" lon="2.57548">
        <ele>235</ele>
        <time>2021-10-31T11:22:41.417Z</time>
      </trkpt>
      <trkpt lat="44.00251" lon="2.57548">
        <ele>235</ele>
        <time>2021-10-31T11:22:42.417Z</time>
      </trkpt>
      <trkpt lat="44.00251" lon="2.57549">
        <ele>235</ele>
        <time>2021-10-31T11:22:43.417Z</time>
      </trkpt>
      <trkpt lat="44.00252" lon="2.5755">
        <ele>236</ele>
        <time>2021-10-31T11:22:44.417Z</time>
      </trkpt>
      <trkpt lat="44.00252" lon="2.57551">
        <ele>236</ele>
        <time>2021-10-31T11:22:45.417Z</time>
      </trkpt>
      <trkpt lat="44.00253" lon="2.57551">
        <ele>236</ele>
        <time>2021-10-31T11:22:46.417Z</time>
      </trkpt>
      <trkpt lat="44.00253" lon="2.57552">
        <ele>236</ele>
        <time>2021-10-31T11:22:47.417Z</time>
      </trkpt>
      <trkpt lat="44.00254" lon="2.57553">
        <ele>236</ele>
        <time>2021-10-31T11:22:48.417Z</time>
      </trkpt>
      <trkpt lat="44.00254" lon="2.57554">
        <ele>236</ele>
        <time>2021-10-31T11:22:49.417Z</time>
      </trkpt>
      <trkpt lat="44.00255" lon="2.57554">
        <ele>236</ele>
        <time>2021-10-31T11:22:50.417Z</time>
      </trkpt>
      <trkpt lat="44.00255" lon="2.57555">
        <ele>236</ele>
        <time>2021-10-31T11:22:51.417Z</time>
      </trkpt>
      <trkpt lat="44.00256" lon="2.57556">
        <ele>236</ele>
        <time>2021-10-31T11:22:52.417Z</time>
      </trkpt>
      <trkpt lat="44.00256" lon="2.57556">
        <ele>236</ele>
        <time>2021-10-31T11:22:53.417Z</time>
      </trkpt>
      <trkpt lat="44.00257" lon="2.57557">
        <ele>236</ele>
        <time>2021-10-31T11:22:54.417Z</time>
      </trkpt>
      <trkpt lat="44.00257" lon="2.57558">
        <ele>236</ele>
        <time>2021-10-31T11:22:55.417Z</time>
      </trkpt>
      <trkpt lat="44.00257" lon="2.57558">
        <ele>236</ele>
        <time>2021-10-31T11:22:56.417Z</time>
      </trkpt>
      <trkpt lat="44.00258" lon="2.57559">
        <ele>236</ele>
        <time>2021-10-31T11:22:57.417Z</time>
      </trkpt>
      <trkpt lat="44.00258" lon="2.5756">
        <ele>237</ele>
        <time>2021-10-31T11:22:58.417Z</time>
      </trkpt>
      <trkpt lat="44.00258" lon="2.5756">
        <ele>237</ele>
        <time>2021-10-31T11:22:59.417Z</time>
      </trkpt>
      <trkpt lat="44.00258" lon="2.57561">
        <ele>237</ele>
        <time>2021-10-31T11:23:00.417Z</time>
      </trkpt>
      <trkpt lat="44.00259" lon="2.57561">
        <ele>237</ele>
        <time>2021-10-31T11:23:01.417Z</time>
      </trkpt>
      <trkpt lat="44.00259" lon="2.57561">
        <ele>237</ele>
        <time>2021-10-31T11:23:02.417Z</time>
      </trkpt>
      <trkpt lat="44.0026" lon="2.57565">
        <ele>239</ele>
        <time>2021-10-31T11:23:03.417Z</time>
      </trkpt>
      <trkpt lat="44.00261" lon="2.57566">
        <ele>239</ele>
        <time>2021-10-31T11:23:04.417Z</time>
      </trkpt>
      <trkpt lat="44.00261" lon="2.57566">
        <ele>239</ele>
        <time>2021-10-31T11:23:05.417Z</time>
      </trkpt>
      <trkpt lat="44.00261" lon="2.57567">
        <ele>239</ele>
        <time>2021-10-31T11:23:06.417Z</time>
      </trkpt>
      <trkpt lat="44.00262" lon="2.57567">
        <ele>239</ele>
        <time>2021-10-31T11:23:07.417Z</time>
      </trkpt>
      <trkpt lat="44.00262" lon="2.57568">
        <ele>239</ele>
        <time>2021-10-31T11:23:08.417Z</time>
      </trkpt>
      <trkpt lat="44.00262" lon="2.57569">
        <ele>239</ele>
        <time>2021-10-31T11:23:09.417Z</time>
      </trkpt>
      <trkpt lat="44.00262" lon="2.57569">
        <ele>239</ele>
        <time>2021-10-31T11:23:10.417Z</time>
      </trkpt>
      <trkpt lat="44.00263" lon="2.5757">
        <ele>239</ele>
        <time>2021-10-31T11:23:11.417Z</time>
      </trkpt>
      <trkpt lat="44.00263" lon="2.57571">
        <ele>239</ele>
        <time>2021-10-31T11:23:12.417Z</time>
      </trkpt>
      <trkpt lat="44.00263" lon="2.57571">
        <ele>239</ele>
        <time>2021-10-31T11:23:16.427Z</time>
      </trkpt>
      <trkpt lat="44.00264" lon="2.57572">
        <ele>239</ele>
        <time>2021-10-31T11:23:17.427Z</time>
      </trkpt>
      <trkpt lat="44.00264" lon="2.57573">
        <ele>240</ele>
        <time>2021-10-31T11:23:18.427Z</time>
      </trkpt>
      <trkpt lat="44.00264" lon="2.57573">
        <ele>240</ele>
        <time>2021-10-31T11:23:19.427Z</time>
      </trkpt>
      <trkpt lat="44.00265" lon="2.57574">
        <ele>240</ele>
        <time>2021-10-31T11:23:20.427Z</time>
      </trkpt>
      <trkpt lat="44.00265" lon="2.57575">
        <ele>240</ele>
        <time>2021-10-31T11:23:21.427Z</time>
      </trkpt>
      <trkpt lat="44.00266" lon="2.57575">
        <ele>240</ele>
        <time>2021-10-31T11:23:24.710Z</time>
      </trkpt>
      <trkpt lat="44.00266" lon="2.57576">
        <ele>240</ele>
        <time>2021-10-31T11:23:25.710Z</time>
      </trkpt>
      <trkpt lat="44.00267" lon="2.57577">
        <ele>240</ele>
        <time>2021-10-31T11:23:26.710Z</time>
      </trkpt>
      <trkpt lat="44.00267" lon="2.57579">
        <ele>240</ele>
        <time>2021-10-31T11:23:27.710Z</time>
      </trkpt>
      <trkpt lat="44.00267" lon="2.57579">
        <ele>240</ele>
        <time>2021-10-31T11:23:28.710Z</time>
      </trkpt>
      <trkpt lat="44.00268" lon="2.57581">
        <ele>240</ele>
        <time>2021-10-31T11:23:29.710Z</time>
      </trkpt>
      <trkpt lat="44.00268" lon="2.57582">
        <ele>240</ele>
        <time>2021-10-31T11:23:30.710Z</time>
      </trkpt>
      <trkpt lat="44.00269" lon="2.57583">
        <ele>240</ele>
        <time>2021-10-31T11:23:31.710Z</time>
      </trkpt>
      <trkpt lat="44.00269" lon="2.57583">
        <ele>240</ele>
        <time>2021-10-31T11:23:32.710Z</time>
      </trkpt>
      <trkpt lat="44.0027" lon="2.57585">
        <ele>240</ele>
        <time>2021-10-31T11:23:33.710Z</time>
      </trkpt>
      <trkpt lat="44.0027" lon="2.57586">
        <ele>240</ele>
        <time>2021-10-31T11:23:34.710Z</time>
      </trkpt>
      <trkpt lat="44.0027" lon="2.57587">
        <ele>241</ele>
        <time>2021-10-31T11:23:35.710Z</time>
      </trkpt>
      <trkpt lat="44.00271" lon="2.57588">
        <ele>241</ele>
        <time>2021-10-31T11:23:36.710Z</time>
      </trkpt>
      <trkpt lat="44.00271" lon="2.57589">
        <ele>241</ele>
        <time>2021-10-31T11:23:37.710Z</time>
      </trkpt>
      <trkpt lat="44.00271" lon="2.57591">
        <ele>241</ele>
        <time>2021-10-31T11:23:38.710Z</time>
      </trkpt>
      <trkpt lat="44.00272" lon="2.57592">
        <ele>241</ele>
        <time>2021-10-31T11:23:39.710Z</time>
      </trkpt>
      <trkpt lat="44.00272" lon="2.57593">
        <ele>241</ele>
        <time>2021-10-31T11:23:40.710Z</time>
      </trkpt>
      <trkpt lat="44.00273" lon="2.57594">
        <ele>241</ele>
        <time>2021-10-31T11:23:41.710Z</time>
      </trkpt>
      <trkpt lat="44.00273" lon="2.57596">
        <ele>241</ele>
        <time>2021-10-31T11:23:42.710Z</time>
      </trkpt>
      <trkpt lat="44.00273" lon="2.57597">
        <ele>241</ele>
        <time>2021-10-31T11:23:43.710Z</time>
      </trkpt>
      <trkpt lat="44.00274" lon="2.57597">
        <ele>241</ele>
        <time>2021-10-31T11:23:44.710Z</time>
      </trkpt>
      <trkpt lat="44.00274" lon="2.57598">
        <ele>241</ele>
        <time>2021-10-31T11:23:45.710Z</time>
      </trkpt>
      <trkpt lat="44.00275" lon="2.576">
        <ele>241</ele>
        <time>2021-10-31T11:23:46.710Z</time>
      </trkpt>
      <trkpt lat="44.00275" lon="2.57601">
        <ele>241</ele>
        <time>2021-10-31T11:23:47.710Z</time>
      </trkpt>
      <trkpt lat="44.00276" lon="2.57603">
        <ele>241</ele>
        <time>2021-10-31T11:23:48.710Z</time>
      </trkpt>
      <trkpt lat="44.00276" lon="2.57604">
        <ele>241</ele>
        <time>2021-10-31T11:23:49.710Z</time>
      </trkpt>
      <trkpt lat="44.00277" lon="2.57605">
        <ele>241</ele>
        <time>2021-10-31T11:23:50.710Z</time>
      </trkpt>
      <trkpt lat="44.00277" lon="2.57606">
        <ele>241</ele>
        <time>2021-10-31T11:23:51.710Z</time>
      </trkpt>
      <trkpt lat="44.00278" lon="2.57608">
        <ele>241</ele>
        <time>2021-10-31T11:23:52.710Z</time>
      </trkpt>
      <trkpt lat="44.00278" lon="2.57609">
        <ele>241</ele>
        <time>2021-10-31T11:23:53.710Z</time>
      </trkpt>
      <trkpt lat="44.00278" lon="2.5761">
        <ele>241</ele>
        <time>2021-10-31T11:23:54.710Z</time>
      </trkpt>
      <trkpt lat="44.00279" lon="2.57612">
        <ele>241</ele>
        <time>2021-10-31T11:23:55.710Z</time>
      </trkpt>
      <trkpt lat="44.00279" lon="2.57613">
        <ele>240</ele>
        <time>2021-10-31T11:23:56.710Z</time>
      </trkpt>
      <trkpt lat="44.00279" lon="2.57613">
        <ele>240</ele>
        <time>2021-10-31T11:23:57.710Z</time>
      </trkpt>
      <trkpt lat="44.00279" lon="2.57614">
        <ele>240</ele>
        <time>2021-10-31T11:23:58.710Z</time>
      </trkpt>
      <trkpt lat="44.0028" lon="2.57615">
        <ele>240</ele>
        <time>2021-10-31T11:23:59.710Z</time>
      </trkpt>
      <trkpt lat="44.0028" lon="2.57616">
        <ele>240</ele>
        <time>2021-10-31T11:24:00.710Z</time>
      </trkpt>
      <trkpt lat="44.0028" lon="2.57617">
        <ele>240</ele>
        <time>2021-10-31T11:24:01.710Z</time>
      </trkpt>
      <trkpt lat="44.00281" lon="2.57618">
        <ele>240</ele>
        <time>2021-10-31T11:24:02.710Z</time>
      </trkpt>
      <trkpt lat="44.00281" lon="2.57619">
        <ele>240</ele>
        <time>2021-10-31T11:24:03.710Z</time>
      </trkpt>
      <trkpt lat="44.00282" lon="2.5762">
        <ele>240</ele>
        <time>2021-10-31T11:24:04.710Z</time>
      </trkpt>
      <trkpt lat="44.00282" lon="2.5762">
        <ele>240</ele>
        <time>2021-10-31T11:24:05.710Z</time>
      </trkpt>
      <trkpt lat="44.00283" lon="2.57621">
        <ele>240</ele>
        <time>2021-10-31T11:24:06.710Z</time>
      </trkpt>
      <trkpt lat="44.00284" lon="2.57622">
        <ele>240</ele>
        <time>2021-10-31T11:24:07.710Z</time>
      </trkpt>
      <trkpt lat="44.00284" lon="2.57623">
        <ele>240</ele>
        <time>2021-10-31T11:24:08.710Z</time>
      </trkpt>
      <trkpt lat="44.00285" lon="2.57624">
        <ele>240</ele>
        <time>2021-10-31T11:24:09.710Z</time>
      </trkpt>
      <trkpt lat="44.00285" lon="2.57625">
        <ele>240</ele>
        <time>2021-10-31T11:24:10.710Z</time>
      </trkpt>
      <trkpt lat="44.00285" lon="2.57626">
        <ele>240</ele>
        <time>2021-10-31T11:24:11.710Z</time>
      </trkpt>
      <trkpt lat="44.00286" lon="2.57627">
        <ele>240</ele>
        <time>2021-10-31T11:24:12.710Z</time>
      </trkpt>
      <trkpt lat="44.00286" lon="2.57627">
        <ele>240</ele>
        <time>2021-10-31T11:24:13.710Z</time>
      </trkpt>
      <trkpt lat="44.00285" lon="2.57627">
        <ele>240</ele>
        <time>2021-10-31T11:24:14.710Z</time>
      </trkpt>
      <trkpt lat="44.00285" lon="2.57627">
        <ele>240</ele>
        <time>2021-10-31T11:24:15.710Z</time>
      </trkpt>
      <trkpt lat="44.00285" lon="2.57627">
        <ele>240</ele>
        <time>2021-10-31T11:24:16.710Z</time>
      </trkpt>
      <trkpt lat="44.00287" lon="2.57629">
        <ele>240</ele>
        <time>2021-10-31T11:24:17.710Z</time>
      </trkpt>
      <trkpt lat="44.00287" lon="2.5763">
        <ele>240</ele>
        <time>2021-10-31T11:24:18.710Z</time>
      </trkpt>
      <trkpt lat="44.00287" lon="2.57631">
        <ele>240</ele>
        <time>2021-10-31T11:24:19.710Z</time>
      </trkpt>
      <trkpt lat="44.00288" lon="2.57631">
        <ele>240</ele>
        <time>2021-10-31T11:24:20.710Z</time>
      </trkpt>
      <trkpt lat="44.00288" lon="2.57632">
        <ele>240</ele>
        <time>2021-10-31T11:24:21.710Z</time>
      </trkpt>
      <trkpt lat="44.00288" lon="2.57633">
        <ele>240</ele>
        <time>2021-10-31T11:24:22.710Z</time>
      </trkpt>
      <trkpt lat="44.00288" lon="2.57634">
        <ele>240</ele>
        <time>2021-10-31T11:24:23.710Z</time>
      </trkpt>
      <trkpt lat="44.00289" lon="2.57635">
        <ele>240</ele>
        <time>2021-10-31T11:24:24.710Z</time>
      </trkpt>
      <trkpt lat="44.00289" lon="2.57636">
        <ele>240</ele>
        <time>2021-10-31T11:24:25.710Z</time>
      </trkpt>
      <trkpt lat="44.00289" lon="2.57637">
        <ele>240</ele>
        <time>2021-10-31T11:24:26.710Z</time>
      </trkpt>
      <trkpt lat="44.0029" lon="2.57638">
        <ele>239</ele>
        <time>2021-10-31T11:24:27.710Z</time>
      </trkpt>
      <trkpt lat="44.0029" lon="2.57639">
        <ele>239</ele>
        <time>2021-10-31T11:24:28.710Z</time>
      </trkpt>
      <trkpt lat="44.0029" lon="2.5764">
        <ele>239</ele>
        <time>2021-10-31T11:24:29.710Z</time>
      </trkpt>
      <trkpt lat="44.00291" lon="2.57641">
        <ele>239</ele>
        <time>2021-10-31T11:24:30.710Z</time>
      </trkpt>
      <trkpt lat="44.00291" lon="2.57642">
        <ele>239</ele>
        <time>2021-10-31T11:24:31.710Z</time>
      </trkpt>
      <trkpt lat="44.00291" lon="2.57643">
        <ele>239</ele>
        <time>2021-10-31T11:24:32.710Z</time>
      </trkpt>
      <trkpt lat="44.00292" lon="2.57644">
        <ele>239</ele>
        <time>2021-10-31T11:24:33.710Z</time>
      </trkpt>
      <trkpt lat="44.00292" lon="2.57645">
        <ele>239</ele>
        <time>2021-10-31T11:24:34.710Z</time>
      </trkpt>
      <trkpt lat="44.00293" lon="2.57646">
        <ele>239</ele>
        <time>2021-10-31T11:24:35.710Z</time>
      </trkpt>
      <trkpt lat="44.00293" lon="2.57647">
        <ele>239</ele>
        <time>2021-10-31T11:24:36.710Z</time>
      </trkpt>
      <trkpt lat="44.00294" lon="2.57648">
        <ele>239</ele>
        <time>2021-10-31T11:24:37.710Z</time>
      </trkpt>
      <trkpt lat="44.00294" lon="2.57649">
        <ele>239</ele>
        <time>2021-10-31T11:24:38.710Z</time>
      </trkpt>
      <trkpt lat="44.00294" lon="2.5765">
        <ele>239</ele>
        <time>2021-10-31T11:24:39.710Z</time>
      </trkpt>
      <trkpt lat="44.00295" lon="2.5765">
        <ele>239</ele>
        <time>2021-10-31T11:24:51.721Z</time>
      </trkpt>
      <trkpt lat="44.00295" lon="2.57651">
        <ele>239</ele>
        <time>2021-10-31T11:24:52.721Z</time>
      </trkpt>
      <trkpt lat="44.00295" lon="2.57652">
        <ele>239</ele>
        <time>2021-10-31T11:24:53.721Z</time>
      </trkpt>
      <trkpt lat="44.00296" lon="2.57653">
        <ele>239</ele>
        <time>2021-10-31T11:24:54.721Z</time>
      </trkpt>
      <trkpt lat="44.00296" lon="2.57654">
        <ele>239</ele>
        <time>2021-10-31T11:24:55.721Z</time>
      </trkpt>
      <trkpt lat="44.00296" lon="2.57655">
        <ele>239</ele>
        <time>2021-10-31T11:24:56.721Z</time>
      </trkpt>
      <trkpt lat="44.00297" lon="2.57656">
        <ele>239</ele>
        <time>2021-10-31T11:24:57.721Z</time>
      </trkpt>
      <trkpt lat="44.00297" lon="2.57657">
        <ele>239</ele>
        <time>2021-10-31T11:24:58.721Z</time>
      </trkpt>
      <trkpt lat="44.00297" lon="2.57658">
        <ele>239</ele>
        <time>2021-10-31T11:24:59.721Z</time>
      </trkpt>
      <trkpt lat="44.00297" lon="2.57659">
        <ele>239</ele>
        <time>2021-10-31T11:25:00.721Z</time>
      </trkpt>
      <trkpt lat="44.00297" lon="2.5766">
        <ele>239</ele>
        <time>2021-10-31T11:25:01.721Z</time>
      </trkpt>
      <trkpt lat="44.00298" lon="2.57662">
        <ele>239</ele>
        <time>2021-10-31T11:25:02.721Z</time>
      </trkpt>
      <trkpt lat="44.00298" lon="2.57663">
        <ele>239</ele>
        <time>2021-10-31T11:25:03.721Z</time>
      </trkpt>
      <trkpt lat="44.00298" lon="2.57664">
        <ele>239</ele>
        <time>2021-10-31T11:25:04.721Z</time>
      </trkpt>
      <trkpt lat="44.00298" lon="2.57665">
        <ele>239</ele>
        <time>2021-10-31T11:25:05.721Z</time>
      </trkpt>
      <trkpt lat="44.00298" lon="2.57666">
        <ele>238</ele>
        <time>2021-10-31T11:25:06.721Z</time>
      </trkpt>
      <trkpt lat="44.00298" lon="2.57667">
        <ele>238</ele>
        <time>2021-10-31T11:25:07.721Z</time>
      </trkpt>
      <trkpt lat="44.00298" lon="2.57668">
        <ele>238</ele>
        <time>2021-10-31T11:25:08.721Z</time>
      </trkpt>
      <trkpt lat="44.00298" lon="2.57669">
        <ele>238</ele>
        <time>2021-10-31T11:25:09.721Z</time>
      </trkpt>
      <trkpt lat="44.00299" lon="2.5767">
        <ele>238</ele>
        <time>2021-10-31T11:25:10.721Z</time>
      </trkpt>
      <trkpt lat="44.00299" lon="2.57671">
        <ele>238</ele>
        <time>2021-10-31T11:25:11.721Z</time>
      </trkpt>
      <trkpt lat="44.003" lon="2.57672">
        <ele>238</ele>
        <time>2021-10-31T11:25:12.721Z</time>
      </trkpt>
      <trkpt lat="44.003" lon="2.57673">
        <ele>238</ele>
        <time>2021-10-31T11:25:13.721Z</time>
      </trkpt>
      <trkpt lat="44.00301" lon="2.57674">
        <ele>238</ele>
        <time>2021-10-31T11:25:14.721Z</time>
      </trkpt>
      <trkpt lat="44.00301" lon="2.57675">
        <ele>238</ele>
        <time>2021-10-31T11:25:15.721Z</time>
      </trkpt>
      <trkpt lat="44.00302" lon="2.57676">
        <ele>238</ele>
        <time>2021-10-31T11:25:16.721Z</time>
      </trkpt>
      <trkpt lat="44.00302" lon="2.57676">
        <ele>238</ele>
        <time>2021-10-31T11:25:17.721Z</time>
      </trkpt>
      <trkpt lat="44.00302" lon="2.57677">
        <ele>238</ele>
        <time>2021-10-31T11:25:18.721Z</time>
      </trkpt>
      <trkpt lat="44.00303" lon="2.57678">
        <ele>238</ele>
        <time>2021-10-31T11:25:35.700Z</time>
      </trkpt>
      <trkpt lat="44.00303" lon="2.57678">
        <ele>238</ele>
        <time>2021-10-31T11:25:36.700Z</time>
      </trkpt>
      <trkpt lat="44.00304" lon="2.57679">
        <ele>238</ele>
        <time>2021-10-31T11:25:37.700Z</time>
      </trkpt>
      <trkpt lat="44.00304" lon="2.5768">
        <ele>238</ele>
        <time>2021-10-31T11:25:38.700Z</time>
      </trkpt>
      <trkpt lat="44.00304" lon="2.57681">
        <ele>238</ele>
        <time>2021-10-31T11:25:39.700Z</time>
      </trkpt>
      <trkpt lat="44.00304" lon="2.57683">
        <ele>238</ele>
        <time>2021-10-31T11:25:40.700Z</time>
      </trkpt>
      <trkpt lat="44.00305" lon="2.57684">
        <ele>237</ele>
        <time>2021-10-31T11:25:41.700Z</time>
      </trkpt>
      <trkpt lat="44.00305" lon="2.57685">
        <ele>237</ele>
        <time>2021-10-31T11:25:42.700Z</time>
      </trkpt>
      <trkpt lat="44.00306" lon="2.57686">
        <ele>237</ele>
        <time>2021-10-31T11:25:43.700Z</time>
      </trkpt>
      <trkpt lat="44.00306" lon="2.57687">
        <ele>237</ele>
        <time>2021-10-31T11:25:44.700Z</time>
      </trkpt>
      <trkpt lat="44.00307" lon="2.57688">
        <ele>237</ele>
        <time>2021-10-31T11:25:45.700Z</time>
      </trkpt>
      <trkpt lat="44.00307" lon="2.5769">
        <ele>237</ele>
        <time>2021-10-31T11:25:46.700Z</time>
      </trkpt>
      <trkpt lat="44.00308" lon="2.57691">
        <ele>237</ele>
        <time>2021-10-31T11:25:47.700Z</time>
      </trkpt>
      <trkpt lat="44.00308" lon="2.57692">
        <ele>237</ele>
        <time>2021-10-31T11:25:48.700Z</time>
      </trkpt>
      <trkpt lat="44.00309" lon="2.57693">
        <ele>237</ele>
        <time>2021-10-31T11:25:49.700Z</time>
      </trkpt>
      <trkpt lat="44.00309" lon="2.57694">
        <ele>237</ele>
        <time>2021-10-31T11:25:50.700Z</time>
      </trkpt>
      <trkpt lat="44.0031" lon="2.57696">
        <ele>237</ele>
        <time>2021-10-31T11:25:51.700Z</time>
      </trkpt>
      <trkpt lat="44.0031" lon="2.57697">
        <ele>237</ele>
        <time>2021-10-31T11:25:52.700Z</time>
      </trkpt>
      <trkpt lat="44.00311" lon="2.57698">
        <ele>237</ele>
        <time>2021-10-31T11:25:53.700Z</time>
      </trkpt>
      <trkpt lat="44.00312" lon="2.57699">
        <ele>237</ele>
        <time>2021-10-31T11:25:54.700Z</time>
      </trkpt>
      <trkpt lat="44.00312" lon="2.577">
        <ele>237</ele>
        <time>2021-10-31T11:25:55.700Z</time>
      </trkpt>
      <trkpt lat="44.00313" lon="2.57701">
        <ele>237</ele>
        <time>2021-10-31T11:25:56.700Z</time>
      </trkpt>
      <trkpt lat="44.00314" lon="2.57702">
        <ele>237</ele>
        <time>2021-10-31T11:25:57.700Z</time>
      </trkpt>
      <trkpt lat="44.00314" lon="2.57703">
        <ele>236</ele>
        <time>2021-10-31T11:25:58.700Z</time>
      </trkpt>
      <trkpt lat="44.00315" lon="2.57704">
        <ele>236</ele>
        <time>2021-10-31T11:25:59.700Z</time>
      </trkpt>
      <trkpt lat="44.00315" lon="2.57704">
        <ele>236</ele>
        <time>2021-10-31T11:26:00.700Z</time>
      </trkpt>
      <trkpt lat="44.00316" lon="2.57705">
        <ele>236</ele>
        <time>2021-10-31T11:26:01.700Z</time>
      </trkpt>
      <trkpt lat="44.00316" lon="2.57706">
        <ele>236</ele>
        <time>2021-10-31T11:26:02.700Z</time>
      </trkpt>
      <trkpt lat="44.00317" lon="2.57707">
        <ele>236</ele>
        <time>2021-10-31T11:26:03.700Z</time>
      </trkpt>
      <trkpt lat="44.00318" lon="2.57707">
        <ele>236</ele>
        <time>2021-10-31T11:26:04.700Z</time>
      </trkpt>
      <trkpt lat="44.00318" lon="2.57708">
        <ele>236</ele>
        <time>2021-10-31T11:26:05.700Z</time>
      </trkpt>
      <trkpt lat="44.00319" lon="2.57709">
        <ele>236</ele>
        <time>2021-10-31T11:26:06.700Z</time>
      </trkpt>
      <trkpt lat="44.00319" lon="2.5771">
        <ele>235</ele>
        <time>2021-10-31T11:26:07.700Z</time>
      </trkpt>
      <trkpt lat="44.0032" lon="2.57711">
        <ele>235</ele>
        <time>2021-10-31T11:26:12.713Z</time>
      </trkpt>
      <trkpt lat="44.00321" lon="2.57712">
        <ele>235</ele>
        <time>2021-10-31T11:26:13.713Z</time>
      </trkpt>
      <trkpt lat="44.00322" lon="2.57713">
        <ele>235</ele>
        <time>2021-10-31T11:26:14.713Z</time>
      </trkpt>
      <trkpt lat="44.00322" lon="2.57713">
        <ele>235</ele>
        <time>2021-10-31T11:26:15.713Z</time>
      </trkpt>
      <trkpt lat="44.00323" lon="2.57714">
        <ele>235</ele>
        <time>2021-10-31T11:26:16.713Z</time>
      </trkpt>
      <trkpt lat="44.00323" lon="2.57715">
        <ele>235</ele>
        <time>2021-10-31T11:26:17.713Z</time>
      </trkpt>
      <trkpt lat="44.00324" lon="2.57716">
        <ele>235</ele>
        <time>2021-10-31T11:26:18.713Z</time>
      </trkpt>
      <trkpt lat="44.00324" lon="2.57717">
        <ele>235</ele>
        <time>2021-10-31T11:26:19.713Z</time>
      </trkpt>
      <trkpt lat="44.00324" lon="2.57718">
        <ele>235</ele>
        <time>2021-10-31T11:26:20.713Z</time>
      </trkpt>
      <trkpt lat="44.00325" lon="2.5772">
        <ele>235</ele>
        <time>2021-10-31T11:26:21.713Z</time>
      </trkpt>
      <trkpt lat="44.00325" lon="2.57721">
        <ele>235</ele>
        <time>2021-10-31T11:26:22.713Z</time>
      </trkpt>
      <trkpt lat="44.00325" lon="2.57723">
        <ele>235</ele>
        <time>2021-10-31T11:26:23.713Z</time>
      </trkpt>
      <trkpt lat="44.00326" lon="2.57724">
        <ele>235</ele>
        <time>2021-10-31T11:26:24.713Z</time>
      </trkpt>
      <trkpt lat="44.00326" lon="2.57725">
        <ele>235</ele>
        <time>2021-10-31T11:26:25.713Z</time>
      </trkpt>
      <trkpt lat="44.00327" lon="2.57726">
        <ele>235</ele>
        <time>2021-10-31T11:26:26.713Z</time>
      </trkpt>
      <trkpt lat="44.00327" lon="2.57728">
        <ele>235</ele>
        <time>2021-10-31T11:26:27.713Z</time>
      </trkpt>
      <trkpt lat="44.00327" lon="2.57729">
        <ele>235</ele>
        <time>2021-10-31T11:26:28.713Z</time>
      </trkpt>
      <trkpt lat="44.00328" lon="2.5773">
        <ele>235</ele>
        <time>2021-10-31T11:26:29.713Z</time>
      </trkpt>
      <trkpt lat="44.00328" lon="2.57731">
        <ele>235</ele>
        <time>2021-10-31T11:26:30.713Z</time>
      </trkpt>
      <trkpt lat="44.00328" lon="2.57732">
        <ele>235</ele>
        <time>2021-10-31T11:26:31.713Z</time>
      </trkpt>
      <trkpt lat="44.00329" lon="2.57734">
        <ele>235</ele>
        <time>2021-10-31T11:26:32.713Z</time>
      </trkpt>
      <trkpt lat="44.00329" lon="2.57734">
        <ele>234</ele>
        <time>2021-10-31T11:26:33.713Z</time>
      </trkpt>
      <trkpt lat="44.0033" lon="2.57735">
        <ele>234</ele>
        <time>2021-10-31T11:26:34.713Z</time>
      </trkpt>
      <trkpt lat="44.0033" lon="2.57736">
        <ele>234</ele>
        <time>2021-10-31T11:26:35.713Z</time>
      </trkpt>
      <trkpt lat="44.00331" lon="2.57737">
        <ele>235</ele>
        <time>2021-10-31T11:26:36.713Z</time>
      </trkpt>
      <trkpt lat="44.00331" lon="2.57737">
        <ele>235</ele>
        <time>2021-10-31T11:26:37.713Z</time>
      </trkpt>
      <trkpt lat="44.00332" lon="2.57738">
        <ele>235</ele>
        <time>2021-10-31T11:26:38.713Z</time>
      </trkpt>
      <trkpt lat="44.00332" lon="2.57739">
        <ele>235</ele>
        <time>2021-10-31T11:26:39.713Z</time>
      </trkpt>
      <trkpt lat="44.00333" lon="2.5774">
        <ele>235</ele>
        <time>2021-10-31T11:26:40.713Z</time>
      </trkpt>
      <trkpt lat="44.00333" lon="2.57741">
        <ele>235</ele>
        <time>2021-10-31T11:26:41.713Z</time>
      </trkpt>
      <trkpt lat="44.00334" lon="2.57742">
        <ele>235</ele>
        <time>2021-10-31T11:26:42.713Z</time>
      </trkpt>
      <trkpt lat="44.00334" lon="2.57744">
        <ele>235</ele>
        <time>2021-10-31T11:26:43.713Z</time>
      </trkpt>
      <trkpt lat="44.00335" lon="2.57745">
        <ele>235</ele>
        <time>2021-10-31T11:26:44.713Z</time>
      </trkpt>
      <trkpt lat="44.00335" lon="2.57746">
        <ele>235</ele>
        <time>2021-10-31T11:26:45.713Z</time>
      </trkpt>
      <trkpt lat="44.00336" lon="2.57748">
        <ele>235</ele>
        <time>2021-10-31T11:26:46.713Z</time>
      </trkpt>
      <trkpt lat="44.00337" lon="2.57749">
        <ele>235</ele>
        <time>2021-10-31T11:26:47.713Z</time>
      </trkpt>
      <trkpt lat="44.00338" lon="2.5775">
        <ele>235</ele>
        <time>2021-10-31T11:26:48.713Z</time>
      </trkpt>
      <trkpt lat="44.00338" lon="2.57751">
        <ele>235</ele>
        <time>2021-10-31T11:26:49.713Z</time>
      </trkpt>
      <trkpt lat="44.00339" lon="2.57752">
        <ele>236</ele>
        <time>2021-10-31T11:26:50.713Z</time>
      </trkpt>
      <trkpt lat="44.00339" lon="2.57753">
        <ele>236</ele>
        <time>2021-10-31T11:26:51.713Z</time>
      </trkpt>
      <trkpt lat="44.0034" lon="2.57754">
        <ele>236</ele>
        <time>2021-10-31T11:26:52.713Z</time>
      </trkpt>
      <trkpt lat="44.0034" lon="2.57755">
        <ele>236</ele>
        <time>2021-10-31T11:26:53.713Z</time>
      </trkpt>
      <trkpt lat="44.0034" lon="2.57757">
        <ele>236</ele>
        <time>2021-10-31T11:26:54.713Z</time>
      </trkpt>
      <trkpt lat="44.00341" lon="2.57758">
        <ele>236</ele>
        <time>2021-10-31T11:26:55.713Z</time>
      </trkpt>
      <trkpt lat="44.00342" lon="2.57759">
        <ele>236</ele>
        <time>2021-10-31T11:26:56.713Z</time>
      </trkpt>
      <trkpt lat="44.00342" lon="2.5776">
        <ele>236</ele>
        <time>2021-10-31T11:26:57.713Z</time>
      </trkpt>
      <trkpt lat="44.00343" lon="2.57762">
        <ele>236</ele>
        <time>2021-10-31T11:26:58.713Z</time>
      </trkpt>
      <trkpt lat="44.00344" lon="2.57763">
        <ele>236</ele>
        <time>2021-10-31T11:26:59.713Z</time>
      </trkpt>
      <trkpt lat="44.00344" lon="2.57764">
        <ele>236</ele>
        <time>2021-10-31T11:27:00.713Z</time>
      </trkpt>
      <trkpt lat="44.00344" lon="2.57765">
        <ele>236</ele>
        <time>2021-10-31T11:27:01.713Z</time>
      </trkpt>
      <trkpt lat="44.00345" lon="2.57766">
        <ele>236</ele>
        <time>2021-10-31T11:27:02.713Z</time>
      </trkpt>
      <trkpt lat="44.00345" lon="2.57768">
        <ele>236</ele>
        <time>2021-10-31T11:27:03.713Z</time>
      </trkpt>
      <trkpt lat="44.00346" lon="2.57769">
        <ele>236</ele>
        <time>2021-10-31T11:27:04.713Z</time>
      </trkpt>
      <trkpt lat="44.00346" lon="2.57771">
        <ele>236</ele>
        <time>2021-10-31T11:27:05.713Z</time>
      </trkpt>
      <trkpt lat="44.00347" lon="2.57772">
        <ele>236</ele>
        <time>2021-10-31T11:27:06.713Z</time>
      </trkpt>
      <trkpt lat="44.00347" lon="2.57774">
        <ele>236</ele>
        <time>2021-10-31T11:27:07.713Z</time>
      </trkpt>
      <trkpt lat="44.00347" lon="2.57775">
        <ele>237</ele>
        <time>2021-10-31T11:27:08.713Z</time>
      </trkpt>
      <trkpt lat="44.00347" lon="2.57776">
        <ele>237</ele>
        <time>2021-10-31T11:27:09.713Z</time>
      </trkpt>
      <trkpt lat="44.00348" lon="2.57778">
        <ele>237</ele>
        <time>2021-10-31T11:27:10.713Z</time>
      </trkpt>
      <trkpt lat="44.00348" lon="2.57779">
        <ele>237</ele>
        <time>2021-10-31T11:27:11.713Z</time>
      </trkpt>
      <trkpt lat="44.00348" lon="2.5778">
        <ele>237</ele>
        <time>2021-10-31T11:27:12.713Z</time>
      </trkpt>
      <trkpt lat="44.00348" lon="2.57781">
        <ele>237</ele>
        <time>2021-10-31T11:27:13.713Z</time>
      </trkpt>
      <trkpt lat="44.00349" lon="2.57782">
        <ele>237</ele>
        <time>2021-10-31T11:27:14.713Z</time>
      </trkpt>
      <trkpt lat="44.0035" lon="2.57783">
        <ele>237</ele>
        <time>2021-10-31T11:27:15.713Z</time>
      </trkpt>
      <trkpt lat="44.0035" lon="2.57784">
        <ele>237</ele>
        <time>2021-10-31T11:27:16.713Z</time>
      </trkpt>
      <trkpt lat="44.00351" lon="2.57785">
        <ele>237</ele>
        <time>2021-10-31T11:27:17.713Z</time>
      </trkpt>
      <trkpt lat="44.00351" lon="2.57787">
        <ele>237</ele>
        <time>2021-10-31T11:27:18.713Z</time>
      </trkpt>
      <trkpt lat="44.00351" lon="2.57788">
        <ele>237</ele>
        <time>2021-10-31T11:27:19.713Z</time>
      </trkpt>
      <trkpt lat="44.00351" lon="2.5779">
        <ele>237</ele>
        <time>2021-10-31T11:27:32.713Z</time>
      </trkpt>
      <trkpt lat="44.00352" lon="2.57791">
        <ele>237</ele>
        <time>2021-10-31T11:27:33.713Z</time>
      </trkpt>
      <trkpt lat="44.00352" lon="2.57792">
        <ele>237</ele>
        <time>2021-10-31T11:27:34.713Z</time>
      </trkpt>
      <trkpt lat="44.00352" lon="2.57793">
        <ele>237</ele>
        <time>2021-10-31T11:27:35.713Z</time>
      </trkpt>
      <trkpt lat="44.00352" lon="2.57795">
        <ele>237</ele>
        <time>2021-10-31T11:27:36.713Z</time>
      </trkpt>
      <trkpt lat="44.00353" lon="2.57796">
        <ele>237</ele>
        <time>2021-10-31T11:27:37.713Z</time>
      </trkpt>
      <trkpt lat="44.00353" lon="2.57798">
        <ele>237</ele>
        <time>2021-10-31T11:27:38.713Z</time>
      </trkpt>
      <trkpt lat="44.00354" lon="2.57799">
        <ele>237</ele>
        <time>2021-10-31T11:27:39.713Z</time>
      </trkpt>
      <trkpt lat="44.00355" lon="2.578">
        <ele>237</ele>
        <time>2021-10-31T11:27:40.713Z</time>
      </trkpt>
      <trkpt lat="44.00356" lon="2.57801">
        <ele>237</ele>
        <time>2021-10-31T11:27:41.713Z</time>
      </trkpt>
      <trkpt lat="44.00356" lon="2.57802">
        <ele>237</ele>
        <time>2021-10-31T11:27:42.713Z</time>
      </trkpt>
      <trkpt lat="44.00357" lon="2.57803">
        <ele>237</ele>
        <time>2021-10-31T11:27:43.713Z</time>
      </trkpt>
      <trkpt lat="44.00357" lon="2.57804">
        <ele>237</ele>
        <time>2021-10-31T11:27:44.713Z</time>
      </trkpt>
      <trkpt lat="44.00358" lon="2.57806">
        <ele>237</ele>
        <time>2021-10-31T11:27:45.713Z</time>
      </trkpt>
      <trkpt lat="44.00358" lon="2.57807">
        <ele>238</ele>
        <time>2021-10-31T11:27:46.713Z</time>
      </trkpt>
      <trkpt lat="44.00359" lon="2.57808">
        <ele>238</ele>
        <time>2021-10-31T11:27:47.713Z</time>
      </trkpt>
      <trkpt lat="44.00359" lon="2.57809">
        <ele>238</ele>
        <time>2021-10-31T11:27:48.713Z</time>
      </trkpt>
      <trkpt lat="44.0036" lon="2.5781">
        <ele>238</ele>
        <time>2021-10-31T11:27:49.713Z</time>
      </trkpt>
      <trkpt lat="44.0036" lon="2.57811">
        <ele>238</ele>
        <time>2021-10-31T11:27:50.713Z</time>
      </trkpt>
      <trkpt lat="44.0036" lon="2.57812">
        <ele>238</ele>
        <time>2021-10-31T11:27:51.713Z</time>
      </trkpt>
      <trkpt lat="44.00361" lon="2.57813">
        <ele>238</ele>
        <time>2021-10-31T11:27:52.713Z</time>
      </trkpt>
      <trkpt lat="44.00361" lon="2.57815">
        <ele>238</ele>
        <time>2021-10-31T11:27:53.713Z</time>
      </trkpt>
      <trkpt lat="44.00362" lon="2.57816">
        <ele>239</ele>
        <time>2021-10-31T11:27:54.713Z</time>
      </trkpt>
      <trkpt lat="44.00362" lon="2.57817">
        <ele>239</ele>
        <time>2021-10-31T11:27:55.713Z</time>
      </trkpt>
      <trkpt lat="44.00362" lon="2.57819">
        <ele>239</ele>
        <time>2021-10-31T11:27:56.713Z</time>
      </trkpt>
      <trkpt lat="44.00363" lon="2.5782">
        <ele>239</ele>
        <time>2021-10-31T11:27:57.713Z</time>
      </trkpt>
      <trkpt lat="44.00363" lon="2.57821">
        <ele>239</ele>
        <time>2021-10-31T11:27:58.713Z</time>
      </trkpt>
      <trkpt lat="44.00364" lon="2.57823">
        <ele>239</ele>
        <time>2021-10-31T11:27:59.713Z</time>
      </trkpt>
      <trkpt lat="44.00364" lon="2.57824">
        <ele>239</ele>
        <time>2021-10-31T11:28:00.713Z</time>
      </trkpt>
      <trkpt lat="44.00365" lon="2.57826">
        <ele>239</ele>
        <time>2021-10-31T11:28:01.713Z</time>
      </trkpt>
      <trkpt lat="44.00365" lon="2.57827">
        <ele>239</ele>
        <time>2021-10-31T11:28:02.713Z</time>
      </trkpt>
      <trkpt lat="44.00365" lon="2.57828">
        <ele>239</ele>
        <time>2021-10-31T11:28:03.713Z</time>
      </trkpt>
      <trkpt lat="44.00366" lon="2.5783">
        <ele>239</ele>
        <time>2021-10-31T11:28:04.713Z</time>
      </trkpt>
      <trkpt lat="44.00366" lon="2.57831">
        <ele>239</ele>
        <time>2021-10-31T11:28:05.713Z</time>
      </trkpt>
      <trkpt lat="44.00366" lon="2.57832">
        <ele>239</ele>
        <time>2021-10-31T11:28:06.713Z</time>
      </trkpt>
      <trkpt lat="44.00366" lon="2.57833">
        <ele>240</ele>
        <time>2021-10-31T11:28:07.713Z</time>
      </trkpt>
      <trkpt lat="44.00366" lon="2.57834">
        <ele>240</ele>
        <time>2021-10-31T11:28:08.713Z</time>
      </trkpt>
      <trkpt lat="44.00366" lon="2.57835">
        <ele>240</ele>
        <time>2021-10-31T11:28:09.713Z</time>
      </trkpt>
      <trkpt lat="44.00367" lon="2.57835">
        <ele>240</ele>
        <time>2021-10-31T11:28:10.713Z</time>
      </trkpt>
      <trkpt lat="44.00367" lon="2.57836">
        <ele>240</ele>
        <time>2021-10-31T11:28:11.713Z</time>
      </trkpt>
      <trkpt lat="44.00367" lon="2.57837">
        <ele>240</ele>
        <time>2021-10-31T11:28:12.713Z</time>
      </trkpt>
      <trkpt lat="44.00367" lon="2.57837">
        <ele>240</ele>
        <time>2021-10-31T11:28:13.713Z</time>
      </trkpt>
      <trkpt lat="44.00369" lon="2.57844">
        <ele>240</ele>
        <time>2021-10-31T11:28:14.713Z</time>
      </trkpt>
      <trkpt lat="44.00369" lon="2.57845">
        <ele>240</ele>
        <time>2021-10-31T11:28:15.713Z</time>
      </trkpt>
      <trkpt lat="44.0037" lon="2.57846">
        <ele>240</ele>
        <time>2021-10-31T11:28:16.713Z</time>
      </trkpt>
      <trkpt lat="44.0037" lon="2.57847">
        <ele>240</ele>
        <time>2021-10-31T11:28:17.713Z</time>
      </trkpt>
      <trkpt lat="44.00371" lon="2.57849">
        <ele>240</ele>
        <time>2021-10-31T11:28:18.713Z</time>
      </trkpt>
      <trkpt lat="44.00371" lon="2.5785">
        <ele>240</ele>
        <time>2021-10-31T11:28:19.713Z</time>
      </trkpt>
      <trkpt lat="44.00372" lon="2.57852">
        <ele>240</ele>
        <time>2021-10-31T11:28:20.713Z</time>
      </trkpt>
      <trkpt lat="44.00372" lon="2.57853">
        <ele>240</ele>
        <time>2021-10-31T11:28:21.713Z</time>
      </trkpt>
      <trkpt lat="44.00372" lon="2.57855">
        <ele>240</ele>
        <time>2021-10-31T11:28:22.713Z</time>
      </trkpt>
      <trkpt lat="44.00373" lon="2.57857">
        <ele>240</ele>
        <time>2021-10-31T11:28:23.713Z</time>
      </trkpt>
      <trkpt lat="44.00373" lon="2.57858">
        <ele>240</ele>
        <time>2021-10-31T11:28:24.713Z</time>
      </trkpt>
      <trkpt lat="44.00373" lon="2.5786">
        <ele>240</ele>
        <time>2021-10-31T11:28:25.713Z</time>
      </trkpt>
      <trkpt lat="44.00374" lon="2.57861">
        <ele>240</ele>
        <time>2021-10-31T11:28:26.713Z</time>
      </trkpt>
      <trkpt lat="44.00374" lon="2.57863">
        <ele>240</ele>
        <time>2021-10-31T11:28:27.713Z</time>
      </trkpt>
      <trkpt lat="44.00374" lon="2.57865">
        <ele>239</ele>
        <time>2021-10-31T11:28:28.713Z</time>
      </trkpt>
      <trkpt lat="44.00374" lon="2.57866">
        <ele>239</ele>
        <time>2021-10-31T11:28:29.713Z</time>
      </trkpt>
      <trkpt lat="44.00374" lon="2.57868">
        <ele>239</ele>
        <time>2021-10-31T11:28:30.713Z</time>
      </trkpt>
      <trkpt lat="44.00374" lon="2.5787">
        <ele>239</ele>
        <time>2021-10-31T11:28:31.713Z</time>
      </trkpt>
      <trkpt lat="44.00375" lon="2.57872">
        <ele>239</ele>
        <time>2021-10-31T11:28:32.713Z</time>
      </trkpt>
      <trkpt lat="44.00375" lon="2.57873">
        <ele>239</ele>
        <time>2021-10-31T11:28:33.713Z</time>
      </trkpt>
      <trkpt lat="44.00375" lon="2.57875">
        <ele>239</ele>
        <time>2021-10-31T11:28:34.713Z</time>
      </trkpt>
      <trkpt lat="44.00375" lon="2.57877">
        <ele>238</ele>
        <time>2021-10-31T11:28:35.713Z</time>
      </trkpt>
      <trkpt lat="44.00375" lon="2.57879">
        <ele>238</ele>
        <time>2021-10-31T11:28:36.713Z</time>
      </trkpt>
      <trkpt lat="44.00376" lon="2.57881">
        <ele>238</ele>
        <time>2021-10-31T11:28:37.713Z</time>
      </trkpt>
      <trkpt lat="44.00376" lon="2.57883">
        <ele>238</ele>
        <time>2021-10-31T11:28:38.713Z</time>
      </trkpt>
      <trkpt lat="44.00376" lon="2.57884">
        <ele>238</ele>
        <time>2021-10-31T11:28:39.713Z</time>
      </trkpt>
      <trkpt lat="44.00376" lon="2.57886">
        <ele>237</ele>
        <time>2021-10-31T11:28:40.713Z</time>
      </trkpt>
      <trkpt lat="44.00377" lon="2.57888">
        <ele>237</ele>
        <time>2021-10-31T11:28:41.713Z</time>
      </trkpt>
      <trkpt lat="44.00377" lon="2.5789">
        <ele>237</ele>
        <time>2021-10-31T11:28:42.713Z</time>
      </trkpt>
      <trkpt lat="44.00377" lon="2.57892">
        <ele>237</ele>
        <time>2021-10-31T11:28:43.713Z</time>
      </trkpt>
      <trkpt lat="44.00378" lon="2.57894">
        <ele>237</ele>
        <time>2021-10-31T11:28:44.713Z</time>
      </trkpt>
      <trkpt lat="44.00378" lon="2.57896">
        <ele>236</ele>
        <time>2021-10-31T11:28:45.713Z</time>
      </trkpt>
      <trkpt lat="44.00378" lon="2.57897">
        <ele>236</ele>
        <time>2021-10-31T11:28:46.713Z</time>
      </trkpt>
      <trkpt lat="44.00378" lon="2.57899">
        <ele>236</ele>
        <time>2021-10-31T11:28:47.713Z</time>
      </trkpt>
      <trkpt lat="44.00379" lon="2.57901">
        <ele>236</ele>
        <time>2021-10-31T11:28:48.713Z</time>
      </trkpt>
      <trkpt lat="44.00379" lon="2.57902">
        <ele>236</ele>
        <time>2021-10-31T11:28:49.713Z</time>
      </trkpt>
      <trkpt lat="44.00379" lon="2.57904">
        <ele>236</ele>
        <time>2021-10-31T11:28:50.713Z</time>
      </trkpt>
      <trkpt lat="44.00379" lon="2.57906">
        <ele>236</ele>
        <time>2021-10-31T11:28:51.713Z</time>
      </trkpt>
      <trkpt lat="44.0038" lon="2.57907">
        <ele>236</ele>
        <time>2021-10-31T11:28:52.713Z</time>
      </trkpt>
      <trkpt lat="44.0038" lon="2.57908">
        <ele>236</ele>
        <time>2021-10-31T11:28:53.713Z</time>
      </trkpt>
      <trkpt lat="44.00381" lon="2.5791">
        <ele>236</ele>
        <time>2021-10-31T11:28:54.713Z</time>
      </trkpt>
      <trkpt lat="44.00382" lon="2.57911">
        <ele>236</ele>
        <time>2021-10-31T11:28:55.713Z</time>
      </trkpt>
      <trkpt lat="44.00382" lon="2.57912">
        <ele>236</ele>
        <time>2021-10-31T11:28:56.713Z</time>
      </trkpt>
      <trkpt lat="44.00383" lon="2.57914">
        <ele>235</ele>
        <time>2021-10-31T11:28:57.713Z</time>
      </trkpt>
      <trkpt lat="44.00384" lon="2.57915">
        <ele>235</ele>
        <time>2021-10-31T11:28:58.713Z</time>
      </trkpt>
      <trkpt lat="44.00385" lon="2.57917">
        <ele>235</ele>
        <time>2021-10-31T11:28:59.713Z</time>
      </trkpt>
      <trkpt lat="44.00386" lon="2.57918">
        <ele>235</ele>
        <time>2021-10-31T11:29:00.713Z</time>
      </trkpt>
      <trkpt lat="44.00387" lon="2.5792">
        <ele>235</ele>
        <time>2021-10-31T11:29:01.713Z</time>
      </trkpt>
      <trkpt lat="44.00388" lon="2.57921">
        <ele>235</ele>
        <time>2021-10-31T11:29:02.713Z</time>
      </trkpt>
      <trkpt lat="44.00388" lon="2.57922">
        <ele>235</ele>
        <time>2021-10-31T11:29:03.713Z</time>
      </trkpt>
      <trkpt lat="44.00389" lon="2.57924">
        <ele>235</ele>
        <time>2021-10-31T11:29:04.713Z</time>
      </trkpt>
      <trkpt lat="44.00389" lon="2.57925">
        <ele>235</ele>
        <time>2021-10-31T11:29:05.713Z</time>
      </trkpt>
      <trkpt lat="44.0039" lon="2.57926">
        <ele>235</ele>
        <time>2021-10-31T11:29:06.713Z</time>
      </trkpt>
      <trkpt lat="44.00391" lon="2.57927">
        <ele>235</ele>
        <time>2021-10-31T11:29:07.713Z</time>
      </trkpt>
      <trkpt lat="44.00392" lon="2.57929">
        <ele>235</ele>
        <time>2021-10-31T11:29:08.713Z</time>
      </trkpt>
      <trkpt lat="44.00392" lon="2.5793">
        <ele>235</ele>
        <time>2021-10-31T11:29:09.713Z</time>
      </trkpt>
      <trkpt lat="44.00393" lon="2.57931">
        <ele>235</ele>
        <time>2021-10-31T11:29:10.713Z</time>
      </trkpt>
      <trkpt lat="44.00393" lon="2.57932">
        <ele>235</ele>
        <time>2021-10-31T11:29:11.713Z</time>
      </trkpt>
      <trkpt lat="44.00394" lon="2.57934">
        <ele>235</ele>
        <time>2021-10-31T11:29:12.713Z</time>
      </trkpt>
      <trkpt lat="44.00395" lon="2.57935">
        <ele>235</ele>
        <time>2021-10-31T11:29:15.968Z</time>
      </trkpt>
      <trkpt lat="44.00395" lon="2.57937">
        <ele>235</ele>
        <time>2021-10-31T11:29:16.968Z</time>
      </trkpt>
      <trkpt lat="44.00396" lon="2.57939">
        <ele>235</ele>
        <time>2021-10-31T11:29:17.968Z</time>
      </trkpt>
      <trkpt lat="44.00396" lon="2.5794">
        <ele>235</ele>
        <time>2021-10-31T11:29:18.968Z</time>
      </trkpt>
      <trkpt lat="44.00397" lon="2.57942">
        <ele>235</ele>
        <time>2021-10-31T11:29:19.968Z</time>
      </trkpt>
      <trkpt lat="44.00397" lon="2.57944">
        <ele>234</ele>
        <time>2021-10-31T11:29:20.968Z</time>
      </trkpt>
      <trkpt lat="44.00398" lon="2.57946">
        <ele>234</ele>
        <time>2021-10-31T11:29:21.968Z</time>
      </trkpt>
      <trkpt lat="44.00399" lon="2.57948">
        <ele>234</ele>
        <time>2021-10-31T11:29:22.968Z</time>
      </trkpt>
      <trkpt lat="44.00399" lon="2.5795">
        <ele>234</ele>
        <time>2021-10-31T11:29:23.968Z</time>
      </trkpt>
      <trkpt lat="44.00399" lon="2.57952">
        <ele>234</ele>
        <time>2021-10-31T11:29:24.968Z</time>
      </trkpt>
      <trkpt lat="44.004" lon="2.57953">
        <ele>233</ele>
        <time>2021-10-31T11:29:25.968Z</time>
      </trkpt>
      <trkpt lat="44.004" lon="2.57955">
        <ele>233</ele>
        <time>2021-10-31T11:29:26.968Z</time>
      </trkpt>
      <trkpt lat="44.00401" lon="2.57956">
        <ele>233</ele>
        <time>2021-10-31T11:29:27.968Z</time>
      </trkpt>
      <trkpt lat="44.00402" lon="2.57957">
        <ele>233</ele>
        <time>2021-10-31T11:29:28.968Z</time>
      </trkpt>
      <trkpt lat="44.00402" lon="2.57959">
        <ele>233</ele>
        <time>2021-10-31T11:29:29.968Z</time>
      </trkpt>
      <trkpt lat="44.00403" lon="2.57959">
        <ele>233</ele>
        <time>2021-10-31T11:29:30.968Z</time>
      </trkpt>
      <trkpt lat="44.00404" lon="2.5796">
        <ele>233</ele>
        <time>2021-10-31T11:29:31.968Z</time>
      </trkpt>
      <trkpt lat="44.00404" lon="2.57961">
        <ele>233</ele>
        <time>2021-10-31T11:29:32.968Z</time>
      </trkpt>
      <trkpt lat="44.00404" lon="2.57962">
        <ele>233</ele>
        <time>2021-10-31T11:29:33.968Z</time>
      </trkpt>
      <trkpt lat="44.00405" lon="2.57963">
        <ele>233</ele>
        <time>2021-10-31T11:29:34.968Z</time>
      </trkpt>
      <trkpt lat="44.00406" lon="2.57964">
        <ele>233</ele>
        <time>2021-10-31T11:29:35.968Z</time>
      </trkpt>
      <trkpt lat="44.00406" lon="2.57965">
        <ele>233</ele>
        <time>2021-10-31T11:29:36.968Z</time>
      </trkpt>
      <trkpt lat="44.00407" lon="2.57967">
        <ele>233</ele>
        <time>2021-10-31T11:29:37.968Z</time>
      </trkpt>
      <trkpt lat="44.00408" lon="2.57968">
        <ele>233</ele>
        <time>2021-10-31T11:29:38.968Z</time>
      </trkpt>
      <trkpt lat="44.00408" lon="2.5797">
        <ele>233</ele>
        <time>2021-10-31T11:29:39.968Z</time>
      </trkpt>
      <trkpt lat="44.00409" lon="2.57971">
        <ele>233</ele>
        <time>2021-10-31T11:29:40.968Z</time>
      </trkpt>
      <trkpt lat="44.00409" lon="2.57972">
        <ele>233</ele>
        <time>2021-10-31T11:29:41.968Z</time>
      </trkpt>
      <trkpt lat="44.0041" lon="2.57973">
        <ele>233</ele>
        <time>2021-10-31T11:29:42.968Z</time>
      </trkpt>
      <trkpt lat="44.00411" lon="2.57975">
        <ele>233</ele>
        <time>2021-10-31T11:29:43.968Z</time>
      </trkpt>
      <trkpt lat="44.00411" lon="2.57976">
        <ele>233</ele>
        <time>2021-10-31T11:29:44.968Z</time>
      </trkpt>
      <trkpt lat="44.00412" lon="2.57977">
        <ele>233</ele>
        <time>2021-10-31T11:29:45.968Z</time>
      </trkpt>
      <trkpt lat="44.00413" lon="2.57978">
        <ele>233</ele>
        <time>2021-10-31T11:29:46.968Z</time>
      </trkpt>
      <trkpt lat="44.00413" lon="2.57979">
        <ele>233</ele>
        <time>2021-10-31T11:29:47.968Z</time>
      </trkpt>
      <trkpt lat="44.00414" lon="2.57981">
        <ele>233</ele>
        <time>2021-10-31T11:29:48.968Z</time>
      </trkpt>
      <trkpt lat="44.00414" lon="2.57982">
        <ele>233</ele>
        <time>2021-10-31T11:29:49.968Z</time>
      </trkpt>
      <trkpt lat="44.00415" lon="2.57983">
        <ele>233</ele>
        <time>2021-10-31T11:29:50.968Z</time>
      </trkpt>
      <trkpt lat="44.00416" lon="2.57984">
        <ele>233</ele>
        <time>2021-10-31T11:29:51.968Z</time>
      </trkpt>
      <trkpt lat="44.00416" lon="2.57986">
        <ele>233</ele>
        <time>2021-10-31T11:29:52.968Z</time>
      </trkpt>
      <trkpt lat="44.00417" lon="2.57987">
        <ele>233</ele>
        <time>2021-10-31T11:29:53.968Z</time>
      </trkpt>
      <trkpt lat="44.00417" lon="2.57987">
        <ele>233</ele>
        <time>2021-10-31T11:29:54.968Z</time>
      </trkpt>
      <trkpt lat="44.00417" lon="2.57988">
        <ele>233</ele>
        <time>2021-10-31T11:29:55.968Z</time>
      </trkpt>
      <trkpt lat="44.00418" lon="2.57989">
        <ele>233</ele>
        <time>2021-10-31T11:29:56.968Z</time>
      </trkpt>
      <trkpt lat="44.00418" lon="2.57991">
        <ele>233</ele>
        <time>2021-10-31T11:29:57.968Z</time>
      </trkpt>
      <trkpt lat="44.00419" lon="2.57992">
        <ele>233</ele>
        <time>2021-10-31T11:29:58.968Z</time>
      </trkpt>
      <trkpt lat="44.00419" lon="2.57993">
        <ele>233</ele>
        <time>2021-10-31T11:29:59.968Z</time>
      </trkpt>
      <trkpt lat="44.0042" lon="2.57994">
        <ele>233</ele>
        <time>2021-10-31T11:30:00.968Z</time>
      </trkpt>
      <trkpt lat="44.00421" lon="2.57996">
        <ele>233</ele>
        <time>2021-10-31T11:30:01.968Z</time>
      </trkpt>
      <trkpt lat="44.00421" lon="2.57997">
        <ele>233</ele>
        <time>2021-10-31T11:30:02.968Z</time>
      </trkpt>
      <trkpt lat="44.00422" lon="2.57998">
        <ele>233</ele>
        <time>2021-10-31T11:30:03.968Z</time>
      </trkpt>
      <trkpt lat="44.00423" lon="2.58">
        <ele>234</ele>
        <time>2021-10-31T11:30:04.968Z</time>
      </trkpt>
      <trkpt lat="44.00423" lon="2.58001">
        <ele>234</ele>
        <time>2021-10-31T11:30:05.968Z</time>
      </trkpt>
      <trkpt lat="44.00424" lon="2.58002">
        <ele>234</ele>
        <time>2021-10-31T11:30:06.968Z</time>
      </trkpt>
      <trkpt lat="44.00424" lon="2.58003">
        <ele>234</ele>
        <time>2021-10-31T11:30:07.968Z</time>
      </trkpt>
      <trkpt lat="44.00425" lon="2.58004">
        <ele>234</ele>
        <time>2021-10-31T11:30:08.968Z</time>
      </trkpt>
      <trkpt lat="44.00426" lon="2.58005">
        <ele>234</ele>
        <time>2021-10-31T11:30:09.968Z</time>
      </trkpt>
      <trkpt lat="44.00427" lon="2.58007">
        <ele>234</ele>
        <time>2021-10-31T11:30:10.968Z</time>
      </trkpt>
      <trkpt lat="44.00427" lon="2.58008">
        <ele>234</ele>
        <time>2021-10-31T11:30:11.968Z</time>
      </trkpt>
      <trkpt lat="44.00428" lon="2.58009">
        <ele>234</ele>
        <time>2021-10-31T11:30:12.968Z</time>
      </trkpt>
      <trkpt lat="44.00428" lon="2.5801">
        <ele>234</ele>
        <time>2021-10-31T11:30:13.968Z</time>
      </trkpt>
      <trkpt lat="44.00429" lon="2.58011">
        <ele>234</ele>
        <time>2021-10-31T11:30:14.968Z</time>
      </trkpt>
      <trkpt lat="44.0043" lon="2.58013">
        <ele>234</ele>
        <time>2021-10-31T11:30:15.968Z</time>
      </trkpt>
      <trkpt lat="44.0043" lon="2.58014">
        <ele>234</ele>
        <time>2021-10-31T11:30:16.968Z</time>
      </trkpt>
      <trkpt lat="44.00431" lon="2.58015">
        <ele>234</ele>
        <time>2021-10-31T11:30:17.968Z</time>
      </trkpt>
      <trkpt lat="44.00431" lon="2.58016">
        <ele>234</ele>
        <time>2021-10-31T11:30:18.968Z</time>
      </trkpt>
      <trkpt lat="44.00432" lon="2.58017">
        <ele>234</ele>
        <time>2021-10-31T11:30:19.968Z</time>
      </trkpt>
      <trkpt lat="44.00433" lon="2.58018">
        <ele>234</ele>
        <time>2021-10-31T11:30:20.968Z</time>
      </trkpt>
      <trkpt lat="44.00433" lon="2.58019">
        <ele>234</ele>
        <time>2021-10-31T11:30:21.968Z</time>
      </trkpt>
      <trkpt lat="44.00434" lon="2.5802">
        <ele>234</ele>
        <time>2021-10-31T11:30:22.968Z</time>
      </trkpt>
      <trkpt lat="44.00434" lon="2.58021">
        <ele>234</ele>
        <time>2021-10-31T11:30:23.968Z</time>
      </trkpt>
      <trkpt lat="44.00435" lon="2.58022">
        <ele>234</ele>
        <time>2021-10-31T11:30:24.968Z</time>
      </trkpt>
      <trkpt lat="44.00436" lon="2.58023">
        <ele>234</ele>
        <time>2021-10-31T11:30:25.968Z</time>
      </trkpt>
      <trkpt lat="44.00437" lon="2.58024">
        <ele>234</ele>
        <time>2021-10-31T11:30:26.968Z</time>
      </trkpt>
      <trkpt lat="44.00438" lon="2.58025">
        <ele>235</ele>
        <time>2021-10-31T11:30:27.968Z</time>
      </trkpt>
      <trkpt lat="44.00438" lon="2.58026">
        <ele>235</ele>
        <time>2021-10-31T11:30:28.968Z</time>
      </trkpt>
      <trkpt lat="44.00439" lon="2.58028">
        <ele>235</ele>
        <time>2021-10-31T11:30:29.968Z</time>
      </trkpt>
      <trkpt lat="44.00439" lon="2.58029">
        <ele>235</ele>
        <time>2021-10-31T11:30:30.968Z</time>
      </trkpt>
      <trkpt lat="44.0044" lon="2.5803">
        <ele>235</ele>
        <time>2021-10-31T11:30:31.968Z</time>
      </trkpt>
      <trkpt lat="44.0044" lon="2.58031">
        <ele>235</ele>
        <time>2021-10-31T11:30:32.968Z</time>
      </trkpt>
      <trkpt lat="44.00441" lon="2.58033">
        <ele>235</ele>
        <time>2021-10-31T11:30:33.968Z</time>
      </trkpt>
      <trkpt lat="44.00442" lon="2.58034">
        <ele>235</ele>
        <time>2021-10-31T11:30:34.968Z</time>
      </trkpt>
      <trkpt lat="44.00442" lon="2.58035">
        <ele>235</ele>
        <time>2021-10-31T11:30:35.968Z</time>
      </trkpt>
      <trkpt lat="44.00443" lon="2.58036">
        <ele>235</ele>
        <time>2021-10-31T11:30:36.968Z</time>
      </trkpt>
      <trkpt lat="44.00443" lon="2.58037">
        <ele>235</ele>
        <time>2021-10-31T11:30:37.968Z</time>
      </trkpt>
      <trkpt lat="44.00444" lon="2.58038">
        <ele>235</ele>
        <time>2021-10-31T11:30:38.968Z</time>
      </trkpt>
      <trkpt lat="44.00445" lon="2.58039">
        <ele>235</ele>
        <time>2021-10-31T11:30:39.968Z</time>
      </trkpt>
      <trkpt lat="44.00445" lon="2.5804">
        <ele>234</ele>
        <time>2021-10-31T11:30:40.968Z</time>
      </trkpt>
      <trkpt lat="44.00446" lon="2.58042">
        <ele>234</ele>
        <time>2021-10-31T11:30:41.968Z</time>
      </trkpt>
      <trkpt lat="44.00447" lon="2.58043">
        <ele>234</ele>
        <time>2021-10-31T11:30:42.968Z</time>
      </trkpt>
      <trkpt lat="44.00447" lon="2.58044">
        <ele>234</ele>
        <time>2021-10-31T11:30:43.968Z</time>
      </trkpt>
      <trkpt lat="44.00448" lon="2.58045">
        <ele>234</ele>
        <time>2021-10-31T11:30:44.968Z</time>
      </trkpt>
      <trkpt lat="44.00449" lon="2.58046">
        <ele>234</ele>
        <time>2021-10-31T11:30:45.968Z</time>
      </trkpt>
      <trkpt lat="44.00449" lon="2.58047">
        <ele>234</ele>
        <time>2021-10-31T11:30:46.968Z</time>
      </trkpt>
      <trkpt lat="44.0045" lon="2.58048">
        <ele>234</ele>
        <time>2021-10-31T11:30:47.968Z</time>
      </trkpt>
      <trkpt lat="44.00451" lon="2.58049">
        <ele>234</ele>
        <time>2021-10-31T11:30:48.968Z</time>
      </trkpt>
      <trkpt lat="44.00452" lon="2.5805">
        <ele>234</ele>
        <time>2021-10-31T11:30:49.968Z</time>
      </trkpt>
      <trkpt lat="44.00452" lon="2.58051">
        <ele>234</ele>
        <time>2021-10-31T11:30:50.968Z</time>
      </trkpt>
      <trkpt lat="44.00453" lon="2.58053">
        <ele>234</ele>
        <time>2021-10-31T11:30:51.968Z</time>
      </trkpt>
      <trkpt lat="44.00453" lon="2.58054">
        <ele>234</ele>
        <time>2021-10-31T11:30:52.968Z</time>
      </trkpt>
      <trkpt lat="44.00454" lon="2.58055">
        <ele>234</ele>
        <time>2021-10-31T11:30:53.968Z</time>
      </trkpt>
      <trkpt lat="44.00455" lon="2.58057">
        <ele>234</ele>
        <time>2021-10-31T11:30:54.968Z</time>
      </trkpt>
      <trkpt lat="44.00456" lon="2.58058">
        <ele>234</ele>
        <time>2021-10-31T11:30:55.968Z</time>
      </trkpt>
      <trkpt lat="44.00456" lon="2.58059">
        <ele>234</ele>
        <time>2021-10-31T11:30:56.968Z</time>
      </trkpt>
      <trkpt lat="44.00457" lon="2.58061">
        <ele>234</ele>
        <time>2021-10-31T11:30:57.968Z</time>
      </trkpt>
      <trkpt lat="44.00458" lon="2.58061">
        <ele>234</ele>
        <time>2021-10-31T11:30:58.968Z</time>
      </trkpt>
      <trkpt lat="44.00458" lon="2.58063">
        <ele>234</ele>
        <time>2021-10-31T11:30:59.968Z</time>
      </trkpt>
      <trkpt lat="44.00459" lon="2.58064">
        <ele>233</ele>
        <time>2021-10-31T11:31:00.968Z</time>
      </trkpt>
      <trkpt lat="44.0046" lon="2.58065">
        <ele>233</ele>
        <time>2021-10-31T11:31:01.968Z</time>
      </trkpt>
      <trkpt lat="44.00461" lon="2.58066">
        <ele>233</ele>
        <time>2021-10-31T11:31:02.968Z</time>
      </trkpt>
      <trkpt lat="44.00461" lon="2.58067">
        <ele>233</ele>
        <time>2021-10-31T11:31:03.968Z</time>
      </trkpt>
      <trkpt lat="44.00462" lon="2.58068">
        <ele>233</ele>
        <time>2021-10-31T11:31:04.968Z</time>
      </trkpt>
      <trkpt lat="44.00463" lon="2.58069">
        <ele>233</ele>
        <time>2021-10-31T11:31:05.968Z</time>
      </trkpt>
      <trkpt lat="44.00464" lon="2.5807">
        <ele>233</ele>
        <time>2021-10-31T11:31:06.968Z</time>
      </trkpt>
      <trkpt lat="44.00465" lon="2.58072">
        <ele>233</ele>
        <time>2021-10-31T11:31:07.968Z</time>
      </trkpt>
      <trkpt lat="44.00465" lon="2.58073">
        <ele>233</ele>
        <time>2021-10-31T11:31:08.968Z</time>
      </trkpt>
      <trkpt lat="44.00466" lon="2.58074">
        <ele>233</ele>
        <time>2021-10-31T11:31:09.968Z</time>
      </trkpt>
      <trkpt lat="44.00467" lon="2.58074">
        <ele>233</ele>
        <time>2021-10-31T11:31:10.968Z</time>
      </trkpt>
      <trkpt lat="44.00467" lon="2.58075">
        <ele>233</ele>
        <time>2021-10-31T11:31:11.968Z</time>
      </trkpt>
      <trkpt lat="44.00468" lon="2.58076">
        <ele>233</ele>
        <time>2021-10-31T11:31:12.968Z</time>
      </trkpt>
      <trkpt lat="44.00468" lon="2.58077">
        <ele>233</ele>
        <time>2021-10-31T11:31:13.968Z</time>
      </trkpt>
      <trkpt lat="44.00469" lon="2.58078">
        <ele>233</ele>
        <time>2021-10-31T11:31:14.968Z</time>
      </trkpt>
      <trkpt lat="44.0047" lon="2.5808">
        <ele>233</ele>
        <time>2021-10-31T11:31:15.968Z</time>
      </trkpt>
      <trkpt lat="44.0047" lon="2.58081">
        <ele>233</ele>
        <time>2021-10-31T11:31:16.968Z</time>
      </trkpt>
      <trkpt lat="44.00471" lon="2.58082">
        <ele>233</ele>
        <time>2021-10-31T11:31:17.968Z</time>
      </trkpt>
      <trkpt lat="44.00472" lon="2.58083">
        <ele>233</ele>
        <time>2021-10-31T11:31:18.968Z</time>
      </trkpt>
      <trkpt lat="44.00472" lon="2.58085">
        <ele>233</ele>
        <time>2021-10-31T11:31:19.968Z</time>
      </trkpt>
      <trkpt lat="44.00473" lon="2.58086">
        <ele>233</ele>
        <time>2021-10-31T11:31:20.968Z</time>
      </trkpt>
      <trkpt lat="44.00474" lon="2.58087">
        <ele>233</ele>
        <time>2021-10-31T11:31:21.968Z</time>
      </trkpt>
      <trkpt lat="44.00474" lon="2.58088">
        <ele>233</ele>
        <time>2021-10-31T11:31:22.968Z</time>
      </trkpt>
      <trkpt lat="44.00475" lon="2.58089">
        <ele>233</ele>
        <time>2021-10-31T11:31:23.968Z</time>
      </trkpt>
      <trkpt lat="44.00476" lon="2.5809">
        <ele>233</ele>
        <time>2021-10-31T11:31:24.968Z</time>
      </trkpt>
      <trkpt lat="44.00477" lon="2.58091">
        <ele>233</ele>
        <time>2021-10-31T11:31:25.968Z</time>
      </trkpt>
      <trkpt lat="44.00478" lon="2.58092">
        <ele>233</ele>
        <time>2021-10-31T11:31:26.968Z</time>
      </trkpt>
      <trkpt lat="44.00478" lon="2.58093">
        <ele>233</ele>
        <time>2021-10-31T11:31:27.968Z</time>
      </trkpt>
      <trkpt lat="44.00479" lon="2.58095">
        <ele>233</ele>
        <time>2021-10-31T11:31:28.968Z</time>
      </trkpt>
      <trkpt lat="44.0048" lon="2.58096">
        <ele>233</ele>
        <time>2021-10-31T11:31:29.968Z</time>
      </trkpt>
      <trkpt lat="44.00481" lon="2.58096">
        <ele>233</ele>
        <time>2021-10-31T11:31:30.968Z</time>
      </trkpt>
      <trkpt lat="44.00481" lon="2.58097">
        <ele>233</ele>
        <time>2021-10-31T11:31:31.968Z</time>
      </trkpt>
      <trkpt lat="44.00482" lon="2.58099">
        <ele>233</ele>
        <time>2021-10-31T11:31:35.225Z</time>
      </trkpt>
      <trkpt lat="44.00483" lon="2.581">
        <ele>233</ele>
        <time>2021-10-31T11:31:36.225Z</time>
      </trkpt>
      <trkpt lat="44.00483" lon="2.58101">
        <ele>233</ele>
        <time>2021-10-31T11:31:37.225Z</time>
      </trkpt>
      <trkpt lat="44.00484" lon="2.58102">
        <ele>233</ele>
        <time>2021-10-31T11:31:38.225Z</time>
      </trkpt>
      <trkpt lat="44.00485" lon="2.58103">
        <ele>233</ele>
        <time>2021-10-31T11:31:39.225Z</time>
      </trkpt>
      <trkpt lat="44.00485" lon="2.58105">
        <ele>233</ele>
        <time>2021-10-31T11:31:40.225Z</time>
      </trkpt>
      <trkpt lat="44.00486" lon="2.58106">
        <ele>233</ele>
        <time>2021-10-31T11:31:41.225Z</time>
      </trkpt>
      <trkpt lat="44.00487" lon="2.58107">
        <ele>233</ele>
        <time>2021-10-31T11:31:42.225Z</time>
      </trkpt>
      <trkpt lat="44.00487" lon="2.58109">
        <ele>233</ele>
        <time>2021-10-31T11:31:43.225Z</time>
      </trkpt>
      <trkpt lat="44.00488" lon="2.5811">
        <ele>233</ele>
        <time>2021-10-31T11:31:44.225Z</time>
      </trkpt>
      <trkpt lat="44.00488" lon="2.58111">
        <ele>233</ele>
        <time>2021-10-31T11:31:45.225Z</time>
      </trkpt>
      <trkpt lat="44.00489" lon="2.58112">
        <ele>233</ele>
        <time>2021-10-31T11:31:46.225Z</time>
      </trkpt>
      <trkpt lat="44.0049" lon="2.58114">
        <ele>233</ele>
        <time>2021-10-31T11:31:47.225Z</time>
      </trkpt>
      <trkpt lat="44.00491" lon="2.58115">
        <ele>233</ele>
        <time>2021-10-31T11:31:48.225Z</time>
      </trkpt>
      <trkpt lat="44.00491" lon="2.58116">
        <ele>233</ele>
        <time>2021-10-31T11:31:49.225Z</time>
      </trkpt>
      <trkpt lat="44.00492" lon="2.58117">
        <ele>233</ele>
        <time>2021-10-31T11:31:50.225Z</time>
      </trkpt>
      <trkpt lat="44.00493" lon="2.58118">
        <ele>233</ele>
        <time>2021-10-31T11:31:51.225Z</time>
      </trkpt>
      <trkpt lat="44.00494" lon="2.58119">
        <ele>233</ele>
        <time>2021-10-31T11:31:52.225Z</time>
      </trkpt>
      <trkpt lat="44.00494" lon="2.58121">
        <ele>233</ele>
        <time>2021-10-31T11:31:53.225Z</time>
      </trkpt>
      <trkpt lat="44.00495" lon="2.58122">
        <ele>233</ele>
        <time>2021-10-31T11:31:54.225Z</time>
      </trkpt>
      <trkpt lat="44.00496" lon="2.58123">
        <ele>233</ele>
        <time>2021-10-31T11:31:55.225Z</time>
      </trkpt>
      <trkpt lat="44.00496" lon="2.58125">
        <ele>233</ele>
        <time>2021-10-31T11:31:56.225Z</time>
      </trkpt>
      <trkpt lat="44.00497" lon="2.58126">
        <ele>233</ele>
        <time>2021-10-31T11:31:57.225Z</time>
      </trkpt>
      <trkpt lat="44.00497" lon="2.58127">
        <ele>233</ele>
        <time>2021-10-31T11:31:58.225Z</time>
      </trkpt>
      <trkpt lat="44.00498" lon="2.58128">
        <ele>233</ele>
        <time>2021-10-31T11:31:59.225Z</time>
      </trkpt>
      <trkpt lat="44.00499" lon="2.58129">
        <ele>233</ele>
        <time>2021-10-31T11:32:00.225Z</time>
      </trkpt>
      <trkpt lat="44.005" lon="2.5813">
        <ele>233</ele>
        <time>2021-10-31T11:32:01.225Z</time>
      </trkpt>
      <trkpt lat="44.005" lon="2.58132">
        <ele>233</ele>
        <time>2021-10-31T11:32:02.225Z</time>
      </trkpt>
      <trkpt lat="44.00501" lon="2.58133">
        <ele>233</ele>
        <time>2021-10-31T11:32:03.225Z</time>
      </trkpt>
      <trkpt lat="44.00502" lon="2.58134">
        <ele>233</ele>
        <time>2021-10-31T11:32:04.225Z</time>
      </trkpt>
      <trkpt lat="44.00502" lon="2.58136">
        <ele>233</ele>
        <time>2021-10-31T11:32:05.225Z</time>
      </trkpt>
      <trkpt lat="44.00503" lon="2.58137">
        <ele>233</ele>
        <time>2021-10-31T11:32:06.225Z</time>
      </trkpt>
      <trkpt lat="44.00504" lon="2.58138">
        <ele>233</ele>
        <time>2021-10-31T11:32:07.225Z</time>
      </trkpt>
      <trkpt lat="44.00504" lon="2.58139">
        <ele>233</ele>
        <time>2021-10-31T11:32:08.225Z</time>
      </trkpt>
      <trkpt lat="44.00505" lon="2.5814">
        <ele>233</ele>
        <time>2021-10-31T11:32:09.225Z</time>
      </trkpt>
      <trkpt lat="44.00506" lon="2.58141">
        <ele>233</ele>
        <time>2021-10-31T11:32:10.225Z</time>
      </trkpt>
      <trkpt lat="44.00507" lon="2.58142">
        <ele>233</ele>
        <time>2021-10-31T11:32:11.225Z</time>
      </trkpt>
      <trkpt lat="44.00507" lon="2.58143">
        <ele>233</ele>
        <time>2021-10-31T11:32:12.225Z</time>
      </trkpt>
      <trkpt lat="44.00508" lon="2.58144">
        <ele>233</ele>
        <time>2021-10-31T11:32:13.225Z</time>
      </trkpt>
      <trkpt lat="44.00509" lon="2.58145">
        <ele>233</ele>
        <time>2021-10-31T11:32:14.225Z</time>
      </trkpt>
      <trkpt lat="44.0051" lon="2.58146">
        <ele>233</ele>
        <time>2021-10-31T11:32:15.225Z</time>
      </trkpt>
      <trkpt lat="44.0051" lon="2.58147">
        <ele>233</ele>
        <time>2021-10-31T11:32:16.225Z</time>
      </trkpt>
      <trkpt lat="44.00511" lon="2.58148">
        <ele>233</ele>
        <time>2021-10-31T11:32:17.225Z</time>
      </trkpt>
      <trkpt lat="44.00512" lon="2.58149">
        <ele>233</ele>
        <time>2021-10-31T11:32:18.225Z</time>
      </trkpt>
      <trkpt lat="44.00513" lon="2.5815">
        <ele>233</ele>
        <time>2021-10-31T11:32:19.225Z</time>
      </trkpt>
      <trkpt lat="44.00513" lon="2.58152">
        <ele>233</ele>
        <time>2021-10-31T11:32:20.225Z</time>
      </trkpt>
      <trkpt lat="44.00514" lon="2.58153">
        <ele>233</ele>
        <time>2021-10-31T11:32:21.225Z</time>
      </trkpt>
      <trkpt lat="44.00514" lon="2.58154">
        <ele>233</ele>
        <time>2021-10-31T11:32:22.225Z</time>
      </trkpt>
      <trkpt lat="44.00515" lon="2.58155">
        <ele>233</ele>
        <time>2021-10-31T11:32:23.225Z</time>
      </trkpt>
      <trkpt lat="44.00516" lon="2.58157">
        <ele>233</ele>
        <time>2021-10-31T11:32:24.225Z</time>
      </trkpt>
      <trkpt lat="44.00517" lon="2.58158">
        <ele>233</ele>
        <time>2021-10-31T11:32:25.225Z</time>
      </trkpt>
      <trkpt lat="44.00517" lon="2.58159">
        <ele>233</ele>
        <time>2021-10-31T11:32:26.225Z</time>
      </trkpt>
      <trkpt lat="44.00518" lon="2.58161">
        <ele>233</ele>
        <time>2021-10-31T11:32:27.225Z</time>
      </trkpt>
      <trkpt lat="44.00519" lon="2.58162">
        <ele>233</ele>
        <time>2021-10-31T11:32:28.225Z</time>
      </trkpt>
      <trkpt lat="44.0052" lon="2.58163">
        <ele>233</ele>
        <time>2021-10-31T11:32:29.225Z</time>
      </trkpt>
      <trkpt lat="44.00521" lon="2.58164">
        <ele>233</ele>
        <time>2021-10-31T11:32:30.225Z</time>
      </trkpt>
      <trkpt lat="44.00521" lon="2.58165">
        <ele>233</ele>
        <time>2021-10-31T11:32:31.225Z</time>
      </trkpt>
      <trkpt lat="44.00522" lon="2.58167">
        <ele>233</ele>
        <time>2021-10-31T11:32:32.225Z</time>
      </trkpt>
      <trkpt lat="44.00523" lon="2.58168">
        <ele>233</ele>
        <time>2021-10-31T11:32:33.225Z</time>
      </trkpt>
      <trkpt lat="44.00524" lon="2.58169">
        <ele>233</ele>
        <time>2021-10-31T11:32:34.225Z</time>
      </trkpt>
      <trkpt lat="44.00525" lon="2.5817">
        <ele>233</ele>
        <time>2021-10-31T11:32:35.225Z</time>
      </trkpt>
      <trkpt lat="44.00525" lon="2.58171">
        <ele>233</ele>
        <time>2021-10-31T11:32:42.231Z</time>
      </trkpt>
      <trkpt lat="44.00526" lon="2.58172">
        <ele>233</ele>
        <time>2021-10-31T11:32:43.231Z</time>
      </trkpt>
      <trkpt lat="44.00527" lon="2.58174">
        <ele>233</ele>
        <time>2021-10-31T11:32:44.231Z</time>
      </trkpt>
      <trkpt lat="44.00527" lon="2.58175">
        <ele>233</ele>
        <time>2021-10-31T11:32:45.231Z</time>
      </trkpt>
      <trkpt lat="44.00528" lon="2.58176">
        <ele>233</ele>
        <time>2021-10-31T11:32:46.231Z</time>
      </trkpt>
      <trkpt lat="44.00528" lon="2.58178">
        <ele>233</ele>
        <time>2021-10-31T11:32:47.231Z</time>
      </trkpt>
      <trkpt lat="44.00529" lon="2.58179">
        <ele>233</ele>
        <time>2021-10-31T11:32:51.236Z</time>
      </trkpt>
      <trkpt lat="44.00529" lon="2.58181">
        <ele>233</ele>
        <time>2021-10-31T11:32:52.236Z</time>
      </trkpt>
      <trkpt lat="44.0053" lon="2.58182">
        <ele>233</ele>
        <time>2021-10-31T11:32:53.236Z</time>
      </trkpt>
      <trkpt lat="44.00531" lon="2.58183">
        <ele>233</ele>
        <time>2021-10-31T11:32:54.236Z</time>
      </trkpt>
      <trkpt lat="44.00531" lon="2.58185">
        <ele>233</ele>
        <time>2021-10-31T11:32:55.236Z</time>
      </trkpt>
      <trkpt lat="44.00532" lon="2.58187">
        <ele>233</ele>
        <time>2021-10-31T11:32:56.236Z</time>
      </trkpt>
      <trkpt lat="44.00533" lon="2.58188">
        <ele>233</ele>
        <time>2021-10-31T11:32:57.236Z</time>
      </trkpt>
      <trkpt lat="44.00533" lon="2.58189">
        <ele>233</ele>
        <time>2021-10-31T11:32:58.236Z</time>
      </trkpt>
      <trkpt lat="44.00534" lon="2.58191">
        <ele>234</ele>
        <time>2021-10-31T11:32:59.236Z</time>
      </trkpt>
      <trkpt lat="44.00534" lon="2.58192">
        <ele>234</ele>
        <time>2021-10-31T11:33:00.236Z</time>
      </trkpt>
      <trkpt lat="44.00535" lon="2.58193">
        <ele>234</ele>
        <time>2021-10-31T11:33:01.236Z</time>
      </trkpt>
      <trkpt lat="44.00535" lon="2.58195">
        <ele>234</ele>
        <time>2021-10-31T11:33:02.236Z</time>
      </trkpt>
      <trkpt lat="44.00536" lon="2.58196">
        <ele>234</ele>
        <time>2021-10-31T11:33:03.236Z</time>
      </trkpt>
      <trkpt lat="44.00536" lon="2.58197">
        <ele>234</ele>
        <time>2021-10-31T11:33:04.236Z</time>
      </trkpt>
      <trkpt lat="44.00537" lon="2.58198">
        <ele>234</ele>
        <time>2021-10-31T11:33:05.236Z</time>
      </trkpt>
      <trkpt lat="44.00538" lon="2.58199">
        <ele>234</ele>
        <time>2021-10-31T11:33:06.236Z</time>
      </trkpt>
      <trkpt lat="44.00538" lon="2.58201">
        <ele>234</ele>
        <time>2021-10-31T11:33:07.236Z</time>
      </trkpt>
      <trkpt lat="44.00539" lon="2.58202">
        <ele>234</ele>
        <time>2021-10-31T11:33:10.492Z</time>
      </trkpt>
      <trkpt lat="44.00539" lon="2.58203">
        <ele>234</ele>
        <time>2021-10-31T11:33:11.492Z</time>
      </trkpt>
      <trkpt lat="44.0054" lon="2.58204">
        <ele>234</ele>
        <time>2021-10-31T11:33:12.492Z</time>
      </trkpt>
      <trkpt lat="44.0054" lon="2.58205">
        <ele>235</ele>
        <time>2021-10-31T11:33:15.746Z</time>
      </trkpt>
      <trkpt lat="44.00541" lon="2.58207">
        <ele>235</ele>
        <time>2021-10-31T11:33:16.746Z</time>
      </trkpt>
      <trkpt lat="44.00542" lon="2.58207">
        <ele>235</ele>
        <time>2021-10-31T11:33:17.746Z</time>
      </trkpt>
      <trkpt lat="44.00543" lon="2.58208">
        <ele>234</ele>
        <time>2021-10-31T11:33:18.746Z</time>
      </trkpt>
      <trkpt lat="44.00544" lon="2.5821">
        <ele>234</ele>
        <time>2021-10-31T11:33:19.746Z</time>
      </trkpt>
      <trkpt lat="44.00544" lon="2.58211">
        <ele>234</ele>
        <time>2021-10-31T11:33:20.746Z</time>
      </trkpt>
      <trkpt lat="44.00545" lon="2.58212">
        <ele>234</ele>
        <time>2021-10-31T11:33:21.746Z</time>
      </trkpt>
      <trkpt lat="44.00545" lon="2.58214">
        <ele>234</ele>
        <time>2021-10-31T11:33:22.746Z</time>
      </trkpt>
      <trkpt lat="44.00546" lon="2.58215">
        <ele>234</ele>
        <time>2021-10-31T11:33:26.001Z</time>
      </trkpt>
      <trkpt lat="44.00547" lon="2.58216">
        <ele>234</ele>
        <time>2021-10-31T11:33:27.001Z</time>
      </trkpt>
      <trkpt lat="44.00547" lon="2.58217">
        <ele>234</ele>
        <time>2021-10-31T11:33:28.001Z</time>
      </trkpt>
      <trkpt lat="44.00548" lon="2.58219">
        <ele>234</ele>
        <time>2021-10-31T11:33:29.001Z</time>
      </trkpt>
      <trkpt lat="44.00549" lon="2.5822">
        <ele>234</ele>
        <time>2021-10-31T11:33:30.001Z</time>
      </trkpt>
      <trkpt lat="44.0055" lon="2.58221">
        <ele>234</ele>
        <time>2021-10-31T11:33:31.001Z</time>
      </trkpt>
      <trkpt lat="44.0055" lon="2.58222">
        <ele>234</ele>
        <time>2021-10-31T11:33:32.001Z</time>
      </trkpt>
      <trkpt lat="44.00551" lon="2.58224">
        <ele>234</ele>
        <time>2021-10-31T11:33:33.001Z</time>
      </trkpt>
      <trkpt lat="44.00552" lon="2.58225">
        <ele>234</ele>
        <time>2021-10-31T11:33:34.001Z</time>
      </trkpt>
      <trkpt lat="44.00552" lon="2.58227">
        <ele>234</ele>
        <time>2021-10-31T11:33:35.001Z</time>
      </trkpt>
      <trkpt lat="44.00553" lon="2.58228">
        <ele>234</ele>
        <time>2021-10-31T11:33:36.001Z</time>
      </trkpt>
      <trkpt lat="44.00554" lon="2.58229">
        <ele>234</ele>
        <time>2021-10-31T11:33:37.001Z</time>
      </trkpt>
      <trkpt lat="44.00554" lon="2.58231">
        <ele>234</ele>
        <time>2021-10-31T11:33:44.010Z</time>
      </trkpt>
      <trkpt lat="44.00555" lon="2.58232">
        <ele>234</ele>
        <time>2021-10-31T11:33:45.010Z</time>
      </trkpt>
      <trkpt lat="44.00556" lon="2.58234">
        <ele>234</ele>
        <time>2021-10-31T11:33:46.010Z</time>
      </trkpt>
      <trkpt lat="44.00556" lon="2.58235">
        <ele>234</ele>
        <time>2021-10-31T11:33:47.010Z</time>
      </trkpt>
      <trkpt lat="44.00557" lon="2.58236">
        <ele>234</ele>
        <time>2021-10-31T11:33:48.010Z</time>
      </trkpt>
      <trkpt lat="44.00557" lon="2.58237">
        <ele>234</ele>
        <time>2021-10-31T11:33:49.010Z</time>
      </trkpt>
      <trkpt lat="44.00558" lon="2.58238">
        <ele>234</ele>
        <time>2021-10-31T11:33:50.010Z</time>
      </trkpt>
      <trkpt lat="44.00558" lon="2.5824">
        <ele>234</ele>
        <time>2021-10-31T11:33:51.010Z</time>
      </trkpt>
      <trkpt lat="44.00559" lon="2.58241">
        <ele>234</ele>
        <time>2021-10-31T11:33:52.010Z</time>
      </trkpt>
      <trkpt lat="44.00559" lon="2.58242">
        <ele>234</ele>
        <time>2021-10-31T11:33:53.010Z</time>
      </trkpt>
      <trkpt lat="44.0056" lon="2.58244">
        <ele>234</ele>
        <time>2021-10-31T11:33:54.010Z</time>
      </trkpt>
      <trkpt lat="44.00561" lon="2.58245">
        <ele>233</ele>
        <time>2021-10-31T11:33:55.010Z</time>
      </trkpt>
      <trkpt lat="44.00561" lon="2.58246">
        <ele>233</ele>
        <time>2021-10-31T11:34:02.019Z</time>
      </trkpt>
      <trkpt lat="44.00562" lon="2.58248">
        <ele>233</ele>
        <time>2021-10-31T11:34:03.019Z</time>
      </trkpt>
      <trkpt lat="44.00563" lon="2.58249">
        <ele>233</ele>
        <time>2021-10-31T11:34:04.019Z</time>
      </trkpt>
      <trkpt lat="44.00563" lon="2.5825">
        <ele>233</ele>
        <time>2021-10-31T11:34:05.019Z</time>
      </trkpt>
      <trkpt lat="44.00564" lon="2.58251">
        <ele>233</ele>
        <time>2021-10-31T11:34:06.019Z</time>
      </trkpt>
      <trkpt lat="44.00564" lon="2.58252">
        <ele>233</ele>
        <time>2021-10-31T11:34:07.019Z</time>
      </trkpt>
      <trkpt lat="44.00565" lon="2.58254">
        <ele>233</ele>
        <time>2021-10-31T11:34:08.019Z</time>
      </trkpt>
      <trkpt lat="44.00565" lon="2.58255">
        <ele>233</ele>
        <time>2021-10-31T11:34:09.019Z</time>
      </trkpt>
      <trkpt lat="44.00566" lon="2.58256">
        <ele>233</ele>
        <time>2021-10-31T11:34:12.275Z</time>
      </trkpt>
      <trkpt lat="44.00566" lon="2.58257">
        <ele>233</ele>
        <time>2021-10-31T11:34:13.275Z</time>
      </trkpt>
      <trkpt lat="44.00566" lon="2.58258">
        <ele>233</ele>
        <time>2021-10-31T11:34:14.275Z</time>
      </trkpt>
      <trkpt lat="44.00567" lon="2.5826">
        <ele>233</ele>
        <time>2021-10-31T11:34:15.275Z</time>
      </trkpt>
      <trkpt lat="44.00567" lon="2.58261">
        <ele>233</ele>
        <time>2021-10-31T11:34:16.275Z</time>
      </trkpt>
      <trkpt lat="44.00568" lon="2.58262">
        <ele>233</ele>
        <time>2021-10-31T11:34:17.275Z</time>
      </trkpt>
      <trkpt lat="44.00568" lon="2.58264">
        <ele>233</ele>
        <time>2021-10-31T11:34:18.275Z</time>
      </trkpt>
      <trkpt lat="44.00569" lon="2.58265">
        <ele>233</ele>
        <time>2021-10-31T11:34:22.283Z</time>
      </trkpt>
      <trkpt lat="44.00569" lon="2.58266">
        <ele>233</ele>
        <time>2021-10-31T11:34:23.283Z</time>
      </trkpt>
      <trkpt lat="44.0057" lon="2.58267">
        <ele>233</ele>
        <time>2021-10-31T11:34:24.283Z</time>
      </trkpt>
      <trkpt lat="44.0057" lon="2.58268">
        <ele>233</ele>
        <time>2021-10-31T11:34:25.283Z</time>
      </trkpt>
      <trkpt lat="44.00571" lon="2.58269">
        <ele>233</ele>
        <time>2021-10-31T11:34:26.283Z</time>
      </trkpt>
      <trkpt lat="44.00571" lon="2.5827">
        <ele>233</ele>
        <time>2021-10-31T11:34:27.283Z</time>
      </trkpt>
      <trkpt lat="44.00572" lon="2.58271">
        <ele>233</ele>
        <time>2021-10-31T11:34:28.283Z</time>
      </trkpt>
      <trkpt lat="44.00572" lon="2.58272">
        <ele>233</ele>
        <time>2021-10-31T11:34:29.283Z</time>
      </trkpt>
      <trkpt lat="44.00573" lon="2.58274">
        <ele>233</ele>
        <time>2021-10-31T11:34:30.283Z</time>
      </trkpt>
      <trkpt lat="44.00574" lon="2.58275">
        <ele>233</ele>
        <time>2021-10-31T11:34:31.283Z</time>
      </trkpt>
      <trkpt lat="44.00575" lon="2.58276">
        <ele>233</ele>
        <time>2021-10-31T11:34:53.293Z</time>
      </trkpt>
      <trkpt lat="44.00575" lon="2.58278">
        <ele>233</ele>
        <time>2021-10-31T11:34:54.293Z</time>
      </trkpt>
      <trkpt lat="44.00576" lon="2.58279">
        <ele>233</ele>
        <time>2021-10-31T11:34:55.293Z</time>
      </trkpt>
      <trkpt lat="44.00577" lon="2.5828">
        <ele>233</ele>
        <time>2021-10-31T11:34:56.293Z</time>
      </trkpt>
      <trkpt lat="44.00577" lon="2.58281">
        <ele>233</ele>
        <time>2021-10-31T11:34:57.293Z</time>
      </trkpt>
      <trkpt lat="44.00578" lon="2.58282">
        <ele>234</ele>
        <time>2021-10-31T11:35:01.300Z</time>
      </trkpt>
      <trkpt lat="44.00579" lon="2.58284">
        <ele>234</ele>
        <time>2021-10-31T11:35:02.300Z</time>
      </trkpt>
      <trkpt lat="44.0058" lon="2.58285">
        <ele>234</ele>
        <time>2021-10-31T11:35:03.300Z</time>
      </trkpt>
      <trkpt lat="44.00581" lon="2.58286">
        <ele>234</ele>
        <time>2021-10-31T11:35:04.300Z</time>
      </trkpt>
      <trkpt lat="44.00581" lon="2.58288">
        <ele>234</ele>
        <time>2021-10-31T11:35:05.300Z</time>
      </trkpt>
      <trkpt lat="44.00582" lon="2.58289">
        <ele>234</ele>
        <time>2021-10-31T11:35:06.300Z</time>
      </trkpt>
      <trkpt lat="44.00583" lon="2.5829">
        <ele>234</ele>
        <time>2021-10-31T11:35:07.300Z</time>
      </trkpt>
      <trkpt lat="44.00583" lon="2.58291">
        <ele>234</ele>
        <time>2021-10-31T11:35:08.300Z</time>
      </trkpt>
      <trkpt lat="44.00584" lon="2.58293">
        <ele>234</ele>
        <time>2021-10-31T11:35:09.300Z</time>
      </trkpt>
      <trkpt lat="44.00584" lon="2.58294">
        <ele>234</ele>
        <time>2021-10-31T11:35:10.300Z</time>
      </trkpt>
      <trkpt lat="44.00585" lon="2.58295">
        <ele>234</ele>
        <time>2021-10-31T11:35:11.300Z</time>
      </trkpt>
      <trkpt lat="44.00586" lon="2.58296">
        <ele>235</ele>
        <time>2021-10-31T11:35:12.300Z</time>
      </trkpt>
      <trkpt lat="44.00587" lon="2.58297">
        <ele>235</ele>
        <time>2021-10-31T11:35:13.300Z</time>
      </trkpt>
      <trkpt lat="44.00588" lon="2.58299">
        <ele>235</ele>
        <time>2021-10-31T11:35:14.300Z</time>
      </trkpt>
      <trkpt lat="44.00588" lon="2.583">
        <ele>235</ele>
        <time>2021-10-31T11:35:15.300Z</time>
      </trkpt>
      <trkpt lat="44.00589" lon="2.58301">
        <ele>235</ele>
        <time>2021-10-31T11:35:16.300Z</time>
      </trkpt>
      <trkpt lat="44.0059" lon="2.58303">
        <ele>235</ele>
        <time>2021-10-31T11:35:17.300Z</time>
      </trkpt>
      <trkpt lat="44.0059" lon="2.58304">
        <ele>235</ele>
        <time>2021-10-31T11:35:18.300Z</time>
      </trkpt>
      <trkpt lat="44.00591" lon="2.58305">
        <ele>235</ele>
        <time>2021-10-31T11:35:19.300Z</time>
      </trkpt>
      <trkpt lat="44.00592" lon="2.58306">
        <ele>235</ele>
        <time>2021-10-31T11:35:20.300Z</time>
      </trkpt>
      <trkpt lat="44.00592" lon="2.58307">
        <ele>235</ele>
        <time>2021-10-31T11:35:21.300Z</time>
      </trkpt>
      <trkpt lat="44.00593" lon="2.58309">
        <ele>235</ele>
        <time>2021-10-31T11:35:22.300Z</time>
      </trkpt>
      <trkpt lat="44.00594" lon="2.5831">
        <ele>235</ele>
        <time>2021-10-31T11:35:23.300Z</time>
      </trkpt>
      <trkpt lat="44.00595" lon="2.58311">
        <ele>235</ele>
        <time>2021-10-31T11:35:24.300Z</time>
      </trkpt>
      <trkpt lat="44.00595" lon="2.58312">
        <ele>235</ele>
        <time>2021-10-31T11:35:25.300Z</time>
      </trkpt>
      <trkpt lat="44.00596" lon="2.58313">
        <ele>236</ele>
        <time>2021-10-31T11:35:26.300Z</time>
      </trkpt>
      <trkpt lat="44.00597" lon="2.58314">
        <ele>236</ele>
        <time>2021-10-31T11:35:27.300Z</time>
      </trkpt>
      <trkpt lat="44.00597" lon="2.58316">
        <ele>236</ele>
        <time>2021-10-31T11:35:28.300Z</time>
      </trkpt>
      <trkpt lat="44.00598" lon="2.58317">
        <ele>236</ele>
        <time>2021-10-31T11:35:29.300Z</time>
      </trkpt>
      <trkpt lat="44.00599" lon="2.58318">
        <ele>236</ele>
        <time>2021-10-31T11:35:30.300Z</time>
      </trkpt>
      <trkpt lat="44.00599" lon="2.58319">
        <ele>236</ele>
        <time>2021-10-31T11:35:31.300Z</time>
      </trkpt>
      <trkpt lat="44.006" lon="2.58321">
        <ele>236</ele>
        <time>2021-10-31T11:35:32.300Z</time>
      </trkpt>
      <trkpt lat="44.006" lon="2.58322">
        <ele>236</ele>
        <time>2021-10-31T11:35:33.300Z</time>
      </trkpt>
      <trkpt lat="44.00601" lon="2.58323">
        <ele>236</ele>
        <time>2021-10-31T11:35:34.300Z</time>
      </trkpt>
      <trkpt lat="44.00602" lon="2.58324">
        <ele>236</ele>
        <time>2021-10-31T11:35:35.300Z</time>
      </trkpt>
      <trkpt lat="44.00603" lon="2.58325">
        <ele>236</ele>
        <time>2021-10-31T11:35:36.300Z</time>
      </trkpt>
      <trkpt lat="44.00603" lon="2.58327">
        <ele>236</ele>
        <time>2021-10-31T11:35:37.300Z</time>
      </trkpt>
      <trkpt lat="44.00604" lon="2.58328">
        <ele>236</ele>
        <time>2021-10-31T11:35:38.300Z</time>
      </trkpt>
      <trkpt lat="44.00605" lon="2.58329">
        <ele>236</ele>
        <time>2021-10-31T11:35:39.300Z</time>
      </trkpt>
      <trkpt lat="44.00606" lon="2.5833">
        <ele>236</ele>
        <time>2021-10-31T11:35:40.300Z</time>
      </trkpt>
      <trkpt lat="44.00607" lon="2.58331">
        <ele>236</ele>
        <time>2021-10-31T11:35:41.300Z</time>
      </trkpt>
      <trkpt lat="44.00608" lon="2.58332">
        <ele>236</ele>
        <time>2021-10-31T11:35:42.300Z</time>
      </trkpt>
      <trkpt lat="44.00609" lon="2.58334">
        <ele>236</ele>
        <time>2021-10-31T11:35:43.300Z</time>
      </trkpt>
      <trkpt lat="44.00609" lon="2.58335">
        <ele>236</ele>
        <time>2021-10-31T11:35:44.300Z</time>
      </trkpt>
      <trkpt lat="44.0061" lon="2.58336">
        <ele>236</ele>
        <time>2021-10-31T11:35:45.300Z</time>
      </trkpt>
      <trkpt lat="44.0061" lon="2.58337">
        <ele>236</ele>
        <time>2021-10-31T11:35:46.300Z</time>
      </trkpt>
      <trkpt lat="44.00611" lon="2.58338">
        <ele>236</ele>
        <time>2021-10-31T11:35:47.300Z</time>
      </trkpt>
      <trkpt lat="44.00612" lon="2.5834">
        <ele>236</ele>
        <time>2021-10-31T11:35:48.300Z</time>
      </trkpt>
      <trkpt lat="44.00613" lon="2.58341">
        <ele>236</ele>
        <time>2021-10-31T11:35:49.300Z</time>
      </trkpt>
      <trkpt lat="44.00613" lon="2.58342">
        <ele>236</ele>
        <time>2021-10-31T11:35:50.300Z</time>
      </trkpt>
      <trkpt lat="44.00614" lon="2.58343">
        <ele>236</ele>
        <time>2021-10-31T11:35:51.300Z</time>
      </trkpt>
      <trkpt lat="44.00615" lon="2.58344">
        <ele>236</ele>
        <time>2021-10-31T11:35:52.300Z</time>
      </trkpt>
      <trkpt lat="44.00616" lon="2.58345">
        <ele>236</ele>
        <time>2021-10-31T11:35:53.300Z</time>
      </trkpt>
      <trkpt lat="44.00616" lon="2.58346">
        <ele>236</ele>
        <time>2021-10-31T11:35:54.300Z</time>
      </trkpt>
      <trkpt lat="44.00617" lon="2.58348">
        <ele>236</ele>
        <time>2021-10-31T11:35:55.300Z</time>
      </trkpt>
      <trkpt lat="44.00617" lon="2.58349">
        <ele>236</ele>
        <time>2021-10-31T11:35:56.300Z</time>
      </trkpt>
      <trkpt lat="44.00618" lon="2.5835">
        <ele>236</ele>
        <time>2021-10-31T11:35:57.300Z</time>
      </trkpt>
      <trkpt lat="44.00619" lon="2.58352">
        <ele>236</ele>
        <time>2021-10-31T11:35:58.300Z</time>
      </trkpt>
      <trkpt lat="44.00619" lon="2.58353">
        <ele>236</ele>
        <time>2021-10-31T11:35:59.300Z</time>
      </trkpt>
      <trkpt lat="44.00619" lon="2.58354">
        <ele>236</ele>
        <time>2021-10-31T11:36:00.300Z</time>
      </trkpt>
      <trkpt lat="44.0062" lon="2.58355">
        <ele>236</ele>
        <time>2021-10-31T11:36:01.300Z</time>
      </trkpt>
      <trkpt lat="44.0062" lon="2.58357">
        <ele>236</ele>
        <time>2021-10-31T11:36:02.300Z</time>
      </trkpt>
      <trkpt lat="44.00621" lon="2.58358">
        <ele>236</ele>
        <time>2021-10-31T11:36:03.300Z</time>
      </trkpt>
      <trkpt lat="44.00622" lon="2.58359">
        <ele>235</ele>
        <time>2021-10-31T11:36:04.300Z</time>
      </trkpt>
      <trkpt lat="44.00622" lon="2.5836">
        <ele>235</ele>
        <time>2021-10-31T11:36:05.300Z</time>
      </trkpt>
      <trkpt lat="44.00623" lon="2.58361">
        <ele>235</ele>
        <time>2021-10-31T11:36:06.300Z</time>
      </trkpt>
      <trkpt lat="44.00623" lon="2.58363">
        <ele>235</ele>
        <time>2021-10-31T11:36:07.300Z</time>
      </trkpt>
      <trkpt lat="44.00624" lon="2.58364">
        <ele>235</ele>
        <time>2021-10-31T11:36:08.300Z</time>
      </trkpt>
      <trkpt lat="44.00624" lon="2.58365">
        <ele>235</ele>
        <time>2021-10-31T11:36:09.300Z</time>
      </trkpt>
      <trkpt lat="44.00625" lon="2.58366">
        <ele>235</ele>
        <time>2021-10-31T11:36:10.300Z</time>
      </trkpt>
      <trkpt lat="44.00625" lon="2.58367">
        <ele>236</ele>
        <time>2021-10-31T11:36:11.300Z</time>
      </trkpt>
      <trkpt lat="44.00626" lon="2.58368">
        <ele>236</ele>
        <time>2021-10-31T11:36:12.300Z</time>
      </trkpt>
      <trkpt lat="44.00626" lon="2.58369">
        <ele>236</ele>
        <time>2021-10-31T11:36:13.300Z</time>
      </trkpt>
      <trkpt lat="44.00627" lon="2.58371">
        <ele>236</ele>
        <time>2021-10-31T11:36:17.338Z</time>
      </trkpt>
      <trkpt lat="44.00627" lon="2.58372">
        <ele>236</ele>
        <time>2021-10-31T11:36:18.338Z</time>
      </trkpt>
      <trkpt lat="44.00628" lon="2.58373">
        <ele>236</ele>
        <time>2021-10-31T11:36:19.338Z</time>
      </trkpt>
      <trkpt lat="44.00628" lon="2.58375">
        <ele>236</ele>
        <time>2021-10-31T11:36:20.338Z</time>
      </trkpt>
      <trkpt lat="44.00629" lon="2.58376">
        <ele>236</ele>
        <time>2021-10-31T11:36:21.338Z</time>
      </trkpt>
      <trkpt lat="44.00629" lon="2.58378">
        <ele>236</ele>
        <time>2021-10-31T11:36:22.338Z</time>
      </trkpt>
      <trkpt lat="44.0063" lon="2.58379">
        <ele>236</ele>
        <time>2021-10-31T11:36:23.338Z</time>
      </trkpt>
      <trkpt lat="44.00631" lon="2.5838">
        <ele>236</ele>
        <time>2021-10-31T11:36:24.338Z</time>
      </trkpt>
      <trkpt lat="44.00631" lon="2.58381">
        <ele>236</ele>
        <time>2021-10-31T11:36:25.338Z</time>
      </trkpt>
      <trkpt lat="44.00632" lon="2.58382">
        <ele>236</ele>
        <time>2021-10-31T11:36:26.338Z</time>
      </trkpt>
      <trkpt lat="44.00632" lon="2.58383">
        <ele>236</ele>
        <time>2021-10-31T11:36:27.338Z</time>
      </trkpt>
      <trkpt lat="44.00633" lon="2.58384">
        <ele>236</ele>
        <time>2021-10-31T11:36:28.338Z</time>
      </trkpt>
      <trkpt lat="44.00634" lon="2.58385">
        <ele>236</ele>
        <time>2021-10-31T11:36:29.338Z</time>
      </trkpt>
      <trkpt lat="44.00634" lon="2.58386">
        <ele>236</ele>
        <time>2021-10-31T11:36:30.338Z</time>
      </trkpt>
      <trkpt lat="44.00635" lon="2.58387">
        <ele>236</ele>
        <time>2021-10-31T11:36:31.338Z</time>
      </trkpt>
      <trkpt lat="44.00635" lon="2.58389">
        <ele>236</ele>
        <time>2021-10-31T11:36:32.338Z</time>
      </trkpt>
      <trkpt lat="44.00636" lon="2.5839">
        <ele>236</ele>
        <time>2021-10-31T11:36:33.338Z</time>
      </trkpt>
      <trkpt lat="44.00636" lon="2.58391">
        <ele>236</ele>
        <time>2021-10-31T11:36:34.338Z</time>
      </trkpt>
      <trkpt lat="44.00636" lon="2.58392">
        <ele>236</ele>
        <time>2021-10-31T11:36:35.338Z</time>
      </trkpt>
      <trkpt lat="44.00637" lon="2.58393">
        <ele>236</ele>
        <time>2021-10-31T11:36:36.338Z</time>
      </trkpt>
      <trkpt lat="44.00637" lon="2.58395">
        <ele>236</ele>
        <time>2021-10-31T11:36:37.338Z</time>
      </trkpt>
      <trkpt lat="44.00638" lon="2.58396">
        <ele>236</ele>
        <time>2021-10-31T11:36:38.338Z</time>
      </trkpt>
      <trkpt lat="44.00638" lon="2.58397">
        <ele>236</ele>
        <time>2021-10-31T11:36:39.338Z</time>
      </trkpt>
      <trkpt lat="44.00639" lon="2.58399">
        <ele>236</ele>
        <time>2021-10-31T11:36:40.338Z</time>
      </trkpt>
      <trkpt lat="44.00639" lon="2.584">
        <ele>236</ele>
        <time>2021-10-31T11:36:41.338Z</time>
      </trkpt>
      <trkpt lat="44.00639" lon="2.58401">
        <ele>236</ele>
        <time>2021-10-31T11:36:42.338Z</time>
      </trkpt>
      <trkpt lat="44.0064" lon="2.58403">
        <ele>236</ele>
        <time>2021-10-31T11:36:43.338Z</time>
      </trkpt>
      <trkpt lat="44.0064" lon="2.58404">
        <ele>236</ele>
        <time>2021-10-31T11:36:44.338Z</time>
      </trkpt>
      <trkpt lat="44.00641" lon="2.58405">
        <ele>236</ele>
        <time>2021-10-31T11:36:45.338Z</time>
      </trkpt>
      <trkpt lat="44.00641" lon="2.58406">
        <ele>236</ele>
        <time>2021-10-31T11:36:46.338Z</time>
      </trkpt>
      <trkpt lat="44.00642" lon="2.58407">
        <ele>236</ele>
        <time>2021-10-31T11:36:47.338Z</time>
      </trkpt>
      <trkpt lat="44.00643" lon="2.58408">
        <ele>236</ele>
        <time>2021-10-31T11:36:48.338Z</time>
      </trkpt>
      <trkpt lat="44.00643" lon="2.58409">
        <ele>236</ele>
        <time>2021-10-31T11:36:49.338Z</time>
      </trkpt>
      <trkpt lat="44.00644" lon="2.5841">
        <ele>236</ele>
        <time>2021-10-31T11:36:50.338Z</time>
      </trkpt>
      <trkpt lat="44.00644" lon="2.58412">
        <ele>236</ele>
        <time>2021-10-31T11:36:51.338Z</time>
      </trkpt>
      <trkpt lat="44.00645" lon="2.58413">
        <ele>236</ele>
        <time>2021-10-31T11:36:52.338Z</time>
      </trkpt>
      <trkpt lat="44.00646" lon="2.58415">
        <ele>236</ele>
        <time>2021-10-31T11:36:53.338Z</time>
      </trkpt>
      <trkpt lat="44.00647" lon="2.58416">
        <ele>236</ele>
        <time>2021-10-31T11:36:54.338Z</time>
      </trkpt>
      <trkpt lat="44.00647" lon="2.58418">
        <ele>236</ele>
        <time>2021-10-31T11:36:55.338Z</time>
      </trkpt>
      <trkpt lat="44.00648" lon="2.58419">
        <ele>236</ele>
        <time>2021-10-31T11:36:56.338Z</time>
      </trkpt>
      <trkpt lat="44.00648" lon="2.58421">
        <ele>236</ele>
        <time>2021-10-31T11:36:57.338Z</time>
      </trkpt>
      <trkpt lat="44.00649" lon="2.58422">
        <ele>236</ele>
        <time>2021-10-31T11:36:58.338Z</time>
      </trkpt>
      <trkpt lat="44.0065" lon="2.58423">
        <ele>236</ele>
        <time>2021-10-31T11:36:59.338Z</time>
      </trkpt>
      <trkpt lat="44.00651" lon="2.58425">
        <ele>236</ele>
        <time>2021-10-31T11:37:00.338Z</time>
      </trkpt>
      <trkpt lat="44.00651" lon="2.58426">
        <ele>236</ele>
        <time>2021-10-31T11:37:01.338Z</time>
      </trkpt>
      <trkpt lat="44.00652" lon="2.58427">
        <ele>236</ele>
        <time>2021-10-31T11:37:02.338Z</time>
      </trkpt>
      <trkpt lat="44.00653" lon="2.58429">
        <ele>236</ele>
        <time>2021-10-31T11:37:03.338Z</time>
      </trkpt>
      <trkpt lat="44.00654" lon="2.5843">
        <ele>236</ele>
        <time>2021-10-31T11:37:04.338Z</time>
      </trkpt>
      <trkpt lat="44.00654" lon="2.58431">
        <ele>236</ele>
        <time>2021-10-31T11:37:05.338Z</time>
      </trkpt>
      <trkpt lat="44.00655" lon="2.58432">
        <ele>236</ele>
        <time>2021-10-31T11:37:06.338Z</time>
      </trkpt>
      <trkpt lat="44.00656" lon="2.58433">
        <ele>236</ele>
        <time>2021-10-31T11:37:07.338Z</time>
      </trkpt>
      <trkpt lat="44.00657" lon="2.58435">
        <ele>236</ele>
        <time>2021-10-31T11:37:08.338Z</time>
      </trkpt>
      <trkpt lat="44.00658" lon="2.58436">
        <ele>236</ele>
        <time>2021-10-31T11:37:09.338Z</time>
      </trkpt>
      <trkpt lat="44.00658" lon="2.58437">
        <ele>236</ele>
        <time>2021-10-31T11:37:10.338Z</time>
      </trkpt>
      <trkpt lat="44.00659" lon="2.58439">
        <ele>236</ele>
        <time>2021-10-31T11:37:11.338Z</time>
      </trkpt>
      <trkpt lat="44.00659" lon="2.5844">
        <ele>236</ele>
        <time>2021-10-31T11:37:12.338Z</time>
      </trkpt>
      <trkpt lat="44.0066" lon="2.58441">
        <ele>236</ele>
        <time>2021-10-31T11:37:13.338Z</time>
      </trkpt>
      <trkpt lat="44.00661" lon="2.58442">
        <ele>236</ele>
        <time>2021-10-31T11:37:19.337Z</time>
      </trkpt>
      <trkpt lat="44.00661" lon="2.58443">
        <ele>236</ele>
        <time>2021-10-31T11:37:20.337Z</time>
      </trkpt>
      <trkpt lat="44.00662" lon="2.58444">
        <ele>236</ele>
        <time>2021-10-31T11:37:21.337Z</time>
      </trkpt>
      <trkpt lat="44.00663" lon="2.58445">
        <ele>236</ele>
        <time>2021-10-31T11:37:22.337Z</time>
      </trkpt>
      <trkpt lat="44.00663" lon="2.58447">
        <ele>236</ele>
        <time>2021-10-31T11:37:23.337Z</time>
      </trkpt>
      <trkpt lat="44.00664" lon="2.58448">
        <ele>236</ele>
        <time>2021-10-31T11:37:24.337Z</time>
      </trkpt>
      <trkpt lat="44.00664" lon="2.58449">
        <ele>237</ele>
        <time>2021-10-31T11:37:25.337Z</time>
      </trkpt>
      <trkpt lat="44.00665" lon="2.5845">
        <ele>237</ele>
        <time>2021-10-31T11:37:26.337Z</time>
      </trkpt>
      <trkpt lat="44.00665" lon="2.58451">
        <ele>237</ele>
        <time>2021-10-31T11:37:27.337Z</time>
      </trkpt>
      <trkpt lat="44.00666" lon="2.58452">
        <ele>237</ele>
        <time>2021-10-31T11:37:28.337Z</time>
      </trkpt>
      <trkpt lat="44.00667" lon="2.58453">
        <ele>237</ele>
        <time>2021-10-31T11:37:29.337Z</time>
      </trkpt>
      <trkpt lat="44.00667" lon="2.58454">
        <ele>237</ele>
        <time>2021-10-31T11:37:30.337Z</time>
      </trkpt>
      <trkpt lat="44.00668" lon="2.58455">
        <ele>237</ele>
        <time>2021-10-31T11:37:31.337Z</time>
      </trkpt>
      <trkpt lat="44.00668" lon="2.58457">
        <ele>237</ele>
        <time>2021-10-31T11:37:32.337Z</time>
      </trkpt>
      <trkpt lat="44.00669" lon="2.58458">
        <ele>237</ele>
        <time>2021-10-31T11:37:33.337Z</time>
      </trkpt>
      <trkpt lat="44.00669" lon="2.58459">
        <ele>237</ele>
        <time>2021-10-31T11:37:34.337Z</time>
      </trkpt>
      <trkpt lat="44.0067" lon="2.5846">
        <ele>237</ele>
        <time>2021-10-31T11:37:35.337Z</time>
      </trkpt>
      <trkpt lat="44.00671" lon="2.5846">
        <ele>237</ele>
        <time>2021-10-31T11:37:36.337Z</time>
      </trkpt>
      <trkpt lat="44.00671" lon="2.5846">
        <ele>237</ele>
        <time>2021-10-31T11:37:37.337Z</time>
      </trkpt>
      <trkpt lat="44.00672" lon="2.58461">
        <ele>238</ele>
        <time>2021-10-31T11:37:38.337Z</time>
      </trkpt>
      <trkpt lat="44.00673" lon="2.58461">
        <ele>238</ele>
        <time>2021-10-31T11:37:39.337Z</time>
      </trkpt>
      <trkpt lat="44.00673" lon="2.58461">
        <ele>238</ele>
        <time>2021-10-31T11:37:40.337Z</time>
      </trkpt>
      <trkpt lat="44.00674" lon="2.5846">
        <ele>238</ele>
        <time>2021-10-31T11:37:41.337Z</time>
      </trkpt>
      <trkpt lat="44.00675" lon="2.5846">
        <ele>238</ele>
        <time>2021-10-31T11:37:42.337Z</time>
      </trkpt>
      <trkpt lat="44.00675" lon="2.58459">
        <ele>238</ele>
        <time>2021-10-31T11:37:43.337Z</time>
      </trkpt>
      <trkpt lat="44.00676" lon="2.58459">
        <ele>238</ele>
        <time>2021-10-31T11:37:44.337Z</time>
      </trkpt>
      <trkpt lat="44.00677" lon="2.58458">
        <ele>238</ele>
        <time>2021-10-31T11:37:45.337Z</time>
      </trkpt>
      <trkpt lat="44.00677" lon="2.58457">
        <ele>238</ele>
        <time>2021-10-31T11:37:46.337Z</time>
      </trkpt>
      <trkpt lat="44.00678" lon="2.58457">
        <ele>238</ele>
        <time>2021-10-31T11:37:47.337Z</time>
      </trkpt>
      <trkpt lat="44.00679" lon="2.58456">
        <ele>238</ele>
        <time>2021-10-31T11:37:48.337Z</time>
      </trkpt>
      <trkpt lat="44.00679" lon="2.58455">
        <ele>238</ele>
        <time>2021-10-31T11:37:49.337Z</time>
      </trkpt>
      <trkpt lat="44.0068" lon="2.58454">
        <ele>238</ele>
        <time>2021-10-31T11:37:50.337Z</time>
      </trkpt>
      <trkpt lat="44.0068" lon="2.58453">
        <ele>238</ele>
        <time>2021-10-31T11:37:51.337Z</time>
      </trkpt>
      <trkpt lat="44.00681" lon="2.58452">
        <ele>238</ele>
        <time>2021-10-31T11:37:52.337Z</time>
      </trkpt>
      <trkpt lat="44.00681" lon="2.58451">
        <ele>239</ele>
        <time>2021-10-31T11:37:53.337Z</time>
      </trkpt>
      <trkpt lat="44.00682" lon="2.58451">
        <ele>239</ele>
        <time>2021-10-31T11:37:54.337Z</time>
      </trkpt>
      <trkpt lat="44.00682" lon="2.5845">
        <ele>239</ele>
        <time>2021-10-31T11:37:55.337Z</time>
      </trkpt>
      <trkpt lat="44.00682" lon="2.58449">
        <ele>239</ele>
        <time>2021-10-31T11:37:56.337Z</time>
      </trkpt>
      <trkpt lat="44.00683" lon="2.58448">
        <ele>239</ele>
        <time>2021-10-31T11:37:57.337Z</time>
      </trkpt>
      <trkpt lat="44.00683" lon="2.58448">
        <ele>239</ele>
        <time>2021-10-31T11:38:00.592Z</time>
      </trkpt>
      <trkpt lat="44.00684" lon="2.58447">
        <ele>239</ele>
        <time>2021-10-31T11:38:01.592Z</time>
      </trkpt>
      <trkpt lat="44.00685" lon="2.58446">
        <ele>240</ele>
        <time>2021-10-31T11:38:02.592Z</time>
      </trkpt>
      <trkpt lat="44.00686" lon="2.58446">
        <ele>240</ele>
        <time>2021-10-31T11:38:03.592Z</time>
      </trkpt>
      <trkpt lat="44.00686" lon="2.58445">
        <ele>240</ele>
        <time>2021-10-31T11:38:04.592Z</time>
      </trkpt>
      <trkpt lat="44.00687" lon="2.58445">
        <ele>240</ele>
        <time>2021-10-31T11:38:05.592Z</time>
      </trkpt>
      <trkpt lat="44.00688" lon="2.58444">
        <ele>240</ele>
        <time>2021-10-31T11:38:06.592Z</time>
      </trkpt>
      <trkpt lat="44.00689" lon="2.58444">
        <ele>240</ele>
        <time>2021-10-31T11:38:07.592Z</time>
      </trkpt>
      <trkpt lat="44.00689" lon="2.58443">
        <ele>240</ele>
        <time>2021-10-31T11:38:08.592Z</time>
      </trkpt>
      <trkpt lat="44.0069" lon="2.58442">
        <ele>240</ele>
        <time>2021-10-31T11:38:09.592Z</time>
      </trkpt>
      <trkpt lat="44.00691" lon="2.58442">
        <ele>240</ele>
        <time>2021-10-31T11:38:10.592Z</time>
      </trkpt>
      <trkpt lat="44.00692" lon="2.58441">
        <ele>240</ele>
        <time>2021-10-31T11:38:11.592Z</time>
      </trkpt>
      <trkpt lat="44.00692" lon="2.5844">
        <ele>241</ele>
        <time>2021-10-31T11:38:12.592Z</time>
      </trkpt>
      <trkpt lat="44.00693" lon="2.5844">
        <ele>241</ele>
        <time>2021-10-31T11:38:13.592Z</time>
      </trkpt>
      <trkpt lat="44.00693" lon="2.58439">
        <ele>241</ele>
        <time>2021-10-31T11:38:14.592Z</time>
      </trkpt>
      <trkpt lat="44.00694" lon="2.58439">
        <ele>241</ele>
        <time>2021-10-31T11:40:48.595Z</time>
      </trkpt>
      <trkpt lat="44.00695" lon="2.58439">
        <ele>241</ele>
        <time>2021-10-31T11:40:49.595Z</time>
      </trkpt>
      <trkpt lat="44.00696" lon="2.5844">
        <ele>241</ele>
        <time>2021-10-31T11:40:50.595Z</time>
      </trkpt>
      <trkpt lat="44.00696" lon="2.5844">
        <ele>241</ele>
        <time>2021-10-31T11:40:51.595Z</time>
      </trkpt>
      <trkpt lat="44.00697" lon="2.58441">
        <ele>241</ele>
        <time>2021-10-31T11:40:52.595Z</time>
      </trkpt>
      <trkpt lat="44.00698" lon="2.58442">
        <ele>241</ele>
        <time>2021-10-31T11:40:53.595Z</time>
      </trkpt>
      <trkpt lat="44.00698" lon="2.58443">
        <ele>241</ele>
        <time>2021-10-31T11:40:54.595Z</time>
      </trkpt>
      <trkpt lat="44.00699" lon="2.58444">
        <ele>241</ele>
        <time>2021-10-31T11:40:55.595Z</time>
      </trkpt>
      <trkpt lat="44.007" lon="2.58445">
        <ele>241</ele>
        <time>2021-10-31T11:40:56.595Z</time>
      </trkpt>
      <trkpt lat="44.00701" lon="2.58445">
        <ele>241</ele>
        <time>2021-10-31T11:40:57.595Z</time>
      </trkpt>
      <trkpt lat="44.00701" lon="2.58446">
        <ele>241</ele>
        <time>2021-10-31T11:40:58.595Z</time>
      </trkpt>
      <trkpt lat="44.00702" lon="2.58446">
        <ele>241</ele>
        <time>2021-10-31T11:40:59.595Z</time>
      </trkpt>
      <trkpt lat="44.00703" lon="2.58447">
        <ele>241</ele>
        <time>2021-10-31T11:41:00.595Z</time>
      </trkpt>
      <trkpt lat="44.00704" lon="2.58448">
        <ele>241</ele>
        <time>2021-10-31T11:41:01.595Z</time>
      </trkpt>
      <trkpt lat="44.00705" lon="2.58448">
        <ele>241</ele>
        <time>2021-10-31T11:41:02.595Z</time>
      </trkpt>
      <trkpt lat="44.00705" lon="2.58449">
        <ele>241</ele>
        <time>2021-10-31T11:41:03.595Z</time>
      </trkpt>
      <trkpt lat="44.00706" lon="2.5845">
        <ele>241</ele>
        <time>2021-10-31T11:41:04.595Z</time>
      </trkpt>
      <trkpt lat="44.00707" lon="2.5845">
        <ele>241</ele>
        <time>2021-10-31T11:41:05.595Z</time>
      </trkpt>
      <trkpt lat="44.00707" lon="2.58451">
        <ele>241</ele>
        <time>2021-10-31T11:41:06.595Z</time>
      </trkpt>
      <trkpt lat="44.00708" lon="2.58451">
        <ele>241</ele>
        <time>2021-10-31T11:41:07.595Z</time>
      </trkpt>
      <trkpt lat="44.00708" lon="2.58451">
        <ele>241</ele>
        <time>2021-10-31T11:41:08.595Z</time>
      </trkpt>
      <trkpt lat="44.00708" lon="2.58451">
        <ele>241</ele>
        <time>2021-10-31T11:41:09.595Z</time>
      </trkpt>
      <trkpt lat="44.00708" lon="2.58451">
        <ele>241</ele>
        <time>2021-10-31T11:41:10.595Z</time>
      </trkpt>
      <trkpt lat="44.00708" lon="2.58452">
        <ele>241</ele>
        <time>2021-10-31T11:41:11.595Z</time>
      </trkpt>
      <trkpt lat="44.00709" lon="2.58453">
        <ele>241</ele>
        <time>2021-10-31T11:41:12.595Z</time>
      </trkpt>
      <trkpt lat="44.0071" lon="2.58454">
        <ele>241</ele>
        <time>2021-10-31T11:41:13.595Z</time>
      </trkpt>
      <trkpt lat="44.00711" lon="2.58455">
        <ele>241</ele>
        <time>2021-10-31T11:41:14.595Z</time>
      </trkpt>
      <trkpt lat="44.00711" lon="2.58456">
        <ele>241</ele>
        <time>2021-10-31T11:41:15.595Z</time>
      </trkpt>
      <trkpt lat="44.00712" lon="2.58458">
        <ele>241</ele>
        <time>2021-10-31T11:41:16.595Z</time>
      </trkpt>
      <trkpt lat="44.00713" lon="2.58459">
        <ele>241</ele>
        <time>2021-10-31T11:41:17.595Z</time>
      </trkpt>
      <trkpt lat="44.00713" lon="2.5846">
        <ele>241</ele>
        <time>2021-10-31T11:41:22.597Z</time>
      </trkpt>
      <trkpt lat="44.00714" lon="2.58462">
        <ele>241</ele>
        <time>2021-10-31T11:41:23.597Z</time>
      </trkpt>
      <trkpt lat="44.00715" lon="2.58463">
        <ele>241</ele>
        <time>2021-10-31T11:41:24.597Z</time>
      </trkpt>
      <trkpt lat="44.00715" lon="2.58464">
        <ele>242</ele>
        <time>2021-10-31T11:41:25.597Z</time>
      </trkpt>
      <trkpt lat="44.00715" lon="2.58465">
        <ele>242</ele>
        <time>2021-10-31T11:41:26.597Z</time>
      </trkpt>
      <trkpt lat="44.00716" lon="2.58467">
        <ele>242</ele>
        <time>2021-10-31T11:41:27.597Z</time>
      </trkpt>
      <trkpt lat="44.00717" lon="2.58468">
        <ele>242</ele>
        <time>2021-10-31T11:41:28.597Z</time>
      </trkpt>
      <trkpt lat="44.00717" lon="2.58469">
        <ele>242</ele>
        <time>2021-10-31T11:41:29.597Z</time>
      </trkpt>
      <trkpt lat="44.00718" lon="2.58471">
        <ele>242</ele>
        <time>2021-10-31T11:41:30.597Z</time>
      </trkpt>
      <trkpt lat="44.00718" lon="2.58473">
        <ele>242</ele>
        <time>2021-10-31T11:41:31.597Z</time>
      </trkpt>
      <trkpt lat="44.00718" lon="2.58473">
        <ele>242</ele>
        <time>2021-10-31T11:41:32.597Z</time>
      </trkpt>
      <trkpt lat="44.00719" lon="2.58474">
        <ele>242</ele>
        <time>2021-10-31T11:41:33.597Z</time>
      </trkpt>
      <trkpt lat="44.00719" lon="2.58476">
        <ele>242</ele>
        <time>2021-10-31T11:41:34.597Z</time>
      </trkpt>
      <trkpt lat="44.00719" lon="2.58477">
        <ele>242</ele>
        <time>2021-10-31T11:41:35.597Z</time>
      </trkpt>
      <trkpt lat="44.0072" lon="2.58479">
        <ele>242</ele>
        <time>2021-10-31T11:41:36.597Z</time>
      </trkpt>
      <trkpt lat="44.0072" lon="2.5848">
        <ele>242</ele>
        <time>2021-10-31T11:41:37.597Z</time>
      </trkpt>
      <trkpt lat="44.00721" lon="2.58482">
        <ele>242</ele>
        <time>2021-10-31T11:41:38.597Z</time>
      </trkpt>
      <trkpt lat="44.00721" lon="2.58483">
        <ele>242</ele>
        <time>2021-10-31T11:41:39.597Z</time>
      </trkpt>
      <trkpt lat="44.00722" lon="2.58485">
        <ele>242</ele>
        <time>2021-10-31T11:41:40.597Z</time>
      </trkpt>
      <trkpt lat="44.00722" lon="2.58485">
        <ele>242</ele>
        <time>2021-10-31T11:41:41.597Z</time>
      </trkpt>
      <trkpt lat="44.00723" lon="2.58486">
        <ele>242</ele>
        <time>2021-10-31T11:41:42.597Z</time>
      </trkpt>
      <trkpt lat="44.00723" lon="2.58487">
        <ele>242</ele>
        <time>2021-10-31T11:41:43.597Z</time>
      </trkpt>
      <trkpt lat="44.00723" lon="2.58488">
        <ele>242</ele>
        <time>2021-10-31T11:41:44.597Z</time>
      </trkpt>
      <trkpt lat="44.00724" lon="2.58489">
        <ele>242</ele>
        <time>2021-10-31T11:41:45.597Z</time>
      </trkpt>
      <trkpt lat="44.00724" lon="2.58491">
        <ele>242</ele>
        <time>2021-10-31T11:41:46.597Z</time>
      </trkpt>
      <trkpt lat="44.00725" lon="2.58492">
        <ele>242</ele>
        <time>2021-10-31T11:41:47.597Z</time>
      </trkpt>
      <trkpt lat="44.00726" lon="2.58494">
        <ele>242</ele>
        <time>2021-10-31T11:41:48.597Z</time>
      </trkpt>
      <trkpt lat="44.00726" lon="2.58495">
        <ele>242</ele>
        <time>2021-10-31T11:41:49.597Z</time>
      </trkpt>
      <trkpt lat="44.00727" lon="2.58496">
        <ele>242</ele>
        <time>2021-10-31T11:41:50.597Z</time>
      </trkpt>
      <trkpt lat="44.00727" lon="2.58498">
        <ele>242</ele>
        <time>2021-10-31T11:41:51.597Z</time>
      </trkpt>
      <trkpt lat="44.00728" lon="2.58499">
        <ele>242</ele>
        <time>2021-10-31T11:41:52.597Z</time>
      </trkpt>
      <trkpt lat="44.00728" lon="2.58501">
        <ele>242</ele>
        <time>2021-10-31T11:41:53.597Z</time>
      </trkpt>
      <trkpt lat="44.00729" lon="2.58502">
        <ele>242</ele>
        <time>2021-10-31T11:41:54.597Z</time>
      </trkpt>
      <trkpt lat="44.00729" lon="2.58504">
        <ele>242</ele>
        <time>2021-10-31T11:41:55.597Z</time>
      </trkpt>
      <trkpt lat="44.0073" lon="2.58505">
        <ele>242</ele>
        <time>2021-10-31T11:41:56.597Z</time>
      </trkpt>
      <trkpt lat="44.0073" lon="2.58507">
        <ele>242</ele>
        <time>2021-10-31T11:41:57.597Z</time>
      </trkpt>
      <trkpt lat="44.00731" lon="2.58508">
        <ele>242</ele>
        <time>2021-10-31T11:41:58.597Z</time>
      </trkpt>
      <trkpt lat="44.00732" lon="2.5851">
        <ele>242</ele>
        <time>2021-10-31T11:41:59.597Z</time>
      </trkpt>
      <trkpt lat="44.00732" lon="2.58511">
        <ele>242</ele>
        <time>2021-10-31T11:42:00.597Z</time>
      </trkpt>
      <trkpt lat="44.00733" lon="2.58513">
        <ele>242</ele>
        <time>2021-10-31T11:42:01.597Z</time>
      </trkpt>
      <trkpt lat="44.00733" lon="2.58514">
        <ele>243</ele>
        <time>2021-10-31T11:42:02.597Z</time>
      </trkpt>
      <trkpt lat="44.00734" lon="2.58515">
        <ele>243</ele>
        <time>2021-10-31T11:42:03.597Z</time>
      </trkpt>
      <trkpt lat="44.00734" lon="2.58517">
        <ele>243</ele>
        <time>2021-10-31T11:42:04.597Z</time>
      </trkpt>
      <trkpt lat="44.00735" lon="2.58518">
        <ele>243</ele>
        <time>2021-10-31T11:42:05.597Z</time>
      </trkpt>
      <trkpt lat="44.00736" lon="2.5852">
        <ele>243</ele>
        <time>2021-10-31T11:42:06.597Z</time>
      </trkpt>
      <trkpt lat="44.00736" lon="2.58521">
        <ele>243</ele>
        <time>2021-10-31T11:42:07.597Z</time>
      </trkpt>
      <trkpt lat="44.00737" lon="2.58522">
        <ele>243</ele>
        <time>2021-10-31T11:42:08.597Z</time>
      </trkpt>
      <trkpt lat="44.00737" lon="2.58524">
        <ele>243</ele>
        <time>2021-10-31T11:42:09.597Z</time>
      </trkpt>
      <trkpt lat="44.00738" lon="2.58525">
        <ele>243</ele>
        <time>2021-10-31T11:42:10.597Z</time>
      </trkpt>
      <trkpt lat="44.00739" lon="2.58527">
        <ele>243</ele>
        <time>2021-10-31T11:42:11.597Z</time>
      </trkpt>
      <trkpt lat="44.00739" lon="2.58529">
        <ele>243</ele>
        <time>2021-10-31T11:42:12.597Z</time>
      </trkpt>
      <trkpt lat="44.0074" lon="2.5853">
        <ele>243</ele>
        <time>2021-10-31T11:42:13.597Z</time>
      </trkpt>
      <trkpt lat="44.0074" lon="2.58532">
        <ele>243</ele>
        <time>2021-10-31T11:42:14.597Z</time>
      </trkpt>
      <trkpt lat="44.00741" lon="2.58533">
        <ele>243</ele>
        <time>2021-10-31T11:42:15.597Z</time>
      </trkpt>
      <trkpt lat="44.00741" lon="2.58535">
        <ele>243</ele>
        <time>2021-10-31T11:42:16.597Z</time>
      </trkpt>
      <trkpt lat="44.00741" lon="2.58536">
        <ele>243</ele>
        <time>2021-10-31T11:42:17.597Z</time>
      </trkpt>
      <trkpt lat="44.00742" lon="2.58538">
        <ele>243</ele>
        <time>2021-10-31T11:42:18.597Z</time>
      </trkpt>
      <trkpt lat="44.00743" lon="2.58539">
        <ele>243</ele>
        <time>2021-10-31T11:42:19.597Z</time>
      </trkpt>
      <trkpt lat="44.00743" lon="2.58541">
        <ele>243</ele>
        <time>2021-10-31T11:42:20.597Z</time>
      </trkpt>
      <trkpt lat="44.00744" lon="2.58542">
        <ele>243</ele>
        <time>2021-10-31T11:42:21.597Z</time>
      </trkpt>
      <trkpt lat="44.00744" lon="2.58544">
        <ele>243</ele>
        <time>2021-10-31T11:42:22.597Z</time>
      </trkpt>
      <trkpt lat="44.00745" lon="2.58545">
        <ele>243</ele>
        <time>2021-10-31T11:42:23.597Z</time>
      </trkpt>
      <trkpt lat="44.00745" lon="2.58547">
        <ele>243</ele>
        <time>2021-10-31T11:42:24.597Z</time>
      </trkpt>
      <trkpt lat="44.00746" lon="2.58548">
        <ele>243</ele>
        <time>2021-10-31T11:42:25.597Z</time>
      </trkpt>
      <trkpt lat="44.00747" lon="2.5855">
        <ele>243</ele>
        <time>2021-10-31T11:42:26.597Z</time>
      </trkpt>
      <trkpt lat="44.00747" lon="2.58552">
        <ele>243</ele>
        <time>2021-10-31T11:42:27.597Z</time>
      </trkpt>
      <trkpt lat="44.00747" lon="2.58553">
        <ele>243</ele>
        <time>2021-10-31T11:42:28.597Z</time>
      </trkpt>
      <trkpt lat="44.00748" lon="2.58554">
        <ele>243</ele>
        <time>2021-10-31T11:42:29.597Z</time>
      </trkpt>
      <trkpt lat="44.00748" lon="2.58556">
        <ele>243</ele>
        <time>2021-10-31T11:42:30.597Z</time>
      </trkpt>
      <trkpt lat="44.00749" lon="2.58557">
        <ele>243</ele>
        <time>2021-10-31T11:42:31.597Z</time>
      </trkpt>
      <trkpt lat="44.00749" lon="2.58558">
        <ele>243</ele>
        <time>2021-10-31T11:42:32.597Z</time>
      </trkpt>
      <trkpt lat="44.0075" lon="2.5856">
        <ele>243</ele>
        <time>2021-10-31T11:42:33.597Z</time>
      </trkpt>
      <trkpt lat="44.0075" lon="2.58561">
        <ele>243</ele>
        <time>2021-10-31T11:42:34.597Z</time>
      </trkpt>
      <trkpt lat="44.00751" lon="2.58562">
        <ele>243</ele>
        <time>2021-10-31T11:42:35.597Z</time>
      </trkpt>
      <trkpt lat="44.00751" lon="2.58563">
        <ele>243</ele>
        <time>2021-10-31T11:42:36.597Z</time>
      </trkpt>
      <trkpt lat="44.00752" lon="2.58564">
        <ele>243</ele>
        <time>2021-10-31T11:42:37.597Z</time>
      </trkpt>
      <trkpt lat="44.00752" lon="2.58565">
        <ele>243</ele>
        <time>2021-10-31T11:42:38.597Z</time>
      </trkpt>
      <trkpt lat="44.00753" lon="2.58566">
        <ele>243</ele>
        <time>2021-10-31T11:42:39.597Z</time>
      </trkpt>
      <trkpt lat="44.00754" lon="2.58567">
        <ele>243</ele>
        <time>2021-10-31T11:42:40.597Z</time>
      </trkpt>
      <trkpt lat="44.00755" lon="2.58568">
        <ele>244</ele>
        <time>2021-10-31T11:42:41.597Z</time>
      </trkpt>
      <trkpt lat="44.00756" lon="2.58569">
        <ele>244</ele>
        <time>2021-10-31T11:42:42.597Z</time>
      </trkpt>
      <trkpt lat="44.00756" lon="2.5857">
        <ele>243</ele>
        <time>2021-10-31T11:42:43.597Z</time>
      </trkpt>
      <trkpt lat="44.00757" lon="2.58571">
        <ele>243</ele>
        <time>2021-10-31T11:42:44.597Z</time>
      </trkpt>
      <trkpt lat="44.00758" lon="2.58572">
        <ele>244</ele>
        <time>2021-10-31T11:42:45.597Z</time>
      </trkpt>
      <trkpt lat="44.00759" lon="2.58573">
        <ele>244</ele>
        <time>2021-10-31T11:42:46.597Z</time>
      </trkpt>
      <trkpt lat="44.00759" lon="2.58574">
        <ele>244</ele>
        <time>2021-10-31T11:42:47.597Z</time>
      </trkpt>
      <trkpt lat="44.0076" lon="2.58574">
        <ele>244</ele>
        <time>2021-10-31T11:42:48.597Z</time>
      </trkpt>
      <trkpt lat="44.0076" lon="2.58575">
        <ele>244</ele>
        <time>2021-10-31T11:42:49.597Z</time>
      </trkpt>
      <trkpt lat="44.00761" lon="2.58576">
        <ele>244</ele>
        <time>2021-10-31T11:42:50.597Z</time>
      </trkpt>
      <trkpt lat="44.00761" lon="2.58576">
        <ele>244</ele>
        <time>2021-10-31T11:42:51.597Z</time>
      </trkpt>
      <trkpt lat="44.00761" lon="2.58576">
        <ele>244</ele>
        <time>2021-10-31T11:42:52.597Z</time>
      </trkpt>
      <trkpt lat="44.00761" lon="2.58576">
        <ele>244</ele>
        <time>2021-10-31T11:42:53.597Z</time>
      </trkpt>
      <trkpt lat="44.0076" lon="2.58575">
        <ele>242</ele>
        <time>2021-10-31T11:42:54.597Z</time>
      </trkpt>
      <trkpt lat="44.00759" lon="2.58574">
        <ele>242</ele>
        <time>2021-10-31T11:42:55.597Z</time>
      </trkpt>
      <trkpt lat="44.00759" lon="2.58573">
        <ele>242</ele>
        <time>2021-10-31T11:42:56.597Z</time>
      </trkpt>
      <trkpt lat="44.00758" lon="2.58571">
        <ele>242</ele>
        <time>2021-10-31T11:42:57.597Z</time>
      </trkpt>
      <trkpt lat="44.00758" lon="2.5857">
        <ele>242</ele>
        <time>2021-10-31T11:42:58.597Z</time>
      </trkpt>
      <trkpt lat="44.00757" lon="2.58568">
        <ele>242</ele>
        <time>2021-10-31T11:42:59.597Z</time>
      </trkpt>
      <trkpt lat="44.00757" lon="2.58567">
        <ele>242</ele>
        <time>2021-10-31T11:43:00.597Z</time>
      </trkpt>
      <trkpt lat="44.00756" lon="2.58565">
        <ele>241</ele>
        <time>2021-10-31T11:43:01.597Z</time>
      </trkpt>
      <trkpt lat="44.00756" lon="2.58564">
        <ele>241</ele>
        <time>2021-10-31T11:43:02.597Z</time>
      </trkpt>
      <trkpt lat="44.00755" lon="2.58562">
        <ele>241</ele>
        <time>2021-10-31T11:43:03.597Z</time>
      </trkpt>
      <trkpt lat="44.00755" lon="2.58561">
        <ele>241</ele>
        <time>2021-10-31T11:43:04.597Z</time>
      </trkpt>
      <trkpt lat="44.00755" lon="2.5856">
        <ele>241</ele>
        <time>2021-10-31T11:43:05.597Z</time>
      </trkpt>
      <trkpt lat="44.00754" lon="2.58558">
        <ele>241</ele>
        <time>2021-10-31T11:43:06.597Z</time>
      </trkpt>
      <trkpt lat="44.00754" lon="2.58557">
        <ele>241</ele>
        <time>2021-10-31T11:43:07.597Z</time>
      </trkpt>
      <trkpt lat="44.00754" lon="2.58556">
        <ele>241</ele>
        <time>2021-10-31T11:43:08.597Z</time>
      </trkpt>
      <trkpt lat="44.00753" lon="2.58554">
        <ele>241</ele>
        <time>2021-10-31T11:43:09.597Z</time>
      </trkpt>
      <trkpt lat="44.00753" lon="2.58553">
        <ele>241</ele>
        <time>2021-10-31T11:43:10.597Z</time>
      </trkpt>
      <trkpt lat="44.00753" lon="2.58552">
        <ele>241</ele>
        <time>2021-10-31T11:43:11.597Z</time>
      </trkpt>
      <trkpt lat="44.00753" lon="2.58551">
        <ele>241</ele>
        <time>2021-10-31T11:43:12.597Z</time>
      </trkpt>
      <trkpt lat="44.00752" lon="2.58549">
        <ele>240</ele>
        <time>2021-10-31T11:43:13.597Z</time>
      </trkpt>
      <trkpt lat="44.00752" lon="2.58548">
        <ele>240</ele>
        <time>2021-10-31T11:43:14.597Z</time>
      </trkpt>
      <trkpt lat="44.00752" lon="2.58547">
        <ele>240</ele>
        <time>2021-10-31T11:43:15.597Z</time>
      </trkpt>
      <trkpt lat="44.00751" lon="2.58546">
        <ele>240</ele>
        <time>2021-10-31T11:43:18.852Z</time>
      </trkpt>
      <trkpt lat="44.00751" lon="2.58544">
        <ele>240</ele>
        <time>2021-10-31T11:43:19.852Z</time>
      </trkpt>
      <trkpt lat="44.00751" lon="2.58543">
        <ele>241</ele>
        <time>2021-10-31T11:43:20.852Z</time>
      </trkpt>
      <trkpt lat="44.0075" lon="2.58541">
        <ele>241</ele>
        <time>2021-10-31T11:43:21.852Z</time>
      </trkpt>
      <trkpt lat="44.0075" lon="2.5854">
        <ele>241</ele>
        <time>2021-10-31T11:43:22.852Z</time>
      </trkpt>
      <trkpt lat="44.00751" lon="2.58538">
        <ele>241</ele>
        <time>2021-10-31T11:43:23.852Z</time>
      </trkpt>
      <trkpt lat="44.00751" lon="2.58537">
        <ele>241</ele>
        <time>2021-10-31T11:43:24.852Z</time>
      </trkpt>
      <trkpt lat="44.00751" lon="2.58535">
        <ele>241</ele>
        <time>2021-10-31T11:43:25.852Z</time>
      </trkpt>
      <trkpt lat="44.00752" lon="2.58534">
        <ele>241</ele>
        <time>2021-10-31T11:43:26.852Z</time>
      </trkpt>
      <trkpt lat="44.00752" lon="2.58533">
        <ele>241</ele>
        <time>2021-10-31T11:43:27.852Z</time>
      </trkpt>
      <trkpt lat="44.00752" lon="2.58531">
        <ele>241</ele>
        <time>2021-10-31T11:43:28.852Z</time>
      </trkpt>
      <trkpt lat="44.00752" lon="2.5853">
        <ele>241</ele>
        <time>2021-10-31T11:43:29.852Z</time>
      </trkpt>
      <trkpt lat="44.00753" lon="2.58529">
        <ele>241</ele>
        <time>2021-10-31T11:43:30.852Z</time>
      </trkpt>
      <trkpt lat="44.00753" lon="2.58528">
        <ele>241</ele>
        <time>2021-10-31T11:43:31.852Z</time>
      </trkpt>
      <trkpt lat="44.00753" lon="2.58526">
        <ele>241</ele>
        <time>2021-10-31T11:43:32.852Z</time>
      </trkpt>
      <trkpt lat="44.00753" lon="2.58525">
        <ele>241</ele>
        <time>2021-10-31T11:43:33.852Z</time>
      </trkpt>
      <trkpt lat="44.00753" lon="2.58524">
        <ele>241</ele>
        <time>2021-10-31T11:43:34.852Z</time>
      </trkpt>
      <trkpt lat="44.00753" lon="2.58523">
        <ele>242</ele>
        <time>2021-10-31T11:43:35.852Z</time>
      </trkpt>
      <trkpt lat="44.00754" lon="2.58522">
        <ele>242</ele>
        <time>2021-10-31T11:43:36.852Z</time>
      </trkpt>
      <trkpt lat="44.00754" lon="2.58521">
        <ele>242</ele>
        <time>2021-10-31T11:43:37.852Z</time>
      </trkpt>
      <trkpt lat="44.00754" lon="2.5852">
        <ele>242</ele>
        <time>2021-10-31T11:43:38.852Z</time>
      </trkpt>
      <trkpt lat="44.00754" lon="2.58519">
        <ele>242</ele>
        <time>2021-10-31T11:43:39.852Z</time>
      </trkpt>
      <trkpt lat="44.00754" lon="2.58518">
        <ele>242</ele>
        <time>2021-10-31T11:43:40.852Z</time>
      </trkpt>
      <trkpt lat="44.00754" lon="2.58517">
        <ele>242</ele>
        <time>2021-10-31T11:43:41.852Z</time>
      </trkpt>
      <trkpt lat="44.00754" lon="2.58516">
        <ele>242</ele>
        <time>2021-10-31T11:43:42.852Z</time>
      </trkpt>
      <trkpt lat="44.00754" lon="2.58515">
        <ele>242</ele>
        <time>2021-10-31T11:43:43.852Z</time>
      </trkpt>
      <trkpt lat="44.00754" lon="2.58514">
        <ele>243</ele>
        <time>2021-10-31T11:43:44.852Z</time>
      </trkpt>
      <trkpt lat="44.00755" lon="2.58512">
        <ele>243</ele>
        <time>2021-10-31T11:43:45.852Z</time>
      </trkpt>
      <trkpt lat="44.00755" lon="2.58511">
        <ele>243</ele>
        <time>2021-10-31T11:43:46.852Z</time>
      </trkpt>
      <trkpt lat="44.00755" lon="2.5851">
        <ele>243</ele>
        <time>2021-10-31T11:43:47.852Z</time>
      </trkpt>
      <trkpt lat="44.00755" lon="2.58509">
        <ele>243</ele>
        <time>2021-10-31T11:43:48.852Z</time>
      </trkpt>
      <trkpt lat="44.00755" lon="2.58508">
        <ele>244</ele>
        <time>2021-10-31T11:43:49.852Z</time>
      </trkpt>
      <trkpt lat="44.00755" lon="2.58507">
        <ele>244</ele>
        <time>2021-10-31T11:43:50.852Z</time>
      </trkpt>
      <trkpt lat="44.00755" lon="2.58505">
        <ele>244</ele>
        <time>2021-10-31T11:43:51.852Z</time>
      </trkpt>
      <trkpt lat="44.00755" lon="2.58504">
        <ele>244</ele>
        <time>2021-10-31T11:43:52.852Z</time>
      </trkpt>
      <trkpt lat="44.00755" lon="2.58503">
        <ele>244</ele>
        <time>2021-10-31T11:43:53.852Z</time>
      </trkpt>
      <trkpt lat="44.00755" lon="2.58502">
        <ele>244</ele>
        <time>2021-10-31T11:43:54.852Z</time>
      </trkpt>
      <trkpt lat="44.00755" lon="2.585">
        <ele>245</ele>
        <time>2021-10-31T11:43:55.852Z</time>
      </trkpt>
      <trkpt lat="44.00755" lon="2.58499">
        <ele>245</ele>
        <time>2021-10-31T11:43:56.852Z</time>
      </trkpt>
      <trkpt lat="44.00754" lon="2.58498">
        <ele>245</ele>
        <time>2021-10-31T11:43:57.852Z</time>
      </trkpt>
      <trkpt lat="44.00754" lon="2.58497">
        <ele>245</ele>
        <time>2021-10-31T11:43:58.852Z</time>
      </trkpt>
      <trkpt lat="44.00754" lon="2.58495">
        <ele>246</ele>
        <time>2021-10-31T11:43:59.852Z</time>
      </trkpt>
      <trkpt lat="44.00754" lon="2.58494">
        <ele>246</ele>
        <time>2021-10-31T11:44:00.852Z</time>
      </trkpt>
      <trkpt lat="44.00754" lon="2.58493">
        <ele>246</ele>
        <time>2021-10-31T11:44:01.852Z</time>
      </trkpt>
      <trkpt lat="44.00754" lon="2.58491">
        <ele>246</ele>
        <time>2021-10-31T11:44:02.852Z</time>
      </trkpt>
      <trkpt lat="44.00754" lon="2.5849">
        <ele>246</ele>
        <time>2021-10-31T11:44:03.852Z</time>
      </trkpt>
      <trkpt lat="44.00754" lon="2.58489">
        <ele>247</ele>
        <time>2021-10-31T11:44:10.857Z</time>
      </trkpt>
      <trkpt lat="44.00755" lon="2.58487">
        <ele>247</ele>
        <time>2021-10-31T11:44:11.857Z</time>
      </trkpt>
      <trkpt lat="44.00755" lon="2.58486">
        <ele>247</ele>
        <time>2021-10-31T11:44:12.857Z</time>
      </trkpt>
      <trkpt lat="44.00755" lon="2.58484">
        <ele>247</ele>
        <time>2021-10-31T11:44:16.113Z</time>
      </trkpt>
      <trkpt lat="44.00755" lon="2.58483">
        <ele>247</ele>
        <time>2021-10-31T11:44:17.113Z</time>
      </trkpt>
      <trkpt lat="44.00755" lon="2.58482">
        <ele>247</ele>
        <time>2021-10-31T11:44:18.113Z</time>
      </trkpt>
      <trkpt lat="44.00755" lon="2.5848">
        <ele>247</ele>
        <time>2021-10-31T11:44:19.113Z</time>
      </trkpt>
      <trkpt lat="44.00755" lon="2.58479">
        <ele>247</ele>
        <time>2021-10-31T11:44:20.113Z</time>
      </trkpt>
      <trkpt lat="44.00755" lon="2.58478">
        <ele>248</ele>
        <time>2021-10-31T11:44:21.113Z</time>
      </trkpt>
      <trkpt lat="44.00755" lon="2.58476">
        <ele>248</ele>
        <time>2021-10-31T11:44:22.113Z</time>
      </trkpt>
      <trkpt lat="44.00755" lon="2.58475">
        <ele>248</ele>
        <time>2021-10-31T11:44:23.113Z</time>
      </trkpt>
      <trkpt lat="44.00755" lon="2.58474">
        <ele>248</ele>
        <time>2021-10-31T11:44:24.113Z</time>
      </trkpt>
      <trkpt lat="44.00754" lon="2.58473">
        <ele>248</ele>
        <time>2021-10-31T11:44:27.447Z</time>
      </trkpt>
      <trkpt lat="44.00754" lon="2.58472">
        <ele>248</ele>
        <time>2021-10-31T11:44:28.447Z</time>
      </trkpt>
      <trkpt lat="44.00754" lon="2.58471">
        <ele>248</ele>
        <time>2021-10-31T11:44:29.447Z</time>
      </trkpt>
      <trkpt lat="44.00753" lon="2.5847">
        <ele>248</ele>
        <time>2021-10-31T11:44:30.447Z</time>
      </trkpt>
      <trkpt lat="44.00753" lon="2.58468">
        <ele>249</ele>
        <time>2021-10-31T11:44:31.447Z</time>
      </trkpt>
      <trkpt lat="44.00753" lon="2.58467">
        <ele>249</ele>
        <time>2021-10-31T11:44:32.447Z</time>
      </trkpt>
      <trkpt lat="44.00753" lon="2.58466">
        <ele>249</ele>
        <time>2021-10-31T11:44:33.447Z</time>
      </trkpt>
      <trkpt lat="44.00752" lon="2.58465">
        <ele>249</ele>
        <time>2021-10-31T11:44:34.447Z</time>
      </trkpt>
      <trkpt lat="44.00752" lon="2.58463">
        <ele>249</ele>
        <time>2021-10-31T11:44:35.447Z</time>
      </trkpt>
      <trkpt lat="44.00752" lon="2.58462">
        <ele>249</ele>
        <time>2021-10-31T11:44:36.447Z</time>
      </trkpt>
      <trkpt lat="44.00753" lon="2.58461">
        <ele>249</ele>
        <time>2021-10-31T11:44:37.447Z</time>
      </trkpt>
      <trkpt lat="44.00753" lon="2.5846">
        <ele>249</ele>
        <time>2021-10-31T11:44:38.447Z</time>
      </trkpt>
      <trkpt lat="44.00754" lon="2.5846">
        <ele>250</ele>
        <time>2021-10-31T11:44:39.447Z</time>
      </trkpt>
      <trkpt lat="44.00754" lon="2.58459">
        <ele>250</ele>
        <time>2021-10-31T11:44:40.447Z</time>
      </trkpt>
      <trkpt lat="44.00755" lon="2.58458">
        <ele>250</ele>
        <time>2021-10-31T11:44:41.447Z</time>
      </trkpt>
      <trkpt lat="44.00755" lon="2.58458">
        <ele>250</ele>
        <time>2021-10-31T11:44:42.447Z</time>
      </trkpt>
      <trkpt lat="44.00755" lon="2.58457">
        <ele>250</ele>
        <time>2021-10-31T11:44:43.447Z</time>
      </trkpt>
      <trkpt lat="44.00755" lon="2.58456">
        <ele>250</ele>
        <time>2021-10-31T11:44:44.447Z</time>
      </trkpt>
      <trkpt lat="44.00755" lon="2.58455">
        <ele>250</ele>
        <time>2021-10-31T11:44:45.447Z</time>
      </trkpt>
      <trkpt lat="44.00755" lon="2.58454">
        <ele>250</ele>
        <time>2021-10-31T11:44:46.447Z</time>
      </trkpt>
      <trkpt lat="44.00755" lon="2.58453">
        <ele>251</ele>
        <time>2021-10-31T11:44:47.447Z</time>
      </trkpt>
      <trkpt lat="44.00755" lon="2.58452">
        <ele>251</ele>
        <time>2021-10-31T11:44:48.447Z</time>
      </trkpt>
      <trkpt lat="44.00755" lon="2.58451">
        <ele>251</ele>
        <time>2021-10-31T11:44:49.447Z</time>
      </trkpt>
      <trkpt lat="44.00755" lon="2.5845">
        <ele>251</ele>
        <time>2021-10-31T11:44:50.447Z</time>
      </trkpt>
      <trkpt lat="44.00754" lon="2.58449">
        <ele>251</ele>
        <time>2021-10-31T11:44:51.447Z</time>
      </trkpt>
      <trkpt lat="44.00754" lon="2.58448">
        <ele>251</ele>
        <time>2021-10-31T11:44:52.447Z</time>
      </trkpt>
      <trkpt lat="44.00754" lon="2.58447">
        <ele>251</ele>
        <time>2021-10-31T11:44:53.447Z</time>
      </trkpt>
      <trkpt lat="44.00754" lon="2.58446">
        <ele>251</ele>
        <time>2021-10-31T11:44:54.447Z</time>
      </trkpt>
      <trkpt lat="44.00754" lon="2.58445">
        <ele>251</ele>
        <time>2021-10-31T11:44:55.447Z</time>
      </trkpt>
      <trkpt lat="44.00755" lon="2.58445">
        <ele>251</ele>
        <time>2021-10-31T11:44:56.447Z</time>
      </trkpt>
      <trkpt lat="44.00755" lon="2.58444">
        <ele>251</ele>
        <time>2021-10-31T11:44:57.447Z</time>
      </trkpt>
      <trkpt lat="44.00755" lon="2.58443">
        <ele>251</ele>
        <time>2021-10-31T11:44:58.447Z</time>
      </trkpt>
      <trkpt lat="44.00755" lon="2.58442">
        <ele>251</ele>
        <time>2021-10-31T11:44:59.447Z</time>
      </trkpt>
      <trkpt lat="44.00756" lon="2.58441">
        <ele>252</ele>
        <time>2021-10-31T11:45:00.447Z</time>
      </trkpt>
      <trkpt lat="44.00756" lon="2.58441">
        <ele>252</ele>
        <time>2021-10-31T11:45:01.447Z</time>
      </trkpt>
      <trkpt lat="44.00756" lon="2.5844">
        <ele>252</ele>
        <time>2021-10-31T11:45:02.447Z</time>
      </trkpt>
      <trkpt lat="44.00756" lon="2.58439">
        <ele>252</ele>
        <time>2021-10-31T11:45:03.447Z</time>
      </trkpt>
      <trkpt lat="44.00756" lon="2.58438">
        <ele>252</ele>
        <time>2021-10-31T11:45:04.447Z</time>
      </trkpt>
      <trkpt lat="44.00757" lon="2.58437">
        <ele>252</ele>
        <time>2021-10-31T11:45:05.447Z</time>
      </trkpt>
      <trkpt lat="44.00757" lon="2.58437">
        <ele>252</ele>
        <time>2021-10-31T11:45:06.447Z</time>
      </trkpt>
      <trkpt lat="44.00757" lon="2.58436">
        <ele>252</ele>
        <time>2021-10-31T11:45:07.447Z</time>
      </trkpt>
      <trkpt lat="44.00757" lon="2.58435">
        <ele>252</ele>
        <time>2021-10-31T11:45:08.447Z</time>
      </trkpt>
      <trkpt lat="44.00757" lon="2.58434">
        <ele>253</ele>
        <time>2021-10-31T11:45:09.447Z</time>
      </trkpt>
      <trkpt lat="44.00758" lon="2.58433">
        <ele>253</ele>
        <time>2021-10-31T11:45:10.447Z</time>
      </trkpt>
      <trkpt lat="44.00758" lon="2.58433">
        <ele>253</ele>
        <time>2021-10-31T11:45:11.447Z</time>
      </trkpt>
      <trkpt lat="44.00758" lon="2.58432">
        <ele>253</ele>
        <time>2021-10-31T11:45:12.447Z</time>
      </trkpt>
      <trkpt lat="44.00758" lon="2.58431">
        <ele>253</ele>
        <time>2021-10-31T11:45:13.447Z</time>
      </trkpt>
      <trkpt lat="44.00758" lon="2.5843">
        <ele>253</ele>
        <time>2021-10-31T11:45:14.447Z</time>
      </trkpt>
      <trkpt lat="44.00758" lon="2.58429">
        <ele>254</ele>
        <time>2021-10-31T11:45:15.447Z</time>
      </trkpt>
      <trkpt lat="44.00758" lon="2.58429">
        <ele>254</ele>
        <time>2021-10-31T11:45:16.447Z</time>
      </trkpt>
      <trkpt lat="44.00759" lon="2.58428">
        <ele>254</ele>
        <time>2021-10-31T11:45:17.447Z</time>
      </trkpt>
      <trkpt lat="44.00759" lon="2.58428">
        <ele>254</ele>
        <time>2021-10-31T11:45:18.447Z</time>
      </trkpt>
      <trkpt lat="44.00759" lon="2.58427">
        <ele>254</ele>
        <time>2021-10-31T11:45:19.447Z</time>
      </trkpt>
      <trkpt lat="44.00759" lon="2.58427">
        <ele>254</ele>
        <time>2021-10-31T11:45:20.447Z</time>
      </trkpt>
      <trkpt lat="44.00759" lon="2.58426">
        <ele>255</ele>
        <time>2021-10-31T11:45:21.447Z</time>
      </trkpt>
      <trkpt lat="44.0076" lon="2.58425">
        <ele>255</ele>
        <time>2021-10-31T11:45:22.447Z</time>
      </trkpt>
      <trkpt lat="44.00761" lon="2.58424">
        <ele>255</ele>
        <time>2021-10-31T11:45:27.455Z</time>
      </trkpt>
      <trkpt lat="44.00761" lon="2.58423">
        <ele>255</ele>
        <time>2021-10-31T11:45:28.455Z</time>
      </trkpt>
      <trkpt lat="44.00761" lon="2.58423">
        <ele>255</ele>
        <time>2021-10-31T11:45:29.455Z</time>
      </trkpt>
      <trkpt lat="44.00762" lon="2.58422">
        <ele>255</ele>
        <time>2021-10-31T11:45:30.455Z</time>
      </trkpt>
      <trkpt lat="44.00762" lon="2.58421">
        <ele>255</ele>
        <time>2021-10-31T11:45:31.455Z</time>
      </trkpt>
      <trkpt lat="44.00762" lon="2.58421">
        <ele>255</ele>
        <time>2021-10-31T11:45:32.455Z</time>
      </trkpt>
      <trkpt lat="44.00763" lon="2.5842">
        <ele>256</ele>
        <time>2021-10-31T11:45:33.455Z</time>
      </trkpt>
      <trkpt lat="44.00763" lon="2.58419">
        <ele>256</ele>
        <time>2021-10-31T11:45:34.455Z</time>
      </trkpt>
      <trkpt lat="44.00763" lon="2.58419">
        <ele>256</ele>
        <time>2021-10-31T11:45:35.455Z</time>
      </trkpt>
      <trkpt lat="44.00764" lon="2.58418">
        <ele>256</ele>
        <time>2021-10-31T11:45:36.455Z</time>
      </trkpt>
      <trkpt lat="44.00764" lon="2.58418">
        <ele>256</ele>
        <time>2021-10-31T11:45:39.711Z</time>
      </trkpt>
      <trkpt lat="44.00765" lon="2.58417">
        <ele>256</ele>
        <time>2021-10-31T11:45:40.711Z</time>
      </trkpt>
      <trkpt lat="44.00766" lon="2.58416">
        <ele>256</ele>
        <time>2021-10-31T11:45:41.711Z</time>
      </trkpt>
      <trkpt lat="44.00766" lon="2.58415">
        <ele>256</ele>
        <time>2021-10-31T11:45:42.711Z</time>
      </trkpt>
      <trkpt lat="44.00766" lon="2.58413">
        <ele>256</ele>
        <time>2021-10-31T11:45:43.711Z</time>
      </trkpt>
      <trkpt lat="44.00767" lon="2.58412">
        <ele>256</ele>
        <time>2021-10-31T11:45:44.711Z</time>
      </trkpt>
      <trkpt lat="44.00767" lon="2.58411">
        <ele>256</ele>
        <time>2021-10-31T11:45:45.711Z</time>
      </trkpt>
      <trkpt lat="44.00767" lon="2.58409">
        <ele>256</ele>
        <time>2021-10-31T11:45:46.711Z</time>
      </trkpt>
      <trkpt lat="44.00767" lon="2.58408">
        <ele>256</ele>
        <time>2021-10-31T11:45:47.711Z</time>
      </trkpt>
      <trkpt lat="44.00768" lon="2.58407">
        <ele>257</ele>
        <time>2021-10-31T11:45:48.711Z</time>
      </trkpt>
      <trkpt lat="44.00768" lon="2.58407">
        <ele>257</ele>
        <time>2021-10-31T11:45:49.711Z</time>
      </trkpt>
      <trkpt lat="44.00769" lon="2.58406">
        <ele>257</ele>
        <time>2021-10-31T11:45:50.711Z</time>
      </trkpt>
      <trkpt lat="44.00769" lon="2.58405">
        <ele>257</ele>
        <time>2021-10-31T11:45:51.711Z</time>
      </trkpt>
      <trkpt lat="44.0077" lon="2.58404">
        <ele>258</ele>
        <time>2021-10-31T11:45:52.711Z</time>
      </trkpt>
      <trkpt lat="44.0077" lon="2.58403">
        <ele>258</ele>
        <time>2021-10-31T11:45:53.711Z</time>
      </trkpt>
      <trkpt lat="44.00771" lon="2.58403">
        <ele>258</ele>
        <time>2021-10-31T11:45:54.711Z</time>
      </trkpt>
      <trkpt lat="44.00771" lon="2.58402">
        <ele>258</ele>
        <time>2021-10-31T11:45:55.711Z</time>
      </trkpt>
      <trkpt lat="44.00771" lon="2.58401">
        <ele>258</ele>
        <time>2021-10-31T11:45:56.711Z</time>
      </trkpt>
      <trkpt lat="44.00772" lon="2.584">
        <ele>258</ele>
        <time>2021-10-31T11:45:57.711Z</time>
      </trkpt>
      <trkpt lat="44.00772" lon="2.58399">
        <ele>258</ele>
        <time>2021-10-31T11:45:58.711Z</time>
      </trkpt>
      <trkpt lat="44.00772" lon="2.58399">
        <ele>259</ele>
        <time>2021-10-31T11:45:59.711Z</time>
      </trkpt>
      <trkpt lat="44.00773" lon="2.58398">
        <ele>259</ele>
        <time>2021-10-31T11:46:00.711Z</time>
      </trkpt>
      <trkpt lat="44.00773" lon="2.58397">
        <ele>259</ele>
        <time>2021-10-31T11:46:01.711Z</time>
      </trkpt>
      <trkpt lat="44.00774" lon="2.58396">
        <ele>259</ele>
        <time>2021-10-31T11:46:02.711Z</time>
      </trkpt>
      <trkpt lat="44.00774" lon="2.58395">
        <ele>259</ele>
        <time>2021-10-31T11:46:03.711Z</time>
      </trkpt>
      <trkpt lat="44.00775" lon="2.58395">
        <ele>259</ele>
        <time>2021-10-31T11:46:04.711Z</time>
      </trkpt>
      <trkpt lat="44.00776" lon="2.58394">
        <ele>260</ele>
        <time>2021-10-31T11:46:05.711Z</time>
      </trkpt>
      <trkpt lat="44.00776" lon="2.58394">
        <ele>260</ele>
        <time>2021-10-31T11:46:06.711Z</time>
      </trkpt>
      <trkpt lat="44.00777" lon="2.58393">
        <ele>260</ele>
        <time>2021-10-31T11:46:07.711Z</time>
      </trkpt>
      <trkpt lat="44.00777" lon="2.58392">
        <ele>260</ele>
        <time>2021-10-31T11:46:08.711Z</time>
      </trkpt>
      <trkpt lat="44.00778" lon="2.58391">
        <ele>260</ele>
        <time>2021-10-31T11:46:09.711Z</time>
      </trkpt>
      <trkpt lat="44.00778" lon="2.5839">
        <ele>260</ele>
        <time>2021-10-31T11:46:10.711Z</time>
      </trkpt>
      <trkpt lat="44.00779" lon="2.5839">
        <ele>260</ele>
        <time>2021-10-31T11:46:15.719Z</time>
      </trkpt>
      <trkpt lat="44.00779" lon="2.58389">
        <ele>260</ele>
        <time>2021-10-31T11:46:16.719Z</time>
      </trkpt>
      <trkpt lat="44.00779" lon="2.58388">
        <ele>260</ele>
        <time>2021-10-31T11:46:17.719Z</time>
      </trkpt>
      <trkpt lat="44.0078" lon="2.58388">
        <ele>260</ele>
        <time>2021-10-31T11:46:18.719Z</time>
      </trkpt>
      <trkpt lat="44.0078" lon="2.58387">
        <ele>260</ele>
        <time>2021-10-31T11:46:19.719Z</time>
      </trkpt>
      <trkpt lat="44.00781" lon="2.58386">
        <ele>260</ele>
        <time>2021-10-31T11:46:20.719Z</time>
      </trkpt>
      <trkpt lat="44.00781" lon="2.58386">
        <ele>261</ele>
        <time>2021-10-31T11:46:21.719Z</time>
      </trkpt>
      <trkpt lat="44.00782" lon="2.58385">
        <ele>261</ele>
        <time>2021-10-31T11:46:22.719Z</time>
      </trkpt>
      <trkpt lat="44.00783" lon="2.58385">
        <ele>261</ele>
        <time>2021-10-31T11:46:23.719Z</time>
      </trkpt>
      <trkpt lat="44.00783" lon="2.58384">
        <ele>261</ele>
        <time>2021-10-31T11:46:24.719Z</time>
      </trkpt>
      <trkpt lat="44.00783" lon="2.58384">
        <ele>261</ele>
        <time>2021-10-31T11:46:25.719Z</time>
      </trkpt>
      <trkpt lat="44.00784" lon="2.58383">
        <ele>261</ele>
        <time>2021-10-31T11:46:26.719Z</time>
      </trkpt>
      <trkpt lat="44.00784" lon="2.58382">
        <ele>261</ele>
        <time>2021-10-31T11:46:27.719Z</time>
      </trkpt>
      <trkpt lat="44.00784" lon="2.58381">
        <ele>262</ele>
        <time>2021-10-31T11:46:28.719Z</time>
      </trkpt>
      <trkpt lat="44.00785" lon="2.5838">
        <ele>262</ele>
        <time>2021-10-31T11:46:29.719Z</time>
      </trkpt>
      <trkpt lat="44.00785" lon="2.5838">
        <ele>262</ele>
        <time>2021-10-31T11:46:30.719Z</time>
      </trkpt>
      <trkpt lat="44.00786" lon="2.58379">
        <ele>262</ele>
        <time>2021-10-31T11:46:31.719Z</time>
      </trkpt>
      <trkpt lat="44.00786" lon="2.58378">
        <ele>263</ele>
        <time>2021-10-31T11:46:32.719Z</time>
      </trkpt>
      <trkpt lat="44.00786" lon="2.58377">
        <ele>263</ele>
        <time>2021-10-31T11:46:33.719Z</time>
      </trkpt>
      <trkpt lat="44.00787" lon="2.58377">
        <ele>263</ele>
        <time>2021-10-31T11:46:34.719Z</time>
      </trkpt>
      <trkpt lat="44.00787" lon="2.58377">
        <ele>263</ele>
        <time>2021-10-31T11:46:35.719Z</time>
      </trkpt>
      <trkpt lat="44.00788" lon="2.58376">
        <ele>263</ele>
        <time>2021-10-31T11:46:36.719Z</time>
      </trkpt>
      <trkpt lat="44.00788" lon="2.58376">
        <ele>263</ele>
        <time>2021-10-31T11:46:37.719Z</time>
      </trkpt>
      <trkpt lat="44.00788" lon="2.58375">
        <ele>264</ele>
        <time>2021-10-31T11:46:38.719Z</time>
      </trkpt>
      <trkpt lat="44.00789" lon="2.58374">
        <ele>264</ele>
        <time>2021-10-31T11:46:39.719Z</time>
      </trkpt>
      <trkpt lat="44.0079" lon="2.58373">
        <ele>264</ele>
        <time>2021-10-31T11:46:40.719Z</time>
      </trkpt>
      <trkpt lat="44.0079" lon="2.58373">
        <ele>265</ele>
        <time>2021-10-31T11:46:41.719Z</time>
      </trkpt>
      <trkpt lat="44.0079" lon="2.58372">
        <ele>265</ele>
        <time>2021-10-31T11:46:42.719Z</time>
      </trkpt>
      <trkpt lat="44.0079" lon="2.58372">
        <ele>265</ele>
        <time>2021-10-31T11:46:43.719Z</time>
      </trkpt>
      <trkpt lat="44.00791" lon="2.58371">
        <ele>265</ele>
        <time>2021-10-31T11:46:44.719Z</time>
      </trkpt>
      <trkpt lat="44.00791" lon="2.58371">
        <ele>265</ele>
        <time>2021-10-31T11:46:45.719Z</time>
      </trkpt>
      <trkpt lat="44.00792" lon="2.5837">
        <ele>266</ele>
        <time>2021-10-31T11:46:46.719Z</time>
      </trkpt>
      <trkpt lat="44.00792" lon="2.5837">
        <ele>266</ele>
        <time>2021-10-31T11:46:47.719Z</time>
      </trkpt>
      <trkpt lat="44.00792" lon="2.58369">
        <ele>266</ele>
        <time>2021-10-31T11:46:48.719Z</time>
      </trkpt>
      <trkpt lat="44.00793" lon="2.58369">
        <ele>266</ele>
        <time>2021-10-31T11:46:49.719Z</time>
      </trkpt>
      <trkpt lat="44.00793" lon="2.58368">
        <ele>266</ele>
        <time>2021-10-31T11:46:50.719Z</time>
      </trkpt>
      <trkpt lat="44.00793" lon="2.58367">
        <ele>267</ele>
        <time>2021-10-31T11:46:51.719Z</time>
      </trkpt>
      <trkpt lat="44.00793" lon="2.58367">
        <ele>267</ele>
        <time>2021-10-31T11:46:52.719Z</time>
      </trkpt>
      <trkpt lat="44.00794" lon="2.58366">
        <ele>267</ele>
        <time>2021-10-31T11:46:53.719Z</time>
      </trkpt>
      <trkpt lat="44.00795" lon="2.58363">
        <ele>267</ele>
        <time>2021-10-31T11:46:54.719Z</time>
      </trkpt>
      <trkpt lat="44.00795" lon="2.58363">
        <ele>268</ele>
        <time>2021-10-31T11:46:55.719Z</time>
      </trkpt>
      <trkpt lat="44.00797" lon="2.58361">
        <ele>268</ele>
        <time>2021-10-31T11:46:56.719Z</time>
      </trkpt>
      <trkpt lat="44.00797" lon="2.5836">
        <ele>268</ele>
        <time>2021-10-31T11:46:57.719Z</time>
      </trkpt>
      <trkpt lat="44.00798" lon="2.5836">
        <ele>268</ele>
        <time>2021-10-31T11:46:58.719Z</time>
      </trkpt>
      <trkpt lat="44.00798" lon="2.58359">
        <ele>268</ele>
        <time>2021-10-31T11:46:59.719Z</time>
      </trkpt>
      <trkpt lat="44.00798" lon="2.58359">
        <ele>268</ele>
        <time>2021-10-31T11:47:00.719Z</time>
      </trkpt>
      <trkpt lat="44.00799" lon="2.58358">
        <ele>269</ele>
        <time>2021-10-31T11:47:01.719Z</time>
      </trkpt>
      <trkpt lat="44.00799" lon="2.58358">
        <ele>269</ele>
        <time>2021-10-31T11:47:02.719Z</time>
      </trkpt>
      <trkpt lat="44.008" lon="2.58357">
        <ele>269</ele>
        <time>2021-10-31T11:47:03.719Z</time>
      </trkpt>
      <trkpt lat="44.008" lon="2.58357">
        <ele>269</ele>
        <time>2021-10-31T11:47:04.719Z</time>
      </trkpt>
      <trkpt lat="44.00801" lon="2.58356">
        <ele>269</ele>
        <time>2021-10-31T11:47:05.719Z</time>
      </trkpt>
      <trkpt lat="44.00801" lon="2.58356">
        <ele>269</ele>
        <time>2021-10-31T11:47:06.719Z</time>
      </trkpt>
      <trkpt lat="44.00801" lon="2.58355">
        <ele>269</ele>
        <time>2021-10-31T11:47:07.719Z</time>
      </trkpt>
      <trkpt lat="44.00803" lon="2.58351">
        <ele>270</ele>
        <time>2021-10-31T11:47:08.719Z</time>
      </trkpt>
      <trkpt lat="44.00803" lon="2.58351">
        <ele>270</ele>
        <time>2021-10-31T11:47:09.719Z</time>
      </trkpt>
      <trkpt lat="44.00803" lon="2.5835">
        <ele>270</ele>
        <time>2021-10-31T11:47:10.719Z</time>
      </trkpt>
      <trkpt lat="44.00804" lon="2.5835">
        <ele>270</ele>
        <time>2021-10-31T11:47:11.719Z</time>
      </trkpt>
      <trkpt lat="44.00804" lon="2.58349">
        <ele>270</ele>
        <time>2021-10-31T11:47:12.719Z</time>
      </trkpt>
      <trkpt lat="44.00804" lon="2.58349">
        <ele>270</ele>
        <time>2021-10-31T11:47:13.719Z</time>
      </trkpt>
      <trkpt lat="44.00805" lon="2.58349">
        <ele>271</ele>
        <time>2021-10-31T11:47:14.719Z</time>
      </trkpt>
      <trkpt lat="44.00805" lon="2.58348">
        <ele>271</ele>
        <time>2021-10-31T11:47:15.719Z</time>
      </trkpt>
      <trkpt lat="44.00806" lon="2.58348">
        <ele>271</ele>
        <time>2021-10-31T11:47:16.719Z</time>
      </trkpt>
      <trkpt lat="44.00806" lon="2.58347">
        <ele>271</ele>
        <time>2021-10-31T11:47:17.719Z</time>
      </trkpt>
      <trkpt lat="44.00807" lon="2.58347">
        <ele>271</ele>
        <time>2021-10-31T11:47:18.719Z</time>
      </trkpt>
      <trkpt lat="44.00807" lon="2.58346">
        <ele>272</ele>
        <time>2021-10-31T11:47:19.719Z</time>
      </trkpt>
      <trkpt lat="44.00808" lon="2.58346">
        <ele>272</ele>
        <time>2021-10-31T11:47:20.719Z</time>
      </trkpt>
      <trkpt lat="44.00809" lon="2.58345">
        <ele>272</ele>
        <time>2021-10-31T11:47:21.719Z</time>
      </trkpt>
      <trkpt lat="44.00809" lon="2.58345">
        <ele>272</ele>
        <time>2021-10-31T11:47:22.719Z</time>
      </trkpt>
      <trkpt lat="44.0081" lon="2.58345">
        <ele>273</ele>
        <time>2021-10-31T11:47:23.719Z</time>
      </trkpt>
      <trkpt lat="44.0081" lon="2.58344">
        <ele>273</ele>
        <time>2021-10-31T11:47:24.719Z</time>
      </trkpt>
      <trkpt lat="44.00811" lon="2.58343">
        <ele>273</ele>
        <time>2021-10-31T11:47:25.719Z</time>
      </trkpt>
      <trkpt lat="44.00812" lon="2.58343">
        <ele>273</ele>
        <time>2021-10-31T11:47:26.719Z</time>
      </trkpt>
      <trkpt lat="44.00812" lon="2.58342">
        <ele>273</ele>
        <time>2021-10-31T11:47:27.719Z</time>
      </trkpt>
      <trkpt lat="44.00813" lon="2.58342">
        <ele>273</ele>
        <time>2021-10-31T11:47:28.719Z</time>
      </trkpt>
      <trkpt lat="44.00813" lon="2.58341">
        <ele>273</ele>
        <time>2021-10-31T11:47:29.719Z</time>
      </trkpt>
      <trkpt lat="44.00814" lon="2.5834">
        <ele>274</ele>
        <time>2021-10-31T11:47:30.719Z</time>
      </trkpt>
      <trkpt lat="44.00814" lon="2.58339">
        <ele>274</ele>
        <time>2021-10-31T11:47:31.719Z</time>
      </trkpt>
      <trkpt lat="44.00814" lon="2.58338">
        <ele>274</ele>
        <time>2021-10-31T11:47:32.719Z</time>
      </trkpt>
      <trkpt lat="44.00814" lon="2.58337">
        <ele>274</ele>
        <time>2021-10-31T11:47:33.719Z</time>
      </trkpt>
      <trkpt lat="44.00814" lon="2.58336">
        <ele>274</ele>
        <time>2021-10-31T11:47:34.719Z</time>
      </trkpt>
      <trkpt lat="44.00814" lon="2.58335">
        <ele>275</ele>
        <time>2021-10-31T11:47:35.719Z</time>
      </trkpt>
      <trkpt lat="44.00814" lon="2.58335">
        <ele>275</ele>
        <time>2021-10-31T11:47:36.719Z</time>
      </trkpt>
      <trkpt lat="44.00814" lon="2.58334">
        <ele>275</ele>
        <time>2021-10-31T11:47:37.719Z</time>
      </trkpt>
      <trkpt lat="44.00814" lon="2.58334">
        <ele>275</ele>
        <time>2021-10-31T11:47:38.719Z</time>
      </trkpt>
      <trkpt lat="44.00813" lon="2.58333">
        <ele>275</ele>
        <time>2021-10-31T11:47:39.719Z</time>
      </trkpt>
      <trkpt lat="44.00813" lon="2.58333">
        <ele>276</ele>
        <time>2021-10-31T11:47:40.719Z</time>
      </trkpt>
      <trkpt lat="44.00813" lon="2.58333">
        <ele>276</ele>
        <time>2021-10-31T11:47:41.719Z</time>
      </trkpt>
      <trkpt lat="44.00812" lon="2.58332">
        <ele>276</ele>
        <time>2021-10-31T11:47:42.719Z</time>
      </trkpt>
      <trkpt lat="44.00812" lon="2.58332">
        <ele>276</ele>
        <time>2021-10-31T11:47:43.719Z</time>
      </trkpt>
      <trkpt lat="44.00812" lon="2.58332">
        <ele>277</ele>
        <time>2021-10-31T11:47:44.719Z</time>
      </trkpt>
      <trkpt lat="44.0081" lon="2.5833">
        <ele>279</ele>
        <time>2021-10-31T11:47:45.719Z</time>
      </trkpt>
      <trkpt lat="44.0081" lon="2.5833">
        <ele>279</ele>
        <time>2021-10-31T11:47:46.719Z</time>
      </trkpt>
      <trkpt lat="44.00809" lon="2.5833">
        <ele>279</ele>
        <time>2021-10-31T11:47:47.719Z</time>
      </trkpt>
      <trkpt lat="44.00808" lon="2.58329">
        <ele>280</ele>
        <time>2021-10-31T11:47:48.719Z</time>
      </trkpt>
      <trkpt lat="44.00808" lon="2.58329">
        <ele>280</ele>
        <time>2021-10-31T11:47:49.719Z</time>
      </trkpt>
      <trkpt lat="44.00807" lon="2.58329">
        <ele>280</ele>
        <time>2021-10-31T11:47:50.719Z</time>
      </trkpt>
      <trkpt lat="44.00807" lon="2.58329">
        <ele>280</ele>
        <time>2021-10-31T11:47:51.719Z</time>
      </trkpt>
      <trkpt lat="44.00806" lon="2.58329">
        <ele>281</ele>
        <time>2021-10-31T11:47:52.719Z</time>
      </trkpt>
      <trkpt lat="44.00805" lon="2.58328">
        <ele>281</ele>
        <time>2021-10-31T11:47:53.719Z</time>
      </trkpt>
      <trkpt lat="44.00805" lon="2.58328">
        <ele>281</ele>
        <time>2021-10-31T11:47:54.719Z</time>
      </trkpt>
      <trkpt lat="44.00804" lon="2.58328">
        <ele>281</ele>
        <time>2021-10-31T11:47:55.719Z</time>
      </trkpt>
      <trkpt lat="44.00803" lon="2.58328">
        <ele>281</ele>
        <time>2021-10-31T11:47:56.719Z</time>
      </trkpt>
      <trkpt lat="44.00802" lon="2.58328">
        <ele>281</ele>
        <time>2021-10-31T11:47:57.719Z</time>
      </trkpt>
      <trkpt lat="44.00801" lon="2.58327">
        <ele>281</ele>
        <time>2021-10-31T11:47:58.719Z</time>
      </trkpt>
      <trkpt lat="44.008" lon="2.58327">
        <ele>282</ele>
        <time>2021-10-31T11:47:59.719Z</time>
      </trkpt>
      <trkpt lat="44.00799" lon="2.58327">
        <ele>282</ele>
        <time>2021-10-31T11:48:00.719Z</time>
      </trkpt>
      <trkpt lat="44.00798" lon="2.58327">
        <ele>282</ele>
        <time>2021-10-31T11:48:01.719Z</time>
      </trkpt>
      <trkpt lat="44.00798" lon="2.58327">
        <ele>282</ele>
        <time>2021-10-31T11:48:02.719Z</time>
      </trkpt>
      <trkpt lat="44.00797" lon="2.58327">
        <ele>282</ele>
        <time>2021-10-31T11:48:03.719Z</time>
      </trkpt>
      <trkpt lat="44.00796" lon="2.58326">
        <ele>282</ele>
        <time>2021-10-31T11:48:04.719Z</time>
      </trkpt>
      <trkpt lat="44.00795" lon="2.58327">
        <ele>282</ele>
        <time>2021-10-31T11:48:05.719Z</time>
      </trkpt>
      <trkpt lat="44.00794" lon="2.58327">
        <ele>283</ele>
        <time>2021-10-31T11:48:06.719Z</time>
      </trkpt>
      <trkpt lat="44.00793" lon="2.58327">
        <ele>283</ele>
        <time>2021-10-31T11:48:07.719Z</time>
      </trkpt>
      <trkpt lat="44.00793" lon="2.58327">
        <ele>283</ele>
        <time>2021-10-31T11:48:08.719Z</time>
      </trkpt>
      <trkpt lat="44.00792" lon="2.58327">
        <ele>283</ele>
        <time>2021-10-31T11:48:09.719Z</time>
      </trkpt>
      <trkpt lat="44.00792" lon="2.58328">
        <ele>283</ele>
        <time>2021-10-31T11:48:10.719Z</time>
      </trkpt>
      <trkpt lat="44.00791" lon="2.58328">
        <ele>283</ele>
        <time>2021-10-31T11:48:11.719Z</time>
      </trkpt>
      <trkpt lat="44.0079" lon="2.58328">
        <ele>283</ele>
        <time>2021-10-31T11:48:12.719Z</time>
      </trkpt>
      <trkpt lat="44.0079" lon="2.58329">
        <ele>283</ele>
        <time>2021-10-31T11:48:13.719Z</time>
      </trkpt>
      <trkpt lat="44.00789" lon="2.58329">
        <ele>284</ele>
        <time>2021-10-31T11:48:14.719Z</time>
      </trkpt>
      <trkpt lat="44.00789" lon="2.58329">
        <ele>284</ele>
        <time>2021-10-31T11:48:15.719Z</time>
      </trkpt>
      <trkpt lat="44.00788" lon="2.5833">
        <ele>284</ele>
        <time>2021-10-31T11:48:16.719Z</time>
      </trkpt>
      <trkpt lat="44.00788" lon="2.5833">
        <ele>284</ele>
        <time>2021-10-31T11:48:17.719Z</time>
      </trkpt>
      <trkpt lat="44.00786" lon="2.58332">
        <ele>285</ele>
        <time>2021-10-31T11:48:18.719Z</time>
      </trkpt>
      <trkpt lat="44.00785" lon="2.58332">
        <ele>286</ele>
        <time>2021-10-31T11:48:19.719Z</time>
      </trkpt>
      <trkpt lat="44.00785" lon="2.58332">
        <ele>286</ele>
        <time>2021-10-31T11:48:20.719Z</time>
      </trkpt>
      <trkpt lat="44.00784" lon="2.58332">
        <ele>286</ele>
        <time>2021-10-31T11:48:21.719Z</time>
      </trkpt>
      <trkpt lat="44.00784" lon="2.58332">
        <ele>286</ele>
        <time>2021-10-31T11:48:22.719Z</time>
      </trkpt>
      <trkpt lat="44.00783" lon="2.58333">
        <ele>286</ele>
        <time>2021-10-31T11:48:23.719Z</time>
      </trkpt>
      <trkpt lat="44.00783" lon="2.58333">
        <ele>287</ele>
        <time>2021-10-31T11:48:24.719Z</time>
      </trkpt>
      <trkpt lat="44.00782" lon="2.58333">
        <ele>287</ele>
        <time>2021-10-31T11:48:25.719Z</time>
      </trkpt>
      <trkpt lat="44.00782" lon="2.58334">
        <ele>287</ele>
        <time>2021-10-31T11:48:26.719Z</time>
      </trkpt>
      <trkpt lat="44.00781" lon="2.58333">
        <ele>287</ele>
        <time>2021-10-31T11:48:27.719Z</time>
      </trkpt>
      <trkpt lat="44.0078" lon="2.58333">
        <ele>287</ele>
        <time>2021-10-31T11:48:28.719Z</time>
      </trkpt>
      <trkpt lat="44.0078" lon="2.58333">
        <ele>288</ele>
        <time>2021-10-31T11:48:29.719Z</time>
      </trkpt>
      <trkpt lat="44.00779" lon="2.58333">
        <ele>288</ele>
        <time>2021-10-31T11:48:30.719Z</time>
      </trkpt>
      <trkpt lat="44.00778" lon="2.58333">
        <ele>288</ele>
        <time>2021-10-31T11:48:31.719Z</time>
      </trkpt>
      <trkpt lat="44.00777" lon="2.58333">
        <ele>288</ele>
        <time>2021-10-31T11:48:32.719Z</time>
      </trkpt>
      <trkpt lat="44.00776" lon="2.58333">
        <ele>288</ele>
        <time>2021-10-31T11:48:33.719Z</time>
      </trkpt>
      <trkpt lat="44.00776" lon="2.58333">
        <ele>289</ele>
        <time>2021-10-31T11:48:34.719Z</time>
      </trkpt>
      <trkpt lat="44.00775" lon="2.58333">
        <ele>289</ele>
        <time>2021-10-31T11:48:35.719Z</time>
      </trkpt>
      <trkpt lat="44.00774" lon="2.58333">
        <ele>289</ele>
        <time>2021-10-31T11:48:36.719Z</time>
      </trkpt>
      <trkpt lat="44.00774" lon="2.58333">
        <ele>289</ele>
        <time>2021-10-31T11:48:37.719Z</time>
      </trkpt>
      <trkpt lat="44.00773" lon="2.58333">
        <ele>290</ele>
        <time>2021-10-31T11:48:38.719Z</time>
      </trkpt>
      <trkpt lat="44.00773" lon="2.58332">
        <ele>290</ele>
        <time>2021-10-31T11:48:39.719Z</time>
      </trkpt>
      <trkpt lat="44.00772" lon="2.58332">
        <ele>290</ele>
        <time>2021-10-31T11:48:40.719Z</time>
      </trkpt>
      <trkpt lat="44.00771" lon="2.58332">
        <ele>290</ele>
        <time>2021-10-31T11:48:41.719Z</time>
      </trkpt>
      <trkpt lat="44.00771" lon="2.58332">
        <ele>290</ele>
        <time>2021-10-31T11:48:42.719Z</time>
      </trkpt>
      <trkpt lat="44.0077" lon="2.58332">
        <ele>290</ele>
        <time>2021-10-31T11:48:43.719Z</time>
      </trkpt>
      <trkpt lat="44.00769" lon="2.58331">
        <ele>291</ele>
        <time>2021-10-31T11:48:44.719Z</time>
      </trkpt>
      <trkpt lat="44.00769" lon="2.58331">
        <ele>291</ele>
        <time>2021-10-31T11:48:45.719Z</time>
      </trkpt>
      <trkpt lat="44.00768" lon="2.58331">
        <ele>291</ele>
        <time>2021-10-31T11:48:46.719Z</time>
      </trkpt>
      <trkpt lat="44.00767" lon="2.58331">
        <ele>291</ele>
        <time>2021-10-31T11:48:47.719Z</time>
      </trkpt>
      <trkpt lat="44.00767" lon="2.58331">
        <ele>291</ele>
        <time>2021-10-31T11:48:48.719Z</time>
      </trkpt>
      <trkpt lat="44.00766" lon="2.58331">
        <ele>291</ele>
        <time>2021-10-31T11:48:49.719Z</time>
      </trkpt>
      <trkpt lat="44.00765" lon="2.58331">
        <ele>291</ele>
        <time>2021-10-31T11:48:50.719Z</time>
      </trkpt>
      <trkpt lat="44.00765" lon="2.58332">
        <ele>291</ele>
        <time>2021-10-31T11:48:51.719Z</time>
      </trkpt>
      <trkpt lat="44.00764" lon="2.58332">
        <ele>291</ele>
        <time>2021-10-31T11:48:52.719Z</time>
      </trkpt>
      <trkpt lat="44.00763" lon="2.58332">
        <ele>291</ele>
        <time>2021-10-31T11:48:53.719Z</time>
      </trkpt>
      <trkpt lat="44.00762" lon="2.58332">
        <ele>291</ele>
        <time>2021-10-31T11:48:54.719Z</time>
      </trkpt>
      <trkpt lat="44.00762" lon="2.58332">
        <ele>292</ele>
        <time>2021-10-31T11:48:55.719Z</time>
      </trkpt>
      <trkpt lat="44.00761" lon="2.58332">
        <ele>292</ele>
        <time>2021-10-31T11:48:56.719Z</time>
      </trkpt>
      <trkpt lat="44.0076" lon="2.58332">
        <ele>292</ele>
        <time>2021-10-31T11:48:57.719Z</time>
      </trkpt>
      <trkpt lat="44.0076" lon="2.58332">
        <ele>292</ele>
        <time>2021-10-31T11:48:58.719Z</time>
      </trkpt>
      <trkpt lat="44.0076" lon="2.58332">
        <ele>292</ele>
        <time>2021-10-31T11:48:59.719Z</time>
      </trkpt>
      <trkpt lat="44.00759" lon="2.58332">
        <ele>292</ele>
        <time>2021-10-31T11:49:00.719Z</time>
      </trkpt>
      <trkpt lat="44.00758" lon="2.58333">
        <ele>292</ele>
        <time>2021-10-31T11:49:01.719Z</time>
      </trkpt>
      <trkpt lat="44.00758" lon="2.58333">
        <ele>292</ele>
        <time>2021-10-31T11:49:02.719Z</time>
      </trkpt>
      <trkpt lat="44.00757" lon="2.58332">
        <ele>292</ele>
        <time>2021-10-31T11:49:03.719Z</time>
      </trkpt>
      <trkpt lat="44.00756" lon="2.58332">
        <ele>292</ele>
        <time>2021-10-31T11:49:04.719Z</time>
      </trkpt>
      <trkpt lat="44.00755" lon="2.58333">
        <ele>292</ele>
        <time>2021-10-31T11:49:05.719Z</time>
      </trkpt>
      <trkpt lat="44.00755" lon="2.58333">
        <ele>293</ele>
        <time>2021-10-31T11:49:06.719Z</time>
      </trkpt>
      <trkpt lat="44.00754" lon="2.58332">
        <ele>293</ele>
        <time>2021-10-31T11:49:07.719Z</time>
      </trkpt>
      <trkpt lat="44.00753" lon="2.58333">
        <ele>293</ele>
        <time>2021-10-31T11:49:08.719Z</time>
      </trkpt>
      <trkpt lat="44.00753" lon="2.58333">
        <ele>293</ele>
        <time>2021-10-31T11:49:09.719Z</time>
      </trkpt>
      <trkpt lat="44.00752" lon="2.58333">
        <ele>293</ele>
        <time>2021-10-31T11:49:10.719Z</time>
      </trkpt>
      <trkpt lat="44.00751" lon="2.58332">
        <ele>294</ele>
        <time>2021-10-31T11:49:11.719Z</time>
      </trkpt>
      <trkpt lat="44.0075" lon="2.58332">
        <ele>294</ele>
        <time>2021-10-31T11:49:12.719Z</time>
      </trkpt>
      <trkpt lat="44.0075" lon="2.58331">
        <ele>294</ele>
        <time>2021-10-31T11:49:13.719Z</time>
      </trkpt>
      <trkpt lat="44.0075" lon="2.5833">
        <ele>294</ele>
        <time>2021-10-31T11:49:14.719Z</time>
      </trkpt>
      <trkpt lat="44.0075" lon="2.58329">
        <ele>294</ele>
        <time>2021-10-31T11:49:15.719Z</time>
      </trkpt>
      <trkpt lat="44.0075" lon="2.58328">
        <ele>294</ele>
        <time>2021-10-31T11:49:16.719Z</time>
      </trkpt>
      <trkpt lat="44.0075" lon="2.58327">
        <ele>294</ele>
        <time>2021-10-31T11:49:17.719Z</time>
      </trkpt>
      <trkpt lat="44.00751" lon="2.58327">
        <ele>294</ele>
        <time>2021-10-31T11:49:18.719Z</time>
      </trkpt>
      <trkpt lat="44.00751" lon="2.58326">
        <ele>294</ele>
        <time>2021-10-31T11:49:19.719Z</time>
      </trkpt>
      <trkpt lat="44.00752" lon="2.58326">
        <ele>294</ele>
        <time>2021-10-31T11:49:20.719Z</time>
      </trkpt>
      <trkpt lat="44.00752" lon="2.58325">
        <ele>294</ele>
        <time>2021-10-31T11:49:21.719Z</time>
      </trkpt>
      <trkpt lat="44.00753" lon="2.58325">
        <ele>294</ele>
        <time>2021-10-31T11:49:22.719Z</time>
      </trkpt>
      <trkpt lat="44.00753" lon="2.58324">
        <ele>294</ele>
        <time>2021-10-31T11:49:23.719Z</time>
      </trkpt>
      <trkpt lat="44.00754" lon="2.58323">
        <ele>294</ele>
        <time>2021-10-31T11:49:24.719Z</time>
      </trkpt>
      <trkpt lat="44.00754" lon="2.58323">
        <ele>294</ele>
        <time>2021-10-31T11:49:25.719Z</time>
      </trkpt>
      <trkpt lat="44.00755" lon="2.58322">
        <ele>294</ele>
        <time>2021-10-31T11:49:26.719Z</time>
      </trkpt>
      <trkpt lat="44.00755" lon="2.58321">
        <ele>294</ele>
        <time>2021-10-31T11:49:27.719Z</time>
      </trkpt>
      <trkpt lat="44.00756" lon="2.58321">
        <ele>294</ele>
        <time>2021-10-31T11:49:28.719Z</time>
      </trkpt>
      <trkpt lat="44.00756" lon="2.5832">
        <ele>294</ele>
        <time>2021-10-31T11:49:29.719Z</time>
      </trkpt>
      <trkpt lat="44.00757" lon="2.58319">
        <ele>294</ele>
        <time>2021-10-31T11:49:30.719Z</time>
      </trkpt>
      <trkpt lat="44.00757" lon="2.58318">
        <ele>294</ele>
        <time>2021-10-31T11:49:31.719Z</time>
      </trkpt>
      <trkpt lat="44.00758" lon="2.58318">
        <ele>294</ele>
        <time>2021-10-31T11:49:32.719Z</time>
      </trkpt>
      <trkpt lat="44.00758" lon="2.58317">
        <ele>293</ele>
        <time>2021-10-31T11:49:33.719Z</time>
      </trkpt>
      <trkpt lat="44.00759" lon="2.58316">
        <ele>293</ele>
        <time>2021-10-31T11:49:34.719Z</time>
      </trkpt>
      <trkpt lat="44.0076" lon="2.58315">
        <ele>293</ele>
        <time>2021-10-31T11:49:35.719Z</time>
      </trkpt>
      <trkpt lat="44.0076" lon="2.58315">
        <ele>293</ele>
        <time>2021-10-31T11:49:36.719Z</time>
      </trkpt>
      <trkpt lat="44.0076" lon="2.58314">
        <ele>293</ele>
        <time>2021-10-31T11:49:37.719Z</time>
      </trkpt>
      <trkpt lat="44.00761" lon="2.58313">
        <ele>293</ele>
        <time>2021-10-31T11:49:38.719Z</time>
      </trkpt>
      <trkpt lat="44.00761" lon="2.58312">
        <ele>293</ele>
        <time>2021-10-31T11:49:39.719Z</time>
      </trkpt>
      <trkpt lat="44.00762" lon="2.58312">
        <ele>293</ele>
        <time>2021-10-31T11:49:40.719Z</time>
      </trkpt>
      <trkpt lat="44.00762" lon="2.58312">
        <ele>293</ele>
        <time>2021-10-31T11:49:41.719Z</time>
      </trkpt>
      <trkpt lat="44.00762" lon="2.58311">
        <ele>293</ele>
        <time>2021-10-31T11:49:42.719Z</time>
      </trkpt>
      <trkpt lat="44.00762" lon="2.58311">
        <ele>293</ele>
        <time>2021-10-31T11:49:43.719Z</time>
      </trkpt>
      <trkpt lat="44.00762" lon="2.58311">
        <ele>293</ele>
        <time>2021-10-31T11:49:44.719Z</time>
      </trkpt>
      <trkpt lat="44.00763" lon="2.58308">
        <ele>293</ele>
        <time>2021-10-31T11:49:45.719Z</time>
      </trkpt>
      <trkpt lat="44.00764" lon="2.58307">
        <ele>293</ele>
        <time>2021-10-31T11:49:46.719Z</time>
      </trkpt>
      <trkpt lat="44.00764" lon="2.58306">
        <ele>293</ele>
        <time>2021-10-31T11:49:47.719Z</time>
      </trkpt>
      <trkpt lat="44.00765" lon="2.58306">
        <ele>293</ele>
        <time>2021-10-31T11:49:48.719Z</time>
      </trkpt>
      <trkpt lat="44.00765" lon="2.58305">
        <ele>293</ele>
        <time>2021-10-31T11:49:49.719Z</time>
      </trkpt>
      <trkpt lat="44.00766" lon="2.58304">
        <ele>293</ele>
        <time>2021-10-31T11:49:50.719Z</time>
      </trkpt>
      <trkpt lat="44.00766" lon="2.58304">
        <ele>293</ele>
        <time>2021-10-31T11:49:51.719Z</time>
      </trkpt>
      <trkpt lat="44.00766" lon="2.58304">
        <ele>293</ele>
        <time>2021-10-31T11:49:55.734Z</time>
      </trkpt>
      <trkpt lat="44.00766" lon="2.58304">
        <ele>293</ele>
        <time>2021-10-31T11:49:56.734Z</time>
      </trkpt>
      <trkpt lat="44.00767" lon="2.58303">
        <ele>293</ele>
        <time>2021-10-31T11:49:57.734Z</time>
      </trkpt>
      <trkpt lat="44.00767" lon="2.58302">
        <ele>293</ele>
        <time>2021-10-31T11:49:58.734Z</time>
      </trkpt>
      <trkpt lat="44.00767" lon="2.58301">
        <ele>293</ele>
        <time>2021-10-31T11:49:59.734Z</time>
      </trkpt>
      <trkpt lat="44.00768" lon="2.58301">
        <ele>293</ele>
        <time>2021-10-31T11:50:00.734Z</time>
      </trkpt>
      <trkpt lat="44.00768" lon="2.583">
        <ele>293</ele>
        <time>2021-10-31T11:50:01.734Z</time>
      </trkpt>
      <trkpt lat="44.00769" lon="2.58299">
        <ele>293</ele>
        <time>2021-10-31T11:50:02.734Z</time>
      </trkpt>
      <trkpt lat="44.00769" lon="2.58298">
        <ele>293</ele>
        <time>2021-10-31T11:50:03.734Z</time>
      </trkpt>
      <trkpt lat="44.00769" lon="2.58298">
        <ele>293</ele>
        <time>2021-10-31T11:50:04.734Z</time>
      </trkpt>
      <trkpt lat="44.00769" lon="2.58297">
        <ele>293</ele>
        <time>2021-10-31T11:50:05.734Z</time>
      </trkpt>
      <trkpt lat="44.00768" lon="2.58297">
        <ele>293</ele>
        <time>2021-10-31T11:50:06.734Z</time>
      </trkpt>
      <trkpt lat="44.00768" lon="2.58296">
        <ele>293</ele>
        <time>2021-10-31T11:50:07.734Z</time>
      </trkpt>
      <trkpt lat="44.00767" lon="2.58296">
        <ele>293</ele>
        <time>2021-10-31T11:50:08.734Z</time>
      </trkpt>
      <trkpt lat="44.00767" lon="2.58296">
        <ele>293</ele>
        <time>2021-10-31T11:50:09.734Z</time>
      </trkpt>
      <trkpt lat="44.00766" lon="2.58297">
        <ele>294</ele>
        <time>2021-10-31T11:50:10.734Z</time>
      </trkpt>
      <trkpt lat="44.00766" lon="2.58297">
        <ele>294</ele>
        <time>2021-10-31T11:50:11.734Z</time>
      </trkpt>
      <trkpt lat="44.00765" lon="2.58297">
        <ele>294</ele>
        <time>2021-10-31T11:50:12.734Z</time>
      </trkpt>
      <trkpt lat="44.00765" lon="2.58297">
        <ele>294</ele>
        <time>2021-10-31T11:50:13.734Z</time>
      </trkpt>
      <trkpt lat="44.00764" lon="2.58297">
        <ele>294</ele>
        <time>2021-10-31T11:50:14.734Z</time>
      </trkpt>
      <trkpt lat="44.00764" lon="2.58297">
        <ele>294</ele>
        <time>2021-10-31T11:50:15.734Z</time>
      </trkpt>
      <trkpt lat="44.00763" lon="2.58297">
        <ele>295</ele>
        <time>2021-10-31T11:50:16.734Z</time>
      </trkpt>
      <trkpt lat="44.00763" lon="2.58297">
        <ele>295</ele>
        <time>2021-10-31T11:50:17.734Z</time>
      </trkpt>
      <trkpt lat="44.00762" lon="2.58298">
        <ele>295</ele>
        <time>2021-10-31T11:50:18.734Z</time>
      </trkpt>
      <trkpt lat="44.00762" lon="2.58298">
        <ele>295</ele>
        <time>2021-10-31T11:50:19.734Z</time>
      </trkpt>
      <trkpt lat="44.00761" lon="2.58298">
        <ele>295</ele>
        <time>2021-10-31T11:50:20.734Z</time>
      </trkpt>
      <trkpt lat="44.0076" lon="2.58298">
        <ele>295</ele>
        <time>2021-10-31T11:50:21.734Z</time>
      </trkpt>
      <trkpt lat="44.0076" lon="2.58299">
        <ele>295</ele>
        <time>2021-10-31T11:50:22.734Z</time>
      </trkpt>
      <trkpt lat="44.00759" lon="2.58299">
        <ele>296</ele>
        <time>2021-10-31T11:50:23.734Z</time>
      </trkpt>
      <trkpt lat="44.00758" lon="2.58299">
        <ele>296</ele>
        <time>2021-10-31T11:50:24.734Z</time>
      </trkpt>
      <trkpt lat="44.00757" lon="2.58299">
        <ele>296</ele>
        <time>2021-10-31T11:50:25.734Z</time>
      </trkpt>
      <trkpt lat="44.00757" lon="2.583">
        <ele>296</ele>
        <time>2021-10-31T11:50:26.734Z</time>
      </trkpt>
      <trkpt lat="44.00756" lon="2.583">
        <ele>297</ele>
        <time>2021-10-31T11:50:27.734Z</time>
      </trkpt>
      <trkpt lat="44.00756" lon="2.583">
        <ele>297</ele>
        <time>2021-10-31T11:50:28.734Z</time>
      </trkpt>
      <trkpt lat="44.00755" lon="2.583">
        <ele>297</ele>
        <time>2021-10-31T11:50:29.734Z</time>
      </trkpt>
      <trkpt lat="44.00755" lon="2.583">
        <ele>297</ele>
        <time>2021-10-31T11:50:30.734Z</time>
      </trkpt>
      <trkpt lat="44.00754" lon="2.583">
        <ele>298</ele>
        <time>2021-10-31T11:50:31.734Z</time>
      </trkpt>
      <trkpt lat="44.00754" lon="2.583">
        <ele>298</ele>
        <time>2021-10-31T11:50:32.734Z</time>
      </trkpt>
      <trkpt lat="44.00753" lon="2.58301">
        <ele>298</ele>
        <time>2021-10-31T11:50:33.734Z</time>
      </trkpt>
      <trkpt lat="44.00752" lon="2.58301">
        <ele>298</ele>
        <time>2021-10-31T11:50:34.734Z</time>
      </trkpt>
      <trkpt lat="44.00752" lon="2.583">
        <ele>298</ele>
        <time>2021-10-31T11:50:35.734Z</time>
      </trkpt>
      <trkpt lat="44.00751" lon="2.58301">
        <ele>299</ele>
        <time>2021-10-31T11:50:36.734Z</time>
      </trkpt>
      <trkpt lat="44.00751" lon="2.58301">
        <ele>299</ele>
        <time>2021-10-31T11:50:37.734Z</time>
      </trkpt>
      <trkpt lat="44.0075" lon="2.58301">
        <ele>299</ele>
        <time>2021-10-31T11:50:38.734Z</time>
      </trkpt>
      <trkpt lat="44.00749" lon="2.58301">
        <ele>299</ele>
        <time>2021-10-31T11:50:39.734Z</time>
      </trkpt>
      <trkpt lat="44.00749" lon="2.58301">
        <ele>299</ele>
        <time>2021-10-31T11:50:40.734Z</time>
      </trkpt>
      <trkpt lat="44.00745" lon="2.58299">
        <ele>302</ele>
        <time>2021-10-31T11:50:41.734Z</time>
      </trkpt>
      <trkpt lat="44.00745" lon="2.58298">
        <ele>302</ele>
        <time>2021-10-31T11:50:42.734Z</time>
      </trkpt>
      <trkpt lat="44.00745" lon="2.58298">
        <ele>302</ele>
        <time>2021-10-31T11:50:43.734Z</time>
      </trkpt>
      <trkpt lat="44.00746" lon="2.58297">
        <ele>302</ele>
        <time>2021-10-31T11:50:44.734Z</time>
      </trkpt>
      <trkpt lat="44.00746" lon="2.58296">
        <ele>302</ele>
        <time>2021-10-31T11:50:45.734Z</time>
      </trkpt>
      <trkpt lat="44.00746" lon="2.58296">
        <ele>302</ele>
        <time>2021-10-31T11:50:46.734Z</time>
      </trkpt>
      <trkpt lat="44.00747" lon="2.58295">
        <ele>302</ele>
        <time>2021-10-31T11:50:47.734Z</time>
      </trkpt>
      <trkpt lat="44.00747" lon="2.58295">
        <ele>302</ele>
        <time>2021-10-31T11:50:48.734Z</time>
      </trkpt>
      <trkpt lat="44.00748" lon="2.58294">
        <ele>302</ele>
        <time>2021-10-31T11:50:49.734Z</time>
      </trkpt>
      <trkpt lat="44.00748" lon="2.58294">
        <ele>302</ele>
        <time>2021-10-31T11:50:50.734Z</time>
      </trkpt>
      <trkpt lat="44.00749" lon="2.58293">
        <ele>303</ele>
        <time>2021-10-31T11:50:51.734Z</time>
      </trkpt>
      <trkpt lat="44.00749" lon="2.58292">
        <ele>303</ele>
        <time>2021-10-31T11:50:52.734Z</time>
      </trkpt>
      <trkpt lat="44.0075" lon="2.58292">
        <ele>303</ele>
        <time>2021-10-31T11:50:53.734Z</time>
      </trkpt>
      <trkpt lat="44.0075" lon="2.58291">
        <ele>303</ele>
        <time>2021-10-31T11:50:54.734Z</time>
      </trkpt>
      <trkpt lat="44.0075" lon="2.5829">
        <ele>303</ele>
        <time>2021-10-31T11:50:55.734Z</time>
      </trkpt>
      <trkpt lat="44.00751" lon="2.58289">
        <ele>303</ele>
        <time>2021-10-31T11:50:56.734Z</time>
      </trkpt>
      <trkpt lat="44.00751" lon="2.58289">
        <ele>303</ele>
        <time>2021-10-31T11:50:57.734Z</time>
      </trkpt>
      <trkpt lat="44.00751" lon="2.58288">
        <ele>304</ele>
        <time>2021-10-31T11:50:58.734Z</time>
      </trkpt>
      <trkpt lat="44.00752" lon="2.58288">
        <ele>304</ele>
        <time>2021-10-31T11:50:59.734Z</time>
      </trkpt>
      <trkpt lat="44.00752" lon="2.58287">
        <ele>304</ele>
        <time>2021-10-31T11:51:00.734Z</time>
      </trkpt>
      <trkpt lat="44.00752" lon="2.58286">
        <ele>304</ele>
        <time>2021-10-31T11:51:01.734Z</time>
      </trkpt>
      <trkpt lat="44.00753" lon="2.58286">
        <ele>304</ele>
        <time>2021-10-31T11:51:02.734Z</time>
      </trkpt>
      <trkpt lat="44.00753" lon="2.58285">
        <ele>304</ele>
        <time>2021-10-31T11:51:03.734Z</time>
      </trkpt>
      <trkpt lat="44.00753" lon="2.58284">
        <ele>304</ele>
        <time>2021-10-31T11:51:04.734Z</time>
      </trkpt>
      <trkpt lat="44.00753" lon="2.58284">
        <ele>304</ele>
        <time>2021-10-31T11:51:05.734Z</time>
      </trkpt>
      <trkpt lat="44.00753" lon="2.58284">
        <ele>305</ele>
        <time>2021-10-31T11:51:06.734Z</time>
      </trkpt>
      <trkpt lat="44.00751" lon="2.58284">
        <ele>305</ele>
        <time>2021-10-31T11:51:07.734Z</time>
      </trkpt>
      <trkpt lat="44.00751" lon="2.58284">
        <ele>305</ele>
        <time>2021-10-31T11:51:08.734Z</time>
      </trkpt>
      <trkpt lat="44.0075" lon="2.58284">
        <ele>305</ele>
        <time>2021-10-31T11:51:09.734Z</time>
      </trkpt>
      <trkpt lat="44.0075" lon="2.58284">
        <ele>306</ele>
        <time>2021-10-31T11:51:10.734Z</time>
      </trkpt>
      <trkpt lat="44.0075" lon="2.58284">
        <ele>306</ele>
        <time>2021-10-31T11:51:11.734Z</time>
      </trkpt>
      <trkpt lat="44.00749" lon="2.58285">
        <ele>306</ele>
        <time>2021-10-31T11:51:12.734Z</time>
      </trkpt>
      <trkpt lat="44.00749" lon="2.58285">
        <ele>306</ele>
        <time>2021-10-31T11:51:13.734Z</time>
      </trkpt>
      <trkpt lat="44.00748" lon="2.58285">
        <ele>306</ele>
        <time>2021-10-31T11:51:14.734Z</time>
      </trkpt>
      <trkpt lat="44.00748" lon="2.58284">
        <ele>307</ele>
        <time>2021-10-31T11:51:15.734Z</time>
      </trkpt>
      <trkpt lat="44.00748" lon="2.58284">
        <ele>307</ele>
        <time>2021-10-31T11:51:16.734Z</time>
      </trkpt>
      <trkpt lat="44.00747" lon="2.58283">
        <ele>307</ele>
        <time>2021-10-31T11:51:17.734Z</time>
      </trkpt>
      <trkpt lat="44.00748" lon="2.58282">
        <ele>308</ele>
        <time>2021-10-31T11:51:18.734Z</time>
      </trkpt>
      <trkpt lat="44.00748" lon="2.58282">
        <ele>308</ele>
        <time>2021-10-31T11:51:19.734Z</time>
      </trkpt>
      <trkpt lat="44.00748" lon="2.58282">
        <ele>308</ele>
        <time>2021-10-31T11:51:20.734Z</time>
      </trkpt>
      <trkpt lat="44.00748" lon="2.58281">
        <ele>308</ele>
        <time>2021-10-31T11:51:21.734Z</time>
      </trkpt>
      <trkpt lat="44.00748" lon="2.5828">
        <ele>308</ele>
        <time>2021-10-31T11:51:22.734Z</time>
      </trkpt>
      <trkpt lat="44.00749" lon="2.5828">
        <ele>308</ele>
        <time>2021-10-31T11:51:23.734Z</time>
      </trkpt>
      <trkpt lat="44.00749" lon="2.5828">
        <ele>308</ele>
        <time>2021-10-31T11:51:24.734Z</time>
      </trkpt>
      <trkpt lat="44.00749" lon="2.58279">
        <ele>308</ele>
        <time>2021-10-31T11:51:25.734Z</time>
      </trkpt>
      <trkpt lat="44.00749" lon="2.58277">
        <ele>309</ele>
        <time>2021-10-31T11:51:26.734Z</time>
      </trkpt>
      <trkpt lat="44.0075" lon="2.58277">
        <ele>309</ele>
        <time>2021-10-31T11:51:27.734Z</time>
      </trkpt>
      <trkpt lat="44.0075" lon="2.58276">
        <ele>309</ele>
        <time>2021-10-31T11:51:28.734Z</time>
      </trkpt>
      <trkpt lat="44.00751" lon="2.58264">
        <ele>314</ele>
        <time>2021-10-31T11:51:29.734Z</time>
      </trkpt>
      <trkpt lat="44.00751" lon="2.58263">
        <ele>314</ele>
        <time>2021-10-31T11:51:30.734Z</time>
      </trkpt>
      <trkpt lat="44.00751" lon="2.58263">
        <ele>314</ele>
        <time>2021-10-31T11:51:31.734Z</time>
      </trkpt>
      <trkpt lat="44.00751" lon="2.58263">
        <ele>314</ele>
        <time>2021-10-31T11:51:32.734Z</time>
      </trkpt>
      <trkpt lat="44.00751" lon="2.5826">
        <ele>315</ele>
        <time>2021-10-31T11:51:33.734Z</time>
      </trkpt>
      <trkpt lat="44.00751" lon="2.58259">
        <ele>315</ele>
        <time>2021-10-31T11:51:34.734Z</time>
      </trkpt>
      <trkpt lat="44.00751" lon="2.58258">
        <ele>315</ele>
        <time>2021-10-31T11:51:35.734Z</time>
      </trkpt>
      <trkpt lat="44.00751" lon="2.58257">
        <ele>315</ele>
        <time>2021-10-31T11:51:36.734Z</time>
      </trkpt>
      <trkpt lat="44.0075" lon="2.58257">
        <ele>315</ele>
        <time>2021-10-31T11:51:37.734Z</time>
      </trkpt>
      <trkpt lat="44.0075" lon="2.58256">
        <ele>315</ele>
        <time>2021-10-31T11:51:38.734Z</time>
      </trkpt>
      <trkpt lat="44.0075" lon="2.58255">
        <ele>315</ele>
        <time>2021-10-31T11:51:39.734Z</time>
      </trkpt>
      <trkpt lat="44.00751" lon="2.58254">
        <ele>316</ele>
        <time>2021-10-31T11:51:40.734Z</time>
      </trkpt>
      <trkpt lat="44.00751" lon="2.58253">
        <ele>316</ele>
        <time>2021-10-31T11:51:41.734Z</time>
      </trkpt>
      <trkpt lat="44.00751" lon="2.58252">
        <ele>316</ele>
        <time>2021-10-31T11:51:42.734Z</time>
      </trkpt>
      <trkpt lat="44.00751" lon="2.58251">
        <ele>316</ele>
        <time>2021-10-31T11:51:43.734Z</time>
      </trkpt>
      <trkpt lat="44.00751" lon="2.58251">
        <ele>316</ele>
        <time>2021-10-31T11:51:44.734Z</time>
      </trkpt>
      <trkpt lat="44.00751" lon="2.5825">
        <ele>316</ele>
        <time>2021-10-31T11:51:45.734Z</time>
      </trkpt>
      <trkpt lat="44.00751" lon="2.5825">
        <ele>317</ele>
        <time>2021-10-31T11:51:46.734Z</time>
      </trkpt>
      <trkpt lat="44.00751" lon="2.58249">
        <ele>317</ele>
        <time>2021-10-31T11:51:47.734Z</time>
      </trkpt>
      <trkpt lat="44.00751" lon="2.58248">
        <ele>317</ele>
        <time>2021-10-31T11:51:48.734Z</time>
      </trkpt>
      <trkpt lat="44.00751" lon="2.58247">
        <ele>317</ele>
        <time>2021-10-31T11:51:49.734Z</time>
      </trkpt>
      <trkpt lat="44.00751" lon="2.58247">
        <ele>317</ele>
        <time>2021-10-31T11:51:50.734Z</time>
      </trkpt>
      <trkpt lat="44.00751" lon="2.58246">
        <ele>317</ele>
        <time>2021-10-31T11:51:51.734Z</time>
      </trkpt>
      <trkpt lat="44.0075" lon="2.58245">
        <ele>318</ele>
        <time>2021-10-31T11:51:52.734Z</time>
      </trkpt>
      <trkpt lat="44.0075" lon="2.58245">
        <ele>318</ele>
        <time>2021-10-31T11:51:53.734Z</time>
      </trkpt>
      <trkpt lat="44.0075" lon="2.58244">
        <ele>318</ele>
        <time>2021-10-31T11:51:54.734Z</time>
      </trkpt>
      <trkpt lat="44.0075" lon="2.58244">
        <ele>318</ele>
        <time>2021-10-31T11:51:55.734Z</time>
      </trkpt>
      <trkpt lat="44.0075" lon="2.58243">
        <ele>319</ele>
        <time>2021-10-31T11:51:56.734Z</time>
      </trkpt>
      <trkpt lat="44.0075" lon="2.58242">
        <ele>319</ele>
        <time>2021-10-31T11:51:57.734Z</time>
      </trkpt>
      <trkpt lat="44.00749" lon="2.58242">
        <ele>319</ele>
        <time>2021-10-31T11:51:58.734Z</time>
      </trkpt>
      <trkpt lat="44.00749" lon="2.58241">
        <ele>320</ele>
        <time>2021-10-31T11:51:59.734Z</time>
      </trkpt>
      <trkpt lat="44.00749" lon="2.5824">
        <ele>320</ele>
        <time>2021-10-31T11:52:00.734Z</time>
      </trkpt>
      <trkpt lat="44.00749" lon="2.5824">
        <ele>320</ele>
        <time>2021-10-31T11:52:01.734Z</time>
      </trkpt>
      <trkpt lat="44.00749" lon="2.5824">
        <ele>320</ele>
        <time>2021-10-31T11:52:02.734Z</time>
      </trkpt>
      <trkpt lat="44.00749" lon="2.58239">
        <ele>320</ele>
        <time>2021-10-31T11:52:03.734Z</time>
      </trkpt>
      <trkpt lat="44.00749" lon="2.58239">
        <ele>320</ele>
        <time>2021-10-31T11:52:04.734Z</time>
      </trkpt>
      <trkpt lat="44.00748" lon="2.58237">
        <ele>321</ele>
        <time>2021-10-31T11:52:05.734Z</time>
      </trkpt>
      <trkpt lat="44.00748" lon="2.58237">
        <ele>321</ele>
        <time>2021-10-31T11:52:06.734Z</time>
      </trkpt>
      <trkpt lat="44.00748" lon="2.58236">
        <ele>321</ele>
        <time>2021-10-31T11:52:07.734Z</time>
      </trkpt>
      <trkpt lat="44.00748" lon="2.58235">
        <ele>321</ele>
        <time>2021-10-31T11:52:08.734Z</time>
      </trkpt>
      <trkpt lat="44.00748" lon="2.58235">
        <ele>321</ele>
        <time>2021-10-31T11:52:09.734Z</time>
      </trkpt>
      <trkpt lat="44.00747" lon="2.58233">
        <ele>322</ele>
        <time>2021-10-31T11:52:10.734Z</time>
      </trkpt>
      <trkpt lat="44.00747" lon="2.58232">
        <ele>323</ele>
        <time>2021-10-31T11:52:11.734Z</time>
      </trkpt>
      <trkpt lat="44.00747" lon="2.58231">
        <ele>323</ele>
        <time>2021-10-31T11:52:12.734Z</time>
      </trkpt>
      <trkpt lat="44.00747" lon="2.58231">
        <ele>323</ele>
        <time>2021-10-31T11:52:13.734Z</time>
      </trkpt>
      <trkpt lat="44.00747" lon="2.5823">
        <ele>323</ele>
        <time>2021-10-31T11:52:14.734Z</time>
      </trkpt>
      <trkpt lat="44.00747" lon="2.5823">
        <ele>323</ele>
        <time>2021-10-31T11:52:15.734Z</time>
      </trkpt>
      <trkpt lat="44.00747" lon="2.58227">
        <ele>324</ele>
        <time>2021-10-31T11:52:16.734Z</time>
      </trkpt>
      <trkpt lat="44.00747" lon="2.58226">
        <ele>324</ele>
        <time>2021-10-31T11:52:17.734Z</time>
      </trkpt>
      <trkpt lat="44.00748" lon="2.58225">
        <ele>324</ele>
        <time>2021-10-31T11:52:18.734Z</time>
      </trkpt>
      <trkpt lat="44.00748" lon="2.58224">
        <ele>324</ele>
        <time>2021-10-31T11:52:19.734Z</time>
      </trkpt>
      <trkpt lat="44.00748" lon="2.58224">
        <ele>324</ele>
        <time>2021-10-31T11:52:20.734Z</time>
      </trkpt>
      <trkpt lat="44.00748" lon="2.58223">
        <ele>324</ele>
        <time>2021-10-31T11:52:21.734Z</time>
      </trkpt>
      <trkpt lat="44.00748" lon="2.58222">
        <ele>325</ele>
        <time>2021-10-31T11:52:22.734Z</time>
      </trkpt>
      <trkpt lat="44.00748" lon="2.58221">
        <ele>325</ele>
        <time>2021-10-31T11:52:23.734Z</time>
      </trkpt>
      <trkpt lat="44.00748" lon="2.58221">
        <ele>325</ele>
        <time>2021-10-31T11:52:24.734Z</time>
      </trkpt>
      <trkpt lat="44.00748" lon="2.5822">
        <ele>325</ele>
        <time>2021-10-31T11:52:25.734Z</time>
      </trkpt>
      <trkpt lat="44.00748" lon="2.58219">
        <ele>325</ele>
        <time>2021-10-31T11:52:26.734Z</time>
      </trkpt>
      <trkpt lat="44.00748" lon="2.58218">
        <ele>326</ele>
        <time>2021-10-31T11:52:27.734Z</time>
      </trkpt>
      <trkpt lat="44.00748" lon="2.58218">
        <ele>326</ele>
        <time>2021-10-31T11:52:28.734Z</time>
      </trkpt>
      <trkpt lat="44.00747" lon="2.58217">
        <ele>326</ele>
        <time>2021-10-31T11:52:29.734Z</time>
      </trkpt>
      <trkpt lat="44.00747" lon="2.58216">
        <ele>326</ele>
        <time>2021-10-31T11:52:30.734Z</time>
      </trkpt>
      <trkpt lat="44.00747" lon="2.58215">
        <ele>327</ele>
        <time>2021-10-31T11:52:31.734Z</time>
      </trkpt>
      <trkpt lat="44.00747" lon="2.58215">
        <ele>327</ele>
        <time>2021-10-31T11:52:32.734Z</time>
      </trkpt>
      <trkpt lat="44.00747" lon="2.58214">
        <ele>327</ele>
        <time>2021-10-31T11:52:33.734Z</time>
      </trkpt>
      <trkpt lat="44.00747" lon="2.58213">
        <ele>327</ele>
        <time>2021-10-31T11:52:34.734Z</time>
      </trkpt>
      <trkpt lat="44.00747" lon="2.58212">
        <ele>328</ele>
        <time>2021-10-31T11:52:35.734Z</time>
      </trkpt>
      <trkpt lat="44.00746" lon="2.58212">
        <ele>328</ele>
        <time>2021-10-31T11:52:36.734Z</time>
      </trkpt>
      <trkpt lat="44.00746" lon="2.58211">
        <ele>328</ele>
        <time>2021-10-31T11:52:37.734Z</time>
      </trkpt>
      <trkpt lat="44.00746" lon="2.5821">
        <ele>328</ele>
        <time>2021-10-31T11:52:38.734Z</time>
      </trkpt>
      <trkpt lat="44.00746" lon="2.5821">
        <ele>329</ele>
        <time>2021-10-31T11:52:39.734Z</time>
      </trkpt>
      <trkpt lat="44.00746" lon="2.58209">
        <ele>329</ele>
        <time>2021-10-31T11:52:40.734Z</time>
      </trkpt>
      <trkpt lat="44.00746" lon="2.58208">
        <ele>329</ele>
        <time>2021-10-31T11:52:41.734Z</time>
      </trkpt>
      <trkpt lat="44.00746" lon="2.58208">
        <ele>329</ele>
        <time>2021-10-31T11:52:42.734Z</time>
      </trkpt>
      <trkpt lat="44.00746" lon="2.58207">
        <ele>329</ele>
        <time>2021-10-31T11:52:43.734Z</time>
      </trkpt>
      <trkpt lat="44.00746" lon="2.58205">
        <ele>330</ele>
        <time>2021-10-31T11:52:44.734Z</time>
      </trkpt>
      <trkpt lat="44.00746" lon="2.58204">
        <ele>330</ele>
        <time>2021-10-31T11:52:45.734Z</time>
      </trkpt>
      <trkpt lat="44.00746" lon="2.58203">
        <ele>330</ele>
        <time>2021-10-31T11:52:46.734Z</time>
      </trkpt>
      <trkpt lat="44.00747" lon="2.58203">
        <ele>330</ele>
        <time>2021-10-31T11:52:47.734Z</time>
      </trkpt>
      <trkpt lat="44.00747" lon="2.58202">
        <ele>330</ele>
        <time>2021-10-31T11:52:48.734Z</time>
      </trkpt>
      <trkpt lat="44.00747" lon="2.58202">
        <ele>331</ele>
        <time>2021-10-31T11:52:49.734Z</time>
      </trkpt>
      <trkpt lat="44.00746" lon="2.582">
        <ele>332</ele>
        <time>2021-10-31T11:52:50.734Z</time>
      </trkpt>
      <trkpt lat="44.00746" lon="2.58199">
        <ele>332</ele>
        <time>2021-10-31T11:52:51.734Z</time>
      </trkpt>
      <trkpt lat="44.00746" lon="2.58199">
        <ele>332</ele>
        <time>2021-10-31T11:52:52.734Z</time>
      </trkpt>
      <trkpt lat="44.00746" lon="2.58198">
        <ele>332</ele>
        <time>2021-10-31T11:52:53.734Z</time>
      </trkpt>
      <trkpt lat="44.00746" lon="2.58197">
        <ele>332</ele>
        <time>2021-10-31T11:52:54.734Z</time>
      </trkpt>
      <trkpt lat="44.00746" lon="2.58197">
        <ele>333</ele>
        <time>2021-10-31T11:52:55.734Z</time>
      </trkpt>
      <trkpt lat="44.00746" lon="2.58194">
        <ele>334</ele>
        <time>2021-10-31T11:52:56.734Z</time>
      </trkpt>
      <trkpt lat="44.00745" lon="2.58193">
        <ele>334</ele>
        <time>2021-10-31T11:52:57.734Z</time>
      </trkpt>
      <trkpt lat="44.00745" lon="2.58193">
        <ele>334</ele>
        <time>2021-10-31T11:52:58.734Z</time>
      </trkpt>
      <trkpt lat="44.00745" lon="2.58192">
        <ele>334</ele>
        <time>2021-10-31T11:52:59.734Z</time>
      </trkpt>
      <trkpt lat="44.00745" lon="2.58191">
        <ele>334</ele>
        <time>2021-10-31T11:53:00.734Z</time>
      </trkpt>
      <trkpt lat="44.00745" lon="2.5819">
        <ele>334</ele>
        <time>2021-10-31T11:53:01.734Z</time>
      </trkpt>
      <trkpt lat="44.00745" lon="2.58189">
        <ele>335</ele>
        <time>2021-10-31T11:53:02.734Z</time>
      </trkpt>
      <trkpt lat="44.00745" lon="2.58188">
        <ele>335</ele>
        <time>2021-10-31T11:53:03.734Z</time>
      </trkpt>
      <trkpt lat="44.00745" lon="2.58187">
        <ele>335</ele>
        <time>2021-10-31T11:53:04.734Z</time>
      </trkpt>
      <trkpt lat="44.00745" lon="2.58187">
        <ele>335</ele>
        <time>2021-10-31T11:53:05.734Z</time>
      </trkpt>
      <trkpt lat="44.00745" lon="2.58186">
        <ele>335</ele>
        <time>2021-10-31T11:53:06.734Z</time>
      </trkpt>
      <trkpt lat="44.00745" lon="2.58185">
        <ele>335</ele>
        <time>2021-10-31T11:53:07.734Z</time>
      </trkpt>
      <trkpt lat="44.00744" lon="2.58185">
        <ele>335</ele>
        <time>2021-10-31T11:53:08.734Z</time>
      </trkpt>
      <trkpt lat="44.00744" lon="2.58184">
        <ele>336</ele>
        <time>2021-10-31T11:53:09.734Z</time>
      </trkpt>
      <trkpt lat="44.00744" lon="2.58183">
        <ele>336</ele>
        <time>2021-10-31T11:53:10.734Z</time>
      </trkpt>
      <trkpt lat="44.00744" lon="2.58182">
        <ele>336</ele>
        <time>2021-10-31T11:53:11.734Z</time>
      </trkpt>
      <trkpt lat="44.00744" lon="2.58182">
        <ele>336</ele>
        <time>2021-10-31T11:53:12.734Z</time>
      </trkpt>
      <trkpt lat="44.00744" lon="2.58181">
        <ele>336</ele>
        <time>2021-10-31T11:53:13.734Z</time>
      </trkpt>
      <trkpt lat="44.00744" lon="2.5818">
        <ele>336</ele>
        <time>2021-10-31T11:53:14.734Z</time>
      </trkpt>
      <trkpt lat="44.00744" lon="2.58179">
        <ele>337</ele>
        <time>2021-10-31T11:53:15.734Z</time>
      </trkpt>
      <trkpt lat="44.00744" lon="2.58178">
        <ele>337</ele>
        <time>2021-10-31T11:53:16.734Z</time>
      </trkpt>
      <trkpt lat="44.00744" lon="2.58177">
        <ele>337</ele>
        <time>2021-10-31T11:53:17.734Z</time>
      </trkpt>
      <trkpt lat="44.00744" lon="2.58176">
        <ele>337</ele>
        <time>2021-10-31T11:53:18.734Z</time>
      </trkpt>
      <trkpt lat="44.00744" lon="2.58176">
        <ele>337</ele>
        <time>2021-10-31T11:53:19.734Z</time>
      </trkpt>
      <trkpt lat="44.00744" lon="2.58175">
        <ele>337</ele>
        <time>2021-10-31T11:53:20.734Z</time>
      </trkpt>
      <trkpt lat="44.00745" lon="2.58174">
        <ele>337</ele>
        <time>2021-10-31T11:53:21.734Z</time>
      </trkpt>
      <trkpt lat="44.00745" lon="2.58174">
        <ele>337</ele>
        <time>2021-10-31T11:53:22.734Z</time>
      </trkpt>
      <trkpt lat="44.00745" lon="2.58173">
        <ele>337</ele>
        <time>2021-10-31T11:53:23.734Z</time>
      </trkpt>
      <trkpt lat="44.00745" lon="2.58172">
        <ele>337</ele>
        <time>2021-10-31T11:53:24.734Z</time>
      </trkpt>
      <trkpt lat="44.00745" lon="2.58171">
        <ele>338</ele>
        <time>2021-10-31T11:53:25.734Z</time>
      </trkpt>
      <trkpt lat="44.00744" lon="2.58169">
        <ele>339</ele>
        <time>2021-10-31T11:53:26.734Z</time>
      </trkpt>
      <trkpt lat="44.00744" lon="2.58168">
        <ele>339</ele>
        <time>2021-10-31T11:53:27.734Z</time>
      </trkpt>
      <trkpt lat="44.00744" lon="2.58167">
        <ele>339</ele>
        <time>2021-10-31T11:53:28.734Z</time>
      </trkpt>
      <trkpt lat="44.00743" lon="2.58166">
        <ele>339</ele>
        <time>2021-10-31T11:53:29.734Z</time>
      </trkpt>
      <trkpt lat="44.00743" lon="2.58165">
        <ele>339</ele>
        <time>2021-10-31T11:53:30.734Z</time>
      </trkpt>
      <trkpt lat="44.00743" lon="2.58164">
        <ele>340</ele>
        <time>2021-10-31T11:53:31.734Z</time>
      </trkpt>
      <trkpt lat="44.00743" lon="2.58164">
        <ele>340</ele>
        <time>2021-10-31T11:53:32.734Z</time>
      </trkpt>
      <trkpt lat="44.00743" lon="2.58163">
        <ele>340</ele>
        <time>2021-10-31T11:53:33.734Z</time>
      </trkpt>
      <trkpt lat="44.00743" lon="2.58162">
        <ele>340</ele>
        <time>2021-10-31T11:53:34.734Z</time>
      </trkpt>
      <trkpt lat="44.00743" lon="2.58161">
        <ele>340</ele>
        <time>2021-10-31T11:53:35.734Z</time>
      </trkpt>
      <trkpt lat="44.00743" lon="2.5816">
        <ele>340</ele>
        <time>2021-10-31T11:53:36.734Z</time>
      </trkpt>
      <trkpt lat="44.00742" lon="2.5816">
        <ele>340</ele>
        <time>2021-10-31T11:53:37.734Z</time>
      </trkpt>
      <trkpt lat="44.00742" lon="2.58159">
        <ele>340</ele>
        <time>2021-10-31T11:53:38.734Z</time>
      </trkpt>
      <trkpt lat="44.00742" lon="2.58158">
        <ele>340</ele>
        <time>2021-10-31T11:53:39.734Z</time>
      </trkpt>
      <trkpt lat="44.00742" lon="2.58157">
        <ele>340</ele>
        <time>2021-10-31T11:53:40.734Z</time>
      </trkpt>
      <trkpt lat="44.00742" lon="2.58156">
        <ele>341</ele>
        <time>2021-10-31T11:53:41.734Z</time>
      </trkpt>
      <trkpt lat="44.00742" lon="2.58156">
        <ele>341</ele>
        <time>2021-10-31T11:53:42.734Z</time>
      </trkpt>
      <trkpt lat="44.00742" lon="2.58152">
        <ele>342</ele>
        <time>2021-10-31T11:53:43.734Z</time>
      </trkpt>
      <trkpt lat="44.00742" lon="2.58152">
        <ele>342</ele>
        <time>2021-10-31T11:53:44.734Z</time>
      </trkpt>
      <trkpt lat="44.00742" lon="2.58149">
        <ele>343</ele>
        <time>2021-10-31T11:53:45.734Z</time>
      </trkpt>
      <trkpt lat="44.00742" lon="2.58148">
        <ele>343</ele>
        <time>2021-10-31T11:53:46.734Z</time>
      </trkpt>
      <trkpt lat="44.00742" lon="2.58148">
        <ele>343</ele>
        <time>2021-10-31T11:53:47.734Z</time>
      </trkpt>
      <trkpt lat="44.00742" lon="2.58147">
        <ele>344</ele>
        <time>2021-10-31T11:53:48.734Z</time>
      </trkpt>
      <trkpt lat="44.00742" lon="2.58146">
        <ele>344</ele>
        <time>2021-10-31T11:53:49.734Z</time>
      </trkpt>
      <trkpt lat="44.00741" lon="2.58145">
        <ele>344</ele>
        <time>2021-10-31T11:53:50.734Z</time>
      </trkpt>
      <trkpt lat="44.00741" lon="2.58145">
        <ele>344</ele>
        <time>2021-10-31T11:53:51.734Z</time>
      </trkpt>
      <trkpt lat="44.00741" lon="2.58144">
        <ele>344</ele>
        <time>2021-10-31T11:53:52.734Z</time>
      </trkpt>
      <trkpt lat="44.00741" lon="2.58143">
        <ele>344</ele>
        <time>2021-10-31T11:53:53.734Z</time>
      </trkpt>
      <trkpt lat="44.00741" lon="2.58143">
        <ele>344</ele>
        <time>2021-10-31T11:53:54.734Z</time>
      </trkpt>
      <trkpt lat="44.00741" lon="2.58139">
        <ele>345</ele>
        <time>2021-10-31T11:53:55.734Z</time>
      </trkpt>
      <trkpt lat="44.00741" lon="2.58139">
        <ele>345</ele>
        <time>2021-10-31T11:53:56.734Z</time>
      </trkpt>
      <trkpt lat="44.00741" lon="2.58136">
        <ele>345</ele>
        <time>2021-10-31T11:53:57.734Z</time>
      </trkpt>
      <trkpt lat="44.00741" lon="2.58136">
        <ele>345</ele>
        <time>2021-10-31T11:53:58.734Z</time>
      </trkpt>
      <trkpt lat="44.00741" lon="2.58135">
        <ele>345</ele>
        <time>2021-10-31T11:53:59.734Z</time>
      </trkpt>
      <trkpt lat="44.00741" lon="2.58134">
        <ele>345</ele>
        <time>2021-10-31T11:54:00.734Z</time>
      </trkpt>
      <trkpt lat="44.00742" lon="2.58134">
        <ele>345</ele>
        <time>2021-10-31T11:54:01.734Z</time>
      </trkpt>
      <trkpt lat="44.00742" lon="2.58133">
        <ele>345</ele>
        <time>2021-10-31T11:54:02.734Z</time>
      </trkpt>
      <trkpt lat="44.00741" lon="2.58132">
        <ele>345</ele>
        <time>2021-10-31T11:54:19.741Z</time>
      </trkpt>
      <trkpt lat="44.00742" lon="2.58131">
        <ele>345</ele>
        <time>2021-10-31T11:54:20.741Z</time>
      </trkpt>
      <trkpt lat="44.00742" lon="2.5813">
        <ele>345</ele>
        <time>2021-10-31T11:54:21.741Z</time>
      </trkpt>
      <trkpt lat="44.00742" lon="2.5813">
        <ele>345</ele>
        <time>2021-10-31T11:54:22.741Z</time>
      </trkpt>
      <trkpt lat="44.00742" lon="2.58129">
        <ele>345</ele>
        <time>2021-10-31T11:54:23.741Z</time>
      </trkpt>
      <trkpt lat="44.0074" lon="2.58124">
        <ele>346</ele>
        <time>2021-10-31T11:54:24.741Z</time>
      </trkpt>
      <trkpt lat="44.0074" lon="2.58124">
        <ele>346</ele>
        <time>2021-10-31T11:54:25.741Z</time>
      </trkpt>
      <trkpt lat="44.0074" lon="2.58123">
        <ele>346</ele>
        <time>2021-10-31T11:54:26.741Z</time>
      </trkpt>
      <trkpt lat="44.0074" lon="2.58123">
        <ele>346</ele>
        <time>2021-10-31T11:54:27.741Z</time>
      </trkpt>
      <trkpt lat="44.0074" lon="2.58122">
        <ele>346</ele>
        <time>2021-10-31T11:54:28.741Z</time>
      </trkpt>
      <trkpt lat="44.0074" lon="2.58121">
        <ele>347</ele>
        <time>2021-10-31T11:54:29.741Z</time>
      </trkpt>
      <trkpt lat="44.0074" lon="2.58121">
        <ele>347</ele>
        <time>2021-10-31T11:54:42.746Z</time>
      </trkpt>
      <trkpt lat="44.0074" lon="2.5812">
        <ele>347</ele>
        <time>2021-10-31T11:54:43.746Z</time>
      </trkpt>
      <trkpt lat="44.0074" lon="2.5812">
        <ele>348</ele>
        <time>2021-10-31T11:54:44.746Z</time>
      </trkpt>
      <trkpt lat="44.0074" lon="2.58119">
        <ele>348</ele>
        <time>2021-10-31T11:54:45.746Z</time>
      </trkpt>
      <trkpt lat="44.00739" lon="2.58119">
        <ele>348</ele>
        <time>2021-10-31T11:54:46.746Z</time>
      </trkpt>
      <trkpt lat="44.00739" lon="2.58119">
        <ele>349</ele>
        <time>2021-10-31T11:54:47.746Z</time>
      </trkpt>
      <trkpt lat="44.00739" lon="2.58118">
        <ele>349</ele>
        <time>2021-10-31T11:54:48.746Z</time>
      </trkpt>
      <trkpt lat="44.00738" lon="2.58117">
        <ele>349</ele>
        <time>2021-10-31T11:54:49.746Z</time>
      </trkpt>
      <trkpt lat="44.00738" lon="2.58117">
        <ele>349</ele>
        <time>2021-10-31T11:54:50.746Z</time>
      </trkpt>
      <trkpt lat="44.00738" lon="2.58116">
        <ele>350</ele>
        <time>2021-10-31T11:54:51.746Z</time>
      </trkpt>
      <trkpt lat="44.00738" lon="2.58115">
        <ele>350</ele>
        <time>2021-10-31T11:54:52.746Z</time>
      </trkpt>
      <trkpt lat="44.00738" lon="2.58114">
        <ele>350</ele>
        <time>2021-10-31T11:54:53.746Z</time>
      </trkpt>
      <trkpt lat="44.00738" lon="2.58114">
        <ele>350</ele>
        <time>2021-10-31T11:54:54.746Z</time>
      </trkpt>
      <trkpt lat="44.00737" lon="2.58114">
        <ele>350</ele>
        <time>2021-10-31T11:54:55.746Z</time>
      </trkpt>
      <trkpt lat="44.00737" lon="2.58114">
        <ele>351</ele>
        <time>2021-10-31T11:54:56.746Z</time>
      </trkpt>
      <trkpt lat="44.00737" lon="2.58114">
        <ele>351</ele>
        <time>2021-10-31T11:54:57.746Z</time>
      </trkpt>
      <trkpt lat="44.00737" lon="2.58113">
        <ele>351</ele>
        <time>2021-10-31T11:54:58.746Z</time>
      </trkpt>
      <trkpt lat="44.00737" lon="2.58112">
        <ele>351</ele>
        <time>2021-10-31T11:54:59.746Z</time>
      </trkpt>
      <trkpt lat="44.00737" lon="2.58112">
        <ele>351</ele>
        <time>2021-10-31T11:55:00.746Z</time>
      </trkpt>
      <trkpt lat="44.00736" lon="2.58111">
        <ele>351</ele>
        <time>2021-10-31T11:55:01.746Z</time>
      </trkpt>
      <trkpt lat="44.00736" lon="2.58111">
        <ele>351</ele>
        <time>2021-10-31T11:55:02.746Z</time>
      </trkpt>
      <trkpt lat="44.00736" lon="2.5811">
        <ele>352</ele>
        <time>2021-10-31T11:55:03.746Z</time>
      </trkpt>
      <trkpt lat="44.00736" lon="2.5811">
        <ele>352</ele>
        <time>2021-10-31T11:55:04.746Z</time>
      </trkpt>
      <trkpt lat="44.00736" lon="2.58107">
        <ele>352</ele>
        <time>2021-10-31T11:55:05.746Z</time>
      </trkpt>
      <trkpt lat="44.00736" lon="2.58106">
        <ele>352</ele>
        <time>2021-10-31T11:55:06.746Z</time>
      </trkpt>
      <trkpt lat="44.00736" lon="2.58106">
        <ele>352</ele>
        <time>2021-10-31T11:55:07.746Z</time>
      </trkpt>
      <trkpt lat="44.00736" lon="2.58105">
        <ele>352</ele>
        <time>2021-10-31T11:55:08.746Z</time>
      </trkpt>
      <trkpt lat="44.00736" lon="2.58104">
        <ele>352</ele>
        <time>2021-10-31T11:55:09.746Z</time>
      </trkpt>
      <trkpt lat="44.00736" lon="2.581">
        <ele>352</ele>
        <time>2021-10-31T11:55:10.746Z</time>
      </trkpt>
      <trkpt lat="44.00736" lon="2.581">
        <ele>353</ele>
        <time>2021-10-31T11:55:11.746Z</time>
      </trkpt>
      <trkpt lat="44.00737" lon="2.58099">
        <ele>353</ele>
        <time>2021-10-31T11:55:12.746Z</time>
      </trkpt>
      <trkpt lat="44.00737" lon="2.58099">
        <ele>353</ele>
        <time>2021-10-31T11:55:13.746Z</time>
      </trkpt>
      <trkpt lat="44.00737" lon="2.58098">
        <ele>353</ele>
        <time>2021-10-31T11:55:14.746Z</time>
      </trkpt>
      <trkpt lat="44.00738" lon="2.58098">
        <ele>353</ele>
        <time>2021-10-31T11:55:15.746Z</time>
      </trkpt>
      <trkpt lat="44.00739" lon="2.58098">
        <ele>353</ele>
        <time>2021-10-31T11:55:16.746Z</time>
      </trkpt>
      <trkpt lat="44.0074" lon="2.58098">
        <ele>353</ele>
        <time>2021-10-31T11:55:17.746Z</time>
      </trkpt>
      <trkpt lat="44.0074" lon="2.58098">
        <ele>353</ele>
        <time>2021-10-31T11:55:18.746Z</time>
      </trkpt>
      <trkpt lat="44.00741" lon="2.58098">
        <ele>353</ele>
        <time>2021-10-31T11:55:19.746Z</time>
      </trkpt>
      <trkpt lat="44.00741" lon="2.58098">
        <ele>353</ele>
        <time>2021-10-31T11:55:20.746Z</time>
      </trkpt>
      <trkpt lat="44.00742" lon="2.58098">
        <ele>353</ele>
        <time>2021-10-31T11:55:31.752Z</time>
      </trkpt>
      <trkpt lat="44.00742" lon="2.58098">
        <ele>353</ele>
        <time>2021-10-31T11:55:32.752Z</time>
      </trkpt>
      <trkpt lat="44.00742" lon="2.58098">
        <ele>353</ele>
        <time>2021-10-31T11:55:33.752Z</time>
      </trkpt>
      <trkpt lat="44.00743" lon="2.58099">
        <ele>353</ele>
        <time>2021-10-31T11:55:34.752Z</time>
      </trkpt>
      <trkpt lat="44.00744" lon="2.58099">
        <ele>353</ele>
        <time>2021-10-31T11:55:35.752Z</time>
      </trkpt>
      <trkpt lat="44.00744" lon="2.58099">
        <ele>353</ele>
        <time>2021-10-31T11:55:36.752Z</time>
      </trkpt>
      <trkpt lat="44.00745" lon="2.58099">
        <ele>354</ele>
        <time>2021-10-31T11:56:30.762Z</time>
      </trkpt>
      <trkpt lat="44.00745" lon="2.58099">
        <ele>354</ele>
        <time>2021-10-31T11:56:31.762Z</time>
      </trkpt>
      <trkpt lat="44.00746" lon="2.581">
        <ele>354</ele>
        <time>2021-10-31T11:56:32.762Z</time>
      </trkpt>
      <trkpt lat="44.00746" lon="2.581">
        <ele>354</ele>
        <time>2021-10-31T11:56:33.762Z</time>
      </trkpt>
      <trkpt lat="44.00747" lon="2.581">
        <ele>354</ele>
        <time>2021-10-31T11:56:34.762Z</time>
      </trkpt>
      <trkpt lat="44.00747" lon="2.581">
        <ele>354</ele>
        <time>2021-10-31T11:56:35.762Z</time>
      </trkpt>
      <trkpt lat="44.00747" lon="2.581">
        <ele>354</ele>
        <time>2021-10-31T11:56:36.762Z</time>
      </trkpt>
      <trkpt lat="44.00749" lon="2.58102">
        <ele>355</ele>
        <time>2021-10-31T11:56:37.762Z</time>
      </trkpt>
      <trkpt lat="44.00749" lon="2.58102">
        <ele>355</ele>
        <time>2021-10-31T11:56:38.762Z</time>
      </trkpt>
      <trkpt lat="44.0075" lon="2.58102">
        <ele>355</ele>
        <time>2021-10-31T11:56:39.762Z</time>
      </trkpt>
      <trkpt lat="44.0075" lon="2.58103">
        <ele>355</ele>
        <time>2021-10-31T11:56:40.762Z</time>
      </trkpt>
      <trkpt lat="44.00751" lon="2.58103">
        <ele>355</ele>
        <time>2021-10-31T11:56:41.762Z</time>
      </trkpt>
      <trkpt lat="44.00751" lon="2.58103">
        <ele>355</ele>
        <time>2021-10-31T11:56:42.762Z</time>
      </trkpt>
      <trkpt lat="44.00752" lon="2.58104">
        <ele>356</ele>
        <time>2021-10-31T11:56:43.762Z</time>
      </trkpt>
      <trkpt lat="44.00752" lon="2.58104">
        <ele>356</ele>
        <time>2021-10-31T11:56:44.762Z</time>
      </trkpt>
      <trkpt lat="44.00752" lon="2.58105">
        <ele>356</ele>
        <time>2021-10-31T11:56:45.762Z</time>
      </trkpt>
      <trkpt lat="44.00753" lon="2.58105">
        <ele>356</ele>
        <time>2021-10-31T11:56:58.768Z</time>
      </trkpt>
      <trkpt lat="44.00753" lon="2.58106">
        <ele>356</ele>
        <time>2021-10-31T11:56:59.768Z</time>
      </trkpt>
      <trkpt lat="44.00753" lon="2.58106">
        <ele>356</ele>
        <time>2021-10-31T11:57:00.768Z</time>
      </trkpt>
      <trkpt lat="44.00754" lon="2.58107">
        <ele>356</ele>
        <time>2021-10-31T11:57:01.768Z</time>
      </trkpt>
      <trkpt lat="44.00754" lon="2.58107">
        <ele>356</ele>
        <time>2021-10-31T11:57:02.768Z</time>
      </trkpt>
      <trkpt lat="44.00754" lon="2.58107">
        <ele>356</ele>
        <time>2021-10-31T11:57:03.768Z</time>
      </trkpt>
      <trkpt lat="44.00759" lon="2.5811">
        <ele>358</ele>
        <time>2021-10-31T11:57:04.768Z</time>
      </trkpt>
      <trkpt lat="44.00759" lon="2.5811">
        <ele>359</ele>
        <time>2021-10-31T11:57:05.768Z</time>
      </trkpt>
      <trkpt lat="44.0076" lon="2.58111">
        <ele>359</ele>
        <time>2021-10-31T11:57:06.768Z</time>
      </trkpt>
      <trkpt lat="44.00761" lon="2.58111">
        <ele>359</ele>
        <time>2021-10-31T11:57:07.768Z</time>
      </trkpt>
      <trkpt lat="44.00761" lon="2.58112">
        <ele>359</ele>
        <time>2021-10-31T11:57:08.768Z</time>
      </trkpt>
      <trkpt lat="44.00762" lon="2.58113">
        <ele>359</ele>
        <time>2021-10-31T11:57:09.768Z</time>
      </trkpt>
      <trkpt lat="44.00762" lon="2.58113">
        <ele>359</ele>
        <time>2021-10-31T11:57:10.768Z</time>
      </trkpt>
      <trkpt lat="44.00763" lon="2.58114">
        <ele>360</ele>
        <time>2021-10-31T11:57:11.768Z</time>
      </trkpt>
      <trkpt lat="44.00763" lon="2.58114">
        <ele>360</ele>
        <time>2021-10-31T11:57:12.768Z</time>
      </trkpt>
      <trkpt lat="44.00763" lon="2.58115">
        <ele>360</ele>
        <time>2021-10-31T11:57:13.768Z</time>
      </trkpt>
      <trkpt lat="44.00764" lon="2.58116">
        <ele>360</ele>
        <time>2021-10-31T11:57:14.768Z</time>
      </trkpt>
      <trkpt lat="44.00764" lon="2.58116">
        <ele>360</ele>
        <time>2021-10-31T11:57:15.768Z</time>
      </trkpt>
      <trkpt lat="44.00764" lon="2.58117">
        <ele>360</ele>
        <time>2021-10-31T11:57:16.768Z</time>
      </trkpt>
      <trkpt lat="44.00765" lon="2.58117">
        <ele>360</ele>
        <time>2021-10-31T11:57:17.768Z</time>
      </trkpt>
      <trkpt lat="44.00765" lon="2.58118">
        <ele>360</ele>
        <time>2021-10-31T11:57:18.768Z</time>
      </trkpt>
      <trkpt lat="44.00766" lon="2.58119">
        <ele>361</ele>
        <time>2021-10-31T11:57:19.768Z</time>
      </trkpt>
      <trkpt lat="44.00766" lon="2.58119">
        <ele>361</ele>
        <time>2021-10-31T11:57:20.768Z</time>
      </trkpt>
      <trkpt lat="44.00766" lon="2.5812">
        <ele>361</ele>
        <time>2021-10-31T11:57:21.768Z</time>
      </trkpt>
      <trkpt lat="44.00767" lon="2.5812">
        <ele>361</ele>
        <time>2021-10-31T11:57:22.768Z</time>
      </trkpt>
      <trkpt lat="44.00767" lon="2.58121">
        <ele>361</ele>
        <time>2021-10-31T11:57:23.768Z</time>
      </trkpt>
      <trkpt lat="44.00768" lon="2.58121">
        <ele>361</ele>
        <time>2021-10-31T11:57:24.768Z</time>
      </trkpt>
      <trkpt lat="44.00769" lon="2.58122">
        <ele>362</ele>
        <time>2021-10-31T11:57:25.768Z</time>
      </trkpt>
      <trkpt lat="44.00769" lon="2.58122">
        <ele>362</ele>
        <time>2021-10-31T11:57:26.768Z</time>
      </trkpt>
      <trkpt lat="44.0077" lon="2.58123">
        <ele>362</ele>
        <time>2021-10-31T11:57:27.768Z</time>
      </trkpt>
      <trkpt lat="44.0077" lon="2.58123">
        <ele>362</ele>
        <time>2021-10-31T11:57:28.768Z</time>
      </trkpt>
      <trkpt lat="44.00771" lon="2.58124">
        <ele>362</ele>
        <time>2021-10-31T11:57:29.768Z</time>
      </trkpt>
      <trkpt lat="44.00771" lon="2.58125">
        <ele>362</ele>
        <time>2021-10-31T11:57:30.768Z</time>
      </trkpt>
      <trkpt lat="44.00772" lon="2.58125">
        <ele>363</ele>
        <time>2021-10-31T11:57:31.768Z</time>
      </trkpt>
      <trkpt lat="44.00772" lon="2.58126">
        <ele>363</ele>
        <time>2021-10-31T11:57:32.768Z</time>
      </trkpt>
      <trkpt lat="44.00772" lon="2.58127">
        <ele>363</ele>
        <time>2021-10-31T11:57:33.768Z</time>
      </trkpt>
      <trkpt lat="44.00772" lon="2.58128">
        <ele>363</ele>
        <time>2021-10-31T11:57:34.768Z</time>
      </trkpt>
      <trkpt lat="44.00773" lon="2.58129">
        <ele>363</ele>
        <time>2021-10-31T11:57:35.768Z</time>
      </trkpt>
      <trkpt lat="44.00773" lon="2.58129">
        <ele>364</ele>
        <time>2021-10-31T11:57:36.768Z</time>
      </trkpt>
      <trkpt lat="44.00773" lon="2.58129">
        <ele>364</ele>
        <time>2021-10-31T11:57:37.768Z</time>
      </trkpt>
      <trkpt lat="44.00775" lon="2.58131">
        <ele>365</ele>
        <time>2021-10-31T11:57:38.768Z</time>
      </trkpt>
      <trkpt lat="44.00774" lon="2.5813">
        <ele>365</ele>
        <time>2021-10-31T11:57:39.768Z</time>
      </trkpt>
      <trkpt lat="44.00774" lon="2.5813">
        <ele>365</ele>
        <time>2021-10-31T11:57:40.768Z</time>
      </trkpt>
      <trkpt lat="44.00774" lon="2.58129">
        <ele>365</ele>
        <time>2021-10-31T11:57:41.768Z</time>
      </trkpt>
      <trkpt lat="44.00774" lon="2.58129">
        <ele>365</ele>
        <time>2021-10-31T11:57:42.768Z</time>
      </trkpt>
      <trkpt lat="44.00774" lon="2.58128">
        <ele>365</ele>
        <time>2021-10-31T11:57:43.768Z</time>
      </trkpt>
      <trkpt lat="44.00773" lon="2.58128">
        <ele>365</ele>
        <time>2021-10-31T11:57:44.768Z</time>
      </trkpt>
      <trkpt lat="44.00773" lon="2.58128">
        <ele>366</ele>
        <time>2021-10-31T11:57:45.768Z</time>
      </trkpt>
      <trkpt lat="44.00773" lon="2.58127">
        <ele>366</ele>
        <time>2021-10-31T11:57:46.768Z</time>
      </trkpt>
      <trkpt lat="44.00773" lon="2.58124">
        <ele>367</ele>
        <time>2021-10-31T11:57:47.768Z</time>
      </trkpt>
      <trkpt lat="44.00773" lon="2.58123">
        <ele>367</ele>
        <time>2021-10-31T11:57:48.768Z</time>
      </trkpt>
      <trkpt lat="44.00773" lon="2.58122">
        <ele>367</ele>
        <time>2021-10-31T11:57:49.768Z</time>
      </trkpt>
      <trkpt lat="44.00773" lon="2.58122">
        <ele>367</ele>
        <time>2021-10-31T11:57:50.768Z</time>
      </trkpt>
      <trkpt lat="44.00773" lon="2.58122">
        <ele>367</ele>
        <time>2021-10-31T11:57:51.768Z</time>
      </trkpt>
      <trkpt lat="44.00773" lon="2.58122">
        <ele>367</ele>
        <time>2021-10-31T11:57:52.768Z</time>
      </trkpt>
      <trkpt lat="44.00773" lon="2.58119">
        <ele>368</ele>
        <time>2021-10-31T11:57:53.768Z</time>
      </trkpt>
      <trkpt lat="44.00773" lon="2.58118">
        <ele>368</ele>
        <time>2021-10-31T11:57:54.768Z</time>
      </trkpt>
      <trkpt lat="44.00773" lon="2.58118">
        <ele>369</ele>
        <time>2021-10-31T11:57:55.768Z</time>
      </trkpt>
      <trkpt lat="44.00773" lon="2.58117">
        <ele>369</ele>
        <time>2021-10-31T11:57:56.768Z</time>
      </trkpt>
      <trkpt lat="44.00771" lon="2.58111">
        <ele>371</ele>
        <time>2021-10-31T11:57:57.768Z</time>
      </trkpt>
      <trkpt lat="44.00771" lon="2.58111">
        <ele>371</ele>
        <time>2021-10-31T11:57:58.768Z</time>
      </trkpt>
      <trkpt lat="44.00771" lon="2.5811">
        <ele>372</ele>
        <time>2021-10-31T11:57:59.768Z</time>
      </trkpt>
      <trkpt lat="44.00771" lon="2.5811">
        <ele>372</ele>
        <time>2021-10-31T11:58:00.768Z</time>
      </trkpt>
      <trkpt lat="44.00771" lon="2.58109">
        <ele>372</ele>
        <time>2021-10-31T11:58:01.768Z</time>
      </trkpt>
      <trkpt lat="44.00771" lon="2.58107">
        <ele>372</ele>
        <time>2021-10-31T11:58:02.768Z</time>
      </trkpt>
      <trkpt lat="44.00771" lon="2.58106">
        <ele>373</ele>
        <time>2021-10-31T11:58:03.768Z</time>
      </trkpt>
      <trkpt lat="44.00771" lon="2.58105">
        <ele>373</ele>
        <time>2021-10-31T11:58:04.768Z</time>
      </trkpt>
      <trkpt lat="44.0077" lon="2.58105">
        <ele>373</ele>
        <time>2021-10-31T11:58:05.768Z</time>
      </trkpt>
      <trkpt lat="44.0077" lon="2.58104">
        <ele>373</ele>
        <time>2021-10-31T11:58:06.768Z</time>
      </trkpt>
      <trkpt lat="44.0077" lon="2.58104">
        <ele>373</ele>
        <time>2021-10-31T11:58:07.768Z</time>
      </trkpt>
      <trkpt lat="44.0077" lon="2.58104">
        <ele>373</ele>
        <time>2021-10-31T11:58:08.768Z</time>
      </trkpt>
      <trkpt lat="44.0077" lon="2.58102">
        <ele>373</ele>
        <time>2021-10-31T11:58:09.768Z</time>
      </trkpt>
      <trkpt lat="44.0077" lon="2.58101">
        <ele>373</ele>
        <time>2021-10-31T11:58:10.768Z</time>
      </trkpt>
      <trkpt lat="44.0077" lon="2.581">
        <ele>374</ele>
        <time>2021-10-31T11:58:11.768Z</time>
      </trkpt>
      <trkpt lat="44.0077" lon="2.58099">
        <ele>374</ele>
        <time>2021-10-31T11:58:12.768Z</time>
      </trkpt>
      <trkpt lat="44.0077" lon="2.58098">
        <ele>374</ele>
        <time>2021-10-31T11:58:13.768Z</time>
      </trkpt>
      <trkpt lat="44.0077" lon="2.58098">
        <ele>374</ele>
        <time>2021-10-31T11:58:14.768Z</time>
      </trkpt>
      <trkpt lat="44.0077" lon="2.58096">
        <ele>374</ele>
        <time>2021-10-31T11:58:15.768Z</time>
      </trkpt>
      <trkpt lat="44.0077" lon="2.58095">
        <ele>374</ele>
        <time>2021-10-31T11:58:16.768Z</time>
      </trkpt>
      <trkpt lat="44.0077" lon="2.58094">
        <ele>374</ele>
        <time>2021-10-31T11:58:17.768Z</time>
      </trkpt>
      <trkpt lat="44.00771" lon="2.58091">
        <ele>375</ele>
        <time>2021-10-31T11:58:18.768Z</time>
      </trkpt>
      <trkpt lat="44.00771" lon="2.5809">
        <ele>375</ele>
        <time>2021-10-31T11:58:19.768Z</time>
      </trkpt>
      <trkpt lat="44.00771" lon="2.58089">
        <ele>376</ele>
        <time>2021-10-31T11:58:20.768Z</time>
      </trkpt>
      <trkpt lat="44.00771" lon="2.58088">
        <ele>376</ele>
        <time>2021-10-31T11:58:21.768Z</time>
      </trkpt>
      <trkpt lat="44.00771" lon="2.58088">
        <ele>376</ele>
        <time>2021-10-31T11:58:22.768Z</time>
      </trkpt>
      <trkpt lat="44.00771" lon="2.58087">
        <ele>376</ele>
        <time>2021-10-31T11:58:23.768Z</time>
      </trkpt>
      <trkpt lat="44.00771" lon="2.58086">
        <ele>376</ele>
        <time>2021-10-31T11:58:24.768Z</time>
      </trkpt>
      <trkpt lat="44.00771" lon="2.58085">
        <ele>376</ele>
        <time>2021-10-31T11:58:25.768Z</time>
      </trkpt>
      <trkpt lat="44.00771" lon="2.58084">
        <ele>376</ele>
        <time>2021-10-31T11:58:26.768Z</time>
      </trkpt>
      <trkpt lat="44.00772" lon="2.58084">
        <ele>376</ele>
        <time>2021-10-31T11:58:27.768Z</time>
      </trkpt>
      <trkpt lat="44.00772" lon="2.58083">
        <ele>376</ele>
        <time>2021-10-31T11:58:28.768Z</time>
      </trkpt>
      <trkpt lat="44.00772" lon="2.58082">
        <ele>376</ele>
        <time>2021-10-31T11:58:29.768Z</time>
      </trkpt>
      <trkpt lat="44.00772" lon="2.58081">
        <ele>376</ele>
        <time>2021-10-31T11:58:30.768Z</time>
      </trkpt>
      <trkpt lat="44.00772" lon="2.58081">
        <ele>377</ele>
        <time>2021-10-31T11:58:31.768Z</time>
      </trkpt>
      <trkpt lat="44.00772" lon="2.5808">
        <ele>377</ele>
        <time>2021-10-31T11:58:32.768Z</time>
      </trkpt>
      <trkpt lat="44.00772" lon="2.58079">
        <ele>377</ele>
        <time>2021-10-31T11:58:33.768Z</time>
      </trkpt>
      <trkpt lat="44.00773" lon="2.58078">
        <ele>377</ele>
        <time>2021-10-31T11:58:34.768Z</time>
      </trkpt>
      <trkpt lat="44.00773" lon="2.58077">
        <ele>377</ele>
        <time>2021-10-31T11:58:35.768Z</time>
      </trkpt>
      <trkpt lat="44.00773" lon="2.58076">
        <ele>377</ele>
        <time>2021-10-31T11:58:36.768Z</time>
      </trkpt>
      <trkpt lat="44.00773" lon="2.58076">
        <ele>377</ele>
        <time>2021-10-31T11:59:35.778Z</time>
      </trkpt>
      <trkpt lat="44.00773" lon="2.58072">
        <ele>378</ele>
        <time>2021-10-31T11:59:36.778Z</time>
      </trkpt>
      <trkpt lat="44.00773" lon="2.58071">
        <ele>378</ele>
        <time>2021-10-31T11:59:46.771Z</time>
      </trkpt>
      <trkpt lat="44.00773" lon="2.5807">
        <ele>378</ele>
        <time>2021-10-31T11:59:47.771Z</time>
      </trkpt>
      <trkpt lat="44.00773" lon="2.58069">
        <ele>378</ele>
        <time>2021-10-31T11:59:48.771Z</time>
      </trkpt>
      <trkpt lat="44.00773" lon="2.58068">
        <ele>378</ele>
        <time>2021-10-31T11:59:55.777Z</time>
      </trkpt>
      <trkpt lat="44.00773" lon="2.58067">
        <ele>379</ele>
        <time>2021-10-31T11:59:56.777Z</time>
      </trkpt>
      <trkpt lat="44.00773" lon="2.58066">
        <ele>379</ele>
        <time>2021-10-31T11:59:57.777Z</time>
      </trkpt>
      <trkpt lat="44.00773" lon="2.58066">
        <ele>379</ele>
        <time>2021-10-31T11:59:58.777Z</time>
      </trkpt>
      <trkpt lat="44.00774" lon="2.58065">
        <ele>379</ele>
        <time>2021-10-31T11:59:59.777Z</time>
      </trkpt>
      <trkpt lat="44.00774" lon="2.58064">
        <ele>380</ele>
        <time>2021-10-31T12:00:00.777Z</time>
      </trkpt>
      <trkpt lat="44.00774" lon="2.58063">
        <ele>380</ele>
        <time>2021-10-31T12:00:01.777Z</time>
      </trkpt>
      <trkpt lat="44.00774" lon="2.58062">
        <ele>380</ele>
        <time>2021-10-31T12:00:02.777Z</time>
      </trkpt>
      <trkpt lat="44.00774" lon="2.58062">
        <ele>380</ele>
        <time>2021-10-31T12:00:03.777Z</time>
      </trkpt>
      <trkpt lat="44.00774" lon="2.58061">
        <ele>380</ele>
        <time>2021-10-31T12:00:07.032Z</time>
      </trkpt>
      <trkpt lat="44.00774" lon="2.5806">
        <ele>381</ele>
        <time>2021-10-31T12:00:08.032Z</time>
      </trkpt>
      <trkpt lat="44.00774" lon="2.58058">
        <ele>381</ele>
        <time>2021-10-31T12:00:09.032Z</time>
      </trkpt>
      <trkpt lat="44.00774" lon="2.58057">
        <ele>381</ele>
        <time>2021-10-31T12:00:10.032Z</time>
      </trkpt>
      <trkpt lat="44.00774" lon="2.58056">
        <ele>382</ele>
        <time>2021-10-31T12:00:11.032Z</time>
      </trkpt>
      <trkpt lat="44.00774" lon="2.58056">
        <ele>382</ele>
        <time>2021-10-31T12:00:12.032Z</time>
      </trkpt>
      <trkpt lat="44.00774" lon="2.58055">
        <ele>382</ele>
        <time>2021-10-31T12:00:13.032Z</time>
      </trkpt>
      <trkpt lat="44.00774" lon="2.58054">
        <ele>382</ele>
        <time>2021-10-31T12:00:14.032Z</time>
      </trkpt>
      <trkpt lat="44.00774" lon="2.58053">
        <ele>383</ele>
        <time>2021-10-31T12:00:15.032Z</time>
      </trkpt>
      <trkpt lat="44.00773" lon="2.58052">
        <ele>383</ele>
        <time>2021-10-31T12:00:16.032Z</time>
      </trkpt>
      <trkpt lat="44.00773" lon="2.58051">
        <ele>383</ele>
        <time>2021-10-31T12:00:17.032Z</time>
      </trkpt>
      <trkpt lat="44.00773" lon="2.58051">
        <ele>384</ele>
        <time>2021-10-31T12:00:18.032Z</time>
      </trkpt>
      <trkpt lat="44.00772" lon="2.5805">
        <ele>384</ele>
        <time>2021-10-31T12:00:19.032Z</time>
      </trkpt>
      <trkpt lat="44.00772" lon="2.58049">
        <ele>384</ele>
        <time>2021-10-31T12:00:20.032Z</time>
      </trkpt>
      <trkpt lat="44.00771" lon="2.58048">
        <ele>384</ele>
        <time>2021-10-31T12:00:21.032Z</time>
      </trkpt>
      <trkpt lat="44.00771" lon="2.58048">
        <ele>385</ele>
        <time>2021-10-31T12:00:22.032Z</time>
      </trkpt>
      <trkpt lat="44.0077" lon="2.58047">
        <ele>385</ele>
        <time>2021-10-31T12:00:23.032Z</time>
      </trkpt>
      <trkpt lat="44.0077" lon="2.58046">
        <ele>385</ele>
        <time>2021-10-31T12:00:24.032Z</time>
      </trkpt>
      <trkpt lat="44.0077" lon="2.58045">
        <ele>386</ele>
        <time>2021-10-31T12:00:25.032Z</time>
      </trkpt>
      <trkpt lat="44.00769" lon="2.58044">
        <ele>386</ele>
        <time>2021-10-31T12:00:26.032Z</time>
      </trkpt>
      <trkpt lat="44.00769" lon="2.58044">
        <ele>386</ele>
        <time>2021-10-31T12:00:27.032Z</time>
      </trkpt>
      <trkpt lat="44.00769" lon="2.58043">
        <ele>386</ele>
        <time>2021-10-31T12:00:28.032Z</time>
      </trkpt>
      <trkpt lat="44.00769" lon="2.58042">
        <ele>387</ele>
        <time>2021-10-31T12:00:29.032Z</time>
      </trkpt>
      <trkpt lat="44.00769" lon="2.58042">
        <ele>387</ele>
        <time>2021-10-31T12:00:30.032Z</time>
      </trkpt>
      <trkpt lat="44.00769" lon="2.58041">
        <ele>387</ele>
        <time>2021-10-31T12:00:31.032Z</time>
      </trkpt>
      <trkpt lat="44.00768" lon="2.5804">
        <ele>387</ele>
        <time>2021-10-31T12:00:32.032Z</time>
      </trkpt>
      <trkpt lat="44.00768" lon="2.58039">
        <ele>387</ele>
        <time>2021-10-31T12:00:33.032Z</time>
      </trkpt>
      <trkpt lat="44.00768" lon="2.58038">
        <ele>387</ele>
        <time>2021-10-31T12:00:34.032Z</time>
      </trkpt>
      <trkpt lat="44.00767" lon="2.58038">
        <ele>388</ele>
        <time>2021-10-31T12:00:35.032Z</time>
      </trkpt>
      <trkpt lat="44.00767" lon="2.58037">
        <ele>388</ele>
        <time>2021-10-31T12:00:36.032Z</time>
      </trkpt>
      <trkpt lat="44.00767" lon="2.58036">
        <ele>388</ele>
        <time>2021-10-31T12:00:37.032Z</time>
      </trkpt>
      <trkpt lat="44.00767" lon="2.58035">
        <ele>388</ele>
        <time>2021-10-31T12:00:38.032Z</time>
      </trkpt>
      <trkpt lat="44.00766" lon="2.58034">
        <ele>388</ele>
        <time>2021-10-31T12:00:39.032Z</time>
      </trkpt>
      <trkpt lat="44.00766" lon="2.58033">
        <ele>388</ele>
        <time>2021-10-31T12:00:40.032Z</time>
      </trkpt>
      <trkpt lat="44.00766" lon="2.58032">
        <ele>388</ele>
        <time>2021-10-31T12:00:41.032Z</time>
      </trkpt>
      <trkpt lat="44.00766" lon="2.58032">
        <ele>388</ele>
        <time>2021-10-31T12:00:42.032Z</time>
      </trkpt>
      <trkpt lat="44.00766" lon="2.58031">
        <ele>388</ele>
        <time>2021-10-31T12:00:43.032Z</time>
      </trkpt>
      <trkpt lat="44.00766" lon="2.58031">
        <ele>388</ele>
        <time>2021-10-31T12:00:44.032Z</time>
      </trkpt>
      <trkpt lat="44.00766" lon="2.5803">
        <ele>388</ele>
        <time>2021-10-31T12:00:45.032Z</time>
      </trkpt>
      <trkpt lat="44.00767" lon="2.58028">
        <ele>388</ele>
        <time>2021-10-31T12:00:46.032Z</time>
      </trkpt>
      <trkpt lat="44.00767" lon="2.58027">
        <ele>388</ele>
        <time>2021-10-31T12:00:47.032Z</time>
      </trkpt>
      <trkpt lat="44.00767" lon="2.58027">
        <ele>388</ele>
        <time>2021-10-31T12:00:48.032Z</time>
      </trkpt>
      <trkpt lat="44.00767" lon="2.58023">
        <ele>389</ele>
        <time>2021-10-31T12:00:49.032Z</time>
      </trkpt>
      <trkpt lat="44.00767" lon="2.58023">
        <ele>389</ele>
        <time>2021-10-31T12:00:50.032Z</time>
      </trkpt>
      <trkpt lat="44.00766" lon="2.58022">
        <ele>389</ele>
        <time>2021-10-31T12:00:51.032Z</time>
      </trkpt>
      <trkpt lat="44.00765" lon="2.58021">
        <ele>389</ele>
        <time>2021-10-31T12:00:52.032Z</time>
      </trkpt>
      <trkpt lat="44.00765" lon="2.58021">
        <ele>389</ele>
        <time>2021-10-31T12:00:53.032Z</time>
      </trkpt>
      <trkpt lat="44.00764" lon="2.5802">
        <ele>389</ele>
        <time>2021-10-31T12:00:54.032Z</time>
      </trkpt>
      <trkpt lat="44.00764" lon="2.5802">
        <ele>389</ele>
        <time>2021-10-31T12:00:55.032Z</time>
      </trkpt>
      <trkpt lat="44.00763" lon="2.58018">
        <ele>389</ele>
        <time>2021-10-31T12:00:56.032Z</time>
      </trkpt>
      <trkpt lat="44.00763" lon="2.58017">
        <ele>389</ele>
        <time>2021-10-31T12:00:57.032Z</time>
      </trkpt>
      <trkpt lat="44.00763" lon="2.58017">
        <ele>389</ele>
        <time>2021-10-31T12:00:58.032Z</time>
      </trkpt>
      <trkpt lat="44.00763" lon="2.58016">
        <ele>389</ele>
        <time>2021-10-31T12:00:59.032Z</time>
      </trkpt>
      <trkpt lat="44.00762" lon="2.58015">
        <ele>389</ele>
        <time>2021-10-31T12:01:00.032Z</time>
      </trkpt>
      <trkpt lat="44.00762" lon="2.58015">
        <ele>389</ele>
        <time>2021-10-31T12:01:01.032Z</time>
      </trkpt>
      <trkpt lat="44.00762" lon="2.58015">
        <ele>389</ele>
        <time>2021-10-31T12:01:02.032Z</time>
      </trkpt>
      <trkpt lat="44.00762" lon="2.58013">
        <ele>389</ele>
        <time>2021-10-31T12:01:03.032Z</time>
      </trkpt>
      <trkpt lat="44.00762" lon="2.58013">
        <ele>389</ele>
        <time>2021-10-31T12:01:04.032Z</time>
      </trkpt>
      <trkpt lat="44.00762" lon="2.58011">
        <ele>389</ele>
        <time>2021-10-31T12:01:05.032Z</time>
      </trkpt>
      <trkpt lat="44.00762" lon="2.58011">
        <ele>389</ele>
        <time>2021-10-31T12:01:06.032Z</time>
      </trkpt>
      <trkpt lat="44.00761" lon="2.5801">
        <ele>389</ele>
        <time>2021-10-31T12:01:07.032Z</time>
      </trkpt>
      <trkpt lat="44.0076" lon="2.58009">
        <ele>389</ele>
        <time>2021-10-31T12:01:08.032Z</time>
      </trkpt>
      <trkpt lat="44.0076" lon="2.58009">
        <ele>389</ele>
        <time>2021-10-31T12:01:09.032Z</time>
      </trkpt>
      <trkpt lat="44.0076" lon="2.58007">
        <ele>389</ele>
        <time>2021-10-31T12:01:10.032Z</time>
      </trkpt>
      <trkpt lat="44.00759" lon="2.58006">
        <ele>389</ele>
        <time>2021-10-31T12:01:11.032Z</time>
      </trkpt>
      <trkpt lat="44.00759" lon="2.58005">
        <ele>389</ele>
        <time>2021-10-31T12:01:12.032Z</time>
      </trkpt>
      <trkpt lat="44.00759" lon="2.58004">
        <ele>389</ele>
        <time>2021-10-31T12:01:13.032Z</time>
      </trkpt>
      <trkpt lat="44.00758" lon="2.58003">
        <ele>389</ele>
        <time>2021-10-31T12:01:14.032Z</time>
      </trkpt>
      <trkpt lat="44.00758" lon="2.58003">
        <ele>389</ele>
        <time>2021-10-31T12:01:15.032Z</time>
      </trkpt>
      <trkpt lat="44.00757" lon="2.58002">
        <ele>389</ele>
        <time>2021-10-31T12:01:16.032Z</time>
      </trkpt>
      <trkpt lat="44.00757" lon="2.58002">
        <ele>389</ele>
        <time>2021-10-31T12:01:17.032Z</time>
      </trkpt>
      <trkpt lat="44.00757" lon="2.58002">
        <ele>389</ele>
        <time>2021-10-31T12:01:18.032Z</time>
      </trkpt>
      <trkpt lat="44.00756" lon="2.58">
        <ele>389</ele>
        <time>2021-10-31T12:01:19.032Z</time>
      </trkpt>
      <trkpt lat="44.00755" lon="2.57999">
        <ele>389</ele>
        <time>2021-10-31T12:01:20.032Z</time>
      </trkpt>
      <trkpt lat="44.00755" lon="2.57999">
        <ele>390</ele>
        <time>2021-10-31T12:01:21.032Z</time>
      </trkpt>
      <trkpt lat="44.00754" lon="2.57998">
        <ele>390</ele>
        <time>2021-10-31T12:01:22.032Z</time>
      </trkpt>
      <trkpt lat="44.00754" lon="2.57998">
        <ele>390</ele>
        <time>2021-10-31T12:01:23.032Z</time>
      </trkpt>
      <trkpt lat="44.00754" lon="2.57996">
        <ele>390</ele>
        <time>2021-10-31T12:01:24.032Z</time>
      </trkpt>
      <trkpt lat="44.00754" lon="2.57995">
        <ele>390</ele>
        <time>2021-10-31T12:01:25.032Z</time>
      </trkpt>
      <trkpt lat="44.00754" lon="2.57995">
        <ele>390</ele>
        <time>2021-10-31T12:01:26.032Z</time>
      </trkpt>
      <trkpt lat="44.00754" lon="2.57994">
        <ele>390</ele>
        <time>2021-10-31T12:01:27.032Z</time>
      </trkpt>
      <trkpt lat="44.00753" lon="2.57994">
        <ele>390</ele>
        <time>2021-10-31T12:01:28.032Z</time>
      </trkpt>
      <trkpt lat="44.00753" lon="2.57993">
        <ele>391</ele>
        <time>2021-10-31T12:01:29.032Z</time>
      </trkpt>
      <trkpt lat="44.00752" lon="2.57992">
        <ele>391</ele>
        <time>2021-10-31T12:01:30.032Z</time>
      </trkpt>
      <trkpt lat="44.00751" lon="2.57991">
        <ele>391</ele>
        <time>2021-10-31T12:01:31.032Z</time>
      </trkpt>
      <trkpt lat="44.00751" lon="2.5799">
        <ele>391</ele>
        <time>2021-10-31T12:01:32.032Z</time>
      </trkpt>
      <trkpt lat="44.00751" lon="2.5799">
        <ele>391</ele>
        <time>2021-10-31T12:01:33.032Z</time>
      </trkpt>
      <trkpt lat="44.00749" lon="2.57989">
        <ele>391</ele>
        <time>2021-10-31T12:01:34.032Z</time>
      </trkpt>
      <trkpt lat="44.00749" lon="2.57988">
        <ele>391</ele>
        <time>2021-10-31T12:01:35.032Z</time>
      </trkpt>
      <trkpt lat="44.00748" lon="2.57987">
        <ele>391</ele>
        <time>2021-10-31T12:01:36.032Z</time>
      </trkpt>
      <trkpt lat="44.00748" lon="2.57987">
        <ele>391</ele>
        <time>2021-10-31T12:01:37.032Z</time>
      </trkpt>
      <trkpt lat="44.00747" lon="2.57985">
        <ele>391</ele>
        <time>2021-10-31T12:01:38.032Z</time>
      </trkpt>
      <trkpt lat="44.00746" lon="2.57985">
        <ele>391</ele>
        <time>2021-10-31T12:01:39.032Z</time>
      </trkpt>
      <trkpt lat="44.00746" lon="2.57984">
        <ele>391</ele>
        <time>2021-10-31T12:01:40.032Z</time>
      </trkpt>
      <trkpt lat="44.00746" lon="2.57984">
        <ele>391</ele>
        <time>2021-10-31T12:01:41.032Z</time>
      </trkpt>
      <trkpt lat="44.00745" lon="2.57982">
        <ele>392</ele>
        <time>2021-10-31T12:01:42.032Z</time>
      </trkpt>
      <trkpt lat="44.00745" lon="2.57982">
        <ele>392</ele>
        <time>2021-10-31T12:01:43.032Z</time>
      </trkpt>
      <trkpt lat="44.00744" lon="2.57982">
        <ele>392</ele>
        <time>2021-10-31T12:01:44.032Z</time>
      </trkpt>
      <trkpt lat="44.00744" lon="2.57981">
        <ele>392</ele>
        <time>2021-10-31T12:01:45.032Z</time>
      </trkpt>
      <trkpt lat="44.00744" lon="2.57981">
        <ele>392</ele>
        <time>2021-10-31T12:01:46.032Z</time>
      </trkpt>
      <trkpt lat="44.00743" lon="2.5798">
        <ele>393</ele>
        <time>2021-10-31T12:01:47.032Z</time>
      </trkpt>
      <trkpt lat="44.00742" lon="2.57979">
        <ele>393</ele>
        <time>2021-10-31T12:02:04.044Z</time>
      </trkpt>
      <trkpt lat="44.00742" lon="2.57978">
        <ele>393</ele>
        <time>2021-10-31T12:02:05.044Z</time>
      </trkpt>
      <trkpt lat="44.00742" lon="2.57978">
        <ele>393</ele>
        <time>2021-10-31T12:02:06.044Z</time>
      </trkpt>
      <trkpt lat="44.00741" lon="2.57977">
        <ele>393</ele>
        <time>2021-10-31T12:02:07.044Z</time>
      </trkpt>
      <trkpt lat="44.00741" lon="2.57976">
        <ele>393</ele>
        <time>2021-10-31T12:02:08.044Z</time>
      </trkpt>
      <trkpt lat="44.0074" lon="2.57975">
        <ele>393</ele>
        <time>2021-10-31T12:02:09.044Z</time>
      </trkpt>
      <trkpt lat="44.00739" lon="2.57975">
        <ele>393</ele>
        <time>2021-10-31T12:02:10.044Z</time>
      </trkpt>
      <trkpt lat="44.00739" lon="2.57974">
        <ele>393</ele>
        <time>2021-10-31T12:02:11.044Z</time>
      </trkpt>
      <trkpt lat="44.00738" lon="2.57973">
        <ele>393</ele>
        <time>2021-10-31T12:02:12.044Z</time>
      </trkpt>
      <trkpt lat="44.00738" lon="2.57973">
        <ele>393</ele>
        <time>2021-10-31T12:02:13.044Z</time>
      </trkpt>
      <trkpt lat="44.00737" lon="2.57972">
        <ele>393</ele>
        <time>2021-10-31T12:02:14.044Z</time>
      </trkpt>
      <trkpt lat="44.00736" lon="2.57971">
        <ele>393</ele>
        <time>2021-10-31T12:02:15.044Z</time>
      </trkpt>
      <trkpt lat="44.00735" lon="2.5797">
        <ele>393</ele>
        <time>2021-10-31T12:02:16.044Z</time>
      </trkpt>
      <trkpt lat="44.00735" lon="2.5797">
        <ele>393</ele>
        <time>2021-10-31T12:02:17.044Z</time>
      </trkpt>
      <trkpt lat="44.00734" lon="2.57969">
        <ele>393</ele>
        <time>2021-10-31T12:02:18.044Z</time>
      </trkpt>
      <trkpt lat="44.00734" lon="2.57968">
        <ele>393</ele>
        <time>2021-10-31T12:02:19.044Z</time>
      </trkpt>
      <trkpt lat="44.00734" lon="2.57967">
        <ele>393</ele>
        <time>2021-10-31T12:02:20.044Z</time>
      </trkpt>
      <trkpt lat="44.00733" lon="2.57967">
        <ele>393</ele>
        <time>2021-10-31T12:02:21.044Z</time>
      </trkpt>
      <trkpt lat="44.00733" lon="2.57967">
        <ele>393</ele>
        <time>2021-10-31T12:02:22.044Z</time>
      </trkpt>
      <trkpt lat="44.00733" lon="2.57966">
        <ele>393</ele>
        <time>2021-10-31T12:02:23.044Z</time>
      </trkpt>
      <trkpt lat="44.00733" lon="2.57965">
        <ele>393</ele>
        <time>2021-10-31T12:02:24.044Z</time>
      </trkpt>
      <trkpt lat="44.00732" lon="2.57964">
        <ele>394</ele>
        <time>2021-10-31T12:02:25.044Z</time>
      </trkpt>
      <trkpt lat="44.00731" lon="2.57963">
        <ele>394</ele>
        <time>2021-10-31T12:02:26.044Z</time>
      </trkpt>
      <trkpt lat="44.00731" lon="2.57963">
        <ele>394</ele>
        <time>2021-10-31T12:02:27.044Z</time>
      </trkpt>
      <trkpt lat="44.0073" lon="2.57962">
        <ele>394</ele>
        <time>2021-10-31T12:02:28.044Z</time>
      </trkpt>
      <trkpt lat="44.0073" lon="2.57962">
        <ele>394</ele>
        <time>2021-10-31T12:02:29.044Z</time>
      </trkpt>
      <trkpt lat="44.00729" lon="2.57961">
        <ele>394</ele>
        <time>2021-10-31T12:02:30.044Z</time>
      </trkpt>
      <trkpt lat="44.00729" lon="2.5796">
        <ele>394</ele>
        <time>2021-10-31T12:02:31.044Z</time>
      </trkpt>
      <trkpt lat="44.00728" lon="2.57959">
        <ele>394</ele>
        <time>2021-10-31T12:02:32.044Z</time>
      </trkpt>
      <trkpt lat="44.00728" lon="2.57959">
        <ele>394</ele>
        <time>2021-10-31T12:02:33.044Z</time>
      </trkpt>
      <trkpt lat="44.00727" lon="2.57958">
        <ele>394</ele>
        <time>2021-10-31T12:02:34.044Z</time>
      </trkpt>
      <trkpt lat="44.00727" lon="2.57958">
        <ele>394</ele>
        <time>2021-10-31T12:02:35.044Z</time>
      </trkpt>
      <trkpt lat="44.00727" lon="2.57957">
        <ele>394</ele>
        <time>2021-10-31T12:02:36.044Z</time>
      </trkpt>
      <trkpt lat="44.00726" lon="2.57957">
        <ele>395</ele>
        <time>2021-10-31T12:02:37.044Z</time>
      </trkpt>
      <trkpt lat="44.00726" lon="2.57956">
        <ele>395</ele>
        <time>2021-10-31T12:02:38.044Z</time>
      </trkpt>
      <trkpt lat="44.00725" lon="2.57956">
        <ele>395</ele>
        <time>2021-10-31T12:02:39.044Z</time>
      </trkpt>
      <trkpt lat="44.00725" lon="2.57955">
        <ele>395</ele>
        <time>2021-10-31T12:02:40.044Z</time>
      </trkpt>
      <trkpt lat="44.00724" lon="2.57954">
        <ele>395</ele>
        <time>2021-10-31T12:02:41.044Z</time>
      </trkpt>
      <trkpt lat="44.00724" lon="2.57954">
        <ele>395</ele>
        <time>2021-10-31T12:02:42.044Z</time>
      </trkpt>
      <trkpt lat="44.00723" lon="2.57953">
        <ele>395</ele>
        <time>2021-10-31T12:02:43.044Z</time>
      </trkpt>
      <trkpt lat="44.00723" lon="2.57952">
        <ele>395</ele>
        <time>2021-10-31T12:02:44.044Z</time>
      </trkpt>
      <trkpt lat="44.00722" lon="2.57952">
        <ele>395</ele>
        <time>2021-10-31T12:02:45.044Z</time>
      </trkpt>
      <trkpt lat="44.00722" lon="2.57951">
        <ele>396</ele>
        <time>2021-10-31T12:02:46.044Z</time>
      </trkpt>
      <trkpt lat="44.00721" lon="2.5795">
        <ele>396</ele>
        <time>2021-10-31T12:02:47.044Z</time>
      </trkpt>
      <trkpt lat="44.00721" lon="2.5795">
        <ele>396</ele>
        <time>2021-10-31T12:02:48.044Z</time>
      </trkpt>
      <trkpt lat="44.0072" lon="2.57949">
        <ele>396</ele>
        <time>2021-10-31T12:02:49.044Z</time>
      </trkpt>
      <trkpt lat="44.0072" lon="2.57949">
        <ele>396</ele>
        <time>2021-10-31T12:02:50.044Z</time>
      </trkpt>
      <trkpt lat="44.00719" lon="2.57949">
        <ele>396</ele>
        <time>2021-10-31T12:02:51.044Z</time>
      </trkpt>
      <trkpt lat="44.00718" lon="2.57949">
        <ele>397</ele>
        <time>2021-10-31T12:02:52.044Z</time>
      </trkpt>
      <trkpt lat="44.00718" lon="2.57948">
        <ele>397</ele>
        <time>2021-10-31T12:02:53.044Z</time>
      </trkpt>
      <trkpt lat="44.00718" lon="2.57948">
        <ele>397</ele>
        <time>2021-10-31T12:02:54.044Z</time>
      </trkpt>
      <trkpt lat="44.00717" lon="2.57947">
        <ele>397</ele>
        <time>2021-10-31T12:02:55.044Z</time>
      </trkpt>
      <trkpt lat="44.00717" lon="2.57947">
        <ele>397</ele>
        <time>2021-10-31T12:02:56.044Z</time>
      </trkpt>
      <trkpt lat="44.00716" lon="2.57946">
        <ele>397</ele>
        <time>2021-10-31T12:02:57.044Z</time>
      </trkpt>
      <trkpt lat="44.00715" lon="2.57945">
        <ele>397</ele>
        <time>2021-10-31T12:02:58.044Z</time>
      </trkpt>
      <trkpt lat="44.00715" lon="2.57945">
        <ele>397</ele>
        <time>2021-10-31T12:02:59.044Z</time>
      </trkpt>
      <trkpt lat="44.00714" lon="2.57944">
        <ele>398</ele>
        <time>2021-10-31T12:03:00.044Z</time>
      </trkpt>
      <trkpt lat="44.00714" lon="2.57944">
        <ele>398</ele>
        <time>2021-10-31T12:03:01.044Z</time>
      </trkpt>
      <trkpt lat="44.00713" lon="2.57944">
        <ele>398</ele>
        <time>2021-10-31T12:03:02.044Z</time>
      </trkpt>
      <trkpt lat="44.00712" lon="2.57943">
        <ele>398</ele>
        <time>2021-10-31T12:03:03.044Z</time>
      </trkpt>
      <trkpt lat="44.00712" lon="2.57943">
        <ele>398</ele>
        <time>2021-10-31T12:03:04.044Z</time>
      </trkpt>
      <trkpt lat="44.00711" lon="2.57942">
        <ele>398</ele>
        <time>2021-10-31T12:03:05.044Z</time>
      </trkpt>
      <trkpt lat="44.0071" lon="2.57942">
        <ele>398</ele>
        <time>2021-10-31T12:03:06.044Z</time>
      </trkpt>
      <trkpt lat="44.0071" lon="2.57942">
        <ele>398</ele>
        <time>2021-10-31T12:03:07.044Z</time>
      </trkpt>
      <trkpt lat="44.00709" lon="2.57942">
        <ele>398</ele>
        <time>2021-10-31T12:03:08.044Z</time>
      </trkpt>
      <trkpt lat="44.00709" lon="2.57941">
        <ele>398</ele>
        <time>2021-10-31T12:03:09.044Z</time>
      </trkpt>
      <trkpt lat="44.00708" lon="2.57941">
        <ele>398</ele>
        <time>2021-10-31T12:03:10.044Z</time>
      </trkpt>
      <trkpt lat="44.00708" lon="2.5794">
        <ele>399</ele>
        <time>2021-10-31T12:03:11.044Z</time>
      </trkpt>
      <trkpt lat="44.00707" lon="2.5794">
        <ele>399</ele>
        <time>2021-10-31T12:03:12.044Z</time>
      </trkpt>
      <trkpt lat="44.00707" lon="2.5794">
        <ele>399</ele>
        <time>2021-10-31T12:03:13.044Z</time>
      </trkpt>
      <trkpt lat="44.00706" lon="2.5794">
        <ele>399</ele>
        <time>2021-10-31T12:03:14.044Z</time>
      </trkpt>
      <trkpt lat="44.00706" lon="2.5794">
        <ele>399</ele>
        <time>2021-10-31T12:03:15.044Z</time>
      </trkpt>
      <trkpt lat="44.00705" lon="2.57939">
        <ele>399</ele>
        <time>2021-10-31T12:03:16.044Z</time>
      </trkpt>
      <trkpt lat="44.00705" lon="2.57938">
        <ele>399</ele>
        <time>2021-10-31T12:03:17.044Z</time>
      </trkpt>
      <trkpt lat="44.00704" lon="2.57938">
        <ele>400</ele>
        <time>2021-10-31T12:03:18.044Z</time>
      </trkpt>
      <trkpt lat="44.00703" lon="2.57938">
        <ele>400</ele>
        <time>2021-10-31T12:03:19.044Z</time>
      </trkpt>
      <trkpt lat="44.00703" lon="2.57937">
        <ele>400</ele>
        <time>2021-10-31T12:03:20.044Z</time>
      </trkpt>
      <trkpt lat="44.00702" lon="2.57937">
        <ele>400</ele>
        <time>2021-10-31T12:03:21.044Z</time>
      </trkpt>
      <trkpt lat="44.00701" lon="2.57936">
        <ele>400</ele>
        <time>2021-10-31T12:03:22.044Z</time>
      </trkpt>
      <trkpt lat="44.00701" lon="2.57936">
        <ele>401</ele>
        <time>2021-10-31T12:03:23.044Z</time>
      </trkpt>
      <trkpt lat="44.007" lon="2.57935">
        <ele>401</ele>
        <time>2021-10-31T12:03:24.044Z</time>
      </trkpt>
      <trkpt lat="44.007" lon="2.57935">
        <ele>401</ele>
        <time>2021-10-31T12:03:25.044Z</time>
      </trkpt>
      <trkpt lat="44.00699" lon="2.57935">
        <ele>401</ele>
        <time>2021-10-31T12:03:26.044Z</time>
      </trkpt>
      <trkpt lat="44.00698" lon="2.57934">
        <ele>401</ele>
        <time>2021-10-31T12:03:27.044Z</time>
      </trkpt>
      <trkpt lat="44.00698" lon="2.57934">
        <ele>401</ele>
        <time>2021-10-31T12:03:28.044Z</time>
      </trkpt>
      <trkpt lat="44.00697" lon="2.57934">
        <ele>402</ele>
        <time>2021-10-31T12:03:29.044Z</time>
      </trkpt>
      <trkpt lat="44.00697" lon="2.57933">
        <ele>402</ele>
        <time>2021-10-31T12:03:30.044Z</time>
      </trkpt>
      <trkpt lat="44.00696" lon="2.57933">
        <ele>402</ele>
        <time>2021-10-31T12:03:31.044Z</time>
      </trkpt>
      <trkpt lat="44.00696" lon="2.57933">
        <ele>402</ele>
        <time>2021-10-31T12:03:32.044Z</time>
      </trkpt>
      <trkpt lat="44.00695" lon="2.57932">
        <ele>402</ele>
        <time>2021-10-31T12:03:33.044Z</time>
      </trkpt>
      <trkpt lat="44.00695" lon="2.57932">
        <ele>403</ele>
        <time>2021-10-31T12:03:34.044Z</time>
      </trkpt>
      <trkpt lat="44.00694" lon="2.57931">
        <ele>403</ele>
        <time>2021-10-31T12:03:35.044Z</time>
      </trkpt>
      <trkpt lat="44.00694" lon="2.57931">
        <ele>403</ele>
        <time>2021-10-31T12:03:36.044Z</time>
      </trkpt>
      <trkpt lat="44.00693" lon="2.57931">
        <ele>403</ele>
        <time>2021-10-31T12:03:37.044Z</time>
      </trkpt>
      <trkpt lat="44.00692" lon="2.5793">
        <ele>403</ele>
        <time>2021-10-31T12:03:38.044Z</time>
      </trkpt>
      <trkpt lat="44.00692" lon="2.5793">
        <ele>403</ele>
        <time>2021-10-31T12:03:39.044Z</time>
      </trkpt>
      <trkpt lat="44.00691" lon="2.5793">
        <ele>403</ele>
        <time>2021-10-31T12:03:40.044Z</time>
      </trkpt>
      <trkpt lat="44.0069" lon="2.5793">
        <ele>403</ele>
        <time>2021-10-31T12:03:41.044Z</time>
      </trkpt>
      <trkpt lat="44.00689" lon="2.57929">
        <ele>404</ele>
        <time>2021-10-31T12:03:42.044Z</time>
      </trkpt>
      <trkpt lat="44.00689" lon="2.57929">
        <ele>404</ele>
        <time>2021-10-31T12:03:43.044Z</time>
      </trkpt>
      <trkpt lat="44.00688" lon="2.57928">
        <ele>404</ele>
        <time>2021-10-31T12:03:44.044Z</time>
      </trkpt>
      <trkpt lat="44.00688" lon="2.57928">
        <ele>404</ele>
        <time>2021-10-31T12:03:45.044Z</time>
      </trkpt>
      <trkpt lat="44.00687" lon="2.57927">
        <ele>404</ele>
        <time>2021-10-31T12:03:46.044Z</time>
      </trkpt>
      <trkpt lat="44.00686" lon="2.57927">
        <ele>404</ele>
        <time>2021-10-31T12:03:47.044Z</time>
      </trkpt>
      <trkpt lat="44.00685" lon="2.57927">
        <ele>404</ele>
        <time>2021-10-31T12:03:48.044Z</time>
      </trkpt>
      <trkpt lat="44.00684" lon="2.57926">
        <ele>404</ele>
        <time>2021-10-31T12:03:49.044Z</time>
      </trkpt>
      <trkpt lat="44.00684" lon="2.57926">
        <ele>404</ele>
        <time>2021-10-31T12:03:50.044Z</time>
      </trkpt>
      <trkpt lat="44.00683" lon="2.57925">
        <ele>404</ele>
        <time>2021-10-31T12:03:51.044Z</time>
      </trkpt>
      <trkpt lat="44.00683" lon="2.57925">
        <ele>405</ele>
        <time>2021-10-31T12:03:52.044Z</time>
      </trkpt>
      <trkpt lat="44.00682" lon="2.57924">
        <ele>405</ele>
        <time>2021-10-31T12:03:53.044Z</time>
      </trkpt>
      <trkpt lat="44.00681" lon="2.57923">
        <ele>405</ele>
        <time>2021-10-31T12:03:54.044Z</time>
      </trkpt>
      <trkpt lat="44.00681" lon="2.57923">
        <ele>405</ele>
        <time>2021-10-31T12:03:55.044Z</time>
      </trkpt>
      <trkpt lat="44.00681" lon="2.57922">
        <ele>405</ele>
        <time>2021-10-31T12:03:56.044Z</time>
      </trkpt>
      <trkpt lat="44.0068" lon="2.57922">
        <ele>405</ele>
        <time>2021-10-31T12:03:57.044Z</time>
      </trkpt>
      <trkpt lat="44.0068" lon="2.57921">
        <ele>405</ele>
        <time>2021-10-31T12:03:58.044Z</time>
      </trkpt>
      <trkpt lat="44.00679" lon="2.57921">
        <ele>405</ele>
        <time>2021-10-31T12:03:59.044Z</time>
      </trkpt>
      <trkpt lat="44.00679" lon="2.57921">
        <ele>406</ele>
        <time>2021-10-31T12:04:00.044Z</time>
      </trkpt>
      <trkpt lat="44.00678" lon="2.5792">
        <ele>406</ele>
        <time>2021-10-31T12:04:01.044Z</time>
      </trkpt>
      <trkpt lat="44.00678" lon="2.5792">
        <ele>406</ele>
        <time>2021-10-31T12:04:02.044Z</time>
      </trkpt>
      <trkpt lat="44.00677" lon="2.57919">
        <ele>406</ele>
        <time>2021-10-31T12:04:03.044Z</time>
      </trkpt>
      <trkpt lat="44.00677" lon="2.57919">
        <ele>406</ele>
        <time>2021-10-31T12:04:04.044Z</time>
      </trkpt>
      <trkpt lat="44.00676" lon="2.57918">
        <ele>406</ele>
        <time>2021-10-31T12:04:05.044Z</time>
      </trkpt>
      <trkpt lat="44.00676" lon="2.57918">
        <ele>406</ele>
        <time>2021-10-31T12:04:06.044Z</time>
      </trkpt>
      <trkpt lat="44.00675" lon="2.57917">
        <ele>406</ele>
        <time>2021-10-31T12:04:07.044Z</time>
      </trkpt>
      <trkpt lat="44.00675" lon="2.57917">
        <ele>406</ele>
        <time>2021-10-31T12:04:08.044Z</time>
      </trkpt>
      <trkpt lat="44.00674" lon="2.57916">
        <ele>407</ele>
        <time>2021-10-31T12:04:09.044Z</time>
      </trkpt>
      <trkpt lat="44.00673" lon="2.57916">
        <ele>407</ele>
        <time>2021-10-31T12:04:10.044Z</time>
      </trkpt>
      <trkpt lat="44.00673" lon="2.57915">
        <ele>407</ele>
        <time>2021-10-31T12:04:11.044Z</time>
      </trkpt>
      <trkpt lat="44.00672" lon="2.57915">
        <ele>407</ele>
        <time>2021-10-31T12:04:12.044Z</time>
      </trkpt>
      <trkpt lat="44.00672" lon="2.57914">
        <ele>407</ele>
        <time>2021-10-31T12:04:13.044Z</time>
      </trkpt>
      <trkpt lat="44.00671" lon="2.57914">
        <ele>407</ele>
        <time>2021-10-31T12:04:14.044Z</time>
      </trkpt>
      <trkpt lat="44.00671" lon="2.57913">
        <ele>407</ele>
        <time>2021-10-31T12:04:15.044Z</time>
      </trkpt>
      <trkpt lat="44.0067" lon="2.57913">
        <ele>407</ele>
        <time>2021-10-31T12:04:16.044Z</time>
      </trkpt>
      <trkpt lat="44.0067" lon="2.57913">
        <ele>407</ele>
        <time>2021-10-31T12:04:17.044Z</time>
      </trkpt>
      <trkpt lat="44.00669" lon="2.57912">
        <ele>407</ele>
        <time>2021-10-31T12:04:18.044Z</time>
      </trkpt>
      <trkpt lat="44.00669" lon="2.57911">
        <ele>407</ele>
        <time>2021-10-31T12:04:19.044Z</time>
      </trkpt>
      <trkpt lat="44.00668" lon="2.57911">
        <ele>408</ele>
        <time>2021-10-31T12:04:20.044Z</time>
      </trkpt>
      <trkpt lat="44.00668" lon="2.5791">
        <ele>408</ele>
        <time>2021-10-31T12:04:21.044Z</time>
      </trkpt>
      <trkpt lat="44.00667" lon="2.5791">
        <ele>408</ele>
        <time>2021-10-31T12:04:22.044Z</time>
      </trkpt>
      <trkpt lat="44.00666" lon="2.5791">
        <ele>408</ele>
        <time>2021-10-31T12:04:23.044Z</time>
      </trkpt>
      <trkpt lat="44.00666" lon="2.57909">
        <ele>408</ele>
        <time>2021-10-31T12:04:24.044Z</time>
      </trkpt>
      <trkpt lat="44.00665" lon="2.57909">
        <ele>409</ele>
        <time>2021-10-31T12:04:25.044Z</time>
      </trkpt>
      <trkpt lat="44.00664" lon="2.57908">
        <ele>409</ele>
        <time>2021-10-31T12:04:26.044Z</time>
      </trkpt>
      <trkpt lat="44.00664" lon="2.57907">
        <ele>409</ele>
        <time>2021-10-31T12:04:27.044Z</time>
      </trkpt>
      <trkpt lat="44.00663" lon="2.57907">
        <ele>409</ele>
        <time>2021-10-31T12:04:28.044Z</time>
      </trkpt>
      <trkpt lat="44.00663" lon="2.57906">
        <ele>409</ele>
        <time>2021-10-31T12:04:29.044Z</time>
      </trkpt>
      <trkpt lat="44.00662" lon="2.57905">
        <ele>409</ele>
        <time>2021-10-31T12:04:30.044Z</time>
      </trkpt>
      <trkpt lat="44.00662" lon="2.57905">
        <ele>410</ele>
        <time>2021-10-31T12:04:31.044Z</time>
      </trkpt>
      <trkpt lat="44.00661" lon="2.57904">
        <ele>410</ele>
        <time>2021-10-31T12:04:32.044Z</time>
      </trkpt>
      <trkpt lat="44.0066" lon="2.57903">
        <ele>410</ele>
        <time>2021-10-31T12:04:33.044Z</time>
      </trkpt>
      <trkpt lat="44.0066" lon="2.57902">
        <ele>410</ele>
        <time>2021-10-31T12:04:34.044Z</time>
      </trkpt>
      <trkpt lat="44.0066" lon="2.57902">
        <ele>410</ele>
        <time>2021-10-31T12:04:35.044Z</time>
      </trkpt>
      <trkpt lat="44.00659" lon="2.57901">
        <ele>410</ele>
        <time>2021-10-31T12:04:36.044Z</time>
      </trkpt>
      <trkpt lat="44.00659" lon="2.579">
        <ele>410</ele>
        <time>2021-10-31T12:04:37.044Z</time>
      </trkpt>
      <trkpt lat="44.00658" lon="2.57899">
        <ele>411</ele>
        <time>2021-10-31T12:04:38.044Z</time>
      </trkpt>
      <trkpt lat="44.00658" lon="2.57899">
        <ele>411</ele>
        <time>2021-10-31T12:04:39.044Z</time>
      </trkpt>
      <trkpt lat="44.00658" lon="2.57898">
        <ele>411</ele>
        <time>2021-10-31T12:04:40.044Z</time>
      </trkpt>
      <trkpt lat="44.00657" lon="2.57897">
        <ele>411</ele>
        <time>2021-10-31T12:04:41.044Z</time>
      </trkpt>
      <trkpt lat="44.00657" lon="2.57896">
        <ele>411</ele>
        <time>2021-10-31T12:04:42.044Z</time>
      </trkpt>
      <trkpt lat="44.00656" lon="2.57895">
        <ele>411</ele>
        <time>2021-10-31T12:04:43.044Z</time>
      </trkpt>
      <trkpt lat="44.00656" lon="2.57894">
        <ele>411</ele>
        <time>2021-10-31T12:04:44.044Z</time>
      </trkpt>
      <trkpt lat="44.00656" lon="2.57893">
        <ele>411</ele>
        <time>2021-10-31T12:04:45.044Z</time>
      </trkpt>
      <trkpt lat="44.00656" lon="2.57892">
        <ele>411</ele>
        <time>2021-10-31T12:04:46.044Z</time>
      </trkpt>
      <trkpt lat="44.00656" lon="2.57891">
        <ele>411</ele>
        <time>2021-10-31T12:04:47.044Z</time>
      </trkpt>
      <trkpt lat="44.00656" lon="2.5789">
        <ele>411</ele>
        <time>2021-10-31T12:04:48.044Z</time>
      </trkpt>
      <trkpt lat="44.00656" lon="2.57889">
        <ele>411</ele>
        <time>2021-10-31T12:04:49.044Z</time>
      </trkpt>
      <trkpt lat="44.00655" lon="2.57889">
        <ele>411</ele>
        <time>2021-10-31T12:04:50.044Z</time>
      </trkpt>
      <trkpt lat="44.00655" lon="2.57888">
        <ele>411</ele>
        <time>2021-10-31T12:04:51.044Z</time>
      </trkpt>
      <trkpt lat="44.00654" lon="2.57887">
        <ele>411</ele>
        <time>2021-10-31T12:04:52.044Z</time>
      </trkpt>
      <trkpt lat="44.00654" lon="2.57886">
        <ele>411</ele>
        <time>2021-10-31T12:04:53.044Z</time>
      </trkpt>
      <trkpt lat="44.00653" lon="2.57885">
        <ele>411</ele>
        <time>2021-10-31T12:04:54.044Z</time>
      </trkpt>
      <trkpt lat="44.00653" lon="2.57884">
        <ele>412</ele>
        <time>2021-10-31T12:04:55.044Z</time>
      </trkpt>
      <trkpt lat="44.00652" lon="2.57883">
        <ele>412</ele>
        <time>2021-10-31T12:04:56.044Z</time>
      </trkpt>
      <trkpt lat="44.00652" lon="2.57883">
        <ele>412</ele>
        <time>2021-10-31T12:04:57.044Z</time>
      </trkpt>
      <trkpt lat="44.00651" lon="2.57882">
        <ele>412</ele>
        <time>2021-10-31T12:04:58.044Z</time>
      </trkpt>
      <trkpt lat="44.00651" lon="2.57881">
        <ele>412</ele>
        <time>2021-10-31T12:04:59.044Z</time>
      </trkpt>
      <trkpt lat="44.0065" lon="2.5788">
        <ele>412</ele>
        <time>2021-10-31T12:05:00.044Z</time>
      </trkpt>
      <trkpt lat="44.0065" lon="2.57879">
        <ele>412</ele>
        <time>2021-10-31T12:05:01.044Z</time>
      </trkpt>
      <trkpt lat="44.00649" lon="2.57878">
        <ele>413</ele>
        <time>2021-10-31T12:05:02.044Z</time>
      </trkpt>
      <trkpt lat="44.00649" lon="2.57877">
        <ele>413</ele>
        <time>2021-10-31T12:05:03.044Z</time>
      </trkpt>
      <trkpt lat="44.00648" lon="2.57876">
        <ele>413</ele>
        <time>2021-10-31T12:05:04.044Z</time>
      </trkpt>
      <trkpt lat="44.00648" lon="2.57875">
        <ele>413</ele>
        <time>2021-10-31T12:05:05.044Z</time>
      </trkpt>
      <trkpt lat="44.00648" lon="2.57874">
        <ele>413</ele>
        <time>2021-10-31T12:05:06.044Z</time>
      </trkpt>
      <trkpt lat="44.00648" lon="2.57872">
        <ele>413</ele>
        <time>2021-10-31T12:05:07.044Z</time>
      </trkpt>
      <trkpt lat="44.00647" lon="2.57871">
        <ele>413</ele>
        <time>2021-10-31T12:05:08.044Z</time>
      </trkpt>
      <trkpt lat="44.00647" lon="2.5787">
        <ele>413</ele>
        <time>2021-10-31T12:05:09.044Z</time>
      </trkpt>
      <trkpt lat="44.00647" lon="2.57869">
        <ele>414</ele>
        <time>2021-10-31T12:05:10.044Z</time>
      </trkpt>
      <trkpt lat="44.00647" lon="2.57868">
        <ele>414</ele>
        <time>2021-10-31T12:05:11.044Z</time>
      </trkpt>
      <trkpt lat="44.00647" lon="2.57867">
        <ele>414</ele>
        <time>2021-10-31T12:05:12.044Z</time>
      </trkpt>
      <trkpt lat="44.00646" lon="2.57866">
        <ele>414</ele>
        <time>2021-10-31T12:05:13.044Z</time>
      </trkpt>
      <trkpt lat="44.00646" lon="2.57864">
        <ele>414</ele>
        <time>2021-10-31T12:05:14.044Z</time>
      </trkpt>
      <trkpt lat="44.00646" lon="2.57863">
        <ele>414</ele>
        <time>2021-10-31T12:05:15.044Z</time>
      </trkpt>
      <trkpt lat="44.00646" lon="2.57862">
        <ele>414</ele>
        <time>2021-10-31T12:05:16.044Z</time>
      </trkpt>
      <trkpt lat="44.00646" lon="2.57862">
        <ele>414</ele>
        <time>2021-10-31T12:05:17.044Z</time>
      </trkpt>
      <trkpt lat="44.00646" lon="2.5786">
        <ele>415</ele>
        <time>2021-10-31T12:05:18.044Z</time>
      </trkpt>
      <trkpt lat="44.00646" lon="2.5786">
        <ele>415</ele>
        <time>2021-10-31T12:05:19.044Z</time>
      </trkpt>
      <trkpt lat="44.00646" lon="2.57859">
        <ele>415</ele>
        <time>2021-10-31T12:05:20.044Z</time>
      </trkpt>
      <trkpt lat="44.00646" lon="2.57858">
        <ele>415</ele>
        <time>2021-10-31T12:05:21.044Z</time>
      </trkpt>
      <trkpt lat="44.00646" lon="2.57857">
        <ele>415</ele>
        <time>2021-10-31T12:05:22.044Z</time>
      </trkpt>
      <trkpt lat="44.00645" lon="2.57856">
        <ele>415</ele>
        <time>2021-10-31T12:05:23.044Z</time>
      </trkpt>
      <trkpt lat="44.00645" lon="2.57855">
        <ele>416</ele>
        <time>2021-10-31T12:05:24.044Z</time>
      </trkpt>
      <trkpt lat="44.00645" lon="2.57854">
        <ele>416</ele>
        <time>2021-10-31T12:05:25.044Z</time>
      </trkpt>
      <trkpt lat="44.00644" lon="2.57853">
        <ele>416</ele>
        <time>2021-10-31T12:05:26.044Z</time>
      </trkpt>
      <trkpt lat="44.00644" lon="2.57852">
        <ele>416</ele>
        <time>2021-10-31T12:05:27.044Z</time>
      </trkpt>
      <trkpt lat="44.00644" lon="2.57851">
        <ele>416</ele>
        <time>2021-10-31T12:05:28.044Z</time>
      </trkpt>
      <trkpt lat="44.00644" lon="2.5785">
        <ele>416</ele>
        <time>2021-10-31T12:05:29.044Z</time>
      </trkpt>
      <trkpt lat="44.00643" lon="2.57848">
        <ele>417</ele>
        <time>2021-10-31T12:05:30.044Z</time>
      </trkpt>
      <trkpt lat="44.00643" lon="2.57847">
        <ele>417</ele>
        <time>2021-10-31T12:05:31.044Z</time>
      </trkpt>
      <trkpt lat="44.00643" lon="2.57846">
        <ele>417</ele>
        <time>2021-10-31T12:05:32.044Z</time>
      </trkpt>
      <trkpt lat="44.00643" lon="2.57845">
        <ele>417</ele>
        <time>2021-10-31T12:05:33.044Z</time>
      </trkpt>
      <trkpt lat="44.00643" lon="2.57844">
        <ele>417</ele>
        <time>2021-10-31T12:05:34.044Z</time>
      </trkpt>
      <trkpt lat="44.00642" lon="2.57842">
        <ele>418</ele>
        <time>2021-10-31T12:05:35.044Z</time>
      </trkpt>
      <trkpt lat="44.00642" lon="2.5784">
        <ele>418</ele>
        <time>2021-10-31T12:05:36.044Z</time>
      </trkpt>
      <trkpt lat="44.00642" lon="2.57839">
        <ele>418</ele>
        <time>2021-10-31T12:05:37.044Z</time>
      </trkpt>
      <trkpt lat="44.00642" lon="2.57838">
        <ele>418</ele>
        <time>2021-10-31T12:05:38.044Z</time>
      </trkpt>
      <trkpt lat="44.00642" lon="2.57836">
        <ele>418</ele>
        <time>2021-10-31T12:05:39.044Z</time>
      </trkpt>
      <trkpt lat="44.00642" lon="2.57835">
        <ele>418</ele>
        <time>2021-10-31T12:05:40.044Z</time>
      </trkpt>
      <trkpt lat="44.00641" lon="2.57833">
        <ele>418</ele>
        <time>2021-10-31T12:05:41.044Z</time>
      </trkpt>
      <trkpt lat="44.00641" lon="2.57832">
        <ele>419</ele>
        <time>2021-10-31T12:05:42.044Z</time>
      </trkpt>
      <trkpt lat="44.00641" lon="2.5783">
        <ele>419</ele>
        <time>2021-10-31T12:05:43.044Z</time>
      </trkpt>
      <trkpt lat="44.00641" lon="2.57829">
        <ele>419</ele>
        <time>2021-10-31T12:05:44.044Z</time>
      </trkpt>
      <trkpt lat="44.00641" lon="2.57828">
        <ele>419</ele>
        <time>2021-10-31T12:05:45.044Z</time>
      </trkpt>
      <trkpt lat="44.0064" lon="2.57827">
        <ele>419</ele>
        <time>2021-10-31T12:05:46.044Z</time>
      </trkpt>
      <trkpt lat="44.0064" lon="2.57825">
        <ele>419</ele>
        <time>2021-10-31T12:05:47.044Z</time>
      </trkpt>
      <trkpt lat="44.00639" lon="2.57824">
        <ele>419</ele>
        <time>2021-10-31T12:05:48.044Z</time>
      </trkpt>
      <trkpt lat="44.00639" lon="2.57823">
        <ele>419</ele>
        <time>2021-10-31T12:05:49.044Z</time>
      </trkpt>
      <trkpt lat="44.00639" lon="2.57822">
        <ele>419</ele>
        <time>2021-10-31T12:05:50.044Z</time>
      </trkpt>
      <trkpt lat="44.00639" lon="2.5782">
        <ele>419</ele>
        <time>2021-10-31T12:05:51.044Z</time>
      </trkpt>
      <trkpt lat="44.00639" lon="2.57819">
        <ele>419</ele>
        <time>2021-10-31T12:05:52.044Z</time>
      </trkpt>
      <trkpt lat="44.00638" lon="2.57818">
        <ele>419</ele>
        <time>2021-10-31T12:05:53.044Z</time>
      </trkpt>
      <trkpt lat="44.00638" lon="2.57816">
        <ele>419</ele>
        <time>2021-10-31T12:05:54.044Z</time>
      </trkpt>
      <trkpt lat="44.00638" lon="2.57815">
        <ele>419</ele>
        <time>2021-10-31T12:05:55.044Z</time>
      </trkpt>
      <trkpt lat="44.00637" lon="2.57813">
        <ele>419</ele>
        <time>2021-10-31T12:05:56.044Z</time>
      </trkpt>
      <trkpt lat="44.00637" lon="2.57811">
        <ele>419</ele>
        <time>2021-10-31T12:05:57.044Z</time>
      </trkpt>
      <trkpt lat="44.00636" lon="2.5781">
        <ele>419</ele>
        <time>2021-10-31T12:05:58.044Z</time>
      </trkpt>
      <trkpt lat="44.00636" lon="2.57808">
        <ele>420</ele>
        <time>2021-10-31T12:06:01.300Z</time>
      </trkpt>
      <trkpt lat="44.00636" lon="2.57807">
        <ele>420</ele>
        <time>2021-10-31T12:06:02.300Z</time>
      </trkpt>
      <trkpt lat="44.00635" lon="2.57806">
        <ele>420</ele>
        <time>2021-10-31T12:06:03.300Z</time>
      </trkpt>
      <trkpt lat="44.00635" lon="2.57805">
        <ele>420</ele>
        <time>2021-10-31T12:06:04.300Z</time>
      </trkpt>
      <trkpt lat="44.00634" lon="2.57804">
        <ele>420</ele>
        <time>2021-10-31T12:06:05.300Z</time>
      </trkpt>
      <trkpt lat="44.00634" lon="2.57803">
        <ele>420</ele>
        <time>2021-10-31T12:06:06.300Z</time>
      </trkpt>
      <trkpt lat="44.00634" lon="2.57802">
        <ele>420</ele>
        <time>2021-10-31T12:06:07.300Z</time>
      </trkpt>
      <trkpt lat="44.00634" lon="2.578">
        <ele>420</ele>
        <time>2021-10-31T12:06:08.300Z</time>
      </trkpt>
      <trkpt lat="44.00634" lon="2.57799">
        <ele>420</ele>
        <time>2021-10-31T12:06:09.300Z</time>
      </trkpt>
      <trkpt lat="44.00634" lon="2.57798">
        <ele>420</ele>
        <time>2021-10-31T12:06:10.300Z</time>
      </trkpt>
      <trkpt lat="44.00634" lon="2.57797">
        <ele>420</ele>
        <time>2021-10-31T12:06:11.300Z</time>
      </trkpt>
      <trkpt lat="44.00634" lon="2.57796">
        <ele>420</ele>
        <time>2021-10-31T12:06:12.300Z</time>
      </trkpt>
      <trkpt lat="44.00634" lon="2.57795">
        <ele>420</ele>
        <time>2021-10-31T12:06:13.300Z</time>
      </trkpt>
      <trkpt lat="44.00633" lon="2.57793">
        <ele>420</ele>
        <time>2021-10-31T12:06:14.300Z</time>
      </trkpt>
      <trkpt lat="44.00633" lon="2.57792">
        <ele>420</ele>
        <time>2021-10-31T12:06:15.300Z</time>
      </trkpt>
      <trkpt lat="44.00633" lon="2.5779">
        <ele>420</ele>
        <time>2021-10-31T12:06:16.300Z</time>
      </trkpt>
      <trkpt lat="44.00633" lon="2.57789">
        <ele>420</ele>
        <time>2021-10-31T12:06:17.300Z</time>
      </trkpt>
      <trkpt lat="44.00633" lon="2.57788">
        <ele>420</ele>
        <time>2021-10-31T12:06:18.300Z</time>
      </trkpt>
      <trkpt lat="44.00633" lon="2.57786">
        <ele>421</ele>
        <time>2021-10-31T12:06:19.300Z</time>
      </trkpt>
      <trkpt lat="44.00633" lon="2.57785">
        <ele>421</ele>
        <time>2021-10-31T12:06:20.300Z</time>
      </trkpt>
      <trkpt lat="44.00633" lon="2.57784">
        <ele>421</ele>
        <time>2021-10-31T12:06:21.300Z</time>
      </trkpt>
      <trkpt lat="44.00632" lon="2.57782">
        <ele>421</ele>
        <time>2021-10-31T12:06:22.300Z</time>
      </trkpt>
      <trkpt lat="44.00632" lon="2.57781">
        <ele>421</ele>
        <time>2021-10-31T12:06:23.300Z</time>
      </trkpt>
      <trkpt lat="44.00632" lon="2.57779">
        <ele>421</ele>
        <time>2021-10-31T12:06:24.300Z</time>
      </trkpt>
      <trkpt lat="44.00632" lon="2.57778">
        <ele>421</ele>
        <time>2021-10-31T12:06:25.300Z</time>
      </trkpt>
      <trkpt lat="44.00632" lon="2.57777">
        <ele>421</ele>
        <time>2021-10-31T12:06:26.300Z</time>
      </trkpt>
      <trkpt lat="44.00631" lon="2.57776">
        <ele>421</ele>
        <time>2021-10-31T12:06:27.300Z</time>
      </trkpt>
      <trkpt lat="44.00631" lon="2.57775">
        <ele>421</ele>
        <time>2021-10-31T12:06:28.300Z</time>
      </trkpt>
      <trkpt lat="44.00631" lon="2.57773">
        <ele>421</ele>
        <time>2021-10-31T12:06:29.300Z</time>
      </trkpt>
      <trkpt lat="44.00631" lon="2.57771">
        <ele>421</ele>
        <time>2021-10-31T12:06:30.300Z</time>
      </trkpt>
      <trkpt lat="44.00631" lon="2.5777">
        <ele>421</ele>
        <time>2021-10-31T12:06:31.300Z</time>
      </trkpt>
      <trkpt lat="44.00631" lon="2.57768">
        <ele>421</ele>
        <time>2021-10-31T12:06:32.300Z</time>
      </trkpt>
      <trkpt lat="44.00631" lon="2.57767">
        <ele>421</ele>
        <time>2021-10-31T12:06:33.300Z</time>
      </trkpt>
      <trkpt lat="44.00631" lon="2.57765">
        <ele>422</ele>
        <time>2021-10-31T12:06:34.300Z</time>
      </trkpt>
      <trkpt lat="44.00631" lon="2.57764">
        <ele>422</ele>
        <time>2021-10-31T12:06:35.300Z</time>
      </trkpt>
      <trkpt lat="44.00631" lon="2.57763">
        <ele>422</ele>
        <time>2021-10-31T12:06:36.300Z</time>
      </trkpt>
      <trkpt lat="44.00631" lon="2.57762">
        <ele>422</ele>
        <time>2021-10-31T12:06:37.300Z</time>
      </trkpt>
      <trkpt lat="44.00631" lon="2.5776">
        <ele>422</ele>
        <time>2021-10-31T12:06:38.300Z</time>
      </trkpt>
      <trkpt lat="44.00631" lon="2.57759">
        <ele>422</ele>
        <time>2021-10-31T12:06:39.300Z</time>
      </trkpt>
      <trkpt lat="44.0063" lon="2.57757">
        <ele>422</ele>
        <time>2021-10-31T12:06:40.300Z</time>
      </trkpt>
      <trkpt lat="44.0063" lon="2.57756">
        <ele>422</ele>
        <time>2021-10-31T12:06:41.300Z</time>
      </trkpt>
      <trkpt lat="44.00629" lon="2.57755">
        <ele>422</ele>
        <time>2021-10-31T12:06:42.300Z</time>
      </trkpt>
      <trkpt lat="44.00629" lon="2.57753">
        <ele>422</ele>
        <time>2021-10-31T12:06:43.300Z</time>
      </trkpt>
      <trkpt lat="44.00629" lon="2.57751">
        <ele>422</ele>
        <time>2021-10-31T12:06:44.300Z</time>
      </trkpt>
      <trkpt lat="44.00628" lon="2.5775">
        <ele>422</ele>
        <time>2021-10-31T12:06:45.300Z</time>
      </trkpt>
      <trkpt lat="44.00628" lon="2.57748">
        <ele>422</ele>
        <time>2021-10-31T12:06:46.300Z</time>
      </trkpt>
      <trkpt lat="44.00628" lon="2.57746">
        <ele>422</ele>
        <time>2021-10-31T12:06:47.300Z</time>
      </trkpt>
      <trkpt lat="44.00628" lon="2.57744">
        <ele>422</ele>
        <time>2021-10-31T12:06:48.300Z</time>
      </trkpt>
      <trkpt lat="44.00628" lon="2.57743">
        <ele>423</ele>
        <time>2021-10-31T12:06:49.300Z</time>
      </trkpt>
      <trkpt lat="44.00628" lon="2.57742">
        <ele>423</ele>
        <time>2021-10-31T12:06:50.300Z</time>
      </trkpt>
      <trkpt lat="44.00627" lon="2.5774">
        <ele>423</ele>
        <time>2021-10-31T12:06:51.300Z</time>
      </trkpt>
      <trkpt lat="44.00627" lon="2.57739">
        <ele>423</ele>
        <time>2021-10-31T12:06:52.300Z</time>
      </trkpt>
      <trkpt lat="44.00627" lon="2.57738">
        <ele>423</ele>
        <time>2021-10-31T12:06:53.300Z</time>
      </trkpt>
      <trkpt lat="44.00627" lon="2.57737">
        <ele>423</ele>
        <time>2021-10-31T12:06:54.300Z</time>
      </trkpt>
      <trkpt lat="44.00627" lon="2.57736">
        <ele>423</ele>
        <time>2021-10-31T12:06:55.300Z</time>
      </trkpt>
      <trkpt lat="44.00627" lon="2.57735">
        <ele>423</ele>
        <time>2021-10-31T12:06:56.300Z</time>
      </trkpt>
      <trkpt lat="44.00627" lon="2.57734">
        <ele>423</ele>
        <time>2021-10-31T12:06:57.300Z</time>
      </trkpt>
      <trkpt lat="44.00626" lon="2.57732">
        <ele>423</ele>
        <time>2021-10-31T12:06:58.300Z</time>
      </trkpt>
      <trkpt lat="44.00626" lon="2.57731">
        <ele>423</ele>
        <time>2021-10-31T12:06:59.300Z</time>
      </trkpt>
      <trkpt lat="44.00626" lon="2.57729">
        <ele>423</ele>
        <time>2021-10-31T12:07:00.300Z</time>
      </trkpt>
      <trkpt lat="44.00626" lon="2.57728">
        <ele>423</ele>
        <time>2021-10-31T12:07:01.300Z</time>
      </trkpt>
      <trkpt lat="44.00625" lon="2.57726">
        <ele>423</ele>
        <time>2021-10-31T12:07:02.300Z</time>
      </trkpt>
      <trkpt lat="44.00625" lon="2.57725">
        <ele>424</ele>
        <time>2021-10-31T12:07:03.300Z</time>
      </trkpt>
      <trkpt lat="44.00625" lon="2.57723">
        <ele>424</ele>
        <time>2021-10-31T12:07:04.300Z</time>
      </trkpt>
      <trkpt lat="44.00625" lon="2.57722">
        <ele>424</ele>
        <time>2021-10-31T12:07:05.300Z</time>
      </trkpt>
      <trkpt lat="44.00625" lon="2.5772">
        <ele>424</ele>
        <time>2021-10-31T12:07:06.300Z</time>
      </trkpt>
      <trkpt lat="44.00624" lon="2.57718">
        <ele>424</ele>
        <time>2021-10-31T12:07:07.300Z</time>
      </trkpt>
      <trkpt lat="44.00624" lon="2.57717">
        <ele>424</ele>
        <time>2021-10-31T12:07:08.300Z</time>
      </trkpt>
      <trkpt lat="44.00624" lon="2.57715">
        <ele>424</ele>
        <time>2021-10-31T12:07:09.300Z</time>
      </trkpt>
      <trkpt lat="44.00624" lon="2.57714">
        <ele>424</ele>
        <time>2021-10-31T12:07:10.300Z</time>
      </trkpt>
      <trkpt lat="44.00624" lon="2.57713">
        <ele>424</ele>
        <time>2021-10-31T12:07:11.300Z</time>
      </trkpt>
      <trkpt lat="44.00624" lon="2.57711">
        <ele>425</ele>
        <time>2021-10-31T12:07:12.300Z</time>
      </trkpt>
      <trkpt lat="44.00624" lon="2.5771">
        <ele>425</ele>
        <time>2021-10-31T12:07:13.300Z</time>
      </trkpt>
      <trkpt lat="44.00623" lon="2.57709">
        <ele>425</ele>
        <time>2021-10-31T12:07:14.300Z</time>
      </trkpt>
      <trkpt lat="44.00623" lon="2.57707">
        <ele>425</ele>
        <time>2021-10-31T12:07:15.300Z</time>
      </trkpt>
      <trkpt lat="44.00623" lon="2.57706">
        <ele>425</ele>
        <time>2021-10-31T12:07:16.300Z</time>
      </trkpt>
      <trkpt lat="44.00623" lon="2.57704">
        <ele>425</ele>
        <time>2021-10-31T12:07:17.300Z</time>
      </trkpt>
      <trkpt lat="44.00623" lon="2.57703">
        <ele>425</ele>
        <time>2021-10-31T12:07:18.300Z</time>
      </trkpt>
      <trkpt lat="44.00622" lon="2.57701">
        <ele>425</ele>
        <time>2021-10-31T12:07:19.300Z</time>
      </trkpt>
      <trkpt lat="44.00622" lon="2.577">
        <ele>425</ele>
        <time>2021-10-31T12:07:20.300Z</time>
      </trkpt>
      <trkpt lat="44.00622" lon="2.57698">
        <ele>425</ele>
        <time>2021-10-31T12:07:21.300Z</time>
      </trkpt>
      <trkpt lat="44.00622" lon="2.57697">
        <ele>425</ele>
        <time>2021-10-31T12:07:22.300Z</time>
      </trkpt>
      <trkpt lat="44.00623" lon="2.57695">
        <ele>426</ele>
        <time>2021-10-31T12:07:23.300Z</time>
      </trkpt>
      <trkpt lat="44.00623" lon="2.57694">
        <ele>426</ele>
        <time>2021-10-31T12:07:24.300Z</time>
      </trkpt>
      <trkpt lat="44.00623" lon="2.57693">
        <ele>426</ele>
        <time>2021-10-31T12:07:25.300Z</time>
      </trkpt>
      <trkpt lat="44.00623" lon="2.57691">
        <ele>426</ele>
        <time>2021-10-31T12:07:26.300Z</time>
      </trkpt>
      <trkpt lat="44.00623" lon="2.5769">
        <ele>426</ele>
        <time>2021-10-31T12:07:27.300Z</time>
      </trkpt>
      <trkpt lat="44.00623" lon="2.5769">
        <ele>426</ele>
        <time>2021-10-31T12:07:28.300Z</time>
      </trkpt>
      <trkpt lat="44.00623" lon="2.57689">
        <ele>426</ele>
        <time>2021-10-31T12:07:29.300Z</time>
      </trkpt>
      <trkpt lat="44.00623" lon="2.57688">
        <ele>426</ele>
        <time>2021-10-31T12:07:30.300Z</time>
      </trkpt>
      <trkpt lat="44.00623" lon="2.57686">
        <ele>426</ele>
        <time>2021-10-31T12:07:31.300Z</time>
      </trkpt>
      <trkpt lat="44.00623" lon="2.57685">
        <ele>426</ele>
        <time>2021-10-31T12:07:32.300Z</time>
      </trkpt>
      <trkpt lat="44.00623" lon="2.57683">
        <ele>426</ele>
        <time>2021-10-31T12:07:33.300Z</time>
      </trkpt>
      <trkpt lat="44.00623" lon="2.57682">
        <ele>427</ele>
        <time>2021-10-31T12:07:34.300Z</time>
      </trkpt>
      <trkpt lat="44.00623" lon="2.57681">
        <ele>427</ele>
        <time>2021-10-31T12:07:35.300Z</time>
      </trkpt>
      <trkpt lat="44.00622" lon="2.5768">
        <ele>427</ele>
        <time>2021-10-31T12:07:36.300Z</time>
      </trkpt>
      <trkpt lat="44.00622" lon="2.57678">
        <ele>427</ele>
        <time>2021-10-31T12:07:37.300Z</time>
      </trkpt>
      <trkpt lat="44.00622" lon="2.57677">
        <ele>427</ele>
        <time>2021-10-31T12:07:38.300Z</time>
      </trkpt>
      <trkpt lat="44.00623" lon="2.57675">
        <ele>427</ele>
        <time>2021-10-31T12:07:39.300Z</time>
      </trkpt>
      <trkpt lat="44.00623" lon="2.57674">
        <ele>427</ele>
        <time>2021-10-31T12:07:40.300Z</time>
      </trkpt>
      <trkpt lat="44.00624" lon="2.57672">
        <ele>427</ele>
        <time>2021-10-31T12:07:41.300Z</time>
      </trkpt>
      <trkpt lat="44.00624" lon="2.57671">
        <ele>427</ele>
        <time>2021-10-31T12:07:42.300Z</time>
      </trkpt>
      <trkpt lat="44.00624" lon="2.5767">
        <ele>427</ele>
        <time>2021-10-31T12:07:43.300Z</time>
      </trkpt>
      <trkpt lat="44.00625" lon="2.57669">
        <ele>427</ele>
        <time>2021-10-31T12:07:44.300Z</time>
      </trkpt>
      <trkpt lat="44.00625" lon="2.57667">
        <ele>427</ele>
        <time>2021-10-31T12:07:45.300Z</time>
      </trkpt>
      <trkpt lat="44.00625" lon="2.57666">
        <ele>428</ele>
        <time>2021-10-31T12:07:46.300Z</time>
      </trkpt>
      <trkpt lat="44.00626" lon="2.57665">
        <ele>428</ele>
        <time>2021-10-31T12:07:47.300Z</time>
      </trkpt>
      <trkpt lat="44.00626" lon="2.57664">
        <ele>428</ele>
        <time>2021-10-31T12:07:48.300Z</time>
      </trkpt>
      <trkpt lat="44.00626" lon="2.57663">
        <ele>428</ele>
        <time>2021-10-31T12:07:49.300Z</time>
      </trkpt>
      <trkpt lat="44.00626" lon="2.57662">
        <ele>428</ele>
        <time>2021-10-31T12:07:50.300Z</time>
      </trkpt>
      <trkpt lat="44.00627" lon="2.57661">
        <ele>428</ele>
        <time>2021-10-31T12:07:51.300Z</time>
      </trkpt>
      <trkpt lat="44.00627" lon="2.57659">
        <ele>429</ele>
        <time>2021-10-31T12:07:52.300Z</time>
      </trkpt>
      <trkpt lat="44.00627" lon="2.57658">
        <ele>429</ele>
        <time>2021-10-31T12:07:53.300Z</time>
      </trkpt>
      <trkpt lat="44.00627" lon="2.57657">
        <ele>429</ele>
        <time>2021-10-31T12:07:54.300Z</time>
      </trkpt>
      <trkpt lat="44.00627" lon="2.57656">
        <ele>429</ele>
        <time>2021-10-31T12:07:55.300Z</time>
      </trkpt>
      <trkpt lat="44.00628" lon="2.57655">
        <ele>429</ele>
        <time>2021-10-31T12:07:56.300Z</time>
      </trkpt>
      <trkpt lat="44.00628" lon="2.57653">
        <ele>429</ele>
        <time>2021-10-31T12:07:57.300Z</time>
      </trkpt>
      <trkpt lat="44.00628" lon="2.57652">
        <ele>430</ele>
        <time>2021-10-31T12:07:58.300Z</time>
      </trkpt>
      <trkpt lat="44.00628" lon="2.57651">
        <ele>430</ele>
        <time>2021-10-31T12:07:59.300Z</time>
      </trkpt>
      <trkpt lat="44.00629" lon="2.5765">
        <ele>430</ele>
        <time>2021-10-31T12:08:00.300Z</time>
      </trkpt>
      <trkpt lat="44.00629" lon="2.57649">
        <ele>430</ele>
        <time>2021-10-31T12:08:01.300Z</time>
      </trkpt>
      <trkpt lat="44.00629" lon="2.57648">
        <ele>430</ele>
        <time>2021-10-31T12:08:02.300Z</time>
      </trkpt>
      <trkpt lat="44.00629" lon="2.57647">
        <ele>431</ele>
        <time>2021-10-31T12:08:03.300Z</time>
      </trkpt>
      <trkpt lat="44.00629" lon="2.57646">
        <ele>431</ele>
        <time>2021-10-31T12:08:04.300Z</time>
      </trkpt>
      <trkpt lat="44.0063" lon="2.57645">
        <ele>431</ele>
        <time>2021-10-31T12:08:05.300Z</time>
      </trkpt>
      <trkpt lat="44.0063" lon="2.57645">
        <ele>431</ele>
        <time>2021-10-31T12:08:06.300Z</time>
      </trkpt>
      <trkpt lat="44.0063" lon="2.57644">
        <ele>431</ele>
        <time>2021-10-31T12:08:07.300Z</time>
      </trkpt>
      <trkpt lat="44.0063" lon="2.57643">
        <ele>431</ele>
        <time>2021-10-31T12:08:08.300Z</time>
      </trkpt>
      <trkpt lat="44.00631" lon="2.57642">
        <ele>432</ele>
        <time>2021-10-31T12:08:09.300Z</time>
      </trkpt>
      <trkpt lat="44.00631" lon="2.57641">
        <ele>432</ele>
        <time>2021-10-31T12:08:10.300Z</time>
      </trkpt>
      <trkpt lat="44.00631" lon="2.5764">
        <ele>432</ele>
        <time>2021-10-31T12:08:11.300Z</time>
      </trkpt>
      <trkpt lat="44.00632" lon="2.57639">
        <ele>432</ele>
        <time>2021-10-31T12:08:12.300Z</time>
      </trkpt>
      <trkpt lat="44.00632" lon="2.57638">
        <ele>432</ele>
        <time>2021-10-31T12:08:13.300Z</time>
      </trkpt>
      <trkpt lat="44.00632" lon="2.57637">
        <ele>432</ele>
        <time>2021-10-31T12:08:14.300Z</time>
      </trkpt>
      <trkpt lat="44.00633" lon="2.57636">
        <ele>432</ele>
        <time>2021-10-31T12:08:15.300Z</time>
      </trkpt>
      <trkpt lat="44.00633" lon="2.57635">
        <ele>433</ele>
        <time>2021-10-31T12:08:16.300Z</time>
      </trkpt>
      <trkpt lat="44.00634" lon="2.57634">
        <ele>433</ele>
        <time>2021-10-31T12:08:17.300Z</time>
      </trkpt>
      <trkpt lat="44.00634" lon="2.57633">
        <ele>433</ele>
        <time>2021-10-31T12:08:18.300Z</time>
      </trkpt>
      <trkpt lat="44.00634" lon="2.57632">
        <ele>433</ele>
        <time>2021-10-31T12:08:19.300Z</time>
      </trkpt>
      <trkpt lat="44.00635" lon="2.57631">
        <ele>433</ele>
        <time>2021-10-31T12:08:20.300Z</time>
      </trkpt>
      <trkpt lat="44.00635" lon="2.57631">
        <ele>433</ele>
        <time>2021-10-31T12:08:21.300Z</time>
      </trkpt>
      <trkpt lat="44.00636" lon="2.5763">
        <ele>434</ele>
        <time>2021-10-31T12:08:22.300Z</time>
      </trkpt>
      <trkpt lat="44.00636" lon="2.57629">
        <ele>434</ele>
        <time>2021-10-31T12:08:23.300Z</time>
      </trkpt>
      <trkpt lat="44.00637" lon="2.57627">
        <ele>434</ele>
        <time>2021-10-31T12:08:24.300Z</time>
      </trkpt>
      <trkpt lat="44.00637" lon="2.57626">
        <ele>434</ele>
        <time>2021-10-31T12:08:25.300Z</time>
      </trkpt>
      <trkpt lat="44.00637" lon="2.57626">
        <ele>435</ele>
        <time>2021-10-31T12:08:26.300Z</time>
      </trkpt>
      <trkpt lat="44.00638" lon="2.57625">
        <ele>435</ele>
        <time>2021-10-31T12:08:27.300Z</time>
      </trkpt>
      <trkpt lat="44.00638" lon="2.57623">
        <ele>435</ele>
        <time>2021-10-31T12:08:28.300Z</time>
      </trkpt>
      <trkpt lat="44.00638" lon="2.57622">
        <ele>435</ele>
        <time>2021-10-31T12:08:29.300Z</time>
      </trkpt>
      <trkpt lat="44.00639" lon="2.57621">
        <ele>436</ele>
        <time>2021-10-31T12:08:30.300Z</time>
      </trkpt>
      <trkpt lat="44.00639" lon="2.5762">
        <ele>436</ele>
        <time>2021-10-31T12:08:31.300Z</time>
      </trkpt>
      <trkpt lat="44.0064" lon="2.5762">
        <ele>436</ele>
        <time>2021-10-31T12:08:32.300Z</time>
      </trkpt>
      <trkpt lat="44.0064" lon="2.57619">
        <ele>436</ele>
        <time>2021-10-31T12:08:33.300Z</time>
      </trkpt>
      <trkpt lat="44.0064" lon="2.57618">
        <ele>436</ele>
        <time>2021-10-31T12:08:34.300Z</time>
      </trkpt>
      <trkpt lat="44.00641" lon="2.57617">
        <ele>437</ele>
        <time>2021-10-31T12:08:35.300Z</time>
      </trkpt>
      <trkpt lat="44.00641" lon="2.57616">
        <ele>437</ele>
        <time>2021-10-31T12:08:36.300Z</time>
      </trkpt>
      <trkpt lat="44.00641" lon="2.57615">
        <ele>437</ele>
        <time>2021-10-31T12:08:37.300Z</time>
      </trkpt>
      <trkpt lat="44.00642" lon="2.57614">
        <ele>437</ele>
        <time>2021-10-31T12:08:38.300Z</time>
      </trkpt>
      <trkpt lat="44.00642" lon="2.57612">
        <ele>437</ele>
        <time>2021-10-31T12:08:39.300Z</time>
      </trkpt>
      <trkpt lat="44.00642" lon="2.57611">
        <ele>438</ele>
        <time>2021-10-31T12:08:40.300Z</time>
      </trkpt>
      <trkpt lat="44.00643" lon="2.5761">
        <ele>438</ele>
        <time>2021-10-31T12:08:41.300Z</time>
      </trkpt>
      <trkpt lat="44.00643" lon="2.57609">
        <ele>438</ele>
        <time>2021-10-31T12:08:42.300Z</time>
      </trkpt>
      <trkpt lat="44.00644" lon="2.57608">
        <ele>438</ele>
        <time>2021-10-31T12:08:43.300Z</time>
      </trkpt>
      <trkpt lat="44.00644" lon="2.57607">
        <ele>438</ele>
        <time>2021-10-31T12:08:44.300Z</time>
      </trkpt>
      <trkpt lat="44.00644" lon="2.57605">
        <ele>439</ele>
        <time>2021-10-31T12:08:45.300Z</time>
      </trkpt>
      <trkpt lat="44.00645" lon="2.57604">
        <ele>439</ele>
        <time>2021-10-31T12:08:46.300Z</time>
      </trkpt>
      <trkpt lat="44.00645" lon="2.57603">
        <ele>439</ele>
        <time>2021-10-31T12:08:47.300Z</time>
      </trkpt>
      <trkpt lat="44.00646" lon="2.57602">
        <ele>439</ele>
        <time>2021-10-31T12:08:48.300Z</time>
      </trkpt>
      <trkpt lat="44.00646" lon="2.57601">
        <ele>439</ele>
        <time>2021-10-31T12:08:49.300Z</time>
      </trkpt>
      <trkpt lat="44.00646" lon="2.576">
        <ele>440</ele>
        <time>2021-10-31T12:08:50.300Z</time>
      </trkpt>
      <trkpt lat="44.00647" lon="2.57599">
        <ele>440</ele>
        <time>2021-10-31T12:08:51.300Z</time>
      </trkpt>
      <trkpt lat="44.00647" lon="2.57598">
        <ele>440</ele>
        <time>2021-10-31T12:08:52.300Z</time>
      </trkpt>
      <trkpt lat="44.00648" lon="2.57597">
        <ele>440</ele>
        <time>2021-10-31T12:08:53.300Z</time>
      </trkpt>
      <trkpt lat="44.00648" lon="2.57596">
        <ele>440</ele>
        <time>2021-10-31T12:08:54.300Z</time>
      </trkpt>
      <trkpt lat="44.00648" lon="2.57595">
        <ele>440</ele>
        <time>2021-10-31T12:08:55.300Z</time>
      </trkpt>
      <trkpt lat="44.00649" lon="2.57594">
        <ele>440</ele>
        <time>2021-10-31T12:08:56.300Z</time>
      </trkpt>
      <trkpt lat="44.00649" lon="2.57593">
        <ele>440</ele>
        <time>2021-10-31T12:08:57.300Z</time>
      </trkpt>
      <trkpt lat="44.0065" lon="2.57592">
        <ele>440</ele>
        <time>2021-10-31T12:08:58.300Z</time>
      </trkpt>
      <trkpt lat="44.0065" lon="2.57591">
        <ele>440</ele>
        <time>2021-10-31T12:08:59.300Z</time>
      </trkpt>
      <trkpt lat="44.00651" lon="2.57589">
        <ele>440</ele>
        <time>2021-10-31T12:09:00.300Z</time>
      </trkpt>
      <trkpt lat="44.00651" lon="2.57588">
        <ele>440</ele>
        <time>2021-10-31T12:09:01.300Z</time>
      </trkpt>
      <trkpt lat="44.00652" lon="2.57587">
        <ele>440</ele>
        <time>2021-10-31T12:09:02.300Z</time>
      </trkpt>
      <trkpt lat="44.00652" lon="2.57586">
        <ele>441</ele>
        <time>2021-10-31T12:09:03.300Z</time>
      </trkpt>
      <trkpt lat="44.00652" lon="2.57585">
        <ele>441</ele>
        <time>2021-10-31T12:09:04.300Z</time>
      </trkpt>
      <trkpt lat="44.00653" lon="2.57584">
        <ele>441</ele>
        <time>2021-10-31T12:09:05.300Z</time>
      </trkpt>
      <trkpt lat="44.00653" lon="2.57583">
        <ele>441</ele>
        <time>2021-10-31T12:09:06.300Z</time>
      </trkpt>
      <trkpt lat="44.00654" lon="2.57582">
        <ele>441</ele>
        <time>2021-10-31T12:09:07.300Z</time>
      </trkpt>
      <trkpt lat="44.00654" lon="2.5758">
        <ele>441</ele>
        <time>2021-10-31T12:09:08.300Z</time>
      </trkpt>
      <trkpt lat="44.00655" lon="2.57579">
        <ele>441</ele>
        <time>2021-10-31T12:09:09.300Z</time>
      </trkpt>
      <trkpt lat="44.00655" lon="2.57578">
        <ele>442</ele>
        <time>2021-10-31T12:09:10.300Z</time>
      </trkpt>
      <trkpt lat="44.00656" lon="2.57577">
        <ele>442</ele>
        <time>2021-10-31T12:09:11.300Z</time>
      </trkpt>
      <trkpt lat="44.00656" lon="2.57576">
        <ele>442</ele>
        <time>2021-10-31T12:09:12.300Z</time>
      </trkpt>
      <trkpt lat="44.00656" lon="2.57574">
        <ele>442</ele>
        <time>2021-10-31T12:09:13.300Z</time>
      </trkpt>
      <trkpt lat="44.00657" lon="2.57573">
        <ele>442</ele>
        <time>2021-10-31T12:09:14.300Z</time>
      </trkpt>
      <trkpt lat="44.00657" lon="2.57572">
        <ele>443</ele>
        <time>2021-10-31T12:09:15.300Z</time>
      </trkpt>
      <trkpt lat="44.00658" lon="2.57571">
        <ele>443</ele>
        <time>2021-10-31T12:09:16.300Z</time>
      </trkpt>
      <trkpt lat="44.00658" lon="2.5757">
        <ele>443</ele>
        <time>2021-10-31T12:09:17.300Z</time>
      </trkpt>
      <trkpt lat="44.00658" lon="2.57569">
        <ele>443</ele>
        <time>2021-10-31T12:09:18.300Z</time>
      </trkpt>
      <trkpt lat="44.00659" lon="2.57567">
        <ele>443</ele>
        <time>2021-10-31T12:09:19.300Z</time>
      </trkpt>
      <trkpt lat="44.00659" lon="2.57566">
        <ele>443</ele>
        <time>2021-10-31T12:09:20.300Z</time>
      </trkpt>
      <trkpt lat="44.00659" lon="2.57564">
        <ele>443</ele>
        <time>2021-10-31T12:09:21.300Z</time>
      </trkpt>
      <trkpt lat="44.0066" lon="2.57563">
        <ele>443</ele>
        <time>2021-10-31T12:09:22.300Z</time>
      </trkpt>
      <trkpt lat="44.0066" lon="2.57562">
        <ele>443</ele>
        <time>2021-10-31T12:09:23.300Z</time>
      </trkpt>
      <trkpt lat="44.00661" lon="2.5756">
        <ele>443</ele>
        <time>2021-10-31T12:09:24.300Z</time>
      </trkpt>
      <trkpt lat="44.00662" lon="2.57559">
        <ele>444</ele>
        <time>2021-10-31T12:09:25.300Z</time>
      </trkpt>
      <trkpt lat="44.00662" lon="2.57558">
        <ele>444</ele>
        <time>2021-10-31T12:09:26.300Z</time>
      </trkpt>
      <trkpt lat="44.00663" lon="2.57556">
        <ele>444</ele>
        <time>2021-10-31T12:09:27.300Z</time>
      </trkpt>
      <trkpt lat="44.00663" lon="2.57555">
        <ele>444</ele>
        <time>2021-10-31T12:09:28.300Z</time>
      </trkpt>
      <trkpt lat="44.00664" lon="2.57554">
        <ele>444</ele>
        <time>2021-10-31T12:09:29.300Z</time>
      </trkpt>
      <trkpt lat="44.00664" lon="2.57553">
        <ele>444</ele>
        <time>2021-10-31T12:09:30.300Z</time>
      </trkpt>
      <trkpt lat="44.00664" lon="2.57551">
        <ele>444</ele>
        <time>2021-10-31T12:09:31.300Z</time>
      </trkpt>
      <trkpt lat="44.00665" lon="2.5755">
        <ele>444</ele>
        <time>2021-10-31T12:09:32.300Z</time>
      </trkpt>
      <trkpt lat="44.00665" lon="2.57549">
        <ele>443</ele>
        <time>2021-10-31T12:09:33.300Z</time>
      </trkpt>
      <trkpt lat="44.00665" lon="2.57547">
        <ele>443</ele>
        <time>2021-10-31T12:09:34.300Z</time>
      </trkpt>
      <trkpt lat="44.00666" lon="2.57546">
        <ele>443</ele>
        <time>2021-10-31T12:09:35.300Z</time>
      </trkpt>
      <trkpt lat="44.00666" lon="2.57545">
        <ele>443</ele>
        <time>2021-10-31T12:09:36.300Z</time>
      </trkpt>
      <trkpt lat="44.00666" lon="2.57544">
        <ele>443</ele>
        <time>2021-10-31T12:09:37.300Z</time>
      </trkpt>
      <trkpt lat="44.00667" lon="2.57543">
        <ele>443</ele>
        <time>2021-10-31T12:09:38.300Z</time>
      </trkpt>
      <trkpt lat="44.00667" lon="2.57542">
        <ele>443</ele>
        <time>2021-10-31T12:09:39.300Z</time>
      </trkpt>
      <trkpt lat="44.00667" lon="2.57541">
        <ele>443</ele>
        <time>2021-10-31T12:09:40.300Z</time>
      </trkpt>
      <trkpt lat="44.00668" lon="2.5754">
        <ele>443</ele>
        <time>2021-10-31T12:09:41.300Z</time>
      </trkpt>
      <trkpt lat="44.00668" lon="2.57539">
        <ele>443</ele>
        <time>2021-10-31T12:09:42.300Z</time>
      </trkpt>
      <trkpt lat="44.00669" lon="2.57538">
        <ele>443</ele>
        <time>2021-10-31T12:09:43.300Z</time>
      </trkpt>
      <trkpt lat="44.00669" lon="2.57537">
        <ele>443</ele>
        <time>2021-10-31T12:09:44.300Z</time>
      </trkpt>
      <trkpt lat="44.00669" lon="2.57535">
        <ele>443</ele>
        <time>2021-10-31T12:09:45.300Z</time>
      </trkpt>
      <trkpt lat="44.0067" lon="2.57534">
        <ele>443</ele>
        <time>2021-10-31T12:09:46.300Z</time>
      </trkpt>
      <trkpt lat="44.0067" lon="2.57532">
        <ele>443</ele>
        <time>2021-10-31T12:09:47.300Z</time>
      </trkpt>
      <trkpt lat="44.0067" lon="2.57531">
        <ele>443</ele>
        <time>2021-10-31T12:09:48.300Z</time>
      </trkpt>
      <trkpt lat="44.00671" lon="2.5753">
        <ele>443</ele>
        <time>2021-10-31T12:09:49.300Z</time>
      </trkpt>
      <trkpt lat="44.00671" lon="2.57529">
        <ele>443</ele>
        <time>2021-10-31T12:09:50.300Z</time>
      </trkpt>
      <trkpt lat="44.00672" lon="2.57528">
        <ele>443</ele>
        <time>2021-10-31T12:09:51.300Z</time>
      </trkpt>
      <trkpt lat="44.00672" lon="2.57527">
        <ele>443</ele>
        <time>2021-10-31T12:09:52.300Z</time>
      </trkpt>
      <trkpt lat="44.00673" lon="2.57525">
        <ele>443</ele>
        <time>2021-10-31T12:09:53.300Z</time>
      </trkpt>
      <trkpt lat="44.00673" lon="2.57524">
        <ele>443</ele>
        <time>2021-10-31T12:09:54.300Z</time>
      </trkpt>
      <trkpt lat="44.00674" lon="2.57523">
        <ele>443</ele>
        <time>2021-10-31T12:09:55.300Z</time>
      </trkpt>
      <trkpt lat="44.00674" lon="2.57522">
        <ele>443</ele>
        <time>2021-10-31T12:09:56.300Z</time>
      </trkpt>
      <trkpt lat="44.00675" lon="2.57521">
        <ele>443</ele>
        <time>2021-10-31T12:09:57.300Z</time>
      </trkpt>
      <trkpt lat="44.00675" lon="2.5752">
        <ele>443</ele>
        <time>2021-10-31T12:09:58.300Z</time>
      </trkpt>
      <trkpt lat="44.00676" lon="2.57519">
        <ele>444</ele>
        <time>2021-10-31T12:09:59.300Z</time>
      </trkpt>
      <trkpt lat="44.00676" lon="2.57518">
        <ele>444</ele>
        <time>2021-10-31T12:10:00.300Z</time>
      </trkpt>
      <trkpt lat="44.00676" lon="2.57517">
        <ele>444</ele>
        <time>2021-10-31T12:10:01.300Z</time>
      </trkpt>
      <trkpt lat="44.00677" lon="2.57516">
        <ele>444</ele>
        <time>2021-10-31T12:10:02.300Z</time>
      </trkpt>
      <trkpt lat="44.00677" lon="2.57514">
        <ele>444</ele>
        <time>2021-10-31T12:10:03.300Z</time>
      </trkpt>
      <trkpt lat="44.00678" lon="2.57513">
        <ele>444</ele>
        <time>2021-10-31T12:10:04.300Z</time>
      </trkpt>
      <trkpt lat="44.00678" lon="2.57512">
        <ele>444</ele>
        <time>2021-10-31T12:10:05.300Z</time>
      </trkpt>
      <trkpt lat="44.00679" lon="2.57512">
        <ele>444</ele>
        <time>2021-10-31T12:10:06.300Z</time>
      </trkpt>
      <trkpt lat="44.0068" lon="2.57511">
        <ele>444</ele>
        <time>2021-10-31T12:10:07.300Z</time>
      </trkpt>
      <trkpt lat="44.0068" lon="2.5751">
        <ele>444</ele>
        <time>2021-10-31T12:10:08.300Z</time>
      </trkpt>
      <trkpt lat="44.0068" lon="2.57509">
        <ele>444</ele>
        <time>2021-10-31T12:10:09.300Z</time>
      </trkpt>
      <trkpt lat="44.00681" lon="2.57508">
        <ele>445</ele>
        <time>2021-10-31T12:10:10.300Z</time>
      </trkpt>
      <trkpt lat="44.00681" lon="2.57507">
        <ele>445</ele>
        <time>2021-10-31T12:10:11.300Z</time>
      </trkpt>
      <trkpt lat="44.00681" lon="2.57506">
        <ele>445</ele>
        <time>2021-10-31T12:10:12.300Z</time>
      </trkpt>
      <trkpt lat="44.00681" lon="2.57506">
        <ele>445</ele>
        <time>2021-10-31T12:10:13.300Z</time>
      </trkpt>
      <trkpt lat="44.00682" lon="2.57505">
        <ele>445</ele>
        <time>2021-10-31T12:10:14.300Z</time>
      </trkpt>
      <trkpt lat="44.00682" lon="2.57505">
        <ele>445</ele>
        <time>2021-10-31T12:10:15.300Z</time>
      </trkpt>
      <trkpt lat="44.00683" lon="2.57499">
        <ele>446</ele>
        <time>2021-10-31T12:10:16.300Z</time>
      </trkpt>
      <trkpt lat="44.00683" lon="2.57499">
        <ele>446</ele>
        <time>2021-10-31T12:10:17.300Z</time>
      </trkpt>
      <trkpt lat="44.00683" lon="2.57499">
        <ele>446</ele>
        <time>2021-10-31T12:10:18.300Z</time>
      </trkpt>
      <trkpt lat="44.00683" lon="2.57499">
        <ele>446</ele>
        <time>2021-10-31T12:10:21.555Z</time>
      </trkpt>
      <trkpt lat="44.00683" lon="2.57499">
        <ele>446</ele>
        <time>2021-10-31T12:10:22.555Z</time>
      </trkpt>
      <trkpt lat="44.00684" lon="2.57497">
        <ele>448</ele>
        <time>2021-10-31T12:10:23.555Z</time>
      </trkpt>
      <trkpt lat="44.00684" lon="2.57498">
        <ele>448</ele>
        <time>2021-10-31T12:10:24.555Z</time>
      </trkpt>
      <trkpt lat="44.00684" lon="2.57498">
        <ele>448</ele>
        <time>2021-10-31T12:10:25.555Z</time>
      </trkpt>
      <trkpt lat="44.00684" lon="2.57497">
        <ele>448</ele>
        <time>2021-10-31T12:10:26.555Z</time>
      </trkpt>
      <trkpt lat="44.00684" lon="2.57496">
        <ele>448</ele>
        <time>2021-10-31T12:10:27.555Z</time>
      </trkpt>
      <trkpt lat="44.00684" lon="2.57495">
        <ele>448</ele>
        <time>2021-10-31T12:10:28.555Z</time>
      </trkpt>
      <trkpt lat="44.00684" lon="2.57494">
        <ele>448</ele>
        <time>2021-10-31T12:10:29.555Z</time>
      </trkpt>
      <trkpt lat="44.00685" lon="2.57493">
        <ele>448</ele>
        <time>2021-10-31T12:10:30.555Z</time>
      </trkpt>
      <trkpt lat="44.00685" lon="2.57492">
        <ele>448</ele>
        <time>2021-10-31T12:10:31.555Z</time>
      </trkpt>
      <trkpt lat="44.00685" lon="2.57492">
        <ele>448</ele>
        <time>2021-10-31T12:10:32.555Z</time>
      </trkpt>
      <trkpt lat="44.00686" lon="2.57491">
        <ele>448</ele>
        <time>2021-10-31T12:10:33.555Z</time>
      </trkpt>
      <trkpt lat="44.00686" lon="2.5749">
        <ele>448</ele>
        <time>2021-10-31T12:10:34.555Z</time>
      </trkpt>
      <trkpt lat="44.00686" lon="2.57489">
        <ele>447</ele>
        <time>2021-10-31T12:10:35.555Z</time>
      </trkpt>
      <trkpt lat="44.00686" lon="2.57488">
        <ele>447</ele>
        <time>2021-10-31T12:10:36.555Z</time>
      </trkpt>
      <trkpt lat="44.00686" lon="2.57487">
        <ele>447</ele>
        <time>2021-10-31T12:10:37.555Z</time>
      </trkpt>
      <trkpt lat="44.00687" lon="2.57486">
        <ele>447</ele>
        <time>2021-10-31T12:10:38.555Z</time>
      </trkpt>
      <trkpt lat="44.00687" lon="2.57485">
        <ele>446</ele>
        <time>2021-10-31T12:10:39.555Z</time>
      </trkpt>
      <trkpt lat="44.00687" lon="2.57484">
        <ele>446</ele>
        <time>2021-10-31T12:10:40.555Z</time>
      </trkpt>
      <trkpt lat="44.00687" lon="2.57482">
        <ele>446</ele>
        <time>2021-10-31T12:10:41.555Z</time>
      </trkpt>
      <trkpt lat="44.00687" lon="2.57481">
        <ele>446</ele>
        <time>2021-10-31T12:10:42.555Z</time>
      </trkpt>
      <trkpt lat="44.00687" lon="2.5748">
        <ele>446</ele>
        <time>2021-10-31T12:10:43.555Z</time>
      </trkpt>
      <trkpt lat="44.00687" lon="2.57479">
        <ele>446</ele>
        <time>2021-10-31T12:10:44.555Z</time>
      </trkpt>
      <trkpt lat="44.00687" lon="2.57478">
        <ele>446</ele>
        <time>2021-10-31T12:10:45.555Z</time>
      </trkpt>
      <trkpt lat="44.00687" lon="2.57477">
        <ele>445</ele>
        <time>2021-10-31T12:10:46.555Z</time>
      </trkpt>
      <trkpt lat="44.00687" lon="2.57476">
        <ele>445</ele>
        <time>2021-10-31T12:10:47.555Z</time>
      </trkpt>
      <trkpt lat="44.00687" lon="2.57476">
        <ele>445</ele>
        <time>2021-10-31T12:10:48.555Z</time>
      </trkpt>
      <trkpt lat="44.00687" lon="2.57476">
        <ele>445</ele>
        <time>2021-10-31T12:10:49.555Z</time>
      </trkpt>
      <trkpt lat="44.00687" lon="2.57475">
        <ele>445</ele>
        <time>2021-10-31T12:10:50.555Z</time>
      </trkpt>
      <trkpt lat="44.00688" lon="2.57473">
        <ele>444</ele>
        <time>2021-10-31T12:10:51.555Z</time>
      </trkpt>
      <trkpt lat="44.00688" lon="2.57471">
        <ele>444</ele>
        <time>2021-10-31T12:10:52.555Z</time>
      </trkpt>
      <trkpt lat="44.00688" lon="2.5747">
        <ele>444</ele>
        <time>2021-10-31T12:10:53.555Z</time>
      </trkpt>
      <trkpt lat="44.00689" lon="2.57469">
        <ele>443</ele>
        <time>2021-10-31T12:10:54.555Z</time>
      </trkpt>
      <trkpt lat="44.00689" lon="2.57468">
        <ele>443</ele>
        <time>2021-10-31T12:10:55.555Z</time>
      </trkpt>
      <trkpt lat="44.00689" lon="2.57467">
        <ele>443</ele>
        <time>2021-10-31T12:10:56.555Z</time>
      </trkpt>
      <trkpt lat="44.0069" lon="2.57466">
        <ele>443</ele>
        <time>2021-10-31T12:10:57.555Z</time>
      </trkpt>
      <trkpt lat="44.0069" lon="2.57465">
        <ele>443</ele>
        <time>2021-10-31T12:10:58.555Z</time>
      </trkpt>
      <trkpt lat="44.0069" lon="2.57464">
        <ele>442</ele>
        <time>2021-10-31T12:10:59.555Z</time>
      </trkpt>
      <trkpt lat="44.00691" lon="2.57463">
        <ele>442</ele>
        <time>2021-10-31T12:11:00.555Z</time>
      </trkpt>
      <trkpt lat="44.00691" lon="2.57462">
        <ele>442</ele>
        <time>2021-10-31T12:11:01.555Z</time>
      </trkpt>
      <trkpt lat="44.00691" lon="2.57461">
        <ele>442</ele>
        <time>2021-10-31T12:11:02.555Z</time>
      </trkpt>
      <trkpt lat="44.00692" lon="2.5746">
        <ele>442</ele>
        <time>2021-10-31T12:11:03.555Z</time>
      </trkpt>
      <trkpt lat="44.00692" lon="2.57458">
        <ele>442</ele>
        <time>2021-10-31T12:11:04.555Z</time>
      </trkpt>
      <trkpt lat="44.00692" lon="2.57457">
        <ele>442</ele>
        <time>2021-10-31T12:11:05.555Z</time>
      </trkpt>
      <trkpt lat="44.00693" lon="2.57455">
        <ele>442</ele>
        <time>2021-10-31T12:11:06.555Z</time>
      </trkpt>
      <trkpt lat="44.00693" lon="2.57454">
        <ele>442</ele>
        <time>2021-10-31T12:11:07.555Z</time>
      </trkpt>
      <trkpt lat="44.00694" lon="2.57452">
        <ele>442</ele>
        <time>2021-10-31T12:11:08.555Z</time>
      </trkpt>
      <trkpt lat="44.00694" lon="2.57451">
        <ele>442</ele>
        <time>2021-10-31T12:11:09.555Z</time>
      </trkpt>
      <trkpt lat="44.00695" lon="2.5745">
        <ele>442</ele>
        <time>2021-10-31T12:11:10.555Z</time>
      </trkpt>
      <trkpt lat="44.00696" lon="2.57449">
        <ele>442</ele>
        <time>2021-10-31T12:11:11.555Z</time>
      </trkpt>
      <trkpt lat="44.00696" lon="2.57448">
        <ele>442</ele>
        <time>2021-10-31T12:11:12.555Z</time>
      </trkpt>
      <trkpt lat="44.00697" lon="2.57447">
        <ele>442</ele>
        <time>2021-10-31T12:11:13.555Z</time>
      </trkpt>
      <trkpt lat="44.00698" lon="2.57445">
        <ele>442</ele>
        <time>2021-10-31T12:11:14.555Z</time>
      </trkpt>
      <trkpt lat="44.00698" lon="2.57444">
        <ele>442</ele>
        <time>2021-10-31T12:11:15.555Z</time>
      </trkpt>
      <trkpt lat="44.00699" lon="2.57443">
        <ele>442</ele>
        <time>2021-10-31T12:11:16.555Z</time>
      </trkpt>
      <trkpt lat="44.00699" lon="2.57441">
        <ele>442</ele>
        <time>2021-10-31T12:11:17.555Z</time>
      </trkpt>
      <trkpt lat="44.00699" lon="2.5744">
        <ele>442</ele>
        <time>2021-10-31T12:11:18.555Z</time>
      </trkpt>
      <trkpt lat="44.007" lon="2.57439">
        <ele>442</ele>
        <time>2021-10-31T12:11:19.555Z</time>
      </trkpt>
      <trkpt lat="44.007" lon="2.57437">
        <ele>442</ele>
        <time>2021-10-31T12:11:20.555Z</time>
      </trkpt>
      <trkpt lat="44.00701" lon="2.57436">
        <ele>442</ele>
        <time>2021-10-31T12:11:21.555Z</time>
      </trkpt>
      <trkpt lat="44.00701" lon="2.57435">
        <ele>442</ele>
        <time>2021-10-31T12:11:22.555Z</time>
      </trkpt>
      <trkpt lat="44.00702" lon="2.57434">
        <ele>442</ele>
        <time>2021-10-31T12:11:23.555Z</time>
      </trkpt>
      <trkpt lat="44.00702" lon="2.57433">
        <ele>442</ele>
        <time>2021-10-31T12:11:24.555Z</time>
      </trkpt>
      <trkpt lat="44.00702" lon="2.57432">
        <ele>442</ele>
        <time>2021-10-31T12:11:25.555Z</time>
      </trkpt>
      <trkpt lat="44.00703" lon="2.57431">
        <ele>442</ele>
        <time>2021-10-31T12:11:26.555Z</time>
      </trkpt>
      <trkpt lat="44.00704" lon="2.57429">
        <ele>442</ele>
        <time>2021-10-31T12:11:27.555Z</time>
      </trkpt>
      <trkpt lat="44.00704" lon="2.57428">
        <ele>442</ele>
        <time>2021-10-31T12:11:28.555Z</time>
      </trkpt>
      <trkpt lat="44.00705" lon="2.57427">
        <ele>442</ele>
        <time>2021-10-31T12:11:29.555Z</time>
      </trkpt>
      <trkpt lat="44.00705" lon="2.57426">
        <ele>442</ele>
        <time>2021-10-31T12:11:30.555Z</time>
      </trkpt>
      <trkpt lat="44.00706" lon="2.57424">
        <ele>442</ele>
        <time>2021-10-31T12:11:31.555Z</time>
      </trkpt>
      <trkpt lat="44.00706" lon="2.57423">
        <ele>442</ele>
        <time>2021-10-31T12:11:32.555Z</time>
      </trkpt>
      <trkpt lat="44.00707" lon="2.57422">
        <ele>442</ele>
        <time>2021-10-31T12:11:33.555Z</time>
      </trkpt>
      <trkpt lat="44.00708" lon="2.5742">
        <ele>442</ele>
        <time>2021-10-31T12:11:34.555Z</time>
      </trkpt>
      <trkpt lat="44.00708" lon="2.5742">
        <ele>442</ele>
        <time>2021-10-31T12:11:35.555Z</time>
      </trkpt>
      <trkpt lat="44.00709" lon="2.57419">
        <ele>442</ele>
        <time>2021-10-31T12:11:36.555Z</time>
      </trkpt>
      <trkpt lat="44.00709" lon="2.57419">
        <ele>442</ele>
        <time>2021-10-31T12:11:37.555Z</time>
      </trkpt>
      <trkpt lat="44.0071" lon="2.57418">
        <ele>442</ele>
        <time>2021-10-31T12:11:38.555Z</time>
      </trkpt>
      <trkpt lat="44.00711" lon="2.57418">
        <ele>442</ele>
        <time>2021-10-31T12:11:39.555Z</time>
      </trkpt>
      <trkpt lat="44.00712" lon="2.57418">
        <ele>442</ele>
        <time>2021-10-31T12:11:40.555Z</time>
      </trkpt>
      <trkpt lat="44.00712" lon="2.57418">
        <ele>442</ele>
        <time>2021-10-31T12:11:41.555Z</time>
      </trkpt>
      <trkpt lat="44.00712" lon="2.57418">
        <ele>442</ele>
        <time>2021-10-31T12:11:42.555Z</time>
      </trkpt>
      <trkpt lat="44.00712" lon="2.57418">
        <ele>442</ele>
        <time>2021-10-31T12:11:43.555Z</time>
      </trkpt>
      <trkpt lat="44.00712" lon="2.57417">
        <ele>442</ele>
        <time>2021-10-31T12:11:44.555Z</time>
      </trkpt>
      <trkpt lat="44.00712" lon="2.57419">
        <ele>442</ele>
        <time>2021-10-31T12:11:45.555Z</time>
      </trkpt>
      <trkpt lat="44.00712" lon="2.5742">
        <ele>442</ele>
        <time>2021-10-31T12:11:46.555Z</time>
      </trkpt>
      <trkpt lat="44.00712" lon="2.57421">
        <ele>442</ele>
        <time>2021-10-31T12:11:47.555Z</time>
      </trkpt>
      <trkpt lat="44.00711" lon="2.57422">
        <ele>442</ele>
        <time>2021-10-31T12:11:48.555Z</time>
      </trkpt>
      <trkpt lat="44.00711" lon="2.57423">
        <ele>442</ele>
        <time>2021-10-31T12:11:49.555Z</time>
      </trkpt>
      <trkpt lat="44.00711" lon="2.57424">
        <ele>442</ele>
        <time>2021-10-31T12:11:50.555Z</time>
      </trkpt>
      <trkpt lat="44.00711" lon="2.57425">
        <ele>442</ele>
        <time>2021-10-31T12:11:51.555Z</time>
      </trkpt>
      <trkpt lat="44.0071" lon="2.57426">
        <ele>442</ele>
        <time>2021-10-31T12:11:52.555Z</time>
      </trkpt>
      <trkpt lat="44.0071" lon="2.57427">
        <ele>442</ele>
        <time>2021-10-31T12:11:53.555Z</time>
      </trkpt>
      <trkpt lat="44.0071" lon="2.57428">
        <ele>442</ele>
        <time>2021-10-31T12:11:54.555Z</time>
      </trkpt>
      <trkpt lat="44.0071" lon="2.57429">
        <ele>442</ele>
        <time>2021-10-31T12:11:55.555Z</time>
      </trkpt>
      <trkpt lat="44.0071" lon="2.57429">
        <ele>442</ele>
        <time>2021-10-31T12:11:56.555Z</time>
      </trkpt>
      <trkpt lat="44.00709" lon="2.57429">
        <ele>442</ele>
        <time>2021-10-31T12:11:57.555Z</time>
      </trkpt>
      <trkpt lat="44.00709" lon="2.5743">
        <ele>442</ele>
        <time>2021-10-31T12:11:58.555Z</time>
      </trkpt>
      <trkpt lat="44.00708" lon="2.57431">
        <ele>442</ele>
        <time>2021-10-31T12:11:59.555Z</time>
      </trkpt>
      <trkpt lat="44.00708" lon="2.57432">
        <ele>442</ele>
        <time>2021-10-31T12:12:00.555Z</time>
      </trkpt>
      <trkpt lat="44.00708" lon="2.57433">
        <ele>442</ele>
        <time>2021-10-31T12:12:01.555Z</time>
      </trkpt>
      <trkpt lat="44.00708" lon="2.57434">
        <ele>442</ele>
        <time>2021-10-31T12:12:02.555Z</time>
      </trkpt>
      <trkpt lat="44.00707" lon="2.57435">
        <ele>442</ele>
        <time>2021-10-31T12:12:03.555Z</time>
      </trkpt>
      <trkpt lat="44.00708" lon="2.57437">
        <ele>442</ele>
        <time>2021-10-31T12:12:04.555Z</time>
      </trkpt>
      <trkpt lat="44.00708" lon="2.57438">
        <ele>442</ele>
        <time>2021-10-31T12:12:05.555Z</time>
      </trkpt>
      <trkpt lat="44.00708" lon="2.57439">
        <ele>442</ele>
        <time>2021-10-31T12:12:06.555Z</time>
      </trkpt>
      <trkpt lat="44.00708" lon="2.5744">
        <ele>442</ele>
        <time>2021-10-31T12:12:07.555Z</time>
      </trkpt>
      <trkpt lat="44.00707" lon="2.57442">
        <ele>442</ele>
        <time>2021-10-31T12:12:08.555Z</time>
      </trkpt>
      <trkpt lat="44.00707" lon="2.57443">
        <ele>442</ele>
        <time>2021-10-31T12:12:09.555Z</time>
      </trkpt>
      <trkpt lat="44.00707" lon="2.57444">
        <ele>442</ele>
        <time>2021-10-31T12:12:10.555Z</time>
      </trkpt>
      <trkpt lat="44.00707" lon="2.57445">
        <ele>442</ele>
        <time>2021-10-31T12:12:11.555Z</time>
      </trkpt>
      <trkpt lat="44.00707" lon="2.57446">
        <ele>442</ele>
        <time>2021-10-31T12:12:12.555Z</time>
      </trkpt>
      <trkpt lat="44.00707" lon="2.57447">
        <ele>442</ele>
        <time>2021-10-31T12:12:13.555Z</time>
      </trkpt>
      <trkpt lat="44.00707" lon="2.57449">
        <ele>442</ele>
        <time>2021-10-31T12:12:14.555Z</time>
      </trkpt>
      <trkpt lat="44.00707" lon="2.5745">
        <ele>442</ele>
        <time>2021-10-31T12:12:15.555Z</time>
      </trkpt>
      <trkpt lat="44.00707" lon="2.57451">
        <ele>442</ele>
        <time>2021-10-31T12:12:16.555Z</time>
      </trkpt>
      <trkpt lat="44.00707" lon="2.57453">
        <ele>443</ele>
        <time>2021-10-31T12:12:17.555Z</time>
      </trkpt>
      <trkpt lat="44.00707" lon="2.57454">
        <ele>443</ele>
        <time>2021-10-31T12:12:18.555Z</time>
      </trkpt>
      <trkpt lat="44.00707" lon="2.57455">
        <ele>443</ele>
        <time>2021-10-31T12:12:19.555Z</time>
      </trkpt>
      <trkpt lat="44.00707" lon="2.57457">
        <ele>443</ele>
        <time>2021-10-31T12:12:20.555Z</time>
      </trkpt>
      <trkpt lat="44.00708" lon="2.57458">
        <ele>443</ele>
        <time>2021-10-31T12:12:21.555Z</time>
      </trkpt>
      <trkpt lat="44.00707" lon="2.57459">
        <ele>443</ele>
        <time>2021-10-31T12:12:22.555Z</time>
      </trkpt>
      <trkpt lat="44.00707" lon="2.57461">
        <ele>443</ele>
        <time>2021-10-31T12:12:23.555Z</time>
      </trkpt>
      <trkpt lat="44.00707" lon="2.57462">
        <ele>443</ele>
        <time>2021-10-31T12:12:24.555Z</time>
      </trkpt>
      <trkpt lat="44.00708" lon="2.57463">
        <ele>444</ele>
        <time>2021-10-31T12:12:25.555Z</time>
      </trkpt>
      <trkpt lat="44.00708" lon="2.57465">
        <ele>444</ele>
        <time>2021-10-31T12:12:26.555Z</time>
      </trkpt>
      <trkpt lat="44.00707" lon="2.57466">
        <ele>444</ele>
        <time>2021-10-31T12:12:27.555Z</time>
      </trkpt>
      <trkpt lat="44.00707" lon="2.57468">
        <ele>444</ele>
        <time>2021-10-31T12:12:28.555Z</time>
      </trkpt>
      <trkpt lat="44.00707" lon="2.57469">
        <ele>445</ele>
        <time>2021-10-31T12:12:29.555Z</time>
      </trkpt>
      <trkpt lat="44.00707" lon="2.5747">
        <ele>445</ele>
        <time>2021-10-31T12:12:30.555Z</time>
      </trkpt>
      <trkpt lat="44.00707" lon="2.57472">
        <ele>445</ele>
        <time>2021-10-31T12:12:31.555Z</time>
      </trkpt>
      <trkpt lat="44.00707" lon="2.57473">
        <ele>445</ele>
        <time>2021-10-31T12:12:32.555Z</time>
      </trkpt>
      <trkpt lat="44.00707" lon="2.57474">
        <ele>446</ele>
        <time>2021-10-31T12:12:33.555Z</time>
      </trkpt>
      <trkpt lat="44.00707" lon="2.57476">
        <ele>446</ele>
        <time>2021-10-31T12:12:34.555Z</time>
      </trkpt>
      <trkpt lat="44.00707" lon="2.57477">
        <ele>446</ele>
        <time>2021-10-31T12:12:35.555Z</time>
      </trkpt>
      <trkpt lat="44.00707" lon="2.57478">
        <ele>447</ele>
        <time>2021-10-31T12:12:36.555Z</time>
      </trkpt>
      <trkpt lat="44.00708" lon="2.5748">
        <ele>447</ele>
        <time>2021-10-31T12:12:37.555Z</time>
      </trkpt>
      <trkpt lat="44.00708" lon="2.57481">
        <ele>447</ele>
        <time>2021-10-31T12:12:38.555Z</time>
      </trkpt>
      <trkpt lat="44.00708" lon="2.57482">
        <ele>447</ele>
        <time>2021-10-31T12:12:39.555Z</time>
      </trkpt>
      <trkpt lat="44.00708" lon="2.57483">
        <ele>448</ele>
        <time>2021-10-31T12:12:40.555Z</time>
      </trkpt>
      <trkpt lat="44.00708" lon="2.57485">
        <ele>448</ele>
        <time>2021-10-31T12:12:41.555Z</time>
      </trkpt>
      <trkpt lat="44.00708" lon="2.57486">
        <ele>448</ele>
        <time>2021-10-31T12:12:42.555Z</time>
      </trkpt>
      <trkpt lat="44.00708" lon="2.57487">
        <ele>449</ele>
        <time>2021-10-31T12:12:43.555Z</time>
      </trkpt>
      <trkpt lat="44.00709" lon="2.57489">
        <ele>449</ele>
        <time>2021-10-31T12:12:44.555Z</time>
      </trkpt>
      <trkpt lat="44.00709" lon="2.5749">
        <ele>449</ele>
        <time>2021-10-31T12:12:45.555Z</time>
      </trkpt>
      <trkpt lat="44.00709" lon="2.57492">
        <ele>450</ele>
        <time>2021-10-31T12:12:46.555Z</time>
      </trkpt>
      <trkpt lat="44.00709" lon="2.57493">
        <ele>450</ele>
        <time>2021-10-31T12:12:47.555Z</time>
      </trkpt>
      <trkpt lat="44.00708" lon="2.57495">
        <ele>450</ele>
        <time>2021-10-31T12:12:48.555Z</time>
      </trkpt>
      <trkpt lat="44.00708" lon="2.57496">
        <ele>450</ele>
        <time>2021-10-31T12:12:49.555Z</time>
      </trkpt>
      <trkpt lat="44.00708" lon="2.57497">
        <ele>451</ele>
        <time>2021-10-31T12:12:50.555Z</time>
      </trkpt>
      <trkpt lat="44.00708" lon="2.57499">
        <ele>451</ele>
        <time>2021-10-31T12:12:51.555Z</time>
      </trkpt>
      <trkpt lat="44.00708" lon="2.575">
        <ele>451</ele>
        <time>2021-10-31T12:12:52.555Z</time>
      </trkpt>
      <trkpt lat="44.00708" lon="2.57502">
        <ele>451</ele>
        <time>2021-10-31T12:12:53.555Z</time>
      </trkpt>
      <trkpt lat="44.00708" lon="2.57503">
        <ele>451</ele>
        <time>2021-10-31T12:12:54.555Z</time>
      </trkpt>
      <trkpt lat="44.00708" lon="2.57505">
        <ele>452</ele>
        <time>2021-10-31T12:12:55.555Z</time>
      </trkpt>
      <trkpt lat="44.00708" lon="2.57506">
        <ele>452</ele>
        <time>2021-10-31T12:12:56.555Z</time>
      </trkpt>
      <trkpt lat="44.00708" lon="2.57507">
        <ele>452</ele>
        <time>2021-10-31T12:12:57.555Z</time>
      </trkpt>
      <trkpt lat="44.00708" lon="2.57509">
        <ele>452</ele>
        <time>2021-10-31T12:12:58.555Z</time>
      </trkpt>
      <trkpt lat="44.00708" lon="2.5751">
        <ele>452</ele>
        <time>2021-10-31T12:12:59.555Z</time>
      </trkpt>
      <trkpt lat="44.00708" lon="2.57511">
        <ele>453</ele>
        <time>2021-10-31T12:13:00.555Z</time>
      </trkpt>
      <trkpt lat="44.00708" lon="2.57512">
        <ele>453</ele>
        <time>2021-10-31T12:13:01.555Z</time>
      </trkpt>
      <trkpt lat="44.00709" lon="2.57513">
        <ele>453</ele>
        <time>2021-10-31T12:13:02.555Z</time>
      </trkpt>
      <trkpt lat="44.00709" lon="2.57515">
        <ele>453</ele>
        <time>2021-10-31T12:13:03.555Z</time>
      </trkpt>
      <trkpt lat="44.00709" lon="2.57516">
        <ele>453</ele>
        <time>2021-10-31T12:13:04.555Z</time>
      </trkpt>
      <trkpt lat="44.00709" lon="2.57517">
        <ele>453</ele>
        <time>2021-10-31T12:13:05.555Z</time>
      </trkpt>
      <trkpt lat="44.00709" lon="2.57518">
        <ele>454</ele>
        <time>2021-10-31T12:13:06.555Z</time>
      </trkpt>
      <trkpt lat="44.00709" lon="2.57519">
        <ele>454</ele>
        <time>2021-10-31T12:13:07.555Z</time>
      </trkpt>
      <trkpt lat="44.0071" lon="2.5752">
        <ele>454</ele>
        <time>2021-10-31T12:13:08.555Z</time>
      </trkpt>
      <trkpt lat="44.0071" lon="2.57521">
        <ele>454</ele>
        <time>2021-10-31T12:13:09.555Z</time>
      </trkpt>
      <trkpt lat="44.0071" lon="2.57522">
        <ele>455</ele>
        <time>2021-10-31T12:13:10.555Z</time>
      </trkpt>
      <trkpt lat="44.0071" lon="2.57523">
        <ele>455</ele>
        <time>2021-10-31T12:13:11.555Z</time>
      </trkpt>
      <trkpt lat="44.0071" lon="2.57524">
        <ele>455</ele>
        <time>2021-10-31T12:13:12.555Z</time>
      </trkpt>
      <trkpt lat="44.0071" lon="2.57526">
        <ele>456</ele>
        <time>2021-10-31T12:13:13.555Z</time>
      </trkpt>
      <trkpt lat="44.0071" lon="2.57527">
        <ele>456</ele>
        <time>2021-10-31T12:13:14.555Z</time>
      </trkpt>
      <trkpt lat="44.00711" lon="2.57528">
        <ele>456</ele>
        <time>2021-10-31T12:15:41.555Z</time>
      </trkpt>
      <trkpt lat="44.00711" lon="2.57529">
        <ele>456</ele>
        <time>2021-10-31T12:15:42.555Z</time>
      </trkpt>
      <trkpt lat="44.00711" lon="2.5753">
        <ele>457</ele>
        <time>2021-10-31T12:15:43.555Z</time>
      </trkpt>
      <trkpt lat="44.00711" lon="2.57532">
        <ele>457</ele>
        <time>2021-10-31T12:15:44.555Z</time>
      </trkpt>
      <trkpt lat="44.00711" lon="2.57533">
        <ele>457</ele>
        <time>2021-10-31T12:15:45.555Z</time>
      </trkpt>
      <trkpt lat="44.00711" lon="2.57534">
        <ele>457</ele>
        <time>2021-10-31T12:15:46.555Z</time>
      </trkpt>
      <trkpt lat="44.00711" lon="2.57535">
        <ele>458</ele>
        <time>2021-10-31T12:15:47.555Z</time>
      </trkpt>
      <trkpt lat="44.00711" lon="2.57536">
        <ele>458</ele>
        <time>2021-10-31T12:15:48.555Z</time>
      </trkpt>
      <trkpt lat="44.00711" lon="2.57538">
        <ele>458</ele>
        <time>2021-10-31T12:15:49.555Z</time>
      </trkpt>
      <trkpt lat="44.00712" lon="2.57539">
        <ele>458</ele>
        <time>2021-10-31T12:15:50.555Z</time>
      </trkpt>
      <trkpt lat="44.00712" lon="2.5754">
        <ele>459</ele>
        <time>2021-10-31T12:15:51.555Z</time>
      </trkpt>
      <trkpt lat="44.00712" lon="2.57542">
        <ele>459</ele>
        <time>2021-10-31T12:15:52.555Z</time>
      </trkpt>
      <trkpt lat="44.00712" lon="2.57543">
        <ele>459</ele>
        <time>2021-10-31T12:15:53.555Z</time>
      </trkpt>
      <trkpt lat="44.00713" lon="2.57545">
        <ele>459</ele>
        <time>2021-10-31T12:15:54.555Z</time>
      </trkpt>
      <trkpt lat="44.00713" lon="2.57546">
        <ele>460</ele>
        <time>2021-10-31T12:15:55.555Z</time>
      </trkpt>
      <trkpt lat="44.00713" lon="2.57547">
        <ele>460</ele>
        <time>2021-10-31T12:15:56.555Z</time>
      </trkpt>
      <trkpt lat="44.00713" lon="2.57548">
        <ele>460</ele>
        <time>2021-10-31T12:15:57.555Z</time>
      </trkpt>
      <trkpt lat="44.00713" lon="2.57549">
        <ele>460</ele>
        <time>2021-10-31T12:15:58.555Z</time>
      </trkpt>
      <trkpt lat="44.00713" lon="2.57551">
        <ele>460</ele>
        <time>2021-10-31T12:15:59.555Z</time>
      </trkpt>
      <trkpt lat="44.00714" lon="2.57552">
        <ele>461</ele>
        <time>2021-10-31T12:16:00.555Z</time>
      </trkpt>
      <trkpt lat="44.00714" lon="2.57553">
        <ele>461</ele>
        <time>2021-10-31T12:16:01.555Z</time>
      </trkpt>
      <trkpt lat="44.00714" lon="2.57554">
        <ele>461</ele>
        <time>2021-10-31T12:16:02.555Z</time>
      </trkpt>
      <trkpt lat="44.00713" lon="2.57555">
        <ele>461</ele>
        <time>2021-10-31T12:16:03.555Z</time>
      </trkpt>
      <trkpt lat="44.00714" lon="2.57556">
        <ele>461</ele>
        <time>2021-10-31T12:16:04.555Z</time>
      </trkpt>
      <trkpt lat="44.00714" lon="2.57558">
        <ele>462</ele>
        <time>2021-10-31T12:16:05.555Z</time>
      </trkpt>
      <trkpt lat="44.00714" lon="2.57559">
        <ele>462</ele>
        <time>2021-10-31T12:16:06.555Z</time>
      </trkpt>
      <trkpt lat="44.00714" lon="2.57561">
        <ele>462</ele>
        <time>2021-10-31T12:16:07.555Z</time>
      </trkpt>
      <trkpt lat="44.00714" lon="2.57562">
        <ele>462</ele>
        <time>2021-10-31T12:16:08.555Z</time>
      </trkpt>
      <trkpt lat="44.00714" lon="2.57563">
        <ele>462</ele>
        <time>2021-10-31T12:16:09.555Z</time>
      </trkpt>
      <trkpt lat="44.00714" lon="2.57564">
        <ele>462</ele>
        <time>2021-10-31T12:16:10.555Z</time>
      </trkpt>
      <trkpt lat="44.00714" lon="2.57565">
        <ele>463</ele>
        <time>2021-10-31T12:16:11.555Z</time>
      </trkpt>
      <trkpt lat="44.00714" lon="2.57567">
        <ele>463</ele>
        <time>2021-10-31T12:16:12.555Z</time>
      </trkpt>
      <trkpt lat="44.00714" lon="2.57568">
        <ele>463</ele>
        <time>2021-10-31T12:16:13.555Z</time>
      </trkpt>
      <trkpt lat="44.00714" lon="2.57569">
        <ele>463</ele>
        <time>2021-10-31T12:16:14.555Z</time>
      </trkpt>
      <trkpt lat="44.00714" lon="2.5757">
        <ele>463</ele>
        <time>2021-10-31T12:16:15.555Z</time>
      </trkpt>
      <trkpt lat="44.00714" lon="2.57571">
        <ele>463</ele>
        <time>2021-10-31T12:16:16.555Z</time>
      </trkpt>
      <trkpt lat="44.00714" lon="2.57573">
        <ele>463</ele>
        <time>2021-10-31T12:16:17.555Z</time>
      </trkpt>
      <trkpt lat="44.00714" lon="2.57574">
        <ele>463</ele>
        <time>2021-10-31T12:16:18.555Z</time>
      </trkpt>
      <trkpt lat="44.00714" lon="2.57575">
        <ele>463</ele>
        <time>2021-10-31T12:16:19.555Z</time>
      </trkpt>
      <trkpt lat="44.00713" lon="2.57576">
        <ele>464</ele>
        <time>2021-10-31T12:16:20.555Z</time>
      </trkpt>
      <trkpt lat="44.00713" lon="2.57578">
        <ele>464</ele>
        <time>2021-10-31T12:16:21.555Z</time>
      </trkpt>
      <trkpt lat="44.00713" lon="2.57579">
        <ele>464</ele>
        <time>2021-10-31T12:16:22.555Z</time>
      </trkpt>
      <trkpt lat="44.00713" lon="2.57581">
        <ele>464</ele>
        <time>2021-10-31T12:16:23.555Z</time>
      </trkpt>
      <trkpt lat="44.00714" lon="2.57582">
        <ele>464</ele>
        <time>2021-10-31T12:16:24.555Z</time>
      </trkpt>
      <trkpt lat="44.00714" lon="2.57583">
        <ele>464</ele>
        <time>2021-10-31T12:16:25.555Z</time>
      </trkpt>
      <trkpt lat="44.00714" lon="2.57585">
        <ele>464</ele>
        <time>2021-10-31T12:16:26.555Z</time>
      </trkpt>
      <trkpt lat="44.00714" lon="2.57586">
        <ele>464</ele>
        <time>2021-10-31T12:16:27.555Z</time>
      </trkpt>
      <trkpt lat="44.00714" lon="2.57587">
        <ele>465</ele>
        <time>2021-10-31T12:16:28.555Z</time>
      </trkpt>
      <trkpt lat="44.00715" lon="2.57589">
        <ele>465</ele>
        <time>2021-10-31T12:16:29.555Z</time>
      </trkpt>
      <trkpt lat="44.00715" lon="2.5759">
        <ele>465</ele>
        <time>2021-10-31T12:16:30.555Z</time>
      </trkpt>
      <trkpt lat="44.00715" lon="2.57591">
        <ele>465</ele>
        <time>2021-10-31T12:16:31.555Z</time>
      </trkpt>
      <trkpt lat="44.00715" lon="2.57593">
        <ele>465</ele>
        <time>2021-10-31T12:16:32.555Z</time>
      </trkpt>
      <trkpt lat="44.00715" lon="2.57594">
        <ele>465</ele>
        <time>2021-10-31T12:16:33.555Z</time>
      </trkpt>
      <trkpt lat="44.00714" lon="2.57595">
        <ele>465</ele>
        <time>2021-10-31T12:16:34.555Z</time>
      </trkpt>
      <trkpt lat="44.00714" lon="2.57597">
        <ele>465</ele>
        <time>2021-10-31T12:16:35.555Z</time>
      </trkpt>
      <trkpt lat="44.00714" lon="2.57598">
        <ele>466</ele>
        <time>2021-10-31T12:16:36.555Z</time>
      </trkpt>
      <trkpt lat="44.00714" lon="2.576">
        <ele>466</ele>
        <time>2021-10-31T12:16:37.555Z</time>
      </trkpt>
      <trkpt lat="44.00714" lon="2.57601">
        <ele>466</ele>
        <time>2021-10-31T12:16:38.555Z</time>
      </trkpt>
      <trkpt lat="44.00714" lon="2.57603">
        <ele>466</ele>
        <time>2021-10-31T12:16:39.555Z</time>
      </trkpt>
      <trkpt lat="44.00714" lon="2.57605">
        <ele>466</ele>
        <time>2021-10-31T12:16:40.555Z</time>
      </trkpt>
      <trkpt lat="44.00713" lon="2.57606">
        <ele>466</ele>
        <time>2021-10-31T12:16:41.555Z</time>
      </trkpt>
      <trkpt lat="44.00713" lon="2.57608">
        <ele>466</ele>
        <time>2021-10-31T12:16:42.555Z</time>
      </trkpt>
      <trkpt lat="44.00713" lon="2.57609">
        <ele>466</ele>
        <time>2021-10-31T12:16:43.555Z</time>
      </trkpt>
      <trkpt lat="44.00713" lon="2.5761">
        <ele>466</ele>
        <time>2021-10-31T12:16:44.555Z</time>
      </trkpt>
      <trkpt lat="44.00713" lon="2.57611">
        <ele>466</ele>
        <time>2021-10-31T12:16:45.555Z</time>
      </trkpt>
      <trkpt lat="44.00713" lon="2.57613">
        <ele>466</ele>
        <time>2021-10-31T12:16:46.555Z</time>
      </trkpt>
      <trkpt lat="44.00712" lon="2.57614">
        <ele>466</ele>
        <time>2021-10-31T12:16:47.555Z</time>
      </trkpt>
      <trkpt lat="44.00712" lon="2.57615">
        <ele>466</ele>
        <time>2021-10-31T12:16:48.555Z</time>
      </trkpt>
      <trkpt lat="44.00712" lon="2.57617">
        <ele>466</ele>
        <time>2021-10-31T12:16:49.555Z</time>
      </trkpt>
      <trkpt lat="44.00712" lon="2.57618">
        <ele>466</ele>
        <time>2021-10-31T12:16:50.555Z</time>
      </trkpt>
      <trkpt lat="44.00712" lon="2.5762">
        <ele>466</ele>
        <time>2021-10-31T12:16:51.555Z</time>
      </trkpt>
      <trkpt lat="44.00712" lon="2.57621">
        <ele>466</ele>
        <time>2021-10-31T12:16:52.555Z</time>
      </trkpt>
      <trkpt lat="44.00711" lon="2.57622">
        <ele>466</ele>
        <time>2021-10-31T12:16:53.555Z</time>
      </trkpt>
      <trkpt lat="44.00711" lon="2.57624">
        <ele>465</ele>
        <time>2021-10-31T12:16:54.555Z</time>
      </trkpt>
      <trkpt lat="44.00711" lon="2.57625">
        <ele>466</ele>
        <time>2021-10-31T12:16:55.555Z</time>
      </trkpt>
      <trkpt lat="44.00711" lon="2.57627">
        <ele>466</ele>
        <time>2021-10-31T12:16:56.555Z</time>
      </trkpt>
      <trkpt lat="44.0071" lon="2.57628">
        <ele>466</ele>
        <time>2021-10-31T12:16:57.555Z</time>
      </trkpt>
      <trkpt lat="44.0071" lon="2.57629">
        <ele>466</ele>
        <time>2021-10-31T12:16:58.555Z</time>
      </trkpt>
      <trkpt lat="44.0071" lon="2.5763">
        <ele>466</ele>
        <time>2021-10-31T12:16:59.555Z</time>
      </trkpt>
      <trkpt lat="44.0071" lon="2.57632">
        <ele>466</ele>
        <time>2021-10-31T12:17:00.555Z</time>
      </trkpt>
      <trkpt lat="44.00709" lon="2.57633">
        <ele>466</ele>
        <time>2021-10-31T12:17:01.555Z</time>
      </trkpt>
      <trkpt lat="44.00709" lon="2.57634">
        <ele>466</ele>
        <time>2021-10-31T12:17:02.555Z</time>
      </trkpt>
      <trkpt lat="44.00709" lon="2.57636">
        <ele>466</ele>
        <time>2021-10-31T12:17:03.555Z</time>
      </trkpt>
      <trkpt lat="44.00709" lon="2.57637">
        <ele>466</ele>
        <time>2021-10-31T12:17:04.555Z</time>
      </trkpt>
      <trkpt lat="44.00709" lon="2.57638">
        <ele>466</ele>
        <time>2021-10-31T12:17:05.555Z</time>
      </trkpt>
      <trkpt lat="44.00708" lon="2.5764">
        <ele>466</ele>
        <time>2021-10-31T12:17:06.555Z</time>
      </trkpt>
      <trkpt lat="44.00708" lon="2.57641">
        <ele>466</ele>
        <time>2021-10-31T12:17:07.555Z</time>
      </trkpt>
      <trkpt lat="44.00707" lon="2.57642">
        <ele>466</ele>
        <time>2021-10-31T12:17:08.555Z</time>
      </trkpt>
      <trkpt lat="44.00707" lon="2.57644">
        <ele>466</ele>
        <time>2021-10-31T12:17:09.555Z</time>
      </trkpt>
      <trkpt lat="44.00706" lon="2.57645">
        <ele>466</ele>
        <time>2021-10-31T12:17:10.555Z</time>
      </trkpt>
      <trkpt lat="44.00706" lon="2.57647">
        <ele>466</ele>
        <time>2021-10-31T12:17:11.555Z</time>
      </trkpt>
      <trkpt lat="44.00706" lon="2.57648">
        <ele>466</ele>
        <time>2021-10-31T12:17:12.555Z</time>
      </trkpt>
      <trkpt lat="44.00705" lon="2.5765">
        <ele>466</ele>
        <time>2021-10-31T12:17:13.555Z</time>
      </trkpt>
      <trkpt lat="44.00705" lon="2.57651">
        <ele>466</ele>
        <time>2021-10-31T12:17:14.555Z</time>
      </trkpt>
      <trkpt lat="44.00704" lon="2.57653">
        <ele>466</ele>
        <time>2021-10-31T12:17:15.555Z</time>
      </trkpt>
      <trkpt lat="44.00704" lon="2.57654">
        <ele>466</ele>
        <time>2021-10-31T12:17:16.555Z</time>
      </trkpt>
      <trkpt lat="44.00704" lon="2.57655">
        <ele>466</ele>
        <time>2021-10-31T12:17:17.555Z</time>
      </trkpt>
      <trkpt lat="44.00703" lon="2.57656">
        <ele>466</ele>
        <time>2021-10-31T12:17:18.555Z</time>
      </trkpt>
      <trkpt lat="44.00703" lon="2.57657">
        <ele>466</ele>
        <time>2021-10-31T12:17:19.555Z</time>
      </trkpt>
      <trkpt lat="44.00702" lon="2.57659">
        <ele>466</ele>
        <time>2021-10-31T12:17:20.555Z</time>
      </trkpt>
      <trkpt lat="44.00702" lon="2.5766">
        <ele>467</ele>
        <time>2021-10-31T12:17:21.555Z</time>
      </trkpt>
      <trkpt lat="44.00702" lon="2.57661">
        <ele>467</ele>
        <time>2021-10-31T12:17:22.555Z</time>
      </trkpt>
      <trkpt lat="44.00701" lon="2.57662">
        <ele>467</ele>
        <time>2021-10-31T12:17:23.555Z</time>
      </trkpt>
      <trkpt lat="44.00701" lon="2.57663">
        <ele>467</ele>
        <time>2021-10-31T12:17:24.555Z</time>
      </trkpt>
      <trkpt lat="44.007" lon="2.57664">
        <ele>467</ele>
        <time>2021-10-31T12:17:25.555Z</time>
      </trkpt>
      <trkpt lat="44.007" lon="2.57665">
        <ele>467</ele>
        <time>2021-10-31T12:17:26.555Z</time>
      </trkpt>
      <trkpt lat="44.007" lon="2.57666">
        <ele>467</ele>
        <time>2021-10-31T12:17:27.555Z</time>
      </trkpt>
      <trkpt lat="44.00699" lon="2.57667">
        <ele>467</ele>
        <time>2021-10-31T12:17:28.555Z</time>
      </trkpt>
      <trkpt lat="44.00699" lon="2.57668">
        <ele>467</ele>
        <time>2021-10-31T12:17:29.555Z</time>
      </trkpt>
      <trkpt lat="44.00699" lon="2.57669">
        <ele>468</ele>
        <time>2021-10-31T12:17:30.555Z</time>
      </trkpt>
      <trkpt lat="44.00698" lon="2.57671">
        <ele>468</ele>
        <time>2021-10-31T12:17:31.555Z</time>
      </trkpt>
      <trkpt lat="44.00698" lon="2.57672">
        <ele>468</ele>
        <time>2021-10-31T12:17:32.555Z</time>
      </trkpt>
      <trkpt lat="44.00698" lon="2.57673">
        <ele>468</ele>
        <time>2021-10-31T12:17:33.555Z</time>
      </trkpt>
      <trkpt lat="44.00698" lon="2.57675">
        <ele>468</ele>
        <time>2021-10-31T12:17:34.555Z</time>
      </trkpt>
      <trkpt lat="44.00698" lon="2.57676">
        <ele>468</ele>
        <time>2021-10-31T12:17:35.555Z</time>
      </trkpt>
      <trkpt lat="44.00698" lon="2.57677">
        <ele>468</ele>
        <time>2021-10-31T12:17:36.555Z</time>
      </trkpt>
      <trkpt lat="44.00699" lon="2.57678">
        <ele>468</ele>
        <time>2021-10-31T12:17:37.555Z</time>
      </trkpt>
      <trkpt lat="44.00699" lon="2.57679">
        <ele>468</ele>
        <time>2021-10-31T12:17:38.555Z</time>
      </trkpt>
      <trkpt lat="44.00699" lon="2.57681">
        <ele>468</ele>
        <time>2021-10-31T12:17:39.555Z</time>
      </trkpt>
      <trkpt lat="44.00699" lon="2.57682">
        <ele>468</ele>
        <time>2021-10-31T12:17:40.555Z</time>
      </trkpt>
      <trkpt lat="44.00699" lon="2.57684">
        <ele>469</ele>
        <time>2021-10-31T12:17:41.555Z</time>
      </trkpt>
      <trkpt lat="44.00699" lon="2.57685">
        <ele>469</ele>
        <time>2021-10-31T12:17:42.555Z</time>
      </trkpt>
      <trkpt lat="44.00699" lon="2.57686">
        <ele>469</ele>
        <time>2021-10-31T12:17:43.555Z</time>
      </trkpt>
      <trkpt lat="44.00699" lon="2.57687">
        <ele>469</ele>
        <time>2021-10-31T12:17:44.555Z</time>
      </trkpt>
      <trkpt lat="44.007" lon="2.57688">
        <ele>469</ele>
        <time>2021-10-31T12:17:45.555Z</time>
      </trkpt>
      <trkpt lat="44.007" lon="2.57689">
        <ele>469</ele>
        <time>2021-10-31T12:17:46.555Z</time>
      </trkpt>
      <trkpt lat="44.007" lon="2.5769">
        <ele>469</ele>
        <time>2021-10-31T12:17:47.555Z</time>
      </trkpt>
      <trkpt lat="44.007" lon="2.57692">
        <ele>469</ele>
        <time>2021-10-31T12:17:48.555Z</time>
      </trkpt>
      <trkpt lat="44.00701" lon="2.57693">
        <ele>469</ele>
        <time>2021-10-31T12:17:49.555Z</time>
      </trkpt>
      <trkpt lat="44.00701" lon="2.57694">
        <ele>468</ele>
        <time>2021-10-31T12:17:50.555Z</time>
      </trkpt>
      <trkpt lat="44.00701" lon="2.57695">
        <ele>468</ele>
        <time>2021-10-31T12:17:51.555Z</time>
      </trkpt>
      <trkpt lat="44.00701" lon="2.57696">
        <ele>468</ele>
        <time>2021-10-31T12:17:52.555Z</time>
      </trkpt>
      <trkpt lat="44.00701" lon="2.57697">
        <ele>468</ele>
        <time>2021-10-31T12:17:53.555Z</time>
      </trkpt>
      <trkpt lat="44.00701" lon="2.57698">
        <ele>468</ele>
        <time>2021-10-31T12:17:54.555Z</time>
      </trkpt>
      <trkpt lat="44.00702" lon="2.57699">
        <ele>468</ele>
        <time>2021-10-31T12:17:55.555Z</time>
      </trkpt>
      <trkpt lat="44.00702" lon="2.57699">
        <ele>469</ele>
        <time>2021-10-31T12:17:56.555Z</time>
      </trkpt>
      <trkpt lat="44.00702" lon="2.577">
        <ele>469</ele>
        <time>2021-10-31T12:17:57.555Z</time>
      </trkpt>
      <trkpt lat="44.00702" lon="2.57701">
        <ele>469</ele>
        <time>2021-10-31T12:17:58.555Z</time>
      </trkpt>
      <trkpt lat="44.00703" lon="2.57702">
        <ele>469</ele>
        <time>2021-10-31T12:17:59.555Z</time>
      </trkpt>
      <trkpt lat="44.00703" lon="2.57702">
        <ele>469</ele>
        <time>2021-10-31T12:18:00.555Z</time>
      </trkpt>
      <trkpt lat="44.00703" lon="2.57702">
        <ele>469</ele>
        <time>2021-10-31T12:18:01.555Z</time>
      </trkpt>
      <trkpt lat="44.00704" lon="2.57709">
        <ele>474</ele>
        <time>2021-10-31T12:18:02.555Z</time>
      </trkpt>
      <trkpt lat="44.00704" lon="2.5771">
        <ele>474</ele>
        <time>2021-10-31T12:18:03.555Z</time>
      </trkpt>
      <trkpt lat="44.00705" lon="2.57711">
        <ele>474</ele>
        <time>2021-10-31T12:18:04.555Z</time>
      </trkpt>
      <trkpt lat="44.00705" lon="2.57712">
        <ele>474</ele>
        <time>2021-10-31T12:18:05.555Z</time>
      </trkpt>
      <trkpt lat="44.00705" lon="2.57713">
        <ele>474</ele>
        <time>2021-10-31T12:18:06.555Z</time>
      </trkpt>
      <trkpt lat="44.00705" lon="2.57715">
        <ele>474</ele>
        <time>2021-10-31T12:18:07.555Z</time>
      </trkpt>
      <trkpt lat="44.00705" lon="2.57716">
        <ele>474</ele>
        <time>2021-10-31T12:18:08.555Z</time>
      </trkpt>
      <trkpt lat="44.00705" lon="2.57717">
        <ele>475</ele>
        <time>2021-10-31T12:18:09.555Z</time>
      </trkpt>
      <trkpt lat="44.00705" lon="2.57718">
        <ele>475</ele>
        <time>2021-10-31T12:18:10.555Z</time>
      </trkpt>
      <trkpt lat="44.00706" lon="2.57719">
        <ele>475</ele>
        <time>2021-10-31T12:18:11.555Z</time>
      </trkpt>
      <trkpt lat="44.00706" lon="2.57721">
        <ele>475</ele>
        <time>2021-10-31T12:18:12.555Z</time>
      </trkpt>
      <trkpt lat="44.00706" lon="2.57722">
        <ele>475</ele>
        <time>2021-10-31T12:18:13.555Z</time>
      </trkpt>
      <trkpt lat="44.00706" lon="2.57723">
        <ele>475</ele>
        <time>2021-10-31T12:18:14.555Z</time>
      </trkpt>
      <trkpt lat="44.00707" lon="2.57724">
        <ele>475</ele>
        <time>2021-10-31T12:18:15.555Z</time>
      </trkpt>
      <trkpt lat="44.00707" lon="2.57725">
        <ele>475</ele>
        <time>2021-10-31T12:18:16.555Z</time>
      </trkpt>
      <trkpt lat="44.00707" lon="2.57726">
        <ele>475</ele>
        <time>2021-10-31T12:18:17.555Z</time>
      </trkpt>
      <trkpt lat="44.00707" lon="2.57727">
        <ele>475</ele>
        <time>2021-10-31T12:18:18.555Z</time>
      </trkpt>
      <trkpt lat="44.00708" lon="2.57728">
        <ele>475</ele>
        <time>2021-10-31T12:18:19.555Z</time>
      </trkpt>
      <trkpt lat="44.00708" lon="2.57729">
        <ele>475</ele>
        <time>2021-10-31T12:18:20.555Z</time>
      </trkpt>
      <trkpt lat="44.00709" lon="2.5773">
        <ele>475</ele>
        <time>2021-10-31T12:18:21.555Z</time>
      </trkpt>
      <trkpt lat="44.00709" lon="2.57731">
        <ele>475</ele>
        <time>2021-10-31T12:18:22.555Z</time>
      </trkpt>
      <trkpt lat="44.00709" lon="2.57732">
        <ele>475</ele>
        <time>2021-10-31T12:18:23.555Z</time>
      </trkpt>
      <trkpt lat="44.0071" lon="2.57733">
        <ele>475</ele>
        <time>2021-10-31T12:18:24.555Z</time>
      </trkpt>
      <trkpt lat="44.0071" lon="2.57734">
        <ele>475</ele>
        <time>2021-10-31T12:18:25.555Z</time>
      </trkpt>
      <trkpt lat="44.0071" lon="2.57735">
        <ele>475</ele>
        <time>2021-10-31T12:18:26.555Z</time>
      </trkpt>
      <trkpt lat="44.00711" lon="2.57736">
        <ele>475</ele>
        <time>2021-10-31T12:18:27.555Z</time>
      </trkpt>
      <trkpt lat="44.00711" lon="2.57737">
        <ele>475</ele>
        <time>2021-10-31T12:18:28.555Z</time>
      </trkpt>
      <trkpt lat="44.00712" lon="2.57738">
        <ele>475</ele>
        <time>2021-10-31T12:18:29.555Z</time>
      </trkpt>
      <trkpt lat="44.00712" lon="2.57739">
        <ele>476</ele>
        <time>2021-10-31T12:18:30.555Z</time>
      </trkpt>
      <trkpt lat="44.00712" lon="2.5774">
        <ele>476</ele>
        <time>2021-10-31T12:18:31.555Z</time>
      </trkpt>
      <trkpt lat="44.00713" lon="2.57741">
        <ele>476</ele>
        <time>2021-10-31T12:18:32.555Z</time>
      </trkpt>
      <trkpt lat="44.00713" lon="2.57742">
        <ele>476</ele>
        <time>2021-10-31T12:18:33.555Z</time>
      </trkpt>
      <trkpt lat="44.00713" lon="2.57744">
        <ele>476</ele>
        <time>2021-10-31T12:18:34.555Z</time>
      </trkpt>
      <trkpt lat="44.00713" lon="2.57745">
        <ele>476</ele>
        <time>2021-10-31T12:18:35.555Z</time>
      </trkpt>
      <trkpt lat="44.00714" lon="2.57746">
        <ele>476</ele>
        <time>2021-10-31T12:18:36.555Z</time>
      </trkpt>
      <trkpt lat="44.00714" lon="2.57748">
        <ele>476</ele>
        <time>2021-10-31T12:18:37.555Z</time>
      </trkpt>
      <trkpt lat="44.00715" lon="2.57749">
        <ele>476</ele>
        <time>2021-10-31T12:18:38.555Z</time>
      </trkpt>
      <trkpt lat="44.00715" lon="2.5775">
        <ele>477</ele>
        <time>2021-10-31T12:18:39.555Z</time>
      </trkpt>
      <trkpt lat="44.00716" lon="2.57752">
        <ele>477</ele>
        <time>2021-10-31T12:18:40.555Z</time>
      </trkpt>
      <trkpt lat="44.00716" lon="2.57753">
        <ele>477</ele>
        <time>2021-10-31T12:18:41.555Z</time>
      </trkpt>
      <trkpt lat="44.00716" lon="2.57754">
        <ele>477</ele>
        <time>2021-10-31T12:18:42.555Z</time>
      </trkpt>
      <trkpt lat="44.00717" lon="2.57755">
        <ele>477</ele>
        <time>2021-10-31T12:18:43.555Z</time>
      </trkpt>
      <trkpt lat="44.00717" lon="2.57756">
        <ele>477</ele>
        <time>2021-10-31T12:18:44.555Z</time>
      </trkpt>
      <trkpt lat="44.00717" lon="2.57757">
        <ele>477</ele>
        <time>2021-10-31T12:18:45.555Z</time>
      </trkpt>
      <trkpt lat="44.00717" lon="2.57758">
        <ele>477</ele>
        <time>2021-10-31T12:18:46.555Z</time>
      </trkpt>
      <trkpt lat="44.00717" lon="2.57759">
        <ele>477</ele>
        <time>2021-10-31T12:18:47.555Z</time>
      </trkpt>
      <trkpt lat="44.00718" lon="2.5776">
        <ele>477</ele>
        <time>2021-10-31T12:18:48.555Z</time>
      </trkpt>
      <trkpt lat="44.00718" lon="2.57761">
        <ele>477</ele>
        <time>2021-10-31T12:18:49.555Z</time>
      </trkpt>
      <trkpt lat="44.00719" lon="2.57762">
        <ele>477</ele>
        <time>2021-10-31T12:18:50.555Z</time>
      </trkpt>
      <trkpt lat="44.00719" lon="2.57763">
        <ele>477</ele>
        <time>2021-10-31T12:18:51.555Z</time>
      </trkpt>
      <trkpt lat="44.0072" lon="2.57764">
        <ele>477</ele>
        <time>2021-10-31T12:18:52.555Z</time>
      </trkpt>
      <trkpt lat="44.0072" lon="2.57765">
        <ele>476</ele>
        <time>2021-10-31T12:18:53.555Z</time>
      </trkpt>
      <trkpt lat="44.00721" lon="2.57766">
        <ele>476</ele>
        <time>2021-10-31T12:18:54.555Z</time>
      </trkpt>
      <trkpt lat="44.00721" lon="2.57768">
        <ele>476</ele>
        <time>2021-10-31T12:18:55.555Z</time>
      </trkpt>
      <trkpt lat="44.00721" lon="2.57769">
        <ele>476</ele>
        <time>2021-10-31T12:18:56.555Z</time>
      </trkpt>
      <trkpt lat="44.00722" lon="2.5777">
        <ele>476</ele>
        <time>2021-10-31T12:18:57.555Z</time>
      </trkpt>
      <trkpt lat="44.00722" lon="2.57771">
        <ele>476</ele>
        <time>2021-10-31T12:18:58.555Z</time>
      </trkpt>
      <trkpt lat="44.00723" lon="2.57772">
        <ele>476</ele>
        <time>2021-10-31T12:18:59.555Z</time>
      </trkpt>
      <trkpt lat="44.00724" lon="2.57772">
        <ele>475</ele>
        <time>2021-10-31T12:19:00.555Z</time>
      </trkpt>
      <trkpt lat="44.00724" lon="2.57773">
        <ele>475</ele>
        <time>2021-10-31T12:19:01.555Z</time>
      </trkpt>
      <trkpt lat="44.00725" lon="2.57774">
        <ele>475</ele>
        <time>2021-10-31T12:19:02.555Z</time>
      </trkpt>
      <trkpt lat="44.00726" lon="2.57775">
        <ele>475</ele>
        <time>2021-10-31T12:19:03.555Z</time>
      </trkpt>
      <trkpt lat="44.00726" lon="2.57776">
        <ele>475</ele>
        <time>2021-10-31T12:19:04.555Z</time>
      </trkpt>
      <trkpt lat="44.00726" lon="2.57778">
        <ele>475</ele>
        <time>2021-10-31T12:19:05.555Z</time>
      </trkpt>
      <trkpt lat="44.00727" lon="2.57779">
        <ele>475</ele>
        <time>2021-10-31T12:19:06.555Z</time>
      </trkpt>
      <trkpt lat="44.00727" lon="2.5778">
        <ele>475</ele>
        <time>2021-10-31T12:19:07.555Z</time>
      </trkpt>
      <trkpt lat="44.00728" lon="2.57781">
        <ele>475</ele>
        <time>2021-10-31T12:19:08.555Z</time>
      </trkpt>
      <trkpt lat="44.00728" lon="2.57782">
        <ele>475</ele>
        <time>2021-10-31T12:19:09.555Z</time>
      </trkpt>
      <trkpt lat="44.00729" lon="2.57783">
        <ele>475</ele>
        <time>2021-10-31T12:19:10.555Z</time>
      </trkpt>
      <trkpt lat="44.0073" lon="2.57783">
        <ele>475</ele>
        <time>2021-10-31T12:19:11.555Z</time>
      </trkpt>
      <trkpt lat="44.00731" lon="2.57784">
        <ele>475</ele>
        <time>2021-10-31T12:19:12.555Z</time>
      </trkpt>
      <trkpt lat="44.00731" lon="2.57785">
        <ele>475</ele>
        <time>2021-10-31T12:19:13.555Z</time>
      </trkpt>
      <trkpt lat="44.00732" lon="2.57786">
        <ele>475</ele>
        <time>2021-10-31T12:19:14.555Z</time>
      </trkpt>
      <trkpt lat="44.00733" lon="2.57788">
        <ele>475</ele>
        <time>2021-10-31T12:19:15.555Z</time>
      </trkpt>
      <trkpt lat="44.00733" lon="2.57789">
        <ele>475</ele>
        <time>2021-10-31T12:19:16.555Z</time>
      </trkpt>
      <trkpt lat="44.00734" lon="2.5779">
        <ele>475</ele>
        <time>2021-10-31T12:19:17.555Z</time>
      </trkpt>
      <trkpt lat="44.00735" lon="2.57791">
        <ele>476</ele>
        <time>2021-10-31T12:19:18.555Z</time>
      </trkpt>
      <trkpt lat="44.00735" lon="2.57793">
        <ele>476</ele>
        <time>2021-10-31T12:19:19.555Z</time>
      </trkpt>
      <trkpt lat="44.00736" lon="2.57794">
        <ele>476</ele>
        <time>2021-10-31T12:19:20.555Z</time>
      </trkpt>
      <trkpt lat="44.00736" lon="2.57795">
        <ele>476</ele>
        <time>2021-10-31T12:19:21.555Z</time>
      </trkpt>
      <trkpt lat="44.00737" lon="2.57796">
        <ele>476</ele>
        <time>2021-10-31T12:19:22.555Z</time>
      </trkpt>
      <trkpt lat="44.00737" lon="2.57798">
        <ele>476</ele>
        <time>2021-10-31T12:19:23.555Z</time>
      </trkpt>
      <trkpt lat="44.00738" lon="2.57799">
        <ele>476</ele>
        <time>2021-10-31T12:19:24.555Z</time>
      </trkpt>
      <trkpt lat="44.00738" lon="2.578">
        <ele>476</ele>
        <time>2021-10-31T12:19:25.555Z</time>
      </trkpt>
      <trkpt lat="44.00739" lon="2.57801">
        <ele>477</ele>
        <time>2021-10-31T12:19:26.555Z</time>
      </trkpt>
      <trkpt lat="44.00739" lon="2.57802">
        <ele>477</ele>
        <time>2021-10-31T12:19:27.555Z</time>
      </trkpt>
      <trkpt lat="44.00739" lon="2.57804">
        <ele>477</ele>
        <time>2021-10-31T12:19:28.555Z</time>
      </trkpt>
      <trkpt lat="44.0074" lon="2.57805">
        <ele>477</ele>
        <time>2021-10-31T12:19:29.555Z</time>
      </trkpt>
      <trkpt lat="44.00741" lon="2.57806">
        <ele>477</ele>
        <time>2021-10-31T12:19:30.555Z</time>
      </trkpt>
      <trkpt lat="44.00741" lon="2.57807">
        <ele>477</ele>
        <time>2021-10-31T12:19:31.555Z</time>
      </trkpt>
      <trkpt lat="44.00742" lon="2.57808">
        <ele>478</ele>
        <time>2021-10-31T12:19:32.555Z</time>
      </trkpt>
      <trkpt lat="44.00742" lon="2.57809">
        <ele>478</ele>
        <time>2021-10-31T12:19:33.555Z</time>
      </trkpt>
      <trkpt lat="44.00743" lon="2.5781">
        <ele>478</ele>
        <time>2021-10-31T12:19:34.555Z</time>
      </trkpt>
      <trkpt lat="44.00744" lon="2.57811">
        <ele>478</ele>
        <time>2021-10-31T12:19:35.555Z</time>
      </trkpt>
      <trkpt lat="44.00744" lon="2.57812">
        <ele>478</ele>
        <time>2021-10-31T12:19:36.555Z</time>
      </trkpt>
      <trkpt lat="44.00745" lon="2.57813">
        <ele>479</ele>
        <time>2021-10-31T12:19:37.555Z</time>
      </trkpt>
      <trkpt lat="44.00746" lon="2.57813">
        <ele>479</ele>
        <time>2021-10-31T12:19:38.555Z</time>
      </trkpt>
      <trkpt lat="44.00747" lon="2.57814">
        <ele>479</ele>
        <time>2021-10-31T12:19:39.555Z</time>
      </trkpt>
      <trkpt lat="44.00748" lon="2.57815">
        <ele>479</ele>
        <time>2021-10-31T12:19:40.555Z</time>
      </trkpt>
      <trkpt lat="44.00748" lon="2.57816">
        <ele>479</ele>
        <time>2021-10-31T12:19:41.555Z</time>
      </trkpt>
      <trkpt lat="44.00749" lon="2.57817">
        <ele>479</ele>
        <time>2021-10-31T12:19:42.555Z</time>
      </trkpt>
      <trkpt lat="44.0075" lon="2.57818">
        <ele>479</ele>
        <time>2021-10-31T12:19:43.555Z</time>
      </trkpt>
      <trkpt lat="44.00751" lon="2.57819">
        <ele>479</ele>
        <time>2021-10-31T12:19:44.555Z</time>
      </trkpt>
      <trkpt lat="44.00752" lon="2.5782">
        <ele>479</ele>
        <time>2021-10-31T12:19:45.555Z</time>
      </trkpt>
      <trkpt lat="44.00752" lon="2.5782">
        <ele>479</ele>
        <time>2021-10-31T12:19:46.555Z</time>
      </trkpt>
      <trkpt lat="44.00753" lon="2.57821">
        <ele>479</ele>
        <time>2021-10-31T12:19:47.555Z</time>
      </trkpt>
      <trkpt lat="44.00754" lon="2.57822">
        <ele>479</ele>
        <time>2021-10-31T12:19:48.555Z</time>
      </trkpt>
      <trkpt lat="44.00755" lon="2.57823">
        <ele>479</ele>
        <time>2021-10-31T12:19:49.555Z</time>
      </trkpt>
      <trkpt lat="44.00756" lon="2.57824">
        <ele>479</ele>
        <time>2021-10-31T12:19:50.555Z</time>
      </trkpt>
      <trkpt lat="44.00756" lon="2.57824">
        <ele>479</ele>
        <time>2021-10-31T12:19:51.555Z</time>
      </trkpt>
      <trkpt lat="44.00757" lon="2.57825">
        <ele>479</ele>
        <time>2021-10-31T12:19:52.555Z</time>
      </trkpt>
      <trkpt lat="44.00759" lon="2.57825">
        <ele>480</ele>
        <time>2021-10-31T12:19:53.555Z</time>
      </trkpt>
      <trkpt lat="44.0076" lon="2.57826">
        <ele>480</ele>
        <time>2021-10-31T12:19:54.555Z</time>
      </trkpt>
      <trkpt lat="44.00761" lon="2.57826">
        <ele>480</ele>
        <time>2021-10-31T12:19:55.555Z</time>
      </trkpt>
      <trkpt lat="44.00762" lon="2.57827">
        <ele>480</ele>
        <time>2021-10-31T12:19:56.555Z</time>
      </trkpt>
      <trkpt lat="44.00763" lon="2.57827">
        <ele>480</ele>
        <time>2021-10-31T12:19:57.555Z</time>
      </trkpt>
      <trkpt lat="44.00764" lon="2.57828">
        <ele>480</ele>
        <time>2021-10-31T12:19:58.555Z</time>
      </trkpt>
      <trkpt lat="44.00765" lon="2.57828">
        <ele>480</ele>
        <time>2021-10-31T12:19:59.555Z</time>
      </trkpt>
      <trkpt lat="44.00766" lon="2.57829">
        <ele>480</ele>
        <time>2021-10-31T12:20:00.555Z</time>
      </trkpt>
      <trkpt lat="44.00767" lon="2.57829">
        <ele>480</ele>
        <time>2021-10-31T12:20:01.555Z</time>
      </trkpt>
      <trkpt lat="44.00768" lon="2.5783">
        <ele>481</ele>
        <time>2021-10-31T12:20:02.555Z</time>
      </trkpt>
      <trkpt lat="44.00769" lon="2.5783">
        <ele>481</ele>
        <time>2021-10-31T12:20:03.555Z</time>
      </trkpt>
      <trkpt lat="44.0077" lon="2.57831">
        <ele>481</ele>
        <time>2021-10-31T12:20:04.555Z</time>
      </trkpt>
      <trkpt lat="44.00771" lon="2.57831">
        <ele>481</ele>
        <time>2021-10-31T12:20:05.555Z</time>
      </trkpt>
      <trkpt lat="44.00772" lon="2.57831">
        <ele>481</ele>
        <time>2021-10-31T12:20:06.555Z</time>
      </trkpt>
      <trkpt lat="44.00773" lon="2.57832">
        <ele>481</ele>
        <time>2021-10-31T12:20:07.555Z</time>
      </trkpt>
      <trkpt lat="44.00774" lon="2.57832">
        <ele>482</ele>
        <time>2021-10-31T12:20:08.555Z</time>
      </trkpt>
      <trkpt lat="44.00775" lon="2.57832">
        <ele>482</ele>
        <time>2021-10-31T12:20:09.555Z</time>
      </trkpt>
      <trkpt lat="44.00776" lon="2.57833">
        <ele>482</ele>
        <time>2021-10-31T12:20:10.555Z</time>
      </trkpt>
      <trkpt lat="44.00777" lon="2.57833">
        <ele>482</ele>
        <time>2021-10-31T12:20:11.555Z</time>
      </trkpt>
      <trkpt lat="44.00778" lon="2.57834">
        <ele>482</ele>
        <time>2021-10-31T12:20:12.555Z</time>
      </trkpt>
      <trkpt lat="44.00779" lon="2.57835">
        <ele>482</ele>
        <time>2021-10-31T12:20:13.555Z</time>
      </trkpt>
      <trkpt lat="44.0078" lon="2.57835">
        <ele>482</ele>
        <time>2021-10-31T12:20:14.555Z</time>
      </trkpt>
      <trkpt lat="44.00781" lon="2.57836">
        <ele>482</ele>
        <time>2021-10-31T12:20:15.555Z</time>
      </trkpt>
      <trkpt lat="44.00782" lon="2.57837">
        <ele>483</ele>
        <time>2021-10-31T12:20:16.555Z</time>
      </trkpt>
      <trkpt lat="44.00783" lon="2.57837">
        <ele>483</ele>
        <time>2021-10-31T12:20:17.555Z</time>
      </trkpt>
      <trkpt lat="44.00784" lon="2.57838">
        <ele>483</ele>
        <time>2021-10-31T12:20:18.555Z</time>
      </trkpt>
      <trkpt lat="44.00785" lon="2.57839">
        <ele>483</ele>
        <time>2021-10-31T12:20:19.555Z</time>
      </trkpt>
      <trkpt lat="44.00786" lon="2.5784">
        <ele>483</ele>
        <time>2021-10-31T12:20:20.555Z</time>
      </trkpt>
      <trkpt lat="44.00787" lon="2.5784">
        <ele>483</ele>
        <time>2021-10-31T12:20:21.555Z</time>
      </trkpt>
      <trkpt lat="44.00788" lon="2.57841">
        <ele>483</ele>
        <time>2021-10-31T12:20:22.555Z</time>
      </trkpt>
      <trkpt lat="44.00789" lon="2.57842">
        <ele>483</ele>
        <time>2021-10-31T12:20:23.555Z</time>
      </trkpt>
      <trkpt lat="44.0079" lon="2.57843">
        <ele>483</ele>
        <time>2021-10-31T12:20:24.555Z</time>
      </trkpt>
      <trkpt lat="44.00791" lon="2.57843">
        <ele>484</ele>
        <time>2021-10-31T12:20:25.555Z</time>
      </trkpt>
      <trkpt lat="44.00792" lon="2.57844">
        <ele>484</ele>
        <time>2021-10-31T12:20:26.555Z</time>
      </trkpt>
      <trkpt lat="44.00793" lon="2.57845">
        <ele>484</ele>
        <time>2021-10-31T12:20:27.555Z</time>
      </trkpt>
      <trkpt lat="44.00794" lon="2.57845">
        <ele>484</ele>
        <time>2021-10-31T12:20:28.555Z</time>
      </trkpt>
      <trkpt lat="44.00795" lon="2.57846">
        <ele>484</ele>
        <time>2021-10-31T12:20:29.555Z</time>
      </trkpt>
      <trkpt lat="44.00796" lon="2.57846">
        <ele>484</ele>
        <time>2021-10-31T12:20:30.555Z</time>
      </trkpt>
      <trkpt lat="44.00797" lon="2.57847">
        <ele>484</ele>
        <time>2021-10-31T12:20:31.555Z</time>
      </trkpt>
      <trkpt lat="44.00798" lon="2.57848">
        <ele>484</ele>
        <time>2021-10-31T12:20:32.555Z</time>
      </trkpt>
      <trkpt lat="44.00798" lon="2.57849">
        <ele>484</ele>
        <time>2021-10-31T12:20:33.555Z</time>
      </trkpt>
      <trkpt lat="44.00799" lon="2.5785">
        <ele>484</ele>
        <time>2021-10-31T12:20:34.555Z</time>
      </trkpt>
      <trkpt lat="44.008" lon="2.57851">
        <ele>484</ele>
        <time>2021-10-31T12:20:35.555Z</time>
      </trkpt>
      <trkpt lat="44.00801" lon="2.57852">
        <ele>484</ele>
        <time>2021-10-31T12:20:36.555Z</time>
      </trkpt>
      <trkpt lat="44.00801" lon="2.57853">
        <ele>484</ele>
        <time>2021-10-31T12:20:37.555Z</time>
      </trkpt>
      <trkpt lat="44.00802" lon="2.57854">
        <ele>484</ele>
        <time>2021-10-31T12:20:38.555Z</time>
      </trkpt>
      <trkpt lat="44.00803" lon="2.57856">
        <ele>484</ele>
        <time>2021-10-31T12:20:39.555Z</time>
      </trkpt>
      <trkpt lat="44.00804" lon="2.57857">
        <ele>484</ele>
        <time>2021-10-31T12:20:40.555Z</time>
      </trkpt>
      <trkpt lat="44.00805" lon="2.57858">
        <ele>484</ele>
        <time>2021-10-31T12:20:41.555Z</time>
      </trkpt>
      <trkpt lat="44.00806" lon="2.57859">
        <ele>484</ele>
        <time>2021-10-31T12:20:42.555Z</time>
      </trkpt>
      <trkpt lat="44.00806" lon="2.5786">
        <ele>484</ele>
        <time>2021-10-31T12:20:43.555Z</time>
      </trkpt>
      <trkpt lat="44.00807" lon="2.57861">
        <ele>484</ele>
        <time>2021-10-31T12:20:44.555Z</time>
      </trkpt>
      <trkpt lat="44.00808" lon="2.57862">
        <ele>484</ele>
        <time>2021-10-31T12:20:45.555Z</time>
      </trkpt>
      <trkpt lat="44.00808" lon="2.57863">
        <ele>483</ele>
        <time>2021-10-31T12:20:46.555Z</time>
      </trkpt>
      <trkpt lat="44.00809" lon="2.57864">
        <ele>483</ele>
        <time>2021-10-31T12:20:47.555Z</time>
      </trkpt>
      <trkpt lat="44.00809" lon="2.57865">
        <ele>483</ele>
        <time>2021-10-31T12:20:48.555Z</time>
      </trkpt>
      <trkpt lat="44.0081" lon="2.57866">
        <ele>483</ele>
        <time>2021-10-31T12:20:49.555Z</time>
      </trkpt>
      <trkpt lat="44.00811" lon="2.57867">
        <ele>483</ele>
        <time>2021-10-31T12:20:50.555Z</time>
      </trkpt>
      <trkpt lat="44.00811" lon="2.57868">
        <ele>483</ele>
        <time>2021-10-31T12:20:51.555Z</time>
      </trkpt>
      <trkpt lat="44.00812" lon="2.57869">
        <ele>483</ele>
        <time>2021-10-31T12:20:52.555Z</time>
      </trkpt>
      <trkpt lat="44.00812" lon="2.57871">
        <ele>483</ele>
        <time>2021-10-31T12:20:53.555Z</time>
      </trkpt>
      <trkpt lat="44.00813" lon="2.57872">
        <ele>483</ele>
        <time>2021-10-31T12:20:54.555Z</time>
      </trkpt>
      <trkpt lat="44.00814" lon="2.57873">
        <ele>483</ele>
        <time>2021-10-31T12:20:55.555Z</time>
      </trkpt>
      <trkpt lat="44.00814" lon="2.57874">
        <ele>483</ele>
        <time>2021-10-31T12:20:56.555Z</time>
      </trkpt>
      <trkpt lat="44.00815" lon="2.57875">
        <ele>483</ele>
        <time>2021-10-31T12:20:57.555Z</time>
      </trkpt>
      <trkpt lat="44.00816" lon="2.57875">
        <ele>483</ele>
        <time>2021-10-31T12:20:58.555Z</time>
      </trkpt>
      <trkpt lat="44.00817" lon="2.57876">
        <ele>483</ele>
        <time>2021-10-31T12:20:59.555Z</time>
      </trkpt>
      <trkpt lat="44.00818" lon="2.57877">
        <ele>483</ele>
        <time>2021-10-31T12:21:00.555Z</time>
      </trkpt>
      <trkpt lat="44.00819" lon="2.57877">
        <ele>483</ele>
        <time>2021-10-31T12:21:01.555Z</time>
      </trkpt>
      <trkpt lat="44.0082" lon="2.57878">
        <ele>484</ele>
        <time>2021-10-31T12:21:02.555Z</time>
      </trkpt>
      <trkpt lat="44.00821" lon="2.57879">
        <ele>484</ele>
        <time>2021-10-31T12:21:03.555Z</time>
      </trkpt>
      <trkpt lat="44.00822" lon="2.57879">
        <ele>484</ele>
        <time>2021-10-31T12:21:04.555Z</time>
      </trkpt>
      <trkpt lat="44.00823" lon="2.5788">
        <ele>484</ele>
        <time>2021-10-31T12:21:05.555Z</time>
      </trkpt>
      <trkpt lat="44.00824" lon="2.5788">
        <ele>484</ele>
        <time>2021-10-31T12:21:06.555Z</time>
      </trkpt>
      <trkpt lat="44.00825" lon="2.57881">
        <ele>484</ele>
        <time>2021-10-31T12:21:07.555Z</time>
      </trkpt>
      <trkpt lat="44.00826" lon="2.57881">
        <ele>484</ele>
        <time>2021-10-31T12:21:08.555Z</time>
      </trkpt>
      <trkpt lat="44.00827" lon="2.57881">
        <ele>484</ele>
        <time>2021-10-31T12:21:09.555Z</time>
      </trkpt>
      <trkpt lat="44.00828" lon="2.57882">
        <ele>484</ele>
        <time>2021-10-31T12:21:10.555Z</time>
      </trkpt>
      <trkpt lat="44.00829" lon="2.57883">
        <ele>484</ele>
        <time>2021-10-31T12:21:11.555Z</time>
      </trkpt>
      <trkpt lat="44.0083" lon="2.57884">
        <ele>485</ele>
        <time>2021-10-31T12:21:12.555Z</time>
      </trkpt>
      <trkpt lat="44.00831" lon="2.57885">
        <ele>485</ele>
        <time>2021-10-31T12:21:13.555Z</time>
      </trkpt>
      <trkpt lat="44.00832" lon="2.57886">
        <ele>485</ele>
        <time>2021-10-31T12:21:14.555Z</time>
      </trkpt>
      <trkpt lat="44.00833" lon="2.57886">
        <ele>485</ele>
        <time>2021-10-31T12:21:15.555Z</time>
      </trkpt>
      <trkpt lat="44.00834" lon="2.57887">
        <ele>485</ele>
        <time>2021-10-31T12:21:16.555Z</time>
      </trkpt>
      <trkpt lat="44.00835" lon="2.57888">
        <ele>485</ele>
        <time>2021-10-31T12:21:17.555Z</time>
      </trkpt>
      <trkpt lat="44.00836" lon="2.57889">
        <ele>485</ele>
        <time>2021-10-31T12:21:18.555Z</time>
      </trkpt>
      <trkpt lat="44.00837" lon="2.5789">
        <ele>485</ele>
        <time>2021-10-31T12:21:19.555Z</time>
      </trkpt>
      <trkpt lat="44.00838" lon="2.57891">
        <ele>485</ele>
        <time>2021-10-31T12:21:20.555Z</time>
      </trkpt>
      <trkpt lat="44.00839" lon="2.57892">
        <ele>485</ele>
        <time>2021-10-31T12:21:21.555Z</time>
      </trkpt>
      <trkpt lat="44.0084" lon="2.57893">
        <ele>485</ele>
        <time>2021-10-31T12:21:22.555Z</time>
      </trkpt>
      <trkpt lat="44.0084" lon="2.57894">
        <ele>486</ele>
        <time>2021-10-31T12:21:23.555Z</time>
      </trkpt>
      <trkpt lat="44.00841" lon="2.57895">
        <ele>486</ele>
        <time>2021-10-31T12:21:24.555Z</time>
      </trkpt>
      <trkpt lat="44.00841" lon="2.57895">
        <ele>486</ele>
        <time>2021-10-31T12:21:25.555Z</time>
      </trkpt>
      <trkpt lat="44.00842" lon="2.57895">
        <ele>486</ele>
        <time>2021-10-31T12:21:26.555Z</time>
      </trkpt>
      <trkpt lat="44.00842" lon="2.57896">
        <ele>486</ele>
        <time>2021-10-31T12:21:27.555Z</time>
      </trkpt>
      <trkpt lat="44.00843" lon="2.57898">
        <ele>486</ele>
        <time>2021-10-31T12:21:28.555Z</time>
      </trkpt>
      <trkpt lat="44.00844" lon="2.57899">
        <ele>486</ele>
        <time>2021-10-31T12:21:29.555Z</time>
      </trkpt>
      <trkpt lat="44.00844" lon="2.579">
        <ele>486</ele>
        <time>2021-10-31T12:21:30.555Z</time>
      </trkpt>
      <trkpt lat="44.00845" lon="2.57901">
        <ele>486</ele>
        <time>2021-10-31T12:21:31.555Z</time>
      </trkpt>
      <trkpt lat="44.00846" lon="2.57902">
        <ele>486</ele>
        <time>2021-10-31T12:21:32.555Z</time>
      </trkpt>
      <trkpt lat="44.00847" lon="2.57902">
        <ele>486</ele>
        <time>2021-10-31T12:21:33.555Z</time>
      </trkpt>
      <trkpt lat="44.00847" lon="2.57903">
        <ele>486</ele>
        <time>2021-10-31T12:21:34.555Z</time>
      </trkpt>
      <trkpt lat="44.00848" lon="2.57904">
        <ele>486</ele>
        <time>2021-10-31T12:21:35.555Z</time>
      </trkpt>
      <trkpt lat="44.00849" lon="2.57905">
        <ele>487</ele>
        <time>2021-10-31T12:21:36.555Z</time>
      </trkpt>
      <trkpt lat="44.0085" lon="2.57906">
        <ele>487</ele>
        <time>2021-10-31T12:21:37.555Z</time>
      </trkpt>
      <trkpt lat="44.00851" lon="2.57907">
        <ele>487</ele>
        <time>2021-10-31T12:21:38.555Z</time>
      </trkpt>
      <trkpt lat="44.00852" lon="2.57908">
        <ele>487</ele>
        <time>2021-10-31T12:21:39.555Z</time>
      </trkpt>
      <trkpt lat="44.00853" lon="2.57908">
        <ele>487</ele>
        <time>2021-10-31T12:21:40.555Z</time>
      </trkpt>
      <trkpt lat="44.00854" lon="2.57909">
        <ele>487</ele>
        <time>2021-10-31T12:21:41.555Z</time>
      </trkpt>
      <trkpt lat="44.00855" lon="2.5791">
        <ele>487</ele>
        <time>2021-10-31T12:21:42.555Z</time>
      </trkpt>
      <trkpt lat="44.00856" lon="2.57911">
        <ele>488</ele>
        <time>2021-10-31T12:21:43.555Z</time>
      </trkpt>
      <trkpt lat="44.00857" lon="2.57911">
        <ele>488</ele>
        <time>2021-10-31T12:21:44.555Z</time>
      </trkpt>
      <trkpt lat="44.00858" lon="2.57912">
        <ele>488</ele>
        <time>2021-10-31T12:21:45.555Z</time>
      </trkpt>
      <trkpt lat="44.00859" lon="2.57912">
        <ele>488</ele>
        <time>2021-10-31T12:21:46.555Z</time>
      </trkpt>
      <trkpt lat="44.0086" lon="2.57913">
        <ele>488</ele>
        <time>2021-10-31T12:21:47.555Z</time>
      </trkpt>
      <trkpt lat="44.00861" lon="2.57913">
        <ele>489</ele>
        <time>2021-10-31T12:21:48.555Z</time>
      </trkpt>
      <trkpt lat="44.00862" lon="2.57913">
        <ele>489</ele>
        <time>2021-10-31T12:21:49.555Z</time>
      </trkpt>
      <trkpt lat="44.00863" lon="2.57914">
        <ele>489</ele>
        <time>2021-10-31T12:21:50.555Z</time>
      </trkpt>
      <trkpt lat="44.00864" lon="2.57914">
        <ele>489</ele>
        <time>2021-10-31T12:21:51.555Z</time>
      </trkpt>
      <trkpt lat="44.00865" lon="2.57914">
        <ele>489</ele>
        <time>2021-10-31T12:21:52.555Z</time>
      </trkpt>
      <trkpt lat="44.00866" lon="2.57914">
        <ele>489</ele>
        <time>2021-10-31T12:21:53.555Z</time>
      </trkpt>
      <trkpt lat="44.00867" lon="2.57914">
        <ele>490</ele>
        <time>2021-10-31T12:21:54.555Z</time>
      </trkpt>
      <trkpt lat="44.00868" lon="2.57914">
        <ele>490</ele>
        <time>2021-10-31T12:21:55.555Z</time>
      </trkpt>
      <trkpt lat="44.00869" lon="2.57913">
        <ele>490</ele>
        <time>2021-10-31T12:21:56.555Z</time>
      </trkpt>
      <trkpt lat="44.0087" lon="2.57913">
        <ele>490</ele>
        <time>2021-10-31T12:21:57.555Z</time>
      </trkpt>
      <trkpt lat="44.00871" lon="2.57913">
        <ele>490</ele>
        <time>2021-10-31T12:21:58.555Z</time>
      </trkpt>
      <trkpt lat="44.00872" lon="2.57912">
        <ele>491</ele>
        <time>2021-10-31T12:21:59.555Z</time>
      </trkpt>
      <trkpt lat="44.00872" lon="2.57912">
        <ele>491</ele>
        <time>2021-10-31T12:22:00.555Z</time>
      </trkpt>
      <trkpt lat="44.00873" lon="2.57911">
        <ele>491</ele>
        <time>2021-10-31T12:22:01.555Z</time>
      </trkpt>
      <trkpt lat="44.00874" lon="2.5791">
        <ele>491</ele>
        <time>2021-10-31T12:22:02.555Z</time>
      </trkpt>
      <trkpt lat="44.00875" lon="2.5791">
        <ele>491</ele>
        <time>2021-10-31T12:22:03.555Z</time>
      </trkpt>
      <trkpt lat="44.00875" lon="2.57909">
        <ele>491</ele>
        <time>2021-10-31T12:22:04.555Z</time>
      </trkpt>
      <trkpt lat="44.00876" lon="2.57908">
        <ele>491</ele>
        <time>2021-10-31T12:22:05.555Z</time>
      </trkpt>
      <trkpt lat="44.00877" lon="2.57907">
        <ele>492</ele>
        <time>2021-10-31T12:22:06.555Z</time>
      </trkpt>
      <trkpt lat="44.00878" lon="2.57907">
        <ele>492</ele>
        <time>2021-10-31T12:22:07.555Z</time>
      </trkpt>
      <trkpt lat="44.00879" lon="2.57906">
        <ele>492</ele>
        <time>2021-10-31T12:22:08.555Z</time>
      </trkpt>
      <trkpt lat="44.00879" lon="2.57904">
        <ele>492</ele>
        <time>2021-10-31T12:22:09.555Z</time>
      </trkpt>
      <trkpt lat="44.0088" lon="2.57903">
        <ele>492</ele>
        <time>2021-10-31T12:22:10.555Z</time>
      </trkpt>
      <trkpt lat="44.00881" lon="2.57902">
        <ele>492</ele>
        <time>2021-10-31T12:22:11.555Z</time>
      </trkpt>
      <trkpt lat="44.00882" lon="2.57901">
        <ele>493</ele>
        <time>2021-10-31T12:22:12.555Z</time>
      </trkpt>
      <trkpt lat="44.00883" lon="2.579">
        <ele>493</ele>
        <time>2021-10-31T12:22:13.555Z</time>
      </trkpt>
      <trkpt lat="44.00884" lon="2.57899">
        <ele>493</ele>
        <time>2021-10-31T12:22:14.555Z</time>
      </trkpt>
      <trkpt lat="44.00884" lon="2.57898">
        <ele>493</ele>
        <time>2021-10-31T12:22:15.555Z</time>
      </trkpt>
      <trkpt lat="44.00885" lon="2.57897">
        <ele>493</ele>
        <time>2021-10-31T12:22:16.555Z</time>
      </trkpt>
      <trkpt lat="44.00885" lon="2.57896">
        <ele>493</ele>
        <time>2021-10-31T12:22:17.555Z</time>
      </trkpt>
      <trkpt lat="44.00886" lon="2.57895">
        <ele>493</ele>
        <time>2021-10-31T12:22:18.555Z</time>
      </trkpt>
      <trkpt lat="44.00886" lon="2.57894">
        <ele>494</ele>
        <time>2021-10-31T12:22:19.555Z</time>
      </trkpt>
      <trkpt lat="44.00887" lon="2.57893">
        <ele>494</ele>
        <time>2021-10-31T12:22:20.555Z</time>
      </trkpt>
      <trkpt lat="44.00888" lon="2.57893">
        <ele>494</ele>
        <time>2021-10-31T12:22:21.555Z</time>
      </trkpt>
      <trkpt lat="44.00889" lon="2.57892">
        <ele>494</ele>
        <time>2021-10-31T12:22:22.555Z</time>
      </trkpt>
      <trkpt lat="44.0089" lon="2.57891">
        <ele>494</ele>
        <time>2021-10-31T12:22:23.555Z</time>
      </trkpt>
      <trkpt lat="44.00891" lon="2.57891">
        <ele>495</ele>
        <time>2021-10-31T12:22:24.555Z</time>
      </trkpt>
      <trkpt lat="44.00891" lon="2.5789">
        <ele>495</ele>
        <time>2021-10-31T12:22:25.555Z</time>
      </trkpt>
      <trkpt lat="44.00892" lon="2.57889">
        <ele>495</ele>
        <time>2021-10-31T12:22:26.555Z</time>
      </trkpt>
      <trkpt lat="44.00893" lon="2.57888">
        <ele>495</ele>
        <time>2021-10-31T12:22:27.555Z</time>
      </trkpt>
      <trkpt lat="44.00894" lon="2.57887">
        <ele>495</ele>
        <time>2021-10-31T12:22:28.555Z</time>
      </trkpt>
      <trkpt lat="44.00894" lon="2.57886">
        <ele>495</ele>
        <time>2021-10-31T12:22:29.555Z</time>
      </trkpt>
      <trkpt lat="44.00895" lon="2.57886">
        <ele>496</ele>
        <time>2021-10-31T12:22:30.555Z</time>
      </trkpt>
      <trkpt lat="44.00896" lon="2.57885">
        <ele>496</ele>
        <time>2021-10-31T12:22:31.555Z</time>
      </trkpt>
      <trkpt lat="44.00897" lon="2.57884">
        <ele>496</ele>
        <time>2021-10-31T12:22:32.555Z</time>
      </trkpt>
      <trkpt lat="44.00897" lon="2.57883">
        <ele>496</ele>
        <time>2021-10-31T12:22:33.555Z</time>
      </trkpt>
      <trkpt lat="44.00898" lon="2.57882">
        <ele>496</ele>
        <time>2021-10-31T12:22:34.555Z</time>
      </trkpt>
      <trkpt lat="44.00898" lon="2.57881">
        <ele>496</ele>
        <time>2021-10-31T12:22:35.555Z</time>
      </trkpt>
      <trkpt lat="44.00899" lon="2.5788">
        <ele>496</ele>
        <time>2021-10-31T12:22:36.555Z</time>
      </trkpt>
      <trkpt lat="44.009" lon="2.57879">
        <ele>497</ele>
        <time>2021-10-31T12:22:37.555Z</time>
      </trkpt>
      <trkpt lat="44.009" lon="2.57878">
        <ele>497</ele>
        <time>2021-10-31T12:22:38.555Z</time>
      </trkpt>
      <trkpt lat="44.00901" lon="2.57878">
        <ele>497</ele>
        <time>2021-10-31T12:22:39.555Z</time>
      </trkpt>
      <trkpt lat="44.00902" lon="2.57877">
        <ele>497</ele>
        <time>2021-10-31T12:22:40.555Z</time>
      </trkpt>
      <trkpt lat="44.00903" lon="2.57876">
        <ele>497</ele>
        <time>2021-10-31T12:22:41.555Z</time>
      </trkpt>
      <trkpt lat="44.00904" lon="2.57875">
        <ele>497</ele>
        <time>2021-10-31T12:22:42.555Z</time>
      </trkpt>
      <trkpt lat="44.00904" lon="2.57875">
        <ele>497</ele>
        <time>2021-10-31T12:22:43.555Z</time>
      </trkpt>
      <trkpt lat="44.00904" lon="2.57874">
        <ele>498</ele>
        <time>2021-10-31T12:22:44.555Z</time>
      </trkpt>
      <trkpt lat="44.00905" lon="2.57872">
        <ele>498</ele>
        <time>2021-10-31T12:22:45.555Z</time>
      </trkpt>
      <trkpt lat="44.00906" lon="2.57871">
        <ele>498</ele>
        <time>2021-10-31T12:22:46.555Z</time>
      </trkpt>
      <trkpt lat="44.00906" lon="2.57871">
        <ele>498</ele>
        <time>2021-10-31T12:22:47.555Z</time>
      </trkpt>
      <trkpt lat="44.00907" lon="2.5787">
        <ele>498</ele>
        <time>2021-10-31T12:22:48.555Z</time>
      </trkpt>
      <trkpt lat="44.00907" lon="2.57869">
        <ele>498</ele>
        <time>2021-10-31T12:22:49.555Z</time>
      </trkpt>
      <trkpt lat="44.00908" lon="2.57868">
        <ele>499</ele>
        <time>2021-10-31T12:22:50.555Z</time>
      </trkpt>
      <trkpt lat="44.00909" lon="2.57867">
        <ele>499</ele>
        <time>2021-10-31T12:22:51.555Z</time>
      </trkpt>
      <trkpt lat="44.00909" lon="2.57866">
        <ele>499</ele>
        <time>2021-10-31T12:22:52.555Z</time>
      </trkpt>
      <trkpt lat="44.0091" lon="2.57865">
        <ele>499</ele>
        <time>2021-10-31T12:22:53.555Z</time>
      </trkpt>
      <trkpt lat="44.0091" lon="2.57864">
        <ele>499</ele>
        <time>2021-10-31T12:22:54.555Z</time>
      </trkpt>
      <trkpt lat="44.00911" lon="2.57863">
        <ele>499</ele>
        <time>2021-10-31T12:22:55.555Z</time>
      </trkpt>
      <trkpt lat="44.00912" lon="2.57863">
        <ele>500</ele>
        <time>2021-10-31T12:22:56.555Z</time>
      </trkpt>
      <trkpt lat="44.00912" lon="2.57862">
        <ele>500</ele>
        <time>2021-10-31T12:22:57.555Z</time>
      </trkpt>
      <trkpt lat="44.00913" lon="2.57861">
        <ele>500</ele>
        <time>2021-10-31T12:22:58.555Z</time>
      </trkpt>
      <trkpt lat="44.00913" lon="2.5786">
        <ele>500</ele>
        <time>2021-10-31T12:22:59.555Z</time>
      </trkpt>
      <trkpt lat="44.00914" lon="2.57859">
        <ele>500</ele>
        <time>2021-10-31T12:23:00.555Z</time>
      </trkpt>
      <trkpt lat="44.00915" lon="2.57858">
        <ele>501</ele>
        <time>2021-10-31T12:23:01.555Z</time>
      </trkpt>
      <trkpt lat="44.00915" lon="2.57857">
        <ele>501</ele>
        <time>2021-10-31T12:23:02.555Z</time>
      </trkpt>
      <trkpt lat="44.00916" lon="2.57856">
        <ele>501</ele>
        <time>2021-10-31T12:23:03.555Z</time>
      </trkpt>
      <trkpt lat="44.00917" lon="2.57854">
        <ele>501</ele>
        <time>2021-10-31T12:23:04.555Z</time>
      </trkpt>
      <trkpt lat="44.00917" lon="2.57853">
        <ele>501</ele>
        <time>2021-10-31T12:23:05.555Z</time>
      </trkpt>
      <trkpt lat="44.00918" lon="2.57853">
        <ele>501</ele>
        <time>2021-10-31T12:23:06.555Z</time>
      </trkpt>
      <trkpt lat="44.00919" lon="2.57852">
        <ele>501</ele>
        <time>2021-10-31T12:23:07.555Z</time>
      </trkpt>
      <trkpt lat="44.0092" lon="2.57851">
        <ele>501</ele>
        <time>2021-10-31T12:23:08.555Z</time>
      </trkpt>
      <trkpt lat="44.00921" lon="2.5785">
        <ele>502</ele>
        <time>2021-10-31T12:23:09.555Z</time>
      </trkpt>
      <trkpt lat="44.00921" lon="2.57849">
        <ele>502</ele>
        <time>2021-10-31T12:23:10.555Z</time>
      </trkpt>
      <trkpt lat="44.00922" lon="2.57848">
        <ele>502</ele>
        <time>2021-10-31T12:23:11.555Z</time>
      </trkpt>
      <trkpt lat="44.00922" lon="2.57847">
        <ele>502</ele>
        <time>2021-10-31T12:23:12.555Z</time>
      </trkpt>
      <trkpt lat="44.00923" lon="2.57846">
        <ele>502</ele>
        <time>2021-10-31T12:23:13.555Z</time>
      </trkpt>
      <trkpt lat="44.00924" lon="2.57845">
        <ele>502</ele>
        <time>2021-10-31T12:23:14.555Z</time>
      </trkpt>
      <trkpt lat="44.00924" lon="2.57845">
        <ele>502</ele>
        <time>2021-10-31T12:23:15.555Z</time>
      </trkpt>
      <trkpt lat="44.00925" lon="2.57844">
        <ele>503</ele>
        <time>2021-10-31T12:23:16.555Z</time>
      </trkpt>
      <trkpt lat="44.00926" lon="2.57843">
        <ele>503</ele>
        <time>2021-10-31T12:23:17.555Z</time>
      </trkpt>
      <trkpt lat="44.00927" lon="2.57843">
        <ele>503</ele>
        <time>2021-10-31T12:23:18.555Z</time>
      </trkpt>
      <trkpt lat="44.00927" lon="2.57842">
        <ele>503</ele>
        <time>2021-10-31T12:23:19.555Z</time>
      </trkpt>
      <trkpt lat="44.00928" lon="2.57841">
        <ele>503</ele>
        <time>2021-10-31T12:23:20.555Z</time>
      </trkpt>
      <trkpt lat="44.00929" lon="2.5784">
        <ele>503</ele>
        <time>2021-10-31T12:23:21.555Z</time>
      </trkpt>
      <trkpt lat="44.00929" lon="2.5784">
        <ele>503</ele>
        <time>2021-10-31T12:23:22.555Z</time>
      </trkpt>
      <trkpt lat="44.0093" lon="2.57839">
        <ele>504</ele>
        <time>2021-10-31T12:23:23.555Z</time>
      </trkpt>
      <trkpt lat="44.00931" lon="2.57838">
        <ele>504</ele>
        <time>2021-10-31T12:23:24.555Z</time>
      </trkpt>
      <trkpt lat="44.00931" lon="2.57838">
        <ele>504</ele>
        <time>2021-10-31T12:23:25.555Z</time>
      </trkpt>
      <trkpt lat="44.00932" lon="2.57837">
        <ele>504</ele>
        <time>2021-10-31T12:23:26.555Z</time>
      </trkpt>
      <trkpt lat="44.00933" lon="2.57836">
        <ele>504</ele>
        <time>2021-10-31T12:23:27.555Z</time>
      </trkpt>
      <trkpt lat="44.00933" lon="2.57835">
        <ele>504</ele>
        <time>2021-10-31T12:23:28.555Z</time>
      </trkpt>
      <trkpt lat="44.00934" lon="2.57834">
        <ele>505</ele>
        <time>2021-10-31T12:23:29.555Z</time>
      </trkpt>
      <trkpt lat="44.00935" lon="2.57833">
        <ele>505</ele>
        <time>2021-10-31T12:23:30.555Z</time>
      </trkpt>
      <trkpt lat="44.00936" lon="2.57832">
        <ele>505</ele>
        <time>2021-10-31T12:23:31.555Z</time>
      </trkpt>
      <trkpt lat="44.00937" lon="2.57832">
        <ele>505</ele>
        <time>2021-10-31T12:23:32.555Z</time>
      </trkpt>
      <trkpt lat="44.00938" lon="2.57831">
        <ele>505</ele>
        <time>2021-10-31T12:23:33.555Z</time>
      </trkpt>
      <trkpt lat="44.00939" lon="2.5783">
        <ele>506</ele>
        <time>2021-10-31T12:23:34.555Z</time>
      </trkpt>
      <trkpt lat="44.0094" lon="2.5783">
        <ele>506</ele>
        <time>2021-10-31T12:23:35.555Z</time>
      </trkpt>
      <trkpt lat="44.00941" lon="2.57829">
        <ele>506</ele>
        <time>2021-10-31T12:23:36.555Z</time>
      </trkpt>
      <trkpt lat="44.00941" lon="2.57828">
        <ele>506</ele>
        <time>2021-10-31T12:23:37.555Z</time>
      </trkpt>
      <trkpt lat="44.00942" lon="2.57827">
        <ele>506</ele>
        <time>2021-10-31T12:23:38.555Z</time>
      </trkpt>
      <trkpt lat="44.00943" lon="2.57826">
        <ele>506</ele>
        <time>2021-10-31T12:23:39.555Z</time>
      </trkpt>
      <trkpt lat="44.00944" lon="2.57824">
        <ele>506</ele>
        <time>2021-10-31T12:23:40.555Z</time>
      </trkpt>
      <trkpt lat="44.00944" lon="2.57823">
        <ele>506</ele>
        <time>2021-10-31T12:23:41.555Z</time>
      </trkpt>
      <trkpt lat="44.00945" lon="2.57823">
        <ele>507</ele>
        <time>2021-10-31T12:23:42.555Z</time>
      </trkpt>
      <trkpt lat="44.00946" lon="2.57822">
        <ele>507</ele>
        <time>2021-10-31T12:23:43.555Z</time>
      </trkpt>
      <trkpt lat="44.00947" lon="2.57821">
        <ele>507</ele>
        <time>2021-10-31T12:23:44.555Z</time>
      </trkpt>
      <trkpt lat="44.00948" lon="2.57819">
        <ele>507</ele>
        <time>2021-10-31T12:23:45.555Z</time>
      </trkpt>
      <trkpt lat="44.00948" lon="2.57818">
        <ele>507</ele>
        <time>2021-10-31T12:23:46.555Z</time>
      </trkpt>
      <trkpt lat="44.00949" lon="2.57817">
        <ele>508</ele>
        <time>2021-10-31T12:23:47.555Z</time>
      </trkpt>
      <trkpt lat="44.0095" lon="2.57816">
        <ele>508</ele>
        <time>2021-10-31T12:23:48.555Z</time>
      </trkpt>
      <trkpt lat="44.00951" lon="2.57815">
        <ele>508</ele>
        <time>2021-10-31T12:23:49.555Z</time>
      </trkpt>
      <trkpt lat="44.00952" lon="2.57814">
        <ele>508</ele>
        <time>2021-10-31T12:23:50.555Z</time>
      </trkpt>
      <trkpt lat="44.00953" lon="2.57813">
        <ele>508</ele>
        <time>2021-10-31T12:24:03.554Z</time>
      </trkpt>
      <trkpt lat="44.00954" lon="2.57811">
        <ele>509</ele>
        <time>2021-10-31T12:24:04.554Z</time>
      </trkpt>
      <trkpt lat="44.00954" lon="2.5781">
        <ele>509</ele>
        <time>2021-10-31T12:24:05.554Z</time>
      </trkpt>
      <trkpt lat="44.00955" lon="2.57809">
        <ele>509</ele>
        <time>2021-10-31T12:24:06.554Z</time>
      </trkpt>
      <trkpt lat="44.00956" lon="2.57808">
        <ele>509</ele>
        <time>2021-10-31T12:24:07.554Z</time>
      </trkpt>
      <trkpt lat="44.00956" lon="2.57806">
        <ele>509</ele>
        <time>2021-10-31T12:24:08.554Z</time>
      </trkpt>
      <trkpt lat="44.00957" lon="2.57805">
        <ele>509</ele>
        <time>2021-10-31T12:24:44.569Z</time>
      </trkpt>
      <trkpt lat="44.00958" lon="2.57805">
        <ele>510</ele>
        <time>2021-10-31T12:24:45.569Z</time>
      </trkpt>
      <trkpt lat="44.00959" lon="2.57804">
        <ele>510</ele>
        <time>2021-10-31T12:26:32.569Z</time>
      </trkpt>
      <trkpt lat="44.0096" lon="2.57803">
        <ele>510</ele>
        <time>2021-10-31T12:26:33.569Z</time>
      </trkpt>
      <trkpt lat="44.00961" lon="2.57802">
        <ele>510</ele>
        <time>2021-10-31T12:26:34.569Z</time>
      </trkpt>
      <trkpt lat="44.00962" lon="2.57801">
        <ele>510</ele>
        <time>2021-10-31T12:28:05.195Z</time>
      </trkpt>
      <trkpt lat="44.00963" lon="2.578">
        <ele>510</ele>
        <time>2021-10-31T12:28:06.195Z</time>
      </trkpt>
      <trkpt lat="44.00964" lon="2.57799">
        <ele>510</ele>
        <time>2021-10-31T12:28:07.195Z</time>
      </trkpt>
      <trkpt lat="44.00965" lon="2.57798">
        <ele>510</ele>
        <time>2021-10-31T12:28:57.195Z</time>
      </trkpt>
      <trkpt lat="44.00966" lon="2.57797">
        <ele>510</ele>
        <time>2021-10-31T12:28:58.195Z</time>
      </trkpt>
      <trkpt lat="44.00966" lon="2.57796">
        <ele>510</ele>
        <time>2021-10-31T12:29:01.449Z</time>
      </trkpt>
      <trkpt lat="44.00967" lon="2.57795">
        <ele>510</ele>
        <time>2021-10-31T12:29:02.449Z</time>
      </trkpt>
      <trkpt lat="44.00967" lon="2.57794">
        <ele>510</ele>
        <time>2021-10-31T12:29:03.449Z</time>
      </trkpt>
      <trkpt lat="44.00968" lon="2.57793">
        <ele>510</ele>
        <time>2021-10-31T12:29:04.449Z</time>
      </trkpt>
      <trkpt lat="44.00968" lon="2.57792">
        <ele>510</ele>
        <time>2021-10-31T12:29:05.449Z</time>
      </trkpt>
      <trkpt lat="44.00969" lon="2.57791">
        <ele>510</ele>
        <time>2021-10-31T12:29:06.449Z</time>
      </trkpt>
      <trkpt lat="44.0097" lon="2.5779">
        <ele>510</ele>
        <time>2021-10-31T12:29:07.449Z</time>
      </trkpt>
      <trkpt lat="44.0097" lon="2.5779">
        <ele>510</ele>
        <time>2021-10-31T12:29:08.449Z</time>
      </trkpt>
      <trkpt lat="44.00971" lon="2.57789">
        <ele>510</ele>
        <time>2021-10-31T12:29:09.449Z</time>
      </trkpt>
      <trkpt lat="44.00972" lon="2.57789">
        <ele>511</ele>
        <time>2021-10-31T12:29:10.449Z</time>
      </trkpt>
      <trkpt lat="44.00973" lon="2.57788">
        <ele>511</ele>
        <time>2021-10-31T12:29:11.449Z</time>
      </trkpt>
      <trkpt lat="44.00974" lon="2.57788">
        <ele>511</ele>
        <time>2021-10-31T12:29:12.449Z</time>
      </trkpt>
      <trkpt lat="44.00974" lon="2.57787">
        <ele>511</ele>
        <time>2021-10-31T12:29:37.450Z</time>
      </trkpt>
      <trkpt lat="44.00975" lon="2.57786">
        <ele>511</ele>
        <time>2021-10-31T12:29:38.450Z</time>
      </trkpt>
      <trkpt lat="44.00975" lon="2.57786">
        <ele>511</ele>
        <time>2021-10-31T12:29:39.450Z</time>
      </trkpt>
      <trkpt lat="44.00976" lon="2.57785">
        <ele>511</ele>
        <time>2021-10-31T12:29:40.450Z</time>
      </trkpt>
      <trkpt lat="44.00977" lon="2.57785">
        <ele>511</ele>
        <time>2021-10-31T12:29:41.450Z</time>
      </trkpt>
      <trkpt lat="44.00978" lon="2.57784">
        <ele>511</ele>
        <time>2021-10-31T12:29:42.450Z</time>
      </trkpt>
      <trkpt lat="44.00979" lon="2.57784">
        <ele>511</ele>
        <time>2021-10-31T12:29:43.450Z</time>
      </trkpt>
      <trkpt lat="44.00979" lon="2.57784">
        <ele>511</ele>
        <time>2021-10-31T12:29:44.450Z</time>
      </trkpt>
      <trkpt lat="44.0098" lon="2.57783">
        <ele>511</ele>
        <time>2021-10-31T12:29:45.450Z</time>
      </trkpt>
      <trkpt lat="44.00981" lon="2.57783">
        <ele>512</ele>
        <time>2021-10-31T12:29:46.450Z</time>
      </trkpt>
      <trkpt lat="44.00982" lon="2.57782">
        <ele>512</ele>
        <time>2021-10-31T12:29:47.450Z</time>
      </trkpt>
      <trkpt lat="44.00983" lon="2.57782">
        <ele>512</ele>
        <time>2021-10-31T12:29:48.450Z</time>
      </trkpt>
      <trkpt lat="44.00984" lon="2.57781">
        <ele>512</ele>
        <time>2021-10-31T12:29:49.450Z</time>
      </trkpt>
      <trkpt lat="44.00984" lon="2.57781">
        <ele>512</ele>
        <time>2021-10-31T12:29:50.450Z</time>
      </trkpt>
      <trkpt lat="44.00985" lon="2.5778">
        <ele>512</ele>
        <time>2021-10-31T12:29:51.450Z</time>
      </trkpt>
      <trkpt lat="44.00986" lon="2.5778">
        <ele>512</ele>
        <time>2021-10-31T12:29:52.450Z</time>
      </trkpt>
      <trkpt lat="44.00987" lon="2.5778">
        <ele>512</ele>
        <time>2021-10-31T12:29:53.450Z</time>
      </trkpt>
      <trkpt lat="44.00988" lon="2.5778">
        <ele>512</ele>
        <time>2021-10-31T12:29:54.450Z</time>
      </trkpt>
      <trkpt lat="44.00989" lon="2.57779">
        <ele>512</ele>
        <time>2021-10-31T12:29:55.450Z</time>
      </trkpt>
      <trkpt lat="44.0099" lon="2.57779">
        <ele>512</ele>
        <time>2021-10-31T12:29:56.450Z</time>
      </trkpt>
      <trkpt lat="44.0099" lon="2.57779">
        <ele>512</ele>
        <time>2021-10-31T12:29:57.450Z</time>
      </trkpt>
      <trkpt lat="44.00991" lon="2.57779">
        <ele>512</ele>
        <time>2021-10-31T12:29:58.450Z</time>
      </trkpt>
      <trkpt lat="44.00992" lon="2.57779">
        <ele>512</ele>
        <time>2021-10-31T12:29:59.450Z</time>
      </trkpt>
      <trkpt lat="44.00993" lon="2.57779">
        <ele>512</ele>
        <time>2021-10-31T12:30:00.450Z</time>
      </trkpt>
      <trkpt lat="44.00993" lon="2.57778">
        <ele>512</ele>
        <time>2021-10-31T12:30:01.450Z</time>
      </trkpt>
      <trkpt lat="44.00993" lon="2.57778">
        <ele>512</ele>
        <time>2021-10-31T12:30:02.450Z</time>
      </trkpt>
      <trkpt lat="44.00994" lon="2.57778">
        <ele>512</ele>
        <time>2021-10-31T12:30:03.450Z</time>
      </trkpt>
      <trkpt lat="44.00995" lon="2.57778">
        <ele>512</ele>
        <time>2021-10-31T12:30:04.450Z</time>
      </trkpt>
      <trkpt lat="44.00996" lon="2.57779">
        <ele>512</ele>
        <time>2021-10-31T12:30:05.450Z</time>
      </trkpt>
      <trkpt lat="44.00997" lon="2.57779">
        <ele>512</ele>
        <time>2021-10-31T12:30:06.450Z</time>
      </trkpt>
      <trkpt lat="44.00998" lon="2.57778">
        <ele>512</ele>
        <time>2021-10-31T12:30:07.450Z</time>
      </trkpt>
      <trkpt lat="44.01" lon="2.57779">
        <ele>512</ele>
        <time>2021-10-31T12:30:08.450Z</time>
      </trkpt>
      <trkpt lat="44.01001" lon="2.57779">
        <ele>512</ele>
        <time>2021-10-31T12:30:09.450Z</time>
      </trkpt>
      <trkpt lat="44.01002" lon="2.57779">
        <ele>512</ele>
        <time>2021-10-31T12:30:10.450Z</time>
      </trkpt>
      <trkpt lat="44.01003" lon="2.57779">
        <ele>512</ele>
        <time>2021-10-31T12:30:11.450Z</time>
      </trkpt>
      <trkpt lat="44.01004" lon="2.5778">
        <ele>512</ele>
        <time>2021-10-31T12:30:12.450Z</time>
      </trkpt>
      <trkpt lat="44.01006" lon="2.5778">
        <ele>512</ele>
        <time>2021-10-31T12:30:13.450Z</time>
      </trkpt>
      <trkpt lat="44.01007" lon="2.5778">
        <ele>512</ele>
        <time>2021-10-31T12:30:14.450Z</time>
      </trkpt>
      <trkpt lat="44.01008" lon="2.5778">
        <ele>513</ele>
        <time>2021-10-31T12:30:15.450Z</time>
      </trkpt>
      <trkpt lat="44.01009" lon="2.57781">
        <ele>513</ele>
        <time>2021-10-31T12:30:16.450Z</time>
      </trkpt>
      <trkpt lat="44.0101" lon="2.57781">
        <ele>513</ele>
        <time>2021-10-31T12:30:17.450Z</time>
      </trkpt>
      <trkpt lat="44.01012" lon="2.57781">
        <ele>513</ele>
        <time>2021-10-31T12:30:18.450Z</time>
      </trkpt>
      <trkpt lat="44.01013" lon="2.57781">
        <ele>512</ele>
        <time>2021-10-31T12:30:19.450Z</time>
      </trkpt>
      <trkpt lat="44.01014" lon="2.57781">
        <ele>512</ele>
        <time>2021-10-31T12:30:20.450Z</time>
      </trkpt>
      <trkpt lat="44.01015" lon="2.57781">
        <ele>512</ele>
        <time>2021-10-31T12:30:21.450Z</time>
      </trkpt>
      <trkpt lat="44.01016" lon="2.57781">
        <ele>512</ele>
        <time>2021-10-31T12:30:22.450Z</time>
      </trkpt>
      <trkpt lat="44.01017" lon="2.57781">
        <ele>512</ele>
        <time>2021-10-31T12:30:23.450Z</time>
      </trkpt>
      <trkpt lat="44.01018" lon="2.57782">
        <ele>512</ele>
        <time>2021-10-31T12:30:24.450Z</time>
      </trkpt>
      <trkpt lat="44.01019" lon="2.57782">
        <ele>512</ele>
        <time>2021-10-31T12:30:25.450Z</time>
      </trkpt>
      <trkpt lat="44.0102" lon="2.57782">
        <ele>512</ele>
        <time>2021-10-31T12:30:26.450Z</time>
      </trkpt>
      <trkpt lat="44.01021" lon="2.57782">
        <ele>512</ele>
        <time>2021-10-31T12:30:27.450Z</time>
      </trkpt>
      <trkpt lat="44.01022" lon="2.57782">
        <ele>512</ele>
        <time>2021-10-31T12:30:28.450Z</time>
      </trkpt>
      <trkpt lat="44.01023" lon="2.57782">
        <ele>512</ele>
        <time>2021-10-31T12:30:29.450Z</time>
      </trkpt>
      <trkpt lat="44.01024" lon="2.57782">
        <ele>512</ele>
        <time>2021-10-31T12:30:30.450Z</time>
      </trkpt>
      <trkpt lat="44.01025" lon="2.57782">
        <ele>512</ele>
        <time>2021-10-31T12:30:31.450Z</time>
      </trkpt>
      <trkpt lat="44.01026" lon="2.57782">
        <ele>512</ele>
        <time>2021-10-31T12:30:32.450Z</time>
      </trkpt>
      <trkpt lat="44.01027" lon="2.57782">
        <ele>512</ele>
        <time>2021-10-31T12:30:33.450Z</time>
      </trkpt>
      <trkpt lat="44.01028" lon="2.57782">
        <ele>512</ele>
        <time>2021-10-31T12:30:34.450Z</time>
      </trkpt>
      <trkpt lat="44.01029" lon="2.57783">
        <ele>512</ele>
        <time>2021-10-31T12:30:35.450Z</time>
      </trkpt>
      <trkpt lat="44.0103" lon="2.57783">
        <ele>512</ele>
        <time>2021-10-31T12:30:36.450Z</time>
      </trkpt>
      <trkpt lat="44.01031" lon="2.57783">
        <ele>512</ele>
        <time>2021-10-31T12:30:37.450Z</time>
      </trkpt>
      <trkpt lat="44.01032" lon="2.57784">
        <ele>512</ele>
        <time>2021-10-31T12:30:38.450Z</time>
      </trkpt>
      <trkpt lat="44.01033" lon="2.57784">
        <ele>512</ele>
        <time>2021-10-31T12:30:39.450Z</time>
      </trkpt>
      <trkpt lat="44.01034" lon="2.57784">
        <ele>512</ele>
        <time>2021-10-31T12:30:40.450Z</time>
      </trkpt>
      <trkpt lat="44.01035" lon="2.57784">
        <ele>512</ele>
        <time>2021-10-31T12:30:41.450Z</time>
      </trkpt>
      <trkpt lat="44.01036" lon="2.57784">
        <ele>512</ele>
        <time>2021-10-31T12:30:42.450Z</time>
      </trkpt>
      <trkpt lat="44.01037" lon="2.57784">
        <ele>512</ele>
        <time>2021-10-31T12:30:43.450Z</time>
      </trkpt>
      <trkpt lat="44.01038" lon="2.57784">
        <ele>512</ele>
        <time>2021-10-31T12:30:44.450Z</time>
      </trkpt>
      <trkpt lat="44.01039" lon="2.57784">
        <ele>512</ele>
        <time>2021-10-31T12:30:45.450Z</time>
      </trkpt>
      <trkpt lat="44.0104" lon="2.57784">
        <ele>512</ele>
        <time>2021-10-31T12:30:46.450Z</time>
      </trkpt>
      <trkpt lat="44.01042" lon="2.57785">
        <ele>512</ele>
        <time>2021-10-31T12:30:47.450Z</time>
      </trkpt>
      <trkpt lat="44.01043" lon="2.57784">
        <ele>512</ele>
        <time>2021-10-31T12:30:48.450Z</time>
      </trkpt>
      <trkpt lat="44.01044" lon="2.57784">
        <ele>512</ele>
        <time>2021-10-31T12:30:49.450Z</time>
      </trkpt>
      <trkpt lat="44.01045" lon="2.57784">
        <ele>512</ele>
        <time>2021-10-31T12:30:50.450Z</time>
      </trkpt>
      <trkpt lat="44.01046" lon="2.57784">
        <ele>512</ele>
        <time>2021-10-31T12:30:51.450Z</time>
      </trkpt>
      <trkpt lat="44.01047" lon="2.57784">
        <ele>512</ele>
        <time>2021-10-31T12:30:52.450Z</time>
      </trkpt>
      <trkpt lat="44.01048" lon="2.57784">
        <ele>512</ele>
        <time>2021-10-31T12:30:53.450Z</time>
      </trkpt>
      <trkpt lat="44.01049" lon="2.57784">
        <ele>512</ele>
        <time>2021-10-31T12:30:54.450Z</time>
      </trkpt>
      <trkpt lat="44.0105" lon="2.57784">
        <ele>512</ele>
        <time>2021-10-31T12:30:55.450Z</time>
      </trkpt>
      <trkpt lat="44.01052" lon="2.57783">
        <ele>512</ele>
        <time>2021-10-31T12:30:56.450Z</time>
      </trkpt>
      <trkpt lat="44.01053" lon="2.57783">
        <ele>512</ele>
        <time>2021-10-31T12:30:57.450Z</time>
      </trkpt>
      <trkpt lat="44.01054" lon="2.57783">
        <ele>511</ele>
        <time>2021-10-31T12:30:58.450Z</time>
      </trkpt>
      <trkpt lat="44.01055" lon="2.57783">
        <ele>511</ele>
        <time>2021-10-31T12:30:59.450Z</time>
      </trkpt>
      <trkpt lat="44.01056" lon="2.57782">
        <ele>511</ele>
        <time>2021-10-31T12:31:00.450Z</time>
      </trkpt>
      <trkpt lat="44.01057" lon="2.57781">
        <ele>511</ele>
        <time>2021-10-31T12:31:01.450Z</time>
      </trkpt>
      <trkpt lat="44.01058" lon="2.57781">
        <ele>511</ele>
        <time>2021-10-31T12:31:02.450Z</time>
      </trkpt>
      <trkpt lat="44.01059" lon="2.57781">
        <ele>511</ele>
        <time>2021-10-31T12:31:03.450Z</time>
      </trkpt>
      <trkpt lat="44.0106" lon="2.57781">
        <ele>511</ele>
        <time>2021-10-31T12:31:04.450Z</time>
      </trkpt>
      <trkpt lat="44.01061" lon="2.5778">
        <ele>511</ele>
        <time>2021-10-31T12:31:05.450Z</time>
      </trkpt>
      <trkpt lat="44.01062" lon="2.5778">
        <ele>511</ele>
        <time>2021-10-31T12:31:06.450Z</time>
      </trkpt>
      <trkpt lat="44.01063" lon="2.57779">
        <ele>511</ele>
        <time>2021-10-31T12:31:07.450Z</time>
      </trkpt>
      <trkpt lat="44.01064" lon="2.57779">
        <ele>511</ele>
        <time>2021-10-31T12:31:08.450Z</time>
      </trkpt>
      <trkpt lat="44.01065" lon="2.57778">
        <ele>511</ele>
        <time>2021-10-31T12:31:09.450Z</time>
      </trkpt>
      <trkpt lat="44.01066" lon="2.57778">
        <ele>512</ele>
        <time>2021-10-31T12:31:10.450Z</time>
      </trkpt>
      <trkpt lat="44.01067" lon="2.57778">
        <ele>512</ele>
        <time>2021-10-31T12:31:11.450Z</time>
      </trkpt>
      <trkpt lat="44.01068" lon="2.57777">
        <ele>512</ele>
        <time>2021-10-31T12:31:12.450Z</time>
      </trkpt>
      <trkpt lat="44.01069" lon="2.57777">
        <ele>512</ele>
        <time>2021-10-31T12:31:13.450Z</time>
      </trkpt>
      <trkpt lat="44.0107" lon="2.57776">
        <ele>512</ele>
        <time>2021-10-31T12:31:14.450Z</time>
      </trkpt>
      <trkpt lat="44.01071" lon="2.57776">
        <ele>512</ele>
        <time>2021-10-31T12:31:15.450Z</time>
      </trkpt>
      <trkpt lat="44.01072" lon="2.57775">
        <ele>512</ele>
        <time>2021-10-31T12:31:16.450Z</time>
      </trkpt>
      <trkpt lat="44.01073" lon="2.57775">
        <ele>512</ele>
        <time>2021-10-31T12:31:17.450Z</time>
      </trkpt>
      <trkpt lat="44.01074" lon="2.57775">
        <ele>512</ele>
        <time>2021-10-31T12:31:18.450Z</time>
      </trkpt>
      <trkpt lat="44.01075" lon="2.57774">
        <ele>511</ele>
        <time>2021-10-31T12:31:19.450Z</time>
      </trkpt>
      <trkpt lat="44.01076" lon="2.57774">
        <ele>511</ele>
        <time>2021-10-31T12:31:20.450Z</time>
      </trkpt>
      <trkpt lat="44.01078" lon="2.57773">
        <ele>511</ele>
        <time>2021-10-31T12:31:21.450Z</time>
      </trkpt>
      <trkpt lat="44.01079" lon="2.57773">
        <ele>511</ele>
        <time>2021-10-31T12:31:22.450Z</time>
      </trkpt>
      <trkpt lat="44.0108" lon="2.57772">
        <ele>511</ele>
        <time>2021-10-31T12:31:23.450Z</time>
      </trkpt>
      <trkpt lat="44.01081" lon="2.57772">
        <ele>511</ele>
        <time>2021-10-31T12:31:24.450Z</time>
      </trkpt>
      <trkpt lat="44.01082" lon="2.57771">
        <ele>511</ele>
        <time>2021-10-31T12:31:25.450Z</time>
      </trkpt>
      <trkpt lat="44.01083" lon="2.57771">
        <ele>511</ele>
        <time>2021-10-31T12:31:26.450Z</time>
      </trkpt>
      <trkpt lat="44.01084" lon="2.57771">
        <ele>511</ele>
        <time>2021-10-31T12:31:27.450Z</time>
      </trkpt>
      <trkpt lat="44.01085" lon="2.5777">
        <ele>511</ele>
        <time>2021-10-31T12:31:28.450Z</time>
      </trkpt>
      <trkpt lat="44.01086" lon="2.57769">
        <ele>511</ele>
        <time>2021-10-31T12:31:29.450Z</time>
      </trkpt>
      <trkpt lat="44.01087" lon="2.57769">
        <ele>511</ele>
        <time>2021-10-31T12:31:30.450Z</time>
      </trkpt>
      <trkpt lat="44.01088" lon="2.57768">
        <ele>511</ele>
        <time>2021-10-31T12:31:31.450Z</time>
      </trkpt>
      <trkpt lat="44.01089" lon="2.57768">
        <ele>510</ele>
        <time>2021-10-31T12:31:32.450Z</time>
      </trkpt>
      <trkpt lat="44.0109" lon="2.57767">
        <ele>510</ele>
        <time>2021-10-31T12:31:33.450Z</time>
      </trkpt>
      <trkpt lat="44.01091" lon="2.57767">
        <ele>510</ele>
        <time>2021-10-31T12:31:34.450Z</time>
      </trkpt>
      <trkpt lat="44.01092" lon="2.57766">
        <ele>510</ele>
        <time>2021-10-31T12:31:35.450Z</time>
      </trkpt>
      <trkpt lat="44.01093" lon="2.57766">
        <ele>510</ele>
        <time>2021-10-31T12:31:36.450Z</time>
      </trkpt>
      <trkpt lat="44.01094" lon="2.57765">
        <ele>510</ele>
        <time>2021-10-31T12:31:37.450Z</time>
      </trkpt>
      <trkpt lat="44.01095" lon="2.57764">
        <ele>510</ele>
        <time>2021-10-31T12:31:38.450Z</time>
      </trkpt>
      <trkpt lat="44.01096" lon="2.57763">
        <ele>510</ele>
        <time>2021-10-31T12:31:39.450Z</time>
      </trkpt>
      <trkpt lat="44.01097" lon="2.57762">
        <ele>510</ele>
        <time>2021-10-31T12:31:40.450Z</time>
      </trkpt>
      <trkpt lat="44.01098" lon="2.57762">
        <ele>510</ele>
        <time>2021-10-31T12:31:41.450Z</time>
      </trkpt>
      <trkpt lat="44.01099" lon="2.57761">
        <ele>510</ele>
        <time>2021-10-31T12:31:42.450Z</time>
      </trkpt>
      <trkpt lat="44.011" lon="2.5776">
        <ele>510</ele>
        <time>2021-10-31T12:31:43.450Z</time>
      </trkpt>
      <trkpt lat="44.01101" lon="2.5776">
        <ele>510</ele>
        <time>2021-10-31T12:31:44.450Z</time>
      </trkpt>
      <trkpt lat="44.01102" lon="2.57759">
        <ele>510</ele>
        <time>2021-10-31T12:31:45.450Z</time>
      </trkpt>
      <trkpt lat="44.01103" lon="2.57759">
        <ele>510</ele>
        <time>2021-10-31T12:31:46.450Z</time>
      </trkpt>
      <trkpt lat="44.01104" lon="2.57758">
        <ele>510</ele>
        <time>2021-10-31T12:31:47.450Z</time>
      </trkpt>
      <trkpt lat="44.01105" lon="2.57757">
        <ele>510</ele>
        <time>2021-10-31T12:31:48.450Z</time>
      </trkpt>
      <trkpt lat="44.01106" lon="2.57757">
        <ele>510</ele>
        <time>2021-10-31T12:31:49.450Z</time>
      </trkpt>
      <trkpt lat="44.01107" lon="2.57756">
        <ele>510</ele>
        <time>2021-10-31T12:31:50.450Z</time>
      </trkpt>
      <trkpt lat="44.01108" lon="2.57755">
        <ele>510</ele>
        <time>2021-10-31T12:31:51.450Z</time>
      </trkpt>
      <trkpt lat="44.01109" lon="2.57754">
        <ele>510</ele>
        <time>2021-10-31T12:31:52.450Z</time>
      </trkpt>
      <trkpt lat="44.0111" lon="2.57753">
        <ele>510</ele>
        <time>2021-10-31T12:31:53.450Z</time>
      </trkpt>
      <trkpt lat="44.01111" lon="2.57753">
        <ele>510</ele>
        <time>2021-10-31T12:31:54.450Z</time>
      </trkpt>
      <trkpt lat="44.01112" lon="2.57752">
        <ele>510</ele>
        <time>2021-10-31T12:31:55.450Z</time>
      </trkpt>
      <trkpt lat="44.01113" lon="2.57751">
        <ele>510</ele>
        <time>2021-10-31T12:31:56.450Z</time>
      </trkpt>
      <trkpt lat="44.01114" lon="2.57751">
        <ele>510</ele>
        <time>2021-10-31T12:31:57.450Z</time>
      </trkpt>
      <trkpt lat="44.01115" lon="2.5775">
        <ele>510</ele>
        <time>2021-10-31T12:31:58.450Z</time>
      </trkpt>
      <trkpt lat="44.01116" lon="2.57749">
        <ele>510</ele>
        <time>2021-10-31T12:31:59.450Z</time>
      </trkpt>
      <trkpt lat="44.01117" lon="2.57749">
        <ele>510</ele>
        <time>2021-10-31T12:32:00.450Z</time>
      </trkpt>
      <trkpt lat="44.01118" lon="2.57748">
        <ele>510</ele>
        <time>2021-10-31T12:32:01.450Z</time>
      </trkpt>
      <trkpt lat="44.01119" lon="2.57747">
        <ele>510</ele>
        <time>2021-10-31T12:32:02.450Z</time>
      </trkpt>
      <trkpt lat="44.0112" lon="2.57746">
        <ele>510</ele>
        <time>2021-10-31T12:32:03.450Z</time>
      </trkpt>
      <trkpt lat="44.01121" lon="2.57746">
        <ele>509</ele>
        <time>2021-10-31T12:32:04.450Z</time>
      </trkpt>
      <trkpt lat="44.01122" lon="2.57745">
        <ele>509</ele>
        <time>2021-10-31T12:32:05.450Z</time>
      </trkpt>
      <trkpt lat="44.01123" lon="2.57744">
        <ele>509</ele>
        <time>2021-10-31T12:32:06.450Z</time>
      </trkpt>
      <trkpt lat="44.01124" lon="2.57744">
        <ele>509</ele>
        <time>2021-10-31T12:32:07.450Z</time>
      </trkpt>
      <trkpt lat="44.01125" lon="2.57743">
        <ele>509</ele>
        <time>2021-10-31T12:32:08.450Z</time>
      </trkpt>
      <trkpt lat="44.01126" lon="2.57742">
        <ele>509</ele>
        <time>2021-10-31T12:32:09.450Z</time>
      </trkpt>
      <trkpt lat="44.01127" lon="2.57742">
        <ele>509</ele>
        <time>2021-10-31T12:32:10.450Z</time>
      </trkpt>
      <trkpt lat="44.01128" lon="2.57741">
        <ele>509</ele>
        <time>2021-10-31T12:32:11.450Z</time>
      </trkpt>
      <trkpt lat="44.01129" lon="2.57741">
        <ele>509</ele>
        <time>2021-10-31T12:32:12.450Z</time>
      </trkpt>
      <trkpt lat="44.0113" lon="2.5774">
        <ele>509</ele>
        <time>2021-10-31T12:32:13.450Z</time>
      </trkpt>
      <trkpt lat="44.01131" lon="2.57739">
        <ele>509</ele>
        <time>2021-10-31T12:32:14.450Z</time>
      </trkpt>
      <trkpt lat="44.01132" lon="2.57739">
        <ele>509</ele>
        <time>2021-10-31T12:32:15.450Z</time>
      </trkpt>
      <trkpt lat="44.01133" lon="2.57738">
        <ele>509</ele>
        <time>2021-10-31T12:32:16.450Z</time>
      </trkpt>
      <trkpt lat="44.01133" lon="2.57737">
        <ele>509</ele>
        <time>2021-10-31T12:32:17.450Z</time>
      </trkpt>
      <trkpt lat="44.01134" lon="2.57736">
        <ele>509</ele>
        <time>2021-10-31T12:32:18.450Z</time>
      </trkpt>
      <trkpt lat="44.01135" lon="2.57736">
        <ele>509</ele>
        <time>2021-10-31T12:32:19.450Z</time>
      </trkpt>
      <trkpt lat="44.01136" lon="2.57735">
        <ele>509</ele>
        <time>2021-10-31T12:32:20.450Z</time>
      </trkpt>
      <trkpt lat="44.01137" lon="2.57735">
        <ele>509</ele>
        <time>2021-10-31T12:32:21.450Z</time>
      </trkpt>
      <trkpt lat="44.01138" lon="2.57734">
        <ele>509</ele>
        <time>2021-10-31T12:32:22.450Z</time>
      </trkpt>
      <trkpt lat="44.01139" lon="2.57734">
        <ele>509</ele>
        <time>2021-10-31T12:32:23.450Z</time>
      </trkpt>
      <trkpt lat="44.0114" lon="2.57733">
        <ele>509</ele>
        <time>2021-10-31T12:32:24.450Z</time>
      </trkpt>
      <trkpt lat="44.01141" lon="2.57732">
        <ele>509</ele>
        <time>2021-10-31T12:32:25.450Z</time>
      </trkpt>
      <trkpt lat="44.01142" lon="2.57732">
        <ele>509</ele>
        <time>2021-10-31T12:32:26.450Z</time>
      </trkpt>
      <trkpt lat="44.01143" lon="2.57731">
        <ele>509</ele>
        <time>2021-10-31T12:32:27.450Z</time>
      </trkpt>
      <trkpt lat="44.01144" lon="2.57731">
        <ele>509</ele>
        <time>2021-10-31T12:32:28.450Z</time>
      </trkpt>
      <trkpt lat="44.01146" lon="2.5773">
        <ele>509</ele>
        <time>2021-10-31T12:32:29.450Z</time>
      </trkpt>
      <trkpt lat="44.01147" lon="2.5773">
        <ele>509</ele>
        <time>2021-10-31T12:32:30.450Z</time>
      </trkpt>
      <trkpt lat="44.01148" lon="2.57729">
        <ele>509</ele>
        <time>2021-10-31T12:32:31.450Z</time>
      </trkpt>
      <trkpt lat="44.01149" lon="2.57729">
        <ele>509</ele>
        <time>2021-10-31T12:32:32.450Z</time>
      </trkpt>
      <trkpt lat="44.0115" lon="2.57728">
        <ele>509</ele>
        <time>2021-10-31T12:32:33.450Z</time>
      </trkpt>
      <trkpt lat="44.01151" lon="2.57727">
        <ele>508</ele>
        <time>2021-10-31T12:32:34.450Z</time>
      </trkpt>
      <trkpt lat="44.01151" lon="2.57727">
        <ele>508</ele>
        <time>2021-10-31T12:32:35.450Z</time>
      </trkpt>
      <trkpt lat="44.01152" lon="2.57726">
        <ele>508</ele>
        <time>2021-10-31T12:32:36.450Z</time>
      </trkpt>
      <trkpt lat="44.01153" lon="2.57726">
        <ele>508</ele>
        <time>2021-10-31T12:32:37.450Z</time>
      </trkpt>
      <trkpt lat="44.01154" lon="2.57725">
        <ele>508</ele>
        <time>2021-10-31T12:32:38.450Z</time>
      </trkpt>
      <trkpt lat="44.01155" lon="2.57725">
        <ele>509</ele>
        <time>2021-10-31T12:32:39.450Z</time>
      </trkpt>
      <trkpt lat="44.01156" lon="2.57724">
        <ele>509</ele>
        <time>2021-10-31T12:32:40.450Z</time>
      </trkpt>
      <trkpt lat="44.01157" lon="2.57723">
        <ele>509</ele>
        <time>2021-10-31T12:32:41.450Z</time>
      </trkpt>
      <trkpt lat="44.01158" lon="2.57722">
        <ele>509</ele>
        <time>2021-10-31T12:32:42.450Z</time>
      </trkpt>
      <trkpt lat="44.01159" lon="2.57722">
        <ele>509</ele>
        <time>2021-10-31T12:32:43.450Z</time>
      </trkpt>
      <trkpt lat="44.0116" lon="2.57721">
        <ele>509</ele>
        <time>2021-10-31T12:32:44.450Z</time>
      </trkpt>
      <trkpt lat="44.01161" lon="2.5772">
        <ele>509</ele>
        <time>2021-10-31T12:32:45.450Z</time>
      </trkpt>
      <trkpt lat="44.01162" lon="2.5772">
        <ele>509</ele>
        <time>2021-10-31T12:32:46.450Z</time>
      </trkpt>
      <trkpt lat="44.01163" lon="2.57719">
        <ele>509</ele>
        <time>2021-10-31T12:32:47.450Z</time>
      </trkpt>
      <trkpt lat="44.01165" lon="2.57718">
        <ele>509</ele>
        <time>2021-10-31T12:32:48.450Z</time>
      </trkpt>
      <trkpt lat="44.01166" lon="2.57718">
        <ele>509</ele>
        <time>2021-10-31T12:32:49.450Z</time>
      </trkpt>
      <trkpt lat="44.01167" lon="2.57717">
        <ele>509</ele>
        <time>2021-10-31T12:32:50.450Z</time>
      </trkpt>
      <trkpt lat="44.01168" lon="2.57716">
        <ele>509</ele>
        <time>2021-10-31T12:32:51.450Z</time>
      </trkpt>
      <trkpt lat="44.01169" lon="2.57715">
        <ele>509</ele>
        <time>2021-10-31T12:32:52.450Z</time>
      </trkpt>
      <trkpt lat="44.0117" lon="2.57715">
        <ele>509</ele>
        <time>2021-10-31T12:32:53.450Z</time>
      </trkpt>
      <trkpt lat="44.0117" lon="2.57714">
        <ele>509</ele>
        <time>2021-10-31T12:32:54.450Z</time>
      </trkpt>
      <trkpt lat="44.01171" lon="2.57713">
        <ele>509</ele>
        <time>2021-10-31T12:32:55.450Z</time>
      </trkpt>
      <trkpt lat="44.01172" lon="2.57712">
        <ele>509</ele>
        <time>2021-10-31T12:32:56.450Z</time>
      </trkpt>
      <trkpt lat="44.01173" lon="2.57712">
        <ele>510</ele>
        <time>2021-10-31T12:32:57.450Z</time>
      </trkpt>
      <trkpt lat="44.01174" lon="2.57711">
        <ele>510</ele>
        <time>2021-10-31T12:32:58.450Z</time>
      </trkpt>
      <trkpt lat="44.01175" lon="2.5771">
        <ele>510</ele>
        <time>2021-10-31T12:32:59.450Z</time>
      </trkpt>
      <trkpt lat="44.01176" lon="2.57709">
        <ele>510</ele>
        <time>2021-10-31T12:33:00.450Z</time>
      </trkpt>
      <trkpt lat="44.01177" lon="2.57709">
        <ele>510</ele>
        <time>2021-10-31T12:33:01.450Z</time>
      </trkpt>
      <trkpt lat="44.01178" lon="2.57708">
        <ele>510</ele>
        <time>2021-10-31T12:33:02.450Z</time>
      </trkpt>
      <trkpt lat="44.01179" lon="2.57707">
        <ele>510</ele>
        <time>2021-10-31T12:33:03.450Z</time>
      </trkpt>
      <trkpt lat="44.01179" lon="2.57706">
        <ele>510</ele>
        <time>2021-10-31T12:33:04.450Z</time>
      </trkpt>
      <trkpt lat="44.0118" lon="2.57705">
        <ele>510</ele>
        <time>2021-10-31T12:33:05.450Z</time>
      </trkpt>
      <trkpt lat="44.01181" lon="2.57705">
        <ele>510</ele>
        <time>2021-10-31T12:33:06.450Z</time>
      </trkpt>
      <trkpt lat="44.01182" lon="2.57704">
        <ele>511</ele>
        <time>2021-10-31T12:33:07.450Z</time>
      </trkpt>
      <trkpt lat="44.01183" lon="2.57703">
        <ele>511</ele>
        <time>2021-10-31T12:33:08.450Z</time>
      </trkpt>
      <trkpt lat="44.01184" lon="2.57703">
        <ele>511</ele>
        <time>2021-10-31T12:33:09.450Z</time>
      </trkpt>
      <trkpt lat="44.01185" lon="2.57702">
        <ele>511</ele>
        <time>2021-10-31T12:33:10.450Z</time>
      </trkpt>
      <trkpt lat="44.01186" lon="2.57701">
        <ele>511</ele>
        <time>2021-10-31T12:33:11.450Z</time>
      </trkpt>
      <trkpt lat="44.01186" lon="2.57701">
        <ele>512</ele>
        <time>2021-10-31T12:33:12.450Z</time>
      </trkpt>
      <trkpt lat="44.01187" lon="2.577">
        <ele>512</ele>
        <time>2021-10-31T12:33:13.450Z</time>
      </trkpt>
      <trkpt lat="44.01188" lon="2.57699">
        <ele>512</ele>
        <time>2021-10-31T12:33:14.450Z</time>
      </trkpt>
      <trkpt lat="44.01189" lon="2.57699">
        <ele>512</ele>
        <time>2021-10-31T12:33:15.450Z</time>
      </trkpt>
      <trkpt lat="44.01189" lon="2.57698">
        <ele>512</ele>
        <time>2021-10-31T12:33:16.450Z</time>
      </trkpt>
      <trkpt lat="44.0119" lon="2.57697">
        <ele>512</ele>
        <time>2021-10-31T12:33:17.450Z</time>
      </trkpt>
      <trkpt lat="44.01191" lon="2.57696">
        <ele>513</ele>
        <time>2021-10-31T12:33:18.450Z</time>
      </trkpt>
      <trkpt lat="44.01191" lon="2.57695">
        <ele>513</ele>
        <time>2021-10-31T12:33:19.450Z</time>
      </trkpt>
      <trkpt lat="44.01192" lon="2.57694">
        <ele>513</ele>
        <time>2021-10-31T12:33:20.450Z</time>
      </trkpt>
      <trkpt lat="44.01193" lon="2.57693">
        <ele>513</ele>
        <time>2021-10-31T12:33:21.450Z</time>
      </trkpt>
      <trkpt lat="44.01193" lon="2.57692">
        <ele>513</ele>
        <time>2021-10-31T12:33:22.450Z</time>
      </trkpt>
      <trkpt lat="44.01194" lon="2.57691">
        <ele>513</ele>
        <time>2021-10-31T12:33:23.450Z</time>
      </trkpt>
      <trkpt lat="44.01195" lon="2.57691">
        <ele>513</ele>
        <time>2021-10-31T12:33:24.450Z</time>
      </trkpt>
      <trkpt lat="44.01195" lon="2.57689">
        <ele>513</ele>
        <time>2021-10-31T12:33:25.450Z</time>
      </trkpt>
      <trkpt lat="44.01196" lon="2.57688">
        <ele>513</ele>
        <time>2021-10-31T12:33:26.450Z</time>
      </trkpt>
      <trkpt lat="44.01197" lon="2.57687">
        <ele>513</ele>
        <time>2021-10-31T12:33:27.450Z</time>
      </trkpt>
      <trkpt lat="44.01198" lon="2.57686">
        <ele>513</ele>
        <time>2021-10-31T12:33:28.450Z</time>
      </trkpt>
      <trkpt lat="44.01199" lon="2.57685">
        <ele>513</ele>
        <time>2021-10-31T12:33:29.450Z</time>
      </trkpt>
      <trkpt lat="44.012" lon="2.57684">
        <ele>514</ele>
        <time>2021-10-31T12:33:30.450Z</time>
      </trkpt>
      <trkpt lat="44.01201" lon="2.57683">
        <ele>514</ele>
        <time>2021-10-31T12:33:31.450Z</time>
      </trkpt>
      <trkpt lat="44.01201" lon="2.57682">
        <ele>514</ele>
        <time>2021-10-31T12:33:32.450Z</time>
      </trkpt>
      <trkpt lat="44.01202" lon="2.57681">
        <ele>514</ele>
        <time>2021-10-31T12:33:33.450Z</time>
      </trkpt>
      <trkpt lat="44.01203" lon="2.57681">
        <ele>514</ele>
        <time>2021-10-31T12:33:34.450Z</time>
      </trkpt>
      <trkpt lat="44.01204" lon="2.5768">
        <ele>514</ele>
        <time>2021-10-31T12:33:35.450Z</time>
      </trkpt>
      <trkpt lat="44.01204" lon="2.57679">
        <ele>514</ele>
        <time>2021-10-31T12:33:36.450Z</time>
      </trkpt>
      <trkpt lat="44.01205" lon="2.57678">
        <ele>515</ele>
        <time>2021-10-31T12:33:37.450Z</time>
      </trkpt>
      <trkpt lat="44.01206" lon="2.57677">
        <ele>515</ele>
        <time>2021-10-31T12:33:38.450Z</time>
      </trkpt>
      <trkpt lat="44.01207" lon="2.57676">
        <ele>515</ele>
        <time>2021-10-31T12:33:39.450Z</time>
      </trkpt>
      <trkpt lat="44.01208" lon="2.57675">
        <ele>515</ele>
        <time>2021-10-31T12:33:40.450Z</time>
      </trkpt>
      <trkpt lat="44.01209" lon="2.57674">
        <ele>515</ele>
        <time>2021-10-31T12:33:41.450Z</time>
      </trkpt>
      <trkpt lat="44.0121" lon="2.57674">
        <ele>515</ele>
        <time>2021-10-31T12:33:42.450Z</time>
      </trkpt>
      <trkpt lat="44.01211" lon="2.57673">
        <ele>515</ele>
        <time>2021-10-31T12:33:43.450Z</time>
      </trkpt>
      <trkpt lat="44.01211" lon="2.57672">
        <ele>515</ele>
        <time>2021-10-31T12:33:44.450Z</time>
      </trkpt>
      <trkpt lat="44.01212" lon="2.57671">
        <ele>515</ele>
        <time>2021-10-31T12:33:45.450Z</time>
      </trkpt>
      <trkpt lat="44.01213" lon="2.5767">
        <ele>515</ele>
        <time>2021-10-31T12:33:46.450Z</time>
      </trkpt>
      <trkpt lat="44.01213" lon="2.57669">
        <ele>515</ele>
        <time>2021-10-31T12:33:47.450Z</time>
      </trkpt>
      <trkpt lat="44.01214" lon="2.57668">
        <ele>515</ele>
        <time>2021-10-31T12:33:48.450Z</time>
      </trkpt>
      <trkpt lat="44.01215" lon="2.57667">
        <ele>515</ele>
        <time>2021-10-31T12:33:49.450Z</time>
      </trkpt>
      <trkpt lat="44.01215" lon="2.57666">
        <ele>515</ele>
        <time>2021-10-31T12:33:50.450Z</time>
      </trkpt>
      <trkpt lat="44.01216" lon="2.57666">
        <ele>515</ele>
        <time>2021-10-31T12:33:51.450Z</time>
      </trkpt>
      <trkpt lat="44.01217" lon="2.57665">
        <ele>515</ele>
        <time>2021-10-31T12:33:52.450Z</time>
      </trkpt>
      <trkpt lat="44.01218" lon="2.57664">
        <ele>515</ele>
        <time>2021-10-31T12:33:53.450Z</time>
      </trkpt>
      <trkpt lat="44.01218" lon="2.57663">
        <ele>515</ele>
        <time>2021-10-31T12:33:54.450Z</time>
      </trkpt>
      <trkpt lat="44.01219" lon="2.57662">
        <ele>515</ele>
        <time>2021-10-31T12:33:55.450Z</time>
      </trkpt>
      <trkpt lat="44.0122" lon="2.57661">
        <ele>515</ele>
        <time>2021-10-31T12:33:56.450Z</time>
      </trkpt>
      <trkpt lat="44.01221" lon="2.5766">
        <ele>515</ele>
        <time>2021-10-31T12:33:57.450Z</time>
      </trkpt>
      <trkpt lat="44.01221" lon="2.57659">
        <ele>515</ele>
        <time>2021-10-31T12:33:58.450Z</time>
      </trkpt>
      <trkpt lat="44.01222" lon="2.57658">
        <ele>515</ele>
        <time>2021-10-31T12:33:59.450Z</time>
      </trkpt>
      <trkpt lat="44.01223" lon="2.57657">
        <ele>515</ele>
        <time>2021-10-31T12:34:00.450Z</time>
      </trkpt>
      <trkpt lat="44.01223" lon="2.57656">
        <ele>515</ele>
        <time>2021-10-31T12:34:01.450Z</time>
      </trkpt>
      <trkpt lat="44.01224" lon="2.57655">
        <ele>515</ele>
        <time>2021-10-31T12:34:02.450Z</time>
      </trkpt>
      <trkpt lat="44.01225" lon="2.57654">
        <ele>516</ele>
        <time>2021-10-31T12:34:03.450Z</time>
      </trkpt>
      <trkpt lat="44.01225" lon="2.57653">
        <ele>516</ele>
        <time>2021-10-31T12:34:04.450Z</time>
      </trkpt>
      <trkpt lat="44.01226" lon="2.57652">
        <ele>516</ele>
        <time>2021-10-31T12:34:05.450Z</time>
      </trkpt>
      <trkpt lat="44.01226" lon="2.57651">
        <ele>516</ele>
        <time>2021-10-31T12:34:06.450Z</time>
      </trkpt>
      <trkpt lat="44.01227" lon="2.5765">
        <ele>516</ele>
        <time>2021-10-31T12:34:07.450Z</time>
      </trkpt>
      <trkpt lat="44.01227" lon="2.57649">
        <ele>516</ele>
        <time>2021-10-31T12:34:08.450Z</time>
      </trkpt>
      <trkpt lat="44.01228" lon="2.57648">
        <ele>516</ele>
        <time>2021-10-31T12:34:09.450Z</time>
      </trkpt>
      <trkpt lat="44.01229" lon="2.57647">
        <ele>516</ele>
        <time>2021-10-31T12:34:10.450Z</time>
      </trkpt>
      <trkpt lat="44.01229" lon="2.57646">
        <ele>516</ele>
        <time>2021-10-31T12:34:11.450Z</time>
      </trkpt>
      <trkpt lat="44.0123" lon="2.57644">
        <ele>516</ele>
        <time>2021-10-31T12:34:12.450Z</time>
      </trkpt>
      <trkpt lat="44.0123" lon="2.57643">
        <ele>516</ele>
        <time>2021-10-31T12:34:13.450Z</time>
      </trkpt>
      <trkpt lat="44.01231" lon="2.57642">
        <ele>516</ele>
        <time>2021-10-31T12:34:14.450Z</time>
      </trkpt>
      <trkpt lat="44.01232" lon="2.57641">
        <ele>516</ele>
        <time>2021-10-31T12:34:15.450Z</time>
      </trkpt>
      <trkpt lat="44.01232" lon="2.5764">
        <ele>516</ele>
        <time>2021-10-31T12:34:16.450Z</time>
      </trkpt>
      <trkpt lat="44.01233" lon="2.57639">
        <ele>516</ele>
        <time>2021-10-31T12:34:17.450Z</time>
      </trkpt>
      <trkpt lat="44.01233" lon="2.57638">
        <ele>516</ele>
        <time>2021-10-31T12:34:18.450Z</time>
      </trkpt>
      <trkpt lat="44.01234" lon="2.57637">
        <ele>516</ele>
        <time>2021-10-31T12:34:19.450Z</time>
      </trkpt>
      <trkpt lat="44.01235" lon="2.57636">
        <ele>516</ele>
        <time>2021-10-31T12:34:20.450Z</time>
      </trkpt>
      <trkpt lat="44.01235" lon="2.57635">
        <ele>516</ele>
        <time>2021-10-31T12:34:21.450Z</time>
      </trkpt>
      <trkpt lat="44.01236" lon="2.57634">
        <ele>516</ele>
        <time>2021-10-31T12:34:22.450Z</time>
      </trkpt>
      <trkpt lat="44.01236" lon="2.57633">
        <ele>516</ele>
        <time>2021-10-31T12:34:23.450Z</time>
      </trkpt>
      <trkpt lat="44.01237" lon="2.57631">
        <ele>516</ele>
        <time>2021-10-31T12:34:24.450Z</time>
      </trkpt>
      <trkpt lat="44.01237" lon="2.5763">
        <ele>516</ele>
        <time>2021-10-31T12:34:25.450Z</time>
      </trkpt>
      <trkpt lat="44.01238" lon="2.57629">
        <ele>516</ele>
        <time>2021-10-31T12:34:26.450Z</time>
      </trkpt>
      <trkpt lat="44.01239" lon="2.57627">
        <ele>517</ele>
        <time>2021-10-31T12:34:27.450Z</time>
      </trkpt>
      <trkpt lat="44.01239" lon="2.57626">
        <ele>517</ele>
        <time>2021-10-31T12:34:28.450Z</time>
      </trkpt>
      <trkpt lat="44.0124" lon="2.57625">
        <ele>517</ele>
        <time>2021-10-31T12:34:29.450Z</time>
      </trkpt>
      <trkpt lat="44.0124" lon="2.57623">
        <ele>517</ele>
        <time>2021-10-31T12:34:30.450Z</time>
      </trkpt>
      <trkpt lat="44.01241" lon="2.57622">
        <ele>517</ele>
        <time>2021-10-31T12:34:31.450Z</time>
      </trkpt>
      <trkpt lat="44.01242" lon="2.57621">
        <ele>517</ele>
        <time>2021-10-31T12:34:32.450Z</time>
      </trkpt>
      <trkpt lat="44.01242" lon="2.5762">
        <ele>517</ele>
        <time>2021-10-31T12:34:33.450Z</time>
      </trkpt>
      <trkpt lat="44.01243" lon="2.57618">
        <ele>517</ele>
        <time>2021-10-31T12:34:34.450Z</time>
      </trkpt>
      <trkpt lat="44.01243" lon="2.57617">
        <ele>517</ele>
        <time>2021-10-31T12:34:35.450Z</time>
      </trkpt>
      <trkpt lat="44.01244" lon="2.57615">
        <ele>517</ele>
        <time>2021-10-31T12:34:36.450Z</time>
      </trkpt>
      <trkpt lat="44.01244" lon="2.57614">
        <ele>517</ele>
        <time>2021-10-31T12:34:37.450Z</time>
      </trkpt>
      <trkpt lat="44.01245" lon="2.57613">
        <ele>517</ele>
        <time>2021-10-31T12:34:38.450Z</time>
      </trkpt>
      <trkpt lat="44.01245" lon="2.57612">
        <ele>517</ele>
        <time>2021-10-31T12:34:39.450Z</time>
      </trkpt>
      <trkpt lat="44.01246" lon="2.5761">
        <ele>517</ele>
        <time>2021-10-31T12:34:40.450Z</time>
      </trkpt>
      <trkpt lat="44.01246" lon="2.57609">
        <ele>517</ele>
        <time>2021-10-31T12:34:41.450Z</time>
      </trkpt>
      <trkpt lat="44.01247" lon="2.57608">
        <ele>517</ele>
        <time>2021-10-31T12:34:42.450Z</time>
      </trkpt>
      <trkpt lat="44.01248" lon="2.57607">
        <ele>518</ele>
        <time>2021-10-31T12:34:43.450Z</time>
      </trkpt>
      <trkpt lat="44.01248" lon="2.57606">
        <ele>518</ele>
        <time>2021-10-31T12:34:44.450Z</time>
      </trkpt>
      <trkpt lat="44.01249" lon="2.57604">
        <ele>518</ele>
        <time>2021-10-31T12:34:45.450Z</time>
      </trkpt>
      <trkpt lat="44.0125" lon="2.57603">
        <ele>518</ele>
        <time>2021-10-31T12:34:46.450Z</time>
      </trkpt>
      <trkpt lat="44.0125" lon="2.57602">
        <ele>518</ele>
        <time>2021-10-31T12:34:47.450Z</time>
      </trkpt>
      <trkpt lat="44.01251" lon="2.576">
        <ele>518</ele>
        <time>2021-10-31T12:34:48.450Z</time>
      </trkpt>
      <trkpt lat="44.01251" lon="2.57599">
        <ele>518</ele>
        <time>2021-10-31T12:34:49.450Z</time>
      </trkpt>
      <trkpt lat="44.01252" lon="2.57598">
        <ele>517</ele>
        <time>2021-10-31T12:34:50.450Z</time>
      </trkpt>
      <trkpt lat="44.01252" lon="2.57597">
        <ele>517</ele>
        <time>2021-10-31T12:34:51.450Z</time>
      </trkpt>
      <trkpt lat="44.01253" lon="2.57596">
        <ele>517</ele>
        <time>2021-10-31T12:34:52.450Z</time>
      </trkpt>
      <trkpt lat="44.01254" lon="2.57594">
        <ele>517</ele>
        <time>2021-10-31T12:34:53.450Z</time>
      </trkpt>
      <trkpt lat="44.01254" lon="2.57593">
        <ele>517</ele>
        <time>2021-10-31T12:34:54.450Z</time>
      </trkpt>
      <trkpt lat="44.01255" lon="2.57592">
        <ele>517</ele>
        <time>2021-10-31T12:34:55.450Z</time>
      </trkpt>
      <trkpt lat="44.01256" lon="2.57591">
        <ele>517</ele>
        <time>2021-10-31T12:34:56.450Z</time>
      </trkpt>
      <trkpt lat="44.01257" lon="2.5759">
        <ele>517</ele>
        <time>2021-10-31T12:34:57.450Z</time>
      </trkpt>
      <trkpt lat="44.01257" lon="2.57589">
        <ele>517</ele>
        <time>2021-10-31T12:34:58.450Z</time>
      </trkpt>
      <trkpt lat="44.01258" lon="2.57587">
        <ele>517</ele>
        <time>2021-10-31T12:34:59.450Z</time>
      </trkpt>
      <trkpt lat="44.01259" lon="2.57587">
        <ele>517</ele>
        <time>2021-10-31T12:35:00.450Z</time>
      </trkpt>
      <trkpt lat="44.0126" lon="2.57585">
        <ele>517</ele>
        <time>2021-10-31T12:35:01.450Z</time>
      </trkpt>
      <trkpt lat="44.0126" lon="2.57584">
        <ele>517</ele>
        <time>2021-10-31T12:35:02.450Z</time>
      </trkpt>
      <trkpt lat="44.01261" lon="2.57583">
        <ele>517</ele>
        <time>2021-10-31T12:35:03.450Z</time>
      </trkpt>
      <trkpt lat="44.01262" lon="2.57582">
        <ele>517</ele>
        <time>2021-10-31T12:35:04.450Z</time>
      </trkpt>
      <trkpt lat="44.01262" lon="2.57581">
        <ele>517</ele>
        <time>2021-10-31T12:35:05.450Z</time>
      </trkpt>
      <trkpt lat="44.01263" lon="2.57581">
        <ele>517</ele>
        <time>2021-10-31T12:35:06.450Z</time>
      </trkpt>
      <trkpt lat="44.01264" lon="2.5758">
        <ele>518</ele>
        <time>2021-10-31T12:35:07.450Z</time>
      </trkpt>
      <trkpt lat="44.01264" lon="2.5758">
        <ele>518</ele>
        <time>2021-10-31T12:35:08.450Z</time>
      </trkpt>
      <trkpt lat="44.01265" lon="2.57579">
        <ele>518</ele>
        <time>2021-10-31T12:35:09.450Z</time>
      </trkpt>
      <trkpt lat="44.01265" lon="2.57579">
        <ele>518</ele>
        <time>2021-10-31T12:35:10.450Z</time>
      </trkpt>
      <trkpt lat="44.01265" lon="2.57579">
        <ele>518</ele>
        <time>2021-10-31T12:35:11.450Z</time>
      </trkpt>
      <trkpt lat="44.01267" lon="2.57578">
        <ele>519</ele>
        <time>2021-10-31T12:35:12.450Z</time>
      </trkpt>
      <trkpt lat="44.01267" lon="2.57578">
        <ele>519</ele>
        <time>2021-10-31T12:35:13.450Z</time>
      </trkpt>
      <trkpt lat="44.01268" lon="2.57578">
        <ele>519</ele>
        <time>2021-10-31T12:35:14.450Z</time>
      </trkpt>
      <trkpt lat="44.01269" lon="2.57578">
        <ele>519</ele>
        <time>2021-10-31T12:35:15.450Z</time>
      </trkpt>
      <trkpt lat="44.0127" lon="2.57578">
        <ele>519</ele>
        <time>2021-10-31T12:35:16.450Z</time>
      </trkpt>
      <trkpt lat="44.01272" lon="2.57578">
        <ele>519</ele>
        <time>2021-10-31T12:35:17.450Z</time>
      </trkpt>
      <trkpt lat="44.01273" lon="2.57578">
        <ele>519</ele>
        <time>2021-10-31T12:35:18.450Z</time>
      </trkpt>
      <trkpt lat="44.01274" lon="2.57579">
        <ele>519</ele>
        <time>2021-10-31T12:35:19.450Z</time>
      </trkpt>
      <trkpt lat="44.01275" lon="2.57579">
        <ele>519</ele>
        <time>2021-10-31T12:35:20.450Z</time>
      </trkpt>
      <trkpt lat="44.01276" lon="2.57579">
        <ele>519</ele>
        <time>2021-10-31T12:35:21.450Z</time>
      </trkpt>
      <trkpt lat="44.01277" lon="2.57579">
        <ele>519</ele>
        <time>2021-10-31T12:35:22.450Z</time>
      </trkpt>
      <trkpt lat="44.01278" lon="2.57579">
        <ele>519</ele>
        <time>2021-10-31T12:35:23.450Z</time>
      </trkpt>
      <trkpt lat="44.01279" lon="2.57579">
        <ele>518</ele>
        <time>2021-10-31T12:35:24.450Z</time>
      </trkpt>
      <trkpt lat="44.0128" lon="2.57579">
        <ele>518</ele>
        <time>2021-10-31T12:35:25.450Z</time>
      </trkpt>
      <trkpt lat="44.01281" lon="2.57579">
        <ele>518</ele>
        <time>2021-10-31T12:35:26.450Z</time>
      </trkpt>
      <trkpt lat="44.01283" lon="2.5758">
        <ele>518</ele>
        <time>2021-10-31T12:35:27.450Z</time>
      </trkpt>
      <trkpt lat="44.01284" lon="2.5758">
        <ele>518</ele>
        <time>2021-10-31T12:35:28.450Z</time>
      </trkpt>
      <trkpt lat="44.01285" lon="2.5758">
        <ele>518</ele>
        <time>2021-10-31T12:35:29.450Z</time>
      </trkpt>
      <trkpt lat="44.01286" lon="2.5758">
        <ele>518</ele>
        <time>2021-10-31T12:35:30.450Z</time>
      </trkpt>
      <trkpt lat="44.01287" lon="2.5758">
        <ele>518</ele>
        <time>2021-10-31T12:35:31.450Z</time>
      </trkpt>
      <trkpt lat="44.01288" lon="2.5758">
        <ele>517</ele>
        <time>2021-10-31T12:35:32.450Z</time>
      </trkpt>
      <trkpt lat="44.0129" lon="2.5758">
        <ele>517</ele>
        <time>2021-10-31T12:35:33.450Z</time>
      </trkpt>
      <trkpt lat="44.01291" lon="2.5758">
        <ele>517</ele>
        <time>2021-10-31T12:35:34.450Z</time>
      </trkpt>
      <trkpt lat="44.01292" lon="2.5758">
        <ele>517</ele>
        <time>2021-10-31T12:35:35.450Z</time>
      </trkpt>
      <trkpt lat="44.01293" lon="2.5758">
        <ele>517</ele>
        <time>2021-10-31T12:35:36.450Z</time>
      </trkpt>
      <trkpt lat="44.01294" lon="2.5758">
        <ele>517</ele>
        <time>2021-10-31T12:35:37.450Z</time>
      </trkpt>
      <trkpt lat="44.01295" lon="2.5758">
        <ele>517</ele>
        <time>2021-10-31T12:35:38.450Z</time>
      </trkpt>
      <trkpt lat="44.01297" lon="2.5758">
        <ele>517</ele>
        <time>2021-10-31T12:35:39.450Z</time>
      </trkpt>
      <trkpt lat="44.01298" lon="2.5758">
        <ele>517</ele>
        <time>2021-10-31T12:35:40.450Z</time>
      </trkpt>
      <trkpt lat="44.01299" lon="2.5758">
        <ele>517</ele>
        <time>2021-10-31T12:35:41.450Z</time>
      </trkpt>
      <trkpt lat="44.013" lon="2.5758">
        <ele>517</ele>
        <time>2021-10-31T12:35:42.450Z</time>
      </trkpt>
      <trkpt lat="44.01301" lon="2.5758">
        <ele>517</ele>
        <time>2021-10-31T12:35:43.450Z</time>
      </trkpt>
      <trkpt lat="44.01302" lon="2.5758">
        <ele>517</ele>
        <time>2021-10-31T12:35:44.450Z</time>
      </trkpt>
      <trkpt lat="44.01304" lon="2.57581">
        <ele>517</ele>
        <time>2021-10-31T12:35:45.450Z</time>
      </trkpt>
      <trkpt lat="44.01305" lon="2.57581">
        <ele>517</ele>
        <time>2021-10-31T12:35:46.450Z</time>
      </trkpt>
      <trkpt lat="44.01306" lon="2.5758">
        <ele>517</ele>
        <time>2021-10-31T12:35:47.450Z</time>
      </trkpt>
      <trkpt lat="44.01307" lon="2.5758">
        <ele>517</ele>
        <time>2021-10-31T12:35:48.450Z</time>
      </trkpt>
      <trkpt lat="44.01308" lon="2.57581">
        <ele>517</ele>
        <time>2021-10-31T12:35:49.450Z</time>
      </trkpt>
      <trkpt lat="44.01309" lon="2.57581">
        <ele>518</ele>
        <time>2021-10-31T12:35:50.450Z</time>
      </trkpt>
      <trkpt lat="44.01311" lon="2.57581">
        <ele>518</ele>
        <time>2021-10-31T12:35:51.450Z</time>
      </trkpt>
      <trkpt lat="44.01312" lon="2.57581">
        <ele>518</ele>
        <time>2021-10-31T12:35:52.450Z</time>
      </trkpt>
      <trkpt lat="44.01313" lon="2.57581">
        <ele>518</ele>
        <time>2021-10-31T12:35:53.450Z</time>
      </trkpt>
      <trkpt lat="44.01314" lon="2.57581">
        <ele>518</ele>
        <time>2021-10-31T12:35:54.450Z</time>
      </trkpt>
      <trkpt lat="44.01315" lon="2.5758">
        <ele>518</ele>
        <time>2021-10-31T12:35:55.450Z</time>
      </trkpt>
      <trkpt lat="44.01316" lon="2.5758">
        <ele>518</ele>
        <time>2021-10-31T12:35:56.450Z</time>
      </trkpt>
      <trkpt lat="44.01318" lon="2.57581">
        <ele>518</ele>
        <time>2021-10-31T12:35:57.450Z</time>
      </trkpt>
      <trkpt lat="44.01319" lon="2.5758">
        <ele>518</ele>
        <time>2021-10-31T12:35:58.450Z</time>
      </trkpt>
      <trkpt lat="44.01319" lon="2.5758">
        <ele>518</ele>
        <time>2021-10-31T12:35:59.450Z</time>
      </trkpt>
      <trkpt lat="44.0132" lon="2.5758">
        <ele>518</ele>
        <time>2021-10-31T12:36:00.450Z</time>
      </trkpt>
      <trkpt lat="44.01322" lon="2.5758">
        <ele>518</ele>
        <time>2021-10-31T12:36:01.450Z</time>
      </trkpt>
      <trkpt lat="44.01323" lon="2.5758">
        <ele>518</ele>
        <time>2021-10-31T12:36:02.450Z</time>
      </trkpt>
      <trkpt lat="44.01324" lon="2.5758">
        <ele>518</ele>
        <time>2021-10-31T12:36:03.450Z</time>
      </trkpt>
      <trkpt lat="44.01325" lon="2.5758">
        <ele>518</ele>
        <time>2021-10-31T12:36:04.450Z</time>
      </trkpt>
      <trkpt lat="44.01326" lon="2.57581">
        <ele>518</ele>
        <time>2021-10-31T12:36:05.450Z</time>
      </trkpt>
      <trkpt lat="44.01328" lon="2.57581">
        <ele>518</ele>
        <time>2021-10-31T12:36:06.450Z</time>
      </trkpt>
      <trkpt lat="44.01329" lon="2.5758">
        <ele>519</ele>
        <time>2021-10-31T12:36:07.450Z</time>
      </trkpt>
      <trkpt lat="44.0133" lon="2.5758">
        <ele>519</ele>
        <time>2021-10-31T12:36:08.450Z</time>
      </trkpt>
      <trkpt lat="44.01331" lon="2.5758">
        <ele>519</ele>
        <time>2021-10-31T12:36:09.450Z</time>
      </trkpt>
      <trkpt lat="44.01332" lon="2.5758">
        <ele>519</ele>
        <time>2021-10-31T12:36:10.450Z</time>
      </trkpt>
      <trkpt lat="44.01333" lon="2.5758">
        <ele>519</ele>
        <time>2021-10-31T12:36:11.450Z</time>
      </trkpt>
      <trkpt lat="44.01335" lon="2.5758">
        <ele>519</ele>
        <time>2021-10-31T12:36:12.450Z</time>
      </trkpt>
      <trkpt lat="44.01336" lon="2.5758">
        <ele>519</ele>
        <time>2021-10-31T12:36:13.450Z</time>
      </trkpt>
      <trkpt lat="44.01337" lon="2.5758">
        <ele>519</ele>
        <time>2021-10-31T12:36:14.450Z</time>
      </trkpt>
      <trkpt lat="44.01338" lon="2.57579">
        <ele>519</ele>
        <time>2021-10-31T12:36:15.450Z</time>
      </trkpt>
      <trkpt lat="44.01339" lon="2.57579">
        <ele>519</ele>
        <time>2021-10-31T12:36:16.450Z</time>
      </trkpt>
      <trkpt lat="44.0134" lon="2.57579">
        <ele>519</ele>
        <time>2021-10-31T12:36:17.450Z</time>
      </trkpt>
      <trkpt lat="44.01341" lon="2.57579">
        <ele>520</ele>
        <time>2021-10-31T12:36:18.450Z</time>
      </trkpt>
      <trkpt lat="44.01342" lon="2.57579">
        <ele>520</ele>
        <time>2021-10-31T12:36:19.450Z</time>
      </trkpt>
      <trkpt lat="44.01343" lon="2.57578">
        <ele>520</ele>
        <time>2021-10-31T12:36:20.450Z</time>
      </trkpt>
      <trkpt lat="44.01344" lon="2.57578">
        <ele>520</ele>
        <time>2021-10-31T12:36:21.450Z</time>
      </trkpt>
      <trkpt lat="44.01345" lon="2.57578">
        <ele>520</ele>
        <time>2021-10-31T12:36:22.450Z</time>
      </trkpt>
      <trkpt lat="44.01347" lon="2.57577">
        <ele>520</ele>
        <time>2021-10-31T12:36:23.450Z</time>
      </trkpt>
      <trkpt lat="44.01348" lon="2.57577">
        <ele>520</ele>
        <time>2021-10-31T12:36:24.450Z</time>
      </trkpt>
      <trkpt lat="44.01349" lon="2.57577">
        <ele>520</ele>
        <time>2021-10-31T12:36:25.450Z</time>
      </trkpt>
      <trkpt lat="44.0135" lon="2.57577">
        <ele>520</ele>
        <time>2021-10-31T12:36:26.450Z</time>
      </trkpt>
      <trkpt lat="44.01351" lon="2.57576">
        <ele>520</ele>
        <time>2021-10-31T12:36:27.450Z</time>
      </trkpt>
      <trkpt lat="44.01352" lon="2.57576">
        <ele>520</ele>
        <time>2021-10-31T12:36:28.450Z</time>
      </trkpt>
      <trkpt lat="44.01353" lon="2.57575">
        <ele>520</ele>
        <time>2021-10-31T12:36:29.450Z</time>
      </trkpt>
      <trkpt lat="44.01354" lon="2.57575">
        <ele>520</ele>
        <time>2021-10-31T12:36:30.450Z</time>
      </trkpt>
      <trkpt lat="44.01355" lon="2.57575">
        <ele>520</ele>
        <time>2021-10-31T12:36:31.450Z</time>
      </trkpt>
      <trkpt lat="44.01356" lon="2.57575">
        <ele>520</ele>
        <time>2021-10-31T12:36:32.450Z</time>
      </trkpt>
      <trkpt lat="44.01357" lon="2.57574">
        <ele>520</ele>
        <time>2021-10-31T12:36:33.450Z</time>
      </trkpt>
      <trkpt lat="44.01358" lon="2.57574">
        <ele>520</ele>
        <time>2021-10-31T12:36:34.450Z</time>
      </trkpt>
      <trkpt lat="44.01359" lon="2.57573">
        <ele>521</ele>
        <time>2021-10-31T12:36:35.450Z</time>
      </trkpt>
      <trkpt lat="44.01359" lon="2.57573">
        <ele>521</ele>
        <time>2021-10-31T12:36:36.450Z</time>
      </trkpt>
      <trkpt lat="44.0136" lon="2.57573">
        <ele>521</ele>
        <time>2021-10-31T12:36:37.450Z</time>
      </trkpt>
      <trkpt lat="44.01362" lon="2.57573">
        <ele>521</ele>
        <time>2021-10-31T12:36:38.450Z</time>
      </trkpt>
      <trkpt lat="44.01363" lon="2.57572">
        <ele>521</ele>
        <time>2021-10-31T12:36:39.450Z</time>
      </trkpt>
      <trkpt lat="44.01364" lon="2.57572">
        <ele>521</ele>
        <time>2021-10-31T12:36:40.450Z</time>
      </trkpt>
      <trkpt lat="44.01364" lon="2.57572">
        <ele>521</ele>
        <time>2021-10-31T12:36:41.450Z</time>
      </trkpt>
      <trkpt lat="44.01366" lon="2.57572">
        <ele>521</ele>
        <time>2021-10-31T12:36:42.450Z</time>
      </trkpt>
      <trkpt lat="44.01366" lon="2.57572">
        <ele>521</ele>
        <time>2021-10-31T12:36:43.450Z</time>
      </trkpt>
      <trkpt lat="44.01367" lon="2.57571">
        <ele>521</ele>
        <time>2021-10-31T12:36:44.450Z</time>
      </trkpt>
      <trkpt lat="44.01368" lon="2.57571">
        <ele>522</ele>
        <time>2021-10-31T12:36:45.450Z</time>
      </trkpt>
      <trkpt lat="44.01369" lon="2.5757">
        <ele>522</ele>
        <time>2021-10-31T12:36:46.450Z</time>
      </trkpt>
      <trkpt lat="44.0137" lon="2.5757">
        <ele>522</ele>
        <time>2021-10-31T12:36:47.450Z</time>
      </trkpt>
      <trkpt lat="44.01371" lon="2.57569">
        <ele>522</ele>
        <time>2021-10-31T12:36:48.450Z</time>
      </trkpt>
      <trkpt lat="44.01371" lon="2.57568">
        <ele>522</ele>
        <time>2021-10-31T12:36:49.450Z</time>
      </trkpt>
      <trkpt lat="44.01373" lon="2.57568">
        <ele>522</ele>
        <time>2021-10-31T12:36:50.450Z</time>
      </trkpt>
      <trkpt lat="44.01374" lon="2.57568">
        <ele>522</ele>
        <time>2021-10-31T12:36:51.450Z</time>
      </trkpt>
      <trkpt lat="44.01375" lon="2.57567">
        <ele>522</ele>
        <time>2021-10-31T12:36:52.450Z</time>
      </trkpt>
      <trkpt lat="44.01376" lon="2.57567">
        <ele>522</ele>
        <time>2021-10-31T12:36:53.450Z</time>
      </trkpt>
      <trkpt lat="44.01376" lon="2.57567">
        <ele>522</ele>
        <time>2021-10-31T12:36:54.450Z</time>
      </trkpt>
      <trkpt lat="44.01377" lon="2.57566">
        <ele>522</ele>
        <time>2021-10-31T12:36:55.450Z</time>
      </trkpt>
      <trkpt lat="44.01378" lon="2.57565">
        <ele>523</ele>
        <time>2021-10-31T12:36:56.450Z</time>
      </trkpt>
      <trkpt lat="44.01379" lon="2.57565">
        <ele>523</ele>
        <time>2021-10-31T12:36:57.450Z</time>
      </trkpt>
      <trkpt lat="44.0138" lon="2.57565">
        <ele>523</ele>
        <time>2021-10-31T12:36:58.450Z</time>
      </trkpt>
      <trkpt lat="44.01381" lon="2.57564">
        <ele>523</ele>
        <time>2021-10-31T12:36:59.450Z</time>
      </trkpt>
      <trkpt lat="44.01382" lon="2.57563">
        <ele>523</ele>
        <time>2021-10-31T12:37:00.450Z</time>
      </trkpt>
      <trkpt lat="44.01383" lon="2.57562">
        <ele>523</ele>
        <time>2021-10-31T12:37:01.450Z</time>
      </trkpt>
      <trkpt lat="44.01384" lon="2.57561">
        <ele>523</ele>
        <time>2021-10-31T12:37:02.450Z</time>
      </trkpt>
      <trkpt lat="44.01385" lon="2.57561">
        <ele>523</ele>
        <time>2021-10-31T12:37:03.450Z</time>
      </trkpt>
      <trkpt lat="44.01387" lon="2.5756">
        <ele>523</ele>
        <time>2021-10-31T12:37:04.450Z</time>
      </trkpt>
      <trkpt lat="44.01388" lon="2.5756">
        <ele>523</ele>
        <time>2021-10-31T12:37:05.450Z</time>
      </trkpt>
      <trkpt lat="44.01389" lon="2.57559">
        <ele>523</ele>
        <time>2021-10-31T12:37:06.450Z</time>
      </trkpt>
      <trkpt lat="44.0139" lon="2.57559">
        <ele>523</ele>
        <time>2021-10-31T12:37:07.450Z</time>
      </trkpt>
      <trkpt lat="44.01391" lon="2.57558">
        <ele>523</ele>
        <time>2021-10-31T12:37:08.450Z</time>
      </trkpt>
      <trkpt lat="44.01392" lon="2.57558">
        <ele>523</ele>
        <time>2021-10-31T12:37:09.450Z</time>
      </trkpt>
      <trkpt lat="44.01393" lon="2.57557">
        <ele>523</ele>
        <time>2021-10-31T12:37:10.450Z</time>
      </trkpt>
      <trkpt lat="44.01394" lon="2.57556">
        <ele>523</ele>
        <time>2021-10-31T12:37:11.450Z</time>
      </trkpt>
      <trkpt lat="44.01395" lon="2.57556">
        <ele>523</ele>
        <time>2021-10-31T12:37:12.450Z</time>
      </trkpt>
      <trkpt lat="44.01396" lon="2.57555">
        <ele>523</ele>
        <time>2021-10-31T12:37:13.450Z</time>
      </trkpt>
      <trkpt lat="44.01397" lon="2.57555">
        <ele>523</ele>
        <time>2021-10-31T12:37:14.450Z</time>
      </trkpt>
      <trkpt lat="44.01398" lon="2.57554">
        <ele>523</ele>
        <time>2021-10-31T12:37:15.450Z</time>
      </trkpt>
      <trkpt lat="44.014" lon="2.57553">
        <ele>523</ele>
        <time>2021-10-31T12:37:16.450Z</time>
      </trkpt>
      <trkpt lat="44.01401" lon="2.57553">
        <ele>523</ele>
        <time>2021-10-31T12:37:17.450Z</time>
      </trkpt>
      <trkpt lat="44.01402" lon="2.57553">
        <ele>523</ele>
        <time>2021-10-31T12:37:18.450Z</time>
      </trkpt>
      <trkpt lat="44.01403" lon="2.57552">
        <ele>523</ele>
        <time>2021-10-31T12:37:19.450Z</time>
      </trkpt>
      <trkpt lat="44.01404" lon="2.57552">
        <ele>523</ele>
        <time>2021-10-31T12:37:20.450Z</time>
      </trkpt>
      <trkpt lat="44.01406" lon="2.57552">
        <ele>523</ele>
        <time>2021-10-31T12:37:21.450Z</time>
      </trkpt>
      <trkpt lat="44.01407" lon="2.57551">
        <ele>523</ele>
        <time>2021-10-31T12:37:22.450Z</time>
      </trkpt>
      <trkpt lat="44.01408" lon="2.57551">
        <ele>523</ele>
        <time>2021-10-31T12:37:23.450Z</time>
      </trkpt>
      <trkpt lat="44.01409" lon="2.57551">
        <ele>523</ele>
        <time>2021-10-31T12:37:24.450Z</time>
      </trkpt>
      <trkpt lat="44.0141" lon="2.57551">
        <ele>523</ele>
        <time>2021-10-31T12:37:25.450Z</time>
      </trkpt>
      <trkpt lat="44.01411" lon="2.57551">
        <ele>523</ele>
        <time>2021-10-31T12:37:26.450Z</time>
      </trkpt>
      <trkpt lat="44.01412" lon="2.57551">
        <ele>524</ele>
        <time>2021-10-31T12:37:27.450Z</time>
      </trkpt>
      <trkpt lat="44.01413" lon="2.57551">
        <ele>524</ele>
        <time>2021-10-31T12:37:28.450Z</time>
      </trkpt>
      <trkpt lat="44.01414" lon="2.57551">
        <ele>524</ele>
        <time>2021-10-31T12:37:29.450Z</time>
      </trkpt>
      <trkpt lat="44.01415" lon="2.57551">
        <ele>524</ele>
        <time>2021-10-31T12:37:30.450Z</time>
      </trkpt>
      <trkpt lat="44.01417" lon="2.57552">
        <ele>524</ele>
        <time>2021-10-31T12:37:31.450Z</time>
      </trkpt>
      <trkpt lat="44.01418" lon="2.57553">
        <ele>524</ele>
        <time>2021-10-31T12:37:32.450Z</time>
      </trkpt>
      <trkpt lat="44.01419" lon="2.57553">
        <ele>524</ele>
        <time>2021-10-31T12:37:33.450Z</time>
      </trkpt>
      <trkpt lat="44.0142" lon="2.57554">
        <ele>524</ele>
        <time>2021-10-31T12:37:34.450Z</time>
      </trkpt>
      <trkpt lat="44.0142" lon="2.57555">
        <ele>524</ele>
        <time>2021-10-31T12:37:35.450Z</time>
      </trkpt>
      <trkpt lat="44.01421" lon="2.57556">
        <ele>524</ele>
        <time>2021-10-31T12:37:36.450Z</time>
      </trkpt>
      <trkpt lat="44.01422" lon="2.57556">
        <ele>524</ele>
        <time>2021-10-31T12:37:37.450Z</time>
      </trkpt>
      <trkpt lat="44.01423" lon="2.57557">
        <ele>524</ele>
        <time>2021-10-31T12:37:38.450Z</time>
      </trkpt>
      <trkpt lat="44.01423" lon="2.57557">
        <ele>524</ele>
        <time>2021-10-31T12:37:39.450Z</time>
      </trkpt>
      <trkpt lat="44.01424" lon="2.57558">
        <ele>524</ele>
        <time>2021-10-31T12:37:40.450Z</time>
      </trkpt>
      <trkpt lat="44.01424" lon="2.57559">
        <ele>524</ele>
        <time>2021-10-31T12:37:41.450Z</time>
      </trkpt>
      <trkpt lat="44.01425" lon="2.5756">
        <ele>524</ele>
        <time>2021-10-31T12:37:42.450Z</time>
      </trkpt>
      <trkpt lat="44.01426" lon="2.57561">
        <ele>524</ele>
        <time>2021-10-31T12:37:43.450Z</time>
      </trkpt>
      <trkpt lat="44.01426" lon="2.57562">
        <ele>524</ele>
        <time>2021-10-31T12:37:44.450Z</time>
      </trkpt>
      <trkpt lat="44.01427" lon="2.57563">
        <ele>524</ele>
        <time>2021-10-31T12:37:45.450Z</time>
      </trkpt>
      <trkpt lat="44.01428" lon="2.57564">
        <ele>524</ele>
        <time>2021-10-31T12:37:46.450Z</time>
      </trkpt>
      <trkpt lat="44.01428" lon="2.57565">
        <ele>524</ele>
        <time>2021-10-31T12:37:47.450Z</time>
      </trkpt>
      <trkpt lat="44.01429" lon="2.57566">
        <ele>525</ele>
        <time>2021-10-31T12:37:48.450Z</time>
      </trkpt>
      <trkpt lat="44.0143" lon="2.57567">
        <ele>525</ele>
        <time>2021-10-31T12:37:49.450Z</time>
      </trkpt>
      <trkpt lat="44.0143" lon="2.57568">
        <ele>524</ele>
        <time>2021-10-31T12:37:50.450Z</time>
      </trkpt>
      <trkpt lat="44.01431" lon="2.5757">
        <ele>524</ele>
        <time>2021-10-31T12:37:51.450Z</time>
      </trkpt>
      <trkpt lat="44.01431" lon="2.57571">
        <ele>524</ele>
        <time>2021-10-31T12:37:52.450Z</time>
      </trkpt>
      <trkpt lat="44.01432" lon="2.57573">
        <ele>524</ele>
        <time>2021-10-31T12:37:53.450Z</time>
      </trkpt>
      <trkpt lat="44.01433" lon="2.57574">
        <ele>524</ele>
        <time>2021-10-31T12:37:54.450Z</time>
      </trkpt>
      <trkpt lat="44.01433" lon="2.57575">
        <ele>524</ele>
        <time>2021-10-31T12:37:55.450Z</time>
      </trkpt>
      <trkpt lat="44.01434" lon="2.57577">
        <ele>524</ele>
        <time>2021-10-31T12:37:56.450Z</time>
      </trkpt>
      <trkpt lat="44.01435" lon="2.57579">
        <ele>524</ele>
        <time>2021-10-31T12:37:57.450Z</time>
      </trkpt>
      <trkpt lat="44.01436" lon="2.5758">
        <ele>524</ele>
        <time>2021-10-31T12:37:58.450Z</time>
      </trkpt>
      <trkpt lat="44.01436" lon="2.57581">
        <ele>524</ele>
        <time>2021-10-31T12:37:59.450Z</time>
      </trkpt>
      <trkpt lat="44.01437" lon="2.57582">
        <ele>524</ele>
        <time>2021-10-31T12:38:00.450Z</time>
      </trkpt>
      <trkpt lat="44.01438" lon="2.57584">
        <ele>524</ele>
        <time>2021-10-31T12:38:01.450Z</time>
      </trkpt>
      <trkpt lat="44.01439" lon="2.57585">
        <ele>524</ele>
        <time>2021-10-31T12:38:02.450Z</time>
      </trkpt>
      <trkpt lat="44.0144" lon="2.57586">
        <ele>524</ele>
        <time>2021-10-31T12:38:03.450Z</time>
      </trkpt>
      <trkpt lat="44.0144" lon="2.57587">
        <ele>524</ele>
        <time>2021-10-31T12:38:04.450Z</time>
      </trkpt>
      <trkpt lat="44.01441" lon="2.57588">
        <ele>524</ele>
        <time>2021-10-31T12:38:05.450Z</time>
      </trkpt>
      <trkpt lat="44.01442" lon="2.5759">
        <ele>524</ele>
        <time>2021-10-31T12:38:06.450Z</time>
      </trkpt>
      <trkpt lat="44.01443" lon="2.57591">
        <ele>524</ele>
        <time>2021-10-31T12:38:07.450Z</time>
      </trkpt>
      <trkpt lat="44.01443" lon="2.57592">
        <ele>524</ele>
        <time>2021-10-31T12:38:08.450Z</time>
      </trkpt>
      <trkpt lat="44.01444" lon="2.57593">
        <ele>524</ele>
        <time>2021-10-31T12:38:09.450Z</time>
      </trkpt>
      <trkpt lat="44.01445" lon="2.57594">
        <ele>524</ele>
        <time>2021-10-31T12:38:10.450Z</time>
      </trkpt>
      <trkpt lat="44.01446" lon="2.57596">
        <ele>524</ele>
        <time>2021-10-31T12:38:11.450Z</time>
      </trkpt>
      <trkpt lat="44.01447" lon="2.57597">
        <ele>524</ele>
        <time>2021-10-31T12:38:12.450Z</time>
      </trkpt>
      <trkpt lat="44.01447" lon="2.57598">
        <ele>524</ele>
        <time>2021-10-31T12:38:13.450Z</time>
      </trkpt>
      <trkpt lat="44.01448" lon="2.57599">
        <ele>524</ele>
        <time>2021-10-31T12:38:14.450Z</time>
      </trkpt>
      <trkpt lat="44.01449" lon="2.57601">
        <ele>524</ele>
        <time>2021-10-31T12:38:15.450Z</time>
      </trkpt>
      <trkpt lat="44.0145" lon="2.57602">
        <ele>524</ele>
        <time>2021-10-31T12:38:16.450Z</time>
      </trkpt>
      <trkpt lat="44.01451" lon="2.57603">
        <ele>525</ele>
        <time>2021-10-31T12:38:17.450Z</time>
      </trkpt>
      <trkpt lat="44.01452" lon="2.57604">
        <ele>525</ele>
        <time>2021-10-31T12:38:18.450Z</time>
      </trkpt>
      <trkpt lat="44.01453" lon="2.57605">
        <ele>525</ele>
        <time>2021-10-31T12:38:19.450Z</time>
      </trkpt>
      <trkpt lat="44.01453" lon="2.57607">
        <ele>525</ele>
        <time>2021-10-31T12:38:20.450Z</time>
      </trkpt>
      <trkpt lat="44.01454" lon="2.57608">
        <ele>525</ele>
        <time>2021-10-31T12:38:21.450Z</time>
      </trkpt>
      <trkpt lat="44.01455" lon="2.57609">
        <ele>524</ele>
        <time>2021-10-31T12:38:22.450Z</time>
      </trkpt>
      <trkpt lat="44.01456" lon="2.57611">
        <ele>524</ele>
        <time>2021-10-31T12:38:23.450Z</time>
      </trkpt>
      <trkpt lat="44.01456" lon="2.57612">
        <ele>524</ele>
        <time>2021-10-31T12:38:24.450Z</time>
      </trkpt>
      <trkpt lat="44.01457" lon="2.57613">
        <ele>524</ele>
        <time>2021-10-31T12:38:25.450Z</time>
      </trkpt>
      <trkpt lat="44.01458" lon="2.57614">
        <ele>524</ele>
        <time>2021-10-31T12:38:26.450Z</time>
      </trkpt>
      <trkpt lat="44.01459" lon="2.57615">
        <ele>524</ele>
        <time>2021-10-31T12:38:27.450Z</time>
      </trkpt>
      <trkpt lat="44.0146" lon="2.57617">
        <ele>524</ele>
        <time>2021-10-31T12:38:28.450Z</time>
      </trkpt>
      <trkpt lat="44.01461" lon="2.57618">
        <ele>524</ele>
        <time>2021-10-31T12:38:29.450Z</time>
      </trkpt>
      <trkpt lat="44.01461" lon="2.57619">
        <ele>524</ele>
        <time>2021-10-31T12:38:30.450Z</time>
      </trkpt>
      <trkpt lat="44.01462" lon="2.57621">
        <ele>524</ele>
        <time>2021-10-31T12:38:31.450Z</time>
      </trkpt>
      <trkpt lat="44.01463" lon="2.57622">
        <ele>524</ele>
        <time>2021-10-31T12:38:32.450Z</time>
      </trkpt>
      <trkpt lat="44.01464" lon="2.57623">
        <ele>524</ele>
        <time>2021-10-31T12:38:33.450Z</time>
      </trkpt>
      <trkpt lat="44.01464" lon="2.57624">
        <ele>524</ele>
        <time>2021-10-31T12:38:34.450Z</time>
      </trkpt>
      <trkpt lat="44.01465" lon="2.57626">
        <ele>524</ele>
        <time>2021-10-31T12:38:35.450Z</time>
      </trkpt>
      <trkpt lat="44.01466" lon="2.57627">
        <ele>524</ele>
        <time>2021-10-31T12:38:36.450Z</time>
      </trkpt>
      <trkpt lat="44.01466" lon="2.57628">
        <ele>524</ele>
        <time>2021-10-31T12:38:37.450Z</time>
      </trkpt>
      <trkpt lat="44.01467" lon="2.5763">
        <ele>524</ele>
        <time>2021-10-31T12:38:38.450Z</time>
      </trkpt>
      <trkpt lat="44.01468" lon="2.57631">
        <ele>524</ele>
        <time>2021-10-31T12:38:39.450Z</time>
      </trkpt>
      <trkpt lat="44.01469" lon="2.57632">
        <ele>524</ele>
        <time>2021-10-31T12:38:40.450Z</time>
      </trkpt>
      <trkpt lat="44.0147" lon="2.57633">
        <ele>525</ele>
        <time>2021-10-31T12:38:41.450Z</time>
      </trkpt>
      <trkpt lat="44.01471" lon="2.57634">
        <ele>525</ele>
        <time>2021-10-31T12:38:42.450Z</time>
      </trkpt>
      <trkpt lat="44.01472" lon="2.57635">
        <ele>524</ele>
        <time>2021-10-31T12:38:43.450Z</time>
      </trkpt>
      <trkpt lat="44.01473" lon="2.57636">
        <ele>524</ele>
        <time>2021-10-31T12:38:44.450Z</time>
      </trkpt>
      <trkpt lat="44.01473" lon="2.57637">
        <ele>524</ele>
        <time>2021-10-31T12:38:45.450Z</time>
      </trkpt>
      <trkpt lat="44.01474" lon="2.57638">
        <ele>524</ele>
        <time>2021-10-31T12:38:46.450Z</time>
      </trkpt>
      <trkpt lat="44.01475" lon="2.57639">
        <ele>524</ele>
        <time>2021-10-31T12:38:47.450Z</time>
      </trkpt>
      <trkpt lat="44.01476" lon="2.5764">
        <ele>524</ele>
        <time>2021-10-31T12:38:48.450Z</time>
      </trkpt>
      <trkpt lat="44.01477" lon="2.57641">
        <ele>524</ele>
        <time>2021-10-31T12:38:49.450Z</time>
      </trkpt>
      <trkpt lat="44.01478" lon="2.57642">
        <ele>524</ele>
        <time>2021-10-31T12:38:50.450Z</time>
      </trkpt>
      <trkpt lat="44.01479" lon="2.57643">
        <ele>524</ele>
        <time>2021-10-31T12:38:51.450Z</time>
      </trkpt>
      <trkpt lat="44.0148" lon="2.57643">
        <ele>524</ele>
        <time>2021-10-31T12:38:52.450Z</time>
      </trkpt>
      <trkpt lat="44.01481" lon="2.57644">
        <ele>524</ele>
        <time>2021-10-31T12:38:53.450Z</time>
      </trkpt>
      <trkpt lat="44.01482" lon="2.57644">
        <ele>524</ele>
        <time>2021-10-31T12:38:54.450Z</time>
      </trkpt>
      <trkpt lat="44.01483" lon="2.57644">
        <ele>525</ele>
        <time>2021-10-31T12:38:55.450Z</time>
      </trkpt>
      <trkpt lat="44.01484" lon="2.57645">
        <ele>525</ele>
        <time>2021-10-31T12:38:56.450Z</time>
      </trkpt>
      <trkpt lat="44.01485" lon="2.57645">
        <ele>525</ele>
        <time>2021-10-31T12:38:57.450Z</time>
      </trkpt>
      <trkpt lat="44.01486" lon="2.57646">
        <ele>525</ele>
        <time>2021-10-31T12:38:58.450Z</time>
      </trkpt>
      <trkpt lat="44.01487" lon="2.57646">
        <ele>525</ele>
        <time>2021-10-31T12:38:59.450Z</time>
      </trkpt>
      <trkpt lat="44.01489" lon="2.57646">
        <ele>525</ele>
        <time>2021-10-31T12:39:00.450Z</time>
      </trkpt>
      <trkpt lat="44.0149" lon="2.57647">
        <ele>525</ele>
        <time>2021-10-31T12:39:01.450Z</time>
      </trkpt>
      <trkpt lat="44.01491" lon="2.57647">
        <ele>525</ele>
        <time>2021-10-31T12:39:02.450Z</time>
      </trkpt>
      <trkpt lat="44.01492" lon="2.57648">
        <ele>525</ele>
        <time>2021-10-31T12:39:03.450Z</time>
      </trkpt>
      <trkpt lat="44.01493" lon="2.57648">
        <ele>525</ele>
        <time>2021-10-31T12:39:04.450Z</time>
      </trkpt>
      <trkpt lat="44.01494" lon="2.57648">
        <ele>525</ele>
        <time>2021-10-31T12:39:05.450Z</time>
      </trkpt>
      <trkpt lat="44.01495" lon="2.57649">
        <ele>526</ele>
        <time>2021-10-31T12:39:06.450Z</time>
      </trkpt>
      <trkpt lat="44.01497" lon="2.5765">
        <ele>526</ele>
        <time>2021-10-31T12:39:07.450Z</time>
      </trkpt>
      <trkpt lat="44.01498" lon="2.5765">
        <ele>526</ele>
        <time>2021-10-31T12:39:08.450Z</time>
      </trkpt>
      <trkpt lat="44.01499" lon="2.5765">
        <ele>526</ele>
        <time>2021-10-31T12:39:09.450Z</time>
      </trkpt>
      <trkpt lat="44.015" lon="2.5765">
        <ele>526</ele>
        <time>2021-10-31T12:39:10.450Z</time>
      </trkpt>
      <trkpt lat="44.01501" lon="2.57651">
        <ele>525</ele>
        <time>2021-10-31T12:39:11.450Z</time>
      </trkpt>
      <trkpt lat="44.01502" lon="2.57651">
        <ele>526</ele>
        <time>2021-10-31T12:39:12.450Z</time>
      </trkpt>
      <trkpt lat="44.01504" lon="2.57651">
        <ele>525</ele>
        <time>2021-10-31T12:39:13.450Z</time>
      </trkpt>
      <trkpt lat="44.01505" lon="2.57651">
        <ele>525</ele>
        <time>2021-10-31T12:39:14.450Z</time>
      </trkpt>
      <trkpt lat="44.01506" lon="2.57652">
        <ele>525</ele>
        <time>2021-10-31T12:39:15.450Z</time>
      </trkpt>
      <trkpt lat="44.01507" lon="2.57652">
        <ele>525</ele>
        <time>2021-10-31T12:39:16.450Z</time>
      </trkpt>
      <trkpt lat="44.01508" lon="2.57653">
        <ele>526</ele>
        <time>2021-10-31T12:39:17.450Z</time>
      </trkpt>
      <trkpt lat="44.01509" lon="2.57653">
        <ele>526</ele>
        <time>2021-10-31T12:39:18.450Z</time>
      </trkpt>
      <trkpt lat="44.0151" lon="2.57653">
        <ele>526</ele>
        <time>2021-10-31T12:39:19.450Z</time>
      </trkpt>
      <trkpt lat="44.01511" lon="2.57654">
        <ele>526</ele>
        <time>2021-10-31T12:39:20.450Z</time>
      </trkpt>
      <trkpt lat="44.01513" lon="2.57654">
        <ele>526</ele>
        <time>2021-10-31T12:39:21.450Z</time>
      </trkpt>
      <trkpt lat="44.01514" lon="2.57655">
        <ele>526</ele>
        <time>2021-10-31T12:39:22.450Z</time>
      </trkpt>
      <trkpt lat="44.01515" lon="2.57655">
        <ele>526</ele>
        <time>2021-10-31T12:39:23.450Z</time>
      </trkpt>
      <trkpt lat="44.01516" lon="2.57655">
        <ele>526</ele>
        <time>2021-10-31T12:39:24.450Z</time>
      </trkpt>
      <trkpt lat="44.01517" lon="2.57655">
        <ele>526</ele>
        <time>2021-10-31T12:39:25.450Z</time>
      </trkpt>
      <trkpt lat="44.01519" lon="2.57656">
        <ele>526</ele>
        <time>2021-10-31T12:39:26.450Z</time>
      </trkpt>
      <trkpt lat="44.0152" lon="2.57656">
        <ele>526</ele>
        <time>2021-10-31T12:39:27.450Z</time>
      </trkpt>
      <trkpt lat="44.01521" lon="2.57657">
        <ele>526</ele>
        <time>2021-10-31T12:39:28.450Z</time>
      </trkpt>
      <trkpt lat="44.01522" lon="2.57657">
        <ele>526</ele>
        <time>2021-10-31T12:39:29.450Z</time>
      </trkpt>
      <trkpt lat="44.01523" lon="2.57657">
        <ele>526</ele>
        <time>2021-10-31T12:39:30.450Z</time>
      </trkpt>
      <trkpt lat="44.01524" lon="2.57658">
        <ele>526</ele>
        <time>2021-10-31T12:39:31.450Z</time>
      </trkpt>
      <trkpt lat="44.01525" lon="2.57658">
        <ele>526</ele>
        <time>2021-10-31T12:39:32.450Z</time>
      </trkpt>
      <trkpt lat="44.01526" lon="2.57658">
        <ele>526</ele>
        <time>2021-10-31T12:39:33.450Z</time>
      </trkpt>
      <trkpt lat="44.01527" lon="2.57659">
        <ele>526</ele>
        <time>2021-10-31T12:39:34.450Z</time>
      </trkpt>
      <trkpt lat="44.01528" lon="2.57659">
        <ele>526</ele>
        <time>2021-10-31T12:39:35.450Z</time>
      </trkpt>
      <trkpt lat="44.01529" lon="2.5766">
        <ele>526</ele>
        <time>2021-10-31T12:39:36.450Z</time>
      </trkpt>
      <trkpt lat="44.0153" lon="2.5766">
        <ele>526</ele>
        <time>2021-10-31T12:39:37.450Z</time>
      </trkpt>
      <trkpt lat="44.01531" lon="2.5766">
        <ele>526</ele>
        <time>2021-10-31T12:39:38.450Z</time>
      </trkpt>
      <trkpt lat="44.01532" lon="2.5766">
        <ele>527</ele>
        <time>2021-10-31T12:39:39.450Z</time>
      </trkpt>
      <trkpt lat="44.01533" lon="2.57661">
        <ele>527</ele>
        <time>2021-10-31T12:39:40.450Z</time>
      </trkpt>
      <trkpt lat="44.01534" lon="2.57661">
        <ele>527</ele>
        <time>2021-10-31T12:39:41.450Z</time>
      </trkpt>
      <trkpt lat="44.01535" lon="2.57661">
        <ele>527</ele>
        <time>2021-10-31T12:39:42.450Z</time>
      </trkpt>
      <trkpt lat="44.01537" lon="2.5766">
        <ele>527</ele>
        <time>2021-10-31T12:39:43.450Z</time>
      </trkpt>
      <trkpt lat="44.01538" lon="2.5766">
        <ele>527</ele>
        <time>2021-10-31T12:39:44.450Z</time>
      </trkpt>
      <trkpt lat="44.01539" lon="2.5766">
        <ele>527</ele>
        <time>2021-10-31T12:39:45.450Z</time>
      </trkpt>
      <trkpt lat="44.0154" lon="2.5766">
        <ele>527</ele>
        <time>2021-10-31T12:39:46.450Z</time>
      </trkpt>
      <trkpt lat="44.01541" lon="2.5766">
        <ele>527</ele>
        <time>2021-10-31T12:39:47.450Z</time>
      </trkpt>
      <trkpt lat="44.01542" lon="2.5766">
        <ele>527</ele>
        <time>2021-10-31T12:39:48.450Z</time>
      </trkpt>
      <trkpt lat="44.01543" lon="2.5766">
        <ele>528</ele>
        <time>2021-10-31T12:39:49.450Z</time>
      </trkpt>
      <trkpt lat="44.01544" lon="2.5766">
        <ele>528</ele>
        <time>2021-10-31T12:39:50.450Z</time>
      </trkpt>
      <trkpt lat="44.01545" lon="2.5766">
        <ele>528</ele>
        <time>2021-10-31T12:39:51.450Z</time>
      </trkpt>
      <trkpt lat="44.01545" lon="2.57659">
        <ele>528</ele>
        <time>2021-10-31T12:39:52.450Z</time>
      </trkpt>
      <trkpt lat="44.01546" lon="2.57659">
        <ele>528</ele>
        <time>2021-10-31T12:39:53.450Z</time>
      </trkpt>
      <trkpt lat="44.01547" lon="2.57658">
        <ele>528</ele>
        <time>2021-10-31T12:39:54.450Z</time>
      </trkpt>
      <trkpt lat="44.01547" lon="2.57657">
        <ele>528</ele>
        <time>2021-10-31T12:39:55.450Z</time>
      </trkpt>
      <trkpt lat="44.01547" lon="2.57656">
        <ele>528</ele>
        <time>2021-10-31T12:39:56.450Z</time>
      </trkpt>
      <trkpt lat="44.01546" lon="2.57655">
        <ele>528</ele>
        <time>2021-10-31T12:39:57.450Z</time>
      </trkpt>
      <trkpt lat="44.01546" lon="2.57654">
        <ele>528</ele>
        <time>2021-10-31T12:39:58.450Z</time>
      </trkpt>
      <trkpt lat="44.01546" lon="2.57654">
        <ele>528</ele>
        <time>2021-10-31T12:39:59.450Z</time>
      </trkpt>
      <trkpt lat="44.01545" lon="2.57653">
        <ele>528</ele>
        <time>2021-10-31T12:40:00.450Z</time>
      </trkpt>
      <trkpt lat="44.01545" lon="2.57653">
        <ele>528</ele>
        <time>2021-10-31T12:40:01.450Z</time>
      </trkpt>
      <trkpt lat="44.01544" lon="2.57653">
        <ele>528</ele>
        <time>2021-10-31T12:40:02.450Z</time>
      </trkpt>
      <trkpt lat="44.01544" lon="2.57653">
        <ele>528</ele>
        <time>2021-10-31T12:40:03.450Z</time>
      </trkpt>
      <trkpt lat="44.01544" lon="2.57652">
        <ele>528</ele>
        <time>2021-10-31T12:40:04.450Z</time>
      </trkpt>
      <trkpt lat="44.01543" lon="2.57652">
        <ele>528</ele>
        <time>2021-10-31T12:40:05.450Z</time>
      </trkpt>
      <trkpt lat="44.01543" lon="2.57652">
        <ele>528</ele>
        <time>2021-10-31T12:40:06.450Z</time>
      </trkpt>
      <trkpt lat="44.01543" lon="2.57652">
        <ele>528</ele>
        <time>2021-10-31T12:40:07.450Z</time>
      </trkpt>
      <trkpt lat="44.01542" lon="2.57652">
        <ele>528</ele>
        <time>2021-10-31T12:40:08.450Z</time>
      </trkpt>
      <trkpt lat="44.01542" lon="2.57652">
        <ele>528</ele>
        <time>2021-10-31T12:40:09.450Z</time>
      </trkpt>
    </trkseg>
  </trk>
</gpx>